<?xml version="1.0" encoding="UTF-8" standalone="no" ?>
<gpx xmlns="http://www.topografix.com/GPX/1/1" xmlns:xsi="http://www.w3.org/2001/XMLSchema-instance" creator="Kurviger.de" version="1.1" xmlns:gh="https://kurviger.de/public/schema/gpx/1.1">
<metadata>
<name>Sonntag Manghan Grappa Goberra Rolle 460 km</name>
<copyright author="OpenStreetMap contributors"/>
<link href="https://kurviger.de">
<text>Kurviger.de GPX</text>
</link>
<time>2022-02-05T09:41:28Z</time>
</metadata>
<trk><name>Sonntag Manghan Grappa Goberra Rolle 460 km</name><trkseg>
<trkpt lat="46.33519" lon="11.307962"><ele>571.79</ele><time>2022-02-05T09:41:28Z</time></trkpt>
<trkpt lat="46.33525" lon="11.30796"><ele>571.44</ele><time>2022-02-05T09:41:30Z</time></trkpt>
<trkpt lat="46.335408" lon="11.307898"><ele>574.04</ele><time>2022-02-05T09:41:32Z</time></trkpt>
<trkpt lat="46.335847" lon="11.307474"><ele>579.04</ele><time>2022-02-05T09:41:34Z</time></trkpt>
<trkpt lat="46.336009" lon="11.307365"><ele>580.27</ele><time>2022-02-05T09:41:36Z</time></trkpt>
<trkpt lat="46.336271" lon="11.307318"><ele>582.25</ele><time>2022-02-05T09:41:38Z</time></trkpt>
<trkpt lat="46.336394" lon="11.30733"><ele>583.59</ele><time>2022-02-05T09:41:40Z</time></trkpt>
<trkpt lat="46.336634" lon="11.307399"><ele>586.31</ele><time>2022-02-05T09:41:42Z</time></trkpt>
<trkpt lat="46.337508" lon="11.307704"><ele>594.1</ele><time>2022-02-05T09:41:44Z</time></trkpt>
<trkpt lat="46.337677" lon="11.30769"><ele>596.15</ele><time>2022-02-05T09:41:46Z</time></trkpt>
<trkpt lat="46.337882" lon="11.307517"><ele>598.69</ele><time>2022-02-05T09:41:48Z</time></trkpt>
<trkpt lat="46.338355" lon="11.30677"><ele>599.04</ele><time>2022-02-05T09:41:50Z</time></trkpt>
<trkpt lat="46.338537" lon="11.306657"><ele>593.75</ele><time>2022-02-05T09:41:52Z</time></trkpt>
<trkpt lat="46.338637" lon="11.30665"><ele>591.85</ele><time>2022-02-05T09:41:54Z</time></trkpt>
<trkpt lat="46.338836" lon="11.306744"><ele>591.03</ele><time>2022-02-05T09:41:56Z</time></trkpt>
<trkpt lat="46.340118" lon="11.307684"><ele>605.88</ele><time>2022-02-05T09:41:58Z</time></trkpt>
<trkpt lat="46.340338" lon="11.307918"><ele>606.56</ele><time>2022-02-05T09:42:00Z</time></trkpt>
<trkpt lat="46.340422" lon="11.308062"><ele>607.51</ele><time>2022-02-05T09:42:02Z</time></trkpt>
<trkpt lat="46.340534" lon="11.308374"><ele>612.82</ele><time>2022-02-05T09:42:04Z</time></trkpt>
<trkpt lat="46.340557" lon="11.308542"><ele>614.98</ele><time>2022-02-05T09:42:06Z</time></trkpt>
<trkpt lat="46.340554" lon="11.308715"><ele>617.88</ele><time>2022-02-05T09:42:08Z</time></trkpt>
<trkpt lat="46.34054" lon="11.308868"><ele>620.69</ele><time>2022-02-05T09:42:10Z</time></trkpt>
<trkpt lat="46.340467" lon="11.309177"><ele>622.42</ele><time>2022-02-05T09:42:12Z</time></trkpt>
<trkpt lat="46.339507" lon="11.311563"><ele>630.45</ele><time>2022-02-05T09:42:14Z</time></trkpt>
<trkpt lat="46.339472" lon="11.311726"><ele>630.66</ele><time>2022-02-05T09:42:16Z</time></trkpt>
<trkpt lat="46.339434" lon="11.312081"><ele>631.26</ele><time>2022-02-05T09:42:18Z</time></trkpt>
<trkpt lat="46.339434" lon="11.312247"><ele>631.78</ele><time>2022-02-05T09:42:20Z</time></trkpt>
<trkpt lat="46.339509" lon="11.312983"><ele>634.72</ele><time>2022-02-05T09:42:22Z</time></trkpt>
<trkpt lat="46.340189" lon="11.318649"><ele>658.64</ele><time>2022-02-05T09:42:24Z</time></trkpt>
<trkpt lat="46.340262" lon="11.319004"><ele>661.93</ele><time>2022-02-05T09:42:26Z</time></trkpt>
<trkpt lat="46.340343" lon="11.3193"><ele>668.21</ele><time>2022-02-05T09:42:28Z</time></trkpt>
<trkpt lat="46.340461" lon="11.319627"><ele>673.23</ele><time>2022-02-05T09:42:30Z</time></trkpt>
<trkpt lat="46.341312" lon="11.32166"><ele>671.36</ele><time>2022-02-05T09:42:32Z</time></trkpt>
<trkpt lat="46.341488" lon="11.322412"><ele>679.86</ele><time>2022-02-05T09:42:34Z</time></trkpt>
<trkpt lat="46.34166" lon="11.324106"><ele>681.27</ele><time>2022-02-05T09:42:36Z</time></trkpt>
<trkpt lat="46.341764" lon="11.324533"><ele>683.37</ele><time>2022-02-05T09:42:38Z</time></trkpt>
<trkpt lat="46.342557" lon="11.326596"><ele>699.38</ele><time>2022-02-05T09:42:40Z</time></trkpt>
<trkpt lat="46.342657" lon="11.327081"><ele>701.58</ele><time>2022-02-05T09:42:42Z</time></trkpt>
<trkpt lat="46.342666" lon="11.327289"><ele>702.45</ele><time>2022-02-05T09:42:44Z</time></trkpt>
<trkpt lat="46.3426" lon="11.329642"><ele>707.98</ele><time>2022-02-05T09:42:46Z</time></trkpt>
<trkpt lat="46.342622" lon="11.32995"><ele>710.7</ele><time>2022-02-05T09:42:48Z</time></trkpt>
<trkpt lat="46.342697" lon="11.330243"><ele>711.92</ele><time>2022-02-05T09:42:50Z</time></trkpt>
<trkpt lat="46.342925" lon="11.330711"><ele>713.59</ele><time>2022-02-05T09:42:52Z</time></trkpt>
<trkpt lat="46.343111" lon="11.331277"><ele>718.71</ele><time>2022-02-05T09:42:54Z</time></trkpt>
<trkpt lat="46.34329" lon="11.332452"><ele>725.8</ele><time>2022-02-05T09:42:56Z</time></trkpt>
<trkpt lat="46.343389" lon="11.332915"><ele>726.78</ele><time>2022-02-05T09:42:58Z</time></trkpt>
<trkpt lat="46.3434" lon="11.33319"><ele>728.88</ele><time>2022-02-05T09:43:00Z</time></trkpt>
<trkpt lat="46.343366" lon="11.333476"><ele>730.53</ele><time>2022-02-05T09:43:02Z</time></trkpt>
<trkpt lat="46.3433" lon="11.333679"><ele>730.99</ele><time>2022-02-05T09:43:04Z</time></trkpt>
<trkpt lat="46.343135" lon="11.333919"><ele>732.06</ele><time>2022-02-05T09:43:06Z</time></trkpt>
<trkpt lat="46.342521" lon="11.334518"><ele>747.33</ele><time>2022-02-05T09:43:08Z</time></trkpt>
<trkpt lat="46.342296" lon="11.334767"><ele>761.15</ele><time>2022-02-05T09:43:10Z</time></trkpt>
<trkpt lat="46.342234" lon="11.334877"><ele>765.49</ele><time>2022-02-05T09:43:12Z</time></trkpt>
<trkpt lat="46.342191" lon="11.335006"><ele>768.14</ele><time>2022-02-05T09:43:14Z</time></trkpt>
<trkpt lat="46.34217" lon="11.335197"><ele>768.88</ele><time>2022-02-05T09:43:16Z</time></trkpt>
<trkpt lat="46.342186" lon="11.335341"><ele>769.15</ele><time>2022-02-05T09:43:18Z</time></trkpt>
<trkpt lat="46.342268" lon="11.335567"><ele>769.27</ele><time>2022-02-05T09:43:20Z</time></trkpt>
<trkpt lat="46.342395" lon="11.335682"><ele>765.9</ele><time>2022-02-05T09:43:22Z</time></trkpt>
<trkpt lat="46.342835" lon="11.335949"><ele>757.76</ele><time>2022-02-05T09:43:24Z</time></trkpt>
<trkpt lat="46.342975" lon="11.336157"><ele>757.83</ele><time>2022-02-05T09:43:26Z</time></trkpt>
<trkpt lat="46.343082" lon="11.336435"><ele>757.74</ele><time>2022-02-05T09:43:28Z</time></trkpt>
<trkpt lat="46.343109" lon="11.336619"><ele>757.74</ele><time>2022-02-05T09:43:30Z</time></trkpt>
<trkpt lat="46.3432" lon="11.337689"><ele>770.71</ele><time>2022-02-05T09:43:32Z</time></trkpt>
<trkpt lat="46.343407" lon="11.340295"><ele>785.63</ele><time>2022-02-05T09:43:34Z</time></trkpt>
<trkpt lat="46.343429" lon="11.340833"><ele>785.87</ele><time>2022-02-05T09:43:36Z</time></trkpt>
<trkpt lat="46.343389" lon="11.34108"><ele>786.36</ele><time>2022-02-05T09:43:38Z</time></trkpt>
<trkpt lat="46.343327" lon="11.341226"><ele>787.07</ele><time>2022-02-05T09:43:40Z</time></trkpt>
<trkpt lat="46.342656" lon="11.34242"><ele>807.01</ele><time>2022-02-05T09:43:42Z</time></trkpt>
<trkpt lat="46.342504" lon="11.342622"><ele>806.39</ele><time>2022-02-05T09:43:44Z</time></trkpt>
<trkpt lat="46.342333" lon="11.342781"><ele>808.52</ele><time>2022-02-05T09:43:46Z</time></trkpt>
<trkpt lat="46.342132" lon="11.342912"><ele>811.08</ele><time>2022-02-05T09:43:48Z</time></trkpt>
<trkpt lat="46.341993" lon="11.342945"><ele>811.7</ele><time>2022-02-05T09:43:50Z</time></trkpt>
<trkpt lat="46.341611" lon="11.342897"><ele>818.46</ele><time>2022-02-05T09:43:52Z</time></trkpt>
<trkpt lat="46.341502" lon="11.342946"><ele>819.36</ele><time>2022-02-05T09:43:54Z</time></trkpt>
<trkpt lat="46.341389" lon="11.343033"><ele>818.81</ele><time>2022-02-05T09:43:56Z</time></trkpt>
<trkpt lat="46.340979" lon="11.343598"><ele>824.5</ele><time>2022-02-05T09:43:58Z</time></trkpt>
<trkpt lat="46.340584" lon="11.344093"><ele>829.57</ele><time>2022-02-05T09:44:00Z</time></trkpt>
<trkpt lat="46.340515" lon="11.344271"><ele>830.51</ele><time>2022-02-05T09:44:02Z</time></trkpt>
<trkpt lat="46.34047" lon="11.344465"><ele>831.84</ele><time>2022-02-05T09:44:04Z</time></trkpt>
<trkpt lat="46.340496" lon="11.344728"><ele>832.03</ele><time>2022-02-05T09:44:06Z</time></trkpt>
<trkpt lat="46.340539" lon="11.344969"><ele>834.82</ele><time>2022-02-05T09:44:08Z</time></trkpt>
<trkpt lat="46.34065" lon="11.345333"><ele>840.86</ele><time>2022-02-05T09:44:10Z</time></trkpt>
<trkpt lat="46.340741" lon="11.345575"><ele>846.05</ele><time>2022-02-05T09:44:12Z</time></trkpt>
<trkpt lat="46.340797" lon="11.345702"><ele>847.74</ele><time>2022-02-05T09:44:14Z</time></trkpt>
<trkpt lat="46.340864" lon="11.34579"><ele>847.13</ele><time>2022-02-05T09:44:16Z</time></trkpt>
<trkpt lat="46.340947" lon="11.345851"><ele>843.52</ele><time>2022-02-05T09:44:18Z</time></trkpt>
<trkpt lat="46.341043" lon="11.34589"><ele>838.64</ele><time>2022-02-05T09:44:20Z</time></trkpt>
<trkpt lat="46.342428" lon="11.346238"><ele>836.67</ele><time>2022-02-05T09:44:22Z</time></trkpt>
<trkpt lat="46.342495" lon="11.34629"><ele>837.54</ele><time>2022-02-05T09:44:24Z</time></trkpt>
<trkpt lat="46.342544" lon="11.346359"><ele>838.64</ele><time>2022-02-05T09:44:26Z</time></trkpt>
<trkpt lat="46.342576" lon="11.346448"><ele>839.42</ele><time>2022-02-05T09:44:28Z</time></trkpt>
<trkpt lat="46.342599" lon="11.346575"><ele>840.11</ele><time>2022-02-05T09:44:30Z</time></trkpt>
<trkpt lat="46.34258" lon="11.346707"><ele>841.43</ele><time>2022-02-05T09:44:32Z</time></trkpt>
<trkpt lat="46.342541" lon="11.346811"><ele>842.93</ele><time>2022-02-05T09:44:34Z</time></trkpt>
<trkpt lat="46.342359" lon="11.347046"><ele>849.73</ele><time>2022-02-05T09:44:36Z</time></trkpt>
<trkpt lat="46.342172" lon="11.347338"><ele>855.61</ele><time>2022-02-05T09:44:38Z</time></trkpt>
<trkpt lat="46.34211" lon="11.347523"><ele>857.65</ele><time>2022-02-05T09:44:40Z</time></trkpt>
<trkpt lat="46.342086" lon="11.347689"><ele>858.83</ele><time>2022-02-05T09:44:42Z</time></trkpt>
<trkpt lat="46.34207" lon="11.348092"><ele>859.24</ele><time>2022-02-05T09:44:44Z</time></trkpt>
<trkpt lat="46.341992" lon="11.348578"><ele>862.29</ele><time>2022-02-05T09:44:46Z</time></trkpt>
<trkpt lat="46.341798" lon="11.349353"><ele>869.4</ele><time>2022-02-05T09:44:48Z</time></trkpt>
<trkpt lat="46.341783" lon="11.349604"><ele>869.88</ele><time>2022-02-05T09:44:50Z</time></trkpt>
<trkpt lat="46.341798" lon="11.349769"><ele>869.19</ele><time>2022-02-05T09:44:52Z</time></trkpt>
<trkpt lat="46.341845" lon="11.349965"><ele>868.39</ele><time>2022-02-05T09:44:54Z</time></trkpt>
<trkpt lat="46.341891" lon="11.35008"><ele>867.54</ele><time>2022-02-05T09:44:56Z</time></trkpt>
<trkpt lat="46.342725" lon="11.351631"><ele>874.56</ele><time>2022-02-05T09:44:58Z</time></trkpt>
<trkpt lat="46.34283" lon="11.351883"><ele>873.7</ele><time>2022-02-05T09:45:00Z</time></trkpt>
<trkpt lat="46.343025" lon="11.352548"><ele>879.2</ele><time>2022-02-05T09:45:02Z</time></trkpt>
<trkpt lat="46.343172" lon="11.353234"><ele>886.09</ele><time>2022-02-05T09:45:04Z</time></trkpt>
<trkpt lat="46.343294" lon="11.353608"><ele>886.5</ele><time>2022-02-05T09:45:06Z</time></trkpt>
<trkpt lat="46.343508" lon="11.354149"><ele>880.43</ele><time>2022-02-05T09:45:08Z</time></trkpt>
<trkpt lat="46.343544" lon="11.354304"><ele>879.73</ele><time>2022-02-05T09:45:10Z</time></trkpt>
<trkpt lat="46.343548" lon="11.354426"><ele>880.51</ele><time>2022-02-05T09:45:12Z</time></trkpt>
<trkpt lat="46.343524" lon="11.354546"><ele>882.15</ele><time>2022-02-05T09:45:14Z</time></trkpt>
<trkpt lat="46.343524" lon="11.354546"><ele>882.15</ele><time>2022-02-05T09:45:14Z</time></trkpt>
<trkpt lat="46.343503" lon="11.354648"><ele>883.78</ele><time>2022-02-05T09:45:18Z</time></trkpt>
<trkpt lat="46.34332" lon="11.355087"><ele>894.99</ele><time>2022-02-05T09:45:22Z</time></trkpt>
<trkpt lat="46.342508" lon="11.356148"><ele>895.23</ele><time>2022-02-05T09:45:25Z</time></trkpt>
<trkpt lat="46.341806" lon="11.357322"><ele>902.65</ele><time>2022-02-05T09:45:29Z</time></trkpt>
<trkpt lat="46.34171" lon="11.357432"><ele>901.39</ele><time>2022-02-05T09:45:33Z</time></trkpt>
<trkpt lat="46.341577" lon="11.35753"><ele>900.53</ele><time>2022-02-05T09:45:37Z</time></trkpt>
<trkpt lat="46.341455" lon="11.357569"><ele>901.31</ele><time>2022-02-05T09:45:41Z</time></trkpt>
<trkpt lat="46.340979" lon="11.357494"><ele>909.57</ele><time>2022-02-05T09:45:45Z</time></trkpt>
<trkpt lat="46.340798" lon="11.35751"><ele>911.79</ele><time>2022-02-05T09:45:49Z</time></trkpt>
<trkpt lat="46.34069" lon="11.357553"><ele>913.89</ele><time>2022-02-05T09:45:53Z</time></trkpt>
<trkpt lat="46.340592" lon="11.357624"><ele>914.89</ele><time>2022-02-05T09:45:57Z</time></trkpt>
<trkpt lat="46.340491" lon="11.357729"><ele>915.22</ele><time>2022-02-05T09:46:00Z</time></trkpt>
<trkpt lat="46.340109" lon="11.358404"><ele>909.76</ele><time>2022-02-05T09:46:04Z</time></trkpt>
<trkpt lat="46.340045" lon="11.358486"><ele>909.3</ele><time>2022-02-05T09:46:08Z</time></trkpt>
<trkpt lat="46.339665" lon="11.358782"><ele>908.19</ele><time>2022-02-05T09:46:12Z</time></trkpt>
<trkpt lat="46.339582" lon="11.358823"><ele>909.48</ele><time>2022-02-05T09:46:16Z</time></trkpt>
<trkpt lat="46.339388" lon="11.358854"><ele>912.66</ele><time>2022-02-05T09:46:20Z</time></trkpt>
<trkpt lat="46.339247" lon="11.358845"><ele>912.91</ele><time>2022-02-05T09:46:24Z</time></trkpt>
<trkpt lat="46.338966" lon="11.358763"><ele>911.25</ele><time>2022-02-05T09:46:28Z</time></trkpt>
<trkpt lat="46.338828" lon="11.35875"><ele>909.89</ele><time>2022-02-05T09:46:32Z</time></trkpt>
<trkpt lat="46.338713" lon="11.35876"><ele>909.64</ele><time>2022-02-05T09:46:35Z</time></trkpt>
<trkpt lat="46.338489" lon="11.358856"><ele>909.95</ele><time>2022-02-05T09:46:39Z</time></trkpt>
<trkpt lat="46.338383" lon="11.358941"><ele>910.42</ele><time>2022-02-05T09:46:43Z</time></trkpt>
<trkpt lat="46.335479" lon="11.361838"><ele>925.27</ele><time>2022-02-05T09:46:47Z</time></trkpt>
<trkpt lat="46.335138" lon="11.362169"><ele>934.32</ele><time>2022-02-05T09:46:51Z</time></trkpt>
<trkpt lat="46.334789" lon="11.362455"><ele>936.29</ele><time>2022-02-05T09:46:55Z</time></trkpt>
<trkpt lat="46.334712" lon="11.362538"><ele>936.05</ele><time>2022-02-05T09:46:59Z</time></trkpt>
<trkpt lat="46.334567" lon="11.362758"><ele>939.7</ele><time>2022-02-05T09:47:03Z</time></trkpt>
<trkpt lat="46.334489" lon="11.363014"><ele>939.64</ele><time>2022-02-05T09:47:07Z</time></trkpt>
<trkpt lat="46.334463" lon="11.363197"><ele>939.71</ele><time>2022-02-05T09:47:10Z</time></trkpt>
<trkpt lat="46.334469" lon="11.363299"><ele>939.13</ele><time>2022-02-05T09:47:14Z</time></trkpt>
<trkpt lat="46.334615" lon="11.363986"><ele>937.47</ele><time>2022-02-05T09:47:18Z</time></trkpt>
<trkpt lat="46.334614" lon="11.364337"><ele>939.4</ele><time>2022-02-05T09:47:22Z</time></trkpt>
<trkpt lat="46.334559" lon="11.364675"><ele>942.76</ele><time>2022-02-05T09:47:26Z</time></trkpt>
<trkpt lat="46.334468" lon="11.364937"><ele>946.8</ele><time>2022-02-05T09:47:30Z</time></trkpt>
<trkpt lat="46.334078" lon="11.365618"><ele>951.86</ele><time>2022-02-05T09:47:34Z</time></trkpt>
<trkpt lat="46.333801" lon="11.366044"><ele>953.12</ele><time>2022-02-05T09:47:38Z</time></trkpt>
<trkpt lat="46.333266" lon="11.366604"><ele>950.69</ele><time>2022-02-05T09:47:42Z</time></trkpt>
<trkpt lat="46.3331" lon="11.366853"><ele>954.52</ele><time>2022-02-05T09:47:45Z</time></trkpt>
<trkpt lat="46.332853" lon="11.367376"><ele>960.35</ele><time>2022-02-05T09:47:49Z</time></trkpt>
<trkpt lat="46.332383" lon="11.368444"><ele>973.67</ele><time>2022-02-05T09:47:53Z</time></trkpt>
<trkpt lat="46.332238" lon="11.368827"><ele>974.82</ele><time>2022-02-05T09:47:57Z</time></trkpt>
<trkpt lat="46.33213" lon="11.369167"><ele>974.64</ele><time>2022-02-05T09:48:01Z</time></trkpt>
<trkpt lat="46.332076" lon="11.369409"><ele>975.95</ele><time>2022-02-05T09:48:05Z</time></trkpt>
<trkpt lat="46.332047" lon="11.369614"><ele>975.75</ele><time>2022-02-05T09:48:09Z</time></trkpt>
<trkpt lat="46.33204" lon="11.370558"><ele>976.32</ele><time>2022-02-05T09:48:13Z</time></trkpt>
<trkpt lat="46.332015" lon="11.370846"><ele>977.49</ele><time>2022-02-05T09:48:17Z</time></trkpt>
<trkpt lat="46.331984" lon="11.370967"><ele>977.72</ele><time>2022-02-05T09:48:20Z</time></trkpt>
<trkpt lat="46.331877" lon="11.371212"><ele>978.57</ele><time>2022-02-05T09:48:24Z</time></trkpt>
<trkpt lat="46.3318" lon="11.37134"><ele>979.38</ele><time>2022-02-05T09:48:28Z</time></trkpt>
<trkpt lat="46.331633" lon="11.371547"><ele>981.77</ele><time>2022-02-05T09:48:32Z</time></trkpt>
<trkpt lat="46.331433" lon="11.3718"><ele>984.81</ele><time>2022-02-05T09:48:36Z</time></trkpt>
<trkpt lat="46.331323" lon="11.372041"><ele>985.2</ele><time>2022-02-05T09:48:40Z</time></trkpt>
<trkpt lat="46.331047" lon="11.37314"><ele>983.78</ele><time>2022-02-05T09:48:44Z</time></trkpt>
<trkpt lat="46.330943" lon="11.373396"><ele>983.28</ele><time>2022-02-05T09:48:48Z</time></trkpt>
<trkpt lat="46.330718" lon="11.373823"><ele>986.65</ele><time>2022-02-05T09:48:52Z</time></trkpt>
<trkpt lat="46.33032" lon="11.374304"><ele>989.12</ele><time>2022-02-05T09:48:55Z</time></trkpt>
<trkpt lat="46.327925" lon="11.377949"><ele>1023.82</ele><time>2022-02-05T09:48:59Z</time></trkpt>
<trkpt lat="46.327703" lon="11.378185"><ele>1027.5</ele><time>2022-02-05T09:49:03Z</time></trkpt>
<trkpt lat="46.326755" lon="11.379034"><ele>1030.08</ele><time>2022-02-05T09:49:07Z</time></trkpt>
<trkpt lat="46.325903" lon="11.379791"><ele>1020.63</ele><time>2022-02-05T09:49:11Z</time></trkpt>
<trkpt lat="46.325715" lon="11.38001"><ele>1018.16</ele><time>2022-02-05T09:49:15Z</time></trkpt>
<trkpt lat="46.324667" lon="11.381407"><ele>1024.04</ele><time>2022-02-05T09:49:19Z</time></trkpt>
<trkpt lat="46.323589" lon="11.382964"><ele>1028.53</ele><time>2022-02-05T09:49:23Z</time></trkpt>
<trkpt lat="46.322824" lon="11.384027"><ele>1033.15</ele><time>2022-02-05T09:49:27Z</time></trkpt>
<trkpt lat="46.322696" lon="11.384243"><ele>1036.73</ele><time>2022-02-05T09:49:30Z</time></trkpt>
<trkpt lat="46.322469" lon="11.384684"><ele>1044.93</ele><time>2022-02-05T09:49:34Z</time></trkpt>
<trkpt lat="46.32179" lon="11.386203"><ele>1047.69</ele><time>2022-02-05T09:49:38Z</time></trkpt>
<trkpt lat="46.32167" lon="11.3864"><ele>1046.29</ele><time>2022-02-05T09:49:42Z</time></trkpt>
<trkpt lat="46.321497" lon="11.386574"><ele>1044.2</ele><time>2022-02-05T09:49:46Z</time></trkpt>
<trkpt lat="46.321171" lon="11.386779"><ele>1043.7</ele><time>2022-02-05T09:49:50Z</time></trkpt>
<trkpt lat="46.320352" lon="11.387233"><ele>1050.47</ele><time>2022-02-05T09:49:54Z</time></trkpt>
<trkpt lat="46.320215" lon="11.387333"><ele>1049.28</ele><time>2022-02-05T09:49:58Z</time></trkpt>
<trkpt lat="46.319954" lon="11.387626"><ele>1047.69</ele><time>2022-02-05T09:50:02Z</time></trkpt>
<trkpt lat="46.31952" lon="11.388216"><ele>1058.0</ele><time>2022-02-05T09:50:06Z</time></trkpt>
<trkpt lat="46.318444" lon="11.38969"><ele>1069.19</ele><time>2022-02-05T09:50:09Z</time></trkpt>
<trkpt lat="46.318233" lon="11.389908"><ele>1070.7</ele><time>2022-02-05T09:50:13Z</time></trkpt>
<trkpt lat="46.318022" lon="11.390002"><ele>1071.89</ele><time>2022-02-05T09:50:17Z</time></trkpt>
<trkpt lat="46.31783" lon="11.390031"><ele>1071.39</ele><time>2022-02-05T09:50:21Z</time></trkpt>
<trkpt lat="46.31592" lon="11.389799"><ele>1085.83</ele><time>2022-02-05T09:50:25Z</time></trkpt>
<trkpt lat="46.31556" lon="11.389845"><ele>1085.02</ele><time>2022-02-05T09:50:29Z</time></trkpt>
<trkpt lat="46.315456" lon="11.389899"><ele>1084.57</ele><time>2022-02-05T09:50:33Z</time></trkpt>
<trkpt lat="46.313923" lon="11.391024"><ele>1098.52</ele><time>2022-02-05T09:50:37Z</time></trkpt>
<trkpt lat="46.313645" lon="11.391287"><ele>1093.13</ele><time>2022-02-05T09:50:41Z</time></trkpt>
<trkpt lat="46.313408" lon="11.39155"><ele>1094.69</ele><time>2022-02-05T09:50:44Z</time></trkpt>
<trkpt lat="46.311216" lon="11.394526"><ele>1096.89</ele><time>2022-02-05T09:50:48Z</time></trkpt>
<trkpt lat="46.310815" lon="11.395077"><ele>1108.22</ele><time>2022-02-05T09:50:52Z</time></trkpt>
<trkpt lat="46.310702" lon="11.395406"><ele>1101.33</ele><time>2022-02-05T09:50:56Z</time></trkpt>
<trkpt lat="46.310608" lon="11.395754"><ele>1090.83</ele><time>2022-02-05T09:51:00Z</time></trkpt>
<trkpt lat="46.310563" lon="11.395983"><ele>1088.01</ele><time>2022-02-05T09:51:04Z</time></trkpt>
<trkpt lat="46.310234" lon="11.39806"><ele>1095.0</ele><time>2022-02-05T09:51:08Z</time></trkpt>
<trkpt lat="46.310181" lon="11.398643"><ele>1102.41</ele><time>2022-02-05T09:51:12Z</time></trkpt>
<trkpt lat="46.31014" lon="11.399201"><ele>1102.9</ele><time>2022-02-05T09:51:16Z</time></trkpt>
<trkpt lat="46.310145" lon="11.399383"><ele>1102.37</ele><time>2022-02-05T09:51:19Z</time></trkpt>
<trkpt lat="46.310217" lon="11.400341"><ele>1103.4</ele><time>2022-02-05T09:51:23Z</time></trkpt>
<trkpt lat="46.31027" lon="11.400642"><ele>1103.94</ele><time>2022-02-05T09:51:27Z</time></trkpt>
<trkpt lat="46.31035" lon="11.400836"><ele>1104.51</ele><time>2022-02-05T09:51:31Z</time></trkpt>
<trkpt lat="46.310448" lon="11.400988"><ele>1104.67</ele><time>2022-02-05T09:51:35Z</time></trkpt>
<trkpt lat="46.31088" lon="11.40144"><ele>1107.36</ele><time>2022-02-05T09:51:39Z</time></trkpt>
<trkpt lat="46.310936" lon="11.401552"><ele>1107.74</ele><time>2022-02-05T09:51:43Z</time></trkpt>
<trkpt lat="46.311027" lon="11.401824"><ele>1108.05</ele><time>2022-02-05T09:51:47Z</time></trkpt>
<trkpt lat="46.311044" lon="11.402117"><ele>1106.3</ele><time>2022-02-05T09:51:51Z</time></trkpt>
<trkpt lat="46.311023" lon="11.402263"><ele>1104.95</ele><time>2022-02-05T09:51:54Z</time></trkpt>
<trkpt lat="46.310927" lon="11.402532"><ele>1102.1</ele><time>2022-02-05T09:51:58Z</time></trkpt>
<trkpt lat="46.310847" lon="11.402682"><ele>1100.92</ele><time>2022-02-05T09:52:02Z</time></trkpt>
<trkpt lat="46.310747" lon="11.402824"><ele>1100.47</ele><time>2022-02-05T09:52:06Z</time></trkpt>
<trkpt lat="46.309452" lon="11.4044"><ele>1074.73</ele><time>2022-02-05T09:52:10Z</time></trkpt>
<trkpt lat="46.309272" lon="11.404576"><ele>1075.21</ele><time>2022-02-05T09:52:14Z</time></trkpt>
<trkpt lat="46.309104" lon="11.404665"><ele>1076.3</ele><time>2022-02-05T09:52:18Z</time></trkpt>
<trkpt lat="46.308949" lon="11.404691"><ele>1079.46</ele><time>2022-02-05T09:52:22Z</time></trkpt>
<trkpt lat="46.308587" lon="11.40464"><ele>1081.79</ele><time>2022-02-05T09:52:26Z</time></trkpt>
<trkpt lat="46.308003" lon="11.404502"><ele>1074.89</ele><time>2022-02-05T09:52:29Z</time></trkpt>
<trkpt lat="46.307836" lon="11.404502"><ele>1071.87</ele><time>2022-02-05T09:52:33Z</time></trkpt>
<trkpt lat="46.307625" lon="11.404571"><ele>1069.92</ele><time>2022-02-05T09:52:37Z</time></trkpt>
<trkpt lat="46.307482" lon="11.404663"><ele>1069.51</ele><time>2022-02-05T09:52:41Z</time></trkpt>
<trkpt lat="46.307297" lon="11.404852"><ele>1073.23</ele><time>2022-02-05T09:52:45Z</time></trkpt>
<trkpt lat="46.306671" lon="11.405949"><ele>1071.72</ele><time>2022-02-05T09:52:49Z</time></trkpt>
<trkpt lat="46.30651" lon="11.406197"><ele>1074.65</ele><time>2022-02-05T09:52:53Z</time></trkpt>
<trkpt lat="46.306334" lon="11.406374"><ele>1074.65</ele><time>2022-02-05T09:52:57Z</time></trkpt>
<trkpt lat="46.305563" lon="11.407032"><ele>1071.52</ele><time>2022-02-05T09:53:01Z</time></trkpt>
<trkpt lat="46.305356" lon="11.407165"><ele>1069.48</ele><time>2022-02-05T09:53:04Z</time></trkpt>
<trkpt lat="46.30466" lon="11.407347"><ele>1055.83</ele><time>2022-02-05T09:53:08Z</time></trkpt>
<trkpt lat="46.304465" lon="11.407368"><ele>1054.42</ele><time>2022-02-05T09:53:12Z</time></trkpt>
<trkpt lat="46.303995" lon="11.407261"><ele>1043.92</ele><time>2022-02-05T09:53:16Z</time></trkpt>
<trkpt lat="46.303776" lon="11.407244"><ele>1043.24</ele><time>2022-02-05T09:53:20Z</time></trkpt>
<trkpt lat="46.303459" lon="11.407251"><ele>1048.98</ele><time>2022-02-05T09:53:24Z</time></trkpt>
<trkpt lat="46.302958" lon="11.407271"><ele>1063.34</ele><time>2022-02-05T09:53:28Z</time></trkpt>
<trkpt lat="46.30287" lon="11.407285"><ele>1068.85</ele><time>2022-02-05T09:53:32Z</time></trkpt>
<trkpt lat="46.302668" lon="11.407379"><ele>1082.07</ele><time>2022-02-05T09:53:36Z</time></trkpt>
<trkpt lat="46.29777" lon="11.409682"><ele>1034.43</ele><time>2022-02-05T09:53:39Z</time></trkpt>
<trkpt lat="46.297449" lon="11.409844"><ele>1029.78</ele><time>2022-02-05T09:53:43Z</time></trkpt>
<trkpt lat="46.29706" lon="11.410111"><ele>1022.97</ele><time>2022-02-05T09:53:47Z</time></trkpt>
<trkpt lat="46.29663" lon="11.41047"><ele>1020.69</ele><time>2022-02-05T09:53:51Z</time></trkpt>
<trkpt lat="46.296174" lon="11.410884"><ele>1014.41</ele><time>2022-02-05T09:53:55Z</time></trkpt>
<trkpt lat="46.295777" lon="11.411372"><ele>1017.53</ele><time>2022-02-05T09:53:59Z</time></trkpt>
<trkpt lat="46.295378" lon="11.412035"><ele>1015.36</ele><time>2022-02-05T09:54:03Z</time></trkpt>
<trkpt lat="46.294572" lon="11.414031"><ele>1009.41</ele><time>2022-02-05T09:54:07Z</time></trkpt>
<trkpt lat="46.294269" lon="11.41516"><ele>1011.58</ele><time>2022-02-05T09:54:11Z</time></trkpt>
<trkpt lat="46.294092" lon="11.415727"><ele>1007.29</ele><time>2022-02-05T09:54:14Z</time></trkpt>
<trkpt lat="46.293994" lon="11.416122"><ele>1009.34</ele><time>2022-02-05T09:54:18Z</time></trkpt>
<trkpt lat="46.293908" lon="11.416975"><ele>1012.15</ele><time>2022-02-05T09:54:22Z</time></trkpt>
<trkpt lat="46.293861" lon="11.417219"><ele>1010.59</ele><time>2022-02-05T09:54:26Z</time></trkpt>
<trkpt lat="46.293693" lon="11.417621"><ele>1003.67</ele><time>2022-02-05T09:54:30Z</time></trkpt>
<trkpt lat="46.293464" lon="11.417971"><ele>1001.94</ele><time>2022-02-05T09:54:34Z</time></trkpt>
<trkpt lat="46.293153" lon="11.418256"><ele>1000.07</ele><time>2022-02-05T09:54:38Z</time></trkpt>
<trkpt lat="46.292891" lon="11.418445"><ele>1002.39</ele><time>2022-02-05T09:54:42Z</time></trkpt>
<trkpt lat="46.292449" lon="11.418562"><ele>1002.66</ele><time>2022-02-05T09:54:46Z</time></trkpt>
<trkpt lat="46.291391" lon="11.418761"><ele>998.37</ele><time>2022-02-05T09:54:49Z</time></trkpt>
<trkpt lat="46.290477" lon="11.41896"><ele>1005.06</ele><time>2022-02-05T09:54:53Z</time></trkpt>
<trkpt lat="46.289906" lon="11.419048"><ele>1002.03</ele><time>2022-02-05T09:54:57Z</time></trkpt>
<trkpt lat="46.289801" lon="11.419236"><ele>1003.78</ele><time>2022-02-05T09:54:59Z</time></trkpt>
<trkpt lat="46.289566" lon="11.419579"><ele>1006.83</ele><time>2022-02-05T09:55:00Z</time></trkpt>
<trkpt lat="46.289356" lon="11.419162"><ele>999.53</ele><time>2022-02-05T09:55:02Z</time></trkpt>
<trkpt lat="46.288265" lon="11.419399"><ele>1006.88</ele><time>2022-02-05T09:55:10Z</time></trkpt>
<trkpt lat="46.288011" lon="11.419578"><ele>1006.67</ele><time>2022-02-05T09:55:17Z</time></trkpt>
<trkpt lat="46.287784" lon="11.419833"><ele>1007.2</ele><time>2022-02-05T09:55:24Z</time></trkpt>
<trkpt lat="46.28726" lon="11.4209"><ele>1007.69</ele><time>2022-02-05T09:55:32Z</time></trkpt>
<trkpt lat="46.286683" lon="11.422144"><ele>1006.79</ele><time>2022-02-05T09:55:39Z</time></trkpt>
<trkpt lat="46.286411" lon="11.4225"><ele>1008.92</ele><time>2022-02-05T09:55:45Z</time></trkpt>
<trkpt lat="46.286138" lon="11.422974"><ele>1013.04</ele><time>2022-02-05T09:55:51Z</time></trkpt>
<trkpt lat="46.285909" lon="11.423569"><ele>1013.71</ele><time>2022-02-05T09:55:57Z</time></trkpt>
<trkpt lat="46.285788" lon="11.423761"><ele>1013.58</ele><time>2022-02-05T09:56:03Z</time></trkpt>
<trkpt lat="46.285167" lon="11.42431"><ele>1007.74</ele><time>2022-02-05T09:56:09Z</time></trkpt>
<trkpt lat="46.28398" lon="11.425238"><ele>1009.64</ele><time>2022-02-05T09:56:15Z</time></trkpt>
<trkpt lat="46.2839" lon="11.425244"><ele>1008.45</ele><time>2022-02-05T09:56:19Z</time></trkpt>
<trkpt lat="46.283749" lon="11.425303"><ele>1005.62</ele><time>2022-02-05T09:56:22Z</time></trkpt>
<trkpt lat="46.283563" lon="11.425461"><ele>1002.4</ele><time>2022-02-05T09:56:26Z</time></trkpt>
<trkpt lat="46.282435" lon="11.427167"><ele>992.09</ele><time>2022-02-05T09:56:29Z</time></trkpt>
<trkpt lat="46.28238" lon="11.427278"><ele>992.11</ele><time>2022-02-05T09:56:33Z</time></trkpt>
<trkpt lat="46.282302" lon="11.427551"><ele>993.04</ele><time>2022-02-05T09:56:36Z</time></trkpt>
<trkpt lat="46.28198" lon="11.429062"><ele>988.38</ele><time>2022-02-05T09:56:39Z</time></trkpt>
<trkpt lat="46.281806" lon="11.429593"><ele>986.47</ele><time>2022-02-05T09:56:43Z</time></trkpt>
<trkpt lat="46.281763" lon="11.429939"><ele>982.24</ele><time>2022-02-05T09:56:46Z</time></trkpt>
<trkpt lat="46.281758" lon="11.430256"><ele>977.91</ele><time>2022-02-05T09:56:50Z</time></trkpt>
<trkpt lat="46.281822" lon="11.430551"><ele>975.98</ele><time>2022-02-05T09:56:53Z</time></trkpt>
<trkpt lat="46.281875" lon="11.430695"><ele>975.11</ele><time>2022-02-05T09:56:57Z</time></trkpt>
<trkpt lat="46.28248" lon="11.431695"><ele>973.3</ele><time>2022-02-05T09:57:00Z</time></trkpt>
<trkpt lat="46.282558" lon="11.431882"><ele>971.76</ele><time>2022-02-05T09:57:04Z</time></trkpt>
<trkpt lat="46.282598" lon="11.432087"><ele>970.92</ele><time>2022-02-05T09:57:07Z</time></trkpt>
<trkpt lat="46.28261" lon="11.432373"><ele>969.93</ele><time>2022-02-05T09:57:11Z</time></trkpt>
<trkpt lat="46.282592" lon="11.432536"><ele>969.16</ele><time>2022-02-05T09:57:14Z</time></trkpt>
<trkpt lat="46.282533" lon="11.432759"><ele>968.11</ele><time>2022-02-05T09:57:18Z</time></trkpt>
<trkpt lat="46.282196" lon="11.433401"><ele>963.76</ele><time>2022-02-05T09:57:21Z</time></trkpt>
<trkpt lat="46.28205" lon="11.433877"><ele>963.22</ele><time>2022-02-05T09:57:24Z</time></trkpt>
<trkpt lat="46.281964" lon="11.4344"><ele>960.58</ele><time>2022-02-05T09:57:28Z</time></trkpt>
<trkpt lat="46.281924" lon="11.434522"><ele>959.17</ele><time>2022-02-05T09:57:31Z</time></trkpt>
<trkpt lat="46.281726" lon="11.43485"><ele>954.82</ele><time>2022-02-05T09:57:35Z</time></trkpt>
<trkpt lat="46.281688" lon="11.434887"><ele>954.09</ele><time>2022-02-05T09:57:38Z</time></trkpt>
<trkpt lat="46.282179" lon="11.43515"><ele>958.6</ele><time>2022-02-05T09:57:45Z</time></trkpt>
<trkpt lat="46.282358" lon="11.435306"><ele>961.79</ele><time>2022-02-05T09:57:52Z</time></trkpt>
<trkpt lat="46.283577" lon="11.436571"><ele>969.86</ele><time>2022-02-05T09:57:58Z</time></trkpt>
<trkpt lat="46.28377" lon="11.436804"><ele>972.11</ele><time>2022-02-05T09:58:05Z</time></trkpt>
<trkpt lat="46.284486" lon="11.437914"><ele>981.35</ele><time>2022-02-05T09:58:11Z</time></trkpt>
<trkpt lat="46.284636" lon="11.438084"><ele>982.17</ele><time>2022-02-05T09:58:18Z</time></trkpt>
<trkpt lat="46.285316" lon="11.438498"><ele>990.95</ele><time>2022-02-05T09:58:25Z</time></trkpt>
<trkpt lat="46.28619" lon="11.439438"><ele>1000.9</ele><time>2022-02-05T09:58:31Z</time></trkpt>
<trkpt lat="46.286667" lon="11.440258"><ele>1002.28</ele><time>2022-02-05T09:58:38Z</time></trkpt>
<trkpt lat="46.286777" lon="11.440393"><ele>1002.5</ele><time>2022-02-05T09:58:44Z</time></trkpt>
<trkpt lat="46.286777" lon="11.440393"><ele>1002.5</ele><time>2022-02-05T09:58:44Z</time></trkpt>
<trkpt lat="46.286667" lon="11.440258"><ele>1002.28</ele><time>2022-02-05T09:58:47Z</time></trkpt>
<trkpt lat="46.28619" lon="11.439438"><ele>1000.9</ele><time>2022-02-05T09:58:50Z</time></trkpt>
<trkpt lat="46.285316" lon="11.438498"><ele>990.95</ele><time>2022-02-05T09:58:53Z</time></trkpt>
<trkpt lat="46.284636" lon="11.438084"><ele>982.17</ele><time>2022-02-05T09:58:56Z</time></trkpt>
<trkpt lat="46.284486" lon="11.437914"><ele>981.35</ele><time>2022-02-05T09:58:59Z</time></trkpt>
<trkpt lat="46.28377" lon="11.436804"><ele>972.11</ele><time>2022-02-05T09:59:02Z</time></trkpt>
<trkpt lat="46.283577" lon="11.436571"><ele>969.86</ele><time>2022-02-05T09:59:05Z</time></trkpt>
<trkpt lat="46.282358" lon="11.435306"><ele>961.79</ele><time>2022-02-05T09:59:08Z</time></trkpt>
<trkpt lat="46.282179" lon="11.43515"><ele>958.6</ele><time>2022-02-05T09:59:11Z</time></trkpt>
<trkpt lat="46.281911" lon="11.434996"><ele>956.54</ele><time>2022-02-05T09:59:14Z</time></trkpt>
<trkpt lat="46.281688" lon="11.434887"><ele>954.09</ele><time>2022-02-05T09:59:16Z</time></trkpt>
<trkpt lat="46.281185" lon="11.434696"><ele>951.0</ele><time>2022-02-05T09:59:19Z</time></trkpt>
<trkpt lat="46.280758" lon="11.434547"><ele>950.1</ele><time>2022-02-05T09:59:22Z</time></trkpt>
<trkpt lat="46.279544" lon="11.434144"><ele>940.89</ele><time>2022-02-05T09:59:25Z</time></trkpt>
<trkpt lat="46.279419" lon="11.43411"><ele>940.83</ele><time>2022-02-05T09:59:28Z</time></trkpt>
<trkpt lat="46.279302" lon="11.43402"><ele>940.94</ele><time>2022-02-05T09:59:31Z</time></trkpt>
<trkpt lat="46.279258" lon="11.433939"><ele>940.28</ele><time>2022-02-05T09:59:34Z</time></trkpt>
<trkpt lat="46.279229" lon="11.433867"><ele>939.52</ele><time>2022-02-05T09:59:37Z</time></trkpt>
<trkpt lat="46.279255" lon="11.433725"><ele>937.89</ele><time>2022-02-05T09:59:40Z</time></trkpt>
<trkpt lat="46.279344" lon="11.43337"><ele>935.23</ele><time>2022-02-05T09:59:43Z</time></trkpt>
<trkpt lat="46.279617" lon="11.432088"><ele>925.77</ele><time>2022-02-05T09:59:46Z</time></trkpt>
<trkpt lat="46.279626" lon="11.431948"><ele>924.31</ele><time>2022-02-05T09:59:49Z</time></trkpt>
<trkpt lat="46.279614" lon="11.431807"><ele>923.56</ele><time>2022-02-05T09:59:52Z</time></trkpt>
<trkpt lat="46.279577" lon="11.431624"><ele>922.55</ele><time>2022-02-05T09:59:54Z</time></trkpt>
<trkpt lat="46.279519" lon="11.431448"><ele>922.5</ele><time>2022-02-05T09:59:57Z</time></trkpt>
<trkpt lat="46.278885" lon="11.429917"><ele>923.3</ele><time>2022-02-05T10:00:00Z</time></trkpt>
<trkpt lat="46.277723" lon="11.427098"><ele>917.61</ele><time>2022-02-05T10:00:03Z</time></trkpt>
<trkpt lat="46.277607" lon="11.426845"><ele>918.21</ele><time>2022-02-05T10:00:06Z</time></trkpt>
<trkpt lat="46.277428" lon="11.426628"><ele>918.81</ele><time>2022-02-05T10:00:09Z</time></trkpt>
<trkpt lat="46.276815" lon="11.426052"><ele>910.77</ele><time>2022-02-05T10:00:12Z</time></trkpt>
<trkpt lat="46.276677" lon="11.425957"><ele>910.96</ele><time>2022-02-05T10:00:15Z</time></trkpt>
<trkpt lat="46.276536" lon="11.425902"><ele>911.35</ele><time>2022-02-05T10:00:18Z</time></trkpt>
<trkpt lat="46.276145" lon="11.425932"><ele>907.2</ele><time>2022-02-05T10:00:21Z</time></trkpt>
<trkpt lat="46.276046" lon="11.425907"><ele>904.61</ele><time>2022-02-05T10:00:24Z</time></trkpt>
<trkpt lat="46.275975" lon="11.425847"><ele>902.89</ele><time>2022-02-05T10:00:27Z</time></trkpt>
<trkpt lat="46.275929" lon="11.425761"><ele>901.72</ele><time>2022-02-05T10:00:30Z</time></trkpt>
<trkpt lat="46.275896" lon="11.425615"><ele>901.04</ele><time>2022-02-05T10:00:33Z</time></trkpt>
<trkpt lat="46.27585" lon="11.424952"><ele>896.51</ele><time>2022-02-05T10:00:35Z</time></trkpt>
<trkpt lat="46.275808" lon="11.424493"><ele>894.04</ele><time>2022-02-05T10:00:38Z</time></trkpt>
<trkpt lat="46.275785" lon="11.424379"><ele>894.67</ele><time>2022-02-05T10:00:41Z</time></trkpt>
<trkpt lat="46.27541" lon="11.423534"><ele>890.21</ele><time>2022-02-05T10:00:44Z</time></trkpt>
<trkpt lat="46.275207" lon="11.422772"><ele>887.68</ele><time>2022-02-05T10:00:47Z</time></trkpt>
<trkpt lat="46.275183" lon="11.422621"><ele>886.94</ele><time>2022-02-05T10:00:50Z</time></trkpt>
<trkpt lat="46.275182" lon="11.422493"><ele>887.16</ele><time>2022-02-05T10:00:53Z</time></trkpt>
<trkpt lat="46.275224" lon="11.421906"><ele>891.04</ele><time>2022-02-05T10:00:56Z</time></trkpt>
<trkpt lat="46.275225" lon="11.421768"><ele>892.46</ele><time>2022-02-05T10:00:59Z</time></trkpt>
<trkpt lat="46.275206" lon="11.421673"><ele>892.85</ele><time>2022-02-05T10:01:02Z</time></trkpt>
<trkpt lat="46.275166" lon="11.421584"><ele>892.97</ele><time>2022-02-05T10:01:05Z</time></trkpt>
<trkpt lat="46.275107" lon="11.421529"><ele>892.07</ele><time>2022-02-05T10:01:08Z</time></trkpt>
<trkpt lat="46.274651" lon="11.421397"><ele>882.24</ele><time>2022-02-05T10:01:11Z</time></trkpt>
<trkpt lat="46.274605" lon="11.421362"><ele>881.24</ele><time>2022-02-05T10:01:13Z</time></trkpt>
<trkpt lat="46.274558" lon="11.421311"><ele>880.49</ele><time>2022-02-05T10:01:16Z</time></trkpt>
<trkpt lat="46.274516" lon="11.421226"><ele>880.49</ele><time>2022-02-05T10:01:19Z</time></trkpt>
<trkpt lat="46.274493" lon="11.421128"><ele>881.47</ele><time>2022-02-05T10:01:22Z</time></trkpt>
<trkpt lat="46.274474" lon="11.420793"><ele>881.5</ele><time>2022-02-05T10:01:25Z</time></trkpt>
<trkpt lat="46.274475" lon="11.420501"><ele>880.55</ele><time>2022-02-05T10:01:28Z</time></trkpt>
<trkpt lat="46.274533" lon="11.420184"><ele>877.85</ele><time>2022-02-05T10:01:31Z</time></trkpt>
<trkpt lat="46.274723" lon="11.419557"><ele>877.69</ele><time>2022-02-05T10:01:34Z</time></trkpt>
<trkpt lat="46.274757" lon="11.419381"><ele>876.99</ele><time>2022-02-05T10:01:37Z</time></trkpt>
<trkpt lat="46.274778" lon="11.419133"><ele>874.99</ele><time>2022-02-05T10:01:40Z</time></trkpt>
<trkpt lat="46.274791" lon="11.418634"><ele>878.02</ele><time>2022-02-05T10:01:43Z</time></trkpt>
<trkpt lat="46.274681" lon="11.418074"><ele>877.56</ele><time>2022-02-05T10:01:46Z</time></trkpt>
<trkpt lat="46.274484" lon="11.417164"><ele>864.97</ele><time>2022-02-05T10:01:49Z</time></trkpt>
<trkpt lat="46.274503" lon="11.416899"><ele>863.8</ele><time>2022-02-05T10:01:51Z</time></trkpt>
<trkpt lat="46.274629" lon="11.416412"><ele>861.27</ele><time>2022-02-05T10:01:54Z</time></trkpt>
<trkpt lat="46.274628" lon="11.416332"><ele>860.18</ele><time>2022-02-05T10:01:57Z</time></trkpt>
<trkpt lat="46.27461" lon="11.416272"><ele>858.62</ele><time>2022-02-05T10:02:00Z</time></trkpt>
<trkpt lat="46.274555" lon="11.41619"><ele>855.35</ele><time>2022-02-05T10:02:03Z</time></trkpt>
<trkpt lat="46.27448" lon="11.416179"><ele>853.38</ele><time>2022-02-05T10:02:06Z</time></trkpt>
<trkpt lat="46.27448" lon="11.416179"><ele>853.38</ele><time>2022-02-05T10:02:06Z</time></trkpt>
<trkpt lat="46.274462" lon="11.416176"><ele>851.41</ele><time>2022-02-05T10:02:08Z</time></trkpt>
<trkpt lat="46.274361" lon="11.416296"><ele>848.07</ele><time>2022-02-05T10:02:11Z</time></trkpt>
<trkpt lat="46.27426" lon="11.416585"><ele>847.89</ele><time>2022-02-05T10:02:13Z</time></trkpt>
<trkpt lat="46.274207" lon="11.416803"><ele>847.59</ele><time>2022-02-05T10:02:15Z</time></trkpt>
<trkpt lat="46.274213" lon="11.41696"><ele>848.68</ele><time>2022-02-05T10:02:17Z</time></trkpt>
<trkpt lat="46.274396" lon="11.417878"><ele>857.83</ele><time>2022-02-05T10:02:20Z</time></trkpt>
<trkpt lat="46.274412" lon="11.418026"><ele>857.99</ele><time>2022-02-05T10:02:22Z</time></trkpt>
<trkpt lat="46.274394" lon="11.418362"><ele>853.86</ele><time>2022-02-05T10:02:24Z</time></trkpt>
<trkpt lat="46.274335" lon="11.418633"><ele>850.46</ele><time>2022-02-05T10:02:26Z</time></trkpt>
<trkpt lat="46.274172" lon="11.419073"><ele>842.58</ele><time>2022-02-05T10:02:29Z</time></trkpt>
<trkpt lat="46.274209" lon="11.418748"><ele>844.46</ele><time>2022-02-05T10:02:31Z</time></trkpt>
<trkpt lat="46.274167" lon="11.418663"><ele>842.2</ele><time>2022-02-05T10:02:33Z</time></trkpt>
<trkpt lat="46.27411" lon="11.418609"><ele>839.32</ele><time>2022-02-05T10:02:35Z</time></trkpt>
<trkpt lat="46.274032" lon="11.418602"><ele>835.65</ele><time>2022-02-05T10:02:37Z</time></trkpt>
<trkpt lat="46.274006" lon="11.41876"><ele>835.32</ele><time>2022-02-05T10:02:39Z</time></trkpt>
<trkpt lat="46.273953" lon="11.418899"><ele>833.78</ele><time>2022-02-05T10:02:41Z</time></trkpt>
<trkpt lat="46.273867" lon="11.418995"><ele>830.58</ele><time>2022-02-05T10:02:43Z</time></trkpt>
<trkpt lat="46.273852" lon="11.419165"><ele>830.67</ele><time>2022-02-05T10:02:45Z</time></trkpt>
<trkpt lat="46.273786" lon="11.419235"><ele>828.62</ele><time>2022-02-05T10:02:47Z</time></trkpt>
<trkpt lat="46.27371" lon="11.419248"><ele>826.05</ele><time>2022-02-05T10:02:49Z</time></trkpt>
<trkpt lat="46.273616" lon="11.418117"><ele>820.14</ele><time>2022-02-05T10:02:58Z</time></trkpt>
<trkpt lat="46.273602" lon="11.417557"><ele>819.84</ele><time>2022-02-05T10:03:08Z</time></trkpt>
<trkpt lat="46.273573" lon="11.417311"><ele>819.21</ele><time>2022-02-05T10:03:18Z</time></trkpt>
<trkpt lat="46.273301" lon="11.416283"><ele>813.7</ele><time>2022-02-05T10:03:27Z</time></trkpt>
<trkpt lat="46.273217" lon="11.416215"><ele>813.0</ele><time>2022-02-05T10:03:33Z</time></trkpt>
<trkpt lat="46.272462" lon="11.415765"><ele>811.0</ele><time>2022-02-05T10:03:39Z</time></trkpt>
<trkpt lat="46.272399" lon="11.415757"><ele>810.65</ele><time>2022-02-05T10:03:45Z</time></trkpt>
<trkpt lat="46.272052" lon="11.415163"><ele>811.71</ele><time>2022-02-05T10:03:51Z</time></trkpt>
<trkpt lat="46.271335" lon="11.413602"><ele>807.02</ele><time>2022-02-05T10:03:56Z</time></trkpt>
<trkpt lat="46.271171" lon="11.413033"><ele>800.17</ele><time>2022-02-05T10:04:01Z</time></trkpt>
<trkpt lat="46.27106" lon="11.412341"><ele>813.29</ele><time>2022-02-05T10:04:06Z</time></trkpt>
<trkpt lat="46.270969" lon="11.412121"><ele>812.57</ele><time>2022-02-05T10:04:12Z</time></trkpt>
<trkpt lat="46.270868" lon="11.411996"><ele>807.18</ele><time>2022-02-05T10:04:17Z</time></trkpt>
<trkpt lat="46.270664" lon="11.411586"><ele>812.34</ele><time>2022-02-05T10:04:21Z</time></trkpt>
<trkpt lat="46.270459" lon="11.411316"><ele>819.39</ele><time>2022-02-05T10:04:25Z</time></trkpt>
<trkpt lat="46.270253" lon="11.41109"><ele>819.61</ele><time>2022-02-05T10:04:29Z</time></trkpt>
<trkpt lat="46.269849" lon="11.410787"><ele>813.24</ele><time>2022-02-05T10:04:33Z</time></trkpt>
<trkpt lat="46.269422" lon="11.410553"><ele>811.64</ele><time>2022-02-05T10:04:37Z</time></trkpt>
<trkpt lat="46.26877" lon="11.41032"><ele>810.9</ele><time>2022-02-05T10:04:41Z</time></trkpt>
<trkpt lat="46.268478" lon="11.410124"><ele>811.83</ele><time>2022-02-05T10:04:45Z</time></trkpt>
<trkpt lat="46.267777" lon="11.408933"><ele>812.71</ele><time>2022-02-05T10:04:49Z</time></trkpt>
<trkpt lat="46.267502" lon="11.408677"><ele>814.98</ele><time>2022-02-05T10:04:53Z</time></trkpt>
<trkpt lat="46.267091" lon="11.408437"><ele>807.41</ele><time>2022-02-05T10:04:57Z</time></trkpt>
<trkpt lat="46.266968" lon="11.40828"><ele>809.29</ele><time>2022-02-05T10:05:01Z</time></trkpt>
<trkpt lat="46.266876" lon="11.408024"><ele>813.21</ele><time>2022-02-05T10:05:05Z</time></trkpt>
<trkpt lat="46.266779" lon="11.40768"><ele>812.89</ele><time>2022-02-05T10:05:09Z</time></trkpt>
<trkpt lat="46.266717" lon="11.40736"><ele>809.63</ele><time>2022-02-05T10:05:13Z</time></trkpt>
<trkpt lat="46.26668" lon="11.407362"><ele>808.44</ele><time>2022-02-05T10:05:16Z</time></trkpt>
<trkpt lat="46.26662" lon="11.407269"><ele>805.46</ele><time>2022-02-05T10:05:18Z</time></trkpt>
<trkpt lat="46.265773" lon="11.404671"><ele>786.15</ele><time>2022-02-05T10:05:20Z</time></trkpt>
<trkpt lat="46.264996" lon="11.403192"><ele>782.99</ele><time>2022-02-05T10:05:22Z</time></trkpt>
<trkpt lat="46.264609" lon="11.402498"><ele>792.95</ele><time>2022-02-05T10:05:24Z</time></trkpt>
<trkpt lat="46.264505" lon="11.402248"><ele>800.41</ele><time>2022-02-05T10:05:26Z</time></trkpt>
<trkpt lat="46.26435" lon="11.401212"><ele>815.83</ele><time>2022-02-05T10:05:28Z</time></trkpt>
<trkpt lat="46.264228" lon="11.400866"><ele>804.95</ele><time>2022-02-05T10:05:30Z</time></trkpt>
<trkpt lat="46.263817" lon="11.400222"><ele>815.82</ele><time>2022-02-05T10:05:33Z</time></trkpt>
<trkpt lat="46.263651" lon="11.39986"><ele>813.64</ele><time>2022-02-05T10:05:35Z</time></trkpt>
<trkpt lat="46.263479" lon="11.399421"><ele>816.83</ele><time>2022-02-05T10:05:37Z</time></trkpt>
<trkpt lat="46.262999" lon="11.397021"><ele>793.21</ele><time>2022-02-05T10:05:39Z</time></trkpt>
<trkpt lat="46.262855" lon="11.396363"><ele>810.4</ele><time>2022-02-05T10:05:41Z</time></trkpt>
<trkpt lat="46.262734" lon="11.395568"><ele>815.0</ele><time>2022-02-05T10:05:43Z</time></trkpt>
<trkpt lat="46.262784" lon="11.394746"><ele>796.05</ele><time>2022-02-05T10:05:45Z</time></trkpt>
<trkpt lat="46.262697" lon="11.394149"><ele>806.13</ele><time>2022-02-05T10:05:47Z</time></trkpt>
<trkpt lat="46.262567" lon="11.393841"><ele>808.99</ele><time>2022-02-05T10:05:50Z</time></trkpt>
<trkpt lat="46.262394" lon="11.393595"><ele>816.05</ele><time>2022-02-05T10:05:52Z</time></trkpt>
<trkpt lat="46.261456" lon="11.391903"><ele>814.78</ele><time>2022-02-05T10:05:54Z</time></trkpt>
<trkpt lat="46.261224" lon="11.391433"><ele>810.42</ele><time>2022-02-05T10:05:56Z</time></trkpt>
<trkpt lat="46.260827" lon="11.390074"><ele>823.06</ele><time>2022-02-05T10:05:58Z</time></trkpt>
<trkpt lat="46.260714" lon="11.38953"><ele>824.1</ele><time>2022-02-05T10:06:00Z</time></trkpt>
<trkpt lat="46.260653" lon="11.389004"><ele>825.1</ele><time>2022-02-05T10:06:02Z</time></trkpt>
<trkpt lat="46.260761" lon="11.3883"><ele>806.13</ele><time>2022-02-05T10:06:04Z</time></trkpt>
<trkpt lat="46.260736" lon="11.387848"><ele>801.72</ele><time>2022-02-05T10:06:07Z</time></trkpt>
<trkpt lat="46.260638" lon="11.387557"><ele>804.36</ele><time>2022-02-05T10:06:09Z</time></trkpt>
<trkpt lat="46.260471" lon="11.387213"><ele>816.61</ele><time>2022-02-05T10:06:11Z</time></trkpt>
<trkpt lat="46.260365" lon="11.386827"><ele>831.55</ele><time>2022-02-05T10:06:13Z</time></trkpt>
<trkpt lat="46.260353" lon="11.386432"><ele>835.92</ele><time>2022-02-05T10:06:15Z</time></trkpt>
<trkpt lat="46.260407" lon="11.386153"><ele>833.01</ele><time>2022-02-05T10:06:17Z</time></trkpt>
<trkpt lat="46.260501" lon="11.385355"><ele>825.37</ele><time>2022-02-05T10:06:19Z</time></trkpt>
<trkpt lat="46.260468" lon="11.384931"><ele>819.99</ele><time>2022-02-05T10:06:21Z</time></trkpt>
<trkpt lat="46.260298" lon="11.383896"><ele>809.41</ele><time>2022-02-05T10:06:24Z</time></trkpt>
<trkpt lat="46.260366" lon="11.382735"><ele>801.62</ele><time>2022-02-05T10:06:26Z</time></trkpt>
<trkpt lat="46.260341" lon="11.382417"><ele>803.72</ele><time>2022-02-05T10:06:28Z</time></trkpt>
<trkpt lat="46.259887" lon="11.380169"><ele>847.86</ele><time>2022-02-05T10:06:30Z</time></trkpt>
<trkpt lat="46.259882" lon="11.379887"><ele>854.62</ele><time>2022-02-05T10:06:32Z</time></trkpt>
<trkpt lat="46.260059" lon="11.379162"><ele>853.92</ele><time>2022-02-05T10:06:34Z</time></trkpt>
<trkpt lat="46.260406" lon="11.378143"><ele>849.37</ele><time>2022-02-05T10:06:36Z</time></trkpt>
<trkpt lat="46.260594" lon="11.377519"><ele>847.99</ele><time>2022-02-05T10:06:38Z</time></trkpt>
<trkpt lat="46.260681" lon="11.376876"><ele>846.64</ele><time>2022-02-05T10:06:41Z</time></trkpt>
<trkpt lat="46.260887" lon="11.374885"><ele>840.38</ele><time>2022-02-05T10:06:43Z</time></trkpt>
<trkpt lat="46.260847" lon="11.374499"><ele>836.25</ele><time>2022-02-05T10:06:45Z</time></trkpt>
<trkpt lat="46.260692" lon="11.374233"><ele>836.39</ele><time>2022-02-05T10:06:47Z</time></trkpt>
<trkpt lat="46.260479" lon="11.374061"><ele>840.23</ele><time>2022-02-05T10:06:49Z</time></trkpt>
<trkpt lat="46.260075" lon="11.373847"><ele>851.84</ele><time>2022-02-05T10:06:51Z</time></trkpt>
<trkpt lat="46.259847" lon="11.373658"><ele>849.78</ele><time>2022-02-05T10:06:53Z</time></trkpt>
<trkpt lat="46.259754" lon="11.373457"><ele>844.7</ele><time>2022-02-05T10:06:56Z</time></trkpt>
<trkpt lat="46.259727" lon="11.373249"><ele>838.48</ele><time>2022-02-05T10:06:58Z</time></trkpt>
<trkpt lat="46.259743" lon="11.372996"><ele>830.84</ele><time>2022-02-05T10:07:00Z</time></trkpt>
<trkpt lat="46.260118" lon="11.371992"><ele>816.49</ele><time>2022-02-05T10:07:02Z</time></trkpt>
<trkpt lat="46.260633" lon="11.370895"><ele>844.71</ele><time>2022-02-05T10:07:04Z</time></trkpt>
<trkpt lat="46.260862" lon="11.370104"><ele>845.39</ele><time>2022-02-05T10:07:06Z</time></trkpt>
<trkpt lat="46.260856" lon="11.369323"><ele>851.27</ele><time>2022-02-05T10:07:08Z</time></trkpt>
<trkpt lat="46.260868" lon="11.368495"><ele>871.46</ele><time>2022-02-05T10:07:10Z</time></trkpt>
<trkpt lat="46.260953" lon="11.368044"><ele>886.2</ele><time>2022-02-05T10:07:13Z</time></trkpt>
<trkpt lat="46.261414" lon="11.365728"><ele>895.08</ele><time>2022-02-05T10:07:15Z</time></trkpt>
<trkpt lat="46.261655" lon="11.364638"><ele>886.55</ele><time>2022-02-05T10:07:17Z</time></trkpt>
<trkpt lat="46.261863" lon="11.363865"><ele>873.62</ele><time>2022-02-05T10:07:19Z</time></trkpt>
<trkpt lat="46.262021" lon="11.363119"><ele>877.63</ele><time>2022-02-05T10:07:21Z</time></trkpt>
<trkpt lat="46.262288" lon="11.362379"><ele>864.92</ele><time>2022-02-05T10:07:23Z</time></trkpt>
<trkpt lat="46.262462" lon="11.361838"><ele>857.42</ele><time>2022-02-05T10:07:25Z</time></trkpt>
<trkpt lat="46.262481" lon="11.361164"><ele>859.63</ele><time>2022-02-05T10:07:27Z</time></trkpt>
<trkpt lat="46.262447" lon="11.359424"><ele>877.45</ele><time>2022-02-05T10:07:30Z</time></trkpt>
<trkpt lat="46.262482" lon="11.359009"><ele>881.71</ele><time>2022-02-05T10:07:32Z</time></trkpt>
<trkpt lat="46.262648" lon="11.358464"><ele>889.57</ele><time>2022-02-05T10:07:34Z</time></trkpt>
<trkpt lat="46.262738" lon="11.35691"><ele>889.96</ele><time>2022-02-05T10:07:36Z</time></trkpt>
<trkpt lat="46.262661" lon="11.356309"><ele>876.77</ele><time>2022-02-05T10:07:38Z</time></trkpt>
<trkpt lat="46.262553" lon="11.355873"><ele>870.26</ele><time>2022-02-05T10:07:40Z</time></trkpt>
<trkpt lat="46.262389" lon="11.355402"><ele>869.95</ele><time>2022-02-05T10:07:42Z</time></trkpt>
<trkpt lat="46.262212" lon="11.355003"><ele>865.09</ele><time>2022-02-05T10:07:44Z</time></trkpt>
<trkpt lat="46.262105" lon="11.354852"><ele>863.21</ele><time>2022-02-05T10:07:47Z</time></trkpt>
<trkpt lat="46.262008" lon="11.354765"><ele>862.85</ele><time>2022-02-05T10:07:49Z</time></trkpt>
<trkpt lat="46.261872" lon="11.354691"><ele>862.77</ele><time>2022-02-05T10:07:51Z</time></trkpt>
<trkpt lat="46.26152" lon="11.35473"><ele>867.26</ele><time>2022-02-05T10:07:53Z</time></trkpt>
<trkpt lat="46.260969" lon="11.354827"><ele>869.11</ele><time>2022-02-05T10:07:55Z</time></trkpt>
<trkpt lat="46.260796" lon="11.354911"><ele>869.26</ele><time>2022-02-05T10:07:57Z</time></trkpt>
<trkpt lat="46.26064" lon="11.355101"><ele>869.43</ele><time>2022-02-05T10:07:59Z</time></trkpt>
<trkpt lat="46.260393" lon="11.355454"><ele>873.04</ele><time>2022-02-05T10:08:01Z</time></trkpt>
<trkpt lat="46.260231" lon="11.35554"><ele>874.58</ele><time>2022-02-05T10:08:04Z</time></trkpt>
<trkpt lat="46.259688" lon="11.355627"><ele>871.95</ele><time>2022-02-05T10:08:06Z</time></trkpt>
<trkpt lat="46.258422" lon="11.355746"><ele>884.27</ele><time>2022-02-05T10:08:08Z</time></trkpt>
<trkpt lat="46.258286" lon="11.355642"><ele>885.72</ele><time>2022-02-05T10:08:10Z</time></trkpt>
<trkpt lat="46.258192" lon="11.355489"><ele>886.18</ele><time>2022-02-05T10:08:12Z</time></trkpt>
<trkpt lat="46.258128" lon="11.355327"><ele>885.17</ele><time>2022-02-05T10:08:14Z</time></trkpt>
<trkpt lat="46.257736" lon="11.353464"><ele>892.84</ele><time>2022-02-05T10:08:16Z</time></trkpt>
<trkpt lat="46.257716" lon="11.353073"><ele>896.87</ele><time>2022-02-05T10:08:18Z</time></trkpt>
<trkpt lat="46.257751" lon="11.352678"><ele>888.83</ele><time>2022-02-05T10:08:21Z</time></trkpt>
<trkpt lat="46.257747" lon="11.352378"><ele>884.05</ele><time>2022-02-05T10:08:23Z</time></trkpt>
<trkpt lat="46.257709" lon="11.352141"><ele>882.59</ele><time>2022-02-05T10:08:25Z</time></trkpt>
<trkpt lat="46.25762" lon="11.351972"><ele>882.55</ele><time>2022-02-05T10:08:27Z</time></trkpt>
<trkpt lat="46.257511" lon="11.351848"><ele>882.49</ele><time>2022-02-05T10:08:29Z</time></trkpt>
<trkpt lat="46.257105" lon="11.351556"><ele>885.77</ele><time>2022-02-05T10:08:31Z</time></trkpt>
<trkpt lat="46.256648" lon="11.350938"><ele>890.45</ele><time>2022-02-05T10:08:33Z</time></trkpt>
<trkpt lat="46.256265" lon="11.350465"><ele>885.59</ele><time>2022-02-05T10:08:35Z</time></trkpt>
<trkpt lat="46.25526" lon="11.349616"><ele>898.67</ele><time>2022-02-05T10:08:38Z</time></trkpt>
<trkpt lat="46.255108" lon="11.349549"><ele>896.15</ele><time>2022-02-05T10:08:40Z</time></trkpt>
<trkpt lat="46.254939" lon="11.349497"><ele>893.35</ele><time>2022-02-05T10:08:42Z</time></trkpt>
<trkpt lat="46.254332" lon="11.349522"><ele>887.28</ele><time>2022-02-05T10:08:44Z</time></trkpt>
<trkpt lat="46.254209" lon="11.349481"><ele>886.11</ele><time>2022-02-05T10:08:46Z</time></trkpt>
<trkpt lat="46.25358" lon="11.349033"><ele>879.91</ele><time>2022-02-05T10:08:48Z</time></trkpt>
<trkpt lat="46.253302" lon="11.348865"><ele>875.79</ele><time>2022-02-05T10:08:50Z</time></trkpt>
<trkpt lat="46.252515" lon="11.348805"><ele>881.13</ele><time>2022-02-05T10:08:52Z</time></trkpt>
<trkpt lat="46.251745" lon="11.348832"><ele>882.09</ele><time>2022-02-05T10:08:55Z</time></trkpt>
<trkpt lat="46.25145" lon="11.348738"><ele>883.95</ele><time>2022-02-05T10:08:57Z</time></trkpt>
<trkpt lat="46.251313" lon="11.348643"><ele>884.14</ele><time>2022-02-05T10:08:59Z</time></trkpt>
<trkpt lat="46.251071" lon="11.348375"><ele>880.17</ele><time>2022-02-05T10:09:01Z</time></trkpt>
<trkpt lat="46.250978" lon="11.348223"><ele>878.07</ele><time>2022-02-05T10:09:03Z</time></trkpt>
<trkpt lat="46.250886" lon="11.348026"><ele>876.64</ele><time>2022-02-05T10:09:05Z</time></trkpt>
<trkpt lat="46.250812" lon="11.347809"><ele>877.05</ele><time>2022-02-05T10:09:07Z</time></trkpt>
<trkpt lat="46.25076" lon="11.347539"><ele>877.12</ele><time>2022-02-05T10:09:10Z</time></trkpt>
<trkpt lat="46.250738" lon="11.347213"><ele>873.82</ele><time>2022-02-05T10:09:12Z</time></trkpt>
<trkpt lat="46.250777" lon="11.345821"><ele>868.58</ele><time>2022-02-05T10:09:14Z</time></trkpt>
<trkpt lat="46.250746" lon="11.345412"><ele>862.54</ele><time>2022-02-05T10:09:16Z</time></trkpt>
<trkpt lat="46.250601" lon="11.344981"><ele>862.47</ele><time>2022-02-05T10:09:18Z</time></trkpt>
<trkpt lat="46.250353" lon="11.344395"><ele>863.31</ele><time>2022-02-05T10:09:20Z</time></trkpt>
<trkpt lat="46.250014" lon="11.343865"><ele>858.76</ele><time>2022-02-05T10:09:22Z</time></trkpt>
<trkpt lat="46.249843" lon="11.343661"><ele>855.53</ele><time>2022-02-05T10:09:24Z</time></trkpt>
<trkpt lat="46.249445" lon="11.343391"><ele>859.04</ele><time>2022-02-05T10:09:27Z</time></trkpt>
<trkpt lat="46.248289" lon="11.342941"><ele>852.23</ele><time>2022-02-05T10:09:29Z</time></trkpt>
<trkpt lat="46.248063" lon="11.342941"><ele>857.47</ele><time>2022-02-05T10:09:31Z</time></trkpt>
<trkpt lat="46.246468" lon="11.343122"><ele>855.53</ele><time>2022-02-05T10:09:33Z</time></trkpt>
<trkpt lat="46.245688" lon="11.343043"><ele>851.13</ele><time>2022-02-05T10:09:35Z</time></trkpt>
<trkpt lat="46.245472" lon="11.34309"><ele>850.96</ele><time>2022-02-05T10:09:37Z</time></trkpt>
<trkpt lat="46.245107" lon="11.343305"><ele>853.79</ele><time>2022-02-05T10:09:39Z</time></trkpt>
<trkpt lat="46.24446" lon="11.343745"><ele>855.58</ele><time>2022-02-05T10:09:41Z</time></trkpt>
<trkpt lat="46.243897" lon="11.344062"><ele>865.61</ele><time>2022-02-05T10:09:44Z</time></trkpt>
<trkpt lat="46.243706" lon="11.344203"><ele>869.96</ele><time>2022-02-05T10:09:46Z</time></trkpt>
<trkpt lat="46.243512" lon="11.344296"><ele>871.52</ele><time>2022-02-05T10:09:48Z</time></trkpt>
<trkpt lat="46.243349" lon="11.344305"><ele>869.67</ele><time>2022-02-05T10:09:50Z</time></trkpt>
<trkpt lat="46.243181" lon="11.344205"><ele>861.92</ele><time>2022-02-05T10:09:52Z</time></trkpt>
<trkpt lat="46.243041" lon="11.344012"><ele>853.33</ele><time>2022-02-05T10:09:54Z</time></trkpt>
<trkpt lat="46.242953" lon="11.343818"><ele>849.96</ele><time>2022-02-05T10:09:56Z</time></trkpt>
<trkpt lat="46.242821" lon="11.343445"><ele>851.81</ele><time>2022-02-05T10:09:58Z</time></trkpt>
<trkpt lat="46.242646" lon="11.343018"><ele>855.26</ele><time>2022-02-05T10:10:01Z</time></trkpt>
<trkpt lat="46.242617" lon="11.342908"><ele>857.52</ele><time>2022-02-05T10:10:03Z</time></trkpt>
<trkpt lat="46.242594" lon="11.342667"><ele>862.33</ele><time>2022-02-05T10:10:05Z</time></trkpt>
<trkpt lat="46.242604" lon="11.342503"><ele>865.56</ele><time>2022-02-05T10:10:07Z</time></trkpt>
<trkpt lat="46.242682" lon="11.342253"><ele>867.88</ele><time>2022-02-05T10:10:09Z</time></trkpt>
<trkpt lat="46.242785" lon="11.342086"><ele>867.31</ele><time>2022-02-05T10:10:11Z</time></trkpt>
<trkpt lat="46.243382" lon="11.341343"><ele>871.82</ele><time>2022-02-05T10:10:13Z</time></trkpt>
<trkpt lat="46.24382" lon="11.340906"><ele>879.77</ele><time>2022-02-05T10:10:15Z</time></trkpt>
<trkpt lat="46.244183" lon="11.340804"><ele>874.22</ele><time>2022-02-05T10:10:18Z</time></trkpt>
<trkpt lat="46.244397" lon="11.340721"><ele>867.7</ele><time>2022-02-05T10:10:20Z</time></trkpt>
<trkpt lat="46.244558" lon="11.340611"><ele>863.87</ele><time>2022-02-05T10:10:22Z</time></trkpt>
<trkpt lat="46.244732" lon="11.340376"><ele>868.41</ele><time>2022-02-05T10:10:24Z</time></trkpt>
<trkpt lat="46.245167" lon="11.339642"><ele>875.1</ele><time>2022-02-05T10:10:26Z</time></trkpt>
<trkpt lat="46.245354" lon="11.339411"><ele>875.9</ele><time>2022-02-05T10:10:28Z</time></trkpt>
<trkpt lat="46.246551" lon="11.3384"><ele>877.03</ele><time>2022-02-05T10:10:30Z</time></trkpt>
<trkpt lat="46.24669" lon="11.338312"><ele>876.35</ele><time>2022-02-05T10:10:32Z</time></trkpt>
<trkpt lat="46.246863" lon="11.338277"><ele>871.9</ele><time>2022-02-05T10:10:35Z</time></trkpt>
<trkpt lat="46.247029" lon="11.338313"><ele>865.95</ele><time>2022-02-05T10:10:37Z</time></trkpt>
<trkpt lat="46.247217" lon="11.338412"><ele>859.46</ele><time>2022-02-05T10:10:39Z</time></trkpt>
<trkpt lat="46.24737" lon="11.338411"><ele>858.21</ele><time>2022-02-05T10:10:41Z</time></trkpt>
<trkpt lat="46.247489" lon="11.338343"><ele>860.61</ele><time>2022-02-05T10:10:43Z</time></trkpt>
<trkpt lat="46.24776" lon="11.338031"><ele>864.84</ele><time>2022-02-05T10:10:45Z</time></trkpt>
<trkpt lat="46.247892" lon="11.337967"><ele>861.3</ele><time>2022-02-05T10:10:47Z</time></trkpt>
<trkpt lat="46.248554" lon="11.337732"><ele>843.4</ele><time>2022-02-05T10:10:49Z</time></trkpt>
<trkpt lat="46.248632" lon="11.337583"><ele>848.31</ele><time>2022-02-05T10:10:52Z</time></trkpt>
<trkpt lat="46.248655" lon="11.337437"><ele>853.75</ele><time>2022-02-05T10:10:54Z</time></trkpt>
<trkpt lat="46.248637" lon="11.337275"><ele>859.17</ele><time>2022-02-05T10:10:56Z</time></trkpt>
<trkpt lat="46.248562" lon="11.337074"><ele>863.53</ele><time>2022-02-05T10:10:58Z</time></trkpt>
<trkpt lat="46.248456" lon="11.336908"><ele>867.03</ele><time>2022-02-05T10:11:00Z</time></trkpt>
<trkpt lat="46.247547" lon="11.33579"><ele>892.45</ele><time>2022-02-05T10:11:02Z</time></trkpt>
<trkpt lat="46.247435" lon="11.335582"><ele>894.43</ele><time>2022-02-05T10:11:04Z</time></trkpt>
<trkpt lat="46.247416" lon="11.335371"><ele>893.3</ele><time>2022-02-05T10:11:06Z</time></trkpt>
<trkpt lat="46.247484" lon="11.334991"><ele>884.5</ele><time>2022-02-05T10:11:09Z</time></trkpt>
<trkpt lat="46.24783" lon="11.333782"><ele>870.94</ele><time>2022-02-05T10:11:11Z</time></trkpt>
<trkpt lat="46.247866" lon="11.333487"><ele>867.92</ele><time>2022-02-05T10:11:13Z</time></trkpt>
<trkpt lat="46.247828" lon="11.333231"><ele>865.22</ele><time>2022-02-05T10:11:15Z</time></trkpt>
<trkpt lat="46.247744" lon="11.333016"><ele>863.85</ele><time>2022-02-05T10:11:17Z</time></trkpt>
<trkpt lat="46.247635" lon="11.332866"><ele>864.14</ele><time>2022-02-05T10:11:19Z</time></trkpt>
<trkpt lat="46.247471" lon="11.33275"><ele>865.46</ele><time>2022-02-05T10:11:21Z</time></trkpt>
<trkpt lat="46.246628" lon="11.332549"><ele>872.57</ele><time>2022-02-05T10:11:24Z</time></trkpt>
<trkpt lat="46.246302" lon="11.332429"><ele>883.77</ele><time>2022-02-05T10:11:26Z</time></trkpt>
<trkpt lat="46.245826" lon="11.332083"><ele>875.2</ele><time>2022-02-05T10:11:28Z</time></trkpt>
<trkpt lat="46.245256" lon="11.331743"><ele>875.47</ele><time>2022-02-05T10:11:30Z</time></trkpt>
<trkpt lat="46.24509" lon="11.331615"><ele>877.3</ele><time>2022-02-05T10:11:32Z</time></trkpt>
<trkpt lat="46.244709" lon="11.331244"><ele>875.27</ele><time>2022-02-05T10:11:34Z</time></trkpt>
<trkpt lat="46.244526" lon="11.331124"><ele>870.33</ele><time>2022-02-05T10:11:36Z</time></trkpt>
<trkpt lat="46.244421" lon="11.331087"><ele>869.08</ele><time>2022-02-05T10:11:38Z</time></trkpt>
<trkpt lat="46.244237" lon="11.331105"><ele>871.99</ele><time>2022-02-05T10:11:41Z</time></trkpt>
<trkpt lat="46.243827" lon="11.331199"><ele>883.66</ele><time>2022-02-05T10:11:43Z</time></trkpt>
<trkpt lat="46.243711" lon="11.331163"><ele>886.35</ele><time>2022-02-05T10:11:45Z</time></trkpt>
<trkpt lat="46.243623" lon="11.331088"><ele>888.33</ele><time>2022-02-05T10:11:47Z</time></trkpt>
<trkpt lat="46.243526" lon="11.330905"><ele>890.21</ele><time>2022-02-05T10:11:49Z</time></trkpt>
<trkpt lat="46.2434" lon="11.330592"><ele>889.21</ele><time>2022-02-05T10:11:51Z</time></trkpt>
<trkpt lat="46.243183" lon="11.329893"><ele>884.17</ele><time>2022-02-05T10:11:53Z</time></trkpt>
<trkpt lat="46.243077" lon="11.329622"><ele>889.56</ele><time>2022-02-05T10:11:55Z</time></trkpt>
<trkpt lat="46.24297" lon="11.329404"><ele>891.51</ele><time>2022-02-05T10:11:58Z</time></trkpt>
<trkpt lat="46.242887" lon="11.32912"><ele>890.74</ele><time>2022-02-05T10:12:00Z</time></trkpt>
<trkpt lat="46.242869" lon="11.328855"><ele>886.44</ele><time>2022-02-05T10:12:02Z</time></trkpt>
<trkpt lat="46.242868" lon="11.328433"><ele>877.8</ele><time>2022-02-05T10:12:04Z</time></trkpt>
<trkpt lat="46.242816" lon="11.328197"><ele>879.88</ele><time>2022-02-05T10:12:06Z</time></trkpt>
<trkpt lat="46.242693" lon="11.32802"><ele>885.09</ele><time>2022-02-05T10:12:08Z</time></trkpt>
<trkpt lat="46.242249" lon="11.327499"><ele>890.7</ele><time>2022-02-05T10:12:10Z</time></trkpt>
<trkpt lat="46.241976" lon="11.326864"><ele>882.17</ele><time>2022-02-05T10:12:12Z</time></trkpt>
<trkpt lat="46.241848" lon="11.326632"><ele>877.78</ele><time>2022-02-05T10:12:15Z</time></trkpt>
<trkpt lat="46.241378" lon="11.326276"><ele>889.71</ele><time>2022-02-05T10:12:17Z</time></trkpt>
<trkpt lat="46.241302" lon="11.326152"><ele>888.38</ele><time>2022-02-05T10:12:19Z</time></trkpt>
<trkpt lat="46.241208" lon="11.325948"><ele>887.38</ele><time>2022-02-05T10:12:21Z</time></trkpt>
<trkpt lat="46.24109" lon="11.325404"><ele>881.58</ele><time>2022-02-05T10:12:23Z</time></trkpt>
<trkpt lat="46.240984" lon="11.325186"><ele>879.18</ele><time>2022-02-05T10:12:25Z</time></trkpt>
<trkpt lat="46.240864" lon="11.325048"><ele>878.43</ele><time>2022-02-05T10:12:27Z</time></trkpt>
<trkpt lat="46.240695" lon="11.324923"><ele>877.34</ele><time>2022-02-05T10:12:29Z</time></trkpt>
<trkpt lat="46.2401" lon="11.324693"><ele>876.9</ele><time>2022-02-05T10:12:32Z</time></trkpt>
<trkpt lat="46.239781" lon="11.32465"><ele>873.8</ele><time>2022-02-05T10:12:34Z</time></trkpt>
<trkpt lat="46.238838" lon="11.324911"><ele>866.65</ele><time>2022-02-05T10:12:36Z</time></trkpt>
<trkpt lat="46.238634" lon="11.324902"><ele>868.64</ele><time>2022-02-05T10:12:38Z</time></trkpt>
<trkpt lat="46.237162" lon="11.324353"><ele>870.18</ele><time>2022-02-05T10:12:40Z</time></trkpt>
<trkpt lat="46.236944" lon="11.324209"><ele>867.08</ele><time>2022-02-05T10:12:42Z</time></trkpt>
<trkpt lat="46.236481" lon="11.323803"><ele>862.2</ele><time>2022-02-05T10:12:44Z</time></trkpt>
<trkpt lat="46.236363" lon="11.323758"><ele>862.36</ele><time>2022-02-05T10:12:46Z</time></trkpt>
<trkpt lat="46.236139" lon="11.32373"><ele>867.3</ele><time>2022-02-05T10:12:49Z</time></trkpt>
<trkpt lat="46.235247" lon="11.323733"><ele>851.29</ele><time>2022-02-05T10:12:51Z</time></trkpt>
<trkpt lat="46.235035" lon="11.323815"><ele>846.11</ele><time>2022-02-05T10:12:53Z</time></trkpt>
<trkpt lat="46.234816" lon="11.323996"><ele>846.46</ele><time>2022-02-05T10:12:55Z</time></trkpt>
<trkpt lat="46.234241" lon="11.324614"><ele>854.37</ele><time>2022-02-05T10:12:57Z</time></trkpt>
<trkpt lat="46.234064" lon="11.324906"><ele>861.37</ele><time>2022-02-05T10:12:59Z</time></trkpt>
<trkpt lat="46.233947" lon="11.325152"><ele>870.04</ele><time>2022-02-05T10:13:01Z</time></trkpt>
<trkpt lat="46.233834" lon="11.325345"><ele>874.11</ele><time>2022-02-05T10:13:03Z</time></trkpt>
<trkpt lat="46.233122" lon="11.325849"><ele>866.32</ele><time>2022-02-05T10:13:06Z</time></trkpt>
<trkpt lat="46.232998" lon="11.32586"><ele>867.48</ele><time>2022-02-05T10:13:08Z</time></trkpt>
<trkpt lat="46.232858" lon="11.325757"><ele>869.09</ele><time>2022-02-05T10:13:10Z</time></trkpt>
<trkpt lat="46.232779" lon="11.325581"><ele>871.02</ele><time>2022-02-05T10:13:12Z</time></trkpt>
<trkpt lat="46.23279" lon="11.325408"><ele>874.14</ele><time>2022-02-05T10:13:14Z</time></trkpt>
<trkpt lat="46.232907" lon="11.324915"><ele>876.62</ele><time>2022-02-05T10:13:16Z</time></trkpt>
<trkpt lat="46.232966" lon="11.324288"><ele>863.42</ele><time>2022-02-05T10:13:18Z</time></trkpt>
<trkpt lat="46.232679" lon="11.32238"><ele>863.76</ele><time>2022-02-05T10:13:20Z</time></trkpt>
<trkpt lat="46.232555" lon="11.321898"><ele>864.7</ele><time>2022-02-05T10:13:23Z</time></trkpt>
<trkpt lat="46.232127" lon="11.32072"><ele>854.7</ele><time>2022-02-05T10:13:25Z</time></trkpt>
<trkpt lat="46.231587" lon="11.320006"><ele>859.31</ele><time>2022-02-05T10:13:27Z</time></trkpt>
<trkpt lat="46.231496" lon="11.319827"><ele>857.0</ele><time>2022-02-05T10:13:29Z</time></trkpt>
<trkpt lat="46.231334" lon="11.31935"><ele>847.35</ele><time>2022-02-05T10:13:31Z</time></trkpt>
<trkpt lat="46.23126" lon="11.319192"><ele>842.89</ele><time>2022-02-05T10:13:33Z</time></trkpt>
<trkpt lat="46.231147" lon="11.319072"><ele>838.29</ele><time>2022-02-05T10:13:35Z</time></trkpt>
<trkpt lat="46.231009" lon="11.319002"><ele>834.71</ele><time>2022-02-05T10:13:38Z</time></trkpt>
<trkpt lat="46.230859" lon="11.319018"><ele>833.86</ele><time>2022-02-05T10:13:40Z</time></trkpt>
<trkpt lat="46.230232" lon="11.319421"><ele>847.8</ele><time>2022-02-05T10:13:42Z</time></trkpt>
<trkpt lat="46.229973" lon="11.319541"><ele>849.22</ele><time>2022-02-05T10:13:44Z</time></trkpt>
<trkpt lat="46.228787" lon="11.319936"><ele>856.41</ele><time>2022-02-05T10:13:46Z</time></trkpt>
<trkpt lat="46.228637" lon="11.319907"><ele>852.99</ele><time>2022-02-05T10:13:48Z</time></trkpt>
<trkpt lat="46.228519" lon="11.319851"><ele>854.46</ele><time>2022-02-05T10:13:50Z</time></trkpt>
<trkpt lat="46.228347" lon="11.319675"><ele>854.19</ele><time>2022-02-05T10:13:52Z</time></trkpt>
<trkpt lat="46.22827" lon="11.319515"><ele>856.62</ele><time>2022-02-05T10:13:55Z</time></trkpt>
<trkpt lat="46.228231" lon="11.319332"><ele>859.07</ele><time>2022-02-05T10:13:57Z</time></trkpt>
<trkpt lat="46.228252" lon="11.318881"><ele>860.84</ele><time>2022-02-05T10:13:59Z</time></trkpt>
<trkpt lat="46.228906" lon="11.31578"><ele>847.93</ele><time>2022-02-05T10:14:01Z</time></trkpt>
<trkpt lat="46.228975" lon="11.315158"><ele>834.75</ele><time>2022-02-05T10:14:03Z</time></trkpt>
<trkpt lat="46.228896" lon="11.31474"><ele>833.88</ele><time>2022-02-05T10:14:05Z</time></trkpt>
<trkpt lat="46.228706" lon="11.314231"><ele>832.32</ele><time>2022-02-05T10:14:07Z</time></trkpt>
<trkpt lat="46.228706" lon="11.314231"><ele>832.32</ele><time>2022-02-05T10:14:07Z</time></trkpt>
<trkpt lat="46.228427" lon="11.313485"><ele>830.76</ele><time>2022-02-05T10:14:10Z</time></trkpt>
<trkpt lat="46.228327" lon="11.313282"><ele>828.67</ele><time>2022-02-05T10:14:13Z</time></trkpt>
<trkpt lat="46.228209" lon="11.313129"><ele>826.58</ele><time>2022-02-05T10:14:17Z</time></trkpt>
<trkpt lat="46.228069" lon="11.313044"><ele>826.31</ele><time>2022-02-05T10:14:20Z</time></trkpt>
<trkpt lat="46.227925" lon="11.313009"><ele>826.07</ele><time>2022-02-05T10:14:23Z</time></trkpt>
<trkpt lat="46.227064" lon="11.312899"><ele>825.74</ele><time>2022-02-05T10:14:26Z</time></trkpt>
<trkpt lat="46.226665" lon="11.312886"><ele>823.68</ele><time>2022-02-05T10:14:29Z</time></trkpt>
<trkpt lat="46.226251" lon="11.312993"><ele>828.7</ele><time>2022-02-05T10:14:32Z</time></trkpt>
<trkpt lat="46.226005" lon="11.313007"><ele>829.45</ele><time>2022-02-05T10:14:35Z</time></trkpt>
<trkpt lat="46.225544" lon="11.31289"><ele>822.13</ele><time>2022-02-05T10:14:38Z</time></trkpt>
<trkpt lat="46.224701" lon="11.312487"><ele>818.52</ele><time>2022-02-05T10:14:41Z</time></trkpt>
<trkpt lat="46.224547" lon="11.312446"><ele>816.92</ele><time>2022-02-05T10:14:44Z</time></trkpt>
<trkpt lat="46.224084" lon="11.312442"><ele>817.62</ele><time>2022-02-05T10:14:47Z</time></trkpt>
<trkpt lat="46.224061" lon="11.312411"><ele>816.81</ele><time>2022-02-05T10:14:50Z</time></trkpt>
<trkpt lat="46.223413" lon="11.312418"><ele>807.44</ele><time>2022-02-05T10:14:53Z</time></trkpt>
<trkpt lat="46.223295" lon="11.312458"><ele>805.54</ele><time>2022-02-05T10:14:56Z</time></trkpt>
<trkpt lat="46.223185" lon="11.312523"><ele>805.52</ele><time>2022-02-05T10:14:59Z</time></trkpt>
<trkpt lat="46.223085" lon="11.312636"><ele>806.96</ele><time>2022-02-05T10:15:02Z</time></trkpt>
<trkpt lat="46.222461" lon="11.313883"><ele>818.04</ele><time>2022-02-05T10:15:05Z</time></trkpt>
<trkpt lat="46.222365" lon="11.314003"><ele>816.12</ele><time>2022-02-05T10:15:09Z</time></trkpt>
<trkpt lat="46.222256" lon="11.314112"><ele>815.21</ele><time>2022-02-05T10:15:12Z</time></trkpt>
<trkpt lat="46.22011" lon="11.315772"><ele>800.8</ele><time>2022-02-05T10:15:15Z</time></trkpt>
<trkpt lat="46.218968" lon="11.316908"><ele>816.09</ele><time>2022-02-05T10:15:18Z</time></trkpt>
<trkpt lat="46.218869" lon="11.31695"><ele>814.44</ele><time>2022-02-05T10:15:21Z</time></trkpt>
<trkpt lat="46.218778" lon="11.316963"><ele>811.29</ele><time>2022-02-05T10:15:24Z</time></trkpt>
<trkpt lat="46.216473" lon="11.316541"><ele>794.86</ele><time>2022-02-05T10:15:27Z</time></trkpt>
<trkpt lat="46.216323" lon="11.316532"><ele>793.25</ele><time>2022-02-05T10:15:30Z</time></trkpt>
<trkpt lat="46.216168" lon="11.316572"><ele>792.72</ele><time>2022-02-05T10:15:33Z</time></trkpt>
<trkpt lat="46.215475" lon="11.316931"><ele>787.34</ele><time>2022-02-05T10:15:36Z</time></trkpt>
<trkpt lat="46.214593" lon="11.317208"><ele>795.93</ele><time>2022-02-05T10:15:39Z</time></trkpt>
<trkpt lat="46.213998" lon="11.317545"><ele>791.54</ele><time>2022-02-05T10:15:42Z</time></trkpt>
<trkpt lat="46.213312" lon="11.31789"><ele>783.37</ele><time>2022-02-05T10:15:45Z</time></trkpt>
<trkpt lat="46.212845" lon="11.318161"><ele>791.6</ele><time>2022-02-05T10:15:48Z</time></trkpt>
<trkpt lat="46.212754" lon="11.318187"><ele>793.28</ele><time>2022-02-05T10:15:51Z</time></trkpt>
<trkpt lat="46.21265" lon="11.318133"><ele>796.13</ele><time>2022-02-05T10:15:54Z</time></trkpt>
<trkpt lat="46.212578" lon="11.318021"><ele>797.04</ele><time>2022-02-05T10:15:57Z</time></trkpt>
<trkpt lat="46.212558" lon="11.317881"><ele>797.05</ele><time>2022-02-05T10:16:01Z</time></trkpt>
<trkpt lat="46.212682" lon="11.317327"><ele>794.08</ele><time>2022-02-05T10:16:04Z</time></trkpt>
<trkpt lat="46.212712" lon="11.317079"><ele>792.75</ele><time>2022-02-05T10:16:07Z</time></trkpt>
<trkpt lat="46.212669" lon="11.316879"><ele>792.87</ele><time>2022-02-05T10:16:10Z</time></trkpt>
<trkpt lat="46.212574" lon="11.316691"><ele>793.43</ele><time>2022-02-05T10:16:13Z</time></trkpt>
<trkpt lat="46.211892" lon="11.31574"><ele>786.77</ele><time>2022-02-05T10:16:16Z</time></trkpt>
<trkpt lat="46.211824" lon="11.315561"><ele>782.89</ele><time>2022-02-05T10:16:19Z</time></trkpt>
<trkpt lat="46.211777" lon="11.315191"><ele>777.66</ele><time>2022-02-05T10:16:22Z</time></trkpt>
<trkpt lat="46.211789" lon="11.314955"><ele>776.04</ele><time>2022-02-05T10:16:25Z</time></trkpt>
<trkpt lat="46.211824" lon="11.314773"><ele>776.35</ele><time>2022-02-05T10:16:28Z</time></trkpt>
<trkpt lat="46.211911" lon="11.314532"><ele>776.78</ele><time>2022-02-05T10:16:31Z</time></trkpt>
<trkpt lat="46.212164" lon="11.314011"><ele>788.56</ele><time>2022-02-05T10:16:34Z</time></trkpt>
<trkpt lat="46.212243" lon="11.313912"><ele>790.31</ele><time>2022-02-05T10:16:37Z</time></trkpt>
<trkpt lat="46.212477" lon="11.313688"><ele>796.7</ele><time>2022-02-05T10:16:40Z</time></trkpt>
<trkpt lat="46.214719" lon="11.312101"><ele>788.55</ele><time>2022-02-05T10:16:43Z</time></trkpt>
<trkpt lat="46.216318" lon="11.311235"><ele>780.9</ele><time>2022-02-05T10:16:46Z</time></trkpt>
<trkpt lat="46.216584" lon="11.311067"><ele>781.55</ele><time>2022-02-05T10:16:49Z</time></trkpt>
<trkpt lat="46.216881" lon="11.310815"><ele>791.41</ele><time>2022-02-05T10:16:53Z</time></trkpt>
<trkpt lat="46.217637" lon="11.309755"><ele>799.31</ele><time>2022-02-05T10:16:56Z</time></trkpt>
<trkpt lat="46.21851" lon="11.308814"><ele>770.23</ele><time>2022-02-05T10:16:59Z</time></trkpt>
<trkpt lat="46.218639" lon="11.308615"><ele>772.36</ele><time>2022-02-05T10:17:02Z</time></trkpt>
<trkpt lat="46.219206" lon="11.307256"><ele>774.18</ele><time>2022-02-05T10:17:05Z</time></trkpt>
<trkpt lat="46.219248" lon="11.307064"><ele>776.23</ele><time>2022-02-05T10:17:08Z</time></trkpt>
<trkpt lat="46.219262" lon="11.306912"><ele>778.68</ele><time>2022-02-05T10:17:11Z</time></trkpt>
<trkpt lat="46.219211" lon="11.306569"><ele>781.54</ele><time>2022-02-05T10:17:14Z</time></trkpt>
<trkpt lat="46.219116" lon="11.306324"><ele>780.55</ele><time>2022-02-05T10:17:17Z</time></trkpt>
<trkpt lat="46.218978" lon="11.30614"><ele>778.26</ele><time>2022-02-05T10:17:20Z</time></trkpt>
<trkpt lat="46.218038" lon="11.305383"><ele>776.71</ele><time>2022-02-05T10:17:23Z</time></trkpt>
<trkpt lat="46.218073" lon="11.305522"><ele>781.16</ele><time>2022-02-05T10:17:25Z</time></trkpt>
<trkpt lat="46.218512" lon="11.305917"><ele>783.42</ele><time>2022-02-05T10:17:27Z</time></trkpt>
<trkpt lat="46.218853" lon="11.306283"><ele>785.58</ele><time>2022-02-05T10:17:29Z</time></trkpt>
<trkpt lat="46.218965" lon="11.30648"><ele>788.35</ele><time>2022-02-05T10:17:32Z</time></trkpt>
<trkpt lat="46.219051" lon="11.306795"><ele>789.91</ele><time>2022-02-05T10:17:34Z</time></trkpt>
<trkpt lat="46.219014" lon="11.307005"><ele>791.77</ele><time>2022-02-05T10:17:36Z</time></trkpt>
<trkpt lat="46.218955" lon="11.307169"><ele>794.92</ele><time>2022-02-05T10:17:38Z</time></trkpt>
<trkpt lat="46.218293" lon="11.308077"><ele>826.15</ele><time>2022-02-05T10:17:40Z</time></trkpt>
<trkpt lat="46.217976" lon="11.308409"><ele>825.12</ele><time>2022-02-05T10:17:42Z</time></trkpt>
<trkpt lat="46.217303" lon="11.308887"><ele>846.28</ele><time>2022-02-05T10:17:44Z</time></trkpt>
<trkpt lat="46.216742" lon="11.309454"><ele>849.93</ele><time>2022-02-05T10:17:46Z</time></trkpt>
<trkpt lat="46.216529" lon="11.309739"><ele>848.36</ele><time>2022-02-05T10:17:48Z</time></trkpt>
<trkpt lat="46.216376" lon="11.309903"><ele>848.99</ele><time>2022-02-05T10:17:51Z</time></trkpt>
<trkpt lat="46.216294" lon="11.309967"><ele>849.98</ele><time>2022-02-05T10:17:53Z</time></trkpt>
<trkpt lat="46.215929" lon="11.310149"><ele>857.82</ele><time>2022-02-05T10:17:55Z</time></trkpt>
<trkpt lat="46.215585" lon="11.310436"><ele>859.45</ele><time>2022-02-05T10:17:57Z</time></trkpt>
<trkpt lat="46.215435" lon="11.310513"><ele>861.16</ele><time>2022-02-05T10:17:59Z</time></trkpt>
<trkpt lat="46.215178" lon="11.310566"><ele>864.92</ele><time>2022-02-05T10:18:01Z</time></trkpt>
<trkpt lat="46.214546" lon="11.310646"><ele>872.02</ele><time>2022-02-05T10:18:03Z</time></trkpt>
<trkpt lat="46.213987" lon="11.310804"><ele>878.64</ele><time>2022-02-05T10:18:05Z</time></trkpt>
<trkpt lat="46.213697" lon="11.310934"><ele>885.42</ele><time>2022-02-05T10:18:07Z</time></trkpt>
<trkpt lat="46.21354" lon="11.311073"><ele>885.72</ele><time>2022-02-05T10:18:09Z</time></trkpt>
<trkpt lat="46.213244" lon="11.311218"><ele>891.35</ele><time>2022-02-05T10:18:12Z</time></trkpt>
<trkpt lat="46.212171" lon="11.311923"><ele>892.3</ele><time>2022-02-05T10:18:14Z</time></trkpt>
<trkpt lat="46.211025" lon="11.312493"><ele>908.89</ele><time>2022-02-05T10:18:16Z</time></trkpt>
<trkpt lat="46.210406" lon="11.312694"><ele>916.21</ele><time>2022-02-05T10:18:18Z</time></trkpt>
<trkpt lat="46.21023" lon="11.312718"><ele>917.33</ele><time>2022-02-05T10:18:20Z</time></trkpt>
<trkpt lat="46.209723" lon="11.312685"><ele>913.34</ele><time>2022-02-05T10:18:22Z</time></trkpt>
<trkpt lat="46.209336" lon="11.312605"><ele>918.73</ele><time>2022-02-05T10:18:24Z</time></trkpt>
<trkpt lat="46.208655" lon="11.312406"><ele>921.97</ele><time>2022-02-05T10:18:26Z</time></trkpt>
<trkpt lat="46.208182" lon="11.312371"><ele>924.09</ele><time>2022-02-05T10:18:28Z</time></trkpt>
<trkpt lat="46.207761" lon="11.312259"><ele>928.94</ele><time>2022-02-05T10:18:31Z</time></trkpt>
<trkpt lat="46.207449" lon="11.312255"><ele>926.72</ele><time>2022-02-05T10:18:33Z</time></trkpt>
<trkpt lat="46.207381" lon="11.312215"><ele>927.79</ele><time>2022-02-05T10:18:35Z</time></trkpt>
<trkpt lat="46.207182" lon="11.31202"><ele>933.59</ele><time>2022-02-05T10:18:37Z</time></trkpt>
<trkpt lat="46.206968" lon="11.311887"><ele>938.37</ele><time>2022-02-05T10:18:39Z</time></trkpt>
<trkpt lat="46.206692" lon="11.311842"><ele>938.34</ele><time>2022-02-05T10:18:41Z</time></trkpt>
<trkpt lat="46.2063" lon="11.311878"><ele>934.5</ele><time>2022-02-05T10:18:43Z</time></trkpt>
<trkpt lat="46.205971" lon="11.311835"><ele>938.47</ele><time>2022-02-05T10:18:45Z</time></trkpt>
<trkpt lat="46.205342" lon="11.311711"><ele>952.81</ele><time>2022-02-05T10:18:47Z</time></trkpt>
<trkpt lat="46.204503" lon="11.311843"><ele>953.07</ele><time>2022-02-05T10:18:49Z</time></trkpt>
<trkpt lat="46.204189" lon="11.311949"><ele>956.3</ele><time>2022-02-05T10:18:52Z</time></trkpt>
<trkpt lat="46.203642" lon="11.312018"><ele>970.96</ele><time>2022-02-05T10:18:54Z</time></trkpt>
<trkpt lat="46.203105" lon="11.312242"><ele>976.25</ele><time>2022-02-05T10:18:56Z</time></trkpt>
<trkpt lat="46.202821" lon="11.312394"><ele>976.89</ele><time>2022-02-05T10:18:58Z</time></trkpt>
<trkpt lat="46.202642" lon="11.312514"><ele>978.36</ele><time>2022-02-05T10:19:00Z</time></trkpt>
<trkpt lat="46.202408" lon="11.312747"><ele>977.94</ele><time>2022-02-05T10:19:02Z</time></trkpt>
<trkpt lat="46.201853" lon="11.31357"><ele>984.49</ele><time>2022-02-05T10:19:04Z</time></trkpt>
<trkpt lat="46.20165" lon="11.313766"><ele>991.33</ele><time>2022-02-05T10:19:06Z</time></trkpt>
<trkpt lat="46.201569" lon="11.313906"><ele>995.34</ele><time>2022-02-05T10:19:08Z</time></trkpt>
<trkpt lat="46.201478" lon="11.314203"><ele>1001.0</ele><time>2022-02-05T10:19:11Z</time></trkpt>
<trkpt lat="46.201365" lon="11.314721"><ele>1001.3</ele><time>2022-02-05T10:19:13Z</time></trkpt>
<trkpt lat="46.20122" lon="11.315008"><ele>1002.25</ele><time>2022-02-05T10:19:15Z</time></trkpt>
<trkpt lat="46.200774" lon="11.315682"><ele>998.64</ele><time>2022-02-05T10:19:17Z</time></trkpt>
<trkpt lat="46.200431" lon="11.315988"><ele>1008.91</ele><time>2022-02-05T10:19:19Z</time></trkpt>
<trkpt lat="46.200211" lon="11.316335"><ele>1008.78</ele><time>2022-02-05T10:19:21Z</time></trkpt>
<trkpt lat="46.19971" lon="11.316988"><ele>1015.58</ele><time>2022-02-05T10:19:23Z</time></trkpt>
<trkpt lat="46.199616" lon="11.317072"><ele>1019.79</ele><time>2022-02-05T10:19:25Z</time></trkpt>
<trkpt lat="46.199273" lon="11.317306"><ele>1028.32</ele><time>2022-02-05T10:19:27Z</time></trkpt>
<trkpt lat="46.199072" lon="11.317572"><ele>1019.12</ele><time>2022-02-05T10:19:30Z</time></trkpt>
<trkpt lat="46.198777" lon="11.317854"><ele>1014.42</ele><time>2022-02-05T10:19:32Z</time></trkpt>
<trkpt lat="46.198301" lon="11.318072"><ele>1015.97</ele><time>2022-02-05T10:19:34Z</time></trkpt>
<trkpt lat="46.197603" lon="11.318333"><ele>1007.77</ele><time>2022-02-05T10:19:36Z</time></trkpt>
<trkpt lat="46.196991" lon="11.318389"><ele>1015.77</ele><time>2022-02-05T10:19:38Z</time></trkpt>
<trkpt lat="46.196429" lon="11.3186"><ele>1016.84</ele><time>2022-02-05T10:19:40Z</time></trkpt>
<trkpt lat="46.19598" lon="11.319095"><ele>1013.38</ele><time>2022-02-05T10:19:42Z</time></trkpt>
<trkpt lat="46.19576" lon="11.319298"><ele>1012.96</ele><time>2022-02-05T10:19:44Z</time></trkpt>
<trkpt lat="46.195633" lon="11.319362"><ele>1014.76</ele><time>2022-02-05T10:19:46Z</time></trkpt>
<trkpt lat="46.19533" lon="11.319444"><ele>1023.77</ele><time>2022-02-05T10:19:48Z</time></trkpt>
<trkpt lat="46.19524" lon="11.319582"><ele>1024.26</ele><time>2022-02-05T10:19:51Z</time></trkpt>
<trkpt lat="46.195157" lon="11.319772"><ele>1022.77</ele><time>2022-02-05T10:19:53Z</time></trkpt>
<trkpt lat="46.194901" lon="11.32005"><ele>1031.85</ele><time>2022-02-05T10:19:55Z</time></trkpt>
<trkpt lat="46.194597" lon="11.320462"><ele>1034.88</ele><time>2022-02-05T10:19:57Z</time></trkpt>
<trkpt lat="46.194287" lon="11.320802"><ele>1035.02</ele><time>2022-02-05T10:19:59Z</time></trkpt>
<trkpt lat="46.193738" lon="11.321302"><ele>1032.85</ele><time>2022-02-05T10:20:01Z</time></trkpt>
<trkpt lat="46.193167" lon="11.321749"><ele>1036.49</ele><time>2022-02-05T10:20:03Z</time></trkpt>
<trkpt lat="46.192586" lon="11.322339"><ele>1044.19</ele><time>2022-02-05T10:20:05Z</time></trkpt>
<trkpt lat="46.192295" lon="11.322598"><ele>1044.73</ele><time>2022-02-05T10:20:07Z</time></trkpt>
<trkpt lat="46.1916" lon="11.322892"><ele>1054.9</ele><time>2022-02-05T10:20:10Z</time></trkpt>
<trkpt lat="46.191364" lon="11.322957"><ele>1059.82</ele><time>2022-02-05T10:20:12Z</time></trkpt>
<trkpt lat="46.19117" lon="11.32297"><ele>1063.74</ele><time>2022-02-05T10:20:14Z</time></trkpt>
<trkpt lat="46.190931" lon="11.322928"><ele>1069.17</ele><time>2022-02-05T10:20:16Z</time></trkpt>
<trkpt lat="46.190745" lon="11.323004"><ele>1071.57</ele><time>2022-02-05T10:20:18Z</time></trkpt>
<trkpt lat="46.19051" lon="11.323245"><ele>1071.82</ele><time>2022-02-05T10:20:20Z</time></trkpt>
<trkpt lat="46.190293" lon="11.323523"><ele>1066.91</ele><time>2022-02-05T10:20:22Z</time></trkpt>
<trkpt lat="46.190078" lon="11.323723"><ele>1064.92</ele><time>2022-02-05T10:20:24Z</time></trkpt>
<trkpt lat="46.189771" lon="11.32392"><ele>1066.19</ele><time>2022-02-05T10:20:26Z</time></trkpt>
<trkpt lat="46.18951" lon="11.324046"><ele>1064.51</ele><time>2022-02-05T10:20:28Z</time></trkpt>
<trkpt lat="46.189289" lon="11.324119"><ele>1060.85</ele><time>2022-02-05T10:20:31Z</time></trkpt>
<trkpt lat="46.189194" lon="11.324142"><ele>1059.18</ele><time>2022-02-05T10:20:33Z</time></trkpt>
<trkpt lat="46.189036" lon="11.324122"><ele>1059.62</ele><time>2022-02-05T10:20:35Z</time></trkpt>
<trkpt lat="46.188963" lon="11.324087"><ele>1060.75</ele><time>2022-02-05T10:20:37Z</time></trkpt>
<trkpt lat="46.188867" lon="11.323981"><ele>1063.81</ele><time>2022-02-05T10:20:39Z</time></trkpt>
<trkpt lat="46.188781" lon="11.323921"><ele>1065.08</ele><time>2022-02-05T10:20:41Z</time></trkpt>
<trkpt lat="46.188585" lon="11.323889"><ele>1064.8</ele><time>2022-02-05T10:20:43Z</time></trkpt>
<trkpt lat="46.188129" lon="11.323671"><ele>1074.19</ele><time>2022-02-05T10:20:45Z</time></trkpt>
<trkpt lat="46.188031" lon="11.323659"><ele>1075.68</ele><time>2022-02-05T10:20:47Z</time></trkpt>
<trkpt lat="46.187916" lon="11.323676"><ele>1076.96</ele><time>2022-02-05T10:20:50Z</time></trkpt>
<trkpt lat="46.187528" lon="11.324022"><ele>1077.58</ele><time>2022-02-05T10:20:52Z</time></trkpt>
<trkpt lat="46.187087" lon="11.324241"><ele>1082.04</ele><time>2022-02-05T10:20:54Z</time></trkpt>
<trkpt lat="46.186258" lon="11.324922"><ele>1074.16</ele><time>2022-02-05T10:20:56Z</time></trkpt>
<trkpt lat="46.185462" lon="11.325316"><ele>1078.67</ele><time>2022-02-05T10:20:58Z</time></trkpt>
<trkpt lat="46.185223" lon="11.325458"><ele>1083.74</ele><time>2022-02-05T10:21:00Z</time></trkpt>
<trkpt lat="46.185068" lon="11.325518"><ele>1086.61</ele><time>2022-02-05T10:21:02Z</time></trkpt>
<trkpt lat="46.18496" lon="11.325534"><ele>1088.34</ele><time>2022-02-05T10:21:04Z</time></trkpt>
<trkpt lat="46.184852" lon="11.325515"><ele>1089.63</ele><time>2022-02-05T10:21:06Z</time></trkpt>
<trkpt lat="46.183783" lon="11.325128"><ele>1092.05</ele><time>2022-02-05T10:21:08Z</time></trkpt>
<trkpt lat="46.183659" lon="11.325109"><ele>1092.72</ele><time>2022-02-05T10:21:11Z</time></trkpt>
<trkpt lat="46.18355" lon="11.325131"><ele>1094.09</ele><time>2022-02-05T10:21:13Z</time></trkpt>
<trkpt lat="46.183145" lon="11.325357"><ele>1104.03</ele><time>2022-02-05T10:21:15Z</time></trkpt>
<trkpt lat="46.182689" lon="11.325675"><ele>1108.72</ele><time>2022-02-05T10:21:17Z</time></trkpt>
<trkpt lat="46.182661" lon="11.325821"><ele>1109.51</ele><time>2022-02-05T10:21:19Z</time></trkpt>
<trkpt lat="46.182675" lon="11.325988"><ele>1109.63</ele><time>2022-02-05T10:21:21Z</time></trkpt>
<trkpt lat="46.182256" lon="11.325915"><ele>1109.26</ele><time>2022-02-05T10:21:26Z</time></trkpt>
<trkpt lat="46.181883" lon="11.325946"><ele>1107.21</ele><time>2022-02-05T10:21:30Z</time></trkpt>
<trkpt lat="46.181009" lon="11.326198"><ele>1100.74</ele><time>2022-02-05T10:21:34Z</time></trkpt>
<trkpt lat="46.180806" lon="11.32622"><ele>1101.68</ele><time>2022-02-05T10:21:39Z</time></trkpt>
<trkpt lat="46.180665" lon="11.326142"><ele>1102.96</ele><time>2022-02-05T10:21:43Z</time></trkpt>
<trkpt lat="46.180317" lon="11.325766"><ele>1102.43</ele><time>2022-02-05T10:21:47Z</time></trkpt>
<trkpt lat="46.180166" lon="11.325639"><ele>1101.68</ele><time>2022-02-05T10:21:51Z</time></trkpt>
<trkpt lat="46.179916" lon="11.325502"><ele>1100.81</ele><time>2022-02-05T10:21:56Z</time></trkpt>
<trkpt lat="46.17919" lon="11.325241"><ele>1097.58</ele><time>2022-02-05T10:22:00Z</time></trkpt>
<trkpt lat="46.178812" lon="11.325025"><ele>1097.71</ele><time>2022-02-05T10:22:04Z</time></trkpt>
<trkpt lat="46.17785" lon="11.324332"><ele>1114.36</ele><time>2022-02-05T10:22:09Z</time></trkpt>
<trkpt lat="46.17763" lon="11.324116"><ele>1113.04</ele><time>2022-02-05T10:22:13Z</time></trkpt>
<trkpt lat="46.176865" lon="11.32293"><ele>1103.46</ele><time>2022-02-05T10:22:17Z</time></trkpt>
<trkpt lat="46.176531" lon="11.322356"><ele>1106.12</ele><time>2022-02-05T10:22:22Z</time></trkpt>
<trkpt lat="46.176411" lon="11.32218"><ele>1108.85</ele><time>2022-02-05T10:22:26Z</time></trkpt>
<trkpt lat="46.175656" lon="11.321318"><ele>1101.0</ele><time>2022-02-05T10:22:30Z</time></trkpt>
<trkpt lat="46.175546" lon="11.321113"><ele>1103.24</ele><time>2022-02-05T10:22:35Z</time></trkpt>
<trkpt lat="46.175478" lon="11.320905"><ele>1105.61</ele><time>2022-02-05T10:22:39Z</time></trkpt>
<trkpt lat="46.175371" lon="11.320476"><ele>1099.89</ele><time>2022-02-05T10:22:43Z</time></trkpt>
<trkpt lat="46.175194" lon="11.319977"><ele>1096.72</ele><time>2022-02-05T10:22:48Z</time></trkpt>
<trkpt lat="46.174708" lon="11.31909"><ele>1100.81</ele><time>2022-02-05T10:22:52Z</time></trkpt>
<trkpt lat="46.174573" lon="11.318879"><ele>1100.46</ele><time>2022-02-05T10:22:56Z</time></trkpt>
<trkpt lat="46.174446" lon="11.318725"><ele>1098.07</ele><time>2022-02-05T10:23:01Z</time></trkpt>
<trkpt lat="46.17392" lon="11.318434"><ele>1105.63</ele><time>2022-02-05T10:23:05Z</time></trkpt>
<trkpt lat="46.173649" lon="11.318175"><ele>1103.31</ele><time>2022-02-05T10:23:09Z</time></trkpt>
<trkpt lat="46.173419" lon="11.317861"><ele>1101.24</ele><time>2022-02-05T10:23:14Z</time></trkpt>
<trkpt lat="46.172276" lon="11.316144"><ele>1094.59</ele><time>2022-02-05T10:23:18Z</time></trkpt>
<trkpt lat="46.172208" lon="11.315982"><ele>1099.66</ele><time>2022-02-05T10:23:22Z</time></trkpt>
<trkpt lat="46.172149" lon="11.315782"><ele>1103.14</ele><time>2022-02-05T10:23:27Z</time></trkpt>
<trkpt lat="46.17208" lon="11.315323"><ele>1091.73</ele><time>2022-02-05T10:23:31Z</time></trkpt>
<trkpt lat="46.172018" lon="11.315103"><ele>1087.47</ele><time>2022-02-05T10:23:35Z</time></trkpt>
<trkpt lat="46.17192" lon="11.314903"><ele>1086.1</ele><time>2022-02-05T10:23:40Z</time></trkpt>
<trkpt lat="46.171812" lon="11.314771"><ele>1087.96</ele><time>2022-02-05T10:23:44Z</time></trkpt>
<trkpt lat="46.171381" lon="11.314487"><ele>1102.81</ele><time>2022-02-05T10:23:48Z</time></trkpt>
<trkpt lat="46.171251" lon="11.314342"><ele>1104.58</ele><time>2022-02-05T10:23:53Z</time></trkpt>
<trkpt lat="46.169991" lon="11.31263"><ele>1089.96</ele><time>2022-02-05T10:23:57Z</time></trkpt>
<trkpt lat="46.169717" lon="11.312313"><ele>1085.61</ele><time>2022-02-05T10:24:01Z</time></trkpt>
<trkpt lat="46.169535" lon="11.312222"><ele>1083.65</ele><time>2022-02-05T10:24:06Z</time></trkpt>
<trkpt lat="46.169042" lon="11.312141"><ele>1082.15</ele><time>2022-02-05T10:24:10Z</time></trkpt>
<trkpt lat="46.168918" lon="11.312081"><ele>1081.4</ele><time>2022-02-05T10:24:14Z</time></trkpt>
<trkpt lat="46.168806" lon="11.311997"><ele>1081.68</ele><time>2022-02-05T10:24:18Z</time></trkpt>
<trkpt lat="46.168711" lon="11.311887"><ele>1082.49</ele><time>2022-02-05T10:24:23Z</time></trkpt>
<trkpt lat="46.16858" lon="11.311661"><ele>1083.2</ele><time>2022-02-05T10:24:27Z</time></trkpt>
<trkpt lat="46.168229" lon="11.310842"><ele>1082.08</ele><time>2022-02-05T10:24:31Z</time></trkpt>
<trkpt lat="46.168139" lon="11.31068"><ele>1080.07</ele><time>2022-02-05T10:24:36Z</time></trkpt>
<trkpt lat="46.16798" lon="11.310491"><ele>1076.43</ele><time>2022-02-05T10:24:40Z</time></trkpt>
<trkpt lat="46.167795" lon="11.310356"><ele>1074.67</ele><time>2022-02-05T10:24:44Z</time></trkpt>
<trkpt lat="46.166718" lon="11.3098"><ele>1082.12</ele><time>2022-02-05T10:24:49Z</time></trkpt>
<trkpt lat="46.165912" lon="11.309437"><ele>1087.84</ele><time>2022-02-05T10:24:53Z</time></trkpt>
<trkpt lat="46.165731" lon="11.30933"><ele>1090.34</ele><time>2022-02-05T10:24:57Z</time></trkpt>
<trkpt lat="46.16528" lon="11.308806"><ele>1090.92</ele><time>2022-02-05T10:25:02Z</time></trkpt>
<trkpt lat="46.165135" lon="11.308612"><ele>1091.21</ele><time>2022-02-05T10:25:06Z</time></trkpt>
<trkpt lat="46.164988" lon="11.308339"><ele>1087.7</ele><time>2022-02-05T10:25:10Z</time></trkpt>
<trkpt lat="46.164761" lon="11.307792"><ele>1071.76</ele><time>2022-02-05T10:25:15Z</time></trkpt>
<trkpt lat="46.16462" lon="11.307629"><ele>1069.4</ele><time>2022-02-05T10:25:19Z</time></trkpt>
<trkpt lat="46.163934" lon="11.30712"><ele>1068.22</ele><time>2022-02-05T10:25:23Z</time></trkpt>
<trkpt lat="46.163198" lon="11.30661"><ele>1066.03</ele><time>2022-02-05T10:25:28Z</time></trkpt>
<trkpt lat="46.163025" lon="11.306425"><ele>1065.33</ele><time>2022-02-05T10:25:32Z</time></trkpt>
<trkpt lat="46.162658" lon="11.305953"><ele>1071.29</ele><time>2022-02-05T10:25:36Z</time></trkpt>
<trkpt lat="46.162561" lon="11.305796"><ele>1073.36</ele><time>2022-02-05T10:25:41Z</time></trkpt>
<trkpt lat="46.162468" lon="11.305563"><ele>1075.09</ele><time>2022-02-05T10:25:45Z</time></trkpt>
<trkpt lat="46.16182" lon="11.303665"><ele>1063.2</ele><time>2022-02-05T10:25:49Z</time></trkpt>
<trkpt lat="46.161677" lon="11.303339"><ele>1062.97</ele><time>2022-02-05T10:25:54Z</time></trkpt>
<trkpt lat="46.161563" lon="11.30318"><ele>1062.81</ele><time>2022-02-05T10:25:58Z</time></trkpt>
<trkpt lat="46.160724" lon="11.30232"><ele>1060.69</ele><time>2022-02-05T10:26:02Z</time></trkpt>
<trkpt lat="46.160475" lon="11.302298"><ele>1060.8</ele><time>2022-02-05T10:26:07Z</time></trkpt>
<trkpt lat="46.160139" lon="11.302348"><ele>1065.71</ele><time>2022-02-05T10:26:11Z</time></trkpt>
<trkpt lat="46.160077" lon="11.302324"><ele>1066.65</ele><time>2022-02-05T10:26:15Z</time></trkpt>
<trkpt lat="46.160016" lon="11.302214"><ele>1066.47</ele><time>2022-02-05T10:26:20Z</time></trkpt>
<trkpt lat="46.159944" lon="11.301886"><ele>1065.93</ele><time>2022-02-05T10:26:24Z</time></trkpt>
<trkpt lat="46.160154" lon="11.300759"><ele>1066.3</ele><time>2022-02-05T10:26:28Z</time></trkpt>
<trkpt lat="46.160175" lon="11.300558"><ele>1067.25</ele><time>2022-02-05T10:26:33Z</time></trkpt>
<trkpt lat="46.160177" lon="11.300325"><ele>1063.49</ele><time>2022-02-05T10:26:37Z</time></trkpt>
<trkpt lat="46.160154" lon="11.300121"><ele>1059.5</ele><time>2022-02-05T10:26:41Z</time></trkpt>
<trkpt lat="46.160029" lon="11.299568"><ele>1052.55</ele><time>2022-02-05T10:26:46Z</time></trkpt>
<trkpt lat="46.159961" lon="11.299734"><ele>1053.49</ele><time>2022-02-05T10:26:47Z</time></trkpt>
<trkpt lat="46.160043" lon="11.300405"><ele>1064.89</ele><time>2022-02-05T10:26:49Z</time></trkpt>
<trkpt lat="46.160043" lon="11.300625"><ele>1066.23</ele><time>2022-02-05T10:26:51Z</time></trkpt>
<trkpt lat="46.160022" lon="11.300816"><ele>1066.01</ele><time>2022-02-05T10:26:53Z</time></trkpt>
<trkpt lat="46.159837" lon="11.301507"><ele>1069.01</ele><time>2022-02-05T10:26:55Z</time></trkpt>
<trkpt lat="46.159729" lon="11.301727"><ele>1070.89</ele><time>2022-02-05T10:26:57Z</time></trkpt>
<trkpt lat="46.159636" lon="11.301843"><ele>1072.94</ele><time>2022-02-05T10:26:59Z</time></trkpt>
<trkpt lat="46.159129" lon="11.302266"><ele>1087.77</ele><time>2022-02-05T10:27:01Z</time></trkpt>
<trkpt lat="46.15903" lon="11.302382"><ele>1093.17</ele><time>2022-02-05T10:27:03Z</time></trkpt>
<trkpt lat="46.158921" lon="11.302527"><ele>1099.95</ele><time>2022-02-05T10:27:04Z</time></trkpt>
<trkpt lat="46.158678" lon="11.302969"><ele>1105.58</ele><time>2022-02-05T10:27:06Z</time></trkpt>
<trkpt lat="46.158111" lon="11.303683"><ele>1117.74</ele><time>2022-02-05T10:27:08Z</time></trkpt>
<trkpt lat="46.157629" lon="11.304334"><ele>1124.54</ele><time>2022-02-05T10:27:10Z</time></trkpt>
<trkpt lat="46.157162" lon="11.305017"><ele>1133.02</ele><time>2022-02-05T10:27:12Z</time></trkpt>
<trkpt lat="46.156585" lon="11.305422"><ele>1148.21</ele><time>2022-02-05T10:27:14Z</time></trkpt>
<trkpt lat="46.156021" lon="11.306502"><ele>1158.14</ele><time>2022-02-05T10:27:16Z</time></trkpt>
<trkpt lat="46.155721" lon="11.30691"><ele>1166.35</ele><time>2022-02-05T10:27:18Z</time></trkpt>
<trkpt lat="46.155647" lon="11.307065"><ele>1167.72</ele><time>2022-02-05T10:27:20Z</time></trkpt>
<trkpt lat="46.155642" lon="11.307191"><ele>1165.49</ele><time>2022-02-05T10:27:21Z</time></trkpt>
<trkpt lat="46.155701" lon="11.307348"><ele>1162.51</ele><time>2022-02-05T10:27:23Z</time></trkpt>
<trkpt lat="46.156314" lon="11.307945"><ele>1160.2</ele><time>2022-02-05T10:27:25Z</time></trkpt>
<trkpt lat="46.156374" lon="11.308035"><ele>1160.85</ele><time>2022-02-05T10:27:27Z</time></trkpt>
<trkpt lat="46.156374" lon="11.308193"><ele>1162.49</ele><time>2022-02-05T10:27:29Z</time></trkpt>
<trkpt lat="46.156308" lon="11.308288"><ele>1163.51</ele><time>2022-02-05T10:27:31Z</time></trkpt>
<trkpt lat="46.156183" lon="11.308305"><ele>1163.7</ele><time>2022-02-05T10:27:33Z</time></trkpt>
<trkpt lat="46.156017" lon="11.308254"><ele>1164.98</ele><time>2022-02-05T10:27:35Z</time></trkpt>
<trkpt lat="46.155862" lon="11.308251"><ele>1167.95</ele><time>2022-02-05T10:27:36Z</time></trkpt>
<trkpt lat="46.155812" lon="11.30836"><ele>1171.31</ele><time>2022-02-05T10:27:38Z</time></trkpt>
<trkpt lat="46.155818" lon="11.308497"><ele>1175.11</ele><time>2022-02-05T10:27:40Z</time></trkpt>
<trkpt lat="46.15648" lon="11.309163"><ele>1178.28</ele><time>2022-02-05T10:27:42Z</time></trkpt>
<trkpt lat="46.156525" lon="11.309233"><ele>1180.06</ele><time>2022-02-05T10:27:44Z</time></trkpt>
<trkpt lat="46.156534" lon="11.309302"><ele>1182.09</ele><time>2022-02-05T10:27:46Z</time></trkpt>
<trkpt lat="46.156507" lon="11.309442"><ele>1186.66</ele><time>2022-02-05T10:27:48Z</time></trkpt>
<trkpt lat="46.156437" lon="11.309523"><ele>1190.06</ele><time>2022-02-05T10:27:50Z</time></trkpt>
<trkpt lat="46.156383" lon="11.309527"><ele>1190.79</ele><time>2022-02-05T10:27:52Z</time></trkpt>
<trkpt lat="46.155734" lon="11.309144"><ele>1194.98</ele><time>2022-02-05T10:27:53Z</time></trkpt>
<trkpt lat="46.155607" lon="11.309112"><ele>1198.59</ele><time>2022-02-05T10:27:55Z</time></trkpt>
<trkpt lat="46.155411" lon="11.309086"><ele>1201.9</ele><time>2022-02-05T10:27:57Z</time></trkpt>
<trkpt lat="46.15512" lon="11.309175"><ele>1202.49</ele><time>2022-02-05T10:27:59Z</time></trkpt>
<trkpt lat="46.15512" lon="11.309175"><ele>1202.49</ele><time>2022-02-05T10:27:59Z</time></trkpt>
<trkpt lat="46.154894" lon="11.309244"><ele>1203.08</ele><time>2022-02-05T10:28:01Z</time></trkpt>
<trkpt lat="46.15425" lon="11.309263"><ele>1202.44</ele><time>2022-02-05T10:28:03Z</time></trkpt>
<trkpt lat="46.153243" lon="11.309657"><ele>1210.11</ele><time>2022-02-05T10:28:05Z</time></trkpt>
<trkpt lat="46.152547" lon="11.309957"><ele>1222.02</ele><time>2022-02-05T10:28:07Z</time></trkpt>
<trkpt lat="46.151834" lon="11.31006"><ele>1222.83</ele><time>2022-02-05T10:28:08Z</time></trkpt>
<trkpt lat="46.150793" lon="11.310099"><ele>1237.98</ele><time>2022-02-05T10:28:10Z</time></trkpt>
<trkpt lat="46.150644" lon="11.310029"><ele>1238.31</ele><time>2022-02-05T10:28:12Z</time></trkpt>
<trkpt lat="46.150319" lon="11.309743"><ele>1239.7</ele><time>2022-02-05T10:28:14Z</time></trkpt>
<trkpt lat="46.150229" lon="11.309743"><ele>1241.06</ele><time>2022-02-05T10:28:16Z</time></trkpt>
<trkpt lat="46.15018" lon="11.30981"><ele>1242.6</ele><time>2022-02-05T10:28:18Z</time></trkpt>
<trkpt lat="46.150166" lon="11.30994"><ele>1244.21</ele><time>2022-02-05T10:28:20Z</time></trkpt>
<trkpt lat="46.150219" lon="11.310027"><ele>1243.78</ele><time>2022-02-05T10:28:21Z</time></trkpt>
<trkpt lat="46.15044" lon="11.310219"><ele>1243.54</ele><time>2022-02-05T10:28:23Z</time></trkpt>
<trkpt lat="46.150651" lon="11.310296"><ele>1243.69</ele><time>2022-02-05T10:28:25Z</time></trkpt>
<trkpt lat="46.150823" lon="11.310318"><ele>1243.06</ele><time>2022-02-05T10:28:27Z</time></trkpt>
<trkpt lat="46.150869" lon="11.310365"><ele>1243.94</ele><time>2022-02-05T10:28:29Z</time></trkpt>
<trkpt lat="46.150892" lon="11.310427"><ele>1245.33</ele><time>2022-02-05T10:28:31Z</time></trkpt>
<trkpt lat="46.150902" lon="11.310533"><ele>1247.93</ele><time>2022-02-05T10:28:33Z</time></trkpt>
<trkpt lat="46.15086" lon="11.310616"><ele>1249.69</ele><time>2022-02-05T10:28:34Z</time></trkpt>
<trkpt lat="46.15079" lon="11.310639"><ele>1250.34</ele><time>2022-02-05T10:28:36Z</time></trkpt>
<trkpt lat="46.150699" lon="11.310633"><ele>1250.52</ele><time>2022-02-05T10:28:38Z</time></trkpt>
<trkpt lat="46.150176" lon="11.310492"><ele>1252.9</ele><time>2022-02-05T10:28:40Z</time></trkpt>
<trkpt lat="46.149826" lon="11.310467"><ele>1257.48</ele><time>2022-02-05T10:28:42Z</time></trkpt>
<trkpt lat="46.149467" lon="11.31061"><ele>1263.91</ele><time>2022-02-05T10:28:44Z</time></trkpt>
<trkpt lat="46.14923" lon="11.310734"><ele>1272.25</ele><time>2022-02-05T10:28:46Z</time></trkpt>
<trkpt lat="46.148843" lon="11.310858"><ele>1279.48</ele><time>2022-02-05T10:28:48Z</time></trkpt>
<trkpt lat="46.148425" lon="11.311029"><ele>1283.8</ele><time>2022-02-05T10:28:49Z</time></trkpt>
<trkpt lat="46.147791" lon="11.311416"><ele>1297.02</ele><time>2022-02-05T10:28:51Z</time></trkpt>
<trkpt lat="46.146987" lon="11.311798"><ele>1302.97</ele><time>2022-02-05T10:28:53Z</time></trkpt>
<trkpt lat="46.146921" lon="11.311884"><ele>1305.21</ele><time>2022-02-05T10:28:55Z</time></trkpt>
<trkpt lat="46.146909" lon="11.312002"><ele>1308.01</ele><time>2022-02-05T10:28:57Z</time></trkpt>
<trkpt lat="46.146935" lon="11.312086"><ele>1310.16</ele><time>2022-02-05T10:28:59Z</time></trkpt>
<trkpt lat="46.146993" lon="11.312143"><ele>1311.81</ele><time>2022-02-05T10:29:01Z</time></trkpt>
<trkpt lat="46.147422" lon="11.312074"><ele>1307.77</ele><time>2022-02-05T10:29:02Z</time></trkpt>
<trkpt lat="46.147735" lon="11.312109"><ele>1308.48</ele><time>2022-02-05T10:29:04Z</time></trkpt>
<trkpt lat="46.147776" lon="11.312212"><ele>1310.79</ele><time>2022-02-05T10:29:06Z</time></trkpt>
<trkpt lat="46.147783" lon="11.312305"><ele>1313.01</ele><time>2022-02-05T10:29:08Z</time></trkpt>
<trkpt lat="46.147736" lon="11.312379"><ele>1315.12</ele><time>2022-02-05T10:29:10Z</time></trkpt>
<trkpt lat="46.147672" lon="11.312422"><ele>1316.59</ele><time>2022-02-05T10:29:12Z</time></trkpt>
<trkpt lat="46.146762" lon="11.31256"><ele>1326.94</ele><time>2022-02-05T10:29:14Z</time></trkpt>
<trkpt lat="46.146314" lon="11.312663"><ele>1332.18</ele><time>2022-02-05T10:29:16Z</time></trkpt>
<trkpt lat="46.145373" lon="11.313193"><ele>1344.29</ele><time>2022-02-05T10:29:19Z</time></trkpt>
<trkpt lat="46.145088" lon="11.313303"><ele>1345.85</ele><time>2022-02-05T10:29:21Z</time></trkpt>
<trkpt lat="46.144602" lon="11.313448"><ele>1353.1</ele><time>2022-02-05T10:29:23Z</time></trkpt>
<trkpt lat="46.144173" lon="11.313679"><ele>1367.57</ele><time>2022-02-05T10:29:25Z</time></trkpt>
<trkpt lat="46.143847" lon="11.313793"><ele>1374.52</ele><time>2022-02-05T10:29:27Z</time></trkpt>
<trkpt lat="46.142723" lon="11.314346"><ele>1379.11</ele><time>2022-02-05T10:29:29Z</time></trkpt>
<trkpt lat="46.142573" lon="11.314394"><ele>1381.01</ele><time>2022-02-05T10:29:31Z</time></trkpt>
<trkpt lat="46.142408" lon="11.314377"><ele>1382.34</ele><time>2022-02-05T10:29:33Z</time></trkpt>
<trkpt lat="46.141944" lon="11.314243"><ele>1382.86</ele><time>2022-02-05T10:29:35Z</time></trkpt>
<trkpt lat="46.141788" lon="11.314218"><ele>1390.59</ele><time>2022-02-05T10:29:37Z</time></trkpt>
<trkpt lat="46.141709" lon="11.31427"><ele>1394.59</ele><time>2022-02-05T10:29:39Z</time></trkpt>
<trkpt lat="46.141681" lon="11.314349"><ele>1395.69</ele><time>2022-02-05T10:29:41Z</time></trkpt>
<trkpt lat="46.141686" lon="11.314436"><ele>1395.26</ele><time>2022-02-05T10:29:43Z</time></trkpt>
<trkpt lat="46.141723" lon="11.31451"><ele>1393.87</ele><time>2022-02-05T10:29:45Z</time></trkpt>
<trkpt lat="46.14179" lon="11.314568"><ele>1392.06</ele><time>2022-02-05T10:29:47Z</time></trkpt>
<trkpt lat="46.14231" lon="11.314834"><ele>1390.92</ele><time>2022-02-05T10:29:49Z</time></trkpt>
<trkpt lat="46.142364" lon="11.314915"><ele>1392.5</ele><time>2022-02-05T10:29:51Z</time></trkpt>
<trkpt lat="46.142376" lon="11.314984"><ele>1394.06</ele><time>2022-02-05T10:29:53Z</time></trkpt>
<trkpt lat="46.142366" lon="11.315042"><ele>1395.53</ele><time>2022-02-05T10:29:55Z</time></trkpt>
<trkpt lat="46.142326" lon="11.315096"><ele>1397.05</ele><time>2022-02-05T10:29:57Z</time></trkpt>
<trkpt lat="46.142194" lon="11.315169"><ele>1399.36</ele><time>2022-02-05T10:29:59Z</time></trkpt>
<trkpt lat="46.14157" lon="11.315376"><ele>1401.22</ele><time>2022-02-05T10:30:01Z</time></trkpt>
<trkpt lat="46.141392" lon="11.315478"><ele>1402.61</ele><time>2022-02-05T10:30:03Z</time></trkpt>
<trkpt lat="46.141367" lon="11.315579"><ele>1404.82</ele><time>2022-02-05T10:30:05Z</time></trkpt>
<trkpt lat="46.141395" lon="11.315689"><ele>1407.4</ele><time>2022-02-05T10:30:07Z</time></trkpt>
<trkpt lat="46.141465" lon="11.315732"><ele>1409.0</ele><time>2022-02-05T10:30:09Z</time></trkpt>
<trkpt lat="46.142108" lon="11.315765"><ele>1411.19</ele><time>2022-02-05T10:30:11Z</time></trkpt>
<trkpt lat="46.142154" lon="11.315808"><ele>1412.15</ele><time>2022-02-05T10:30:13Z</time></trkpt>
<trkpt lat="46.142181" lon="11.315902"><ele>1413.8</ele><time>2022-02-05T10:30:15Z</time></trkpt>
<trkpt lat="46.142163" lon="11.315995"><ele>1415.27</ele><time>2022-02-05T10:30:17Z</time></trkpt>
<trkpt lat="46.142123" lon="11.316045"><ele>1416.15</ele><time>2022-02-05T10:30:19Z</time></trkpt>
<trkpt lat="46.142075" lon="11.316069"><ele>1416.69</ele><time>2022-02-05T10:30:21Z</time></trkpt>
<trkpt lat="46.141668" lon="11.316149"><ele>1419.82</ele><time>2022-02-05T10:30:23Z</time></trkpt>
<trkpt lat="46.141515" lon="11.316199"><ele>1420.19</ele><time>2022-02-05T10:30:25Z</time></trkpt>
<trkpt lat="46.141357" lon="11.316322"><ele>1421.28</ele><time>2022-02-05T10:30:27Z</time></trkpt>
<trkpt lat="46.141209" lon="11.316573"><ele>1422.85</ele><time>2022-02-05T10:30:29Z</time></trkpt>
<trkpt lat="46.141053" lon="11.316909"><ele>1427.67</ele><time>2022-02-05T10:30:31Z</time></trkpt>
<trkpt lat="46.140192" lon="11.318608"><ele>1442.49</ele><time>2022-02-05T10:30:34Z</time></trkpt>
<trkpt lat="46.140031" lon="11.318838"><ele>1440.68</ele><time>2022-02-05T10:30:36Z</time></trkpt>
<trkpt lat="46.138706" lon="11.320317"><ele>1454.79</ele><time>2022-02-05T10:30:38Z</time></trkpt>
<trkpt lat="46.138436" lon="11.320586"><ele>1454.82</ele><time>2022-02-05T10:30:40Z</time></trkpt>
<trkpt lat="46.137485" lon="11.321261"><ele>1456.16</ele><time>2022-02-05T10:30:42Z</time></trkpt>
<trkpt lat="46.137269" lon="11.321439"><ele>1455.96</ele><time>2022-02-05T10:30:44Z</time></trkpt>
<trkpt lat="46.137139" lon="11.321641"><ele>1456.58</ele><time>2022-02-05T10:30:46Z</time></trkpt>
<trkpt lat="46.136942" lon="11.322162"><ele>1458.11</ele><time>2022-02-05T10:30:48Z</time></trkpt>
<trkpt lat="46.136849" lon="11.322341"><ele>1459.54</ele><time>2022-02-05T10:30:50Z</time></trkpt>
<trkpt lat="46.136683" lon="11.322525"><ele>1459.43</ele><time>2022-02-05T10:30:52Z</time></trkpt>
<trkpt lat="46.135975" lon="11.323094"><ele>1451.72</ele><time>2022-02-05T10:30:54Z</time></trkpt>
<trkpt lat="46.135734" lon="11.323381"><ele>1452.61</ele><time>2022-02-05T10:30:56Z</time></trkpt>
<trkpt lat="46.1356" lon="11.32361"><ele>1451.8</ele><time>2022-02-05T10:30:58Z</time></trkpt>
<trkpt lat="46.135067" lon="11.324798"><ele>1452.9</ele><time>2022-02-05T10:31:00Z</time></trkpt>
<trkpt lat="46.134957" lon="11.324967"><ele>1452.84</ele><time>2022-02-05T10:31:02Z</time></trkpt>
<trkpt lat="46.134823" lon="11.325097"><ele>1457.69</ele><time>2022-02-05T10:31:04Z</time></trkpt>
<trkpt lat="46.134537" lon="11.325299"><ele>1461.18</ele><time>2022-02-05T10:31:06Z</time></trkpt>
<trkpt lat="46.133736" lon="11.325798"><ele>1462.27</ele><time>2022-02-05T10:31:08Z</time></trkpt>
<trkpt lat="46.132466" lon="11.32725"><ele>1459.01</ele><time>2022-02-05T10:31:10Z</time></trkpt>
<trkpt lat="46.131663" lon="11.328266"><ele>1454.28</ele><time>2022-02-05T10:31:12Z</time></trkpt>
<trkpt lat="46.131011" lon="11.329252"><ele>1430.13</ele><time>2022-02-05T10:31:14Z</time></trkpt>
<trkpt lat="46.130668" lon="11.329847"><ele>1420.84</ele><time>2022-02-05T10:31:16Z</time></trkpt>
<trkpt lat="46.130313" lon="11.330181"><ele>1402.35</ele><time>2022-02-05T10:31:18Z</time></trkpt>
<trkpt lat="46.130218" lon="11.33031"><ele>1401.17</ele><time>2022-02-05T10:31:20Z</time></trkpt>
<trkpt lat="46.130159" lon="11.330457"><ele>1403.52</ele><time>2022-02-05T10:31:22Z</time></trkpt>
<trkpt lat="46.130142" lon="11.330633"><ele>1406.63</ele><time>2022-02-05T10:31:24Z</time></trkpt>
<trkpt lat="46.130162" lon="11.330986"><ele>1414.57</ele><time>2022-02-05T10:31:26Z</time></trkpt>
<trkpt lat="46.130147" lon="11.331103"><ele>1416.23</ele><time>2022-02-05T10:31:28Z</time></trkpt>
<trkpt lat="46.130068" lon="11.331282"><ele>1416.39</ele><time>2022-02-05T10:31:30Z</time></trkpt>
<trkpt lat="46.130012" lon="11.331354"><ele>1414.94</ele><time>2022-02-05T10:31:32Z</time></trkpt>
<trkpt lat="46.129682" lon="11.331612"><ele>1405.72</ele><time>2022-02-05T10:31:34Z</time></trkpt>
<trkpt lat="46.129583" lon="11.331737"><ele>1403.9</ele><time>2022-02-05T10:31:36Z</time></trkpt>
<trkpt lat="46.129232" lon="11.332402"><ele>1396.57</ele><time>2022-02-05T10:31:38Z</time></trkpt>
<trkpt lat="46.1292" lon="11.332536"><ele>1397.56</ele><time>2022-02-05T10:31:40Z</time></trkpt>
<trkpt lat="46.129126" lon="11.33326"><ele>1387.02</ele><time>2022-02-05T10:31:42Z</time></trkpt>
<trkpt lat="46.129132" lon="11.333463"><ele>1383.99</ele><time>2022-02-05T10:31:44Z</time></trkpt>
<trkpt lat="46.129184" lon="11.333633"><ele>1384.9</ele><time>2022-02-05T10:31:46Z</time></trkpt>
<trkpt lat="46.12941" lon="11.334119"><ele>1391.89</ele><time>2022-02-05T10:31:49Z</time></trkpt>
<trkpt lat="46.129816" lon="11.335534"><ele>1384.62</ele><time>2022-02-05T10:31:51Z</time></trkpt>
<trkpt lat="46.129843" lon="11.335725"><ele>1384.56</ele><time>2022-02-05T10:31:53Z</time></trkpt>
<trkpt lat="46.129853" lon="11.337124"><ele>1363.38</ele><time>2022-02-05T10:31:55Z</time></trkpt>
<trkpt lat="46.129834" lon="11.337921"><ele>1357.19</ele><time>2022-02-05T10:31:57Z</time></trkpt>
<trkpt lat="46.129909" lon="11.338781"><ele>1355.46</ele><time>2022-02-05T10:31:59Z</time></trkpt>
<trkpt lat="46.129916" lon="11.339026"><ele>1353.02</ele><time>2022-02-05T10:32:01Z</time></trkpt>
<trkpt lat="46.129879" lon="11.339772"><ele>1330.83</ele><time>2022-02-05T10:32:03Z</time></trkpt>
<trkpt lat="46.12989" lon="11.339925"><ele>1330.41</ele><time>2022-02-05T10:32:05Z</time></trkpt>
<trkpt lat="46.129949" lon="11.34013"><ele>1331.42</ele><time>2022-02-05T10:32:07Z</time></trkpt>
<trkpt lat="46.130003" lon="11.340233"><ele>1333.44</ele><time>2022-02-05T10:32:09Z</time></trkpt>
<trkpt lat="46.130059" lon="11.3403"><ele>1335.11</ele><time>2022-02-05T10:32:11Z</time></trkpt>
<trkpt lat="46.130523" lon="11.340549"><ele>1340.54</ele><time>2022-02-05T10:32:13Z</time></trkpt>
<trkpt lat="46.130579" lon="11.340611"><ele>1340.7</ele><time>2022-02-05T10:32:15Z</time></trkpt>
<trkpt lat="46.130617" lon="11.340712"><ele>1340.08</ele><time>2022-02-05T10:32:17Z</time></trkpt>
<trkpt lat="46.130608" lon="11.340852"><ele>1337.56</ele><time>2022-02-05T10:32:19Z</time></trkpt>
<trkpt lat="46.130558" lon="11.34095"><ele>1335.23</ele><time>2022-02-05T10:32:21Z</time></trkpt>
<trkpt lat="46.130243" lon="11.341193"><ele>1322.48</ele><time>2022-02-05T10:32:23Z</time></trkpt>
<trkpt lat="46.130363" lon="11.341579"><ele>1324.44</ele><time>2022-02-05T10:32:25Z</time></trkpt>
<trkpt lat="46.130497" lon="11.341897"><ele>1326.45</ele><time>2022-02-05T10:32:27Z</time></trkpt>
<trkpt lat="46.131085" lon="11.343156"><ele>1335.28</ele><time>2022-02-05T10:32:29Z</time></trkpt>
<trkpt lat="46.131111" lon="11.343369"><ele>1336.76</ele><time>2022-02-05T10:32:30Z</time></trkpt>
<trkpt lat="46.131095" lon="11.343477"><ele>1338.86</ele><time>2022-02-05T10:32:32Z</time></trkpt>
<trkpt lat="46.131054" lon="11.343582"><ele>1340.7</ele><time>2022-02-05T10:32:34Z</time></trkpt>
<trkpt lat="46.130963" lon="11.343707"><ele>1341.89</ele><time>2022-02-05T10:32:36Z</time></trkpt>
<trkpt lat="46.13087" lon="11.343794"><ele>1342.87</ele><time>2022-02-05T10:32:38Z</time></trkpt>
<trkpt lat="46.130709" lon="11.343721"><ele>1339.63</ele><time>2022-02-05T10:32:40Z</time></trkpt>
<trkpt lat="46.130261" lon="11.3434"><ele>1324.27</ele><time>2022-02-05T10:32:42Z</time></trkpt>
<trkpt lat="46.130113" lon="11.343348"><ele>1321.56</ele><time>2022-02-05T10:32:44Z</time></trkpt>
<trkpt lat="46.130063" lon="11.343355"><ele>1321.21</ele><time>2022-02-05T10:32:45Z</time></trkpt>
<trkpt lat="46.12997" lon="11.343452"><ele>1322.3</ele><time>2022-02-05T10:32:47Z</time></trkpt>
<trkpt lat="46.129933" lon="11.343543"><ele>1323.66</ele><time>2022-02-05T10:32:49Z</time></trkpt>
<trkpt lat="46.129476" lon="11.345749"><ele>1338.91</ele><time>2022-02-05T10:32:51Z</time></trkpt>
<trkpt lat="46.129325" lon="11.346907"><ele>1343.77</ele><time>2022-02-05T10:32:53Z</time></trkpt>
<trkpt lat="46.129294" lon="11.347432"><ele>1343.79</ele><time>2022-02-05T10:32:55Z</time></trkpt>
<trkpt lat="46.129321" lon="11.347706"><ele>1343.56</ele><time>2022-02-05T10:32:57Z</time></trkpt>
<trkpt lat="46.12954" lon="11.348691"><ele>1348.75</ele><time>2022-02-05T10:32:59Z</time></trkpt>
<trkpt lat="46.129577" lon="11.348971"><ele>1348.78</ele><time>2022-02-05T10:33:00Z</time></trkpt>
<trkpt lat="46.129748" lon="11.351256"><ele>1354.92</ele><time>2022-02-05T10:33:02Z</time></trkpt>
<trkpt lat="46.129763" lon="11.351702"><ele>1355.91</ele><time>2022-02-05T10:33:04Z</time></trkpt>
<trkpt lat="46.129723" lon="11.352098"><ele>1356.56</ele><time>2022-02-05T10:33:06Z</time></trkpt>
<trkpt lat="46.129717" lon="11.352858"><ele>1358.44</ele><time>2022-02-05T10:33:08Z</time></trkpt>
<trkpt lat="46.129679" lon="11.353225"><ele>1359.8</ele><time>2022-02-05T10:33:10Z</time></trkpt>
<trkpt lat="46.129616" lon="11.353421"><ele>1357.86</ele><time>2022-02-05T10:33:12Z</time></trkpt>
<trkpt lat="46.129512" lon="11.353582"><ele>1353.53</ele><time>2022-02-05T10:33:13Z</time></trkpt>
<trkpt lat="46.129481" lon="11.353665"><ele>1352.15</ele><time>2022-02-05T10:33:15Z</time></trkpt>
<trkpt lat="46.129472" lon="11.353765"><ele>1351.49</ele><time>2022-02-05T10:33:17Z</time></trkpt>
<trkpt lat="46.129476" lon="11.353829"><ele>1351.45</ele><time>2022-02-05T10:33:19Z</time></trkpt>
<trkpt lat="46.129641" lon="11.354286"><ele>1355.74</ele><time>2022-02-05T10:33:21Z</time></trkpt>
<trkpt lat="46.129683" lon="11.354549"><ele>1355.12</ele><time>2022-02-05T10:33:23Z</time></trkpt>
<trkpt lat="46.129737" lon="11.355348"><ele>1355.92</ele><time>2022-02-05T10:33:25Z</time></trkpt>
<trkpt lat="46.129743" lon="11.355733"><ele>1352.82</ele><time>2022-02-05T10:33:27Z</time></trkpt>
<trkpt lat="46.129712" lon="11.356109"><ele>1349.55</ele><time>2022-02-05T10:33:28Z</time></trkpt>
<trkpt lat="46.129737" lon="11.356794"><ele>1345.79</ele><time>2022-02-05T10:33:30Z</time></trkpt>
<trkpt lat="46.129717" lon="11.356875"><ele>1344.85</ele><time>2022-02-05T10:33:32Z</time></trkpt>
<trkpt lat="46.129681" lon="11.356925"><ele>1343.83</ele><time>2022-02-05T10:33:34Z</time></trkpt>
<trkpt lat="46.12963" lon="11.356953"><ele>1342.42</ele><time>2022-02-05T10:33:36Z</time></trkpt>
<trkpt lat="46.12955" lon="11.35693"><ele>1340.05</ele><time>2022-02-05T10:33:38Z</time></trkpt>
<trkpt lat="46.129511" lon="11.356881"><ele>1338.92</ele><time>2022-02-05T10:33:40Z</time></trkpt>
<trkpt lat="46.129488" lon="11.356813"><ele>1338.25</ele><time>2022-02-05T10:33:41Z</time></trkpt>
<trkpt lat="46.12941" lon="11.356012"><ele>1336.72</ele><time>2022-02-05T10:33:43Z</time></trkpt>
<trkpt lat="46.129355" lon="11.355773"><ele>1336.8</ele><time>2022-02-05T10:33:45Z</time></trkpt>
<trkpt lat="46.129064" lon="11.354706"><ele>1331.88</ele><time>2022-02-05T10:33:47Z</time></trkpt>
<trkpt lat="46.128935" lon="11.354429"><ele>1330.22</ele><time>2022-02-05T10:33:49Z</time></trkpt>
<trkpt lat="46.1288" lon="11.354255"><ele>1329.26</ele><time>2022-02-05T10:33:51Z</time></trkpt>
<trkpt lat="46.128664" lon="11.354113"><ele>1328.95</ele><time>2022-02-05T10:33:53Z</time></trkpt>
<trkpt lat="46.127841" lon="11.353625"><ele>1315.51</ele><time>2022-02-05T10:33:55Z</time></trkpt>
<trkpt lat="46.127674" lon="11.353474"><ele>1313.05</ele><time>2022-02-05T10:33:56Z</time></trkpt>
<trkpt lat="46.127409" lon="11.353098"><ele>1307.13</ele><time>2022-02-05T10:33:58Z</time></trkpt>
<trkpt lat="46.12728" lon="11.352792"><ele>1302.14</ele><time>2022-02-05T10:34:00Z</time></trkpt>
<trkpt lat="46.127177" lon="11.352285"><ele>1299.33</ele><time>2022-02-05T10:34:02Z</time></trkpt>
<trkpt lat="46.127165" lon="11.35188"><ele>1298.96</ele><time>2022-02-05T10:34:04Z</time></trkpt>
<trkpt lat="46.127179" lon="11.351704"><ele>1297.59</ele><time>2022-02-05T10:34:06Z</time></trkpt>
<trkpt lat="46.127311" lon="11.351022"><ele>1293.02</ele><time>2022-02-05T10:34:08Z</time></trkpt>
<trkpt lat="46.127317" lon="11.350809"><ele>1291.27</ele><time>2022-02-05T10:34:10Z</time></trkpt>
<trkpt lat="46.127245" lon="11.350427"><ele>1287.64</ele><time>2022-02-05T10:34:11Z</time></trkpt>
<trkpt lat="46.126244" lon="11.348162"><ele>1291.64</ele><time>2022-02-05T10:34:13Z</time></trkpt>
<trkpt lat="46.125646" lon="11.34692"><ele>1300.96</ele><time>2022-02-05T10:34:15Z</time></trkpt>
<trkpt lat="46.125357" lon="11.346267"><ele>1311.47</ele><time>2022-02-05T10:34:17Z</time></trkpt>
<trkpt lat="46.125293" lon="11.346031"><ele>1310.65</ele><time>2022-02-05T10:34:19Z</time></trkpt>
<trkpt lat="46.125191" lon="11.345101"><ele>1314.51</ele><time>2022-02-05T10:34:21Z</time></trkpt>
<trkpt lat="46.124947" lon="11.341453"><ele>1313.5</ele><time>2022-02-05T10:34:23Z</time></trkpt>
<trkpt lat="46.124882" lon="11.340708"><ele>1303.77</ele><time>2022-02-05T10:34:24Z</time></trkpt>
<trkpt lat="46.124831" lon="11.340453"><ele>1302.57</ele><time>2022-02-05T10:34:26Z</time></trkpt>
<trkpt lat="46.124719" lon="11.340153"><ele>1301.7</ele><time>2022-02-05T10:34:28Z</time></trkpt>
<trkpt lat="46.124626" lon="11.339963"><ele>1300.72</ele><time>2022-02-05T10:34:30Z</time></trkpt>
<trkpt lat="46.124493" lon="11.339772"><ele>1299.19</ele><time>2022-02-05T10:34:32Z</time></trkpt>
<trkpt lat="46.124308" lon="11.339574"><ele>1295.71</ele><time>2022-02-05T10:34:34Z</time></trkpt>
<trkpt lat="46.124124" lon="11.339453"><ele>1292.73</ele><time>2022-02-05T10:34:36Z</time></trkpt>
<trkpt lat="46.12375" lon="11.33932"><ele>1292.38</ele><time>2022-02-05T10:34:38Z</time></trkpt>
<trkpt lat="46.123555" lon="11.339331"><ele>1292.54</ele><time>2022-02-05T10:34:39Z</time></trkpt>
<trkpt lat="46.123204" lon="11.33942"><ele>1290.47</ele><time>2022-02-05T10:34:41Z</time></trkpt>
<trkpt lat="46.122757" lon="11.339582"><ele>1289.93</ele><time>2022-02-05T10:34:43Z</time></trkpt>
<trkpt lat="46.122554" lon="11.339623"><ele>1291.09</ele><time>2022-02-05T10:34:45Z</time></trkpt>
<trkpt lat="46.122403" lon="11.339604"><ele>1290.6</ele><time>2022-02-05T10:34:47Z</time></trkpt>
<trkpt lat="46.121465" lon="11.339069"><ele>1271.76</ele><time>2022-02-05T10:34:49Z</time></trkpt>
<trkpt lat="46.120781" lon="11.338847"><ele>1277.48</ele><time>2022-02-05T10:34:51Z</time></trkpt>
<trkpt lat="46.120562" lon="11.338621"><ele>1273.23</ele><time>2022-02-05T10:34:53Z</time></trkpt>
<trkpt lat="46.120272" lon="11.3382"><ele>1266.33</ele><time>2022-02-05T10:34:54Z</time></trkpt>
<trkpt lat="46.119521" lon="11.33699"><ele>1265.43</ele><time>2022-02-05T10:34:56Z</time></trkpt>
<trkpt lat="46.118605" lon="11.335981"><ele>1261.66</ele><time>2022-02-05T10:34:58Z</time></trkpt>
<trkpt lat="46.118104" lon="11.335298"><ele>1261.67</ele><time>2022-02-05T10:35:00Z</time></trkpt>
<trkpt lat="46.117891" lon="11.335045"><ele>1260.53</ele><time>2022-02-05T10:35:02Z</time></trkpt>
<trkpt lat="46.117378" lon="11.334514"><ele>1253.13</ele><time>2022-02-05T10:35:04Z</time></trkpt>
<trkpt lat="46.117266" lon="11.33435"><ele>1251.68</ele><time>2022-02-05T10:35:06Z</time></trkpt>
<trkpt lat="46.116982" lon="11.333858"><ele>1238.65</ele><time>2022-02-05T10:35:07Z</time></trkpt>
<trkpt lat="46.116799" lon="11.333602"><ele>1232.87</ele><time>2022-02-05T10:35:09Z</time></trkpt>
<trkpt lat="46.116629" lon="11.333486"><ele>1232.05</ele><time>2022-02-05T10:35:11Z</time></trkpt>
<trkpt lat="46.11645" lon="11.33344"><ele>1231.95</ele><time>2022-02-05T10:35:13Z</time></trkpt>
<trkpt lat="46.115791" lon="11.333385"><ele>1230.45</ele><time>2022-02-05T10:35:15Z</time></trkpt>
<trkpt lat="46.115612" lon="11.333273"><ele>1230.15</ele><time>2022-02-05T10:35:17Z</time></trkpt>
<trkpt lat="46.115545" lon="11.333194"><ele>1230.53</ele><time>2022-02-05T10:35:19Z</time></trkpt>
<trkpt lat="46.115437" lon="11.332985"><ele>1233.58</ele><time>2022-02-05T10:35:21Z</time></trkpt>
<trkpt lat="46.115384" lon="11.332702"><ele>1233.65</ele><time>2022-02-05T10:35:22Z</time></trkpt>
<trkpt lat="46.115379" lon="11.332527"><ele>1231.87</ele><time>2022-02-05T10:35:24Z</time></trkpt>
<trkpt lat="46.115488" lon="11.3318"><ele>1223.32</ele><time>2022-02-05T10:35:26Z</time></trkpt>
<trkpt lat="46.115489" lon="11.331522"><ele>1223.39</ele><time>2022-02-05T10:35:28Z</time></trkpt>
<trkpt lat="46.115448" lon="11.331276"><ele>1223.09</ele><time>2022-02-05T10:35:30Z</time></trkpt>
<trkpt lat="46.115392" lon="11.331051"><ele>1221.71</ele><time>2022-02-05T10:35:32Z</time></trkpt>
<trkpt lat="46.115313" lon="11.33086"><ele>1220.57</ele><time>2022-02-05T10:35:34Z</time></trkpt>
<trkpt lat="46.114934" lon="11.330283"><ele>1211.42</ele><time>2022-02-05T10:35:36Z</time></trkpt>
<trkpt lat="46.114689" lon="11.330007"><ele>1204.2</ele><time>2022-02-05T10:35:37Z</time></trkpt>
<trkpt lat="46.114353" lon="11.329726"><ele>1197.42</ele><time>2022-02-05T10:35:39Z</time></trkpt>
<trkpt lat="46.114178" lon="11.329626"><ele>1194.33</ele><time>2022-02-05T10:35:41Z</time></trkpt>
<trkpt lat="46.113875" lon="11.329508"><ele>1195.46</ele><time>2022-02-05T10:35:43Z</time></trkpt>
<trkpt lat="46.113785" lon="11.329451"><ele>1196.38</ele><time>2022-02-05T10:35:45Z</time></trkpt>
<trkpt lat="46.113714" lon="11.329351"><ele>1196.43</ele><time>2022-02-05T10:35:47Z</time></trkpt>
<trkpt lat="46.113665" lon="11.329239"><ele>1195.88</ele><time>2022-02-05T10:35:49Z</time></trkpt>
<trkpt lat="46.113265" lon="11.328213"><ele>1195.14</ele><time>2022-02-05T10:35:50Z</time></trkpt>
<trkpt lat="46.113238" lon="11.328053"><ele>1195.79</ele><time>2022-02-05T10:35:52Z</time></trkpt>
<trkpt lat="46.113234" lon="11.327889"><ele>1196.61</ele><time>2022-02-05T10:35:54Z</time></trkpt>
<trkpt lat="46.113275" lon="11.327714"><ele>1195.01</ele><time>2022-02-05T10:35:56Z</time></trkpt>
<trkpt lat="46.113415" lon="11.3273"><ele>1190.23</ele><time>2022-02-05T10:35:58Z</time></trkpt>
<trkpt lat="46.113523" lon="11.326891"><ele>1189.43</ele><time>2022-02-05T10:36:00Z</time></trkpt>
<trkpt lat="46.113558" lon="11.326489"><ele>1191.12</ele><time>2022-02-05T10:36:02Z</time></trkpt>
<trkpt lat="46.113571" lon="11.326089"><ele>1190.79</ele><time>2022-02-05T10:36:04Z</time></trkpt>
<trkpt lat="46.113543" lon="11.325356"><ele>1190.37</ele><time>2022-02-05T10:36:05Z</time></trkpt>
<trkpt lat="46.113423" lon="11.323904"><ele>1174.67</ele><time>2022-02-05T10:36:07Z</time></trkpt>
<trkpt lat="46.113388" lon="11.323704"><ele>1172.24</ele><time>2022-02-05T10:36:09Z</time></trkpt>
<trkpt lat="46.113213" lon="11.323194"><ele>1163.87</ele><time>2022-02-05T10:36:11Z</time></trkpt>
<trkpt lat="46.113119" lon="11.322866"><ele>1158.09</ele><time>2022-02-05T10:36:13Z</time></trkpt>
<trkpt lat="46.113015" lon="11.322102"><ele>1156.31</ele><time>2022-02-05T10:36:15Z</time></trkpt>
<trkpt lat="46.112947" lon="11.321715"><ele>1154.15</ele><time>2022-02-05T10:36:17Z</time></trkpt>
<trkpt lat="46.112884" lon="11.32148"><ele>1153.12</ele><time>2022-02-05T10:36:18Z</time></trkpt>
<trkpt lat="46.11287" lon="11.321242"><ele>1150.76</ele><time>2022-02-05T10:36:20Z</time></trkpt>
<trkpt lat="46.112953" lon="11.320795"><ele>1146.44</ele><time>2022-02-05T10:36:22Z</time></trkpt>
<trkpt lat="46.112946" lon="11.320506"><ele>1143.22</ele><time>2022-02-05T10:36:24Z</time></trkpt>
<trkpt lat="46.112899" lon="11.320163"><ele>1137.78</ele><time>2022-02-05T10:36:26Z</time></trkpt>
<trkpt lat="46.11278" lon="11.319793"><ele>1131.77</ele><time>2022-02-05T10:36:28Z</time></trkpt>
<trkpt lat="46.112659" lon="11.319488"><ele>1131.22</ele><time>2022-02-05T10:36:30Z</time></trkpt>
<trkpt lat="46.112518" lon="11.319263"><ele>1130.87</ele><time>2022-02-05T10:36:32Z</time></trkpt>
<trkpt lat="46.112368" lon="11.319087"><ele>1130.22</ele><time>2022-02-05T10:36:33Z</time></trkpt>
<trkpt lat="46.111887" lon="11.318779"><ele>1126.98</ele><time>2022-02-05T10:36:35Z</time></trkpt>
<trkpt lat="46.111031" lon="11.318501"><ele>1122.83</ele><time>2022-02-05T10:36:37Z</time></trkpt>
<trkpt lat="46.110965" lon="11.318501"><ele>1122.36</ele><time>2022-02-05T10:36:39Z</time></trkpt>
<trkpt lat="46.110894" lon="11.318534"><ele>1122.32</ele><time>2022-02-05T10:36:41Z</time></trkpt>
<trkpt lat="46.110213" lon="11.319037"><ele>1112.73</ele><time>2022-02-05T10:36:43Z</time></trkpt>
<trkpt lat="46.109579" lon="11.319566"><ele>1110.39</ele><time>2022-02-05T10:36:45Z</time></trkpt>
<trkpt lat="46.109257" lon="11.319738"><ele>1109.93</ele><time>2022-02-05T10:36:47Z</time></trkpt>
<trkpt lat="46.109091" lon="11.319704"><ele>1108.87</ele><time>2022-02-05T10:36:48Z</time></trkpt>
<trkpt lat="46.108912" lon="11.319523"><ele>1103.71</ele><time>2022-02-05T10:36:50Z</time></trkpt>
<trkpt lat="46.108716" lon="11.319255"><ele>1097.54</ele><time>2022-02-05T10:36:52Z</time></trkpt>
<trkpt lat="46.108555" lon="11.319169"><ele>1095.65</ele><time>2022-02-05T10:36:54Z</time></trkpt>
<trkpt lat="46.108376" lon="11.319109"><ele>1093.07</ele><time>2022-02-05T10:36:56Z</time></trkpt>
<trkpt lat="46.10818" lon="11.319315"><ele>1092.32</ele><time>2022-02-05T10:36:58Z</time></trkpt>
<trkpt lat="46.10806" lon="11.319534"><ele>1094.98</ele><time>2022-02-05T10:37:00Z</time></trkpt>
<trkpt lat="46.107938" lon="11.319855"><ele>1103.32</ele><time>2022-02-05T10:37:01Z</time></trkpt>
<trkpt lat="46.107503" lon="11.320247"><ele>1101.89</ele><time>2022-02-05T10:37:03Z</time></trkpt>
<trkpt lat="46.107294" lon="11.320639"><ele>1103.19</ele><time>2022-02-05T10:37:05Z</time></trkpt>
<trkpt lat="46.107153" lon="11.320792"><ele>1103.41</ele><time>2022-02-05T10:37:07Z</time></trkpt>
<trkpt lat="46.107053" lon="11.320852"><ele>1102.9</ele><time>2022-02-05T10:37:09Z</time></trkpt>
<trkpt lat="46.106859" lon="11.320665"><ele>1094.23</ele><time>2022-02-05T10:37:11Z</time></trkpt>
<trkpt lat="46.106694" lon="11.320571"><ele>1089.75</ele><time>2022-02-05T10:37:13Z</time></trkpt>
<trkpt lat="46.105889" lon="11.320596"><ele>1092.05</ele><time>2022-02-05T10:37:15Z</time></trkpt>
<trkpt lat="46.105758" lon="11.320339"><ele>1100.49</ele><time>2022-02-05T10:37:16Z</time></trkpt>
<trkpt lat="46.105758" lon="11.320081"><ele>1104.58</ele><time>2022-02-05T10:37:18Z</time></trkpt>
<trkpt lat="46.105848" lon="11.319824"><ele>1095.25</ele><time>2022-02-05T10:37:20Z</time></trkpt>
<trkpt lat="46.105907" lon="11.319523"><ele>1087.67</ele><time>2022-02-05T10:37:22Z</time></trkpt>
<trkpt lat="46.105928" lon="11.318964"><ele>1084.31</ele><time>2022-02-05T10:37:24Z</time></trkpt>
<trkpt lat="46.105967" lon="11.318639"><ele>1086.92</ele><time>2022-02-05T10:37:26Z</time></trkpt>
<trkpt lat="46.106044" lon="11.318382"><ele>1084.3</ele><time>2022-02-05T10:37:28Z</time></trkpt>
<trkpt lat="46.106026" lon="11.318107"><ele>1087.51</ele><time>2022-02-05T10:37:30Z</time></trkpt>
<trkpt lat="46.105984" lon="11.317953"><ele>1090.7</ele><time>2022-02-05T10:37:31Z</time></trkpt>
<trkpt lat="46.105907" lon="11.317758"><ele>1095.34</ele><time>2022-02-05T10:37:33Z</time></trkpt>
<trkpt lat="46.106068" lon="11.317232"><ele>1086.5</ele><time>2022-02-05T10:37:35Z</time></trkpt>
<trkpt lat="46.106196" lon="11.317072"><ele>1079.1</ele><time>2022-02-05T10:37:37Z</time></trkpt>
<trkpt lat="46.106264" lon="11.316739"><ele>1073.61</ele><time>2022-02-05T10:37:39Z</time></trkpt>
<trkpt lat="46.106201" lon="11.316395"><ele>1075.79</ele><time>2022-02-05T10:37:41Z</time></trkpt>
<trkpt lat="46.106044" lon="11.316085"><ele>1076.23</ele><time>2022-02-05T10:37:43Z</time></trkpt>
<trkpt lat="46.106014" lon="11.31556"><ele>1066.56</ele><time>2022-02-05T10:37:44Z</time></trkpt>
<trkpt lat="46.105949" lon="11.315361"><ele>1065.51</ele><time>2022-02-05T10:37:46Z</time></trkpt>
<trkpt lat="46.105818" lon="11.315172"><ele>1067.17</ele><time>2022-02-05T10:37:48Z</time></trkpt>
<trkpt lat="46.105737" lon="11.315007"><ele>1069.59</ele><time>2022-02-05T10:37:50Z</time></trkpt>
<trkpt lat="46.105646" lon="11.314598"><ele>1064.51</ele><time>2022-02-05T10:37:52Z</time></trkpt>
<trkpt lat="46.105566" lon="11.314493"><ele>1066.41</ele><time>2022-02-05T10:37:54Z</time></trkpt>
<trkpt lat="46.105343" lon="11.314399"><ele>1076.71</ele><time>2022-02-05T10:37:56Z</time></trkpt>
<trkpt lat="46.105284" lon="11.314215"><ele>1077.3</ele><time>2022-02-05T10:37:58Z</time></trkpt>
<trkpt lat="46.105261" lon="11.313712"><ele>1062.99</ele><time>2022-02-05T10:37:59Z</time></trkpt>
<trkpt lat="46.105207" lon="11.313564"><ele>1061.16</ele><time>2022-02-05T10:38:01Z</time></trkpt>
<trkpt lat="46.104776" lon="11.312871"><ele>1066.86</ele><time>2022-02-05T10:38:03Z</time></trkpt>
<trkpt lat="46.104568" lon="11.312485"><ele>1063.45</ele><time>2022-02-05T10:38:05Z</time></trkpt>
<trkpt lat="46.104371" lon="11.312172"><ele>1059.12</ele><time>2022-02-05T10:38:07Z</time></trkpt>
<trkpt lat="46.104147" lon="11.311912"><ele>1055.71</ele><time>2022-02-05T10:38:09Z</time></trkpt>
<trkpt lat="46.103777" lon="11.311539"><ele>1056.39</ele><time>2022-02-05T10:38:11Z</time></trkpt>
<trkpt lat="46.103614" lon="11.31144"><ele>1058.75</ele><time>2022-02-05T10:38:13Z</time></trkpt>
<trkpt lat="46.103245" lon="11.311296"><ele>1057.55</ele><time>2022-02-05T10:38:14Z</time></trkpt>
<trkpt lat="46.102369" lon="11.310897"><ele>1035.69</ele><time>2022-02-05T10:38:16Z</time></trkpt>
<trkpt lat="46.10094" lon="11.310507"><ele>1038.23</ele><time>2022-02-05T10:38:18Z</time></trkpt>
<trkpt lat="46.099881" lon="11.310685"><ele>1022.15</ele><time>2022-02-05T10:38:20Z</time></trkpt>
<trkpt lat="46.099745" lon="11.310844"><ele>1022.49</ele><time>2022-02-05T10:38:22Z</time></trkpt>
<trkpt lat="46.0997" lon="11.311301"><ele>1028.88</ele><time>2022-02-05T10:38:24Z</time></trkpt>
<trkpt lat="46.09964" lon="11.311412"><ele>1029.6</ele><time>2022-02-05T10:38:26Z</time></trkpt>
<trkpt lat="46.099597" lon="11.311453"><ele>1029.77</ele><time>2022-02-05T10:38:27Z</time></trkpt>
<trkpt lat="46.099516" lon="11.311457"><ele>1028.06</ele><time>2022-02-05T10:38:29Z</time></trkpt>
<trkpt lat="46.099438" lon="11.311423"><ele>1025.18</ele><time>2022-02-05T10:38:31Z</time></trkpt>
<trkpt lat="46.099356" lon="11.3113"><ele>1022.29</ele><time>2022-02-05T10:38:33Z</time></trkpt>
<trkpt lat="46.099248" lon="11.311057"><ele>1017.53</ele><time>2022-02-05T10:38:35Z</time></trkpt>
<trkpt lat="46.099164" lon="11.31094"><ele>1014.29</ele><time>2022-02-05T10:38:37Z</time></trkpt>
<trkpt lat="46.099033" lon="11.310897"><ele>1012.53</ele><time>2022-02-05T10:38:39Z</time></trkpt>
<trkpt lat="46.098917" lon="11.310926"><ele>1012.52</ele><time>2022-02-05T10:38:41Z</time></trkpt>
<trkpt lat="46.098807" lon="11.311026"><ele>1013.18</ele><time>2022-02-05T10:38:42Z</time></trkpt>
<trkpt lat="46.098706" lon="11.311181"><ele>1014.47</ele><time>2022-02-05T10:38:44Z</time></trkpt>
<trkpt lat="46.098441" lon="11.311195"><ele>1015.01</ele><time>2022-02-05T10:38:46Z</time></trkpt>
<trkpt lat="46.098322" lon="11.311034"><ele>1011.93</ele><time>2022-02-05T10:38:48Z</time></trkpt>
<trkpt lat="46.098188" lon="11.310751"><ele>1005.86</ele><time>2022-02-05T10:38:50Z</time></trkpt>
<trkpt lat="46.098093" lon="11.3107"><ele>1005.33</ele><time>2022-02-05T10:38:52Z</time></trkpt>
<trkpt lat="46.097471" lon="11.310792"><ele>1001.79</ele><time>2022-02-05T10:38:54Z</time></trkpt>
<trkpt lat="46.097218" lon="11.310873"><ele>998.1</ele><time>2022-02-05T10:38:55Z</time></trkpt>
<trkpt lat="46.097031" lon="11.311154"><ele>998.61</ele><time>2022-02-05T10:38:57Z</time></trkpt>
<trkpt lat="46.096883" lon="11.311484"><ele>997.41</ele><time>2022-02-05T10:38:59Z</time></trkpt>
<trkpt lat="46.096676" lon="11.311722"><ele>991.44</ele><time>2022-02-05T10:39:01Z</time></trkpt>
<trkpt lat="46.096385" lon="11.311816"><ele>984.68</ele><time>2022-02-05T10:39:03Z</time></trkpt>
<trkpt lat="46.096188" lon="11.311953"><ele>982.02</ele><time>2022-02-05T10:39:05Z</time></trkpt>
<trkpt lat="46.096046" lon="11.312171"><ele>984.07</ele><time>2022-02-05T10:39:07Z</time></trkpt>
<trkpt lat="46.095629" lon="11.312646"><ele>988.84</ele><time>2022-02-05T10:39:09Z</time></trkpt>
<trkpt lat="46.095526" lon="11.312723"><ele>989.69</ele><time>2022-02-05T10:39:10Z</time></trkpt>
<trkpt lat="46.095425" lon="11.312786"><ele>992.95</ele><time>2022-02-05T10:39:12Z</time></trkpt>
<trkpt lat="46.095291" lon="11.312742"><ele>995.32</ele><time>2022-02-05T10:39:14Z</time></trkpt>
<trkpt lat="46.095196" lon="11.312499"><ele>999.79</ele><time>2022-02-05T10:39:16Z</time></trkpt>
<trkpt lat="46.095169" lon="11.312212"><ele>1000.22</ele><time>2022-02-05T10:39:18Z</time></trkpt>
<trkpt lat="46.095152" lon="11.311174"><ele>1002.54</ele><time>2022-02-05T10:39:20Z</time></trkpt>
<trkpt lat="46.095279" lon="11.310823"><ele>990.96</ele><time>2022-02-05T10:39:22Z</time></trkpt>
<trkpt lat="46.095402" lon="11.310422"><ele>985.27</ele><time>2022-02-05T10:39:24Z</time></trkpt>
<trkpt lat="46.09541" lon="11.310279"><ele>984.87</ele><time>2022-02-05T10:39:25Z</time></trkpt>
<trkpt lat="46.095387" lon="11.309719"><ele>985.47</ele><time>2022-02-05T10:39:27Z</time></trkpt>
<trkpt lat="46.095396" lon="11.308365"><ele>975.96</ele><time>2022-02-05T10:39:29Z</time></trkpt>
<trkpt lat="46.095422" lon="11.308152"><ele>974.14</ele><time>2022-02-05T10:39:31Z</time></trkpt>
<trkpt lat="46.095632" lon="11.307437"><ele>967.52</ele><time>2022-02-05T10:39:33Z</time></trkpt>
<trkpt lat="46.095904" lon="11.306349"><ele>960.32</ele><time>2022-02-05T10:39:35Z</time></trkpt>
<trkpt lat="46.095954" lon="11.306236"><ele>958.12</ele><time>2022-02-05T10:39:37Z</time></trkpt>
<trkpt lat="46.096" lon="11.305917"><ele>953.61</ele><time>2022-02-05T10:39:38Z</time></trkpt>
<trkpt lat="46.096001" lon="11.305654"><ele>948.97</ele><time>2022-02-05T10:39:40Z</time></trkpt>
<trkpt lat="46.095938" lon="11.305404"><ele>943.84</ele><time>2022-02-05T10:39:42Z</time></trkpt>
<trkpt lat="46.095831" lon="11.305274"><ele>941.77</ele><time>2022-02-05T10:39:44Z</time></trkpt>
<trkpt lat="46.095683" lon="11.305215"><ele>936.68</ele><time>2022-02-05T10:39:46Z</time></trkpt>
<trkpt lat="46.095529" lon="11.305248"><ele>936.62</ele><time>2022-02-05T10:39:48Z</time></trkpt>
<trkpt lat="46.095372" lon="11.305248"><ele>937.15</ele><time>2022-02-05T10:39:50Z</time></trkpt>
<trkpt lat="46.095022" lon="11.305063"><ele>929.82</ele><time>2022-02-05T10:39:52Z</time></trkpt>
<trkpt lat="46.094661" lon="11.304966"><ele>932.55</ele><time>2022-02-05T10:39:53Z</time></trkpt>
<trkpt lat="46.094389" lon="11.304964"><ele>939.63</ele><time>2022-02-05T10:39:55Z</time></trkpt>
<trkpt lat="46.094285" lon="11.304917"><ele>941.55</ele><time>2022-02-05T10:39:57Z</time></trkpt>
<trkpt lat="46.094218" lon="11.30482"><ele>941.38</ele><time>2022-02-05T10:39:59Z</time></trkpt>
<trkpt lat="46.09416" lon="11.304666"><ele>940.1</ele><time>2022-02-05T10:40:01Z</time></trkpt>
<trkpt lat="46.094023" lon="11.303558"><ele>921.84</ele><time>2022-02-05T10:40:03Z</time></trkpt>
<trkpt lat="46.094066" lon="11.303175"><ele>911.71</ele><time>2022-02-05T10:40:05Z</time></trkpt>
<trkpt lat="46.094048" lon="11.303011"><ele>908.06</ele><time>2022-02-05T10:40:07Z</time></trkpt>
<trkpt lat="46.093978" lon="11.302922"><ele>906.53</ele><time>2022-02-05T10:40:08Z</time></trkpt>
<trkpt lat="46.093734" lon="11.302929"><ele>907.36</ele><time>2022-02-05T10:40:10Z</time></trkpt>
<trkpt lat="46.093505" lon="11.303014"><ele>909.72</ele><time>2022-02-05T10:40:12Z</time></trkpt>
<trkpt lat="46.093351" lon="11.303005"><ele>908.46</ele><time>2022-02-05T10:40:14Z</time></trkpt>
<trkpt lat="46.09324" lon="11.302936"><ele>906.28</ele><time>2022-02-05T10:40:16Z</time></trkpt>
<trkpt lat="46.09289" lon="11.302967"><ele>908.07</ele><time>2022-02-05T10:40:18Z</time></trkpt>
<trkpt lat="46.092784" lon="11.30295"><ele>907.82</ele><time>2022-02-05T10:40:20Z</time></trkpt>
<trkpt lat="46.092673" lon="11.302889"><ele>906.84</ele><time>2022-02-05T10:40:21Z</time></trkpt>
<trkpt lat="46.092231" lon="11.302488"><ele>904.47</ele><time>2022-02-05T10:40:23Z</time></trkpt>
<trkpt lat="46.092146" lon="11.302338"><ele>903.94</ele><time>2022-02-05T10:40:25Z</time></trkpt>
<trkpt lat="46.092061" lon="11.301968"><ele>896.93</ele><time>2022-02-05T10:40:27Z</time></trkpt>
<trkpt lat="46.091997" lon="11.301804"><ele>893.61</ele><time>2022-02-05T10:40:29Z</time></trkpt>
<trkpt lat="46.091887" lon="11.301639"><ele>892.13</ele><time>2022-02-05T10:40:31Z</time></trkpt>
<trkpt lat="46.091765" lon="11.301521"><ele>893.19</ele><time>2022-02-05T10:40:33Z</time></trkpt>
<trkpt lat="46.091515" lon="11.301334"><ele>898.03</ele><time>2022-02-05T10:40:35Z</time></trkpt>
<trkpt lat="46.09131" lon="11.301059"><ele>901.44</ele><time>2022-02-05T10:40:36Z</time></trkpt>
<trkpt lat="46.091169" lon="11.30094"><ele>904.9</ele><time>2022-02-05T10:40:38Z</time></trkpt>
<trkpt lat="46.091077" lon="11.30071"><ele>904.3</ele><time>2022-02-05T10:40:40Z</time></trkpt>
<trkpt lat="46.091082" lon="11.300502"><ele>900.84</ele><time>2022-02-05T10:40:42Z</time></trkpt>
<trkpt lat="46.091124" lon="11.300296"><ele>897.55</ele><time>2022-02-05T10:40:44Z</time></trkpt>
<trkpt lat="46.091337" lon="11.299722"><ele>885.4</ele><time>2022-02-05T10:40:46Z</time></trkpt>
<trkpt lat="46.091489" lon="11.299417"><ele>876.18</ele><time>2022-02-05T10:40:48Z</time></trkpt>
<trkpt lat="46.091531" lon="11.299277"><ele>873.69</ele><time>2022-02-05T10:40:49Z</time></trkpt>
<trkpt lat="46.091536" lon="11.299127"><ele>872.04</ele><time>2022-02-05T10:40:51Z</time></trkpt>
<trkpt lat="46.091465" lon="11.298951"><ele>870.93</ele><time>2022-02-05T10:40:53Z</time></trkpt>
<trkpt lat="46.091369" lon="11.298828"><ele>870.1</ele><time>2022-02-05T10:40:55Z</time></trkpt>
<trkpt lat="46.091016" lon="11.298663"><ele>867.54</ele><time>2022-02-05T10:40:57Z</time></trkpt>
<trkpt lat="46.090879" lon="11.298541"><ele>864.8</ele><time>2022-02-05T10:40:59Z</time></trkpt>
<trkpt lat="46.090619" lon="11.298238"><ele>857.16</ele><time>2022-02-05T10:41:01Z</time></trkpt>
<trkpt lat="46.090391" lon="11.298052"><ele>856.3</ele><time>2022-02-05T10:41:03Z</time></trkpt>
<trkpt lat="46.090151" lon="11.297895"><ele>855.56</ele><time>2022-02-05T10:41:04Z</time></trkpt>
<trkpt lat="46.08967" lon="11.297664"><ele>854.0</ele><time>2022-02-05T10:41:06Z</time></trkpt>
<trkpt lat="46.089537" lon="11.297526"><ele>852.37</ele><time>2022-02-05T10:41:08Z</time></trkpt>
<trkpt lat="46.08948" lon="11.297401"><ele>850.44</ele><time>2022-02-05T10:41:10Z</time></trkpt>
<trkpt lat="46.089431" lon="11.297106"><ele>845.6</ele><time>2022-02-05T10:41:12Z</time></trkpt>
<trkpt lat="46.089372" lon="11.296862"><ele>843.04</ele><time>2022-02-05T10:41:14Z</time></trkpt>
<trkpt lat="46.089202" lon="11.29658"><ele>840.74</ele><time>2022-02-05T10:41:16Z</time></trkpt>
<trkpt lat="46.08905" lon="11.296396"><ele>836.73</ele><time>2022-02-05T10:41:18Z</time></trkpt>
<trkpt lat="46.088919" lon="11.296342"><ele>835.1</ele><time>2022-02-05T10:41:19Z</time></trkpt>
<trkpt lat="46.088852" lon="11.296361"><ele>835.02</ele><time>2022-02-05T10:41:21Z</time></trkpt>
<trkpt lat="46.088768" lon="11.296457"><ele>836.17</ele><time>2022-02-05T10:41:23Z</time></trkpt>
<trkpt lat="46.088444" lon="11.297023"><ele>847.53</ele><time>2022-02-05T10:41:25Z</time></trkpt>
<trkpt lat="46.088345" lon="11.297066"><ele>848.62</ele><time>2022-02-05T10:41:27Z</time></trkpt>
<trkpt lat="46.088197" lon="11.296987"><ele>850.7</ele><time>2022-02-05T10:41:29Z</time></trkpt>
<trkpt lat="46.088146" lon="11.296832"><ele>849.39</ele><time>2022-02-05T10:41:31Z</time></trkpt>
<trkpt lat="46.088022" lon="11.296247"><ele>840.79</ele><time>2022-02-05T10:41:32Z</time></trkpt>
<trkpt lat="46.087994" lon="11.296042"><ele>836.11</ele><time>2022-02-05T10:41:34Z</time></trkpt>
<trkpt lat="46.087884" lon="11.295588"><ele>826.6</ele><time>2022-02-05T10:41:36Z</time></trkpt>
<trkpt lat="46.087755" lon="11.295493"><ele>825.67</ele><time>2022-02-05T10:41:38Z</time></trkpt>
<trkpt lat="46.087654" lon="11.295487"><ele>825.62</ele><time>2022-02-05T10:41:40Z</time></trkpt>
<trkpt lat="46.08741" lon="11.295527"><ele>827.52</ele><time>2022-02-05T10:41:42Z</time></trkpt>
<trkpt lat="46.087319" lon="11.29549"><ele>828.08</ele><time>2022-02-05T10:41:44Z</time></trkpt>
<trkpt lat="46.087229" lon="11.295407"><ele>828.29</ele><time>2022-02-05T10:41:46Z</time></trkpt>
<trkpt lat="46.087169" lon="11.295193"><ele>829.08</ele><time>2022-02-05T10:41:47Z</time></trkpt>
<trkpt lat="46.087173" lon="11.294196"><ele>817.61</ele><time>2022-02-05T10:41:49Z</time></trkpt>
<trkpt lat="46.087129" lon="11.294128"><ele>817.57</ele><time>2022-02-05T10:41:51Z</time></trkpt>
<trkpt lat="46.086721" lon="11.293744"><ele>814.9</ele><time>2022-02-05T10:41:53Z</time></trkpt>
<trkpt lat="46.086444" lon="11.293872"><ele>820.89</ele><time>2022-02-05T10:41:55Z</time></trkpt>
<trkpt lat="46.086338" lon="11.293871"><ele>824.59</ele><time>2022-02-05T10:41:57Z</time></trkpt>
<trkpt lat="46.086232" lon="11.293727"><ele>826.8</ele><time>2022-02-05T10:41:59Z</time></trkpt>
<trkpt lat="46.086236" lon="11.293573"><ele>822.75</ele><time>2022-02-05T10:42:01Z</time></trkpt>
<trkpt lat="46.086325" lon="11.293255"><ele>813.75</ele><time>2022-02-05T10:42:02Z</time></trkpt>
<trkpt lat="46.086217" lon="11.292989"><ele>811.0</ele><time>2022-02-05T10:42:04Z</time></trkpt>
<trkpt lat="46.085917" lon="11.292429"><ele>807.96</ele><time>2022-02-05T10:42:06Z</time></trkpt>
<trkpt lat="46.085086" lon="11.291651"><ele>797.42</ele><time>2022-02-05T10:42:08Z</time></trkpt>
<trkpt lat="46.08453" lon="11.290896"><ele>790.21</ele><time>2022-02-05T10:42:10Z</time></trkpt>
<trkpt lat="46.084144" lon="11.290509"><ele>788.16</ele><time>2022-02-05T10:42:12Z</time></trkpt>
<trkpt lat="46.083552" lon="11.289856"><ele>782.78</ele><time>2022-02-05T10:42:14Z</time></trkpt>
<trkpt lat="46.083041" lon="11.289536"><ele>783.89</ele><time>2022-02-05T10:42:15Z</time></trkpt>
<trkpt lat="46.082808" lon="11.289288"><ele>780.77</ele><time>2022-02-05T10:42:17Z</time></trkpt>
<trkpt lat="46.08264" lon="11.28883"><ele>768.85</ele><time>2022-02-05T10:42:19Z</time></trkpt>
<trkpt lat="46.082567" lon="11.288773"><ele>768.09</ele><time>2022-02-05T10:42:21Z</time></trkpt>
<trkpt lat="46.082476" lon="11.288764"><ele>768.8</ele><time>2022-02-05T10:42:23Z</time></trkpt>
<trkpt lat="46.08225" lon="11.288885"><ele>771.97</ele><time>2022-02-05T10:42:25Z</time></trkpt>
<trkpt lat="46.081927" lon="11.28874"><ele>767.88</ele><time>2022-02-05T10:42:27Z</time></trkpt>
<trkpt lat="46.081753" lon="11.288511"><ele>760.91</ele><time>2022-02-05T10:42:29Z</time></trkpt>
<trkpt lat="46.081718" lon="11.288243"><ele>750.61</ele><time>2022-02-05T10:42:30Z</time></trkpt>
<trkpt lat="46.081571" lon="11.287983"><ele>750.53</ele><time>2022-02-05T10:42:32Z</time></trkpt>
<trkpt lat="46.08121" lon="11.287656"><ele>752.18</ele><time>2022-02-05T10:42:34Z</time></trkpt>
<trkpt lat="46.080992" lon="11.287514"><ele>751.53</ele><time>2022-02-05T10:42:36Z</time></trkpt>
<trkpt lat="46.080868" lon="11.2874"><ele>749.97</ele><time>2022-02-05T10:42:38Z</time></trkpt>
<trkpt lat="46.080172" lon="11.286867"><ele>739.82</ele><time>2022-02-05T10:42:40Z</time></trkpt>
<trkpt lat="46.079877" lon="11.286523"><ele>728.13</ele><time>2022-02-05T10:42:42Z</time></trkpt>
<trkpt lat="46.079766" lon="11.286427"><ele>724.5</ele><time>2022-02-05T10:42:44Z</time></trkpt>
<trkpt lat="46.079615" lon="11.286406"><ele>724.03</ele><time>2022-02-05T10:42:45Z</time></trkpt>
<trkpt lat="46.079367" lon="11.286697"><ele>737.06</ele><time>2022-02-05T10:42:47Z</time></trkpt>
<trkpt lat="46.079265" lon="11.286735"><ele>739.81</ele><time>2022-02-05T10:42:49Z</time></trkpt>
<trkpt lat="46.079158" lon="11.286703"><ele>739.88</ele><time>2022-02-05T10:42:51Z</time></trkpt>
<trkpt lat="46.079056" lon="11.286528"><ele>736.78</ele><time>2022-02-05T10:42:53Z</time></trkpt>
<trkpt lat="46.079038" lon="11.286338"><ele>731.44</ele><time>2022-02-05T10:42:55Z</time></trkpt>
<trkpt lat="46.079129" lon="11.285895"><ele>721.29</ele><time>2022-02-05T10:42:57Z</time></trkpt>
<trkpt lat="46.079118" lon="11.285714"><ele>719.11</ele><time>2022-02-05T10:42:58Z</time></trkpt>
<trkpt lat="46.079028" lon="11.285596"><ele>717.73</ele><time>2022-02-05T10:43:00Z</time></trkpt>
<trkpt lat="46.078946" lon="11.285537"><ele>716.52</ele><time>2022-02-05T10:43:02Z</time></trkpt>
<trkpt lat="46.078857" lon="11.285538"><ele>716.14</ele><time>2022-02-05T10:43:04Z</time></trkpt>
<trkpt lat="46.078778" lon="11.285571"><ele>716.26</ele><time>2022-02-05T10:43:06Z</time></trkpt>
<trkpt lat="46.078516" lon="11.2858"><ele>723.49</ele><time>2022-02-05T10:43:08Z</time></trkpt>
<trkpt lat="46.078388" lon="11.28586"><ele>726.53</ele><time>2022-02-05T10:43:10Z</time></trkpt>
<trkpt lat="46.078255" lon="11.285798"><ele>727.99</ele><time>2022-02-05T10:43:12Z</time></trkpt>
<trkpt lat="46.077891" lon="11.284954"><ele>707.24</ele><time>2022-02-05T10:43:13Z</time></trkpt>
<trkpt lat="46.077891" lon="11.284765"><ele>701.96</ele><time>2022-02-05T10:43:15Z</time></trkpt>
<trkpt lat="46.077987" lon="11.284696"><ele>699.16</ele><time>2022-02-05T10:43:17Z</time></trkpt>
<trkpt lat="46.078088" lon="11.284782"><ele>699.8</ele><time>2022-02-05T10:43:19Z</time></trkpt>
<trkpt lat="46.078129" lon="11.285022"><ele>704.18</ele><time>2022-02-05T10:43:21Z</time></trkpt>
<trkpt lat="46.078295" lon="11.285309"><ele>707.21</ele><time>2022-02-05T10:43:23Z</time></trkpt>
<trkpt lat="46.07846" lon="11.285343"><ele>708.05</ele><time>2022-02-05T10:43:25Z</time></trkpt>
<trkpt lat="46.078624" lon="11.285169"><ele>704.34</ele><time>2022-02-05T10:43:26Z</time></trkpt>
<trkpt lat="46.078779" lon="11.28485"><ele>697.53</ele><time>2022-02-05T10:43:28Z</time></trkpt>
<trkpt lat="46.078854" lon="11.284753"><ele>694.98</ele><time>2022-02-05T10:43:30Z</time></trkpt>
<trkpt lat="46.079114" lon="11.284608"><ele>690.68</ele><time>2022-02-05T10:43:32Z</time></trkpt>
<trkpt lat="46.079308" lon="11.284624"><ele>690.11</ele><time>2022-02-05T10:43:34Z</time></trkpt>
<trkpt lat="46.079401" lon="11.284695"><ele>691.7</ele><time>2022-02-05T10:43:36Z</time></trkpt>
<trkpt lat="46.079475" lon="11.284782"><ele>692.21</ele><time>2022-02-05T10:43:38Z</time></trkpt>
<trkpt lat="46.079558" lon="11.284918"><ele>692.42</ele><time>2022-02-05T10:43:40Z</time></trkpt>
<trkpt lat="46.079669" lon="11.284977"><ele>690.18</ele><time>2022-02-05T10:43:41Z</time></trkpt>
<trkpt lat="46.079784" lon="11.285007"><ele>686.73</ele><time>2022-02-05T10:43:43Z</time></trkpt>
<trkpt lat="46.079946" lon="11.284972"><ele>679.6</ele><time>2022-02-05T10:43:45Z</time></trkpt>
<trkpt lat="46.080097" lon="11.284824"><ele>674.86</ele><time>2022-02-05T10:43:47Z</time></trkpt>
<trkpt lat="46.080206" lon="11.28477"><ele>673.5</ele><time>2022-02-05T10:43:49Z</time></trkpt>
<trkpt lat="46.080384" lon="11.284762"><ele>673.85</ele><time>2022-02-05T10:43:51Z</time></trkpt>
<trkpt lat="46.080616" lon="11.284952"><ele>678.98</ele><time>2022-02-05T10:43:53Z</time></trkpt>
<trkpt lat="46.080706" lon="11.284974"><ele>678.27</ele><time>2022-02-05T10:43:55Z</time></trkpt>
<trkpt lat="46.080791" lon="11.284863"><ele>675.0</ele><time>2022-02-05T10:43:56Z</time></trkpt>
<trkpt lat="46.080795" lon="11.284714"><ele>672.11</ele><time>2022-02-05T10:43:58Z</time></trkpt>
<trkpt lat="46.080664" lon="11.284594"><ele>670.63</ele><time>2022-02-05T10:44:00Z</time></trkpt>
<trkpt lat="46.080325" lon="11.284223"><ele>664.82</ele><time>2022-02-05T10:44:02Z</time></trkpt>
<trkpt lat="46.079677" lon="11.283838"><ele>662.51</ele><time>2022-02-05T10:44:04Z</time></trkpt>
<trkpt lat="46.078909" lon="11.283428"><ele>650.54</ele><time>2022-02-05T10:44:06Z</time></trkpt>
<trkpt lat="46.078618" lon="11.28316"><ele>651.04</ele><time>2022-02-05T10:44:08Z</time></trkpt>
<trkpt lat="46.078219" lon="11.28272"><ele>639.39</ele><time>2022-02-05T10:44:09Z</time></trkpt>
<trkpt lat="46.078035" lon="11.282701"><ele>636.49</ele><time>2022-02-05T10:44:11Z</time></trkpt>
<trkpt lat="46.077932" lon="11.282758"><ele>635.82</ele><time>2022-02-05T10:44:13Z</time></trkpt>
<trkpt lat="46.077673" lon="11.28301"><ele>647.68</ele><time>2022-02-05T10:44:15Z</time></trkpt>
<trkpt lat="46.077353" lon="11.283171"><ele>657.06</ele><time>2022-02-05T10:44:17Z</time></trkpt>
<trkpt lat="46.077234" lon="11.283149"><ele>655.74</ele><time>2022-02-05T10:44:19Z</time></trkpt>
<trkpt lat="46.077085" lon="11.283064"><ele>654.4</ele><time>2022-02-05T10:44:21Z</time></trkpt>
<trkpt lat="46.076773" lon="11.282785"><ele>644.03</ele><time>2022-02-05T10:44:23Z</time></trkpt>
<trkpt lat="46.076609" lon="11.282699"><ele>641.68</ele><time>2022-02-05T10:44:24Z</time></trkpt>
<trkpt lat="46.076349" lon="11.282677"><ele>640.82</ele><time>2022-02-05T10:44:26Z</time></trkpt>
<trkpt lat="46.076249" lon="11.282611"><ele>641.83</ele><time>2022-02-05T10:44:28Z</time></trkpt>
<trkpt lat="46.076234" lon="11.282402"><ele>641.19</ele><time>2022-02-05T10:44:30Z</time></trkpt>
<trkpt lat="46.076267" lon="11.282261"><ele>642.22</ele><time>2022-02-05T10:44:32Z</time></trkpt>
<trkpt lat="46.07647" lon="11.282178"><ele>637.66</ele><time>2022-02-05T10:44:34Z</time></trkpt>
<trkpt lat="46.076654" lon="11.282147"><ele>634.61</ele><time>2022-02-05T10:44:36Z</time></trkpt>
<trkpt lat="46.07716" lon="11.281862"><ele>623.29</ele><time>2022-02-05T10:44:38Z</time></trkpt>
<trkpt lat="46.077242" lon="11.281572"><ele>620.78</ele><time>2022-02-05T10:44:39Z</time></trkpt>
<trkpt lat="46.077147" lon="11.280624"><ele>618.14</ele><time>2022-02-05T10:44:41Z</time></trkpt>
<trkpt lat="46.077084" lon="11.280211"><ele>610.64</ele><time>2022-02-05T10:44:43Z</time></trkpt>
<trkpt lat="46.076938" lon="11.279948"><ele>611.12</ele><time>2022-02-05T10:44:45Z</time></trkpt>
<trkpt lat="46.0767" lon="11.279454"><ele>609.29</ele><time>2022-02-05T10:44:47Z</time></trkpt>
<trkpt lat="46.076447" lon="11.278853"><ele>611.72</ele><time>2022-02-05T10:44:49Z</time></trkpt>
<trkpt lat="46.076149" lon="11.277692"><ele>608.18</ele><time>2022-02-05T10:44:51Z</time></trkpt>
<trkpt lat="46.076152" lon="11.277477"><ele>602.16</ele><time>2022-02-05T10:44:52Z</time></trkpt>
<trkpt lat="46.076297" lon="11.277114"><ele>586.49</ele><time>2022-02-05T10:44:54Z</time></trkpt>
<trkpt lat="46.076632" lon="11.276542"><ele>579.93</ele><time>2022-02-05T10:44:56Z</time></trkpt>
<trkpt lat="46.076726" lon="11.276248"><ele>581.35</ele><time>2022-02-05T10:44:58Z</time></trkpt>
<trkpt lat="46.076805" lon="11.275729"><ele>581.81</ele><time>2022-02-05T10:45:00Z</time></trkpt>
<trkpt lat="46.076948" lon="11.274806"><ele>581.03</ele><time>2022-02-05T10:45:02Z</time></trkpt>
<trkpt lat="46.076957" lon="11.274629"><ele>581.11</ele><time>2022-02-05T10:45:04Z</time></trkpt>
<trkpt lat="46.076942" lon="11.274276"><ele>581.57</ele><time>2022-02-05T10:45:06Z</time></trkpt>
<trkpt lat="46.07689" lon="11.274176"><ele>580.99</ele><time>2022-02-05T10:45:07Z</time></trkpt>
<trkpt lat="46.076791" lon="11.273908"><ele>579.66</ele><time>2022-02-05T10:45:09Z</time></trkpt>
<trkpt lat="46.076742" lon="11.273642"><ele>578.39</ele><time>2022-02-05T10:45:11Z</time></trkpt>
<trkpt lat="46.076761" lon="11.273384"><ele>577.59</ele><time>2022-02-05T10:45:13Z</time></trkpt>
<trkpt lat="46.076932" lon="11.271912"><ele>573.9</ele><time>2022-02-05T10:45:15Z</time></trkpt>
<trkpt lat="46.076926" lon="11.271676"><ele>573.8</ele><time>2022-02-05T10:45:17Z</time></trkpt>
<trkpt lat="46.076862" lon="11.271342"><ele>574.45</ele><time>2022-02-05T10:45:19Z</time></trkpt>
<trkpt lat="46.076258" lon="11.269577"><ele>575.76</ele><time>2022-02-05T10:45:21Z</time></trkpt>
<trkpt lat="46.075529" lon="11.267676"><ele>565.42</ele><time>2022-02-05T10:45:22Z</time></trkpt>
<trkpt lat="46.07389" lon="11.266014"><ele>569.11</ele><time>2022-02-05T10:45:24Z</time></trkpt>
<trkpt lat="46.073612" lon="11.265678"><ele>572.93</ele><time>2022-02-05T10:45:26Z</time></trkpt>
<trkpt lat="46.073296" lon="11.265244"><ele>568.76</ele><time>2022-02-05T10:45:28Z</time></trkpt>
<trkpt lat="46.073035" lon="11.264699"><ele>564.07</ele><time>2022-02-05T10:45:30Z</time></trkpt>
<trkpt lat="46.072947" lon="11.264328"><ele>555.58</ele><time>2022-02-05T10:45:32Z</time></trkpt>
<trkpt lat="46.072984" lon="11.263769"><ele>547.83</ele><time>2022-02-05T10:45:34Z</time></trkpt>
<trkpt lat="46.073128" lon="11.262506"><ele>540.08</ele><time>2022-02-05T10:45:35Z</time></trkpt>
<trkpt lat="46.073096" lon="11.262143"><ele>536.06</ele><time>2022-02-05T10:45:37Z</time></trkpt>
<trkpt lat="46.072891" lon="11.261804"><ele>535.09</ele><time>2022-02-05T10:45:39Z</time></trkpt>
<trkpt lat="46.072506" lon="11.261635"><ele>533.91</ele><time>2022-02-05T10:45:41Z</time></trkpt>
<trkpt lat="46.072326" lon="11.261525"><ele>532.88</ele><time>2022-02-05T10:45:43Z</time></trkpt>
<trkpt lat="46.072108" lon="11.261321"><ele>532.59</ele><time>2022-02-05T10:45:45Z</time></trkpt>
<trkpt lat="46.071905" lon="11.260988"><ele>531.64</ele><time>2022-02-05T10:45:47Z</time></trkpt>
<trkpt lat="46.071789" lon="11.260652"><ele>530.35</ele><time>2022-02-05T10:45:49Z</time></trkpt>
<trkpt lat="46.071483" lon="11.259465"><ele>526.71</ele><time>2022-02-05T10:45:50Z</time></trkpt>
<trkpt lat="46.070484" lon="11.257764"><ele>519.5</ele><time>2022-02-05T10:45:52Z</time></trkpt>
<trkpt lat="46.069488" lon="11.256054"><ele>515.36</ele><time>2022-02-05T10:45:54Z</time></trkpt>
<trkpt lat="46.068984" lon="11.255246"><ele>514.5</ele><time>2022-02-05T10:45:56Z</time></trkpt>
<trkpt lat="46.067711" lon="11.253315"><ele>505.0</ele><time>2022-02-05T10:45:58Z</time></trkpt>
<trkpt lat="46.066498" lon="11.251795"><ele>504.61</ele><time>2022-02-05T10:46:00Z</time></trkpt>
<trkpt lat="46.066473" lon="11.251827"><ele>504.7</ele><time>2022-02-05T10:46:04Z</time></trkpt>
<trkpt lat="46.066303" lon="11.251923"><ele>504.69</ele><time>2022-02-05T10:46:08Z</time></trkpt>
<trkpt lat="46.065756" lon="11.252549"><ele>503.59</ele><time>2022-02-05T10:46:12Z</time></trkpt>
<trkpt lat="46.065713" lon="11.252742"><ele>503.07</ele><time>2022-02-05T10:46:16Z</time></trkpt>
<trkpt lat="46.065454" lon="11.25287"><ele>502.3</ele><time>2022-02-05T10:46:24Z</time></trkpt>
<trkpt lat="46.065367" lon="11.252946"><ele>501.72</ele><time>2022-02-05T10:46:31Z</time></trkpt>
<trkpt lat="46.065217" lon="11.252971"><ele>501.88</ele><time>2022-02-05T10:46:38Z</time></trkpt>
<trkpt lat="46.064709" lon="11.252637"><ele>511.36</ele><time>2022-02-05T10:46:45Z</time></trkpt>
<trkpt lat="46.064345" lon="11.252553"><ele>508.65</ele><time>2022-02-05T10:46:53Z</time></trkpt>
<trkpt lat="46.063744" lon="11.252618"><ele>506.98</ele><time>2022-02-05T10:47:00Z</time></trkpt>
<trkpt lat="46.063615" lon="11.252602"><ele>507.79</ele><time>2022-02-05T10:47:07Z</time></trkpt>
<trkpt lat="46.063177" lon="11.25237"><ele>506.94</ele><time>2022-02-05T10:47:15Z</time></trkpt>
<trkpt lat="46.062526" lon="11.252213"><ele>507.92</ele><time>2022-02-05T10:47:22Z</time></trkpt>
<trkpt lat="46.062367" lon="11.252317"><ele>509.47</ele><time>2022-02-05T10:47:29Z</time></trkpt>
<trkpt lat="46.062133" lon="11.252561"><ele>507.27</ele><time>2022-02-05T10:47:37Z</time></trkpt>
<trkpt lat="46.062077" lon="11.252573"><ele>507.77</ele><time>2022-02-05T10:47:44Z</time></trkpt>
<trkpt lat="46.061818" lon="11.252472"><ele>512.43</ele><time>2022-02-05T10:47:51Z</time></trkpt>
<trkpt lat="46.061521" lon="11.252425"><ele>512.86</ele><time>2022-02-05T10:47:58Z</time></trkpt>
<trkpt lat="46.061147" lon="11.252482"><ele>508.65</ele><time>2022-02-05T10:48:06Z</time></trkpt>
<trkpt lat="46.060883" lon="11.252472"><ele>509.89</ele><time>2022-02-05T10:48:13Z</time></trkpt>
<trkpt lat="46.059996" lon="11.252325"><ele>508.37</ele><time>2022-02-05T10:48:20Z</time></trkpt>
<trkpt lat="46.059077" lon="11.252066"><ele>513.2</ele><time>2022-02-05T10:48:28Z</time></trkpt>
<trkpt lat="46.057733" lon="11.251212"><ele>516.14</ele><time>2022-02-05T10:48:35Z</time></trkpt>
<trkpt lat="46.05757" lon="11.251194"><ele>512.45</ele><time>2022-02-05T10:48:42Z</time></trkpt>
<trkpt lat="46.057474" lon="11.251241"><ele>509.6</ele><time>2022-02-05T10:48:49Z</time></trkpt>
<trkpt lat="46.0573" lon="11.251469"><ele>506.77</ele><time>2022-02-05T10:48:57Z</time></trkpt>
<trkpt lat="46.057127" lon="11.251558"><ele>507.77</ele><time>2022-02-05T10:49:04Z</time></trkpt>
<trkpt lat="46.056762" lon="11.251409"><ele>513.26</ele><time>2022-02-05T10:49:11Z</time></trkpt>
<trkpt lat="46.056477" lon="11.251257"><ele>513.35</ele><time>2022-02-05T10:49:19Z</time></trkpt>
<trkpt lat="46.05615" lon="11.251121"><ele>512.07</ele><time>2022-02-05T10:49:26Z</time></trkpt>
<trkpt lat="46.055793" lon="11.251035"><ele>512.58</ele><time>2022-02-05T10:49:33Z</time></trkpt>
<trkpt lat="46.054378" lon="11.25109"><ele>519.88</ele><time>2022-02-05T10:49:41Z</time></trkpt>
<trkpt lat="46.054149" lon="11.251115"><ele>521.07</ele><time>2022-02-05T10:49:48Z</time></trkpt>
<trkpt lat="46.053728" lon="11.251302"><ele>524.07</ele><time>2022-02-05T10:49:55Z</time></trkpt>
<trkpt lat="46.053589" lon="11.251421"><ele>527.19</ele><time>2022-02-05T10:50:02Z</time></trkpt>
<trkpt lat="46.05339" lon="11.251519"><ele>531.82</ele><time>2022-02-05T10:50:10Z</time></trkpt>
<trkpt lat="46.05282" lon="11.251722"><ele>533.2</ele><time>2022-02-05T10:50:17Z</time></trkpt>
<trkpt lat="46.052606" lon="11.25177"><ele>532.28</ele><time>2022-02-05T10:50:24Z</time></trkpt>
<trkpt lat="46.052354" lon="11.251787"><ele>530.09</ele><time>2022-02-05T10:50:32Z</time></trkpt>
<trkpt lat="46.051861" lon="11.251751"><ele>525.72</ele><time>2022-02-05T10:50:39Z</time></trkpt>
<trkpt lat="46.051656" lon="11.251708"><ele>527.37</ele><time>2022-02-05T10:50:46Z</time></trkpt>
<trkpt lat="46.051566" lon="11.250551"><ele>527.17</ele><time>2022-02-05T10:50:51Z</time></trkpt>
<trkpt lat="46.051544" lon="11.250437"><ele>529.5</ele><time>2022-02-05T10:50:57Z</time></trkpt>
<trkpt lat="46.050568" lon="11.251547"><ele>529.92</ele><time>2022-02-05T10:50:59Z</time></trkpt>
<trkpt lat="46.050212" lon="11.251991"><ele>531.58</ele><time>2022-02-05T10:51:01Z</time></trkpt>
<trkpt lat="46.049905" lon="11.252469"><ele>535.47</ele><time>2022-02-05T10:51:03Z</time></trkpt>
<trkpt lat="46.049676" lon="11.252906"><ele>535.21</ele><time>2022-02-05T10:51:05Z</time></trkpt>
<trkpt lat="46.049269" lon="11.253574"><ele>539.05</ele><time>2022-02-05T10:51:08Z</time></trkpt>
<trkpt lat="46.048233" lon="11.254516"><ele>544.4</ele><time>2022-02-05T10:51:10Z</time></trkpt>
<trkpt lat="46.047934" lon="11.254717"><ele>548.28</ele><time>2022-02-05T10:51:12Z</time></trkpt>
<trkpt lat="46.04737" lon="11.254991"><ele>552.97</ele><time>2022-02-05T10:51:14Z</time></trkpt>
<trkpt lat="46.046329" lon="11.255244"><ele>560.14</ele><time>2022-02-05T10:51:16Z</time></trkpt>
<trkpt lat="46.045974" lon="11.255348"><ele>555.89</ele><time>2022-02-05T10:51:19Z</time></trkpt>
<trkpt lat="46.045653" lon="11.255522"><ele>553.47</ele><time>2022-02-05T10:51:21Z</time></trkpt>
<trkpt lat="46.045243" lon="11.255828"><ele>556.13</ele><time>2022-02-05T10:51:23Z</time></trkpt>
<trkpt lat="46.044899" lon="11.256228"><ele>554.66</ele><time>2022-02-05T10:51:25Z</time></trkpt>
<trkpt lat="46.044538" lon="11.256741"><ele>552.96</ele><time>2022-02-05T10:51:27Z</time></trkpt>
<trkpt lat="46.044339" lon="11.257082"><ele>554.99</ele><time>2022-02-05T10:51:30Z</time></trkpt>
<trkpt lat="46.043976" lon="11.257641"><ele>555.16</ele><time>2022-02-05T10:51:32Z</time></trkpt>
<trkpt lat="46.043441" lon="11.258354"><ele>556.85</ele><time>2022-02-05T10:51:34Z</time></trkpt>
<trkpt lat="46.043196" lon="11.258625"><ele>557.1</ele><time>2022-02-05T10:51:36Z</time></trkpt>
<trkpt lat="46.042935" lon="11.258851"><ele>562.56</ele><time>2022-02-05T10:51:39Z</time></trkpt>
<trkpt lat="46.042726" lon="11.258984"><ele>567.95</ele><time>2022-02-05T10:51:41Z</time></trkpt>
<trkpt lat="46.042488" lon="11.259062"><ele>570.08</ele><time>2022-02-05T10:51:43Z</time></trkpt>
<trkpt lat="46.041975" lon="11.259016"><ele>571.62</ele><time>2022-02-05T10:51:45Z</time></trkpt>
<trkpt lat="46.04176" lon="11.258921"><ele>560.47</ele><time>2022-02-05T10:51:47Z</time></trkpt>
<trkpt lat="46.0412" lon="11.258604"><ele>561.12</ele><time>2022-02-05T10:51:50Z</time></trkpt>
<trkpt lat="46.04092" lon="11.258501"><ele>558.99</ele><time>2022-02-05T10:51:52Z</time></trkpt>
<trkpt lat="46.040645" lon="11.258479"><ele>558.29</ele><time>2022-02-05T10:51:54Z</time></trkpt>
<trkpt lat="46.039401" lon="11.258664"><ele>563.77</ele><time>2022-02-05T10:51:56Z</time></trkpt>
<trkpt lat="46.03915" lon="11.258638"><ele>559.94</ele><time>2022-02-05T10:51:58Z</time></trkpt>
<trkpt lat="46.0389" lon="11.258553"><ele>553.71</ele><time>2022-02-05T10:52:01Z</time></trkpt>
<trkpt lat="46.038628" lon="11.258393"><ele>567.3</ele><time>2022-02-05T10:52:03Z</time></trkpt>
<trkpt lat="46.03803" lon="11.257943"><ele>555.69</ele><time>2022-02-05T10:52:05Z</time></trkpt>
<trkpt lat="46.037792" lon="11.257789"><ele>559.85</ele><time>2022-02-05T10:52:07Z</time></trkpt>
<trkpt lat="46.037506" lon="11.257562"><ele>572.88</ele><time>2022-02-05T10:52:09Z</time></trkpt>
<trkpt lat="46.03729" lon="11.257325"><ele>557.28</ele><time>2022-02-05T10:52:12Z</time></trkpt>
<trkpt lat="46.03713" lon="11.25711"><ele>550.44</ele><time>2022-02-05T10:52:14Z</time></trkpt>
<trkpt lat="46.037018" lon="11.256918"><ele>545.05</ele><time>2022-02-05T10:52:16Z</time></trkpt>
<trkpt lat="46.03689" lon="11.25676"><ele>543.59</ele><time>2022-02-05T10:52:18Z</time></trkpt>
<trkpt lat="46.036765" lon="11.256688"><ele>543.41</ele><time>2022-02-05T10:52:21Z</time></trkpt>
<trkpt lat="46.036417" lon="11.256603"><ele>548.56</ele><time>2022-02-05T10:52:23Z</time></trkpt>
<trkpt lat="46.035936" lon="11.256608"><ele>559.42</ele><time>2022-02-05T10:52:25Z</time></trkpt>
<trkpt lat="46.035704" lon="11.256535"><ele>557.07</ele><time>2022-02-05T10:52:27Z</time></trkpt>
<trkpt lat="46.03547" lon="11.256395"><ele>550.28</ele><time>2022-02-05T10:52:29Z</time></trkpt>
<trkpt lat="46.035169" lon="11.25635"><ele>541.99</ele><time>2022-02-05T10:52:32Z</time></trkpt>
<trkpt lat="46.035022" lon="11.256375"><ele>535.83</ele><time>2022-02-05T10:52:34Z</time></trkpt>
<trkpt lat="46.034935" lon="11.25646"><ele>533.08</ele><time>2022-02-05T10:52:36Z</time></trkpt>
<trkpt lat="46.034855" lon="11.256673"><ele>530.25</ele><time>2022-02-05T10:52:38Z</time></trkpt>
<trkpt lat="46.034894" lon="11.256915"><ele>529.78</ele><time>2022-02-05T10:52:40Z</time></trkpt>
<trkpt lat="46.034956" lon="11.257054"><ele>530.72</ele><time>2022-02-05T10:52:43Z</time></trkpt>
<trkpt lat="46.035067" lon="11.257194"><ele>534.04</ele><time>2022-02-05T10:52:45Z</time></trkpt>
<trkpt lat="46.035277" lon="11.25757"><ele>546.73</ele><time>2022-02-05T10:52:47Z</time></trkpt>
<trkpt lat="46.035302" lon="11.257912"><ele>551.8</ele><time>2022-02-05T10:52:49Z</time></trkpt>
<trkpt lat="46.035293" lon="11.258256"><ele>545.06</ele><time>2022-02-05T10:52:51Z</time></trkpt>
<trkpt lat="46.035233" lon="11.258685"><ele>543.74</ele><time>2022-02-05T10:52:54Z</time></trkpt>
<trkpt lat="46.035221" lon="11.259125"><ele>548.72</ele><time>2022-02-05T10:52:56Z</time></trkpt>
<trkpt lat="46.035306" lon="11.259989"><ele>559.77</ele><time>2022-02-05T10:52:58Z</time></trkpt>
<trkpt lat="46.035285" lon="11.260307"><ele>558.55</ele><time>2022-02-05T10:53:00Z</time></trkpt>
<trkpt lat="46.035115" lon="11.26069"><ele>547.53</ele><time>2022-02-05T10:53:02Z</time></trkpt>
<trkpt lat="46.034966" lon="11.260923"><ele>540.07</ele><time>2022-02-05T10:53:05Z</time></trkpt>
<trkpt lat="46.034494" lon="11.262013"><ele>536.94</ele><time>2022-02-05T10:53:07Z</time></trkpt>
<trkpt lat="46.034449" lon="11.262195"><ele>535.1</ele><time>2022-02-05T10:53:09Z</time></trkpt>
<trkpt lat="46.034441" lon="11.262844"><ele>544.63</ele><time>2022-02-05T10:53:11Z</time></trkpt>
<trkpt lat="46.034392" lon="11.263144"><ele>545.75</ele><time>2022-02-05T10:53:14Z</time></trkpt>
<trkpt lat="46.034055" lon="11.264079"><ele>536.46</ele><time>2022-02-05T10:53:16Z</time></trkpt>
<trkpt lat="46.033748" lon="11.264859"><ele>540.11</ele><time>2022-02-05T10:53:18Z</time></trkpt>
<trkpt lat="46.033474" lon="11.265838"><ele>551.26</ele><time>2022-02-05T10:53:20Z</time></trkpt>
<trkpt lat="46.033402" lon="11.26601"><ele>551.71</ele><time>2022-02-05T10:53:22Z</time></trkpt>
<trkpt lat="46.033286" lon="11.266152"><ele>550.7</ele><time>2022-02-05T10:53:25Z</time></trkpt>
<trkpt lat="46.032518" lon="11.266765"><ele>541.79</ele><time>2022-02-05T10:53:27Z</time></trkpt>
<trkpt lat="46.031987" lon="11.267334"><ele>529.88</ele><time>2022-02-05T10:53:29Z</time></trkpt>
<trkpt lat="46.031636" lon="11.267681"><ele>536.6</ele><time>2022-02-05T10:53:31Z</time></trkpt>
<trkpt lat="46.030969" lon="11.267788"><ele>526.3</ele><time>2022-02-05T10:53:33Z</time></trkpt>
<trkpt lat="46.030801" lon="11.267859"><ele>523.85</ele><time>2022-02-05T10:53:36Z</time></trkpt>
<trkpt lat="46.03062" lon="11.267968"><ele>520.05</ele><time>2022-02-05T10:53:38Z</time></trkpt>
<trkpt lat="46.030426" lon="11.268106"><ele>519.94</ele><time>2022-02-05T10:53:40Z</time></trkpt>
<trkpt lat="46.029762" lon="11.268704"><ele>527.27</ele><time>2022-02-05T10:53:42Z</time></trkpt>
<trkpt lat="46.02965" lon="11.268918"><ele>533.96</ele><time>2022-02-05T10:53:44Z</time></trkpt>
<trkpt lat="46.029457" lon="11.269117"><ele>535.86</ele><time>2022-02-05T10:53:47Z</time></trkpt>
<trkpt lat="46.029314" lon="11.26922"><ele>535.68</ele><time>2022-02-05T10:53:49Z</time></trkpt>
<trkpt lat="46.029136" lon="11.269306"><ele>536.79</ele><time>2022-02-05T10:53:51Z</time></trkpt>
<trkpt lat="46.028836" lon="11.26917"><ele>527.61</ele><time>2022-02-05T10:53:53Z</time></trkpt>
<trkpt lat="46.027442" lon="11.268698"><ele>513.72</ele><time>2022-02-05T10:53:56Z</time></trkpt>
<trkpt lat="46.027251" lon="11.268698"><ele>509.6</ele><time>2022-02-05T10:53:58Z</time></trkpt>
<trkpt lat="46.026917" lon="11.268899"><ele>511.48</ele><time>2022-02-05T10:54:00Z</time></trkpt>
<trkpt lat="46.026748" lon="11.269046"><ele>508.59</ele><time>2022-02-05T10:54:02Z</time></trkpt>
<trkpt lat="46.026235" lon="11.269561"><ele>508.18</ele><time>2022-02-05T10:54:04Z</time></trkpt>
<trkpt lat="46.026092" lon="11.269741"><ele>509.26</ele><time>2022-02-05T10:54:07Z</time></trkpt>
<trkpt lat="46.025972" lon="11.270118"><ele>520.12</ele><time>2022-02-05T10:54:09Z</time></trkpt>
<trkpt lat="46.025854" lon="11.270241"><ele>519.56</ele><time>2022-02-05T10:54:11Z</time></trkpt>
<trkpt lat="46.02533" lon="11.270572"><ele>509.2</ele><time>2022-02-05T10:54:13Z</time></trkpt>
<trkpt lat="46.025132" lon="11.270923"><ele>511.74</ele><time>2022-02-05T10:54:15Z</time></trkpt>
<trkpt lat="46.024901" lon="11.271135"><ele>511.37</ele><time>2022-02-05T10:54:18Z</time></trkpt>
<trkpt lat="46.024572" lon="11.27137"><ele>507.78</ele><time>2022-02-05T10:54:20Z</time></trkpt>
<trkpt lat="46.024378" lon="11.271551"><ele>504.41</ele><time>2022-02-05T10:54:22Z</time></trkpt>
<trkpt lat="46.024018" lon="11.272382"><ele>513.12</ele><time>2022-02-05T10:54:24Z</time></trkpt>
<trkpt lat="46.02356" lon="11.273204"><ele>507.14</ele><time>2022-02-05T10:54:26Z</time></trkpt>
<trkpt lat="46.023307" lon="11.273549"><ele>500.15</ele><time>2022-02-05T10:54:29Z</time></trkpt>
<trkpt lat="46.023045" lon="11.27386"><ele>494.61</ele><time>2022-02-05T10:54:31Z</time></trkpt>
<trkpt lat="46.022923" lon="11.274222"><ele>501.66</ele><time>2022-02-05T10:54:33Z</time></trkpt>
<trkpt lat="46.022811" lon="11.274469"><ele>504.38</ele><time>2022-02-05T10:54:35Z</time></trkpt>
<trkpt lat="46.022708" lon="11.274641"><ele>510.39</ele><time>2022-02-05T10:54:38Z</time></trkpt>
<trkpt lat="46.022578" lon="11.274752"><ele>509.41</ele><time>2022-02-05T10:54:40Z</time></trkpt>
<trkpt lat="46.022387" lon="11.274841"><ele>503.83</ele><time>2022-02-05T10:54:42Z</time></trkpt>
<trkpt lat="46.022272" lon="11.274933"><ele>502.04</ele><time>2022-02-05T10:54:44Z</time></trkpt>
<trkpt lat="46.022107" lon="11.275187"><ele>509.0</ele><time>2022-02-05T10:54:46Z</time></trkpt>
<trkpt lat="46.021976" lon="11.275304"><ele>514.11</ele><time>2022-02-05T10:54:49Z</time></trkpt>
<trkpt lat="46.021828" lon="11.275373"><ele>511.63</ele><time>2022-02-05T10:54:51Z</time></trkpt>
<trkpt lat="46.021667" lon="11.275368"><ele>505.24</ele><time>2022-02-05T10:54:53Z</time></trkpt>
<trkpt lat="46.021516" lon="11.275302"><ele>498.32</ele><time>2022-02-05T10:54:55Z</time></trkpt>
<trkpt lat="46.021364" lon="11.275263"><ele>493.09</ele><time>2022-02-05T10:54:57Z</time></trkpt>
<trkpt lat="46.021256" lon="11.275307"><ele>493.73</ele><time>2022-02-05T10:55:00Z</time></trkpt>
<trkpt lat="46.020564" lon="11.275741"><ele>501.02</ele><time>2022-02-05T10:55:02Z</time></trkpt>
<trkpt lat="46.020143" lon="11.275902"><ele>501.04</ele><time>2022-02-05T10:55:04Z</time></trkpt>
<trkpt lat="46.019285" lon="11.276181"><ele>492.69</ele><time>2022-02-05T10:55:06Z</time></trkpt>
<trkpt lat="46.019136" lon="11.276267"><ele>493.42</ele><time>2022-02-05T10:55:08Z</time></trkpt>
<trkpt lat="46.018941" lon="11.276442"><ele>495.07</ele><time>2022-02-05T10:55:11Z</time></trkpt>
<trkpt lat="46.01863" lon="11.276901"><ele>497.94</ele><time>2022-02-05T10:55:13Z</time></trkpt>
<trkpt lat="46.018343" lon="11.277216"><ele>488.62</ele><time>2022-02-05T10:55:15Z</time></trkpt>
<trkpt lat="46.018222" lon="11.277465"><ele>490.7</ele><time>2022-02-05T10:55:17Z</time></trkpt>
<trkpt lat="46.018127" lon="11.277757"><ele>492.33</ele><time>2022-02-05T10:55:20Z</time></trkpt>
<trkpt lat="46.018055" lon="11.278174"><ele>498.55</ele><time>2022-02-05T10:55:22Z</time></trkpt>
<trkpt lat="46.017949" lon="11.27849"><ele>498.26</ele><time>2022-02-05T10:55:24Z</time></trkpt>
<trkpt lat="46.017785" lon="11.278781"><ele>491.66</ele><time>2022-02-05T10:55:26Z</time></trkpt>
<trkpt lat="46.017662" lon="11.27906"><ele>485.85</ele><time>2022-02-05T10:55:28Z</time></trkpt>
<trkpt lat="46.017466" lon="11.279841"><ele>487.42</ele><time>2022-02-05T10:55:31Z</time></trkpt>
<trkpt lat="46.01738" lon="11.280479"><ele>487.96</ele><time>2022-02-05T10:55:33Z</time></trkpt>
<trkpt lat="46.01729" lon="11.280859"><ele>488.05</ele><time>2022-02-05T10:55:35Z</time></trkpt>
<trkpt lat="46.017189" lon="11.281124"><ele>488.82</ele><time>2022-02-05T10:55:37Z</time></trkpt>
<trkpt lat="46.016877" lon="11.28164"><ele>483.78</ele><time>2022-02-05T10:55:39Z</time></trkpt>
<trkpt lat="46.016778" lon="11.28188"><ele>483.47</ele><time>2022-02-05T10:55:42Z</time></trkpt>
<trkpt lat="46.01623" lon="11.284141"><ele>488.83</ele><time>2022-02-05T10:55:44Z</time></trkpt>
<trkpt lat="46.015997" lon="11.285455"><ele>488.71</ele><time>2022-02-05T10:55:46Z</time></trkpt>
<trkpt lat="46.015922" lon="11.285958"><ele>484.12</ele><time>2022-02-05T10:55:48Z</time></trkpt>
<trkpt lat="46.015866" lon="11.286465"><ele>484.78</ele><time>2022-02-05T10:55:50Z</time></trkpt>
<trkpt lat="46.015833" lon="11.287006"><ele>489.45</ele><time>2022-02-05T10:55:53Z</time></trkpt>
<trkpt lat="46.015862" lon="11.288405"><ele>481.55</ele><time>2022-02-05T10:55:55Z</time></trkpt>
<trkpt lat="46.015866" lon="11.29014"><ele>487.56</ele><time>2022-02-05T10:55:57Z</time></trkpt>
<trkpt lat="46.015886" lon="11.290558"><ele>486.79</ele><time>2022-02-05T10:55:59Z</time></trkpt>
<trkpt lat="46.015931" lon="11.290984"><ele>481.14</ele><time>2022-02-05T10:56:02Z</time></trkpt>
<trkpt lat="46.016183" lon="11.292377"><ele>482.48</ele><time>2022-02-05T10:56:04Z</time></trkpt>
<trkpt lat="46.016196" lon="11.29268"><ele>481.13</ele><time>2022-02-05T10:56:06Z</time></trkpt>
<trkpt lat="46.016177" lon="11.292963"><ele>479.68</ele><time>2022-02-05T10:56:08Z</time></trkpt>
<trkpt lat="46.016123" lon="11.29323"><ele>478.86</ele><time>2022-02-05T10:56:10Z</time></trkpt>
<trkpt lat="46.016005" lon="11.293563"><ele>478.61</ele><time>2022-02-05T10:56:13Z</time></trkpt>
<trkpt lat="46.015866" lon="11.293868"><ele>479.9</ele><time>2022-02-05T10:56:15Z</time></trkpt>
<trkpt lat="46.015655" lon="11.294213"><ele>481.57</ele><time>2022-02-05T10:56:17Z</time></trkpt>
<trkpt lat="46.015403" lon="11.294437"><ele>481.28</ele><time>2022-02-05T10:56:19Z</time></trkpt>
<trkpt lat="46.01497" lon="11.294596"><ele>479.88</ele><time>2022-02-05T10:56:21Z</time></trkpt>
<trkpt lat="46.013812" lon="11.294913"><ele>476.82</ele><time>2022-02-05T10:56:24Z</time></trkpt>
<trkpt lat="46.013318" lon="11.295161"><ele>476.57</ele><time>2022-02-05T10:56:26Z</time></trkpt>
<trkpt lat="46.012821" lon="11.29552"><ele>475.9</ele><time>2022-02-05T10:56:28Z</time></trkpt>
<trkpt lat="46.012455" lon="11.295885"><ele>481.02</ele><time>2022-02-05T10:56:30Z</time></trkpt>
<trkpt lat="46.012005" lon="11.296321"><ele>482.85</ele><time>2022-02-05T10:56:32Z</time></trkpt>
<trkpt lat="46.011257" lon="11.297065"><ele>473.92</ele><time>2022-02-05T10:56:35Z</time></trkpt>
<trkpt lat="46.010963" lon="11.297441"><ele>474.87</ele><time>2022-02-05T10:56:37Z</time></trkpt>
<trkpt lat="46.010614" lon="11.297985"><ele>475.71</ele><time>2022-02-05T10:56:39Z</time></trkpt>
<trkpt lat="46.010348" lon="11.298496"><ele>476.47</ele><time>2022-02-05T10:56:41Z</time></trkpt>
<trkpt lat="46.009202" lon="11.300888"><ele>478.08</ele><time>2022-02-05T10:56:49Z</time></trkpt>
<trkpt lat="46.009016" lon="11.301382"><ele>476.89</ele><time>2022-02-05T10:56:57Z</time></trkpt>
<trkpt lat="46.008856" lon="11.301881"><ele>476.73</ele><time>2022-02-05T10:57:06Z</time></trkpt>
<trkpt lat="46.00875" lon="11.302383"><ele>476.5</ele><time>2022-02-05T10:57:14Z</time></trkpt>
<trkpt lat="46.008522" lon="11.302233"><ele>474.39</ele><time>2022-02-05T10:57:17Z</time></trkpt>
<trkpt lat="46.008099" lon="11.302039"><ele>469.26</ele><time>2022-02-05T10:57:21Z</time></trkpt>
<trkpt lat="46.007651" lon="11.30193"><ele>463.0</ele><time>2022-02-05T10:57:24Z</time></trkpt>
<trkpt lat="46.007222" lon="11.301723"><ele>460.2</ele><time>2022-02-05T10:57:28Z</time></trkpt>
<trkpt lat="46.007107" lon="11.301647"><ele>459.52</ele><time>2022-02-05T10:57:32Z</time></trkpt>
<trkpt lat="46.007034" lon="11.301556"><ele>458.92</ele><time>2022-02-05T10:57:35Z</time></trkpt>
<trkpt lat="46.006723" lon="11.301316"><ele>456.99</ele><time>2022-02-05T10:57:39Z</time></trkpt>
<trkpt lat="46.006156" lon="11.300961"><ele>449.02</ele><time>2022-02-05T10:57:42Z</time></trkpt>
<trkpt lat="46.005697" lon="11.300708"><ele>447.29</ele><time>2022-02-05T10:57:46Z</time></trkpt>
<trkpt lat="46.004783" lon="11.300337"><ele>443.22</ele><time>2022-02-05T10:57:50Z</time></trkpt>
<trkpt lat="46.004365" lon="11.300141"><ele>439.14</ele><time>2022-02-05T10:57:53Z</time></trkpt>
<trkpt lat="46.002851" lon="11.299605"><ele>440.16</ele><time>2022-02-05T10:57:57Z</time></trkpt>
<trkpt lat="46.002002" lon="11.299327"><ele>442.71</ele><time>2022-02-05T10:58:00Z</time></trkpt>
<trkpt lat="46.001646" lon="11.299237"><ele>442.67</ele><time>2022-02-05T10:58:04Z</time></trkpt>
<trkpt lat="46.000984" lon="11.299123"><ele>442.0</ele><time>2022-02-05T10:58:08Z</time></trkpt>
<trkpt lat="46.00051" lon="11.298951"><ele>442.0</ele><time>2022-02-05T10:58:11Z</time></trkpt>
<trkpt lat="45.999436" lon="11.29839"><ele>443.77</ele><time>2022-02-05T10:58:15Z</time></trkpt>
<trkpt lat="45.999029" lon="11.298139"><ele>443.2</ele><time>2022-02-05T10:58:18Z</time></trkpt>
<trkpt lat="45.998919" lon="11.298052"><ele>443.12</ele><time>2022-02-05T10:58:22Z</time></trkpt>
<trkpt lat="45.998851" lon="11.297852"><ele>443.36</ele><time>2022-02-05T10:58:25Z</time></trkpt>
<trkpt lat="45.998796" lon="11.297597"><ele>443.86</ele><time>2022-02-05T10:58:29Z</time></trkpt>
<trkpt lat="45.998763" lon="11.29745"><ele>444.27</ele><time>2022-02-05T10:58:32Z</time></trkpt>
<trkpt lat="45.998632" lon="11.297245"><ele>444.07</ele><time>2022-02-05T10:58:35Z</time></trkpt>
<trkpt lat="45.998281" lon="11.296959"><ele>445.13</ele><time>2022-02-05T10:58:39Z</time></trkpt>
<trkpt lat="45.998137" lon="11.296796"><ele>446.24</ele><time>2022-02-05T10:58:42Z</time></trkpt>
<trkpt lat="45.997612" lon="11.295892"><ele>444.61</ele><time>2022-02-05T10:58:46Z</time></trkpt>
<trkpt lat="45.997492" lon="11.29574"><ele>444.37</ele><time>2022-02-05T10:58:49Z</time></trkpt>
<trkpt lat="45.997374" lon="11.295629"><ele>445.19</ele><time>2022-02-05T10:58:52Z</time></trkpt>
<trkpt lat="45.997192" lon="11.295514"><ele>446.13</ele><time>2022-02-05T10:58:56Z</time></trkpt>
<trkpt lat="45.996975" lon="11.295449"><ele>447.23</ele><time>2022-02-05T10:58:59Z</time></trkpt>
<trkpt lat="45.994586" lon="11.295428"><ele>451.2</ele><time>2022-02-05T10:59:03Z</time></trkpt>
<trkpt lat="45.994304" lon="11.295393"><ele>450.87</ele><time>2022-02-05T10:59:06Z</time></trkpt>
<trkpt lat="45.993977" lon="11.295282"><ele>450.98</ele><time>2022-02-05T10:59:09Z</time></trkpt>
<trkpt lat="45.992874" lon="11.294454"><ele>453.66</ele><time>2022-02-05T10:59:13Z</time></trkpt>
<trkpt lat="45.992614" lon="11.294235"><ele>454.98</ele><time>2022-02-05T10:59:16Z</time></trkpt>
<trkpt lat="45.992449" lon="11.294026"><ele>454.58</ele><time>2022-02-05T10:59:20Z</time></trkpt>
<trkpt lat="45.991783" lon="11.292895"><ele>456.34</ele><time>2022-02-05T10:59:23Z</time></trkpt>
<trkpt lat="45.991544" lon="11.292617"><ele>458.02</ele><time>2022-02-05T10:59:26Z</time></trkpt>
<trkpt lat="45.991211" lon="11.292286"><ele>459.77</ele><time>2022-02-05T10:59:30Z</time></trkpt>
<trkpt lat="45.990847" lon="11.292052"><ele>459.66</ele><time>2022-02-05T10:59:33Z</time></trkpt>
<trkpt lat="45.9887" lon="11.291046"><ele>460.47</ele><time>2022-02-05T10:59:36Z</time></trkpt>
<trkpt lat="45.986228" lon="11.290468"><ele>464.87</ele><time>2022-02-05T10:59:40Z</time></trkpt>
<trkpt lat="45.986085" lon="11.290346"><ele>467.82</ele><time>2022-02-05T10:59:43Z</time></trkpt>
<trkpt lat="45.985887" lon="11.290043"><ele>471.24</ele><time>2022-02-05T10:59:47Z</time></trkpt>
<trkpt lat="45.985388" lon="11.289179"><ele>485.59</ele><time>2022-02-05T10:59:50Z</time></trkpt>
<trkpt lat="45.985013" lon="11.288572"><ele>488.54</ele><time>2022-02-05T10:59:53Z</time></trkpt>
<trkpt lat="45.984908" lon="11.288245"><ele>489.11</ele><time>2022-02-05T10:59:57Z</time></trkpt>
<trkpt lat="45.984875" lon="11.287842"><ele>489.75</ele><time>2022-02-05T11:00:00Z</time></trkpt>
<trkpt lat="45.984881" lon="11.286025"><ele>494.16</ele><time>2022-02-05T11:00:04Z</time></trkpt>
<trkpt lat="45.985001" lon="11.285559"><ele>490.03</ele><time>2022-02-05T11:00:07Z</time></trkpt>
<trkpt lat="45.985232" lon="11.284983"><ele>491.12</ele><time>2022-02-05T11:00:10Z</time></trkpt>
<trkpt lat="45.985329" lon="11.284733"><ele>492.93</ele><time>2022-02-05T11:00:14Z</time></trkpt>
<trkpt lat="45.985428" lon="11.284173"><ele>492.49</ele><time>2022-02-05T11:00:17Z</time></trkpt>
<trkpt lat="45.985613" lon="11.282603"><ele>483.75</ele><time>2022-02-05T11:00:21Z</time></trkpt>
<trkpt lat="45.985596" lon="11.281779"><ele>485.61</ele><time>2022-02-05T11:00:24Z</time></trkpt>
<trkpt lat="45.985521" lon="11.280894"><ele>485.17</ele><time>2022-02-05T11:00:27Z</time></trkpt>
<trkpt lat="45.98515" lon="11.279616"><ele>486.36</ele><time>2022-02-05T11:00:31Z</time></trkpt>
<trkpt lat="45.985094" lon="11.279279"><ele>484.66</ele><time>2022-02-05T11:00:34Z</time></trkpt>
<trkpt lat="45.985025" lon="11.279255"><ele>485.34</ele><time>2022-02-05T11:00:35Z</time></trkpt>
<trkpt lat="45.984926" lon="11.279269"><ele>486.17</ele><time>2022-02-05T11:00:35Z</time></trkpt>
<trkpt lat="45.984485" lon="11.280348"><ele>494.89</ele><time>2022-02-05T11:00:37Z</time></trkpt>
<trkpt lat="45.984196" lon="11.281224"><ele>502.77</ele><time>2022-02-05T11:00:39Z</time></trkpt>
<trkpt lat="45.983556" lon="11.281967"><ele>511.76</ele><time>2022-02-05T11:00:41Z</time></trkpt>
<trkpt lat="45.98331" lon="11.282143"><ele>513.7</ele><time>2022-02-05T11:00:43Z</time></trkpt>
<trkpt lat="45.982598" lon="11.28219"><ele>517.63</ele><time>2022-02-05T11:00:46Z</time></trkpt>
<trkpt lat="45.982421" lon="11.282284"><ele>518.54</ele><time>2022-02-05T11:00:48Z</time></trkpt>
<trkpt lat="45.982139" lon="11.282479"><ele>519.92</ele><time>2022-02-05T11:00:50Z</time></trkpt>
<trkpt lat="45.981937" lon="11.282594"><ele>519.71</ele><time>2022-02-05T11:00:52Z</time></trkpt>
<trkpt lat="45.981636" lon="11.282812"><ele>520.07</ele><time>2022-02-05T11:00:54Z</time></trkpt>
<trkpt lat="45.981528" lon="11.283039"><ele>522.37</ele><time>2022-02-05T11:00:56Z</time></trkpt>
<trkpt lat="45.981504" lon="11.283303"><ele>526.82</ele><time>2022-02-05T11:00:58Z</time></trkpt>
<trkpt lat="45.981508" lon="11.283433"><ele>529.44</ele><time>2022-02-05T11:01:00Z</time></trkpt>
<trkpt lat="45.981553" lon="11.283603"><ele>532.08</ele><time>2022-02-05T11:01:02Z</time></trkpt>
<trkpt lat="45.981693" lon="11.283821"><ele>532.91</ele><time>2022-02-05T11:01:04Z</time></trkpt>
<trkpt lat="45.982128" lon="11.284307"><ele>536.76</ele><time>2022-02-05T11:01:06Z</time></trkpt>
<trkpt lat="45.982407" lon="11.284519"><ele>531.73</ele><time>2022-02-05T11:01:08Z</time></trkpt>
<trkpt lat="45.982523" lon="11.284673"><ele>530.63</ele><time>2022-02-05T11:01:10Z</time></trkpt>
<trkpt lat="45.982595" lon="11.284797"><ele>530.33</ele><time>2022-02-05T11:01:13Z</time></trkpt>
<trkpt lat="45.98262" lon="11.284876"><ele>530.66</ele><time>2022-02-05T11:01:15Z</time></trkpt>
<trkpt lat="45.982599" lon="11.284965"><ele>533.34</ele><time>2022-02-05T11:01:17Z</time></trkpt>
<trkpt lat="45.982354" lon="11.285147"><ele>546.65</ele><time>2022-02-05T11:01:19Z</time></trkpt>
<trkpt lat="45.982244" lon="11.285914"><ele>554.68</ele><time>2022-02-05T11:01:21Z</time></trkpt>
<trkpt lat="45.982011" lon="11.286627"><ele>564.33</ele><time>2022-02-05T11:01:23Z</time></trkpt>
<trkpt lat="45.98181" lon="11.287382"><ele>579.36</ele><time>2022-02-05T11:01:25Z</time></trkpt>
<trkpt lat="45.981819" lon="11.288232"><ele>594.4</ele><time>2022-02-05T11:01:27Z</time></trkpt>
<trkpt lat="45.982107" lon="11.288759"><ele>585.27</ele><time>2022-02-05T11:01:29Z</time></trkpt>
<trkpt lat="45.982368" lon="11.289464"><ele>593.23</ele><time>2022-02-05T11:01:31Z</time></trkpt>
<trkpt lat="45.982438" lon="11.289573"><ele>590.12</ele><time>2022-02-05T11:01:33Z</time></trkpt>
<trkpt lat="45.982484" lon="11.28972"><ele>587.87</ele><time>2022-02-05T11:01:35Z</time></trkpt>
<trkpt lat="45.982461" lon="11.289792"><ele>588.56</ele><time>2022-02-05T11:01:38Z</time></trkpt>
<trkpt lat="45.982287" lon="11.290082"><ele>595.42</ele><time>2022-02-05T11:01:40Z</time></trkpt>
<trkpt lat="45.982076" lon="11.290608"><ele>606.13</ele><time>2022-02-05T11:01:42Z</time></trkpt>
<trkpt lat="45.981911" lon="11.29097"><ele>610.22</ele><time>2022-02-05T11:01:44Z</time></trkpt>
<trkpt lat="45.981858" lon="11.291196"><ele>613.22</ele><time>2022-02-05T11:01:46Z</time></trkpt>
<trkpt lat="45.981904" lon="11.291354"><ele>610.12</ele><time>2022-02-05T11:01:48Z</time></trkpt>
<trkpt lat="45.982096" lon="11.291674"><ele>605.03</ele><time>2022-02-05T11:01:50Z</time></trkpt>
<trkpt lat="45.9822" lon="11.292078"><ele>606.41</ele><time>2022-02-05T11:01:52Z</time></trkpt>
<trkpt lat="45.982291" lon="11.292834"><ele>624.59</ele><time>2022-02-05T11:01:54Z</time></trkpt>
<trkpt lat="45.982501" lon="11.293667"><ele>635.36</ele><time>2022-02-05T11:01:56Z</time></trkpt>
<trkpt lat="45.9827" lon="11.294237"><ele>634.94</ele><time>2022-02-05T11:01:58Z</time></trkpt>
<trkpt lat="45.98266" lon="11.295306"><ele>649.04</ele><time>2022-02-05T11:02:00Z</time></trkpt>
<trkpt lat="45.982795" lon="11.295799"><ele>652.36</ele><time>2022-02-05T11:02:02Z</time></trkpt>
<trkpt lat="45.983056" lon="11.296387"><ele>653.89</ele><time>2022-02-05T11:02:05Z</time></trkpt>
<trkpt lat="45.983472" lon="11.298056"><ele>660.52</ele><time>2022-02-05T11:02:07Z</time></trkpt>
<trkpt lat="45.98368" lon="11.298578"><ele>662.58</ele><time>2022-02-05T11:02:09Z</time></trkpt>
<trkpt lat="45.983705" lon="11.298714"><ele>662.54</ele><time>2022-02-05T11:02:11Z</time></trkpt>
<trkpt lat="45.983698" lon="11.298772"><ele>662.91</ele><time>2022-02-05T11:02:13Z</time></trkpt>
<trkpt lat="45.983675" lon="11.298804"><ele>663.79</ele><time>2022-02-05T11:02:15Z</time></trkpt>
<trkpt lat="45.983663" lon="11.298726"><ele>664.09</ele><time>2022-02-05T11:02:16Z</time></trkpt>
<trkpt lat="45.983627" lon="11.298632"><ele>665.39</ele><time>2022-02-05T11:02:18Z</time></trkpt>
<trkpt lat="45.983056" lon="11.29789"><ele>672.2</ele><time>2022-02-05T11:02:19Z</time></trkpt>
<trkpt lat="45.982761" lon="11.297551"><ele>680.04</ele><time>2022-02-05T11:02:21Z</time></trkpt>
<trkpt lat="45.982568" lon="11.29736"><ele>683.53</ele><time>2022-02-05T11:02:22Z</time></trkpt>
<trkpt lat="45.98241" lon="11.297125"><ele>686.38</ele><time>2022-02-05T11:02:24Z</time></trkpt>
<trkpt lat="45.982243" lon="11.296798"><ele>688.98</ele><time>2022-02-05T11:02:25Z</time></trkpt>
<trkpt lat="45.98206" lon="11.296593"><ele>692.2</ele><time>2022-02-05T11:02:27Z</time></trkpt>
<trkpt lat="45.981938" lon="11.296376"><ele>691.04</ele><time>2022-02-05T11:02:28Z</time></trkpt>
<trkpt lat="45.981723" lon="11.295675"><ele>693.58</ele><time>2022-02-05T11:02:29Z</time></trkpt>
<trkpt lat="45.981381" lon="11.294277"><ele>698.32</ele><time>2022-02-05T11:02:31Z</time></trkpt>
<trkpt lat="45.981314" lon="11.294142"><ele>698.58</ele><time>2022-02-05T11:02:32Z</time></trkpt>
<trkpt lat="45.98126" lon="11.294102"><ele>699.63</ele><time>2022-02-05T11:02:34Z</time></trkpt>
<trkpt lat="45.981065" lon="11.294027"><ele>704.77</ele><time>2022-02-05T11:02:35Z</time></trkpt>
<trkpt lat="45.98095" lon="11.293928"><ele>707.12</ele><time>2022-02-05T11:02:37Z</time></trkpt>
<trkpt lat="45.980835" lon="11.293715"><ele>706.92</ele><time>2022-02-05T11:02:38Z</time></trkpt>
<trkpt lat="45.980715" lon="11.293265"><ele>702.6</ele><time>2022-02-05T11:02:40Z</time></trkpt>
<trkpt lat="45.980568" lon="11.292914"><ele>709.1</ele><time>2022-02-05T11:02:41Z</time></trkpt>
<trkpt lat="45.980514" lon="11.292881"><ele>714.41</ele><time>2022-02-05T11:02:43Z</time></trkpt>
<trkpt lat="45.980454" lon="11.292911"><ele>720.96</ele><time>2022-02-05T11:02:44Z</time></trkpt>
<trkpt lat="45.980423" lon="11.29302"><ele>725.34</ele><time>2022-02-05T11:02:45Z</time></trkpt>
<trkpt lat="45.980558" lon="11.293406"><ele>722.4</ele><time>2022-02-05T11:02:47Z</time></trkpt>
<trkpt lat="45.980591" lon="11.293582"><ele>725.6</ele><time>2022-02-05T11:02:48Z</time></trkpt>
<trkpt lat="45.980626" lon="11.294082"><ele>733.07</ele><time>2022-02-05T11:02:50Z</time></trkpt>
<trkpt lat="45.980731" lon="11.294301"><ele>731.49</ele><time>2022-02-05T11:02:51Z</time></trkpt>
<trkpt lat="45.98092" lon="11.2946"><ele>727.96</ele><time>2022-02-05T11:02:53Z</time></trkpt>
<trkpt lat="45.980987" lon="11.294788"><ele>727.69</ele><time>2022-02-05T11:02:54Z</time></trkpt>
<trkpt lat="45.981009" lon="11.294991"><ele>729.2</ele><time>2022-02-05T11:02:56Z</time></trkpt>
<trkpt lat="45.980961" lon="11.295887"><ele>736.88</ele><time>2022-02-05T11:02:57Z</time></trkpt>
<trkpt lat="45.980966" lon="11.296264"><ele>741.48</ele><time>2022-02-05T11:02:59Z</time></trkpt>
<trkpt lat="45.981029" lon="11.297422"><ele>744.94</ele><time>2022-02-05T11:03:00Z</time></trkpt>
<trkpt lat="45.980972" lon="11.297649"><ele>745.05</ele><time>2022-02-05T11:03:01Z</time></trkpt>
<trkpt lat="45.980817" lon="11.297989"><ele>751.74</ele><time>2022-02-05T11:03:03Z</time></trkpt>
<trkpt lat="45.980353" lon="11.29915"><ele>760.23</ele><time>2022-02-05T11:03:04Z</time></trkpt>
<trkpt lat="45.980336" lon="11.299286"><ele>763.91</ele><time>2022-02-05T11:03:06Z</time></trkpt>
<trkpt lat="45.980362" lon="11.299861"><ele>768.54</ele><time>2022-02-05T11:03:07Z</time></trkpt>
<trkpt lat="45.980336" lon="11.299929"><ele>771.51</ele><time>2022-02-05T11:03:09Z</time></trkpt>
<trkpt lat="45.98026" lon="11.299958"><ele>779.66</ele><time>2022-02-05T11:03:10Z</time></trkpt>
<trkpt lat="45.980209" lon="11.299881"><ele>785.03</ele><time>2022-02-05T11:03:12Z</time></trkpt>
<trkpt lat="45.980174" lon="11.299133"><ele>778.82</ele><time>2022-02-05T11:03:13Z</time></trkpt>
<trkpt lat="45.980474" lon="11.29783"><ele>774.84</ele><time>2022-02-05T11:03:14Z</time></trkpt>
<trkpt lat="45.980468" lon="11.29754"><ele>777.42</ele><time>2022-02-05T11:03:16Z</time></trkpt>
<trkpt lat="45.980234" lon="11.296857"><ele>790.83</ele><time>2022-02-05T11:03:17Z</time></trkpt>
<trkpt lat="45.980148" lon="11.296519"><ele>797.18</ele><time>2022-02-05T11:03:19Z</time></trkpt>
<trkpt lat="45.979959" lon="11.295518"><ele>796.57</ele><time>2022-02-05T11:03:20Z</time></trkpt>
<trkpt lat="45.979914" lon="11.295362"><ele>799.3</ele><time>2022-02-05T11:03:22Z</time></trkpt>
<trkpt lat="45.979147" lon="11.294069"><ele>825.42</ele><time>2022-02-05T11:03:23Z</time></trkpt>
<trkpt lat="45.979066" lon="11.293876"><ele>828.54</ele><time>2022-02-05T11:03:25Z</time></trkpt>
<trkpt lat="45.979028" lon="11.293678"><ele>829.75</ele><time>2022-02-05T11:03:26Z</time></trkpt>
<trkpt lat="45.979021" lon="11.293483"><ele>830.41</ele><time>2022-02-05T11:03:28Z</time></trkpt>
<trkpt lat="45.979092" lon="11.292789"><ele>827.67</ele><time>2022-02-05T11:03:29Z</time></trkpt>
<trkpt lat="45.979115" lon="11.29232"><ele>826.91</ele><time>2022-02-05T11:03:30Z</time></trkpt>
<trkpt lat="45.979114" lon="11.291972"><ele>827.06</ele><time>2022-02-05T11:03:32Z</time></trkpt>
<trkpt lat="45.979094" lon="11.291873"><ele>827.53</ele><time>2022-02-05T11:03:33Z</time></trkpt>
<trkpt lat="45.979041" lon="11.291747"><ele>829.73</ele><time>2022-02-05T11:03:35Z</time></trkpt>
<trkpt lat="45.978932" lon="11.291559"><ele>834.59</ele><time>2022-02-05T11:03:36Z</time></trkpt>
<trkpt lat="45.978783" lon="11.291361"><ele>844.82</ele><time>2022-02-05T11:03:38Z</time></trkpt>
<trkpt lat="45.978544" lon="11.290985"><ele>857.82</ele><time>2022-02-05T11:03:39Z</time></trkpt>
<trkpt lat="45.978505" lon="11.290832"><ele>857.62</ele><time>2022-02-05T11:03:41Z</time></trkpt>
<trkpt lat="45.978545" lon="11.290531"><ele>854.2</ele><time>2022-02-05T11:03:42Z</time></trkpt>
<trkpt lat="45.978528" lon="11.290233"><ele>857.52</ele><time>2022-02-05T11:03:44Z</time></trkpt>
<trkpt lat="45.978555" lon="11.290069"><ele>856.59</ele><time>2022-02-05T11:03:45Z</time></trkpt>
<trkpt lat="45.978715" lon="11.289623"><ele>850.62</ele><time>2022-02-05T11:03:46Z</time></trkpt>
<trkpt lat="45.978897" lon="11.289305"><ele>843.64</ele><time>2022-02-05T11:03:48Z</time></trkpt>
<trkpt lat="45.978913" lon="11.289167"><ele>842.97</ele><time>2022-02-05T11:03:49Z</time></trkpt>
<trkpt lat="45.978905" lon="11.288972"><ele>842.58</ele><time>2022-02-05T11:03:51Z</time></trkpt>
<trkpt lat="45.978824" lon="11.28874"><ele>841.49</ele><time>2022-02-05T11:03:52Z</time></trkpt>
<trkpt lat="45.978763" lon="11.2887"><ele>841.0</ele><time>2022-02-05T11:03:54Z</time></trkpt>
<trkpt lat="45.978512" lon="11.288965"><ele>851.8</ele><time>2022-02-05T11:03:55Z</time></trkpt>
<trkpt lat="45.978193" lon="11.289008"><ele>855.88</ele><time>2022-02-05T11:03:57Z</time></trkpt>
<trkpt lat="45.977961" lon="11.289133"><ele>865.31</ele><time>2022-02-05T11:03:58Z</time></trkpt>
<trkpt lat="45.977705" lon="11.289169"><ele>876.52</ele><time>2022-02-05T11:04:00Z</time></trkpt>
<trkpt lat="45.977455" lon="11.288929"><ele>884.79</ele><time>2022-02-05T11:04:01Z</time></trkpt>
<trkpt lat="45.977298" lon="11.288869"><ele>900.8</ele><time>2022-02-05T11:04:02Z</time></trkpt>
<trkpt lat="45.977226" lon="11.288808"><ele>903.11</ele><time>2022-02-05T11:04:04Z</time></trkpt>
<trkpt lat="45.977209" lon="11.288715"><ele>895.94</ele><time>2022-02-05T11:04:05Z</time></trkpt>
<trkpt lat="45.977211" lon="11.288516"><ele>880.92</ele><time>2022-02-05T11:04:07Z</time></trkpt>
<trkpt lat="45.977229" lon="11.287979"><ele>851.29</ele><time>2022-02-05T11:04:08Z</time></trkpt>
<trkpt lat="45.977206" lon="11.28785"><ele>852.55</ele><time>2022-02-05T11:04:10Z</time></trkpt>
<trkpt lat="45.977039" lon="11.287772"><ele>877.08</ele><time>2022-02-05T11:04:11Z</time></trkpt>
<trkpt lat="45.976811" lon="11.28756"><ele>899.05</ele><time>2022-02-05T11:04:13Z</time></trkpt>
<trkpt lat="45.976702" lon="11.287366"><ele>895.32</ele><time>2022-02-05T11:04:14Z</time></trkpt>
<trkpt lat="45.976596" lon="11.286963"><ele>865.45</ele><time>2022-02-05T11:04:15Z</time></trkpt>
<trkpt lat="45.976461" lon="11.286663"><ele>863.86</ele><time>2022-02-05T11:04:17Z</time></trkpt>
<trkpt lat="45.976433" lon="11.286386"><ele>853.93</ele><time>2022-02-05T11:04:18Z</time></trkpt>
<trkpt lat="45.976383" lon="11.28624"><ele>853.36</ele><time>2022-02-05T11:04:20Z</time></trkpt>
<trkpt lat="45.976314" lon="11.28619"><ele>853.0</ele><time>2022-02-05T11:04:21Z</time></trkpt>
<trkpt lat="45.976255" lon="11.286207"><ele>854.59</ele><time>2022-02-05T11:04:23Z</time></trkpt>
<trkpt lat="45.976046" lon="11.286447"><ele>873.23</ele><time>2022-02-05T11:04:24Z</time></trkpt>
<trkpt lat="45.975838" lon="11.286641"><ele>886.09</ele><time>2022-02-05T11:04:26Z</time></trkpt>
<trkpt lat="45.975752" lon="11.286661"><ele>885.19</ele><time>2022-02-05T11:04:27Z</time></trkpt>
<trkpt lat="45.975604" lon="11.286566"><ele>872.32</ele><time>2022-02-05T11:04:29Z</time></trkpt>
<trkpt lat="45.975554" lon="11.286584"><ele>872.18</ele><time>2022-02-05T11:04:30Z</time></trkpt>
<trkpt lat="45.975431" lon="11.286718"><ele>876.32</ele><time>2022-02-05T11:04:31Z</time></trkpt>
<trkpt lat="45.975309" lon="11.286888"><ele>884.69</ele><time>2022-02-05T11:04:33Z</time></trkpt>
<trkpt lat="45.975225" lon="11.287275"><ele>903.39</ele><time>2022-02-05T11:04:34Z</time></trkpt>
<trkpt lat="45.975186" lon="11.287349"><ele>904.91</ele><time>2022-02-05T11:04:36Z</time></trkpt>
<trkpt lat="45.9751" lon="11.287369"><ele>903.18</ele><time>2022-02-05T11:04:37Z</time></trkpt>
<trkpt lat="45.974977" lon="11.287349"><ele>898.93</ele><time>2022-02-05T11:04:39Z</time></trkpt>
<trkpt lat="45.974875" lon="11.287433"><ele>899.55</ele><time>2022-02-05T11:04:40Z</time></trkpt>
<trkpt lat="45.974689" lon="11.287638"><ele>905.46</ele><time>2022-02-05T11:04:42Z</time></trkpt>
<trkpt lat="45.974524" lon="11.287649"><ele>905.98</ele><time>2022-02-05T11:04:43Z</time></trkpt>
<trkpt lat="45.974198" lon="11.287625"><ele>908.32</ele><time>2022-02-05T11:04:45Z</time></trkpt>
<trkpt lat="45.973899" lon="11.287576"><ele>909.87</ele><time>2022-02-05T11:04:46Z</time></trkpt>
<trkpt lat="45.973873" lon="11.287638"><ele>912.52</ele><time>2022-02-05T11:04:47Z</time></trkpt>
<trkpt lat="45.973872" lon="11.287702"><ele>914.99</ele><time>2022-02-05T11:04:49Z</time></trkpt>
<trkpt lat="45.97392" lon="11.287725"><ele>915.73</ele><time>2022-02-05T11:04:50Z</time></trkpt>
<trkpt lat="45.974106" lon="11.287759"><ele>916.26</ele><time>2022-02-05T11:04:52Z</time></trkpt>
<trkpt lat="45.974747" lon="11.288096"><ele>926.9</ele><time>2022-02-05T11:04:53Z</time></trkpt>
<trkpt lat="45.974857" lon="11.288094"><ele>927.49</ele><time>2022-02-05T11:04:55Z</time></trkpt>
<trkpt lat="45.974971" lon="11.288016"><ele>924.06</ele><time>2022-02-05T11:04:56Z</time></trkpt>
<trkpt lat="45.975172" lon="11.287821"><ele>921.01</ele><time>2022-02-05T11:04:58Z</time></trkpt>
<trkpt lat="45.975254" lon="11.287819"><ele>923.8</ele><time>2022-02-05T11:04:59Z</time></trkpt>
<trkpt lat="45.975383" lon="11.287929"><ele>930.09</ele><time>2022-02-05T11:05:00Z</time></trkpt>
<trkpt lat="45.975491" lon="11.287916"><ele>930.79</ele><time>2022-02-05T11:05:02Z</time></trkpt>
<trkpt lat="45.975632" lon="11.287764"><ele>930.11</ele><time>2022-02-05T11:05:03Z</time></trkpt>
<trkpt lat="45.975926" lon="11.287184"><ele>918.26</ele><time>2022-02-05T11:05:05Z</time></trkpt>
<trkpt lat="45.976211" lon="11.287066"><ele>907.44</ele><time>2022-02-05T11:05:06Z</time></trkpt>
<trkpt lat="45.976253" lon="11.287091"><ele>906.37</ele><time>2022-02-05T11:05:08Z</time></trkpt>
<trkpt lat="45.976264" lon="11.287135"><ele>908.84</ele><time>2022-02-05T11:05:09Z</time></trkpt>
<trkpt lat="45.97623" lon="11.287178"><ele>914.13</ele><time>2022-02-05T11:05:11Z</time></trkpt>
<trkpt lat="45.976098" lon="11.287233"><ele>925.25</ele><time>2022-02-05T11:05:12Z</time></trkpt>
<trkpt lat="45.976046" lon="11.287301"><ele>927.41</ele><time>2022-02-05T11:05:14Z</time></trkpt>
<trkpt lat="45.975761" lon="11.287985"><ele>944.96</ele><time>2022-02-05T11:05:15Z</time></trkpt>
<trkpt lat="45.975605" lon="11.288183"><ele>944.38</ele><time>2022-02-05T11:05:16Z</time></trkpt>
<trkpt lat="45.975418" lon="11.288287"><ele>944.59</ele><time>2022-02-05T11:05:18Z</time></trkpt>
<trkpt lat="45.975324" lon="11.288417"><ele>948.62</ele><time>2022-02-05T11:05:19Z</time></trkpt>
<trkpt lat="45.975277" lon="11.288541"><ele>952.53</ele><time>2022-02-05T11:05:21Z</time></trkpt>
<trkpt lat="45.975204" lon="11.288654"><ele>964.13</ele><time>2022-02-05T11:05:22Z</time></trkpt>
<trkpt lat="45.975002" lon="11.288651"><ele>980.44</ele><time>2022-02-05T11:05:24Z</time></trkpt>
<trkpt lat="45.974656" lon="11.288497"><ele>967.47</ele><time>2022-02-05T11:05:25Z</time></trkpt>
<trkpt lat="45.974466" lon="11.288487"><ele>977.51</ele><time>2022-02-05T11:05:27Z</time></trkpt>
<trkpt lat="45.974291" lon="11.288519"><ele>977.09</ele><time>2022-02-05T11:05:28Z</time></trkpt>
<trkpt lat="45.974171" lon="11.28847"><ele>967.39</ele><time>2022-02-05T11:05:30Z</time></trkpt>
<trkpt lat="45.97402" lon="11.288462"><ele>965.78</ele><time>2022-02-05T11:05:31Z</time></trkpt>
<trkpt lat="45.973574" lon="11.288738"><ele>974.05</ele><time>2022-02-05T11:05:32Z</time></trkpt>
<trkpt lat="45.973461" lon="11.288849"><ele>986.8</ele><time>2022-02-05T11:05:34Z</time></trkpt>
<trkpt lat="45.97326" lon="11.288858"><ele>994.1</ele><time>2022-02-05T11:05:35Z</time></trkpt>
<trkpt lat="45.973016" lon="11.288815"><ele>988.44</ele><time>2022-02-05T11:05:37Z</time></trkpt>
<trkpt lat="45.972741" lon="11.288832"><ele>975.5</ele><time>2022-02-05T11:05:38Z</time></trkpt>
<trkpt lat="45.972436" lon="11.288798"><ele>978.77</ele><time>2022-02-05T11:05:40Z</time></trkpt>
<trkpt lat="45.9724" lon="11.288852"><ele>982.78</ele><time>2022-02-05T11:05:41Z</time></trkpt>
<trkpt lat="45.972419" lon="11.288929"><ele>988.7</ele><time>2022-02-05T11:05:43Z</time></trkpt>
<trkpt lat="45.972539" lon="11.28892"><ele>987.09</ele><time>2022-02-05T11:05:44Z</time></trkpt>
<trkpt lat="45.973825" lon="11.289167"><ele>1021.05</ele><time>2022-02-05T11:05:45Z</time></trkpt>
<trkpt lat="45.973926" lon="11.289286"><ele>1033.22</ele><time>2022-02-05T11:05:47Z</time></trkpt>
<trkpt lat="45.974021" lon="11.289277"><ele>1034.24</ele><time>2022-02-05T11:05:48Z</time></trkpt>
<trkpt lat="45.9741" lon="11.28923"><ele>1031.96</ele><time>2022-02-05T11:05:50Z</time></trkpt>
<trkpt lat="45.974161" lon="11.288974"><ele>1012.66</ele><time>2022-02-05T11:05:51Z</time></trkpt>
<trkpt lat="45.974249" lon="11.288776"><ele>999.33</ele><time>2022-02-05T11:05:53Z</time></trkpt>
<trkpt lat="45.974554" lon="11.288828"><ele>1013.14</ele><time>2022-02-05T11:05:54Z</time></trkpt>
<trkpt lat="45.97465" lon="11.28893"><ele>1023.08</ele><time>2022-02-05T11:05:56Z</time></trkpt>
<trkpt lat="45.974783" lon="11.289207"><ele>1029.13</ele><time>2022-02-05T11:05:57Z</time></trkpt>
<trkpt lat="45.974943" lon="11.289295"><ele>1028.93</ele><time>2022-02-05T11:05:59Z</time></trkpt>
<trkpt lat="45.975175" lon="11.289462"><ele>1034.8</ele><time>2022-02-05T11:06:00Z</time></trkpt>
<trkpt lat="45.97529" lon="11.28972"><ele>1055.13</ele><time>2022-02-05T11:06:01Z</time></trkpt>
<trkpt lat="45.975435" lon="11.28986"><ele>1049.27</ele><time>2022-02-05T11:06:03Z</time></trkpt>
<trkpt lat="45.975621" lon="11.289936"><ele>1042.42</ele><time>2022-02-05T11:06:04Z</time></trkpt>
<trkpt lat="45.975782" lon="11.289884"><ele>1034.95</ele><time>2022-02-05T11:06:06Z</time></trkpt>
<trkpt lat="45.975927" lon="11.289797"><ele>1027.78</ele><time>2022-02-05T11:06:07Z</time></trkpt>
<trkpt lat="45.976104" lon="11.289639"><ele>1019.1</ele><time>2022-02-05T11:06:09Z</time></trkpt>
<trkpt lat="45.976201" lon="11.289623"><ele>1016.19</ele><time>2022-02-05T11:06:10Z</time></trkpt>
<trkpt lat="45.976246" lon="11.289756"><ele>1018.8</ele><time>2022-02-05T11:06:12Z</time></trkpt>
<trkpt lat="45.976218" lon="11.289884"><ele>1024.29</ele><time>2022-02-05T11:06:13Z</time></trkpt>
<trkpt lat="45.976112" lon="11.289934"><ele>1030.36</ele><time>2022-02-05T11:06:15Z</time></trkpt>
<trkpt lat="45.975988" lon="11.28995"><ele>1033.14</ele><time>2022-02-05T11:06:16Z</time></trkpt>
<trkpt lat="45.975713" lon="11.290179"><ele>1049.56</ele><time>2022-02-05T11:06:17Z</time></trkpt>
<trkpt lat="45.975577" lon="11.290172"><ele>1052.87</ele><time>2022-02-05T11:06:19Z</time></trkpt>
<trkpt lat="45.975138" lon="11.289853"><ele>1056.08</ele><time>2022-02-05T11:06:20Z</time></trkpt>
<trkpt lat="45.975019" lon="11.289792"><ele>1053.27</ele><time>2022-02-05T11:06:22Z</time></trkpt>
<trkpt lat="45.974635" lon="11.289803"><ele>1052.5</ele><time>2022-02-05T11:06:23Z</time></trkpt>
<trkpt lat="45.974503" lon="11.289925"><ele>1059.72</ele><time>2022-02-05T11:06:25Z</time></trkpt>
<trkpt lat="45.974438" lon="11.290069"><ele>1065.2</ele><time>2022-02-05T11:06:26Z</time></trkpt>
<trkpt lat="45.974344" lon="11.290163"><ele>1071.17</ele><time>2022-02-05T11:06:28Z</time></trkpt>
<trkpt lat="45.974027" lon="11.290107"><ele>1079.27</ele><time>2022-02-05T11:06:29Z</time></trkpt>
<trkpt lat="45.973832" lon="11.289858"><ele>1070.52</ele><time>2022-02-05T11:06:31Z</time></trkpt>
<trkpt lat="45.973606" lon="11.289747"><ele>1067.15</ele><time>2022-02-05T11:06:32Z</time></trkpt>
<trkpt lat="45.9735" lon="11.289729"><ele>1061.59</ele><time>2022-02-05T11:06:33Z</time></trkpt>
<trkpt lat="45.973411" lon="11.289792"><ele>1061.32</ele><time>2022-02-05T11:06:35Z</time></trkpt>
<trkpt lat="45.973061" lon="11.290638"><ele>1098.37</ele><time>2022-02-05T11:06:36Z</time></trkpt>
<trkpt lat="45.972953" lon="11.290779"><ele>1101.43</ele><time>2022-02-05T11:06:38Z</time></trkpt>
<trkpt lat="45.972073" lon="11.291106"><ele>1102.35</ele><time>2022-02-05T11:06:39Z</time></trkpt>
<trkpt lat="45.971988" lon="11.291189"><ele>1109.41</ele><time>2022-02-05T11:06:41Z</time></trkpt>
<trkpt lat="45.971787" lon="11.291481"><ele>1127.51</ele><time>2022-02-05T11:06:42Z</time></trkpt>
<trkpt lat="45.971634" lon="11.29158"><ele>1131.95</ele><time>2022-02-05T11:06:44Z</time></trkpt>
<trkpt lat="45.971425" lon="11.291625"><ele>1130.09</ele><time>2022-02-05T11:06:45Z</time></trkpt>
<trkpt lat="45.970585" lon="11.292005"><ele>1144.16</ele><time>2022-02-05T11:06:46Z</time></trkpt>
<trkpt lat="45.970253" lon="11.292077"><ele>1143.72</ele><time>2022-02-05T11:06:48Z</time></trkpt>
<trkpt lat="45.970103" lon="11.292067"><ele>1142.98</ele><time>2022-02-05T11:06:49Z</time></trkpt>
<trkpt lat="45.969884" lon="11.29193"><ele>1139.96</ele><time>2022-02-05T11:06:51Z</time></trkpt>
<trkpt lat="45.969721" lon="11.291938"><ele>1140.77</ele><time>2022-02-05T11:06:52Z</time></trkpt>
<trkpt lat="45.969516" lon="11.292016"><ele>1140.65</ele><time>2022-02-05T11:06:54Z</time></trkpt>
<trkpt lat="45.969339" lon="11.29218"><ele>1143.84</ele><time>2022-02-05T11:06:55Z</time></trkpt>
<trkpt lat="45.969247" lon="11.292441"><ele>1154.41</ele><time>2022-02-05T11:06:57Z</time></trkpt>
<trkpt lat="45.969244" lon="11.292549"><ele>1160.11</ele><time>2022-02-05T11:06:58Z</time></trkpt>
<trkpt lat="45.969287" lon="11.29259"><ele>1163.05</ele><time>2022-02-05T11:07:00Z</time></trkpt>
<trkpt lat="45.969335" lon="11.292554"><ele>1161.89</ele><time>2022-02-05T11:07:01Z</time></trkpt>
<trkpt lat="45.969358" lon="11.292432"><ele>1156.13</ele><time>2022-02-05T11:07:02Z</time></trkpt>
<trkpt lat="45.969437" lon="11.292264"><ele>1149.75</ele><time>2022-02-05T11:07:04Z</time></trkpt>
<trkpt lat="45.969537" lon="11.292207"><ele>1147.8</ele><time>2022-02-05T11:07:05Z</time></trkpt>
<trkpt lat="45.969641" lon="11.292201"><ele>1148.02</ele><time>2022-02-05T11:07:07Z</time></trkpt>
<trkpt lat="45.969729" lon="11.292311"><ele>1152.09</ele><time>2022-02-05T11:07:08Z</time></trkpt>
<trkpt lat="45.969823" lon="11.292774"><ele>1170.02</ele><time>2022-02-05T11:07:10Z</time></trkpt>
<trkpt lat="45.96998" lon="11.29297"><ele>1179.64</ele><time>2022-02-05T11:07:11Z</time></trkpt>
<trkpt lat="45.97017" lon="11.292983"><ele>1180.18</ele><time>2022-02-05T11:07:13Z</time></trkpt>
<trkpt lat="45.970797" lon="11.292936"><ele>1184.71</ele><time>2022-02-05T11:07:14Z</time></trkpt>
<trkpt lat="45.971007" lon="11.292826"><ele>1182.74</ele><time>2022-02-05T11:07:16Z</time></trkpt>
<trkpt lat="45.97115" lon="11.292603"><ele>1176.27</ele><time>2022-02-05T11:07:17Z</time></trkpt>
<trkpt lat="45.971421" lon="11.292518"><ele>1183.95</ele><time>2022-02-05T11:07:18Z</time></trkpt>
<trkpt lat="45.971725" lon="11.292497"><ele>1187.05</ele><time>2022-02-05T11:07:20Z</time></trkpt>
<trkpt lat="45.971745" lon="11.292545"><ele>1187.56</ele><time>2022-02-05T11:07:21Z</time></trkpt>
<trkpt lat="45.971717" lon="11.292639"><ele>1189.37</ele><time>2022-02-05T11:07:23Z</time></trkpt>
<trkpt lat="45.97135" lon="11.292749"><ele>1187.43</ele><time>2022-02-05T11:07:24Z</time></trkpt>
<trkpt lat="45.971185" lon="11.292929"><ele>1189.47</ele><time>2022-02-05T11:07:26Z</time></trkpt>
<trkpt lat="45.971053" lon="11.293114"><ele>1194.46</ele><time>2022-02-05T11:07:27Z</time></trkpt>
<trkpt lat="45.970884" lon="11.293242"><ele>1197.4</ele><time>2022-02-05T11:07:29Z</time></trkpt>
<trkpt lat="45.969841" lon="11.293701"><ele>1210.25</ele><time>2022-02-05T11:07:30Z</time></trkpt>
<trkpt lat="45.96948" lon="11.293743"><ele>1212.11</ele><time>2022-02-05T11:07:31Z</time></trkpt>
<trkpt lat="45.969205" lon="11.293712"><ele>1219.95</ele><time>2022-02-05T11:07:33Z</time></trkpt>
<trkpt lat="45.968947" lon="11.293615"><ele>1225.22</ele><time>2022-02-05T11:07:34Z</time></trkpt>
<trkpt lat="45.968538" lon="11.293334"><ele>1218.24</ele><time>2022-02-05T11:07:36Z</time></trkpt>
<trkpt lat="45.968391" lon="11.293291"><ele>1214.64</ele><time>2022-02-05T11:07:37Z</time></trkpt>
<trkpt lat="45.968166" lon="11.293361"><ele>1218.54</ele><time>2022-02-05T11:07:39Z</time></trkpt>
<trkpt lat="45.968005" lon="11.293449"><ele>1222.49</ele><time>2022-02-05T11:07:40Z</time></trkpt>
<trkpt lat="45.967958" lon="11.293626"><ele>1229.79</ele><time>2022-02-05T11:07:42Z</time></trkpt>
<trkpt lat="45.96798" lon="11.293836"><ele>1237.71</ele><time>2022-02-05T11:07:43Z</time></trkpt>
<trkpt lat="45.967951" lon="11.294009"><ele>1242.04</ele><time>2022-02-05T11:07:45Z</time></trkpt>
<trkpt lat="45.967889" lon="11.294193"><ele>1245.85</ele><time>2022-02-05T11:07:46Z</time></trkpt>
<trkpt lat="45.967608" lon="11.294595"><ele>1253.16</ele><time>2022-02-05T11:07:47Z</time></trkpt>
<trkpt lat="45.967486" lon="11.294834"><ele>1256.08</ele><time>2022-02-05T11:07:49Z</time></trkpt>
<trkpt lat="45.967366" lon="11.295131"><ele>1260.4</ele><time>2022-02-05T11:07:50Z</time></trkpt>
<trkpt lat="45.967252" lon="11.295295"><ele>1262.84</ele><time>2022-02-05T11:07:52Z</time></trkpt>
<trkpt lat="45.967098" lon="11.295369"><ele>1264.81</ele><time>2022-02-05T11:07:53Z</time></trkpt>
<trkpt lat="45.966925" lon="11.295349"><ele>1267.09</ele><time>2022-02-05T11:07:55Z</time></trkpt>
<trkpt lat="45.966792" lon="11.295212"><ele>1268.92</ele><time>2022-02-05T11:07:56Z</time></trkpt>
<trkpt lat="45.966603" lon="11.294764"><ele>1262.65</ele><time>2022-02-05T11:07:58Z</time></trkpt>
<trkpt lat="45.966526" lon="11.294683"><ele>1261.46</ele><time>2022-02-05T11:07:59Z</time></trkpt>
<trkpt lat="45.966428" lon="11.294625"><ele>1260.57</ele><time>2022-02-05T11:08:01Z</time></trkpt>
<trkpt lat="45.966265" lon="11.294618"><ele>1262.24</ele><time>2022-02-05T11:08:02Z</time></trkpt>
<trkpt lat="45.965699" lon="11.294681"><ele>1275.55</ele><time>2022-02-05T11:08:03Z</time></trkpt>
<trkpt lat="45.965473" lon="11.294792"><ele>1279.51</ele><time>2022-02-05T11:08:05Z</time></trkpt>
<trkpt lat="45.965373" lon="11.294888"><ele>1279.76</ele><time>2022-02-05T11:08:06Z</time></trkpt>
<trkpt lat="45.964984" lon="11.295356"><ele>1276.79</ele><time>2022-02-05T11:08:08Z</time></trkpt>
<trkpt lat="45.964836" lon="11.295692"><ele>1279.01</ele><time>2022-02-05T11:08:09Z</time></trkpt>
<trkpt lat="45.964723" lon="11.295846"><ele>1278.29</ele><time>2022-02-05T11:08:11Z</time></trkpt>
<trkpt lat="45.964314" lon="11.296164"><ele>1270.47</ele><time>2022-02-05T11:08:12Z</time></trkpt>
<trkpt lat="45.964206" lon="11.296266"><ele>1267.63</ele><time>2022-02-05T11:08:14Z</time></trkpt>
<trkpt lat="45.964045" lon="11.296476"><ele>1265.32</ele><time>2022-02-05T11:08:15Z</time></trkpt>
<trkpt lat="45.96391" lon="11.296764"><ele>1265.53</ele><time>2022-02-05T11:08:17Z</time></trkpt>
<trkpt lat="45.963831" lon="11.29701"><ele>1267.26</ele><time>2022-02-05T11:08:18Z</time></trkpt>
<trkpt lat="45.963764" lon="11.297119"><ele>1267.89</ele><time>2022-02-05T11:08:19Z</time></trkpt>
<trkpt lat="45.963636" lon="11.297202"><ele>1267.14</ele><time>2022-02-05T11:08:21Z</time></trkpt>
<trkpt lat="45.963442" lon="11.297233"><ele>1262.73</ele><time>2022-02-05T11:08:22Z</time></trkpt>
<trkpt lat="45.963767" lon="11.297008"><ele>1266.5</ele><time>2022-02-05T11:08:24Z</time></trkpt>
<trkpt lat="45.9638" lon="11.296934"><ele>1265.93</ele><time>2022-02-05T11:08:26Z</time></trkpt>
<trkpt lat="45.963886" lon="11.296586"><ele>1263.09</ele><time>2022-02-05T11:08:27Z</time></trkpt>
<trkpt lat="45.963974" lon="11.296331"><ele>1262.57</ele><time>2022-02-05T11:08:29Z</time></trkpt>
<trkpt lat="45.963981" lon="11.29622"><ele>1262.18</ele><time>2022-02-05T11:08:31Z</time></trkpt>
<trkpt lat="45.963965" lon="11.296131"><ele>1261.46</ele><time>2022-02-05T11:08:32Z</time></trkpt>
<trkpt lat="45.963816" lon="11.295783"><ele>1256.16</ele><time>2022-02-05T11:08:34Z</time></trkpt>
<trkpt lat="45.963672" lon="11.295296"><ele>1252.32</ele><time>2022-02-05T11:08:36Z</time></trkpt>
<trkpt lat="45.963595" lon="11.29497"><ele>1252.14</ele><time>2022-02-05T11:08:37Z</time></trkpt>
<trkpt lat="45.963538" lon="11.294823"><ele>1253.19</ele><time>2022-02-05T11:08:39Z</time></trkpt>
<trkpt lat="45.963481" lon="11.294718"><ele>1253.39</ele><time>2022-02-05T11:08:41Z</time></trkpt>
<trkpt lat="45.963321" lon="11.294548"><ele>1253.11</ele><time>2022-02-05T11:08:42Z</time></trkpt>
<trkpt lat="45.962539" lon="11.294186"><ele>1250.53</ele><time>2022-02-05T11:08:44Z</time></trkpt>
<trkpt lat="45.962268" lon="11.293995"><ele>1248.61</ele><time>2022-02-05T11:08:46Z</time></trkpt>
<trkpt lat="45.96181" lon="11.293576"><ele>1253.47</ele><time>2022-02-05T11:08:47Z</time></trkpt>
<trkpt lat="45.960968" lon="11.293066"><ele>1251.13</ele><time>2022-02-05T11:08:49Z</time></trkpt>
<trkpt lat="45.960867" lon="11.293037"><ele>1250.12</ele><time>2022-02-05T11:08:51Z</time></trkpt>
<trkpt lat="45.960774" lon="11.293039"><ele>1248.4</ele><time>2022-02-05T11:08:53Z</time></trkpt>
<trkpt lat="45.959491" lon="11.293354"><ele>1242.36</ele><time>2022-02-05T11:08:54Z</time></trkpt>
<trkpt lat="45.959401" lon="11.293355"><ele>1241.36</ele><time>2022-02-05T11:08:56Z</time></trkpt>
<trkpt lat="45.959313" lon="11.293324"><ele>1240.45</ele><time>2022-02-05T11:08:58Z</time></trkpt>
<trkpt lat="45.95913" lon="11.293155"><ele>1241.65</ele><time>2022-02-05T11:08:59Z</time></trkpt>
<trkpt lat="45.958725" lon="11.292897"><ele>1240.64</ele><time>2022-02-05T11:09:01Z</time></trkpt>
<trkpt lat="45.958265" lon="11.292654"><ele>1244.63</ele><time>2022-02-05T11:09:03Z</time></trkpt>
<trkpt lat="45.957897" lon="11.292496"><ele>1245.53</ele><time>2022-02-05T11:09:04Z</time></trkpt>
<trkpt lat="45.957539" lon="11.292251"><ele>1247.83</ele><time>2022-02-05T11:09:06Z</time></trkpt>
<trkpt lat="45.957474" lon="11.292227"><ele>1247.89</ele><time>2022-02-05T11:09:08Z</time></trkpt>
<trkpt lat="45.9574" lon="11.292232"><ele>1247.76</ele><time>2022-02-05T11:09:09Z</time></trkpt>
<trkpt lat="45.9571" lon="11.292329"><ele>1245.82</ele><time>2022-02-05T11:09:11Z</time></trkpt>
<trkpt lat="45.956728" lon="11.292474"><ele>1246.08</ele><time>2022-02-05T11:09:13Z</time></trkpt>
<trkpt lat="45.955821" lon="11.292922"><ele>1243.77</ele><time>2022-02-05T11:09:14Z</time></trkpt>
<trkpt lat="45.955692" lon="11.293005"><ele>1240.96</ele><time>2022-02-05T11:09:16Z</time></trkpt>
<trkpt lat="45.955571" lon="11.293125"><ele>1238.69</ele><time>2022-02-05T11:09:18Z</time></trkpt>
<trkpt lat="45.955512" lon="11.293225"><ele>1237.79</ele><time>2022-02-05T11:09:19Z</time></trkpt>
<trkpt lat="45.955399" lon="11.293498"><ele>1235.7</ele><time>2022-02-05T11:09:21Z</time></trkpt>
<trkpt lat="45.955315" lon="11.2936"><ele>1235.63</ele><time>2022-02-05T11:09:23Z</time></trkpt>
<trkpt lat="45.954864" lon="11.293913"><ele>1235.28</ele><time>2022-02-05T11:09:24Z</time></trkpt>
<trkpt lat="45.954363" lon="11.294435"><ele>1226.97</ele><time>2022-02-05T11:09:26Z</time></trkpt>
<trkpt lat="45.954298" lon="11.294467"><ele>1228.08</ele><time>2022-02-05T11:09:28Z</time></trkpt>
<trkpt lat="45.95411" lon="11.294505"><ele>1231.31</ele><time>2022-02-05T11:09:29Z</time></trkpt>
<trkpt lat="45.953977" lon="11.294491"><ele>1232.65</ele><time>2022-02-05T11:09:31Z</time></trkpt>
<trkpt lat="45.951416" lon="11.294574"><ele>1232.9</ele><time>2022-02-05T11:09:33Z</time></trkpt>
<trkpt lat="45.950524" lon="11.294785"><ele>1241.53</ele><time>2022-02-05T11:09:34Z</time></trkpt>
<trkpt lat="45.949758" lon="11.295019"><ele>1245.33</ele><time>2022-02-05T11:09:36Z</time></trkpt>
<trkpt lat="45.949324" lon="11.295269"><ele>1245.02</ele><time>2022-02-05T11:09:38Z</time></trkpt>
<trkpt lat="45.94878" lon="11.295489"><ele>1248.37</ele><time>2022-02-05T11:09:39Z</time></trkpt>
<trkpt lat="45.948507" lon="11.295578"><ele>1248.27</ele><time>2022-02-05T11:09:41Z</time></trkpt>
<trkpt lat="45.948223" lon="11.2956"><ele>1247.59</ele><time>2022-02-05T11:09:43Z</time></trkpt>
<trkpt lat="45.9475" lon="11.295388"><ele>1254.2</ele><time>2022-02-05T11:09:44Z</time></trkpt>
<trkpt lat="45.947057" lon="11.295039"><ele>1257.48</ele><time>2022-02-05T11:09:46Z</time></trkpt>
<trkpt lat="45.946414" lon="11.294055"><ele>1264.25</ele><time>2022-02-05T11:09:48Z</time></trkpt>
<trkpt lat="45.94615" lon="11.29378"><ele>1260.22</ele><time>2022-02-05T11:09:49Z</time></trkpt>
<trkpt lat="45.946069" lon="11.293672"><ele>1259.07</ele><time>2022-02-05T11:09:51Z</time></trkpt>
<trkpt lat="45.94602" lon="11.293557"><ele>1258.67</ele><time>2022-02-05T11:09:53Z</time></trkpt>
<trkpt lat="45.946025" lon="11.293412"><ele>1258.69</ele><time>2022-02-05T11:09:55Z</time></trkpt>
<trkpt lat="45.94614" lon="11.292937"><ele>1260.58</ele><time>2022-02-05T11:09:56Z</time></trkpt>
<trkpt lat="45.946177" lon="11.292647"><ele>1263.37</ele><time>2022-02-05T11:09:58Z</time></trkpt>
<trkpt lat="45.946163" lon="11.29223"><ele>1263.85</ele><time>2022-02-05T11:10:00Z</time></trkpt>
<trkpt lat="45.946093" lon="11.29209"><ele>1262.95</ele><time>2022-02-05T11:10:01Z</time></trkpt>
<trkpt lat="45.945958" lon="11.292025"><ele>1263.42</ele><time>2022-02-05T11:10:03Z</time></trkpt>
<trkpt lat="45.945755" lon="11.291995"><ele>1264.43</ele><time>2022-02-05T11:10:05Z</time></trkpt>
<trkpt lat="45.945576" lon="11.291911"><ele>1266.91</ele><time>2022-02-05T11:10:06Z</time></trkpt>
<trkpt lat="45.945495" lon="11.291799"><ele>1267.85</ele><time>2022-02-05T11:10:08Z</time></trkpt>
<trkpt lat="45.945323" lon="11.291648"><ele>1269.94</ele><time>2022-02-05T11:10:10Z</time></trkpt>
<trkpt lat="45.945209" lon="11.291636"><ele>1271.69</ele><time>2022-02-05T11:10:11Z</time></trkpt>
<trkpt lat="45.945091" lon="11.291704"><ele>1272.83</ele><time>2022-02-05T11:10:13Z</time></trkpt>
<trkpt lat="45.944904" lon="11.291909"><ele>1272.5</ele><time>2022-02-05T11:10:15Z</time></trkpt>
<trkpt lat="45.944401" lon="11.292156"><ele>1271.17</ele><time>2022-02-05T11:10:16Z</time></trkpt>
<trkpt lat="45.943979" lon="11.292253"><ele>1273.47</ele><time>2022-02-05T11:10:18Z</time></trkpt>
<trkpt lat="45.943433" lon="11.292485"><ele>1280.82</ele><time>2022-02-05T11:10:20Z</time></trkpt>
<trkpt lat="45.943049" lon="11.292821"><ele>1280.17</ele><time>2022-02-05T11:10:21Z</time></trkpt>
<trkpt lat="45.942934" lon="11.292874"><ele>1280.83</ele><time>2022-02-05T11:10:23Z</time></trkpt>
<trkpt lat="45.942807" lon="11.292872"><ele>1282.85</ele><time>2022-02-05T11:10:25Z</time></trkpt>
<trkpt lat="45.942471" lon="11.292799"><ele>1286.59</ele><time>2022-02-05T11:10:26Z</time></trkpt>
<trkpt lat="45.942016" lon="11.293064"><ele>1284.09</ele><time>2022-02-05T11:10:28Z</time></trkpt>
<trkpt lat="45.941806" lon="11.293087"><ele>1285.77</ele><time>2022-02-05T11:10:30Z</time></trkpt>
<trkpt lat="45.94166" lon="11.293"><ele>1286.82</ele><time>2022-02-05T11:10:31Z</time></trkpt>
<trkpt lat="45.941586" lon="11.292878"><ele>1286.46</ele><time>2022-02-05T11:10:33Z</time></trkpt>
<trkpt lat="45.941584" lon="11.292594"><ele>1286.2</ele><time>2022-02-05T11:10:35Z</time></trkpt>
<trkpt lat="45.941657" lon="11.292411"><ele>1286.35</ele><time>2022-02-05T11:10:36Z</time></trkpt>
<trkpt lat="45.941924" lon="11.292121"><ele>1287.64</ele><time>2022-02-05T11:10:38Z</time></trkpt>
<trkpt lat="45.941944" lon="11.292043"><ele>1287.35</ele><time>2022-02-05T11:10:40Z</time></trkpt>
<trkpt lat="45.94195" lon="11.291911"><ele>1287.01</ele><time>2022-02-05T11:10:41Z</time></trkpt>
<trkpt lat="45.941906" lon="11.29182"><ele>1287.4</ele><time>2022-02-05T11:10:43Z</time></trkpt>
<trkpt lat="45.941837" lon="11.29178"><ele>1288.23</ele><time>2022-02-05T11:10:45Z</time></trkpt>
<trkpt lat="45.941708" lon="11.291816"><ele>1289.38</ele><time>2022-02-05T11:10:46Z</time></trkpt>
<trkpt lat="45.941708" lon="11.291816"><ele>1289.38</ele><time>2022-02-05T11:10:46Z</time></trkpt>
<trkpt lat="45.941557" lon="11.291858"><ele>1290.53</ele><time>2022-02-05T11:10:48Z</time></trkpt>
<trkpt lat="45.940734" lon="11.29237"><ele>1292.29</ele><time>2022-02-05T11:10:50Z</time></trkpt>
<trkpt lat="45.940457" lon="11.292486"><ele>1291.41</ele><time>2022-02-05T11:10:52Z</time></trkpt>
<trkpt lat="45.940217" lon="11.292451"><ele>1290.42</ele><time>2022-02-05T11:10:54Z</time></trkpt>
<trkpt lat="45.93994" lon="11.29225"><ele>1294.22</ele><time>2022-02-05T11:10:56Z</time></trkpt>
<trkpt lat="45.939824" lon="11.292208"><ele>1294.65</ele><time>2022-02-05T11:10:58Z</time></trkpt>
<trkpt lat="45.939618" lon="11.292213"><ele>1294.54</ele><time>2022-02-05T11:11:00Z</time></trkpt>
<trkpt lat="45.93936" lon="11.292105"><ele>1296.92</ele><time>2022-02-05T11:11:01Z</time></trkpt>
<trkpt lat="45.939171" lon="11.291874"><ele>1299.24</ele><time>2022-02-05T11:11:03Z</time></trkpt>
<trkpt lat="45.939105" lon="11.291575"><ele>1300.66</ele><time>2022-02-05T11:11:05Z</time></trkpt>
<trkpt lat="45.939092" lon="11.291021"><ele>1300.77</ele><time>2022-02-05T11:11:07Z</time></trkpt>
<trkpt lat="45.939059" lon="11.290927"><ele>1300.21</ele><time>2022-02-05T11:11:09Z</time></trkpt>
<trkpt lat="45.938932" lon="11.290721"><ele>1299.21</ele><time>2022-02-05T11:11:11Z</time></trkpt>
<trkpt lat="45.937793" lon="11.28964"><ele>1295.18</ele><time>2022-02-05T11:11:13Z</time></trkpt>
<trkpt lat="45.937672" lon="11.289424"><ele>1294.05</ele><time>2022-02-05T11:11:15Z</time></trkpt>
<trkpt lat="45.937596" lon="11.289057"><ele>1296.83</ele><time>2022-02-05T11:11:16Z</time></trkpt>
<trkpt lat="45.937537" lon="11.287618"><ele>1303.42</ele><time>2022-02-05T11:11:18Z</time></trkpt>
<trkpt lat="45.937494" lon="11.287335"><ele>1303.59</ele><time>2022-02-05T11:11:20Z</time></trkpt>
<trkpt lat="45.937296" lon="11.286829"><ele>1303.78</ele><time>2022-02-05T11:11:22Z</time></trkpt>
<trkpt lat="45.937301" lon="11.286725"><ele>1303.55</ele><time>2022-02-05T11:11:24Z</time></trkpt>
<trkpt lat="45.937348" lon="11.286547"><ele>1301.34</ele><time>2022-02-05T11:11:26Z</time></trkpt>
<trkpt lat="45.937975" lon="11.285823"><ele>1302.66</ele><time>2022-02-05T11:11:28Z</time></trkpt>
<trkpt lat="45.938024" lon="11.285714"><ele>1302.69</ele><time>2022-02-05T11:11:30Z</time></trkpt>
<trkpt lat="45.938057" lon="11.28557"><ele>1301.28</ele><time>2022-02-05T11:11:31Z</time></trkpt>
<trkpt lat="45.93804" lon="11.28543"><ele>1299.58</ele><time>2022-02-05T11:11:33Z</time></trkpt>
<trkpt lat="45.937941" lon="11.28517"><ele>1294.98</ele><time>2022-02-05T11:11:35Z</time></trkpt>
<trkpt lat="45.937922" lon="11.285015"><ele>1293.77</ele><time>2022-02-05T11:11:37Z</time></trkpt>
<trkpt lat="45.937936" lon="11.284833"><ele>1293.07</ele><time>2022-02-05T11:11:39Z</time></trkpt>
<trkpt lat="45.938009" lon="11.284403"><ele>1290.24</ele><time>2022-02-05T11:11:41Z</time></trkpt>
<trkpt lat="45.938108" lon="11.284044"><ele>1287.14</ele><time>2022-02-05T11:11:43Z</time></trkpt>
<trkpt lat="45.938231" lon="11.283792"><ele>1284.47</ele><time>2022-02-05T11:11:45Z</time></trkpt>
<trkpt lat="45.938361" lon="11.28358"><ele>1282.9</ele><time>2022-02-05T11:11:46Z</time></trkpt>
<trkpt lat="45.938861" lon="11.283053"><ele>1292.42</ele><time>2022-02-05T11:11:48Z</time></trkpt>
<trkpt lat="45.938956" lon="11.282869"><ele>1292.32</ele><time>2022-02-05T11:11:50Z</time></trkpt>
<trkpt lat="45.939436" lon="11.281111"><ele>1260.8</ele><time>2022-02-05T11:11:52Z</time></trkpt>
<trkpt lat="45.939533" lon="11.280898"><ele>1259.24</ele><time>2022-02-05T11:11:54Z</time></trkpt>
<trkpt lat="45.939713" lon="11.280866"><ele>1259.67</ele><time>2022-02-05T11:11:56Z</time></trkpt>
<trkpt lat="45.93993" lon="11.280976"><ele>1262.83</ele><time>2022-02-05T11:11:58Z</time></trkpt>
<trkpt lat="45.940119" lon="11.280992"><ele>1263.07</ele><time>2022-02-05T11:12:00Z</time></trkpt>
<trkpt lat="45.940295" lon="11.280899"><ele>1259.76</ele><time>2022-02-05T11:12:01Z</time></trkpt>
<trkpt lat="45.940676" lon="11.28052"><ele>1252.29</ele><time>2022-02-05T11:12:03Z</time></trkpt>
<trkpt lat="45.941303" lon="11.27958"><ele>1247.87</ele><time>2022-02-05T11:12:05Z</time></trkpt>
<trkpt lat="45.941409" lon="11.279306"><ele>1245.91</ele><time>2022-02-05T11:12:07Z</time></trkpt>
<trkpt lat="45.941395" lon="11.279098"><ele>1244.38</ele><time>2022-02-05T11:12:09Z</time></trkpt>
<trkpt lat="45.941361" lon="11.278992"><ele>1243.93</ele><time>2022-02-05T11:12:11Z</time></trkpt>
<trkpt lat="45.941297" lon="11.278903"><ele>1242.35</ele><time>2022-02-05T11:12:13Z</time></trkpt>
<trkpt lat="45.941223" lon="11.278871"><ele>1240.22</ele><time>2022-02-05T11:12:15Z</time></trkpt>
<trkpt lat="45.940794" lon="11.279103"><ele>1234.43</ele><time>2022-02-05T11:12:16Z</time></trkpt>
<trkpt lat="45.94072" lon="11.279113"><ele>1234.28</ele><time>2022-02-05T11:12:18Z</time></trkpt>
<trkpt lat="45.940633" lon="11.279079"><ele>1233.88</ele><time>2022-02-05T11:12:20Z</time></trkpt>
<trkpt lat="45.940563" lon="11.279024"><ele>1233.5</ele><time>2022-02-05T11:12:22Z</time></trkpt>
<trkpt lat="45.940503" lon="11.278946"><ele>1233.62</ele><time>2022-02-05T11:12:24Z</time></trkpt>
<trkpt lat="45.940391" lon="11.278636"><ele>1231.99</ele><time>2022-02-05T11:12:26Z</time></trkpt>
<trkpt lat="45.940286" lon="11.278434"><ele>1229.71</ele><time>2022-02-05T11:12:28Z</time></trkpt>
<trkpt lat="45.939985" lon="11.277997"><ele>1224.0</ele><time>2022-02-05T11:12:30Z</time></trkpt>
<trkpt lat="45.939849" lon="11.277935"><ele>1223.37</ele><time>2022-02-05T11:12:31Z</time></trkpt>
<trkpt lat="45.939701" lon="11.277928"><ele>1223.78</ele><time>2022-02-05T11:12:33Z</time></trkpt>
<trkpt lat="45.939639" lon="11.277905"><ele>1223.59</ele><time>2022-02-05T11:12:35Z</time></trkpt>
<trkpt lat="45.939599" lon="11.277859"><ele>1222.9</ele><time>2022-02-05T11:12:37Z</time></trkpt>
<trkpt lat="45.939582" lon="11.277781"><ele>1221.56</ele><time>2022-02-05T11:12:39Z</time></trkpt>
<trkpt lat="45.9396" lon="11.277687"><ele>1219.84</ele><time>2022-02-05T11:12:41Z</time></trkpt>
<trkpt lat="45.939655" lon="11.277625"><ele>1218.78</ele><time>2022-02-05T11:12:43Z</time></trkpt>
<trkpt lat="45.939741" lon="11.277617"><ele>1218.61</ele><time>2022-02-05T11:12:44Z</time></trkpt>
<trkpt lat="45.940114" lon="11.277694"><ele>1218.5</ele><time>2022-02-05T11:12:46Z</time></trkpt>
<trkpt lat="45.940189" lon="11.277693"><ele>1218.3</ele><time>2022-02-05T11:12:48Z</time></trkpt>
<trkpt lat="45.940222" lon="11.277671"><ele>1217.97</ele><time>2022-02-05T11:12:50Z</time></trkpt>
<trkpt lat="45.940373" lon="11.27749"><ele>1216.6</ele><time>2022-02-05T11:12:52Z</time></trkpt>
<trkpt lat="45.940498" lon="11.277241"><ele>1216.27</ele><time>2022-02-05T11:12:54Z</time></trkpt>
<trkpt lat="45.940627" lon="11.276673"><ele>1210.64</ele><time>2022-02-05T11:12:56Z</time></trkpt>
<trkpt lat="45.940581" lon="11.276473"><ele>1206.78</ele><time>2022-02-05T11:12:58Z</time></trkpt>
<trkpt lat="45.939898" lon="11.27542"><ele>1199.31</ele><time>2022-02-05T11:12:59Z</time></trkpt>
<trkpt lat="45.939548" lon="11.274863"><ele>1196.91</ele><time>2022-02-05T11:13:01Z</time></trkpt>
<trkpt lat="45.939431" lon="11.274632"><ele>1193.31</ele><time>2022-02-05T11:13:03Z</time></trkpt>
<trkpt lat="45.939319" lon="11.274685"><ele>1190.64</ele><time>2022-02-05T11:13:06Z</time></trkpt>
<trkpt lat="45.939262" lon="11.274753"><ele>1189.58</ele><time>2022-02-05T11:13:09Z</time></trkpt>
<trkpt lat="45.939039" lon="11.275148"><ele>1188.01</ele><time>2022-02-05T11:13:12Z</time></trkpt>
<trkpt lat="45.93898" lon="11.275207"><ele>1187.64</ele><time>2022-02-05T11:13:15Z</time></trkpt>
<trkpt lat="45.938917" lon="11.275225"><ele>1186.85</ele><time>2022-02-05T11:13:17Z</time></trkpt>
<trkpt lat="45.938842" lon="11.275216"><ele>1185.65</ele><time>2022-02-05T11:13:20Z</time></trkpt>
<trkpt lat="45.938229" lon="11.274959"><ele>1176.54</ele><time>2022-02-05T11:13:23Z</time></trkpt>
<trkpt lat="45.938088" lon="11.274968"><ele>1175.21</ele><time>2022-02-05T11:13:26Z</time></trkpt>
<trkpt lat="45.937686" lon="11.274935"><ele>1174.08</ele><time>2022-02-05T11:13:29Z</time></trkpt>
<trkpt lat="45.937427" lon="11.274853"><ele>1174.0</ele><time>2022-02-05T11:13:31Z</time></trkpt>
<trkpt lat="45.937333" lon="11.274779"><ele>1173.59</ele><time>2022-02-05T11:13:34Z</time></trkpt>
<trkpt lat="45.936889" lon="11.274342"><ele>1169.8</ele><time>2022-02-05T11:13:37Z</time></trkpt>
<trkpt lat="45.936734" lon="11.274253"><ele>1169.24</ele><time>2022-02-05T11:13:40Z</time></trkpt>
<trkpt lat="45.936683" lon="11.274253"><ele>1169.06</ele><time>2022-02-05T11:13:43Z</time></trkpt>
<trkpt lat="45.936637" lon="11.274283"><ele>1169.11</ele><time>2022-02-05T11:13:45Z</time></trkpt>
<trkpt lat="45.936598" lon="11.27442"><ele>1169.25</ele><time>2022-02-05T11:13:48Z</time></trkpt>
<trkpt lat="45.936507" lon="11.274885"><ele>1168.74</ele><time>2022-02-05T11:13:51Z</time></trkpt>
<trkpt lat="45.936445" lon="11.275341"><ele>1169.02</ele><time>2022-02-05T11:13:54Z</time></trkpt>
<trkpt lat="45.936348" lon="11.275608"><ele>1171.21</ele><time>2022-02-05T11:13:57Z</time></trkpt>
<trkpt lat="45.936052" lon="11.276169"><ele>1170.94</ele><time>2022-02-05T11:14:00Z</time></trkpt>
<trkpt lat="45.934903" lon="11.278709"><ele>1166.19</ele><time>2022-02-05T11:14:02Z</time></trkpt>
<trkpt lat="45.934826" lon="11.279008"><ele>1167.91</ele><time>2022-02-05T11:14:05Z</time></trkpt>
<trkpt lat="45.93473" lon="11.279833"><ele>1172.42</ele><time>2022-02-05T11:14:08Z</time></trkpt>
<trkpt lat="45.934624" lon="11.280207"><ele>1173.98</ele><time>2022-02-05T11:14:11Z</time></trkpt>
<trkpt lat="45.934425" lon="11.280686"><ele>1175.76</ele><time>2022-02-05T11:14:14Z</time></trkpt>
<trkpt lat="45.934217" lon="11.281026"><ele>1178.01</ele><time>2022-02-05T11:14:16Z</time></trkpt>
<trkpt lat="45.933949" lon="11.281253"><ele>1179.02</ele><time>2022-02-05T11:14:19Z</time></trkpt>
<trkpt lat="45.932315" lon="11.282362"><ele>1168.5</ele><time>2022-02-05T11:14:22Z</time></trkpt>
<trkpt lat="45.932075" lon="11.282447"><ele>1165.61</ele><time>2022-02-05T11:14:25Z</time></trkpt>
<trkpt lat="45.93174" lon="11.282527"><ele>1166.36</ele><time>2022-02-05T11:14:28Z</time></trkpt>
<trkpt lat="45.931395" lon="11.282699"><ele>1168.83</ele><time>2022-02-05T11:14:31Z</time></trkpt>
<trkpt lat="45.93095" lon="11.28301"><ele>1168.54</ele><time>2022-02-05T11:14:33Z</time></trkpt>
<trkpt lat="45.930456" lon="11.283988"><ele>1164.57</ele><time>2022-02-05T11:14:36Z</time></trkpt>
<trkpt lat="45.930229" lon="11.284225"><ele>1165.35</ele><time>2022-02-05T11:14:39Z</time></trkpt>
<trkpt lat="45.929998" lon="11.284384"><ele>1163.83</ele><time>2022-02-05T11:14:42Z</time></trkpt>
<trkpt lat="45.929705" lon="11.284451"><ele>1166.33</ele><time>2022-02-05T11:14:45Z</time></trkpt>
<trkpt lat="45.928463" lon="11.284241"><ele>1155.01</ele><time>2022-02-05T11:14:47Z</time></trkpt>
<trkpt lat="45.927382" lon="11.283916"><ele>1139.2</ele><time>2022-02-05T11:14:50Z</time></trkpt>
<trkpt lat="45.927257" lon="11.283822"><ele>1137.07</ele><time>2022-02-05T11:14:53Z</time></trkpt>
<trkpt lat="45.926411" lon="11.283064"><ele>1121.54</ele><time>2022-02-05T11:14:56Z</time></trkpt>
<trkpt lat="45.925868" lon="11.282614"><ele>1116.1</ele><time>2022-02-05T11:14:59Z</time></trkpt>
<trkpt lat="45.925825" lon="11.28254"><ele>1115.99</ele><time>2022-02-05T11:15:01Z</time></trkpt>
<trkpt lat="45.925769" lon="11.282192"><ele>1115.89</ele><time>2022-02-05T11:15:04Z</time></trkpt>
<trkpt lat="45.925755" lon="11.281851"><ele>1114.42</ele><time>2022-02-05T11:15:07Z</time></trkpt>
<trkpt lat="45.925875" lon="11.281084"><ele>1111.06</ele><time>2022-02-05T11:15:10Z</time></trkpt>
<trkpt lat="45.92616" lon="11.280048"><ele>1112.52</ele><time>2022-02-05T11:15:13Z</time></trkpt>
<trkpt lat="45.926336" lon="11.279585"><ele>1112.62</ele><time>2022-02-05T11:15:16Z</time></trkpt>
<trkpt lat="45.927501" lon="11.277002"><ele>1113.42</ele><time>2022-02-05T11:15:18Z</time></trkpt>
<trkpt lat="45.92785" lon="11.276503"><ele>1113.09</ele><time>2022-02-05T11:15:21Z</time></trkpt>
<trkpt lat="45.927987" lon="11.276234"><ele>1113.42</ele><time>2022-02-05T11:15:24Z</time></trkpt>
<trkpt lat="45.928116" lon="11.27587"><ele>1114.03</ele><time>2022-02-05T11:15:27Z</time></trkpt>
<trkpt lat="45.928237" lon="11.275427"><ele>1113.03</ele><time>2022-02-05T11:15:30Z</time></trkpt>
<trkpt lat="45.928276" lon="11.275065"><ele>1110.09</ele><time>2022-02-05T11:15:32Z</time></trkpt>
<trkpt lat="45.928272" lon="11.27484"><ele>1108.96</ele><time>2022-02-05T11:15:35Z</time></trkpt>
<trkpt lat="45.928122" lon="11.273909"><ele>1109.02</ele><time>2022-02-05T11:15:38Z</time></trkpt>
<trkpt lat="45.927293" lon="11.271613"><ele>1099.43</ele><time>2022-02-05T11:15:41Z</time></trkpt>
<trkpt lat="45.927242" lon="11.271395"><ele>1097.33</ele><time>2022-02-05T11:15:44Z</time></trkpt>
<trkpt lat="45.927262" lon="11.271178"><ele>1096.05</ele><time>2022-02-05T11:15:46Z</time></trkpt>
<trkpt lat="45.927496" lon="11.27004"><ele>1095.21</ele><time>2022-02-05T11:15:49Z</time></trkpt>
<trkpt lat="45.927483" lon="11.26841"><ele>1090.97</ele><time>2022-02-05T11:15:52Z</time></trkpt>
<trkpt lat="45.92752" lon="11.268225"><ele>1089.22</ele><time>2022-02-05T11:15:55Z</time></trkpt>
<trkpt lat="45.927585" lon="11.268067"><ele>1087.1</ele><time>2022-02-05T11:15:58Z</time></trkpt>
<trkpt lat="45.92833" lon="11.267434"><ele>1080.98</ele><time>2022-02-05T11:16:01Z</time></trkpt>
<trkpt lat="45.928472" lon="11.267292"><ele>1083.0</ele><time>2022-02-05T11:16:03Z</time></trkpt>
<trkpt lat="45.928683" lon="11.266981"><ele>1082.96</ele><time>2022-02-05T11:16:06Z</time></trkpt>
<trkpt lat="45.928781" lon="11.266787"><ele>1081.74</ele><time>2022-02-05T11:16:09Z</time></trkpt>
<trkpt lat="45.928862" lon="11.266517"><ele>1080.84</ele><time>2022-02-05T11:16:12Z</time></trkpt>
<trkpt lat="45.928857" lon="11.265749"><ele>1071.28</ele><time>2022-02-05T11:16:15Z</time></trkpt>
<trkpt lat="45.928885" lon="11.265576"><ele>1069.25</ele><time>2022-02-05T11:16:17Z</time></trkpt>
<trkpt lat="45.929077" lon="11.265072"><ele>1069.69</ele><time>2022-02-05T11:16:20Z</time></trkpt>
<trkpt lat="45.929057" lon="11.264816"><ele>1069.39</ele><time>2022-02-05T11:16:23Z</time></trkpt>
<trkpt lat="45.929007" lon="11.26447"><ele>1068.07</ele><time>2022-02-05T11:16:26Z</time></trkpt>
<trkpt lat="45.928815" lon="11.263471"><ele>1056.63</ele><time>2022-02-05T11:16:29Z</time></trkpt>
<trkpt lat="45.928793" lon="11.263198"><ele>1054.16</ele><time>2022-02-05T11:16:32Z</time></trkpt>
<trkpt lat="45.929066" lon="11.261319"><ele>1055.07</ele><time>2022-02-05T11:16:34Z</time></trkpt>
<trkpt lat="45.929058" lon="11.261191"><ele>1054.45</ele><time>2022-02-05T11:16:37Z</time></trkpt>
<trkpt lat="45.929032" lon="11.261079"><ele>1053.42</ele><time>2022-02-05T11:16:40Z</time></trkpt>
<trkpt lat="45.92897" lon="11.260989"><ele>1051.59</ele><time>2022-02-05T11:16:43Z</time></trkpt>
<trkpt lat="45.928833" lon="11.260889"><ele>1047.48</ele><time>2022-02-05T11:16:46Z</time></trkpt>
<trkpt lat="45.92784" lon="11.2603"><ele>1036.11</ele><time>2022-02-05T11:16:48Z</time></trkpt>
<trkpt lat="45.927733" lon="11.260172"><ele>1033.32</ele><time>2022-02-05T11:16:51Z</time></trkpt>
<trkpt lat="45.927658" lon="11.260041"><ele>1031.08</ele><time>2022-02-05T11:16:54Z</time></trkpt>
<trkpt lat="45.927606" lon="11.259854"><ele>1028.53</ele><time>2022-02-05T11:16:57Z</time></trkpt>
<trkpt lat="45.927596" lon="11.259725"><ele>1027.82</ele><time>2022-02-05T11:17:00Z</time></trkpt>
<trkpt lat="45.927605" lon="11.259581"><ele>1027.52</ele><time>2022-02-05T11:17:02Z</time></trkpt>
<trkpt lat="45.927783" lon="11.258602"><ele>1030.58</ele><time>2022-02-05T11:17:05Z</time></trkpt>
<trkpt lat="45.927806" lon="11.258395"><ele>1037.22</ele><time>2022-02-05T11:17:08Z</time></trkpt>
<trkpt lat="45.927842" lon="11.257737"><ele>1045.71</ele><time>2022-02-05T11:17:11Z</time></trkpt>
<trkpt lat="45.927858" lon="11.257607"><ele>1045.0</ele><time>2022-02-05T11:17:14Z</time></trkpt>
<trkpt lat="45.927926" lon="11.257362"><ele>1045.25</ele><time>2022-02-05T11:17:17Z</time></trkpt>
<trkpt lat="45.927924" lon="11.257265"><ele>1044.84</ele><time>2022-02-05T11:17:19Z</time></trkpt>
<trkpt lat="45.928215" lon="11.257072"><ele>1051.86</ele><time>2022-02-05T11:17:21Z</time></trkpt>
<trkpt lat="45.928275" lon="11.256928"><ele>1051.21</ele><time>2022-02-05T11:17:23Z</time></trkpt>
<trkpt lat="45.928298" lon="11.256794"><ele>1047.99</ele><time>2022-02-05T11:17:25Z</time></trkpt>
<trkpt lat="45.928211" lon="11.256812"><ele>1045.69</ele><time>2022-02-05T11:17:28Z</time></trkpt>
<trkpt lat="45.928142" lon="11.256766"><ele>1042.41</ele><time>2022-02-05T11:17:30Z</time></trkpt>
<trkpt lat="45.928107" lon="11.256654"><ele>1039.22</ele><time>2022-02-05T11:17:33Z</time></trkpt>
<trkpt lat="45.928097" lon="11.256567"><ele>1038.53</ele><time>2022-02-05T11:17:36Z</time></trkpt>
<trkpt lat="45.928109" lon="11.254601"><ele>1028.01</ele><time>2022-02-05T11:17:38Z</time></trkpt>
<trkpt lat="45.928139" lon="11.254085"><ele>1027.13</ele><time>2022-02-05T11:17:41Z</time></trkpt>
<trkpt lat="45.928268" lon="11.253406"><ele>1022.27</ele><time>2022-02-05T11:17:44Z</time></trkpt>
<trkpt lat="45.928757" lon="11.251573"><ele>1012.38</ele><time>2022-02-05T11:17:46Z</time></trkpt>
<trkpt lat="45.928829" lon="11.251378"><ele>1013.97</ele><time>2022-02-05T11:17:49Z</time></trkpt>
<trkpt lat="45.928934" lon="11.251186"><ele>1014.75</ele><time>2022-02-05T11:17:52Z</time></trkpt>
<trkpt lat="45.929441" lon="11.250525"><ele>1014.9</ele><time>2022-02-05T11:17:54Z</time></trkpt>
<trkpt lat="45.929536" lon="11.250194"><ele>1019.1</ele><time>2022-02-05T11:17:57Z</time></trkpt>
<trkpt lat="45.929595" lon="11.249512"><ele>1016.71</ele><time>2022-02-05T11:18:00Z</time></trkpt>
<trkpt lat="45.92967" lon="11.249092"><ele>1012.85</ele><time>2022-02-05T11:18:02Z</time></trkpt>
<trkpt lat="45.929956" lon="11.248293"><ele>1009.41</ele><time>2022-02-05T11:18:05Z</time></trkpt>
<trkpt lat="45.93022" lon="11.247451"><ele>1007.02</ele><time>2022-02-05T11:18:08Z</time></trkpt>
<trkpt lat="45.930835" lon="11.246063"><ele>1003.54</ele><time>2022-02-05T11:18:10Z</time></trkpt>
<trkpt lat="45.931112" lon="11.245601"><ele>1006.87</ele><time>2022-02-05T11:18:13Z</time></trkpt>
<trkpt lat="45.931309" lon="11.245016"><ele>1003.25</ele><time>2022-02-05T11:18:16Z</time></trkpt>
<trkpt lat="45.931364" lon="11.244986"><ele>1004.13</ele><time>2022-02-05T11:18:17Z</time></trkpt>
<trkpt lat="45.931399" lon="11.244931"><ele>1004.23</ele><time>2022-02-05T11:18:19Z</time></trkpt>
<trkpt lat="45.931549" lon="11.244575"><ele>1002.23</ele><time>2022-02-05T11:18:21Z</time></trkpt>
<trkpt lat="45.931685" lon="11.244358"><ele>1000.96</ele><time>2022-02-05T11:18:23Z</time></trkpt>
<trkpt lat="45.932194" lon="11.243725"><ele>1006.03</ele><time>2022-02-05T11:18:25Z</time></trkpt>
<trkpt lat="45.932577" lon="11.243279"><ele>1015.7</ele><time>2022-02-05T11:18:27Z</time></trkpt>
<trkpt lat="45.933071" lon="11.242782"><ele>1025.65</ele><time>2022-02-05T11:18:28Z</time></trkpt>
<trkpt lat="45.933649" lon="11.241925"><ele>1018.81</ele><time>2022-02-05T11:18:30Z</time></trkpt>
<trkpt lat="45.93377" lon="11.241801"><ele>1019.11</ele><time>2022-02-05T11:18:32Z</time></trkpt>
<trkpt lat="45.934178" lon="11.241466"><ele>1026.26</ele><time>2022-02-05T11:18:34Z</time></trkpt>
<trkpt lat="45.934247" lon="11.241389"><ele>1026.59</ele><time>2022-02-05T11:18:36Z</time></trkpt>
<trkpt lat="45.934353" lon="11.241188"><ele>1029.32</ele><time>2022-02-05T11:18:38Z</time></trkpt>
<trkpt lat="45.934508" lon="11.240669"><ele>1029.06</ele><time>2022-02-05T11:18:40Z</time></trkpt>
<trkpt lat="45.934569" lon="11.240514"><ele>1027.29</ele><time>2022-02-05T11:18:41Z</time></trkpt>
<trkpt lat="45.93467" lon="11.240317"><ele>1027.28</ele><time>2022-02-05T11:18:43Z</time></trkpt>
<trkpt lat="45.934851" lon="11.240023"><ele>1028.16</ele><time>2022-02-05T11:18:45Z</time></trkpt>
<trkpt lat="45.936144" lon="11.238219"><ele>1037.48</ele><time>2022-02-05T11:18:47Z</time></trkpt>
<trkpt lat="45.936278" lon="11.238009"><ele>1039.77</ele><time>2022-02-05T11:18:49Z</time></trkpt>
<trkpt lat="45.936369" lon="11.237823"><ele>1039.33</ele><time>2022-02-05T11:18:51Z</time></trkpt>
<trkpt lat="45.936615" lon="11.237049"><ele>1040.42</ele><time>2022-02-05T11:18:52Z</time></trkpt>
<trkpt lat="45.936645" lon="11.23688"><ele>1041.89</ele><time>2022-02-05T11:18:54Z</time></trkpt>
<trkpt lat="45.93665" lon="11.236748"><ele>1043.01</ele><time>2022-02-05T11:18:56Z</time></trkpt>
<trkpt lat="45.936554" lon="11.23584"><ele>1038.47</ele><time>2022-02-05T11:18:58Z</time></trkpt>
<trkpt lat="45.936535" lon="11.234261"><ele>1047.37</ele><time>2022-02-05T11:19:00Z</time></trkpt>
<trkpt lat="45.936518" lon="11.234092"><ele>1047.68</ele><time>2022-02-05T11:19:02Z</time></trkpt>
<trkpt lat="45.936443" lon="11.233806"><ele>1048.1</ele><time>2022-02-05T11:19:04Z</time></trkpt>
<trkpt lat="45.936004" lon="11.232679"><ele>1051.86</ele><time>2022-02-05T11:19:05Z</time></trkpt>
<trkpt lat="45.935903" lon="11.232511"><ele>1052.14</ele><time>2022-02-05T11:19:07Z</time></trkpt>
<trkpt lat="45.934891" lon="11.231169"><ele>1062.76</ele><time>2022-02-05T11:19:09Z</time></trkpt>
<trkpt lat="45.93478" lon="11.231038"><ele>1063.84</ele><time>2022-02-05T11:19:11Z</time></trkpt>
<trkpt lat="45.934677" lon="11.23095"><ele>1065.0</ele><time>2022-02-05T11:19:13Z</time></trkpt>
<trkpt lat="45.934585" lon="11.230901"><ele>1066.24</ele><time>2022-02-05T11:19:15Z</time></trkpt>
<trkpt lat="45.934235" lon="11.23083"><ele>1062.8</ele><time>2022-02-05T11:19:16Z</time></trkpt>
<trkpt lat="45.93412" lon="11.230766"><ele>1061.82</ele><time>2022-02-05T11:19:18Z</time></trkpt>
<trkpt lat="45.934028" lon="11.230683"><ele>1061.51</ele><time>2022-02-05T11:19:20Z</time></trkpt>
<trkpt lat="45.93396" lon="11.230586"><ele>1061.66</ele><time>2022-02-05T11:19:22Z</time></trkpt>
<trkpt lat="45.933867" lon="11.230358"><ele>1059.54</ele><time>2022-02-05T11:19:24Z</time></trkpt>
<trkpt lat="45.933851" lon="11.230184"><ele>1058.84</ele><time>2022-02-05T11:19:26Z</time></trkpt>
<trkpt lat="45.933858" lon="11.230033"><ele>1058.45</ele><time>2022-02-05T11:19:27Z</time></trkpt>
<trkpt lat="45.93399" lon="11.229404"><ele>1062.8</ele><time>2022-02-05T11:19:29Z</time></trkpt>
<trkpt lat="45.934177" lon="11.228495"><ele>1065.89</ele><time>2022-02-05T11:19:31Z</time></trkpt>
<trkpt lat="45.934263" lon="11.228208"><ele>1065.85</ele><time>2022-02-05T11:19:33Z</time></trkpt>
<trkpt lat="45.934307" lon="11.228139"><ele>1066.16</ele><time>2022-02-05T11:19:35Z</time></trkpt>
<trkpt lat="45.934751" lon="11.227735"><ele>1071.48</ele><time>2022-02-05T11:19:37Z</time></trkpt>
<trkpt lat="45.934854" lon="11.227591"><ele>1072.66</ele><time>2022-02-05T11:19:39Z</time></trkpt>
<trkpt lat="45.934875" lon="11.227548"><ele>1072.84</ele><time>2022-02-05T11:19:40Z</time></trkpt>
<trkpt lat="45.934947" lon="11.22724"><ele>1073.35</ele><time>2022-02-05T11:19:42Z</time></trkpt>
<trkpt lat="45.935048" lon="11.226758"><ele>1072.81</ele><time>2022-02-05T11:19:44Z</time></trkpt>
<trkpt lat="45.93427" lon="11.226522"><ele>1078.34</ele><time>2022-02-05T11:19:46Z</time></trkpt>
<trkpt lat="45.9341" lon="11.226417"><ele>1078.9</ele><time>2022-02-05T11:19:48Z</time></trkpt>
<trkpt lat="45.933911" lon="11.226309"><ele>1079.0</ele><time>2022-02-05T11:19:50Z</time></trkpt>
<trkpt lat="45.933339" lon="11.226103"><ele>1085.89</ele><time>2022-02-05T11:19:52Z</time></trkpt>
<trkpt lat="45.93326" lon="11.226045"><ele>1086.02</ele><time>2022-02-05T11:19:54Z</time></trkpt>
<trkpt lat="45.933199" lon="11.225958"><ele>1085.93</ele><time>2022-02-05T11:19:55Z</time></trkpt>
<trkpt lat="45.933135" lon="11.225823"><ele>1085.71</ele><time>2022-02-05T11:19:57Z</time></trkpt>
<trkpt lat="45.932947" lon="11.225178"><ele>1087.09</ele><time>2022-02-05T11:19:59Z</time></trkpt>
<trkpt lat="45.932874" lon="11.225074"><ele>1088.19</ele><time>2022-02-05T11:20:01Z</time></trkpt>
<trkpt lat="45.932744" lon="11.224994"><ele>1090.75</ele><time>2022-02-05T11:20:03Z</time></trkpt>
<trkpt lat="45.932203" lon="11.224784"><ele>1099.84</ele><time>2022-02-05T11:20:05Z</time></trkpt>
<trkpt lat="45.932136" lon="11.224795"><ele>1100.82</ele><time>2022-02-05T11:20:07Z</time></trkpt>
<trkpt lat="45.93207" lon="11.224889"><ele>1102.08</ele><time>2022-02-05T11:20:09Z</time></trkpt>
<trkpt lat="45.931944" lon="11.225871"><ele>1100.75</ele><time>2022-02-05T11:20:11Z</time></trkpt>
<trkpt lat="45.931876" lon="11.225999"><ele>1101.97</ele><time>2022-02-05T11:20:12Z</time></trkpt>
<trkpt lat="45.931823" lon="11.226059"><ele>1103.04</ele><time>2022-02-05T11:20:14Z</time></trkpt>
<trkpt lat="45.931776" lon="11.226077"><ele>1104.25</ele><time>2022-02-05T11:20:16Z</time></trkpt>
<trkpt lat="45.931727" lon="11.226059"><ele>1105.93</ele><time>2022-02-05T11:20:18Z</time></trkpt>
<trkpt lat="45.931643" lon="11.225916"><ele>1110.6</ele><time>2022-02-05T11:20:20Z</time></trkpt>
<trkpt lat="45.931615" lon="11.225662"><ele>1114.1</ele><time>2022-02-05T11:20:22Z</time></trkpt>
<trkpt lat="45.931567" lon="11.225434"><ele>1115.41</ele><time>2022-02-05T11:20:24Z</time></trkpt>
<trkpt lat="45.931452" lon="11.225221"><ele>1117.27</ele><time>2022-02-05T11:20:26Z</time></trkpt>
<trkpt lat="45.931301" lon="11.225026"><ele>1119.01</ele><time>2022-02-05T11:20:28Z</time></trkpt>
<trkpt lat="45.931094" lon="11.224794"><ele>1124.2</ele><time>2022-02-05T11:20:29Z</time></trkpt>
<trkpt lat="45.93095" lon="11.22472"><ele>1128.38</ele><time>2022-02-05T11:20:31Z</time></trkpt>
<trkpt lat="45.930537" lon="11.22464"><ele>1135.03</ele><time>2022-02-05T11:20:33Z</time></trkpt>
<trkpt lat="45.930454" lon="11.224568"><ele>1133.77</ele><time>2022-02-05T11:20:35Z</time></trkpt>
<trkpt lat="45.930418" lon="11.224424"><ele>1132.05</ele><time>2022-02-05T11:20:37Z</time></trkpt>
<trkpt lat="45.93047" lon="11.224269"><ele>1132.33</ele><time>2022-02-05T11:20:39Z</time></trkpt>
<trkpt lat="45.93059" lon="11.22416"><ele>1131.88</ele><time>2022-02-05T11:20:41Z</time></trkpt>
<trkpt lat="45.9312" lon="11.223793"><ele>1131.55</ele><time>2022-02-05T11:20:43Z</time></trkpt>
<trkpt lat="45.931261" lon="11.223734"><ele>1131.56</ele><time>2022-02-05T11:20:44Z</time></trkpt>
<trkpt lat="45.931312" lon="11.22366"><ele>1131.75</ele><time>2022-02-05T11:20:46Z</time></trkpt>
<trkpt lat="45.931336" lon="11.223529"><ele>1133.01</ele><time>2022-02-05T11:20:48Z</time></trkpt>
<trkpt lat="45.93129" lon="11.223465"><ele>1134.93</ele><time>2022-02-05T11:20:50Z</time></trkpt>
<trkpt lat="45.931228" lon="11.223437"><ele>1136.86</ele><time>2022-02-05T11:20:52Z</time></trkpt>
<trkpt lat="45.931146" lon="11.223437"><ele>1138.89</ele><time>2022-02-05T11:20:54Z</time></trkpt>
<trkpt lat="45.930704" lon="11.223543"><ele>1145.14</ele><time>2022-02-05T11:20:56Z</time></trkpt>
<trkpt lat="45.930526" lon="11.223563"><ele>1145.7</ele><time>2022-02-05T11:20:58Z</time></trkpt>
<trkpt lat="45.93037" lon="11.223523"><ele>1144.69</ele><time>2022-02-05T11:21:00Z</time></trkpt>
<trkpt lat="45.930246" lon="11.223328"><ele>1146.74</ele><time>2022-02-05T11:21:01Z</time></trkpt>
<trkpt lat="45.93015" lon="11.223122"><ele>1149.01</ele><time>2022-02-05T11:21:03Z</time></trkpt>
<trkpt lat="45.929954" lon="11.222634"><ele>1152.19</ele><time>2022-02-05T11:21:05Z</time></trkpt>
<trkpt lat="45.929615" lon="11.221651"><ele>1160.29</ele><time>2022-02-05T11:21:07Z</time></trkpt>
<trkpt lat="45.929463" lon="11.221355"><ele>1164.86</ele><time>2022-02-05T11:21:09Z</time></trkpt>
<trkpt lat="45.929312" lon="11.221198"><ele>1166.23</ele><time>2022-02-05T11:21:11Z</time></trkpt>
<trkpt lat="45.928821" lon="11.220803"><ele>1165.88</ele><time>2022-02-05T11:21:13Z</time></trkpt>
<trkpt lat="45.928622" lon="11.22055"><ele>1169.31</ele><time>2022-02-05T11:21:15Z</time></trkpt>
<trkpt lat="45.928449" lon="11.220103"><ele>1177.58</ele><time>2022-02-05T11:21:17Z</time></trkpt>
<trkpt lat="45.928334" lon="11.219926"><ele>1182.69</ele><time>2022-02-05T11:21:18Z</time></trkpt>
<trkpt lat="45.928091" lon="11.219856"><ele>1189.63</ele><time>2022-02-05T11:21:20Z</time></trkpt>
<trkpt lat="45.92768" lon="11.219781"><ele>1198.32</ele><time>2022-02-05T11:21:22Z</time></trkpt>
<trkpt lat="45.927285" lon="11.219736"><ele>1197.02</ele><time>2022-02-05T11:21:24Z</time></trkpt>
<trkpt lat="45.926948" lon="11.219648"><ele>1194.53</ele><time>2022-02-05T11:21:26Z</time></trkpt>
<trkpt lat="45.926496" lon="11.219206"><ele>1201.73</ele><time>2022-02-05T11:21:28Z</time></trkpt>
<trkpt lat="45.926323" lon="11.21908"><ele>1205.13</ele><time>2022-02-05T11:21:30Z</time></trkpt>
<trkpt lat="45.926054" lon="11.21909"><ele>1204.8</ele><time>2022-02-05T11:21:32Z</time></trkpt>
<trkpt lat="45.925866" lon="11.219073"><ele>1204.53</ele><time>2022-02-05T11:21:34Z</time></trkpt>
<trkpt lat="45.925603" lon="11.218968"><ele>1206.77</ele><time>2022-02-05T11:21:35Z</time></trkpt>
<trkpt lat="45.925028" lon="11.21857"><ele>1211.6</ele><time>2022-02-05T11:21:37Z</time></trkpt>
<trkpt lat="45.924802" lon="11.218449"><ele>1207.99</ele><time>2022-02-05T11:21:39Z</time></trkpt>
<trkpt lat="45.924683" lon="11.2183"><ele>1206.33</ele><time>2022-02-05T11:21:41Z</time></trkpt>
<trkpt lat="45.924647" lon="11.218105"><ele>1207.9</ele><time>2022-02-05T11:21:43Z</time></trkpt>
<trkpt lat="45.924627" lon="11.21783"><ele>1211.95</ele><time>2022-02-05T11:21:45Z</time></trkpt>
<trkpt lat="45.924581" lon="11.217592"><ele>1215.76</ele><time>2022-02-05T11:21:47Z</time></trkpt>
<trkpt lat="45.924457" lon="11.21726"><ele>1218.65</ele><time>2022-02-05T11:21:49Z</time></trkpt>
<trkpt lat="45.924333" lon="11.217053"><ele>1220.59</ele><time>2022-02-05T11:21:51Z</time></trkpt>
<trkpt lat="45.924172" lon="11.216866"><ele>1222.77</ele><time>2022-02-05T11:21:52Z</time></trkpt>
<trkpt lat="45.923677" lon="11.216562"><ele>1219.5</ele><time>2022-02-05T11:21:54Z</time></trkpt>
<trkpt lat="45.923625" lon="11.216494"><ele>1219.68</ele><time>2022-02-05T11:21:56Z</time></trkpt>
<trkpt lat="45.923605" lon="11.216402"><ele>1220.68</ele><time>2022-02-05T11:21:58Z</time></trkpt>
<trkpt lat="45.923641" lon="11.21631"><ele>1222.83</ele><time>2022-02-05T11:22:00Z</time></trkpt>
<trkpt lat="45.923708" lon="11.216258"><ele>1224.9</ele><time>2022-02-05T11:22:02Z</time></trkpt>
<trkpt lat="45.923792" lon="11.216275"><ele>1225.8</ele><time>2022-02-05T11:22:04Z</time></trkpt>
<trkpt lat="45.924" lon="11.21647"><ele>1226.82</ele><time>2022-02-05T11:22:06Z</time></trkpt>
<trkpt lat="45.924116" lon="11.216516"><ele>1229.37</ele><time>2022-02-05T11:22:08Z</time></trkpt>
<trkpt lat="45.924383" lon="11.216574"><ele>1234.02</ele><time>2022-02-05T11:22:09Z</time></trkpt>
<trkpt lat="45.924515" lon="11.216648"><ele>1234.74</ele><time>2022-02-05T11:22:11Z</time></trkpt>
<trkpt lat="45.924834" lon="11.216918"><ele>1236.06</ele><time>2022-02-05T11:22:13Z</time></trkpt>
<trkpt lat="45.925132" lon="11.217213"><ele>1241.45</ele><time>2022-02-05T11:22:15Z</time></trkpt>
<trkpt lat="45.925235" lon="11.217241"><ele>1244.3</ele><time>2022-02-05T11:22:17Z</time></trkpt>
<trkpt lat="45.925303" lon="11.217121"><ele>1248.23</ele><time>2022-02-05T11:22:20Z</time></trkpt>
<trkpt lat="45.92527" lon="11.216981"><ele>1250.09</ele><time>2022-02-05T11:22:22Z</time></trkpt>
<trkpt lat="45.924954" lon="11.216706"><ele>1245.47</ele><time>2022-02-05T11:22:24Z</time></trkpt>
<trkpt lat="45.924643" lon="11.216356"><ele>1245.19</ele><time>2022-02-05T11:22:27Z</time></trkpt>
<trkpt lat="45.924547" lon="11.216201"><ele>1247.81</ele><time>2022-02-05T11:22:29Z</time></trkpt>
<trkpt lat="45.924471" lon="11.216011"><ele>1250.46</ele><time>2022-02-05T11:22:32Z</time></trkpt>
<trkpt lat="45.924451" lon="11.215713"><ele>1253.38</ele><time>2022-02-05T11:22:34Z</time></trkpt>
<trkpt lat="45.924433" lon="11.214756"><ele>1261.65</ele><time>2022-02-05T11:22:37Z</time></trkpt>
<trkpt lat="45.924283" lon="11.211459"><ele>1278.4</ele><time>2022-02-05T11:22:39Z</time></trkpt>
<trkpt lat="45.924243" lon="11.209932"><ele>1284.92</ele><time>2022-02-05T11:22:42Z</time></trkpt>
<trkpt lat="45.924262" lon="11.209731"><ele>1286.98</ele><time>2022-02-05T11:22:44Z</time></trkpt>
<trkpt lat="45.924338" lon="11.209547"><ele>1290.33</ele><time>2022-02-05T11:22:47Z</time></trkpt>
<trkpt lat="45.924527" lon="11.209334"><ele>1296.27</ele><time>2022-02-05T11:22:49Z</time></trkpt>
<trkpt lat="45.924827" lon="11.209073"><ele>1304.03</ele><time>2022-02-05T11:22:52Z</time></trkpt>
<trkpt lat="45.924853" lon="11.208909"><ele>1306.55</ele><time>2022-02-05T11:22:54Z</time></trkpt>
<trkpt lat="45.924811" lon="11.208777"><ele>1308.13</ele><time>2022-02-05T11:22:57Z</time></trkpt>
<trkpt lat="45.924746" lon="11.208715"><ele>1307.48</ele><time>2022-02-05T11:22:59Z</time></trkpt>
<trkpt lat="45.924291" lon="11.208672"><ele>1306.99</ele><time>2022-02-05T11:23:02Z</time></trkpt>
<trkpt lat="45.924097" lon="11.208686"><ele>1307.27</ele><time>2022-02-05T11:23:04Z</time></trkpt>
<trkpt lat="45.923976" lon="11.208666"><ele>1308.66</ele><time>2022-02-05T11:23:07Z</time></trkpt>
<trkpt lat="45.923862" lon="11.208613"><ele>1310.73</ele><time>2022-02-05T11:23:09Z</time></trkpt>
<trkpt lat="45.923773" lon="11.208515"><ele>1313.22</ele><time>2022-02-05T11:23:12Z</time></trkpt>
<trkpt lat="45.923597" lon="11.208126"><ele>1325.89</ele><time>2022-02-05T11:23:14Z</time></trkpt>
<trkpt lat="45.923514" lon="11.208044"><ele>1329.27</ele><time>2022-02-05T11:23:17Z</time></trkpt>
<trkpt lat="45.923407" lon="11.208045"><ele>1330.45</ele><time>2022-02-05T11:23:19Z</time></trkpt>
<trkpt lat="45.923338" lon="11.20812"><ele>1329.08</ele><time>2022-02-05T11:23:22Z</time></trkpt>
<trkpt lat="45.923209" lon="11.208503"><ele>1318.89</ele><time>2022-02-05T11:23:24Z</time></trkpt>
<trkpt lat="45.923133" lon="11.208644"><ele>1316.16</ele><time>2022-02-05T11:23:27Z</time></trkpt>
<trkpt lat="45.923024" lon="11.208728"><ele>1315.8</ele><time>2022-02-05T11:23:29Z</time></trkpt>
<trkpt lat="45.922904" lon="11.208729"><ele>1316.39</ele><time>2022-02-05T11:23:32Z</time></trkpt>
<trkpt lat="45.922767" lon="11.208658"><ele>1318.74</ele><time>2022-02-05T11:23:34Z</time></trkpt>
<trkpt lat="45.922227" lon="11.207805"><ele>1333.19</ele><time>2022-02-05T11:23:37Z</time></trkpt>
<trkpt lat="45.922077" lon="11.207598"><ele>1336.67</ele><time>2022-02-05T11:23:39Z</time></trkpt>
<trkpt lat="45.921882" lon="11.207451"><ele>1338.85</ele><time>2022-02-05T11:23:42Z</time></trkpt>
<trkpt lat="45.921613" lon="11.207387"><ele>1340.72</ele><time>2022-02-05T11:23:44Z</time></trkpt>
<trkpt lat="45.921452" lon="11.20741"><ele>1340.61</ele><time>2022-02-05T11:23:47Z</time></trkpt>
<trkpt lat="45.920991" lon="11.207618"><ele>1338.01</ele><time>2022-02-05T11:23:49Z</time></trkpt>
<trkpt lat="45.92078" lon="11.207612"><ele>1337.24</ele><time>2022-02-05T11:23:52Z</time></trkpt>
<trkpt lat="45.920621" lon="11.207506"><ele>1339.08</ele><time>2022-02-05T11:23:54Z</time></trkpt>
<trkpt lat="45.920006" lon="11.206924"><ele>1348.44</ele><time>2022-02-05T11:23:57Z</time></trkpt>
<trkpt lat="45.919959" lon="11.207003"><ele>1348.34</ele><time>2022-02-05T11:23:58Z</time></trkpt>
<trkpt lat="45.919854" lon="11.207085"><ele>1349.88</ele><time>2022-02-05T11:24:00Z</time></trkpt>
<trkpt lat="45.919762" lon="11.207305"><ele>1351.11</ele><time>2022-02-05T11:24:02Z</time></trkpt>
<trkpt lat="45.919739" lon="11.207672"><ele>1350.35</ele><time>2022-02-05T11:24:03Z</time></trkpt>
<trkpt lat="45.919698" lon="11.207845"><ele>1349.58</ele><time>2022-02-05T11:24:05Z</time></trkpt>
<trkpt lat="45.919588" lon="11.208076"><ele>1347.61</ele><time>2022-02-05T11:24:07Z</time></trkpt>
<trkpt lat="45.919502" lon="11.208163"><ele>1347.33</ele><time>2022-02-05T11:24:08Z</time></trkpt>
<trkpt lat="45.919184" lon="11.208383"><ele>1345.8</ele><time>2022-02-05T11:24:10Z</time></trkpt>
<trkpt lat="45.918935" lon="11.208509"><ele>1347.97</ele><time>2022-02-05T11:24:11Z</time></trkpt>
<trkpt lat="45.918551" lon="11.208741"><ele>1353.27</ele><time>2022-02-05T11:24:13Z</time></trkpt>
<trkpt lat="45.918149" lon="11.209022"><ele>1356.26</ele><time>2022-02-05T11:24:15Z</time></trkpt>
<trkpt lat="45.917898" lon="11.209226"><ele>1356.46</ele><time>2022-02-05T11:24:16Z</time></trkpt>
<trkpt lat="45.91759" lon="11.209549"><ele>1350.81</ele><time>2022-02-05T11:24:18Z</time></trkpt>
<trkpt lat="45.917403" lon="11.210039"><ele>1344.56</ele><time>2022-02-05T11:24:20Z</time></trkpt>
<trkpt lat="45.91712" lon="11.210882"><ele>1350.1</ele><time>2022-02-05T11:24:21Z</time></trkpt>
<trkpt lat="45.916944" lon="11.211238"><ele>1349.45</ele><time>2022-02-05T11:24:23Z</time></trkpt>
<trkpt lat="45.916741" lon="11.211465"><ele>1345.63</ele><time>2022-02-05T11:24:24Z</time></trkpt>
<trkpt lat="45.916581" lon="11.211517"><ele>1347.03</ele><time>2022-02-05T11:24:26Z</time></trkpt>
<trkpt lat="45.916236" lon="11.211525"><ele>1351.69</ele><time>2022-02-05T11:24:28Z</time></trkpt>
<trkpt lat="45.915836" lon="11.211406"><ele>1355.27</ele><time>2022-02-05T11:24:29Z</time></trkpt>
<trkpt lat="45.915638" lon="11.21141"><ele>1357.91</ele><time>2022-02-05T11:24:31Z</time></trkpt>
<trkpt lat="45.914298" lon="11.211591"><ele>1359.65</ele><time>2022-02-05T11:24:32Z</time></trkpt>
<trkpt lat="45.913044" lon="11.211848"><ele>1347.55</ele><time>2022-02-05T11:24:34Z</time></trkpt>
<trkpt lat="45.912797" lon="11.211866"><ele>1349.92</ele><time>2022-02-05T11:24:36Z</time></trkpt>
<trkpt lat="45.912589" lon="11.211758"><ele>1348.27</ele><time>2022-02-05T11:24:37Z</time></trkpt>
<trkpt lat="45.912412" lon="11.211418"><ele>1347.16</ele><time>2022-02-05T11:24:39Z</time></trkpt>
<trkpt lat="45.912267" lon="11.211032"><ele>1348.63</ele><time>2022-02-05T11:24:41Z</time></trkpt>
<trkpt lat="45.911971" lon="11.210563"><ele>1353.63</ele><time>2022-02-05T11:24:42Z</time></trkpt>
<trkpt lat="45.911693" lon="11.210214"><ele>1351.86</ele><time>2022-02-05T11:24:44Z</time></trkpt>
<trkpt lat="45.91156" lon="11.20999"><ele>1352.2</ele><time>2022-02-05T11:24:45Z</time></trkpt>
<trkpt lat="45.911464" lon="11.209781"><ele>1353.19</ele><time>2022-02-05T11:24:47Z</time></trkpt>
<trkpt lat="45.91143" lon="11.209516"><ele>1354.44</ele><time>2022-02-05T11:24:49Z</time></trkpt>
<trkpt lat="45.911374" lon="11.209258"><ele>1355.7</ele><time>2022-02-05T11:24:50Z</time></trkpt>
<trkpt lat="45.911209" lon="11.208956"><ele>1355.56</ele><time>2022-02-05T11:24:52Z</time></trkpt>
<trkpt lat="45.910563" lon="11.20792"><ele>1353.3</ele><time>2022-02-05T11:24:54Z</time></trkpt>
<trkpt lat="45.909481" lon="11.206582"><ele>1354.06</ele><time>2022-02-05T11:24:55Z</time></trkpt>
<trkpt lat="45.908896" lon="11.206209"><ele>1354.43</ele><time>2022-02-05T11:24:57Z</time></trkpt>
<trkpt lat="45.908244" lon="11.205836"><ele>1355.66</ele><time>2022-02-05T11:24:58Z</time></trkpt>
<trkpt lat="45.907548" lon="11.205509"><ele>1354.04</ele><time>2022-02-05T11:25:00Z</time></trkpt>
<trkpt lat="45.907295" lon="11.205437"><ele>1349.52</ele><time>2022-02-05T11:25:02Z</time></trkpt>
<trkpt lat="45.906946" lon="11.205403"><ele>1346.31</ele><time>2022-02-05T11:25:03Z</time></trkpt>
<trkpt lat="45.90677" lon="11.205464"><ele>1347.08</ele><time>2022-02-05T11:25:05Z</time></trkpt>
<trkpt lat="45.906602" lon="11.205593"><ele>1346.49</ele><time>2022-02-05T11:25:07Z</time></trkpt>
<trkpt lat="45.906507" lon="11.205764"><ele>1346.1</ele><time>2022-02-05T11:25:08Z</time></trkpt>
<trkpt lat="45.906453" lon="11.20595"><ele>1346.92</ele><time>2022-02-05T11:25:10Z</time></trkpt>
<trkpt lat="45.906397" lon="11.206653"><ele>1356.3</ele><time>2022-02-05T11:25:11Z</time></trkpt>
<trkpt lat="45.906355" lon="11.207936"><ele>1347.0</ele><time>2022-02-05T11:25:13Z</time></trkpt>
<trkpt lat="45.906314" lon="11.208111"><ele>1346.84</ele><time>2022-02-05T11:25:15Z</time></trkpt>
<trkpt lat="45.906202" lon="11.208276"><ele>1346.05</ele><time>2022-02-05T11:25:16Z</time></trkpt>
<trkpt lat="45.906036" lon="11.208377"><ele>1345.94</ele><time>2022-02-05T11:25:18Z</time></trkpt>
<trkpt lat="45.905878" lon="11.208403"><ele>1346.85</ele><time>2022-02-05T11:25:20Z</time></trkpt>
<trkpt lat="45.904781" lon="11.20832"><ele>1349.73</ele><time>2022-02-05T11:25:21Z</time></trkpt>
<trkpt lat="45.904537" lon="11.208118"><ele>1350.84</ele><time>2022-02-05T11:25:23Z</time></trkpt>
<trkpt lat="45.903739" lon="11.206555"><ele>1344.19</ele><time>2022-02-05T11:25:24Z</time></trkpt>
<trkpt lat="45.903529" lon="11.206361"><ele>1346.2</ele><time>2022-02-05T11:25:26Z</time></trkpt>
<trkpt lat="45.903362" lon="11.206289"><ele>1351.53</ele><time>2022-02-05T11:25:28Z</time></trkpt>
<trkpt lat="45.903181" lon="11.206291"><ele>1357.37</ele><time>2022-02-05T11:25:29Z</time></trkpt>
<trkpt lat="45.903007" lon="11.206368"><ele>1359.67</ele><time>2022-02-05T11:25:31Z</time></trkpt>
<trkpt lat="45.902875" lon="11.206467"><ele>1357.77</ele><time>2022-02-05T11:25:33Z</time></trkpt>
<trkpt lat="45.901221" lon="11.207456"><ele>1337.52</ele><time>2022-02-05T11:25:34Z</time></trkpt>
<trkpt lat="45.900999" lon="11.207642"><ele>1340.13</ele><time>2022-02-05T11:25:36Z</time></trkpt>
<trkpt lat="45.900852" lon="11.207878"><ele>1343.38</ele><time>2022-02-05T11:25:37Z</time></trkpt>
<trkpt lat="45.900747" lon="11.208142"><ele>1343.31</ele><time>2022-02-05T11:25:39Z</time></trkpt>
<trkpt lat="45.900613" lon="11.20841"><ele>1342.19</ele><time>2022-02-05T11:25:41Z</time></trkpt>
<trkpt lat="45.900504" lon="11.20852"><ele>1341.68</ele><time>2022-02-05T11:25:42Z</time></trkpt>
<trkpt lat="45.900416" lon="11.208571"><ele>1341.3</ele><time>2022-02-05T11:25:44Z</time></trkpt>
<trkpt lat="45.899564" lon="11.208581"><ele>1352.17</ele><time>2022-02-05T11:25:45Z</time></trkpt>
<trkpt lat="45.899389" lon="11.20863"><ele>1353.92</ele><time>2022-02-05T11:25:47Z</time></trkpt>
<trkpt lat="45.89926" lon="11.208694"><ele>1354.67</ele><time>2022-02-05T11:25:49Z</time></trkpt>
<trkpt lat="45.89898" lon="11.208884"><ele>1352.66</ele><time>2022-02-05T11:25:50Z</time></trkpt>
<trkpt lat="45.898704" lon="11.20912"><ele>1352.4</ele><time>2022-02-05T11:25:52Z</time></trkpt>
<trkpt lat="45.898567" lon="11.209243"><ele>1350.32</ele><time>2022-02-05T11:25:54Z</time></trkpt>
<trkpt lat="45.89846" lon="11.209458"><ele>1343.66</ele><time>2022-02-05T11:25:55Z</time></trkpt>
<trkpt lat="45.89846" lon="11.209634"><ele>1344.06</ele><time>2022-02-05T11:25:57Z</time></trkpt>
<trkpt lat="45.898498" lon="11.209805"><ele>1344.46</ele><time>2022-02-05T11:25:58Z</time></trkpt>
<trkpt lat="45.898635" lon="11.209909"><ele>1342.88</ele><time>2022-02-05T11:26:00Z</time></trkpt>
<trkpt lat="45.898906" lon="11.209925"><ele>1341.56</ele><time>2022-02-05T11:26:02Z</time></trkpt>
<trkpt lat="45.899328" lon="11.210059"><ele>1343.42</ele><time>2022-02-05T11:26:03Z</time></trkpt>
<trkpt lat="45.899755" lon="11.210404"><ele>1348.57</ele><time>2022-02-05T11:26:05Z</time></trkpt>
<trkpt lat="45.900013" lon="11.210539"><ele>1349.44</ele><time>2022-02-05T11:26:07Z</time></trkpt>
<trkpt lat="45.900517" lon="11.210543"><ele>1345.36</ele><time>2022-02-05T11:26:08Z</time></trkpt>
<trkpt lat="45.900759" lon="11.210675"><ele>1342.8</ele><time>2022-02-05T11:26:10Z</time></trkpt>
<trkpt lat="45.900934" lon="11.210898"><ele>1345.26</ele><time>2022-02-05T11:26:11Z</time></trkpt>
<trkpt lat="45.901089" lon="11.211354"><ele>1344.24</ele><time>2022-02-05T11:26:13Z</time></trkpt>
<trkpt lat="45.901141" lon="11.211628"><ele>1344.75</ele><time>2022-02-05T11:26:15Z</time></trkpt>
<trkpt lat="45.90117" lon="11.211951"><ele>1348.18</ele><time>2022-02-05T11:26:16Z</time></trkpt>
<trkpt lat="45.901183" lon="11.212441"><ele>1354.78</ele><time>2022-02-05T11:26:18Z</time></trkpt>
<trkpt lat="45.901305" lon="11.212749"><ele>1355.65</ele><time>2022-02-05T11:26:20Z</time></trkpt>
<trkpt lat="45.901465" lon="11.212852"><ele>1352.78</ele><time>2022-02-05T11:26:21Z</time></trkpt>
<trkpt lat="45.901663" lon="11.212776"><ele>1349.03</ele><time>2022-02-05T11:26:23Z</time></trkpt>
<trkpt lat="45.902038" lon="11.212255"><ele>1345.02</ele><time>2022-02-05T11:26:24Z</time></trkpt>
<trkpt lat="45.902153" lon="11.212125"><ele>1344.34</ele><time>2022-02-05T11:26:26Z</time></trkpt>
<trkpt lat="45.902369" lon="11.212042"><ele>1344.84</ele><time>2022-02-05T11:26:28Z</time></trkpt>
<trkpt lat="45.902676" lon="11.212179"><ele>1349.21</ele><time>2022-02-05T11:26:29Z</time></trkpt>
<trkpt lat="45.903634" lon="11.212942"><ele>1351.3</ele><time>2022-02-05T11:26:31Z</time></trkpt>
<trkpt lat="45.904834" lon="11.213839"><ele>1358.37</ele><time>2022-02-05T11:26:33Z</time></trkpt>
<trkpt lat="45.905097" lon="11.214112"><ele>1358.41</ele><time>2022-02-05T11:26:34Z</time></trkpt>
<trkpt lat="45.905357" lon="11.214428"><ele>1359.32</ele><time>2022-02-05T11:26:36Z</time></trkpt>
<trkpt lat="45.905634" lon="11.214835"><ele>1355.57</ele><time>2022-02-05T11:26:37Z</time></trkpt>
<trkpt lat="45.906408" lon="11.216278"><ele>1351.23</ele><time>2022-02-05T11:26:39Z</time></trkpt>
<trkpt lat="45.907103" lon="11.217084"><ele>1356.96</ele><time>2022-02-05T11:26:41Z</time></trkpt>
<trkpt lat="45.907278" lon="11.217336"><ele>1357.15</ele><time>2022-02-05T11:26:42Z</time></trkpt>
<trkpt lat="45.907441" lon="11.217979"><ele>1359.35</ele><time>2022-02-05T11:26:44Z</time></trkpt>
<trkpt lat="45.907435" lon="11.218286"><ele>1356.6</ele><time>2022-02-05T11:26:45Z</time></trkpt>
<trkpt lat="45.907375" lon="11.218617"><ele>1355.94</ele><time>2022-02-05T11:26:47Z</time></trkpt>
<trkpt lat="45.907276" lon="11.218798"><ele>1355.07</ele><time>2022-02-05T11:26:49Z</time></trkpt>
<trkpt lat="45.907134" lon="11.218915"><ele>1356.08</ele><time>2022-02-05T11:26:50Z</time></trkpt>
<trkpt lat="45.906919" lon="11.219011"><ele>1358.71</ele><time>2022-02-05T11:26:52Z</time></trkpt>
<trkpt lat="45.906584" lon="11.219053"><ele>1364.26</ele><time>2022-02-05T11:26:54Z</time></trkpt>
<trkpt lat="45.906218" lon="11.219171"><ele>1369.36</ele><time>2022-02-05T11:26:55Z</time></trkpt>
<trkpt lat="45.90597" lon="11.21928"><ele>1372.33</ele><time>2022-02-05T11:26:57Z</time></trkpt>
<trkpt lat="45.905717" lon="11.219498"><ele>1371.78</ele><time>2022-02-05T11:26:58Z</time></trkpt>
<trkpt lat="45.905189" lon="11.220028"><ele>1367.65</ele><time>2022-02-05T11:27:00Z</time></trkpt>
<trkpt lat="45.904434" lon="11.220954"><ele>1365.56</ele><time>2022-02-05T11:27:02Z</time></trkpt>
<trkpt lat="45.904382" lon="11.221069"><ele>1364.91</ele><time>2022-02-05T11:27:03Z</time></trkpt>
<trkpt lat="45.904334" lon="11.221239"><ele>1365.47</ele><time>2022-02-05T11:27:05Z</time></trkpt>
<trkpt lat="45.904293" lon="11.221527"><ele>1368.79</ele><time>2022-02-05T11:27:07Z</time></trkpt>
<trkpt lat="45.90442" lon="11.22182"><ele>1370.33</ele><time>2022-02-05T11:27:08Z</time></trkpt>
<trkpt lat="45.904609" lon="11.221849"><ele>1367.79</ele><time>2022-02-05T11:27:10Z</time></trkpt>
<trkpt lat="45.905039" lon="11.221858"><ele>1363.1</ele><time>2022-02-05T11:27:11Z</time></trkpt>
<trkpt lat="45.905277" lon="11.221915"><ele>1360.04</ele><time>2022-02-05T11:27:13Z</time></trkpt>
<trkpt lat="45.905461" lon="11.222092"><ele>1360.51</ele><time>2022-02-05T11:27:15Z</time></trkpt>
<trkpt lat="45.90579" lon="11.222713"><ele>1365.01</ele><time>2022-02-05T11:27:16Z</time></trkpt>
<trkpt lat="45.906" lon="11.222829"><ele>1364.61</ele><time>2022-02-05T11:27:18Z</time></trkpt>
<trkpt lat="45.906186" lon="11.222827"><ele>1364.52</ele><time>2022-02-05T11:27:20Z</time></trkpt>
<trkpt lat="45.906984" lon="11.222579"><ele>1360.3</ele><time>2022-02-05T11:27:21Z</time></trkpt>
<trkpt lat="45.907125" lon="11.222593"><ele>1359.07</ele><time>2022-02-05T11:27:23Z</time></trkpt>
<trkpt lat="45.907256" lon="11.222724"><ele>1359.08</ele><time>2022-02-05T11:27:24Z</time></trkpt>
<trkpt lat="45.907344" lon="11.222995"><ele>1361.56</ele><time>2022-02-05T11:27:26Z</time></trkpt>
<trkpt lat="45.90739" lon="11.223319"><ele>1364.23</ele><time>2022-02-05T11:27:28Z</time></trkpt>
<trkpt lat="45.907339" lon="11.223669"><ele>1365.61</ele><time>2022-02-05T11:27:29Z</time></trkpt>
<trkpt lat="45.907366" lon="11.224024"><ele>1368.06</ele><time>2022-02-05T11:27:31Z</time></trkpt>
<trkpt lat="45.907484" lon="11.224315"><ele>1373.12</ele><time>2022-02-05T11:27:33Z</time></trkpt>
<trkpt lat="45.907649" lon="11.224567"><ele>1375.63</ele><time>2022-02-05T11:27:34Z</time></trkpt>
<trkpt lat="45.907895" lon="11.224799"><ele>1375.6</ele><time>2022-02-05T11:27:36Z</time></trkpt>
<trkpt lat="45.908392" lon="11.225057"><ele>1376.88</ele><time>2022-02-05T11:27:37Z</time></trkpt>
<trkpt lat="45.909174" lon="11.225278"><ele>1369.86</ele><time>2022-02-05T11:27:39Z</time></trkpt>
<trkpt lat="45.909416" lon="11.225403"><ele>1368.36</ele><time>2022-02-05T11:27:41Z</time></trkpt>
<trkpt lat="45.909538" lon="11.225501"><ele>1367.53</ele><time>2022-02-05T11:27:42Z</time></trkpt>
<trkpt lat="45.909659" lon="11.225636"><ele>1366.67</ele><time>2022-02-05T11:27:44Z</time></trkpt>
<trkpt lat="45.909695" lon="11.225905"><ele>1368.36</ele><time>2022-02-05T11:27:46Z</time></trkpt>
<trkpt lat="45.909567" lon="11.22641"><ele>1374.8</ele><time>2022-02-05T11:27:47Z</time></trkpt>
<trkpt lat="45.909579" lon="11.226641"><ele>1374.24</ele><time>2022-02-05T11:27:49Z</time></trkpt>
<trkpt lat="45.909619" lon="11.22679"><ele>1373.19</ele><time>2022-02-05T11:27:50Z</time></trkpt>
<trkpt lat="45.909712" lon="11.226952"><ele>1370.46</ele><time>2022-02-05T11:27:52Z</time></trkpt>
<trkpt lat="45.909721" lon="11.227364"><ele>1371.04</ele><time>2022-02-05T11:27:54Z</time></trkpt>
<trkpt lat="45.909659" lon="11.22764"><ele>1373.8</ele><time>2022-02-05T11:27:55Z</time></trkpt>
<trkpt lat="45.9095" lon="11.228092"><ele>1382.5</ele><time>2022-02-05T11:27:57Z</time></trkpt>
<trkpt lat="45.909545" lon="11.228273"><ele>1384.67</ele><time>2022-02-05T11:27:58Z</time></trkpt>
<trkpt lat="45.909613" lon="11.228414"><ele>1387.77</ele><time>2022-02-05T11:28:00Z</time></trkpt>
<trkpt lat="45.909788" lon="11.22848"><ele>1390.49</ele><time>2022-02-05T11:28:02Z</time></trkpt>
<trkpt lat="45.910031" lon="11.228387"><ele>1388.66</ele><time>2022-02-05T11:28:03Z</time></trkpt>
<trkpt lat="45.910683" lon="11.227406"><ele>1369.46</ele><time>2022-02-05T11:28:05Z</time></trkpt>
<trkpt lat="45.911026" lon="11.227218"><ele>1374.02</ele><time>2022-02-05T11:28:07Z</time></trkpt>
<trkpt lat="45.911382" lon="11.2269"><ele>1363.41</ele><time>2022-02-05T11:28:08Z</time></trkpt>
<trkpt lat="45.911472" lon="11.226872"><ele>1364.12</ele><time>2022-02-05T11:28:10Z</time></trkpt>
<trkpt lat="45.911553" lon="11.226904"><ele>1366.75</ele><time>2022-02-05T11:28:11Z</time></trkpt>
<trkpt lat="45.911629" lon="11.227035"><ele>1371.16</ele><time>2022-02-05T11:28:13Z</time></trkpt>
<trkpt lat="45.91168" lon="11.227191"><ele>1374.48</ele><time>2022-02-05T11:28:15Z</time></trkpt>
<trkpt lat="45.911692" lon="11.227588"><ele>1380.36</ele><time>2022-02-05T11:28:16Z</time></trkpt>
<trkpt lat="45.911663" lon="11.228027"><ele>1387.62</ele><time>2022-02-05T11:28:18Z</time></trkpt>
<trkpt lat="45.911693" lon="11.229778"><ele>1395.25</ele><time>2022-02-05T11:28:20Z</time></trkpt>
<trkpt lat="45.911713" lon="11.23048"><ele>1397.63</ele><time>2022-02-05T11:28:21Z</time></trkpt>
<trkpt lat="45.91157" lon="11.231157"><ele>1404.12</ele><time>2022-02-05T11:28:23Z</time></trkpt>
<trkpt lat="45.91135" lon="11.23176"><ele>1408.04</ele><time>2022-02-05T11:28:24Z</time></trkpt>
<trkpt lat="45.911186" lon="11.23216"><ele>1411.86</ele><time>2022-02-05T11:28:26Z</time></trkpt>
<trkpt lat="45.910747" lon="11.232995"><ele>1419.9</ele><time>2022-02-05T11:28:28Z</time></trkpt>
<trkpt lat="45.910734" lon="11.23312"><ele>1420.32</ele><time>2022-02-05T11:28:29Z</time></trkpt>
<trkpt lat="45.910755" lon="11.233254"><ele>1421.16</ele><time>2022-02-05T11:28:31Z</time></trkpt>
<trkpt lat="45.910818" lon="11.23334"><ele>1421.23</ele><time>2022-02-05T11:28:33Z</time></trkpt>
<trkpt lat="45.910915" lon="11.233386"><ele>1421.74</ele><time>2022-02-05T11:28:34Z</time></trkpt>
<trkpt lat="45.911078" lon="11.233263"><ele>1419.8</ele><time>2022-02-05T11:28:36Z</time></trkpt>
<trkpt lat="45.911577" lon="11.232478"><ele>1412.38</ele><time>2022-02-05T11:28:37Z</time></trkpt>
<trkpt lat="45.911679" lon="11.232425"><ele>1412.02</ele><time>2022-02-05T11:28:39Z</time></trkpt>
<trkpt lat="45.911781" lon="11.23244"><ele>1413.06</ele><time>2022-02-05T11:28:41Z</time></trkpt>
<trkpt lat="45.911901" lon="11.23249"><ele>1414.57</ele><time>2022-02-05T11:28:42Z</time></trkpt>
<trkpt lat="45.912017" lon="11.232616"><ele>1416.3</ele><time>2022-02-05T11:28:44Z</time></trkpt>
<trkpt lat="45.912331" lon="11.233243"><ele>1420.18</ele><time>2022-02-05T11:28:46Z</time></trkpt>
<trkpt lat="45.912444" lon="11.233428"><ele>1419.95</ele><time>2022-02-05T11:28:47Z</time></trkpt>
<trkpt lat="45.912577" lon="11.233556"><ele>1419.19</ele><time>2022-02-05T11:28:49Z</time></trkpt>
<trkpt lat="45.913152" lon="11.233975"><ele>1417.14</ele><time>2022-02-05T11:28:50Z</time></trkpt>
<trkpt lat="45.913239" lon="11.23416"><ele>1417.33</ele><time>2022-02-05T11:28:52Z</time></trkpt>
<trkpt lat="45.913236" lon="11.234409"><ele>1416.43</ele><time>2022-02-05T11:28:54Z</time></trkpt>
<trkpt lat="45.913207" lon="11.234531"><ele>1416.06</ele><time>2022-02-05T11:28:55Z</time></trkpt>
<trkpt lat="45.91294" lon="11.235268"><ele>1416.43</ele><time>2022-02-05T11:28:57Z</time></trkpt>
<trkpt lat="45.912777" lon="11.235583"><ele>1415.01</ele><time>2022-02-05T11:28:58Z</time></trkpt>
<trkpt lat="45.912297" lon="11.236391"><ele>1422.47</ele><time>2022-02-05T11:29:00Z</time></trkpt>
<trkpt lat="45.912217" lon="11.236619"><ele>1424.69</ele><time>2022-02-05T11:29:02Z</time></trkpt>
<trkpt lat="45.912162" lon="11.236865"><ele>1426.4</ele><time>2022-02-05T11:29:03Z</time></trkpt>
<trkpt lat="45.912096" lon="11.238214"><ele>1431.62</ele><time>2022-02-05T11:29:05Z</time></trkpt>
<trkpt lat="45.912034" lon="11.238587"><ele>1436.71</ele><time>2022-02-05T11:29:07Z</time></trkpt>
<trkpt lat="45.911918" lon="11.238956"><ele>1440.15</ele><time>2022-02-05T11:29:08Z</time></trkpt>
<trkpt lat="45.911687" lon="11.239494"><ele>1441.94</ele><time>2022-02-05T11:29:10Z</time></trkpt>
<trkpt lat="45.911422" lon="11.240041"><ele>1439.45</ele><time>2022-02-05T11:29:11Z</time></trkpt>
<trkpt lat="45.911288" lon="11.240252"><ele>1440.24</ele><time>2022-02-05T11:29:13Z</time></trkpt>
<trkpt lat="45.910876" lon="11.240332"><ele>1442.72</ele><time>2022-02-05T11:29:15Z</time></trkpt>
<trkpt lat="45.910349" lon="11.240711"><ele>1442.39</ele><time>2022-02-05T11:29:16Z</time></trkpt>
<trkpt lat="45.91017" lon="11.240764"><ele>1441.59</ele><time>2022-02-05T11:29:18Z</time></trkpt>
<trkpt lat="45.909459" lon="11.240475"><ele>1431.12</ele><time>2022-02-05T11:29:20Z</time></trkpt>
<trkpt lat="45.909103" lon="11.240404"><ele>1429.54</ele><time>2022-02-05T11:29:21Z</time></trkpt>
<trkpt lat="45.907551" lon="11.240798"><ele>1425.24</ele><time>2022-02-05T11:29:23Z</time></trkpt>
<trkpt lat="45.907244" lon="11.241044"><ele>1430.39</ele><time>2022-02-05T11:29:24Z</time></trkpt>
<trkpt lat="45.905732" lon="11.242909"><ele>1433.32</ele><time>2022-02-05T11:29:26Z</time></trkpt>
<trkpt lat="45.905545" lon="11.243287"><ele>1432.56</ele><time>2022-02-05T11:29:28Z</time></trkpt>
<trkpt lat="45.905472" lon="11.243738"><ele>1429.39</ele><time>2022-02-05T11:29:29Z</time></trkpt>
<trkpt lat="45.90529" lon="11.245111"><ele>1432.91</ele><time>2022-02-05T11:29:31Z</time></trkpt>
<trkpt lat="45.904795" lon="11.247598"><ele>1437.51</ele><time>2022-02-05T11:29:33Z</time></trkpt>
<trkpt lat="45.904663" lon="11.247979"><ele>1435.31</ele><time>2022-02-05T11:29:34Z</time></trkpt>
<trkpt lat="45.904523" lon="11.24814"><ele>1434.3</ele><time>2022-02-05T11:29:36Z</time></trkpt>
<trkpt lat="45.904369" lon="11.248188"><ele>1434.08</ele><time>2022-02-05T11:29:37Z</time></trkpt>
<trkpt lat="45.903611" lon="11.248182"><ele>1435.09</ele><time>2022-02-05T11:29:39Z</time></trkpt>
<trkpt lat="45.903195" lon="11.248137"><ele>1441.17</ele><time>2022-02-05T11:29:41Z</time></trkpt>
<trkpt lat="45.902107" lon="11.247887"><ele>1443.48</ele><time>2022-02-05T11:29:42Z</time></trkpt>
<trkpt lat="45.901832" lon="11.247522"><ele>1442.89</ele><time>2022-02-05T11:29:44Z</time></trkpt>
<trkpt lat="45.901539" lon="11.247058"><ele>1438.83</ele><time>2022-02-05T11:29:46Z</time></trkpt>
<trkpt lat="45.901364" lon="11.246823"><ele>1436.02</ele><time>2022-02-05T11:29:47Z</time></trkpt>
<trkpt lat="45.901122" lon="11.246701"><ele>1435.74</ele><time>2022-02-05T11:29:49Z</time></trkpt>
<trkpt lat="45.900667" lon="11.246733"><ele>1441.18</ele><time>2022-02-05T11:29:50Z</time></trkpt>
<trkpt lat="45.900371" lon="11.246876"><ele>1442.62</ele><time>2022-02-05T11:29:52Z</time></trkpt>
<trkpt lat="45.900261" lon="11.247176"><ele>1438.95</ele><time>2022-02-05T11:29:54Z</time></trkpt>
<trkpt lat="45.900088" lon="11.247884"><ele>1433.02</ele><time>2022-02-05T11:29:55Z</time></trkpt>
<trkpt lat="45.899817" lon="11.248645"><ele>1428.23</ele><time>2022-02-05T11:29:57Z</time></trkpt>
<trkpt lat="45.899662" lon="11.249781"><ele>1434.5</ele><time>2022-02-05T11:29:59Z</time></trkpt>
<trkpt lat="45.899577" lon="11.250568"><ele>1443.06</ele><time>2022-02-05T11:30:00Z</time></trkpt>
<trkpt lat="45.89962" lon="11.25141"><ele>1443.84</ele><time>2022-02-05T11:30:02Z</time></trkpt>
<trkpt lat="45.899681" lon="11.252263"><ele>1447.5</ele><time>2022-02-05T11:30:03Z</time></trkpt>
<trkpt lat="45.899671" lon="11.25295"><ele>1448.78</ele><time>2022-02-05T11:30:05Z</time></trkpt>
<trkpt lat="45.899695" lon="11.253777"><ele>1446.18</ele><time>2022-02-05T11:30:07Z</time></trkpt>
<trkpt lat="45.899663" lon="11.254032"><ele>1445.86</ele><time>2022-02-05T11:30:08Z</time></trkpt>
<trkpt lat="45.899483" lon="11.254345"><ele>1447.79</ele><time>2022-02-05T11:30:10Z</time></trkpt>
<trkpt lat="45.899463" lon="11.254634"><ele>1445.56</ele><time>2022-02-05T11:30:11Z</time></trkpt>
<trkpt lat="45.899482" lon="11.2549"><ele>1444.23</ele><time>2022-02-05T11:30:13Z</time></trkpt>
<trkpt lat="45.899856" lon="11.256231"><ele>1439.28</ele><time>2022-02-05T11:30:15Z</time></trkpt>
<trkpt lat="45.899902" lon="11.256502"><ele>1439.36</ele><time>2022-02-05T11:30:16Z</time></trkpt>
<trkpt lat="45.899866" lon="11.256837"><ele>1438.44</ele><time>2022-02-05T11:30:18Z</time></trkpt>
<trkpt lat="45.8996" lon="11.258569"><ele>1437.8</ele><time>2022-02-05T11:30:20Z</time></trkpt>
<trkpt lat="45.899517" lon="11.258994"><ele>1438.11</ele><time>2022-02-05T11:30:21Z</time></trkpt>
<trkpt lat="45.899416" lon="11.259342"><ele>1438.82</ele><time>2022-02-05T11:30:23Z</time></trkpt>
<trkpt lat="45.899333" lon="11.259536"><ele>1440.42</ele><time>2022-02-05T11:30:24Z</time></trkpt>
<trkpt lat="45.899224" lon="11.259705"><ele>1440.69</ele><time>2022-02-05T11:30:26Z</time></trkpt>
<trkpt lat="45.898946" lon="11.259944"><ele>1445.78</ele><time>2022-02-05T11:30:28Z</time></trkpt>
<trkpt lat="45.898703" lon="11.26026"><ele>1450.31</ele><time>2022-02-05T11:30:29Z</time></trkpt>
<trkpt lat="45.898543" lon="11.260632"><ele>1452.1</ele><time>2022-02-05T11:30:31Z</time></trkpt>
<trkpt lat="45.898425" lon="11.260819"><ele>1453.25</ele><time>2022-02-05T11:30:33Z</time></trkpt>
<trkpt lat="45.898373" lon="11.260969"><ele>1451.78</ele><time>2022-02-05T11:30:34Z</time></trkpt>
<trkpt lat="45.898331" lon="11.261214"><ele>1448.59</ele><time>2022-02-05T11:30:36Z</time></trkpt>
<trkpt lat="45.898305" lon="11.261475"><ele>1446.29</ele><time>2022-02-05T11:30:37Z</time></trkpt>
<trkpt lat="45.898157" lon="11.262067"><ele>1446.94</ele><time>2022-02-05T11:30:39Z</time></trkpt>
<trkpt lat="45.898051" lon="11.262343"><ele>1445.98</ele><time>2022-02-05T11:30:41Z</time></trkpt>
<trkpt lat="45.897958" lon="11.262524"><ele>1445.62</ele><time>2022-02-05T11:30:42Z</time></trkpt>
<trkpt lat="45.897717" lon="11.262725"><ele>1448.41</ele><time>2022-02-05T11:30:44Z</time></trkpt>
<trkpt lat="45.897522" lon="11.262944"><ele>1450.12</ele><time>2022-02-05T11:30:46Z</time></trkpt>
<trkpt lat="45.897102" lon="11.263131"><ele>1457.6</ele><time>2022-02-05T11:30:47Z</time></trkpt>
<trkpt lat="45.897" lon="11.263208"><ele>1458.09</ele><time>2022-02-05T11:30:49Z</time></trkpt>
<trkpt lat="45.896919" lon="11.263311"><ele>1456.94</ele><time>2022-02-05T11:30:50Z</time></trkpt>
<trkpt lat="45.89685" lon="11.263508"><ele>1453.58</ele><time>2022-02-05T11:30:52Z</time></trkpt>
<trkpt lat="45.896972" lon="11.26465"><ele>1451.63</ele><time>2022-02-05T11:30:54Z</time></trkpt>
<trkpt lat="45.896968" lon="11.264855"><ele>1450.51</ele><time>2022-02-05T11:30:55Z</time></trkpt>
<trkpt lat="45.896929" lon="11.264962"><ele>1450.28</ele><time>2022-02-05T11:30:57Z</time></trkpt>
<trkpt lat="45.896845" lon="11.26504"><ele>1449.18</ele><time>2022-02-05T11:30:59Z</time></trkpt>
<trkpt lat="45.896631" lon="11.265124"><ele>1447.84</ele><time>2022-02-05T11:31:00Z</time></trkpt>
<trkpt lat="45.896493" lon="11.265144"><ele>1447.7</ele><time>2022-02-05T11:31:02Z</time></trkpt>
<trkpt lat="45.896062" lon="11.265125"><ele>1449.56</ele><time>2022-02-05T11:31:03Z</time></trkpt>
<trkpt lat="45.895733" lon="11.265191"><ele>1450.78</ele><time>2022-02-05T11:31:05Z</time></trkpt>
<trkpt lat="45.895391" lon="11.265329"><ele>1455.01</ele><time>2022-02-05T11:31:07Z</time></trkpt>
<trkpt lat="45.895221" lon="11.265449"><ele>1457.46</ele><time>2022-02-05T11:31:08Z</time></trkpt>
<trkpt lat="45.895092" lon="11.265664"><ele>1458.36</ele><time>2022-02-05T11:31:10Z</time></trkpt>
<trkpt lat="45.894914" lon="11.266302"><ele>1458.28</ele><time>2022-02-05T11:31:11Z</time></trkpt>
<trkpt lat="45.894857" lon="11.266411"><ele>1457.77</ele><time>2022-02-05T11:31:13Z</time></trkpt>
<trkpt lat="45.894721" lon="11.266478"><ele>1459.05</ele><time>2022-02-05T11:31:15Z</time></trkpt>
<trkpt lat="45.894444" lon="11.266523"><ele>1461.55</ele><time>2022-02-05T11:31:16Z</time></trkpt>
<trkpt lat="45.893728" lon="11.26659"><ele>1462.24</ele><time>2022-02-05T11:31:18Z</time></trkpt>
<trkpt lat="45.893538" lon="11.266686"><ele>1463.54</ele><time>2022-02-05T11:31:20Z</time></trkpt>
<trkpt lat="45.893357" lon="11.266854"><ele>1465.44</ele><time>2022-02-05T11:31:21Z</time></trkpt>
<trkpt lat="45.892953" lon="11.267416"><ele>1469.59</ele><time>2022-02-05T11:31:23Z</time></trkpt>
<trkpt lat="45.892927" lon="11.267539"><ele>1469.54</ele><time>2022-02-05T11:31:24Z</time></trkpt>
<trkpt lat="45.892936" lon="11.267703"><ele>1469.84</ele><time>2022-02-05T11:31:26Z</time></trkpt>
<trkpt lat="45.893188" lon="11.268167"><ele>1475.41</ele><time>2022-02-05T11:31:28Z</time></trkpt>
<trkpt lat="45.893342" lon="11.268674"><ele>1480.27</ele><time>2022-02-05T11:31:29Z</time></trkpt>
<trkpt lat="45.893487" lon="11.2694"><ele>1484.77</ele><time>2022-02-05T11:31:31Z</time></trkpt>
<trkpt lat="45.893617" lon="11.269662"><ele>1486.33</ele><time>2022-02-05T11:31:33Z</time></trkpt>
<trkpt lat="45.894151" lon="11.270148"><ele>1485.64</ele><time>2022-02-05T11:31:34Z</time></trkpt>
<trkpt lat="45.894284" lon="11.270366"><ele>1484.81</ele><time>2022-02-05T11:31:36Z</time></trkpt>
<trkpt lat="45.894368" lon="11.270564"><ele>1482.96</ele><time>2022-02-05T11:31:37Z</time></trkpt>
<trkpt lat="45.894439" lon="11.270962"><ele>1482.24</ele><time>2022-02-05T11:31:39Z</time></trkpt>
<trkpt lat="45.894387" lon="11.271296"><ele>1483.38</ele><time>2022-02-05T11:31:41Z</time></trkpt>
<trkpt lat="45.894252" lon="11.271519"><ele>1486.21</ele><time>2022-02-05T11:31:42Z</time></trkpt>
<trkpt lat="45.894076" lon="11.271731"><ele>1489.95</ele><time>2022-02-05T11:31:44Z</time></trkpt>
<trkpt lat="45.893608" lon="11.27277"><ele>1486.3</ele><time>2022-02-05T11:31:46Z</time></trkpt>
<trkpt lat="45.893433" lon="11.273043"><ele>1483.91</ele><time>2022-02-05T11:31:47Z</time></trkpt>
<trkpt lat="45.893189" lon="11.273186"><ele>1486.13</ele><time>2022-02-05T11:31:49Z</time></trkpt>
<trkpt lat="45.892932" lon="11.273267"><ele>1492.34</ele><time>2022-02-05T11:31:50Z</time></trkpt>
<trkpt lat="45.892823" lon="11.273373"><ele>1493.57</ele><time>2022-02-05T11:31:52Z</time></trkpt>
<trkpt lat="45.892519" lon="11.274218"><ele>1486.27</ele><time>2022-02-05T11:31:54Z</time></trkpt>
<trkpt lat="45.892299" lon="11.274593"><ele>1486.72</ele><time>2022-02-05T11:31:55Z</time></trkpt>
<trkpt lat="45.892105" lon="11.275078"><ele>1484.23</ele><time>2022-02-05T11:31:57Z</time></trkpt>
<trkpt lat="45.891597" lon="11.276532"><ele>1473.92</ele><time>2022-02-05T11:31:59Z</time></trkpt>
<trkpt lat="45.891542" lon="11.27687"><ele>1469.12</ele><time>2022-02-05T11:32:00Z</time></trkpt>
<trkpt lat="45.891481" lon="11.276955"><ele>1468.73</ele><time>2022-02-05T11:32:02Z</time></trkpt>
<trkpt lat="45.891285" lon="11.277033"><ele>1468.34</ele><time>2022-02-05T11:32:03Z</time></trkpt>
<trkpt lat="45.891156" lon="11.277044"><ele>1467.77</ele><time>2022-02-05T11:32:05Z</time></trkpt>
<trkpt lat="45.890391" lon="11.277013"><ele>1470.73</ele><time>2022-02-05T11:32:07Z</time></trkpt>
<trkpt lat="45.890232" lon="11.27707"><ele>1468.98</ele><time>2022-02-05T11:32:08Z</time></trkpt>
<trkpt lat="45.890029" lon="11.277255"><ele>1466.24</ele><time>2022-02-05T11:32:10Z</time></trkpt>
<trkpt lat="45.889938" lon="11.277378"><ele>1465.59</ele><time>2022-02-05T11:32:12Z</time></trkpt>
<trkpt lat="45.889874" lon="11.277543"><ele>1463.01</ele><time>2022-02-05T11:32:13Z</time></trkpt>
<trkpt lat="45.889856" lon="11.277746"><ele>1460.6</ele><time>2022-02-05T11:32:15Z</time></trkpt>
<trkpt lat="45.889951" lon="11.277968"><ele>1456.72</ele><time>2022-02-05T11:32:16Z</time></trkpt>
<trkpt lat="45.890376" lon="11.278526"><ele>1448.39</ele><time>2022-02-05T11:32:18Z</time></trkpt>
<trkpt lat="45.890487" lon="11.278835"><ele>1447.98</ele><time>2022-02-05T11:32:20Z</time></trkpt>
<trkpt lat="45.890467" lon="11.279233"><ele>1447.71</ele><time>2022-02-05T11:32:21Z</time></trkpt>
<trkpt lat="45.890412" lon="11.279441"><ele>1447.65</ele><time>2022-02-05T11:32:23Z</time></trkpt>
<trkpt lat="45.890037" lon="11.279942"><ele>1449.14</ele><time>2022-02-05T11:32:24Z</time></trkpt>
<trkpt lat="45.889987" lon="11.280142"><ele>1449.86</ele><time>2022-02-05T11:32:26Z</time></trkpt>
<trkpt lat="45.89" lon="11.280295"><ele>1450.13</ele><time>2022-02-05T11:32:28Z</time></trkpt>
<trkpt lat="45.890355" lon="11.280869"><ele>1444.61</ele><time>2022-02-05T11:32:29Z</time></trkpt>
<trkpt lat="45.890576" lon="11.281522"><ele>1440.41</ele><time>2022-02-05T11:32:31Z</time></trkpt>
<trkpt lat="45.890782" lon="11.282061"><ele>1434.67</ele><time>2022-02-05T11:32:33Z</time></trkpt>
<trkpt lat="45.890734" lon="11.282626"><ele>1436.15</ele><time>2022-02-05T11:32:34Z</time></trkpt>
<trkpt lat="45.890587" lon="11.283099"><ele>1434.4</ele><time>2022-02-05T11:32:36Z</time></trkpt>
<trkpt lat="45.889938" lon="11.283876"><ele>1429.82</ele><time>2022-02-05T11:32:37Z</time></trkpt>
<trkpt lat="45.889668" lon="11.284347"><ele>1426.61</ele><time>2022-02-05T11:32:39Z</time></trkpt>
<trkpt lat="45.889592" lon="11.284427"><ele>1426.72</ele><time>2022-02-05T11:32:41Z</time></trkpt>
<trkpt lat="45.889051" lon="11.284802"><ele>1427.02</ele><time>2022-02-05T11:32:42Z</time></trkpt>
<trkpt lat="45.888862" lon="11.285034"><ele>1423.67</ele><time>2022-02-05T11:32:44Z</time></trkpt>
<trkpt lat="45.888669" lon="11.285423"><ele>1422.46</ele><time>2022-02-05T11:32:46Z</time></trkpt>
<trkpt lat="45.888629" lon="11.285653"><ele>1422.33</ele><time>2022-02-05T11:32:47Z</time></trkpt>
<trkpt lat="45.888662" lon="11.285824"><ele>1420.97</ele><time>2022-02-05T11:32:49Z</time></trkpt>
<trkpt lat="45.888796" lon="11.286119"><ele>1416.78</ele><time>2022-02-05T11:32:50Z</time></trkpt>
<trkpt lat="45.889086" lon="11.286373"><ele>1413.9</ele><time>2022-02-05T11:32:52Z</time></trkpt>
<trkpt lat="45.889144" lon="11.286509"><ele>1415.01</ele><time>2022-02-05T11:32:54Z</time></trkpt>
<trkpt lat="45.889133" lon="11.28668"><ele>1417.48</ele><time>2022-02-05T11:32:55Z</time></trkpt>
<trkpt lat="45.889144" lon="11.286858"><ele>1418.84</ele><time>2022-02-05T11:32:57Z</time></trkpt>
<trkpt lat="45.889241" lon="11.287101"><ele>1420.98</ele><time>2022-02-05T11:32:59Z</time></trkpt>
<trkpt lat="45.889403" lon="11.28734"><ele>1423.34</ele><time>2022-02-05T11:33:00Z</time></trkpt>
<trkpt lat="45.889434" lon="11.287514"><ele>1426.52</ele><time>2022-02-05T11:33:02Z</time></trkpt>
<trkpt lat="45.889453" lon="11.287756"><ele>1430.24</ele><time>2022-02-05T11:33:03Z</time></trkpt>
<trkpt lat="45.889529" lon="11.28805"><ele>1431.58</ele><time>2022-02-05T11:33:05Z</time></trkpt>
<trkpt lat="45.88969" lon="11.28823"><ele>1428.26</ele><time>2022-02-05T11:33:07Z</time></trkpt>
<trkpt lat="45.889872" lon="11.288637"><ele>1427.07</ele><time>2022-02-05T11:33:08Z</time></trkpt>
<trkpt lat="45.889924" lon="11.288956"><ele>1423.93</ele><time>2022-02-05T11:33:10Z</time></trkpt>
<trkpt lat="45.889815" lon="11.289154"><ele>1424.78</ele><time>2022-02-05T11:33:12Z</time></trkpt>
<trkpt lat="45.88966" lon="11.289212"><ele>1425.91</ele><time>2022-02-05T11:33:13Z</time></trkpt>
<trkpt lat="45.889509" lon="11.289226"><ele>1426.97</ele><time>2022-02-05T11:33:15Z</time></trkpt>
<trkpt lat="45.889328" lon="11.289196"><ele>1428.36</ele><time>2022-02-05T11:33:16Z</time></trkpt>
<trkpt lat="45.889012" lon="11.289082"><ele>1435.83</ele><time>2022-02-05T11:33:18Z</time></trkpt>
<trkpt lat="45.888875" lon="11.289058"><ele>1440.3</ele><time>2022-02-05T11:33:20Z</time></trkpt>
<trkpt lat="45.888681" lon="11.289082"><ele>1444.53</ele><time>2022-02-05T11:33:21Z</time></trkpt>
<trkpt lat="45.888128" lon="11.289276"><ele>1447.83</ele><time>2022-02-05T11:33:23Z</time></trkpt>
<trkpt lat="45.887998" lon="11.289397"><ele>1448.06</ele><time>2022-02-05T11:33:25Z</time></trkpt>
<trkpt lat="45.887717" lon="11.290075"><ele>1451.46</ele><time>2022-02-05T11:33:26Z</time></trkpt>
<trkpt lat="45.887629" lon="11.290208"><ele>1453.16</ele><time>2022-02-05T11:33:28Z</time></trkpt>
<trkpt lat="45.887441" lon="11.290392"><ele>1455.6</ele><time>2022-02-05T11:33:29Z</time></trkpt>
<trkpt lat="45.887352" lon="11.290609"><ele>1457.42</ele><time>2022-02-05T11:33:31Z</time></trkpt>
<trkpt lat="45.887299" lon="11.29118"><ele>1460.41</ele><time>2022-02-05T11:33:33Z</time></trkpt>
<trkpt lat="45.887198" lon="11.291796"><ele>1457.3</ele><time>2022-02-05T11:33:34Z</time></trkpt>
<trkpt lat="45.887079" lon="11.292071"><ele>1454.29</ele><time>2022-02-05T11:33:36Z</time></trkpt>
<trkpt lat="45.886781" lon="11.292462"><ele>1452.24</ele><time>2022-02-05T11:33:37Z</time></trkpt>
<trkpt lat="45.886615" lon="11.292565"><ele>1452.97</ele><time>2022-02-05T11:33:39Z</time></trkpt>
<trkpt lat="45.886302" lon="11.292643"><ele>1454.38</ele><time>2022-02-05T11:33:41Z</time></trkpt>
<trkpt lat="45.886008" lon="11.29256"><ele>1457.42</ele><time>2022-02-05T11:33:42Z</time></trkpt>
<trkpt lat="45.885705" lon="11.292555"><ele>1458.41</ele><time>2022-02-05T11:33:44Z</time></trkpt>
<trkpt lat="45.885421" lon="11.292712"><ele>1452.56</ele><time>2022-02-05T11:33:46Z</time></trkpt>
<trkpt lat="45.885108" lon="11.292767"><ele>1449.28</ele><time>2022-02-05T11:33:47Z</time></trkpt>
<trkpt lat="45.884482" lon="11.29267"><ele>1458.83</ele><time>2022-02-05T11:33:49Z</time></trkpt>
<trkpt lat="45.884157" lon="11.292794"><ele>1460.65</ele><time>2022-02-05T11:33:50Z</time></trkpt>
<trkpt lat="45.883291" lon="11.293403"><ele>1449.76</ele><time>2022-02-05T11:33:52Z</time></trkpt>
<trkpt lat="45.883024" lon="11.293548"><ele>1448.87</ele><time>2022-02-05T11:33:54Z</time></trkpt>
<trkpt lat="45.882299" lon="11.293796"><ele>1452.26</ele><time>2022-02-05T11:33:55Z</time></trkpt>
<trkpt lat="45.881967" lon="11.293935"><ele>1451.92</ele><time>2022-02-05T11:33:57Z</time></trkpt>
<trkpt lat="45.881763" lon="11.294171"><ele>1447.51</ele><time>2022-02-05T11:33:59Z</time></trkpt>
<trkpt lat="45.881614" lon="11.294647"><ele>1446.71</ele><time>2022-02-05T11:34:00Z</time></trkpt>
<trkpt lat="45.881524" lon="11.295174"><ele>1451.0</ele><time>2022-02-05T11:34:02Z</time></trkpt>
<trkpt lat="45.881405" lon="11.296307"><ele>1451.84</ele><time>2022-02-05T11:34:03Z</time></trkpt>
<trkpt lat="45.881375" lon="11.296482"><ele>1451.85</ele><time>2022-02-05T11:34:05Z</time></trkpt>
<trkpt lat="45.8813" lon="11.296538"><ele>1454.28</ele><time>2022-02-05T11:34:07Z</time></trkpt>
<trkpt lat="45.881253" lon="11.296521"><ele>1456.17</ele><time>2022-02-05T11:34:08Z</time></trkpt>
<trkpt lat="45.881229" lon="11.296469"><ele>1457.33</ele><time>2022-02-05T11:34:10Z</time></trkpt>
<trkpt lat="45.881185" lon="11.295647"><ele>1463.93</ele><time>2022-02-05T11:34:12Z</time></trkpt>
<trkpt lat="45.881164" lon="11.295586"><ele>1464.98</ele><time>2022-02-05T11:34:13Z</time></trkpt>
<trkpt lat="45.881097" lon="11.295568"><ele>1467.61</ele><time>2022-02-05T11:34:15Z</time></trkpt>
<trkpt lat="45.881057" lon="11.295587"><ele>1469.44</ele><time>2022-02-05T11:34:16Z</time></trkpt>
<trkpt lat="45.881029" lon="11.295629"><ele>1470.59</ele><time>2022-02-05T11:34:18Z</time></trkpt>
<trkpt lat="45.880892" lon="11.296215"><ele>1473.32</ele><time>2022-02-05T11:34:20Z</time></trkpt>
<trkpt lat="45.880807" lon="11.296439"><ele>1476.02</ele><time>2022-02-05T11:34:21Z</time></trkpt>
<trkpt lat="45.880677" lon="11.296636"><ele>1476.94</ele><time>2022-02-05T11:34:23Z</time></trkpt>
<trkpt lat="45.880529" lon="11.296803"><ele>1477.61</ele><time>2022-02-05T11:34:25Z</time></trkpt>
<trkpt lat="45.880354" lon="11.296919"><ele>1478.3</ele><time>2022-02-05T11:34:26Z</time></trkpt>
<trkpt lat="45.879758" lon="11.297096"><ele>1489.92</ele><time>2022-02-05T11:34:28Z</time></trkpt>
<trkpt lat="45.878054" lon="11.297898"><ele>1513.31</ele><time>2022-02-05T11:34:29Z</time></trkpt>
<trkpt lat="45.877986" lon="11.297946"><ele>1514.17</ele><time>2022-02-05T11:34:31Z</time></trkpt>
<trkpt lat="45.87796" lon="11.297991"><ele>1514.08</ele><time>2022-02-05T11:34:33Z</time></trkpt>
<trkpt lat="45.877945" lon="11.298077"><ele>1513.31</ele><time>2022-02-05T11:34:34Z</time></trkpt>
<trkpt lat="45.877952" lon="11.298151"><ele>1512.9</ele><time>2022-02-05T11:34:36Z</time></trkpt>
<trkpt lat="45.877994" lon="11.298214"><ele>1511.76</ele><time>2022-02-05T11:34:37Z</time></trkpt>
<trkpt lat="45.878361" lon="11.29849"><ele>1502.82</ele><time>2022-02-05T11:34:39Z</time></trkpt>
<trkpt lat="45.878599" lon="11.298928"><ele>1501.17</ele><time>2022-02-05T11:34:41Z</time></trkpt>
<trkpt lat="45.878688" lon="11.299217"><ele>1501.98</ele><time>2022-02-05T11:34:42Z</time></trkpt>
<trkpt lat="45.878752" lon="11.299785"><ele>1506.83</ele><time>2022-02-05T11:34:44Z</time></trkpt>
<trkpt lat="45.878855" lon="11.300011"><ele>1507.05</ele><time>2022-02-05T11:34:46Z</time></trkpt>
<trkpt lat="45.878987" lon="11.30023"><ele>1504.01</ele><time>2022-02-05T11:34:47Z</time></trkpt>
<trkpt lat="45.879002" lon="11.300288"><ele>1503.88</ele><time>2022-02-05T11:34:49Z</time></trkpt>
<trkpt lat="45.878994" lon="11.300377"><ele>1503.62</ele><time>2022-02-05T11:34:50Z</time></trkpt>
<trkpt lat="45.878946" lon="11.300461"><ele>1504.77</ele><time>2022-02-05T11:34:52Z</time></trkpt>
<trkpt lat="45.878626" lon="11.300623"><ele>1510.2</ele><time>2022-02-05T11:34:54Z</time></trkpt>
<trkpt lat="45.878558" lon="11.300717"><ele>1511.19</ele><time>2022-02-05T11:34:55Z</time></trkpt>
<trkpt lat="45.878529" lon="11.300846"><ele>1511.31</ele><time>2022-02-05T11:34:57Z</time></trkpt>
<trkpt lat="45.878528" lon="11.300923"><ele>1510.92</ele><time>2022-02-05T11:34:59Z</time></trkpt>
<trkpt lat="45.878602" lon="11.301304"><ele>1505.1</ele><time>2022-02-05T11:35:00Z</time></trkpt>
<trkpt lat="45.87865" lon="11.301468"><ele>1503.31</ele><time>2022-02-05T11:35:02Z</time></trkpt>
<trkpt lat="45.878752" lon="11.301717"><ele>1502.16</ele><time>2022-02-05T11:35:03Z</time></trkpt>
<trkpt lat="45.878793" lon="11.301876"><ele>1503.19</ele><time>2022-02-05T11:35:05Z</time></trkpt>
<trkpt lat="45.878874" lon="11.302432"><ele>1506.21</ele><time>2022-02-05T11:35:07Z</time></trkpt>
<trkpt lat="45.878869" lon="11.30262"><ele>1506.18</ele><time>2022-02-05T11:35:08Z</time></trkpt>
<trkpt lat="45.878803" lon="11.302814"><ele>1507.56</ele><time>2022-02-05T11:35:10Z</time></trkpt>
<trkpt lat="45.878626" lon="11.303056"><ele>1512.45</ele><time>2022-02-05T11:35:12Z</time></trkpt>
<trkpt lat="45.878378" lon="11.303292"><ele>1517.67</ele><time>2022-02-05T11:35:13Z</time></trkpt>
<trkpt lat="45.878131" lon="11.303614"><ele>1519.8</ele><time>2022-02-05T11:35:15Z</time></trkpt>
<trkpt lat="45.877907" lon="11.303797"><ele>1523.35</ele><time>2022-02-05T11:35:16Z</time></trkpt>
<trkpt lat="45.877845" lon="11.303897"><ele>1522.04</ele><time>2022-02-05T11:35:18Z</time></trkpt>
<trkpt lat="45.877761" lon="11.304324"><ele>1512.04</ele><time>2022-02-05T11:35:20Z</time></trkpt>
<trkpt lat="45.877699" lon="11.304518"><ele>1509.53</ele><time>2022-02-05T11:35:21Z</time></trkpt>
<trkpt lat="45.877594" lon="11.304674"><ele>1509.1</ele><time>2022-02-05T11:35:23Z</time></trkpt>
<trkpt lat="45.877339" lon="11.304912"><ele>1515.74</ele><time>2022-02-05T11:35:25Z</time></trkpt>
<trkpt lat="45.877081" lon="11.305062"><ele>1525.46</ele><time>2022-02-05T11:35:26Z</time></trkpt>
<trkpt lat="45.876872" lon="11.305273"><ele>1529.08</ele><time>2022-02-05T11:35:28Z</time></trkpt>
<trkpt lat="45.876532" lon="11.305572"><ele>1528.69</ele><time>2022-02-05T11:35:29Z</time></trkpt>
<trkpt lat="45.876359" lon="11.30565"><ele>1531.68</ele><time>2022-02-05T11:35:31Z</time></trkpt>
<trkpt lat="45.876139" lon="11.305827"><ele>1534.95</ele><time>2022-02-05T11:35:33Z</time></trkpt>
<trkpt lat="45.87559" lon="11.306515"><ele>1539.26</ele><time>2022-02-05T11:35:34Z</time></trkpt>
<trkpt lat="45.875474" lon="11.306826"><ele>1537.82</ele><time>2022-02-05T11:35:36Z</time></trkpt>
<trkpt lat="45.875358" lon="11.307231"><ele>1534.54</ele><time>2022-02-05T11:35:38Z</time></trkpt>
<trkpt lat="45.875252" lon="11.307704"><ele>1532.72</ele><time>2022-02-05T11:35:39Z</time></trkpt>
<trkpt lat="45.875039" lon="11.308259"><ele>1531.73</ele><time>2022-02-05T11:35:41Z</time></trkpt>
<trkpt lat="45.874996" lon="11.308327"><ele>1531.96</ele><time>2022-02-05T11:35:42Z</time></trkpt>
<trkpt lat="45.874966" lon="11.30832"><ele>1531.24</ele><time>2022-02-05T11:35:44Z</time></trkpt>
<trkpt lat="45.874853" lon="11.308191"><ele>1529.86</ele><time>2022-02-05T11:35:46Z</time></trkpt>
<trkpt lat="45.874652" lon="11.307824"><ele>1530.41</ele><time>2022-02-05T11:35:47Z</time></trkpt>
<trkpt lat="45.874578" lon="11.307553"><ele>1531.09</ele><time>2022-02-05T11:35:49Z</time></trkpt>
<trkpt lat="45.874536" lon="11.307519"><ele>1529.4</ele><time>2022-02-05T11:35:50Z</time></trkpt>
<trkpt lat="45.874486" lon="11.307558"><ele>1526.56</ele><time>2022-02-05T11:35:52Z</time></trkpt>
<trkpt lat="45.87449" lon="11.307647"><ele>1525.95</ele><time>2022-02-05T11:35:54Z</time></trkpt>
<trkpt lat="45.874632" lon="11.308124"><ele>1524.85</ele><time>2022-02-05T11:35:55Z</time></trkpt>
<trkpt lat="45.874698" lon="11.30844"><ele>1523.44</ele><time>2022-02-05T11:35:57Z</time></trkpt>
<trkpt lat="45.87471" lon="11.30869"><ele>1522.29</ele><time>2022-02-05T11:35:59Z</time></trkpt>
<trkpt lat="45.874663" lon="11.309217"><ele>1521.06</ele><time>2022-02-05T11:36:00Z</time></trkpt>
<trkpt lat="45.874594" lon="11.309361"><ele>1519.63</ele><time>2022-02-05T11:36:02Z</time></trkpt>
<trkpt lat="45.87396" lon="11.310016"><ele>1515.1</ele><time>2022-02-05T11:36:03Z</time></trkpt>
<trkpt lat="45.873875" lon="11.310065"><ele>1512.65</ele><time>2022-02-05T11:36:05Z</time></trkpt>
<trkpt lat="45.873659" lon="11.310038"><ele>1500.55</ele><time>2022-02-05T11:36:07Z</time></trkpt>
<trkpt lat="45.873512" lon="11.310137"><ele>1500.78</ele><time>2022-02-05T11:36:08Z</time></trkpt>
<trkpt lat="45.872597" lon="11.310165"><ele>1489.58</ele><time>2022-02-05T11:36:10Z</time></trkpt>
<trkpt lat="45.872481" lon="11.310215"><ele>1488.5</ele><time>2022-02-05T11:36:12Z</time></trkpt>
<trkpt lat="45.872375" lon="11.310341"><ele>1488.8</ele><time>2022-02-05T11:36:13Z</time></trkpt>
<trkpt lat="45.872354" lon="11.310498"><ele>1489.22</ele><time>2022-02-05T11:36:15Z</time></trkpt>
<trkpt lat="45.872361" lon="11.310848"><ele>1492.27</ele><time>2022-02-05T11:36:16Z</time></trkpt>
<trkpt lat="45.872319" lon="11.310936"><ele>1491.92</ele><time>2022-02-05T11:36:18Z</time></trkpt>
<trkpt lat="45.872203" lon="11.311325"><ele>1494.11</ele><time>2022-02-05T11:36:20Z</time></trkpt>
<trkpt lat="45.872099" lon="11.311491"><ele>1489.26</ele><time>2022-02-05T11:36:21Z</time></trkpt>
<trkpt lat="45.871859" lon="11.311968"><ele>1477.54</ele><time>2022-02-05T11:36:23Z</time></trkpt>
<trkpt lat="45.871828" lon="11.312129"><ele>1476.96</ele><time>2022-02-05T11:36:25Z</time></trkpt>
<trkpt lat="45.871859" lon="11.313155"><ele>1472.0</ele><time>2022-02-05T11:36:26Z</time></trkpt>
<trkpt lat="45.871848" lon="11.31361"><ele>1469.47</ele><time>2022-02-05T11:36:28Z</time></trkpt>
<trkpt lat="45.871528" lon="11.315842"><ele>1453.6</ele><time>2022-02-05T11:36:29Z</time></trkpt>
<trkpt lat="45.87151" lon="11.316173"><ele>1455.58</ele><time>2022-02-05T11:36:31Z</time></trkpt>
<trkpt lat="45.871322" lon="11.316983"><ele>1439.03</ele><time>2022-02-05T11:36:33Z</time></trkpt>
<trkpt lat="45.871298" lon="11.317289"><ele>1436.13</ele><time>2022-02-05T11:36:34Z</time></trkpt>
<trkpt lat="45.871419" lon="11.317968"><ele>1447.67</ele><time>2022-02-05T11:36:36Z</time></trkpt>
<trkpt lat="45.871474" lon="11.318604"><ele>1438.11</ele><time>2022-02-05T11:36:38Z</time></trkpt>
<trkpt lat="45.871431" lon="11.31877"><ele>1434.35</ele><time>2022-02-05T11:36:39Z</time></trkpt>
<trkpt lat="45.871377" lon="11.318857"><ele>1430.62</ele><time>2022-02-05T11:36:41Z</time></trkpt>
<trkpt lat="45.87131" lon="11.318918"><ele>1426.52</ele><time>2022-02-05T11:36:42Z</time></trkpt>
<trkpt lat="45.871273" lon="11.319014"><ele>1424.61</ele><time>2022-02-05T11:36:44Z</time></trkpt>
<trkpt lat="45.871261" lon="11.319214"><ele>1423.75</ele><time>2022-02-05T11:36:46Z</time></trkpt>
<trkpt lat="45.871292" lon="11.319397"><ele>1423.84</ele><time>2022-02-05T11:36:47Z</time></trkpt>
<trkpt lat="45.871528" lon="11.319964"><ele>1422.5</ele><time>2022-02-05T11:36:49Z</time></trkpt>
<trkpt lat="45.871589" lon="11.320225"><ele>1419.57</ele><time>2022-02-05T11:36:50Z</time></trkpt>
<trkpt lat="45.871637" lon="11.320478"><ele>1416.88</ele><time>2022-02-05T11:36:52Z</time></trkpt>
<trkpt lat="45.871644" lon="11.320661"><ele>1416.17</ele><time>2022-02-05T11:36:54Z</time></trkpt>
<trkpt lat="45.871619" lon="11.320853"><ele>1415.75</ele><time>2022-02-05T11:36:55Z</time></trkpt>
<trkpt lat="45.871559" lon="11.321036"><ele>1413.04</ele><time>2022-02-05T11:36:57Z</time></trkpt>
<trkpt lat="45.871425" lon="11.321289"><ele>1405.05</ele><time>2022-02-05T11:36:59Z</time></trkpt>
<trkpt lat="45.871316" lon="11.321428"><ele>1400.76</ele><time>2022-02-05T11:37:00Z</time></trkpt>
<trkpt lat="45.871176" lon="11.321785"><ele>1403.79</ele><time>2022-02-05T11:37:02Z</time></trkpt>
<trkpt lat="45.871073" lon="11.322003"><ele>1407.04</ele><time>2022-02-05T11:37:03Z</time></trkpt>
<trkpt lat="45.870788" lon="11.322256"><ele>1399.0</ele><time>2022-02-05T11:37:05Z</time></trkpt>
<trkpt lat="45.870576" lon="11.322509"><ele>1390.56</ele><time>2022-02-05T11:37:07Z</time></trkpt>
<trkpt lat="45.870454" lon="11.32277"><ele>1387.45</ele><time>2022-02-05T11:37:08Z</time></trkpt>
<trkpt lat="45.870363" lon="11.323215"><ele>1383.93</ele><time>2022-02-05T11:37:10Z</time></trkpt>
<trkpt lat="45.870284" lon="11.323816"><ele>1381.26</ele><time>2022-02-05T11:37:12Z</time></trkpt>
<trkpt lat="45.870309" lon="11.323964"><ele>1380.98</ele><time>2022-02-05T11:37:13Z</time></trkpt>
<trkpt lat="45.870466" lon="11.324173"><ele>1386.07</ele><time>2022-02-05T11:37:15Z</time></trkpt>
<trkpt lat="45.87057" lon="11.324409"><ele>1387.33</ele><time>2022-02-05T11:37:16Z</time></trkpt>
<trkpt lat="45.870733" lon="11.325533"><ele>1378.31</ele><time>2022-02-05T11:37:18Z</time></trkpt>
<trkpt lat="45.870703" lon="11.325838"><ele>1376.09</ele><time>2022-02-05T11:37:20Z</time></trkpt>
<trkpt lat="45.870582" lon="11.326256"><ele>1370.08</ele><time>2022-02-05T11:37:21Z</time></trkpt>
<trkpt lat="45.870387" lon="11.326666"><ele>1363.52</ele><time>2022-02-05T11:37:23Z</time></trkpt>
<trkpt lat="45.869902" lon="11.327572"><ele>1347.75</ele><time>2022-02-05T11:37:25Z</time></trkpt>
<trkpt lat="45.869837" lon="11.327802"><ele>1346.15</ele><time>2022-02-05T11:37:26Z</time></trkpt>
<trkpt lat="45.869844" lon="11.32808"><ele>1345.93</ele><time>2022-02-05T11:37:28Z</time></trkpt>
<trkpt lat="45.869822" lon="11.328111"><ele>1344.56</ele><time>2022-02-05T11:37:29Z</time></trkpt>
<trkpt lat="45.869791" lon="11.328106"><ele>1342.79</ele><time>2022-02-05T11:37:31Z</time></trkpt>
<trkpt lat="45.86976" lon="11.327991"><ele>1341.35</ele><time>2022-02-05T11:37:33Z</time></trkpt>
<trkpt lat="45.869726" lon="11.327607"><ele>1338.97</ele><time>2022-02-05T11:37:34Z</time></trkpt>
<trkpt lat="45.869811" lon="11.326953"><ele>1334.93</ele><time>2022-02-05T11:37:36Z</time></trkpt>
<trkpt lat="45.870066" lon="11.325934"><ele>1338.98</ele><time>2022-02-05T11:37:38Z</time></trkpt>
<trkpt lat="45.87012" lon="11.325653"><ele>1340.89</ele><time>2022-02-05T11:37:39Z</time></trkpt>
<trkpt lat="45.870044" lon="11.325305"><ele>1337.68</ele><time>2022-02-05T11:37:41Z</time></trkpt>
<trkpt lat="45.869793" lon="11.325036"><ele>1328.29</ele><time>2022-02-05T11:37:42Z</time></trkpt>
<trkpt lat="45.869259" lon="11.3246"><ele>1323.74</ele><time>2022-02-05T11:37:44Z</time></trkpt>
<trkpt lat="45.868931" lon="11.324147"><ele>1312.02</ele><time>2022-02-05T11:37:46Z</time></trkpt>
<trkpt lat="45.868688" lon="11.323677"><ele>1301.24</ele><time>2022-02-05T11:37:47Z</time></trkpt>
<trkpt lat="45.868661" lon="11.323322"><ele>1296.67</ele><time>2022-02-05T11:37:49Z</time></trkpt>
<trkpt lat="45.86876" lon="11.322833"><ele>1299.66</ele><time>2022-02-05T11:37:51Z</time></trkpt>
<trkpt lat="45.868724" lon="11.322738"><ele>1297.64</ele><time>2022-02-05T11:37:52Z</time></trkpt>
<trkpt lat="45.868689" lon="11.32274"><ele>1296.14</ele><time>2022-02-05T11:37:54Z</time></trkpt>
<trkpt lat="45.868652" lon="11.322787"><ele>1294.77</ele><time>2022-02-05T11:37:55Z</time></trkpt>
<trkpt lat="45.868403" lon="11.323565"><ele>1289.27</ele><time>2022-02-05T11:37:57Z</time></trkpt>
<trkpt lat="45.868405" lon="11.323834"><ele>1290.18</ele><time>2022-02-05T11:37:59Z</time></trkpt>
<trkpt lat="45.868595" lon="11.324215"><ele>1295.7</ele><time>2022-02-05T11:38:00Z</time></trkpt>
<trkpt lat="45.868816" lon="11.32487"><ele>1292.37</ele><time>2022-02-05T11:38:02Z</time></trkpt>
<trkpt lat="45.869114" lon="11.325459"><ele>1289.34</ele><time>2022-02-05T11:38:03Z</time></trkpt>
<trkpt lat="45.869196" lon="11.325655"><ele>1289.71</ele><time>2022-02-05T11:38:05Z</time></trkpt>
<trkpt lat="45.86918" lon="11.325803"><ele>1287.84</ele><time>2022-02-05T11:38:07Z</time></trkpt>
<trkpt lat="45.869137" lon="11.325986"><ele>1283.42</ele><time>2022-02-05T11:38:08Z</time></trkpt>
<trkpt lat="45.868883" lon="11.3265"><ele>1272.89</ele><time>2022-02-05T11:38:10Z</time></trkpt>
<trkpt lat="45.868719" lon="11.326953"><ele>1271.72</ele><time>2022-02-05T11:38:12Z</time></trkpt>
<trkpt lat="45.868482" lon="11.327685"><ele>1266.2</ele><time>2022-02-05T11:38:13Z</time></trkpt>
<trkpt lat="45.868379" lon="11.32833"><ele>1261.11</ele><time>2022-02-05T11:38:15Z</time></trkpt>
<trkpt lat="45.868367" lon="11.329045"><ele>1261.81</ele><time>2022-02-05T11:38:16Z</time></trkpt>
<trkpt lat="45.868373" lon="11.329873"><ele>1256.94</ele><time>2022-02-05T11:38:18Z</time></trkpt>
<trkpt lat="45.868355" lon="11.330596"><ele>1250.6</ele><time>2022-02-05T11:38:20Z</time></trkpt>
<trkpt lat="45.868391" lon="11.33098"><ele>1245.7</ele><time>2022-02-05T11:38:21Z</time></trkpt>
<trkpt lat="45.868537" lon="11.331346"><ele>1244.17</ele><time>2022-02-05T11:38:23Z</time></trkpt>
<trkpt lat="45.868591" lon="11.331546"><ele>1243.59</ele><time>2022-02-05T11:38:25Z</time></trkpt>
<trkpt lat="45.868597" lon="11.332034"><ele>1239.78</ele><time>2022-02-05T11:38:26Z</time></trkpt>
<trkpt lat="45.868628" lon="11.332574"><ele>1239.68</ele><time>2022-02-05T11:38:28Z</time></trkpt>
<trkpt lat="45.868731" lon="11.333516"><ele>1230.19</ele><time>2022-02-05T11:38:29Z</time></trkpt>
<trkpt lat="45.868876" lon="11.334239"><ele>1222.65</ele><time>2022-02-05T11:38:31Z</time></trkpt>
<trkpt lat="45.869083" lon="11.33464"><ele>1225.3</ele><time>2022-02-05T11:38:33Z</time></trkpt>
<trkpt lat="45.869228" lon="11.334989"><ele>1221.95</ele><time>2022-02-05T11:38:34Z</time></trkpt>
<trkpt lat="45.86935" lon="11.335503"><ele>1218.89</ele><time>2022-02-05T11:38:36Z</time></trkpt>
<trkpt lat="45.869411" lon="11.335938"><ele>1216.69</ele><time>2022-02-05T11:38:38Z</time></trkpt>
<trkpt lat="45.869547" lon="11.336606"><ele>1209.34</ele><time>2022-02-05T11:38:39Z</time></trkpt>
<trkpt lat="45.869555" lon="11.33696"><ele>1207.53</ele><time>2022-02-05T11:38:41Z</time></trkpt>
<trkpt lat="45.869535" lon="11.337033"><ele>1206.99</ele><time>2022-02-05T11:38:43Z</time></trkpt>
<trkpt lat="45.869487" lon="11.336841"><ele>1206.99</ele><time>2022-02-05T11:38:45Z</time></trkpt>
<trkpt lat="45.869419" lon="11.336696"><ele>1206.27</ele><time>2022-02-05T11:38:48Z</time></trkpt>
<trkpt lat="45.86928" lon="11.336515"><ele>1204.72</ele><time>2022-02-05T11:38:50Z</time></trkpt>
<trkpt lat="45.868761" lon="11.335561"><ele>1192.69</ele><time>2022-02-05T11:38:53Z</time></trkpt>
<trkpt lat="45.86801" lon="11.333879"><ele>1187.96</ele><time>2022-02-05T11:38:55Z</time></trkpt>
<trkpt lat="45.867764" lon="11.333525"><ele>1179.96</ele><time>2022-02-05T11:38:58Z</time></trkpt>
<trkpt lat="45.867614" lon="11.333132"><ele>1179.24</ele><time>2022-02-05T11:39:01Z</time></trkpt>
<trkpt lat="45.86744" lon="11.332882"><ele>1174.32</ele><time>2022-02-05T11:39:03Z</time></trkpt>
<trkpt lat="45.86715" lon="11.332833"><ele>1164.71</ele><time>2022-02-05T11:39:06Z</time></trkpt>
<trkpt lat="45.866597" lon="11.332802"><ele>1162.11</ele><time>2022-02-05T11:39:08Z</time></trkpt>
<trkpt lat="45.866358" lon="11.33291"><ele>1157.75</ele><time>2022-02-05T11:39:11Z</time></trkpt>
<trkpt lat="45.866085" lon="11.333093"><ele>1151.34</ele><time>2022-02-05T11:39:13Z</time></trkpt>
<trkpt lat="45.86585" lon="11.333212"><ele>1149.71</ele><time>2022-02-05T11:39:16Z</time></trkpt>
<trkpt lat="45.86574" lon="11.333256"><ele>1148.84</ele><time>2022-02-05T11:39:18Z</time></trkpt>
<trkpt lat="45.865542" lon="11.333275"><ele>1147.96</ele><time>2022-02-05T11:39:21Z</time></trkpt>
<trkpt lat="45.865391" lon="11.333237"><ele>1145.38</ele><time>2022-02-05T11:39:24Z</time></trkpt>
<trkpt lat="45.865307" lon="11.33324"><ele>1143.86</ele><time>2022-02-05T11:39:26Z</time></trkpt>
<trkpt lat="45.865222" lon="11.333312"><ele>1142.06</ele><time>2022-02-05T11:39:29Z</time></trkpt>
<trkpt lat="45.865036" lon="11.33363"><ele>1137.48</ele><time>2022-02-05T11:39:31Z</time></trkpt>
<trkpt lat="45.864839" lon="11.333847"><ele>1136.28</ele><time>2022-02-05T11:39:34Z</time></trkpt>
<trkpt lat="45.864374" lon="11.334008"><ele>1134.91</ele><time>2022-02-05T11:39:36Z</time></trkpt>
<trkpt lat="45.863903" lon="11.334059"><ele>1121.88</ele><time>2022-02-05T11:39:39Z</time></trkpt>
<trkpt lat="45.863377" lon="11.334086"><ele>1122.24</ele><time>2022-02-05T11:39:41Z</time></trkpt>
<trkpt lat="45.86208" lon="11.334348"><ele>1115.16</ele><time>2022-02-05T11:39:44Z</time></trkpt>
<trkpt lat="45.861944" lon="11.33444"><ele>1114.03</ele><time>2022-02-05T11:39:47Z</time></trkpt>
<trkpt lat="45.861244" lon="11.335013"><ele>1109.07</ele><time>2022-02-05T11:39:49Z</time></trkpt>
<trkpt lat="45.861127" lon="11.335148"><ele>1110.85</ele><time>2022-02-05T11:39:52Z</time></trkpt>
<trkpt lat="45.861052" lon="11.335302"><ele>1112.02</ele><time>2022-02-05T11:39:54Z</time></trkpt>
<trkpt lat="45.860932" lon="11.335939"><ele>1105.47</ele><time>2022-02-05T11:39:57Z</time></trkpt>
<trkpt lat="45.860787" lon="11.336257"><ele>1102.41</ele><time>2022-02-05T11:39:59Z</time></trkpt>
<trkpt lat="45.860514" lon="11.336518"><ele>1100.75</ele><time>2022-02-05T11:40:02Z</time></trkpt>
<trkpt lat="45.860306" lon="11.336626"><ele>1098.86</ele><time>2022-02-05T11:40:04Z</time></trkpt>
<trkpt lat="45.860089" lon="11.336706"><ele>1098.01</ele><time>2022-02-05T11:40:07Z</time></trkpt>
<trkpt lat="45.85993" lon="11.33674"><ele>1097.93</ele><time>2022-02-05T11:40:10Z</time></trkpt>
<trkpt lat="45.859486" lon="11.336997"><ele>1091.66</ele><time>2022-02-05T11:40:12Z</time></trkpt>
<trkpt lat="45.859328" lon="11.337088"><ele>1088.9</ele><time>2022-02-05T11:40:15Z</time></trkpt>
<trkpt lat="45.858548" lon="11.337411"><ele>1085.71</ele><time>2022-02-05T11:40:17Z</time></trkpt>
<trkpt lat="45.858119" lon="11.33753"><ele>1082.78</ele><time>2022-02-05T11:40:20Z</time></trkpt>
<trkpt lat="45.857762" lon="11.337526"><ele>1083.45</ele><time>2022-02-05T11:40:22Z</time></trkpt>
<trkpt lat="45.857588" lon="11.337589"><ele>1080.06</ele><time>2022-02-05T11:40:25Z</time></trkpt>
<trkpt lat="45.857546" lon="11.337625"><ele>1079.23</ele><time>2022-02-05T11:40:27Z</time></trkpt>
<trkpt lat="45.857508" lon="11.337696"><ele>1078.4</ele><time>2022-02-05T11:40:30Z</time></trkpt>
<trkpt lat="45.857519" lon="11.33778"><ele>1078.2</ele><time>2022-02-05T11:40:33Z</time></trkpt>
<trkpt lat="45.857551" lon="11.337866"><ele>1078.23</ele><time>2022-02-05T11:40:35Z</time></trkpt>
<trkpt lat="45.858141" lon="11.338356"><ele>1077.14</ele><time>2022-02-05T11:40:38Z</time></trkpt>
<trkpt lat="45.858432" lon="11.338383"><ele>1076.82</ele><time>2022-02-05T11:40:40Z</time></trkpt>
<trkpt lat="45.859094" lon="11.33839"><ele>1081.08</ele><time>2022-02-05T11:40:43Z</time></trkpt>
<trkpt lat="45.859936" lon="11.33851"><ele>1079.09</ele><time>2022-02-05T11:40:45Z</time></trkpt>
<trkpt lat="45.860675" lon="11.338846"><ele>1069.16</ele><time>2022-02-05T11:40:48Z</time></trkpt>
<trkpt lat="45.860955" lon="11.338946"><ele>1066.53</ele><time>2022-02-05T11:40:50Z</time></trkpt>
<trkpt lat="45.861172" lon="11.339131"><ele>1061.88</ele><time>2022-02-05T11:40:53Z</time></trkpt>
<trkpt lat="45.861456" lon="11.339752"><ele>1054.95</ele><time>2022-02-05T11:40:56Z</time></trkpt>
<trkpt lat="45.861514" lon="11.339831"><ele>1054.65</ele><time>2022-02-05T11:40:58Z</time></trkpt>
<trkpt lat="45.861542" lon="11.339851"><ele>1054.49</ele><time>2022-02-05T11:41:01Z</time></trkpt>
<trkpt lat="45.862191" lon="11.339976"><ele>1049.96</ele><time>2022-02-05T11:41:03Z</time></trkpt>
<trkpt lat="45.862372" lon="11.340085"><ele>1048.92</ele><time>2022-02-05T11:41:06Z</time></trkpt>
<trkpt lat="45.862521" lon="11.340416"><ele>1047.54</ele><time>2022-02-05T11:41:08Z</time></trkpt>
<trkpt lat="45.86257" lon="11.340816"><ele>1045.61</ele><time>2022-02-05T11:41:11Z</time></trkpt>
<trkpt lat="45.86256" lon="11.340989"><ele>1044.31</ele><time>2022-02-05T11:41:13Z</time></trkpt>
<trkpt lat="45.862507" lon="11.341171"><ele>1042.62</ele><time>2022-02-05T11:41:16Z</time></trkpt>
<trkpt lat="45.86247" lon="11.341226"><ele>1041.9</ele><time>2022-02-05T11:41:19Z</time></trkpt>
<trkpt lat="45.862201" lon="11.34142"><ele>1038.98</ele><time>2022-02-05T11:41:21Z</time></trkpt>
<trkpt lat="45.8619" lon="11.341682"><ele>1036.68</ele><time>2022-02-05T11:41:24Z</time></trkpt>
<trkpt lat="45.861503" lon="11.342104"><ele>1035.21</ele><time>2022-02-05T11:41:26Z</time></trkpt>
<trkpt lat="45.861052" lon="11.342413"><ele>1033.52</ele><time>2022-02-05T11:41:29Z</time></trkpt>
<trkpt lat="45.860834" lon="11.342619"><ele>1032.29</ele><time>2022-02-05T11:41:31Z</time></trkpt>
<trkpt lat="45.860705" lon="11.34283"><ele>1029.28</ele><time>2022-02-05T11:41:34Z</time></trkpt>
<trkpt lat="45.860618" lon="11.343095"><ele>1027.47</ele><time>2022-02-05T11:41:36Z</time></trkpt>
<trkpt lat="45.86061" lon="11.343408"><ele>1026.59</ele><time>2022-02-05T11:41:39Z</time></trkpt>
<trkpt lat="45.86063" lon="11.34353"><ele>1026.35</ele><time>2022-02-05T11:41:41Z</time></trkpt>
<trkpt lat="45.860701" lon="11.34378"><ele>1026.69</ele><time>2022-02-05T11:41:44Z</time></trkpt>
<trkpt lat="45.860941" lon="11.344457"><ele>1029.45</ele><time>2022-02-05T11:41:47Z</time></trkpt>
<trkpt lat="45.861497" lon="11.345828"><ele>1026.1</ele><time>2022-02-05T11:41:49Z</time></trkpt>
<trkpt lat="45.861871" lon="11.346648"><ele>1018.49</ele><time>2022-02-05T11:41:52Z</time></trkpt>
<trkpt lat="45.861949" lon="11.346978"><ele>1014.76</ele><time>2022-02-05T11:41:54Z</time></trkpt>
<trkpt lat="45.861954" lon="11.347169"><ele>1012.83</ele><time>2022-02-05T11:41:57Z</time></trkpt>
<trkpt lat="45.861911" lon="11.347374"><ele>1011.71</ele><time>2022-02-05T11:41:59Z</time></trkpt>
<trkpt lat="45.861865" lon="11.347504"><ele>1011.05</ele><time>2022-02-05T11:42:02Z</time></trkpt>
<trkpt lat="45.861801" lon="11.347621"><ele>1010.43</ele><time>2022-02-05T11:42:04Z</time></trkpt>
<trkpt lat="45.861668" lon="11.347734"><ele>1006.89</ele><time>2022-02-05T11:42:07Z</time></trkpt>
<trkpt lat="45.861498" lon="11.34781"><ele>1004.68</ele><time>2022-02-05T11:42:10Z</time></trkpt>
<trkpt lat="45.861043" lon="11.347953"><ele>1001.39</ele><time>2022-02-05T11:42:12Z</time></trkpt>
<trkpt lat="45.860694" lon="11.347946"><ele>999.3</ele><time>2022-02-05T11:42:15Z</time></trkpt>
<trkpt lat="45.860597" lon="11.347914"><ele>998.37</ele><time>2022-02-05T11:42:17Z</time></trkpt>
<trkpt lat="45.860319" lon="11.347821"><ele>995.9</ele><time>2022-02-05T11:42:20Z</time></trkpt>
<trkpt lat="45.860018" lon="11.347614"><ele>996.96</ele><time>2022-02-05T11:42:22Z</time></trkpt>
<trkpt lat="45.859736" lon="11.347391"><ele>995.73</ele><time>2022-02-05T11:42:25Z</time></trkpt>
<trkpt lat="45.859209" lon="11.347028"><ele>993.71</ele><time>2022-02-05T11:42:27Z</time></trkpt>
<trkpt lat="45.858357" lon="11.346399"><ele>988.41</ele><time>2022-02-05T11:42:30Z</time></trkpt>
<trkpt lat="45.857873" lon="11.34599"><ele>988.82</ele><time>2022-02-05T11:42:33Z</time></trkpt>
<trkpt lat="45.857701" lon="11.345825"><ele>989.89</ele><time>2022-02-05T11:42:35Z</time></trkpt>
<trkpt lat="45.857583" lon="11.345762"><ele>989.16</ele><time>2022-02-05T11:42:38Z</time></trkpt>
<trkpt lat="45.857428" lon="11.345816"><ele>988.33</ele><time>2022-02-05T11:42:40Z</time></trkpt>
<trkpt lat="45.857287" lon="11.345915"><ele>984.68</ele><time>2022-02-05T11:42:43Z</time></trkpt>
<trkpt lat="45.857203" lon="11.345927"><ele>983.34</ele><time>2022-02-05T11:42:45Z</time></trkpt>
<trkpt lat="45.856822" lon="11.345797"><ele>985.36</ele><time>2022-02-05T11:42:48Z</time></trkpt>
<trkpt lat="45.856253" lon="11.345571"><ele>982.73</ele><time>2022-02-05T11:42:50Z</time></trkpt>
<trkpt lat="45.856054" lon="11.345557"><ele>979.34</ele><time>2022-02-05T11:42:53Z</time></trkpt>
<trkpt lat="45.854984" lon="11.345749"><ele>967.11</ele><time>2022-02-05T11:42:56Z</time></trkpt>
<trkpt lat="45.854603" lon="11.346025"><ele>962.4</ele><time>2022-02-05T11:42:58Z</time></trkpt>
<trkpt lat="45.853803" lon="11.346785"><ele>955.79</ele><time>2022-02-05T11:43:01Z</time></trkpt>
<trkpt lat="45.853737" lon="11.346905"><ele>955.53</ele><time>2022-02-05T11:43:03Z</time></trkpt>
<trkpt lat="45.853677" lon="11.347064"><ele>955.31</ele><time>2022-02-05T11:43:06Z</time></trkpt>
<trkpt lat="45.853672" lon="11.347152"><ele>954.89</ele><time>2022-02-05T11:43:08Z</time></trkpt>
<trkpt lat="45.853702" lon="11.347201"><ele>953.86</ele><time>2022-02-05T11:43:11Z</time></trkpt>
<trkpt lat="45.853738" lon="11.347213"><ele>952.89</ele><time>2022-02-05T11:43:13Z</time></trkpt>
<trkpt lat="45.854062" lon="11.347087"><ele>948.76</ele><time>2022-02-05T11:43:16Z</time></trkpt>
<trkpt lat="45.854414" lon="11.346904"><ele>948.06</ele><time>2022-02-05T11:43:19Z</time></trkpt>
<trkpt lat="45.854711" lon="11.346857"><ele>946.71</ele><time>2022-02-05T11:43:21Z</time></trkpt>
<trkpt lat="45.855235" lon="11.346923"><ele>944.23</ele><time>2022-02-05T11:43:24Z</time></trkpt>
<trkpt lat="45.855918" lon="11.347428"><ele>939.82</ele><time>2022-02-05T11:43:26Z</time></trkpt>
<trkpt lat="45.856125" lon="11.347749"><ele>933.78</ele><time>2022-02-05T11:43:29Z</time></trkpt>
<trkpt lat="45.856382" lon="11.347938"><ele>929.93</ele><time>2022-02-05T11:43:31Z</time></trkpt>
<trkpt lat="45.856654" lon="11.34806"><ele>926.86</ele><time>2022-02-05T11:43:34Z</time></trkpt>
<trkpt lat="45.857234" lon="11.348252"><ele>928.13</ele><time>2022-02-05T11:43:36Z</time></trkpt>
<trkpt lat="45.857455" lon="11.348358"><ele>927.22</ele><time>2022-02-05T11:43:39Z</time></trkpt>
<trkpt lat="45.857496" lon="11.348405"><ele>926.67</ele><time>2022-02-05T11:43:42Z</time></trkpt>
<trkpt lat="45.85754" lon="11.348507"><ele>924.73</ele><time>2022-02-05T11:43:44Z</time></trkpt>
<trkpt lat="45.857544" lon="11.348583"><ele>923.34</ele><time>2022-02-05T11:43:47Z</time></trkpt>
<trkpt lat="45.857512" lon="11.348683"><ele>921.67</ele><time>2022-02-05T11:43:49Z</time></trkpt>
<trkpt lat="45.856994" lon="11.349053"><ele>910.73</ele><time>2022-02-05T11:43:52Z</time></trkpt>
<trkpt lat="45.856104" lon="11.34951"><ele>909.8</ele><time>2022-02-05T11:43:54Z</time></trkpt>
<trkpt lat="45.855415" lon="11.349675"><ele>907.34</ele><time>2022-02-05T11:43:57Z</time></trkpt>
<trkpt lat="45.854869" lon="11.349824"><ele>908.73</ele><time>2022-02-05T11:43:59Z</time></trkpt>
<trkpt lat="45.854644" lon="11.349813"><ele>907.29</ele><time>2022-02-05T11:44:02Z</time></trkpt>
<trkpt lat="45.85449" lon="11.349681"><ele>907.07</ele><time>2022-02-05T11:44:05Z</time></trkpt>
<trkpt lat="45.854253" lon="11.349652"><ele>905.55</ele><time>2022-02-05T11:44:07Z</time></trkpt>
<trkpt lat="45.854028" lon="11.349758"><ele>904.67</ele><time>2022-02-05T11:44:10Z</time></trkpt>
<trkpt lat="45.853285" lon="11.350656"><ele>897.04</ele><time>2022-02-05T11:44:12Z</time></trkpt>
<trkpt lat="45.853002" lon="11.350876"><ele>896.03</ele><time>2022-02-05T11:44:15Z</time></trkpt>
<trkpt lat="45.852156" lon="11.351448"><ele>880.43</ele><time>2022-02-05T11:44:17Z</time></trkpt>
<trkpt lat="45.851313" lon="11.352101"><ele>877.66</ele><time>2022-02-05T11:44:20Z</time></trkpt>
<trkpt lat="45.850872" lon="11.352274"><ele>868.9</ele><time>2022-02-05T11:44:22Z</time></trkpt>
<trkpt lat="45.850583" lon="11.352311"><ele>869.01</ele><time>2022-02-05T11:44:25Z</time></trkpt>
<trkpt lat="45.850021" lon="11.352241"><ele>860.9</ele><time>2022-02-05T11:44:28Z</time></trkpt>
<trkpt lat="45.849919" lon="11.352244"><ele>860.47</ele><time>2022-02-05T11:44:30Z</time></trkpt>
<trkpt lat="45.849917" lon="11.352332"><ele>858.34</ele><time>2022-02-05T11:44:33Z</time></trkpt>
<trkpt lat="45.849954" lon="11.352439"><ele>855.66</ele><time>2022-02-05T11:44:35Z</time></trkpt>
<trkpt lat="45.85008" lon="11.352501"><ele>855.15</ele><time>2022-02-05T11:44:38Z</time></trkpt>
<trkpt lat="45.851188" lon="11.352701"><ele>855.54</ele><time>2022-02-05T11:44:40Z</time></trkpt>
<trkpt lat="45.851566" lon="11.352698"><ele>854.47</ele><time>2022-02-05T11:44:43Z</time></trkpt>
<trkpt lat="45.85265" lon="11.352505"><ele>847.71</ele><time>2022-02-05T11:44:45Z</time></trkpt>
<trkpt lat="45.853023" lon="11.352521"><ele>841.02</ele><time>2022-02-05T11:44:48Z</time></trkpt>
<trkpt lat="45.853393" lon="11.352498"><ele>838.24</ele><time>2022-02-05T11:44:51Z</time></trkpt>
<trkpt lat="45.85375" lon="11.352283"><ele>842.82</ele><time>2022-02-05T11:44:53Z</time></trkpt>
<trkpt lat="45.854103" lon="11.352165"><ele>842.8</ele><time>2022-02-05T11:44:56Z</time></trkpt>
<trkpt lat="45.854396" lon="11.352132"><ele>840.51</ele><time>2022-02-05T11:44:58Z</time></trkpt>
<trkpt lat="45.855396" lon="11.352295"><ele>832.81</ele><time>2022-02-05T11:45:01Z</time></trkpt>
<trkpt lat="45.856098" lon="11.352499"><ele>825.22</ele><time>2022-02-05T11:45:03Z</time></trkpt>
<trkpt lat="45.856214" lon="11.352619"><ele>820.72</ele><time>2022-02-05T11:45:06Z</time></trkpt>
<trkpt lat="45.856192" lon="11.352759"><ele>813.88</ele><time>2022-02-05T11:45:08Z</time></trkpt>
<trkpt lat="45.856141" lon="11.352781"><ele>812.84</ele><time>2022-02-05T11:45:11Z</time></trkpt>
<trkpt lat="45.856048" lon="11.352781"><ele>813.75</ele><time>2022-02-05T11:45:14Z</time></trkpt>
<trkpt lat="45.855853" lon="11.352742"><ele>818.15</ele><time>2022-02-05T11:45:16Z</time></trkpt>
<trkpt lat="45.855605" lon="11.352722"><ele>819.22</ele><time>2022-02-05T11:45:19Z</time></trkpt>
<trkpt lat="45.855063" lon="11.352912"><ele>810.65</ele><time>2022-02-05T11:45:21Z</time></trkpt>
<trkpt lat="45.854817" lon="11.353068"><ele>807.05</ele><time>2022-02-05T11:45:24Z</time></trkpt>
<trkpt lat="45.854494" lon="11.353368"><ele>802.23</ele><time>2022-02-05T11:45:26Z</time></trkpt>
<trkpt lat="45.854189" lon="11.353794"><ele>798.37</ele><time>2022-02-05T11:45:29Z</time></trkpt>
<trkpt lat="45.85394" lon="11.354407"><ele>786.87</ele><time>2022-02-05T11:45:31Z</time></trkpt>
<trkpt lat="45.853832" lon="11.354518"><ele>783.86</ele><time>2022-02-05T11:45:34Z</time></trkpt>
<trkpt lat="45.853832" lon="11.354518"><ele>783.86</ele><time>2022-02-05T11:45:34Z</time></trkpt>
<trkpt lat="45.853246" lon="11.355118"><ele>780.86</ele><time>2022-02-05T11:45:36Z</time></trkpt>
<trkpt lat="45.852528" lon="11.355448"><ele>772.36</ele><time>2022-02-05T11:45:37Z</time></trkpt>
<trkpt lat="45.85076" lon="11.356084"><ele>766.18</ele><time>2022-02-05T11:45:39Z</time></trkpt>
<trkpt lat="45.849905" lon="11.356392"><ele>765.27</ele><time>2022-02-05T11:45:41Z</time></trkpt>
<trkpt lat="45.849538" lon="11.356749"><ele>758.14</ele><time>2022-02-05T11:45:42Z</time></trkpt>
<trkpt lat="45.849169" lon="11.357195"><ele>759.55</ele><time>2022-02-05T11:45:44Z</time></trkpt>
<trkpt lat="45.848926" lon="11.357597"><ele>747.93</ele><time>2022-02-05T11:45:45Z</time></trkpt>
<trkpt lat="45.848792" lon="11.357734"><ele>744.84</ele><time>2022-02-05T11:45:47Z</time></trkpt>
<trkpt lat="45.848602" lon="11.357839"><ele>744.06</ele><time>2022-02-05T11:45:49Z</time></trkpt>
<trkpt lat="45.848236" lon="11.357881"><ele>751.07</ele><time>2022-02-05T11:45:50Z</time></trkpt>
<trkpt lat="45.847882" lon="11.358066"><ele>745.52</ele><time>2022-02-05T11:45:52Z</time></trkpt>
<trkpt lat="45.847674" lon="11.358321"><ele>735.25</ele><time>2022-02-05T11:45:54Z</time></trkpt>
<trkpt lat="45.84751" lon="11.358667"><ele>736.0</ele><time>2022-02-05T11:45:55Z</time></trkpt>
<trkpt lat="45.847371" lon="11.359021"><ele>745.13</ele><time>2022-02-05T11:45:57Z</time></trkpt>
<trkpt lat="45.847243" lon="11.359208"><ele>740.0</ele><time>2022-02-05T11:45:58Z</time></trkpt>
<trkpt lat="45.847012" lon="11.359277"><ele>737.43</ele><time>2022-02-05T11:46:00Z</time></trkpt>
<trkpt lat="45.84676" lon="11.359215"><ele>734.93</ele><time>2022-02-05T11:46:02Z</time></trkpt>
<trkpt lat="45.846526" lon="11.359206"><ele>757.88</ele><time>2022-02-05T11:46:03Z</time></trkpt>
<trkpt lat="45.846424" lon="11.359254"><ele>767.66</ele><time>2022-02-05T11:46:05Z</time></trkpt>
<trkpt lat="45.846202" lon="11.359454"><ele>789.91</ele><time>2022-02-05T11:46:07Z</time></trkpt>
<trkpt lat="45.846099" lon="11.359622"><ele>757.44</ele><time>2022-02-05T11:46:08Z</time></trkpt>
<trkpt lat="45.84595" lon="11.359989"><ele>733.4</ele><time>2022-02-05T11:46:10Z</time></trkpt>
<trkpt lat="45.845853" lon="11.360271"><ele>727.78</ele><time>2022-02-05T11:46:11Z</time></trkpt>
<trkpt lat="45.845713" lon="11.360578"><ele>721.41</ele><time>2022-02-05T11:46:13Z</time></trkpt>
<trkpt lat="45.845619" lon="11.360714"><ele>716.38</ele><time>2022-02-05T11:46:15Z</time></trkpt>
<trkpt lat="45.845408" lon="11.360751"><ele>713.66</ele><time>2022-02-05T11:46:16Z</time></trkpt>
<trkpt lat="45.844752" lon="11.360474"><ele>715.33</ele><time>2022-02-05T11:46:18Z</time></trkpt>
<trkpt lat="45.844149" lon="11.360191"><ele>749.62</ele><time>2022-02-05T11:46:20Z</time></trkpt>
<trkpt lat="45.843855" lon="11.360075"><ele>772.06</ele><time>2022-02-05T11:46:21Z</time></trkpt>
<trkpt lat="45.843688" lon="11.360093"><ele>750.2</ele><time>2022-02-05T11:46:23Z</time></trkpt>
<trkpt lat="45.843383" lon="11.360179"><ele>694.22</ele><time>2022-02-05T11:46:24Z</time></trkpt>
<trkpt lat="45.84311" lon="11.360437"><ele>687.03</ele><time>2022-02-05T11:46:26Z</time></trkpt>
<trkpt lat="45.842835" lon="11.360742"><ele>701.53</ele><time>2022-02-05T11:46:28Z</time></trkpt>
<trkpt lat="45.842726" lon="11.360895"><ele>700.08</ele><time>2022-02-05T11:46:29Z</time></trkpt>
<trkpt lat="45.842563" lon="11.361053"><ele>691.61</ele><time>2022-02-05T11:46:31Z</time></trkpt>
<trkpt lat="45.842427" lon="11.361092"><ele>689.7</ele><time>2022-02-05T11:46:33Z</time></trkpt>
<trkpt lat="45.842205" lon="11.361045"><ele>695.22</ele><time>2022-02-05T11:46:34Z</time></trkpt>
<trkpt lat="45.842045" lon="11.360947"><ele>705.07</ele><time>2022-02-05T11:46:36Z</time></trkpt>
<trkpt lat="45.841672" lon="11.36083"><ele>698.66</ele><time>2022-02-05T11:46:37Z</time></trkpt>
<trkpt lat="45.841415" lon="11.360855"><ele>688.91</ele><time>2022-02-05T11:46:39Z</time></trkpt>
<trkpt lat="45.840923" lon="11.360994"><ele>725.14</ele><time>2022-02-05T11:46:41Z</time></trkpt>
<trkpt lat="45.840771" lon="11.36104"><ele>732.94</ele><time>2022-02-05T11:46:42Z</time></trkpt>
<trkpt lat="45.840646" lon="11.361144"><ele>736.75</ele><time>2022-02-05T11:46:44Z</time></trkpt>
<trkpt lat="45.839696" lon="11.362205"><ele>741.79</ele><time>2022-02-05T11:46:46Z</time></trkpt>
<trkpt lat="45.838868" lon="11.362933"><ele>676.8</ele><time>2022-02-05T11:46:47Z</time></trkpt>
<trkpt lat="45.838644" lon="11.363067"><ele>676.03</ele><time>2022-02-05T11:46:49Z</time></trkpt>
<trkpt lat="45.838332" lon="11.363077"><ele>679.2</ele><time>2022-02-05T11:46:50Z</time></trkpt>
<trkpt lat="45.837965" lon="11.362889"><ele>681.09</ele><time>2022-02-05T11:46:52Z</time></trkpt>
<trkpt lat="45.8377" lon="11.362817"><ele>683.66</ele><time>2022-02-05T11:46:54Z</time></trkpt>
<trkpt lat="45.837565" lon="11.362965"><ele>679.19</ele><time>2022-02-05T11:46:55Z</time></trkpt>
<trkpt lat="45.837356" lon="11.363468"><ele>658.9</ele><time>2022-02-05T11:46:57Z</time></trkpt>
<trkpt lat="45.837195" lon="11.363674"><ele>652.89</ele><time>2022-02-05T11:46:59Z</time></trkpt>
<trkpt lat="45.836987" lon="11.363671"><ele>654.0</ele><time>2022-02-05T11:47:00Z</time></trkpt>
<trkpt lat="45.836397" lon="11.363229"><ele>653.7</ele><time>2022-02-05T11:47:02Z</time></trkpt>
<trkpt lat="45.836149" lon="11.362819"><ele>662.75</ele><time>2022-02-05T11:47:03Z</time></trkpt>
<trkpt lat="45.836017" lon="11.362683"><ele>666.52</ele><time>2022-02-05T11:47:05Z</time></trkpt>
<trkpt lat="45.835881" lon="11.36268"><ele>665.31</ele><time>2022-02-05T11:47:07Z</time></trkpt>
<trkpt lat="45.83578" lon="11.362734"><ele>665.55</ele><time>2022-02-05T11:47:08Z</time></trkpt>
<trkpt lat="45.835482" lon="11.363029"><ele>659.98</ele><time>2022-02-05T11:47:10Z</time></trkpt>
<trkpt lat="45.835336" lon="11.363128"><ele>663.28</ele><time>2022-02-05T11:47:12Z</time></trkpt>
<trkpt lat="45.834213" lon="11.363364"><ele>651.53</ele><time>2022-02-05T11:47:13Z</time></trkpt>
<trkpt lat="45.834006" lon="11.363373"><ele>640.38</ele><time>2022-02-05T11:47:15Z</time></trkpt>
<trkpt lat="45.833935" lon="11.363351"><ele>637.64</ele><time>2022-02-05T11:47:16Z</time></trkpt>
<trkpt lat="45.83384" lon="11.363292"><ele>635.0</ele><time>2022-02-05T11:47:18Z</time></trkpt>
<trkpt lat="45.832935" lon="11.362498"><ele>650.61</ele><time>2022-02-05T11:47:20Z</time></trkpt>
<trkpt lat="45.832844" lon="11.362452"><ele>649.07</ele><time>2022-02-05T11:47:21Z</time></trkpt>
<trkpt lat="45.832761" lon="11.362436"><ele>645.27</ele><time>2022-02-05T11:47:23Z</time></trkpt>
<trkpt lat="45.832692" lon="11.36245"><ele>638.34</ele><time>2022-02-05T11:47:25Z</time></trkpt>
<trkpt lat="45.831971" lon="11.363107"><ele>609.01</ele><time>2022-02-05T11:47:26Z</time></trkpt>
<trkpt lat="45.83147" lon="11.363416"><ele>605.52</ele><time>2022-02-05T11:47:28Z</time></trkpt>
<trkpt lat="45.831298" lon="11.363563"><ele>605.18</ele><time>2022-02-05T11:47:29Z</time></trkpt>
<trkpt lat="45.830816" lon="11.364173"><ele>596.66</ele><time>2022-02-05T11:47:31Z</time></trkpt>
<trkpt lat="45.830556" lon="11.364372"><ele>604.28</ele><time>2022-02-05T11:47:33Z</time></trkpt>
<trkpt lat="45.830443" lon="11.364422"><ele>602.65</ele><time>2022-02-05T11:47:34Z</time></trkpt>
<trkpt lat="45.830294" lon="11.364431"><ele>601.45</ele><time>2022-02-05T11:47:36Z</time></trkpt>
<trkpt lat="45.829779" lon="11.364212"><ele>585.15</ele><time>2022-02-05T11:47:38Z</time></trkpt>
<trkpt lat="45.829629" lon="11.364099"><ele>583.2</ele><time>2022-02-05T11:47:39Z</time></trkpt>
<trkpt lat="45.829067" lon="11.363509"><ele>589.96</ele><time>2022-02-05T11:47:41Z</time></trkpt>
<trkpt lat="45.828979" lon="11.363437"><ele>589.73</ele><time>2022-02-05T11:47:42Z</time></trkpt>
<trkpt lat="45.828876" lon="11.363391"><ele>588.54</ele><time>2022-02-05T11:47:44Z</time></trkpt>
<trkpt lat="45.828584" lon="11.363375"><ele>585.67</ele><time>2022-02-05T11:47:46Z</time></trkpt>
<trkpt lat="45.82842" lon="11.36341"><ele>582.37</ele><time>2022-02-05T11:47:47Z</time></trkpt>
<trkpt lat="45.827958" lon="11.363601"><ele>568.05</ele><time>2022-02-05T11:47:49Z</time></trkpt>
<trkpt lat="45.827843" lon="11.36363"><ele>563.87</ele><time>2022-02-05T11:47:51Z</time></trkpt>
<trkpt lat="45.827734" lon="11.363627"><ele>562.39</ele><time>2022-02-05T11:47:52Z</time></trkpt>
<trkpt lat="45.827626" lon="11.363595"><ele>563.58</ele><time>2022-02-05T11:47:54Z</time></trkpt>
<trkpt lat="45.827321" lon="11.363416"><ele>568.32</ele><time>2022-02-05T11:47:56Z</time></trkpt>
<trkpt lat="45.827091" lon="11.363244"><ele>566.65</ele><time>2022-02-05T11:47:57Z</time></trkpt>
<trkpt lat="45.826798" lon="11.362839"><ele>569.86</ele><time>2022-02-05T11:47:59Z</time></trkpt>
<trkpt lat="45.826715" lon="11.362753"><ele>570.7</ele><time>2022-02-05T11:48:00Z</time></trkpt>
<trkpt lat="45.826616" lon="11.362705"><ele>569.95</ele><time>2022-02-05T11:48:02Z</time></trkpt>
<trkpt lat="45.826499" lon="11.362678"><ele>568.98</ele><time>2022-02-05T11:48:04Z</time></trkpt>
<trkpt lat="45.826398" lon="11.362697"><ele>566.25</ele><time>2022-02-05T11:48:05Z</time></trkpt>
<trkpt lat="45.826269" lon="11.362761"><ele>563.38</ele><time>2022-02-05T11:48:07Z</time></trkpt>
<trkpt lat="45.82619" lon="11.362836"><ele>559.98</ele><time>2022-02-05T11:48:09Z</time></trkpt>
<trkpt lat="45.826134" lon="11.362927"><ele>555.92</ele><time>2022-02-05T11:48:10Z</time></trkpt>
<trkpt lat="45.825972" lon="11.363314"><ele>548.48</ele><time>2022-02-05T11:48:12Z</time></trkpt>
<trkpt lat="45.825916" lon="11.363405"><ele>547.32</ele><time>2022-02-05T11:48:13Z</time></trkpt>
<trkpt lat="45.825835" lon="11.363474"><ele>547.41</ele><time>2022-02-05T11:48:15Z</time></trkpt>
<trkpt lat="45.825598" lon="11.36353"><ele>552.51</ele><time>2022-02-05T11:48:17Z</time></trkpt>
<trkpt lat="45.825056" lon="11.363614"><ele>550.92</ele><time>2022-02-05T11:48:18Z</time></trkpt>
<trkpt lat="45.824523" lon="11.36366"><ele>549.21</ele><time>2022-02-05T11:48:20Z</time></trkpt>
<trkpt lat="45.824308" lon="11.363657"><ele>545.61</ele><time>2022-02-05T11:48:22Z</time></trkpt>
<trkpt lat="45.824224" lon="11.363633"><ele>544.34</ele><time>2022-02-05T11:48:23Z</time></trkpt>
<trkpt lat="45.824054" lon="11.363458"><ele>539.4</ele><time>2022-02-05T11:48:25Z</time></trkpt>
<trkpt lat="45.823868" lon="11.363166"><ele>537.94</ele><time>2022-02-05T11:48:26Z</time></trkpt>
<trkpt lat="45.823803" lon="11.363032"><ele>537.32</ele><time>2022-02-05T11:48:28Z</time></trkpt>
<trkpt lat="45.823751" lon="11.362874"><ele>540.42</ele><time>2022-02-05T11:48:30Z</time></trkpt>
<trkpt lat="45.823717" lon="11.362707"><ele>544.04</ele><time>2022-02-05T11:48:31Z</time></trkpt>
<trkpt lat="45.823648" lon="11.362452"><ele>547.28</ele><time>2022-02-05T11:48:33Z</time></trkpt>
<trkpt lat="45.823618" lon="11.362386"><ele>547.77</ele><time>2022-02-05T11:48:35Z</time></trkpt>
<trkpt lat="45.823514" lon="11.362273"><ele>549.62</ele><time>2022-02-05T11:48:36Z</time></trkpt>
<trkpt lat="45.82308" lon="11.362118"><ele>555.95</ele><time>2022-02-05T11:48:38Z</time></trkpt>
<trkpt lat="45.822969" lon="11.362101"><ele>550.02</ele><time>2022-02-05T11:48:39Z</time></trkpt>
<trkpt lat="45.822813" lon="11.36215"><ele>531.73</ele><time>2022-02-05T11:48:41Z</time></trkpt>
<trkpt lat="45.822614" lon="11.36215"><ele>525.27</ele><time>2022-02-05T11:48:43Z</time></trkpt>
<trkpt lat="45.822184" lon="11.362047"><ele>534.72</ele><time>2022-02-05T11:48:44Z</time></trkpt>
<trkpt lat="45.822011" lon="11.36205"><ele>538.27</ele><time>2022-02-05T11:48:46Z</time></trkpt>
<trkpt lat="45.821732" lon="11.362182"><ele>493.16</ele><time>2022-02-05T11:48:48Z</time></trkpt>
<trkpt lat="45.821534" lon="11.362238"><ele>463.38</ele><time>2022-02-05T11:48:49Z</time></trkpt>
<trkpt lat="45.821256" lon="11.362217"><ele>468.86</ele><time>2022-02-05T11:48:51Z</time></trkpt>
<trkpt lat="45.820863" lon="11.362113"><ele>529.22</ele><time>2022-02-05T11:48:52Z</time></trkpt>
<trkpt lat="45.819788" lon="11.361747"><ele>539.54</ele><time>2022-02-05T11:48:54Z</time></trkpt>
<trkpt lat="45.819543" lon="11.361656"><ele>531.99</ele><time>2022-02-05T11:48:56Z</time></trkpt>
<trkpt lat="45.819119" lon="11.361624"><ele>507.97</ele><time>2022-02-05T11:48:57Z</time></trkpt>
<trkpt lat="45.818556" lon="11.361495"><ele>501.61</ele><time>2022-02-05T11:48:59Z</time></trkpt>
<trkpt lat="45.818158" lon="11.361361"><ele>487.76</ele><time>2022-02-05T11:49:01Z</time></trkpt>
<trkpt lat="45.817893" lon="11.361211"><ele>482.85</ele><time>2022-02-05T11:49:02Z</time></trkpt>
<trkpt lat="45.817799" lon="11.361036"><ele>494.11</ele><time>2022-02-05T11:49:04Z</time></trkpt>
<trkpt lat="45.817713" lon="11.360798"><ele>508.61</ele><time>2022-02-05T11:49:05Z</time></trkpt>
<trkpt lat="45.817654" lon="11.360728"><ele>508.85</ele><time>2022-02-05T11:49:07Z</time></trkpt>
<trkpt lat="45.817532" lon="11.360647"><ele>505.87</ele><time>2022-02-05T11:49:09Z</time></trkpt>
<trkpt lat="45.816986" lon="11.360382"><ele>477.09</ele><time>2022-02-05T11:49:10Z</time></trkpt>
<trkpt lat="45.816807" lon="11.360269"><ele>472.54</ele><time>2022-02-05T11:49:12Z</time></trkpt>
<trkpt lat="45.816706" lon="11.360173"><ele>472.3</ele><time>2022-02-05T11:49:14Z</time></trkpt>
<trkpt lat="45.816601" lon="11.360028"><ele>474.58</ele><time>2022-02-05T11:49:15Z</time></trkpt>
<trkpt lat="45.816433" lon="11.359703"><ele>475.28</ele><time>2022-02-05T11:49:17Z</time></trkpt>
<trkpt lat="45.816291" lon="11.359365"><ele>464.75</ele><time>2022-02-05T11:49:18Z</time></trkpt>
<trkpt lat="45.81627" lon="11.359253"><ele>463.25</ele><time>2022-02-05T11:49:20Z</time></trkpt>
<trkpt lat="45.816281" lon="11.359162"><ele>465.34</ele><time>2022-02-05T11:49:22Z</time></trkpt>
<trkpt lat="45.816317" lon="11.359089"><ele>467.67</ele><time>2022-02-05T11:49:23Z</time></trkpt>
<trkpt lat="45.816562" lon="11.358832"><ele>489.27</ele><time>2022-02-05T11:49:25Z</time></trkpt>
<trkpt lat="45.816754" lon="11.358594"><ele>500.78</ele><time>2022-02-05T11:49:27Z</time></trkpt>
<trkpt lat="45.816868" lon="11.358421"><ele>509.59</ele><time>2022-02-05T11:49:28Z</time></trkpt>
<trkpt lat="45.816902" lon="11.358317"><ele>506.29</ele><time>2022-02-05T11:49:30Z</time></trkpt>
<trkpt lat="45.816903" lon="11.358203"><ele>507.15</ele><time>2022-02-05T11:49:31Z</time></trkpt>
<trkpt lat="45.81688" lon="11.358113"><ele>506.79</ele><time>2022-02-05T11:49:33Z</time></trkpt>
<trkpt lat="45.816803" lon="11.357992"><ele>504.79</ele><time>2022-02-05T11:49:35Z</time></trkpt>
<trkpt lat="45.816738" lon="11.357968"><ele>501.71</ele><time>2022-02-05T11:49:36Z</time></trkpt>
<trkpt lat="45.816405" lon="11.357981"><ele>490.4</ele><time>2022-02-05T11:49:38Z</time></trkpt>
<trkpt lat="45.815973" lon="11.358086"><ele>467.08</ele><time>2022-02-05T11:49:40Z</time></trkpt>
<trkpt lat="45.81485" lon="11.358499"><ele>431.65</ele><time>2022-02-05T11:49:41Z</time></trkpt>
<trkpt lat="45.814674" lon="11.358491"><ele>433.59</ele><time>2022-02-05T11:49:43Z</time></trkpt>
<trkpt lat="45.814048" lon="11.358325"><ele>430.22</ele><time>2022-02-05T11:49:44Z</time></trkpt>
<trkpt lat="45.81387" lon="11.358303"><ele>433.86</ele><time>2022-02-05T11:49:46Z</time></trkpt>
<trkpt lat="45.813769" lon="11.358314"><ele>433.28</ele><time>2022-02-05T11:49:48Z</time></trkpt>
<trkpt lat="45.812903" lon="11.35862"><ele>431.9</ele><time>2022-02-05T11:49:49Z</time></trkpt>
<trkpt lat="45.812617" lon="11.358663"><ele>423.25</ele><time>2022-02-05T11:49:51Z</time></trkpt>
<trkpt lat="45.812477" lon="11.358657"><ele>418.63</ele><time>2022-02-05T11:49:53Z</time></trkpt>
<trkpt lat="45.812107" lon="11.358571"><ele>407.14</ele><time>2022-02-05T11:49:54Z</time></trkpt>
<trkpt lat="45.81198" lon="11.358523"><ele>405.3</ele><time>2022-02-05T11:49:56Z</time></trkpt>
<trkpt lat="45.811638" lon="11.358341"><ele>413.42</ele><time>2022-02-05T11:49:57Z</time></trkpt>
<trkpt lat="45.811555" lon="11.358325"><ele>413.02</ele><time>2022-02-05T11:49:59Z</time></trkpt>
<trkpt lat="45.811264" lon="11.358343"><ele>404.69</ele><time>2022-02-05T11:50:01Z</time></trkpt>
<trkpt lat="45.811174" lon="11.358325"><ele>404.85</ele><time>2022-02-05T11:50:02Z</time></trkpt>
<trkpt lat="45.81049" lon="11.358094"><ele>395.79</ele><time>2022-02-05T11:50:04Z</time></trkpt>
<trkpt lat="45.810024" lon="11.357893"><ele>395.26</ele><time>2022-02-05T11:50:06Z</time></trkpt>
<trkpt lat="45.809817" lon="11.357765"><ele>392.78</ele><time>2022-02-05T11:50:07Z</time></trkpt>
<trkpt lat="45.809336" lon="11.357394"><ele>394.71</ele><time>2022-02-05T11:50:09Z</time></trkpt>
<trkpt lat="45.808786" lon="11.357008"><ele>393.83</ele><time>2022-02-05T11:50:10Z</time></trkpt>
<trkpt lat="45.808323" lon="11.356375"><ele>389.99</ele><time>2022-02-05T11:50:12Z</time></trkpt>
<trkpt lat="45.807538" lon="11.355479"><ele>369.67</ele><time>2022-02-05T11:50:14Z</time></trkpt>
<trkpt lat="45.807338" lon="11.355147"><ele>365.28</ele><time>2022-02-05T11:50:15Z</time></trkpt>
<trkpt lat="45.807031" lon="11.354503"><ele>362.35</ele><time>2022-02-05T11:50:17Z</time></trkpt>
<trkpt lat="45.806119" lon="11.352509"><ele>348.19</ele><time>2022-02-05T11:50:19Z</time></trkpt>
<trkpt lat="45.805955" lon="11.35219"><ele>349.87</ele><time>2022-02-05T11:50:20Z</time></trkpt>
<trkpt lat="45.805738" lon="11.351889"><ele>348.03</ele><time>2022-02-05T11:50:22Z</time></trkpt>
<trkpt lat="45.804959" lon="11.351308"><ele>347.72</ele><time>2022-02-05T11:50:23Z</time></trkpt>
<trkpt lat="45.803972" lon="11.350429"><ele>345.21</ele><time>2022-02-05T11:50:25Z</time></trkpt>
<trkpt lat="45.803783" lon="11.350314"><ele>345.2</ele><time>2022-02-05T11:50:27Z</time></trkpt>
<trkpt lat="45.803622" lon="11.35026"><ele>346.08</ele><time>2022-02-05T11:50:28Z</time></trkpt>
<trkpt lat="45.80357" lon="11.350271"><ele>346.04</ele><time>2022-02-05T11:50:30Z</time></trkpt>
<trkpt lat="45.803109" lon="11.351229"><ele>338.47</ele><time>2022-02-05T11:50:34Z</time></trkpt>
<trkpt lat="45.8031" lon="11.351389"><ele>336.8</ele><time>2022-02-05T11:50:38Z</time></trkpt>
<trkpt lat="45.803155" lon="11.351976"><ele>332.6</ele><time>2022-02-05T11:50:42Z</time></trkpt>
<trkpt lat="45.803203" lon="11.352129"><ele>330.54</ele><time>2022-02-05T11:50:46Z</time></trkpt>
<trkpt lat="45.803561" lon="11.352762"><ele>325.7</ele><time>2022-02-05T11:50:50Z</time></trkpt>
<trkpt lat="45.803664" lon="11.35303"><ele>324.75</ele><time>2022-02-05T11:50:54Z</time></trkpt>
<trkpt lat="45.803733" lon="11.35336"><ele>322.89</ele><time>2022-02-05T11:50:58Z</time></trkpt>
<trkpt lat="45.803738" lon="11.353628"><ele>318.7</ele><time>2022-02-05T11:51:02Z</time></trkpt>
<trkpt lat="45.803679" lon="11.35387"><ele>315.47</ele><time>2022-02-05T11:51:05Z</time></trkpt>
<trkpt lat="45.803176" lon="11.355244"><ele>315.57</ele><time>2022-02-05T11:51:09Z</time></trkpt>
<trkpt lat="45.803165" lon="11.355343"><ele>315.7</ele><time>2022-02-05T11:51:13Z</time></trkpt>
<trkpt lat="45.803173" lon="11.355543"><ele>315.98</ele><time>2022-02-05T11:51:17Z</time></trkpt>
<trkpt lat="45.803217" lon="11.355676"><ele>316.18</ele><time>2022-02-05T11:51:21Z</time></trkpt>
<trkpt lat="45.803267" lon="11.355748"><ele>316.17</ele><time>2022-02-05T11:51:25Z</time></trkpt>
<trkpt lat="45.803368" lon="11.35584"><ele>316.0</ele><time>2022-02-05T11:51:29Z</time></trkpt>
<trkpt lat="45.804004" lon="11.356464"><ele>314.01</ele><time>2022-02-05T11:51:33Z</time></trkpt>
<trkpt lat="45.804851" lon="11.357216"><ele>310.09</ele><time>2022-02-05T11:51:37Z</time></trkpt>
<trkpt lat="45.805632" lon="11.357973"><ele>308.98</ele><time>2022-02-05T11:51:41Z</time></trkpt>
<trkpt lat="45.805746" lon="11.358114"><ele>309.89</ele><time>2022-02-05T11:51:45Z</time></trkpt>
<trkpt lat="45.805826" lon="11.358141"><ele>310.28</ele><time>2022-02-05T11:51:49Z</time></trkpt>
<trkpt lat="45.806286" lon="11.3586"><ele>311.96</ele><time>2022-02-05T11:51:52Z</time></trkpt>
<trkpt lat="45.8073" lon="11.359519"><ele>310.73</ele><time>2022-02-05T11:51:56Z</time></trkpt>
<trkpt lat="45.807582" lon="11.359797"><ele>309.22</ele><time>2022-02-05T11:52:00Z</time></trkpt>
<trkpt lat="45.807606" lon="11.359833"><ele>308.99</ele><time>2022-02-05T11:52:04Z</time></trkpt>
<trkpt lat="45.807617" lon="11.359891"><ele>308.81</ele><time>2022-02-05T11:52:08Z</time></trkpt>
<trkpt lat="45.808142" lon="11.360212"><ele>310.55</ele><time>2022-02-05T11:52:14Z</time></trkpt>
<trkpt lat="45.810936" lon="11.361732"><ele>314.32</ele><time>2022-02-05T11:52:21Z</time></trkpt>
<trkpt lat="45.811335" lon="11.36198"><ele>314.87</ele><time>2022-02-05T11:52:27Z</time></trkpt>
<trkpt lat="45.811726" lon="11.362194"><ele>314.12</ele><time>2022-02-05T11:52:34Z</time></trkpt>
<trkpt lat="45.813804" lon="11.363321"><ele>321.55</ele><time>2022-02-05T11:52:40Z</time></trkpt>
<trkpt lat="45.814096" lon="11.363432"><ele>320.67</ele><time>2022-02-05T11:52:46Z</time></trkpt>
<trkpt lat="45.814614" lon="11.363447"><ele>320.99</ele><time>2022-02-05T11:52:53Z</time></trkpt>
<trkpt lat="45.815738" lon="11.363098"><ele>327.62</ele><time>2022-02-05T11:52:59Z</time></trkpt>
<trkpt lat="45.816263" lon="11.36302"><ele>328.09</ele><time>2022-02-05T11:53:06Z</time></trkpt>
<trkpt lat="45.816657" lon="11.363052"><ele>333.89</ele><time>2022-02-05T11:53:12Z</time></trkpt>
<trkpt lat="45.817167" lon="11.363203"><ele>336.02</ele><time>2022-02-05T11:53:19Z</time></trkpt>
<trkpt lat="45.81829" lon="11.363401"><ele>340.17</ele><time>2022-02-05T11:53:25Z</time></trkpt>
<trkpt lat="45.818469" lon="11.363486"><ele>338.76</ele><time>2022-02-05T11:53:31Z</time></trkpt>
<trkpt lat="45.819019" lon="11.363954"><ele>332.69</ele><time>2022-02-05T11:53:38Z</time></trkpt>
<trkpt lat="45.819773" lon="11.364312"><ele>327.45</ele><time>2022-02-05T11:53:44Z</time></trkpt>
<trkpt lat="45.82069" lon="11.364826"><ele>328.56</ele><time>2022-02-05T11:53:51Z</time></trkpt>
<trkpt lat="45.822364" lon="11.365837"><ele>329.49</ele><time>2022-02-05T11:53:57Z</time></trkpt>
<trkpt lat="45.82314" lon="11.36636"><ele>330.44</ele><time>2022-02-05T11:54:04Z</time></trkpt>
<trkpt lat="45.824167" lon="11.367211"><ele>326.96</ele><time>2022-02-05T11:54:10Z</time></trkpt>
<trkpt lat="45.825247" lon="11.367892"><ele>321.48</ele><time>2022-02-05T11:54:16Z</time></trkpt>
<trkpt lat="45.826645" lon="11.368679"><ele>318.47</ele><time>2022-02-05T11:54:23Z</time></trkpt>
<trkpt lat="45.826867" lon="11.368754"><ele>319.91</ele><time>2022-02-05T11:54:29Z</time></trkpt>
<trkpt lat="45.827482" lon="11.36881"><ele>309.56</ele><time>2022-02-05T11:54:36Z</time></trkpt>
<trkpt lat="45.828602" lon="11.368855"><ele>316.83</ele><time>2022-02-05T11:54:42Z</time></trkpt>
<trkpt lat="45.828991" lon="11.36884"><ele>307.95</ele><time>2022-02-05T11:54:49Z</time></trkpt>
<trkpt lat="45.829798" lon="11.368679"><ele>307.65</ele><time>2022-02-05T11:54:55Z</time></trkpt>
<trkpt lat="45.83003" lon="11.368689"><ele>315.45</ele><time>2022-02-05T11:55:01Z</time></trkpt>
<trkpt lat="45.830459" lon="11.36885"><ele>322.93</ele><time>2022-02-05T11:55:08Z</time></trkpt>
<trkpt lat="45.831231" lon="11.369067"><ele>322.7</ele><time>2022-02-05T11:55:14Z</time></trkpt>
<trkpt lat="45.831705" lon="11.369284"><ele>314.02</ele><time>2022-02-05T11:55:21Z</time></trkpt>
<trkpt lat="45.83226" lon="11.36959"><ele>312.95</ele><time>2022-02-05T11:55:27Z</time></trkpt>
<trkpt lat="45.832615" lon="11.369703"><ele>314.07</ele><time>2022-02-05T11:55:34Z</time></trkpt>
<trkpt lat="45.833267" lon="11.369776"><ele>303.36</ele><time>2022-02-05T11:55:40Z</time></trkpt>
<trkpt lat="45.8334" lon="11.369727"><ele>302.91</ele><time>2022-02-05T11:55:47Z</time></trkpt>
<trkpt lat="45.833929" lon="11.369454"><ele>310.44</ele><time>2022-02-05T11:55:53Z</time></trkpt>
<trkpt lat="45.834192" lon="11.369377"><ele>310.95</ele><time>2022-02-05T11:55:59Z</time></trkpt>
<trkpt lat="45.834392" lon="11.369395"><ele>310.44</ele><time>2022-02-05T11:56:06Z</time></trkpt>
<trkpt lat="45.835776" lon="11.369699"><ele>311.7</ele><time>2022-02-05T11:56:12Z</time></trkpt>
<trkpt lat="45.837869" lon="11.370468"><ele>309.0</ele><time>2022-02-05T11:56:19Z</time></trkpt>
<trkpt lat="45.838019" lon="11.370504"><ele>307.53</ele><time>2022-02-05T11:56:25Z</time></trkpt>
<trkpt lat="45.838355" lon="11.370536"><ele>308.58</ele><time>2022-02-05T11:56:32Z</time></trkpt>
<trkpt lat="45.838998" lon="11.370483"><ele>312.08</ele><time>2022-02-05T11:56:38Z</time></trkpt>
<trkpt lat="45.839361" lon="11.370401"><ele>307.8</ele><time>2022-02-05T11:56:44Z</time></trkpt>
<trkpt lat="45.839575" lon="11.370296"><ele>305.35</ele><time>2022-02-05T11:56:51Z</time></trkpt>
<trkpt lat="45.839877" lon="11.370075"><ele>302.47</ele><time>2022-02-05T11:56:57Z</time></trkpt>
<trkpt lat="45.840261" lon="11.369745"><ele>301.88</ele><time>2022-02-05T11:57:04Z</time></trkpt>
<trkpt lat="45.841005" lon="11.368892"><ele>302.89</ele><time>2022-02-05T11:57:10Z</time></trkpt>
<trkpt lat="45.84246" lon="11.367545"><ele>319.45</ele><time>2022-02-05T11:57:17Z</time></trkpt>
<trkpt lat="45.843223" lon="11.367119"><ele>312.94</ele><time>2022-02-05T11:57:23Z</time></trkpt>
<trkpt lat="45.844486" lon="11.366909"><ele>316.29</ele><time>2022-02-05T11:57:29Z</time></trkpt>
<trkpt lat="45.844633" lon="11.36728"><ele>305.61</ele><time>2022-02-05T11:57:31Z</time></trkpt>
<trkpt lat="45.844853" lon="11.367688"><ele>306.53</ele><time>2022-02-05T11:57:33Z</time></trkpt>
<trkpt lat="45.845059" lon="11.367914"><ele>308.3</ele><time>2022-02-05T11:57:34Z</time></trkpt>
<trkpt lat="45.84529" lon="11.368067"><ele>311.12</ele><time>2022-02-05T11:57:36Z</time></trkpt>
<trkpt lat="45.845543" lon="11.368296"><ele>312.77</ele><time>2022-02-05T11:57:37Z</time></trkpt>
<trkpt lat="45.846087" lon="11.368694"><ele>316.78</ele><time>2022-02-05T11:57:39Z</time></trkpt>
<trkpt lat="45.847035" lon="11.368532"><ele>315.43</ele><time>2022-02-05T11:57:40Z</time></trkpt>
<trkpt lat="45.847221" lon="11.368597"><ele>315.9</ele><time>2022-02-05T11:57:42Z</time></trkpt>
<trkpt lat="45.847329" lon="11.368685"><ele>316.24</ele><time>2022-02-05T11:57:43Z</time></trkpt>
<trkpt lat="45.848139" lon="11.370055"><ele>324.81</ele><time>2022-02-05T11:57:45Z</time></trkpt>
<trkpt lat="45.848211" lon="11.370137"><ele>325.36</ele><time>2022-02-05T11:57:47Z</time></trkpt>
<trkpt lat="45.848777" lon="11.370523"><ele>323.02</ele><time>2022-02-05T11:57:48Z</time></trkpt>
<trkpt lat="45.849166" lon="11.370969"><ele>324.95</ele><time>2022-02-05T11:57:50Z</time></trkpt>
<trkpt lat="45.849211" lon="11.37098"><ele>325.98</ele><time>2022-02-05T11:57:51Z</time></trkpt>
<trkpt lat="45.849444" lon="11.370833"><ele>328.98</ele><time>2022-02-05T11:57:53Z</time></trkpt>
<trkpt lat="45.849614" lon="11.370753"><ele>332.09</ele><time>2022-02-05T11:57:54Z</time></trkpt>
<trkpt lat="45.849702" lon="11.370683"><ele>333.49</ele><time>2022-02-05T11:57:56Z</time></trkpt>
<trkpt lat="45.84977" lon="11.370575"><ele>333.86</ele><time>2022-02-05T11:57:58Z</time></trkpt>
<trkpt lat="45.849923" lon="11.370228"><ele>329.38</ele><time>2022-02-05T11:57:59Z</time></trkpt>
<trkpt lat="45.849986" lon="11.37012"><ele>327.49</ele><time>2022-02-05T11:58:01Z</time></trkpt>
<trkpt lat="45.850936" lon="11.36952"><ele>339.56</ele><time>2022-02-05T11:58:02Z</time></trkpt>
<trkpt lat="45.851254" lon="11.369419"><ele>344.59</ele><time>2022-02-05T11:58:04Z</time></trkpt>
<trkpt lat="45.851588" lon="11.369238"><ele>346.38</ele><time>2022-02-05T11:58:05Z</time></trkpt>
<trkpt lat="45.85204" lon="11.368883"><ele>344.28</ele><time>2022-02-05T11:58:07Z</time></trkpt>
<trkpt lat="45.852244" lon="11.368609"><ele>342.93</ele><time>2022-02-05T11:58:08Z</time></trkpt>
<trkpt lat="45.85233" lon="11.36846"><ele>342.83</ele><time>2022-02-05T11:58:10Z</time></trkpt>
<trkpt lat="45.852372" lon="11.368453"><ele>344.4</ele><time>2022-02-05T11:58:12Z</time></trkpt>
<trkpt lat="45.852396" lon="11.368475"><ele>346.09</ele><time>2022-02-05T11:58:13Z</time></trkpt>
<trkpt lat="45.852408" lon="11.368521"><ele>347.99</ele><time>2022-02-05T11:58:15Z</time></trkpt>
<trkpt lat="45.852399" lon="11.368574"><ele>349.17</ele><time>2022-02-05T11:58:16Z</time></trkpt>
<trkpt lat="45.852315" lon="11.368729"><ele>351.3</ele><time>2022-02-05T11:58:18Z</time></trkpt>
<trkpt lat="45.851921" lon="11.369184"><ele>353.17</ele><time>2022-02-05T11:58:19Z</time></trkpt>
<trkpt lat="45.851413" lon="11.369621"><ele>356.96</ele><time>2022-02-05T11:58:21Z</time></trkpt>
<trkpt lat="45.850652" lon="11.370172"><ele>356.16</ele><time>2022-02-05T11:58:23Z</time></trkpt>
<trkpt lat="45.850521" lon="11.370363"><ele>355.91</ele><time>2022-02-05T11:58:24Z</time></trkpt>
<trkpt lat="45.850458" lon="11.370558"><ele>356.81</ele><time>2022-02-05T11:58:26Z</time></trkpt>
<trkpt lat="45.850307" lon="11.371232"><ele>369.65</ele><time>2022-02-05T11:58:27Z</time></trkpt>
<trkpt lat="45.849989" lon="11.371954"><ele>370.29</ele><time>2022-02-05T11:58:29Z</time></trkpt>
<trkpt lat="45.849514" lon="11.372417"><ele>370.35</ele><time>2022-02-05T11:58:30Z</time></trkpt>
<trkpt lat="45.849343" lon="11.372691"><ele>369.68</ele><time>2022-02-05T11:58:32Z</time></trkpt>
<trkpt lat="45.849237" lon="11.372994"><ele>371.12</ele><time>2022-02-05T11:58:33Z</time></trkpt>
<trkpt lat="45.849206" lon="11.373286"><ele>379.65</ele><time>2022-02-05T11:58:35Z</time></trkpt>
<trkpt lat="45.849138" lon="11.373519"><ele>386.53</ele><time>2022-02-05T11:58:37Z</time></trkpt>
<trkpt lat="45.849049" lon="11.373689"><ele>386.77</ele><time>2022-02-05T11:58:38Z</time></trkpt>
<trkpt lat="45.848831" lon="11.373954"><ele>380.82</ele><time>2022-02-05T11:58:40Z</time></trkpt>
<trkpt lat="45.848732" lon="11.374181"><ele>379.15</ele><time>2022-02-05T11:58:41Z</time></trkpt>
<trkpt lat="45.848386" lon="11.375118"><ele>380.08</ele><time>2022-02-05T11:58:43Z</time></trkpt>
<trkpt lat="45.848049" lon="11.375857"><ele>388.14</ele><time>2022-02-05T11:58:44Z</time></trkpt>
<trkpt lat="45.848014" lon="11.376038"><ele>389.79</ele><time>2022-02-05T11:58:46Z</time></trkpt>
<trkpt lat="45.847987" lon="11.376362"><ele>392.51</ele><time>2022-02-05T11:58:48Z</time></trkpt>
<trkpt lat="45.847985" lon="11.37679"><ele>393.79</ele><time>2022-02-05T11:58:49Z</time></trkpt>
<trkpt lat="45.848048" lon="11.377073"><ele>394.75</ele><time>2022-02-05T11:58:51Z</time></trkpt>
<trkpt lat="45.848128" lon="11.377291"><ele>396.01</ele><time>2022-02-05T11:58:52Z</time></trkpt>
<trkpt lat="45.848171" lon="11.377481"><ele>395.9</ele><time>2022-02-05T11:58:54Z</time></trkpt>
<trkpt lat="45.848177" lon="11.378047"><ele>393.72</ele><time>2022-02-05T11:58:55Z</time></trkpt>
<trkpt lat="45.848242" lon="11.37895"><ele>403.76</ele><time>2022-02-05T11:58:57Z</time></trkpt>
<trkpt lat="45.848261" lon="11.379098"><ele>406.33</ele><time>2022-02-05T11:58:59Z</time></trkpt>
<trkpt lat="45.848312" lon="11.379124"><ele>410.83</ele><time>2022-02-05T11:59:00Z</time></trkpt>
<trkpt lat="45.848333" lon="11.3791"><ele>412.49</ele><time>2022-02-05T11:59:02Z</time></trkpt>
<trkpt lat="45.848334" lon="11.378427"><ele>407.03</ele><time>2022-02-05T11:59:03Z</time></trkpt>
<trkpt lat="45.848349" lon="11.378096"><ele>402.82</ele><time>2022-02-05T11:59:05Z</time></trkpt>
<trkpt lat="45.848472" lon="11.377562"><ele>411.54</ele><time>2022-02-05T11:59:06Z</time></trkpt>
<trkpt lat="45.848464" lon="11.377261"><ele>413.77</ele><time>2022-02-05T11:59:08Z</time></trkpt>
<trkpt lat="45.848523" lon="11.376452"><ele>412.22</ele><time>2022-02-05T11:59:09Z</time></trkpt>
<trkpt lat="45.848666" lon="11.375784"><ele>412.71</ele><time>2022-02-05T11:59:11Z</time></trkpt>
<trkpt lat="45.848797" lon="11.375408"><ele>414.26</ele><time>2022-02-05T11:59:13Z</time></trkpt>
<trkpt lat="45.849176" lon="11.374585"><ele>423.69</ele><time>2022-02-05T11:59:14Z</time></trkpt>
<trkpt lat="45.84943" lon="11.373906"><ele>411.33</ele><time>2022-02-05T11:59:16Z</time></trkpt>
<trkpt lat="45.84959" lon="11.373691"><ele>416.09</ele><time>2022-02-05T11:59:17Z</time></trkpt>
<trkpt lat="45.85017" lon="11.373004"><ele>433.12</ele><time>2022-02-05T11:59:19Z</time></trkpt>
<trkpt lat="45.850236" lon="11.372849"><ele>433.23</ele><time>2022-02-05T11:59:20Z</time></trkpt>
<trkpt lat="45.850275" lon="11.3726"><ele>428.07</ele><time>2022-02-05T11:59:22Z</time></trkpt>
<trkpt lat="45.850324" lon="11.372407"><ele>424.1</ele><time>2022-02-05T11:59:24Z</time></trkpt>
<trkpt lat="45.850479" lon="11.37218"><ele>426.04</ele><time>2022-02-05T11:59:25Z</time></trkpt>
<trkpt lat="45.850862" lon="11.371913"><ele>436.11</ele><time>2022-02-05T11:59:27Z</time></trkpt>
<trkpt lat="45.851194" lon="11.371733"><ele>443.35</ele><time>2022-02-05T11:59:28Z</time></trkpt>
<trkpt lat="45.851405" lon="11.371564"><ele>448.23</ele><time>2022-02-05T11:59:30Z</time></trkpt>
<trkpt lat="45.851622" lon="11.371221"><ele>442.59</ele><time>2022-02-05T11:59:31Z</time></trkpt>
<trkpt lat="45.851841" lon="11.370965"><ele>442.58</ele><time>2022-02-05T11:59:33Z</time></trkpt>
<trkpt lat="45.851869" lon="11.370991"><ele>445.33</ele><time>2022-02-05T11:59:34Z</time></trkpt>
<trkpt lat="45.85186" lon="11.371063"><ele>448.63</ele><time>2022-02-05T11:59:36Z</time></trkpt>
<trkpt lat="45.851596" lon="11.371454"><ele>451.04</ele><time>2022-02-05T11:59:38Z</time></trkpt>
<trkpt lat="45.851486" lon="11.371739"><ele>458.7</ele><time>2022-02-05T11:59:39Z</time></trkpt>
<trkpt lat="45.851338" lon="11.371958"><ele>459.83</ele><time>2022-02-05T11:59:41Z</time></trkpt>
<trkpt lat="45.851073" lon="11.372124"><ele>451.38</ele><time>2022-02-05T11:59:42Z</time></trkpt>
<trkpt lat="45.850655" lon="11.372598"><ele>448.73</ele><time>2022-02-05T11:59:44Z</time></trkpt>
<trkpt lat="45.85034" lon="11.37329"><ele>452.17</ele><time>2022-02-05T11:59:45Z</time></trkpt>
<trkpt lat="45.850194" lon="11.373729"><ele>460.3</ele><time>2022-02-05T11:59:47Z</time></trkpt>
<trkpt lat="45.849961" lon="11.374087"><ele>461.17</ele><time>2022-02-05T11:59:49Z</time></trkpt>
<trkpt lat="45.849626" lon="11.374719"><ele>459.97</ele><time>2022-02-05T11:59:50Z</time></trkpt>
<trkpt lat="45.849588" lon="11.375023"><ele>465.89</ele><time>2022-02-05T11:59:52Z</time></trkpt>
<trkpt lat="45.849527" lon="11.37629"><ele>486.15</ele><time>2022-02-05T11:59:53Z</time></trkpt>
<trkpt lat="45.849502" lon="11.377317"><ele>477.98</ele><time>2022-02-05T11:59:55Z</time></trkpt>
<trkpt lat="45.849479" lon="11.377525"><ele>479.72</ele><time>2022-02-05T11:59:56Z</time></trkpt>
<trkpt lat="45.849322" lon="11.378116"><ele>481.37</ele><time>2022-02-05T11:59:58Z</time></trkpt>
<trkpt lat="45.849295" lon="11.378393"><ele>482.44</ele><time>2022-02-05T11:59:59Z</time></trkpt>
<trkpt lat="45.849334" lon="11.378747"><ele>487.71</ele><time>2022-02-05T12:00:01Z</time></trkpt>
<trkpt lat="45.849386" lon="11.379035"><ele>488.99</ele><time>2022-02-05T12:00:03Z</time></trkpt>
<trkpt lat="45.849404" lon="11.379578"><ele>484.7</ele><time>2022-02-05T12:00:04Z</time></trkpt>
<trkpt lat="45.849446" lon="11.379792"><ele>487.08</ele><time>2022-02-05T12:00:06Z</time></trkpt>
<trkpt lat="45.849595" lon="11.380284"><ele>495.53</ele><time>2022-02-05T12:00:07Z</time></trkpt>
<trkpt lat="45.849654" lon="11.38056"><ele>496.29</ele><time>2022-02-05T12:00:09Z</time></trkpt>
<trkpt lat="45.849645" lon="11.380827"><ele>495.58</ele><time>2022-02-05T12:00:10Z</time></trkpt>
<trkpt lat="45.849675" lon="11.381121"><ele>501.25</ele><time>2022-02-05T12:00:12Z</time></trkpt>
<trkpt lat="45.84976" lon="11.381447"><ele>504.85</ele><time>2022-02-05T12:00:14Z</time></trkpt>
<trkpt lat="45.849984" lon="11.382073"><ele>518.67</ele><time>2022-02-05T12:00:15Z</time></trkpt>
<trkpt lat="45.850026" lon="11.382271"><ele>518.63</ele><time>2022-02-05T12:00:17Z</time></trkpt>
<trkpt lat="45.850034" lon="11.382843"><ele>516.79</ele><time>2022-02-05T12:00:18Z</time></trkpt>
<trkpt lat="45.850005" lon="11.383134"><ele>512.96</ele><time>2022-02-05T12:00:20Z</time></trkpt>
<trkpt lat="45.849935" lon="11.383331"><ele>506.32</ele><time>2022-02-05T12:00:21Z</time></trkpt>
<trkpt lat="45.849893" lon="11.383543"><ele>505.42</ele><time>2022-02-05T12:00:23Z</time></trkpt>
<trkpt lat="45.849903" lon="11.383757"><ele>507.56</ele><time>2022-02-05T12:00:24Z</time></trkpt>
<trkpt lat="45.850023" lon="11.384109"><ele>519.81</ele><time>2022-02-05T12:00:26Z</time></trkpt>
<trkpt lat="45.850246" lon="11.384633"><ele>522.45</ele><time>2022-02-05T12:00:28Z</time></trkpt>
<trkpt lat="45.850246" lon="11.384633"><ele>522.45</ele><time>2022-02-05T12:00:28Z</time></trkpt>
<trkpt lat="45.850288" lon="11.384825"><ele>519.67</ele><time>2022-02-05T12:00:29Z</time></trkpt>
<trkpt lat="45.850296" lon="11.385135"><ele>514.53</ele><time>2022-02-05T12:00:30Z</time></trkpt>
<trkpt lat="45.850382" lon="11.385501"><ele>516.32</ele><time>2022-02-05T12:00:31Z</time></trkpt>
<trkpt lat="45.850539" lon="11.385896"><ele>526.3</ele><time>2022-02-05T12:00:32Z</time></trkpt>
<trkpt lat="45.850666" lon="11.386287"><ele>533.97</ele><time>2022-02-05T12:00:33Z</time></trkpt>
<trkpt lat="45.850686" lon="11.386772"><ele>535.89</ele><time>2022-02-05T12:00:35Z</time></trkpt>
<trkpt lat="45.850722" lon="11.38704"><ele>539.39</ele><time>2022-02-05T12:00:36Z</time></trkpt>
<trkpt lat="45.850789" lon="11.387294"><ele>540.9</ele><time>2022-02-05T12:00:37Z</time></trkpt>
<trkpt lat="45.85097" lon="11.387669"><ele>545.63</ele><time>2022-02-05T12:00:38Z</time></trkpt>
<trkpt lat="45.85104" lon="11.387885"><ele>545.19</ele><time>2022-02-05T12:00:39Z</time></trkpt>
<trkpt lat="45.851042" lon="11.38806"><ele>540.21</ele><time>2022-02-05T12:00:40Z</time></trkpt>
<trkpt lat="45.850964" lon="11.388518"><ele>533.36</ele><time>2022-02-05T12:00:42Z</time></trkpt>
<trkpt lat="45.850981" lon="11.388608"><ele>533.79</ele><time>2022-02-05T12:00:43Z</time></trkpt>
<trkpt lat="45.85102" lon="11.388586"><ele>535.13</ele><time>2022-02-05T12:00:44Z</time></trkpt>
<trkpt lat="45.851053" lon="11.38853"><ele>536.5</ele><time>2022-02-05T12:00:45Z</time></trkpt>
<trkpt lat="45.851123" lon="11.388096"><ele>544.37</ele><time>2022-02-05T12:00:46Z</time></trkpt>
<trkpt lat="45.851129" lon="11.387873"><ele>551.23</ele><time>2022-02-05T12:00:47Z</time></trkpt>
<trkpt lat="45.851056" lon="11.387494"><ele>553.14</ele><time>2022-02-05T12:00:48Z</time></trkpt>
<trkpt lat="45.850907" lon="11.387106"><ele>552.6</ele><time>2022-02-05T12:00:50Z</time></trkpt>
<trkpt lat="45.850873" lon="11.386862"><ele>555.73</ele><time>2022-02-05T12:00:51Z</time></trkpt>
<trkpt lat="45.850862" lon="11.386599"><ele>555.11</ele><time>2022-02-05T12:00:52Z</time></trkpt>
<trkpt lat="45.850883" lon="11.386184"><ele>553.42</ele><time>2022-02-05T12:00:53Z</time></trkpt>
<trkpt lat="45.850678" lon="11.385279"><ele>538.5</ele><time>2022-02-05T12:00:54Z</time></trkpt>
<trkpt lat="45.850692" lon="11.385027"><ele>540.2</ele><time>2022-02-05T12:00:55Z</time></trkpt>
<trkpt lat="45.850778" lon="11.384674"><ele>553.4</ele><time>2022-02-05T12:00:56Z</time></trkpt>
<trkpt lat="45.850778" lon="11.38454"><ele>557.3</ele><time>2022-02-05T12:00:58Z</time></trkpt>
<trkpt lat="45.850736" lon="11.384408"><ele>558.45</ele><time>2022-02-05T12:00:59Z</time></trkpt>
<trkpt lat="45.850575" lon="11.384099"><ele>556.15</ele><time>2022-02-05T12:01:00Z</time></trkpt>
<trkpt lat="45.85042" lon="11.383638"><ele>550.49</ele><time>2022-02-05T12:01:01Z</time></trkpt>
<trkpt lat="45.85041" lon="11.383553"><ele>550.56</ele><time>2022-02-05T12:01:02Z</time></trkpt>
<trkpt lat="45.850426" lon="11.383492"><ele>552.99</ele><time>2022-02-05T12:01:03Z</time></trkpt>
<trkpt lat="45.850461" lon="11.383474"><ele>556.96</ele><time>2022-02-05T12:01:05Z</time></trkpt>
<trkpt lat="45.850494" lon="11.38351"><ele>559.77</ele><time>2022-02-05T12:01:06Z</time></trkpt>
<trkpt lat="45.8506" lon="11.383883"><ele>563.29</ele><time>2022-02-05T12:01:07Z</time></trkpt>
<trkpt lat="45.850876" lon="11.384369"><ele>570.76</ele><time>2022-02-05T12:01:08Z</time></trkpt>
<trkpt lat="45.850924" lon="11.384673"><ele>567.14</ele><time>2022-02-05T12:01:09Z</time></trkpt>
<trkpt lat="45.850877" lon="11.384989"><ele>557.17</ele><time>2022-02-05T12:01:10Z</time></trkpt>
<trkpt lat="45.850867" lon="11.385181"><ele>556.24</ele><time>2022-02-05T12:01:11Z</time></trkpt>
<trkpt lat="45.850891" lon="11.385371"><ele>559.47</ele><time>2022-02-05T12:01:13Z</time></trkpt>
<trkpt lat="45.850976" lon="11.385612"><ele>569.11</ele><time>2022-02-05T12:01:14Z</time></trkpt>
<trkpt lat="45.851049" lon="11.385896"><ele>574.41</ele><time>2022-02-05T12:01:15Z</time></trkpt>
<trkpt lat="45.851107" lon="11.386255"><ele>577.06</ele><time>2022-02-05T12:01:16Z</time></trkpt>
<trkpt lat="45.851244" lon="11.386791"><ele>578.97</ele><time>2022-02-05T12:01:17Z</time></trkpt>
<trkpt lat="45.851529" lon="11.387466"><ele>584.22</ele><time>2022-02-05T12:01:18Z</time></trkpt>
<trkpt lat="45.851607" lon="11.387855"><ele>579.9</ele><time>2022-02-05T12:01:19Z</time></trkpt>
<trkpt lat="45.851633" lon="11.388397"><ele>577.22</ele><time>2022-02-05T12:01:21Z</time></trkpt>
<trkpt lat="45.851669" lon="11.38843"><ele>579.43</ele><time>2022-02-05T12:01:22Z</time></trkpt>
<trkpt lat="45.851713" lon="11.388407"><ele>582.26</ele><time>2022-02-05T12:01:23Z</time></trkpt>
<trkpt lat="45.851712" lon="11.388033"><ele>579.29</ele><time>2022-02-05T12:01:24Z</time></trkpt>
<trkpt lat="45.851677" lon="11.387604"><ele>590.22</ele><time>2022-02-05T12:01:25Z</time></trkpt>
<trkpt lat="45.851414" lon="11.386772"><ele>591.45</ele><time>2022-02-05T12:01:26Z</time></trkpt>
<trkpt lat="45.851306" lon="11.38614"><ele>592.25</ele><time>2022-02-05T12:01:28Z</time></trkpt>
<trkpt lat="45.851257" lon="11.385542"><ele>605.82</ele><time>2022-02-05T12:01:29Z</time></trkpt>
<trkpt lat="45.851345" lon="11.384469"><ele>599.86</ele><time>2022-02-05T12:01:30Z</time></trkpt>
<trkpt lat="45.851312" lon="11.38421"><ele>605.04</ele><time>2022-02-05T12:01:31Z</time></trkpt>
<trkpt lat="45.851248" lon="11.38396"><ele>609.06</ele><time>2022-02-05T12:01:32Z</time></trkpt>
<trkpt lat="45.851168" lon="11.383723"><ele>607.82</ele><time>2022-02-05T12:01:33Z</time></trkpt>
<trkpt lat="45.851034" lon="11.383469"><ele>601.79</ele><time>2022-02-05T12:01:34Z</time></trkpt>
<trkpt lat="45.850913" lon="11.383117"><ele>604.62</ele><time>2022-02-05T12:01:36Z</time></trkpt>
<trkpt lat="45.850845" lon="11.382371"><ele>613.23</ele><time>2022-02-05T12:01:37Z</time></trkpt>
<trkpt lat="45.850743" lon="11.381905"><ele>613.14</ele><time>2022-02-05T12:01:38Z</time></trkpt>
<trkpt lat="45.850713" lon="11.381687"><ele>611.62</ele><time>2022-02-05T12:01:39Z</time></trkpt>
<trkpt lat="45.850731" lon="11.381492"><ele>608.58</ele><time>2022-02-05T12:01:40Z</time></trkpt>
<trkpt lat="45.850751" lon="11.381426"><ele>608.09</ele><time>2022-02-05T12:01:41Z</time></trkpt>
<trkpt lat="45.850947" lon="11.381196"><ele>615.1</ele><time>2022-02-05T12:01:42Z</time></trkpt>
<trkpt lat="45.851026" lon="11.381036"><ele>616.78</ele><time>2022-02-05T12:01:44Z</time></trkpt>
<trkpt lat="45.851054" lon="11.380681"><ele>613.62</ele><time>2022-02-05T12:01:45Z</time></trkpt>
<trkpt lat="45.851025" lon="11.380092"><ele>616.84</ele><time>2022-02-05T12:01:46Z</time></trkpt>
<trkpt lat="45.85096" lon="11.379827"><ele>617.84</ele><time>2022-02-05T12:01:47Z</time></trkpt>
<trkpt lat="45.850757" lon="11.379341"><ele>606.14</ele><time>2022-02-05T12:01:48Z</time></trkpt>
<trkpt lat="45.850741" lon="11.379183"><ele>605.63</ele><time>2022-02-05T12:01:49Z</time></trkpt>
<trkpt lat="45.850758" lon="11.378997"><ele>609.62</ele><time>2022-02-05T12:01:51Z</time></trkpt>
<trkpt lat="45.850856" lon="11.378498"><ele>621.43</ele><time>2022-02-05T12:01:52Z</time></trkpt>
<trkpt lat="45.850832" lon="11.378227"><ele>616.72</ele><time>2022-02-05T12:01:53Z</time></trkpt>
<trkpt lat="45.850838" lon="11.377989"><ele>614.93</ele><time>2022-02-05T12:01:54Z</time></trkpt>
<trkpt lat="45.850936" lon="11.377758"><ele>616.66</ele><time>2022-02-05T12:01:55Z</time></trkpt>
<trkpt lat="45.851159" lon="11.377398"><ele>623.6</ele><time>2022-02-05T12:01:56Z</time></trkpt>
<trkpt lat="45.851197" lon="11.3772"><ele>624.82</ele><time>2022-02-05T12:01:57Z</time></trkpt>
<trkpt lat="45.851138" lon="11.376473"><ele>620.52</ele><time>2022-02-05T12:01:59Z</time></trkpt>
<trkpt lat="45.851109" lon="11.375667"><ele>619.87</ele><time>2022-02-05T12:02:00Z</time></trkpt>
<trkpt lat="45.851132" lon="11.375638"><ele>621.42</ele><time>2022-02-05T12:02:01Z</time></trkpt>
<trkpt lat="45.851159" lon="11.375655"><ele>623.32</ele><time>2022-02-05T12:02:02Z</time></trkpt>
<trkpt lat="45.851181" lon="11.375784"><ele>625.01</ele><time>2022-02-05T12:02:03Z</time></trkpt>
<trkpt lat="45.851197" lon="11.376173"><ele>625.09</ele><time>2022-02-05T12:02:04Z</time></trkpt>
<trkpt lat="45.851234" lon="11.37656"><ele>626.77</ele><time>2022-02-05T12:02:05Z</time></trkpt>
<trkpt lat="45.851312" lon="11.377104"><ele>632.3</ele><time>2022-02-05T12:02:07Z</time></trkpt>
<trkpt lat="45.851327" lon="11.377356"><ele>633.35</ele><time>2022-02-05T12:02:08Z</time></trkpt>
<trkpt lat="45.851348" lon="11.377406"><ele>634.37</ele><time>2022-02-05T12:02:09Z</time></trkpt>
<trkpt lat="45.851371" lon="11.377413"><ele>635.61</ele><time>2022-02-05T12:02:10Z</time></trkpt>
<trkpt lat="45.851401" lon="11.377361"><ele>637.88</ele><time>2022-02-05T12:02:11Z</time></trkpt>
<trkpt lat="45.851383" lon="11.377054"><ele>636.97</ele><time>2022-02-05T12:02:12Z</time></trkpt>
<trkpt lat="45.851317" lon="11.37658"><ele>632.41</ele><time>2022-02-05T12:02:14Z</time></trkpt>
<trkpt lat="45.851294" lon="11.376236"><ele>631.87</ele><time>2022-02-05T12:02:15Z</time></trkpt>
<trkpt lat="45.851299" lon="11.375894"><ele>633.28</ele><time>2022-02-05T12:02:16Z</time></trkpt>
<trkpt lat="45.851239" lon="11.375484"><ele>628.62</ele><time>2022-02-05T12:02:17Z</time></trkpt>
<trkpt lat="45.851241" lon="11.375329"><ele>628.47</ele><time>2022-02-05T12:02:18Z</time></trkpt>
<trkpt lat="45.851272" lon="11.375278"><ele>630.55</ele><time>2022-02-05T12:02:19Z</time></trkpt>
<trkpt lat="45.851308" lon="11.375306"><ele>633.22</ele><time>2022-02-05T12:02:20Z</time></trkpt>
<trkpt lat="45.851377" lon="11.375835"><ele>639.1</ele><time>2022-02-05T12:02:22Z</time></trkpt>
<trkpt lat="45.851372" lon="11.376118"><ele>637.79</ele><time>2022-02-05T12:02:23Z</time></trkpt>
<trkpt lat="45.851409" lon="11.376374"><ele>639.79</ele><time>2022-02-05T12:02:24Z</time></trkpt>
<trkpt lat="45.851535" lon="11.376853"><ele>648.04</ele><time>2022-02-05T12:02:25Z</time></trkpt>
<trkpt lat="45.851558" lon="11.377069"><ele>649.42</ele><time>2022-02-05T12:02:26Z</time></trkpt>
<trkpt lat="45.851551" lon="11.377331"><ele>648.63</ele><time>2022-02-05T12:02:27Z</time></trkpt>
<trkpt lat="45.851512" lon="11.37752"><ele>645.83</ele><time>2022-02-05T12:02:28Z</time></trkpt>
<trkpt lat="45.851425" lon="11.377623"><ele>639.56</ele><time>2022-02-05T12:02:30Z</time></trkpt>
<trkpt lat="45.851278" lon="11.377724"><ele>631.4</ele><time>2022-02-05T12:02:31Z</time></trkpt>
<trkpt lat="45.851211" lon="11.37789"><ele>629.52</ele><time>2022-02-05T12:02:32Z</time></trkpt>
<trkpt lat="45.851182" lon="11.37807"><ele>630.88</ele><time>2022-02-05T12:02:33Z</time></trkpt>
<trkpt lat="45.851197" lon="11.378183"><ele>635.94</ele><time>2022-02-05T12:02:34Z</time></trkpt>
<trkpt lat="45.851303" lon="11.378499"><ele>654.09</ele><time>2022-02-05T12:02:35Z</time></trkpt>
<trkpt lat="45.851276" lon="11.378735"><ele>656.56</ele><time>2022-02-05T12:02:37Z</time></trkpt>
<trkpt lat="45.851301" lon="11.378943"><ele>659.74</ele><time>2022-02-05T12:02:38Z</time></trkpt>
<trkpt lat="45.851529" lon="11.379499"><ele>673.77</ele><time>2022-02-05T12:02:39Z</time></trkpt>
<trkpt lat="45.85157" lon="11.379493"><ele>675.57</ele><time>2022-02-05T12:02:40Z</time></trkpt>
<trkpt lat="45.851588" lon="11.37945"><ele>676.57</ele><time>2022-02-05T12:02:41Z</time></trkpt>
<trkpt lat="45.851585" lon="11.379398"><ele>676.54</ele><time>2022-02-05T12:02:42Z</time></trkpt>
<trkpt lat="45.85139" lon="11.37896"><ele>665.6</ele><time>2022-02-05T12:02:43Z</time></trkpt>
<trkpt lat="45.851379" lon="11.378733"><ele>663.2</ele><time>2022-02-05T12:02:45Z</time></trkpt>
<trkpt lat="45.851408" lon="11.378506"><ele>661.44</ele><time>2022-02-05T12:02:46Z</time></trkpt>
<trkpt lat="45.8514" lon="11.378374"><ele>657.58</ele><time>2022-02-05T12:02:47Z</time></trkpt>
<trkpt lat="45.851357" lon="11.378208"><ele>647.9</ele><time>2022-02-05T12:02:48Z</time></trkpt>
<trkpt lat="45.85136" lon="11.378058"><ele>641.38</ele><time>2022-02-05T12:02:49Z</time></trkpt>
<trkpt lat="45.851419" lon="11.377911"><ele>642.59</ele><time>2022-02-05T12:02:50Z</time></trkpt>
<trkpt lat="45.851704" lon="11.377575"><ele>661.4</ele><time>2022-02-05T12:02:51Z</time></trkpt>
<trkpt lat="45.851766" lon="11.377442"><ele>666.1</ele><time>2022-02-05T12:02:53Z</time></trkpt>
<trkpt lat="45.8518" lon="11.377231"><ele>668.95</ele><time>2022-02-05T12:02:54Z</time></trkpt>
<trkpt lat="45.85178" lon="11.376875"><ele>667.38</ele><time>2022-02-05T12:02:55Z</time></trkpt>
<trkpt lat="45.851805" lon="11.376406"><ele>675.2</ele><time>2022-02-05T12:02:56Z</time></trkpt>
<trkpt lat="45.851783" lon="11.376084"><ele>674.71</ele><time>2022-02-05T12:02:57Z</time></trkpt>
<trkpt lat="45.85174" lon="11.375912"><ele>671.35</ele><time>2022-02-05T12:02:58Z</time></trkpt>
<trkpt lat="45.851777" lon="11.375278"><ele>664.58</ele><time>2022-02-05T12:03:00Z</time></trkpt>
<trkpt lat="45.851818" lon="11.375119"><ele>657.21</ele><time>2022-02-05T12:03:01Z</time></trkpt>
<trkpt lat="45.851903" lon="11.37496"><ele>650.69</ele><time>2022-02-05T12:03:02Z</time></trkpt>
<trkpt lat="45.85214" lon="11.374774"><ele>652.66</ele><time>2022-02-05T12:03:03Z</time></trkpt>
<trkpt lat="45.852265" lon="11.374805"><ele>663.86</ele><time>2022-02-05T12:03:04Z</time></trkpt>
<trkpt lat="45.852411" lon="11.37496"><ele>694.59</ele><time>2022-02-05T12:03:05Z</time></trkpt>
<trkpt lat="45.852505" lon="11.375099"><ele>712.84</ele><time>2022-02-05T12:03:06Z</time></trkpt>
<trkpt lat="45.852576" lon="11.375088"><ele>717.18</ele><time>2022-02-05T12:03:08Z</time></trkpt>
<trkpt lat="45.852638" lon="11.37502"><ele>719.1</ele><time>2022-02-05T12:03:09Z</time></trkpt>
<trkpt lat="45.852718" lon="11.374849"><ele>709.9</ele><time>2022-02-05T12:03:10Z</time></trkpt>
<trkpt lat="45.852847" lon="11.37472"><ele>707.54</ele><time>2022-02-05T12:03:11Z</time></trkpt>
<trkpt lat="45.853034" lon="11.37437"><ele>691.27</ele><time>2022-02-05T12:03:12Z</time></trkpt>
<trkpt lat="45.853144" lon="11.374247"><ele>690.24</ele><time>2022-02-05T12:03:13Z</time></trkpt>
<trkpt lat="45.853367" lon="11.374047"><ele>697.59</ele><time>2022-02-05T12:03:14Z</time></trkpt>
<trkpt lat="45.853457" lon="11.373855"><ele>692.53</ele><time>2022-02-05T12:03:16Z</time></trkpt>
<trkpt lat="45.853524" lon="11.373596"><ele>683.96</ele><time>2022-02-05T12:03:17Z</time></trkpt>
<trkpt lat="45.853595" lon="11.373433"><ele>681.07</ele><time>2022-02-05T12:03:18Z</time></trkpt>
<trkpt lat="45.853931" lon="11.373042"><ele>690.63</ele><time>2022-02-05T12:03:19Z</time></trkpt>
<trkpt lat="45.853966" lon="11.373069"><ele>692.64</ele><time>2022-02-05T12:03:20Z</time></trkpt>
<trkpt lat="45.853982" lon="11.373128"><ele>694.58</ele><time>2022-02-05T12:03:21Z</time></trkpt>
<trkpt lat="45.853968" lon="11.373216"><ele>695.97</ele><time>2022-02-05T12:03:23Z</time></trkpt>
<trkpt lat="45.853754" lon="11.373419"><ele>690.14</ele><time>2022-02-05T12:03:24Z</time></trkpt>
<trkpt lat="45.853599" lon="11.373707"><ele>693.2</ele><time>2022-02-05T12:03:25Z</time></trkpt>
<trkpt lat="45.853604" lon="11.373756"><ele>695.9</ele><time>2022-02-05T12:03:26Z</time></trkpt>
<trkpt lat="45.853624" lon="11.373785"><ele>698.33</ele><time>2022-02-05T12:03:27Z</time></trkpt>
<trkpt lat="45.85368" lon="11.373754"><ele>699.28</ele><time>2022-02-05T12:03:28Z</time></trkpt>
<trkpt lat="45.853821" lon="11.373496"><ele>696.68</ele><time>2022-02-05T12:03:29Z</time></trkpt>
<trkpt lat="45.854008" lon="11.373315"><ele>699.49</ele><time>2022-02-05T12:03:31Z</time></trkpt>
<trkpt lat="45.854154" lon="11.373304"><ele>704.16</ele><time>2022-02-05T12:03:32Z</time></trkpt>
<trkpt lat="45.854369" lon="11.373391"><ele>706.03</ele><time>2022-02-05T12:03:33Z</time></trkpt>
<trkpt lat="45.85459" lon="11.373447"><ele>706.43</ele><time>2022-02-05T12:03:34Z</time></trkpt>
<trkpt lat="45.854831" lon="11.373466"><ele>708.09</ele><time>2022-02-05T12:03:35Z</time></trkpt>
<trkpt lat="45.854965" lon="11.37344"><ele>709.33</ele><time>2022-02-05T12:03:36Z</time></trkpt>
<trkpt lat="45.855002" lon="11.373458"><ele>710.53</ele><time>2022-02-05T12:03:37Z</time></trkpt>
<trkpt lat="45.855025" lon="11.3735"><ele>712.63</ele><time>2022-02-05T12:03:39Z</time></trkpt>
<trkpt lat="45.855013" lon="11.37356"><ele>714.52</ele><time>2022-02-05T12:03:40Z</time></trkpt>
<trkpt lat="45.854965" lon="11.373603"><ele>714.98</ele><time>2022-02-05T12:03:41Z</time></trkpt>
<trkpt lat="45.854644" lon="11.373702"><ele>713.66</ele><time>2022-02-05T12:03:42Z</time></trkpt>
<trkpt lat="45.85426" lon="11.373687"><ele>712.47</ele><time>2022-02-05T12:03:43Z</time></trkpt>
<trkpt lat="45.854073" lon="11.373579"><ele>707.27</ele><time>2022-02-05T12:03:44Z</time></trkpt>
<trkpt lat="45.854009" lon="11.373591"><ele>706.12</ele><time>2022-02-05T12:03:46Z</time></trkpt>
<trkpt lat="45.853983" lon="11.373682"><ele>708.33</ele><time>2022-02-05T12:03:47Z</time></trkpt>
<trkpt lat="45.854008" lon="11.373772"><ele>711.78</ele><time>2022-02-05T12:03:48Z</time></trkpt>
<trkpt lat="45.854073" lon="11.373828"><ele>714.99</ele><time>2022-02-05T12:03:49Z</time></trkpt>
<trkpt lat="45.854262" lon="11.373887"><ele>718.95</ele><time>2022-02-05T12:03:50Z</time></trkpt>
<trkpt lat="45.854635" lon="11.373939"><ele>723.33</ele><time>2022-02-05T12:03:51Z</time></trkpt>
<trkpt lat="45.854958" lon="11.373853"><ele>727.74</ele><time>2022-02-05T12:03:52Z</time></trkpt>
<trkpt lat="45.855179" lon="11.373724"><ele>726.99</ele><time>2022-02-05T12:03:54Z</time></trkpt>
<trkpt lat="45.85589" lon="11.373381"><ele>730.6</ele><time>2022-02-05T12:03:55Z</time></trkpt>
<trkpt lat="45.856252" lon="11.372991"><ele>727.08</ele><time>2022-02-05T12:03:56Z</time></trkpt>
<trkpt lat="45.857666" lon="11.372394"><ele>741.02</ele><time>2022-02-05T12:03:57Z</time></trkpt>
<trkpt lat="45.858144" lon="11.372222"><ele>744.27</ele><time>2022-02-05T12:03:58Z</time></trkpt>
<trkpt lat="45.858213" lon="11.372211"><ele>744.92</ele><time>2022-02-05T12:03:59Z</time></trkpt>
<trkpt lat="45.858263" lon="11.372248"><ele>747.03</ele><time>2022-02-05T12:04:00Z</time></trkpt>
<trkpt lat="45.858252" lon="11.372327"><ele>750.04</ele><time>2022-02-05T12:04:02Z</time></trkpt>
<trkpt lat="45.858204" lon="11.372394"><ele>751.68</ele><time>2022-02-05T12:04:03Z</time></trkpt>
<trkpt lat="45.85806" lon="11.372462"><ele>750.89</ele><time>2022-02-05T12:04:04Z</time></trkpt>
<trkpt lat="45.857426" lon="11.372634"><ele>744.08</ele><time>2022-02-05T12:04:05Z</time></trkpt>
<trkpt lat="45.856561" lon="11.37313"><ele>746.24</ele><time>2022-02-05T12:04:06Z</time></trkpt>
<trkpt lat="45.85639" lon="11.373379"><ele>751.69</ele><time>2022-02-05T12:04:07Z</time></trkpt>
<trkpt lat="45.855644" lon="11.374061"><ele>756.84</ele><time>2022-02-05T12:04:09Z</time></trkpt>
<trkpt lat="45.855413" lon="11.374243"><ele>757.53</ele><time>2022-02-05T12:04:10Z</time></trkpt>
<trkpt lat="45.85538" lon="11.374302"><ele>757.78</ele><time>2022-02-05T12:04:11Z</time></trkpt>
<trkpt lat="45.855371" lon="11.374389"><ele>759.08</ele><time>2022-02-05T12:04:12Z</time></trkpt>
<trkpt lat="45.855426" lon="11.374432"><ele>760.43</ele><time>2022-02-05T12:04:13Z</time></trkpt>
<trkpt lat="45.855509" lon="11.374424"><ele>761.29</ele><time>2022-02-05T12:04:14Z</time></trkpt>
<trkpt lat="45.855941" lon="11.374204"><ele>761.0</ele><time>2022-02-05T12:04:15Z</time></trkpt>
<trkpt lat="45.856287" lon="11.374085"><ele>763.87</ele><time>2022-02-05T12:04:17Z</time></trkpt>
<trkpt lat="45.856463" lon="11.373914"><ele>766.83</ele><time>2022-02-05T12:04:18Z</time></trkpt>
<trkpt lat="45.856737" lon="11.373503"><ele>765.34</ele><time>2022-02-05T12:04:19Z</time></trkpt>
<trkpt lat="45.856862" lon="11.373383"><ele>765.1</ele><time>2022-02-05T12:04:20Z</time></trkpt>
<trkpt lat="45.857014" lon="11.373364"><ele>768.21</ele><time>2022-02-05T12:04:21Z</time></trkpt>
<trkpt lat="45.857411" lon="11.373382"><ele>775.42</ele><time>2022-02-05T12:04:22Z</time></trkpt>
<trkpt lat="45.857925" lon="11.373303"><ele>775.7</ele><time>2022-02-05T12:04:23Z</time></trkpt>
<trkpt lat="45.858476" lon="11.373141"><ele>778.45</ele><time>2022-02-05T12:04:25Z</time></trkpt>
<trkpt lat="45.8588" lon="11.372984"><ele>779.39</ele><time>2022-02-05T12:04:26Z</time></trkpt>
<trkpt lat="45.858846" lon="11.373016"><ele>780.14</ele><time>2022-02-05T12:04:27Z</time></trkpt>
<trkpt lat="45.858864" lon="11.373055"><ele>780.9</ele><time>2022-02-05T12:04:28Z</time></trkpt>
<trkpt lat="45.858868" lon="11.373118"><ele>782.01</ele><time>2022-02-05T12:04:29Z</time></trkpt>
<trkpt lat="45.858843" lon="11.373164"><ele>782.59</ele><time>2022-02-05T12:04:30Z</time></trkpt>
<trkpt lat="45.858792" lon="11.373191"><ele>782.58</ele><time>2022-02-05T12:04:32Z</time></trkpt>
<trkpt lat="45.858326" lon="11.373373"><ele>782.06</ele><time>2022-02-05T12:04:33Z</time></trkpt>
<trkpt lat="45.857445" lon="11.373645"><ele>783.22</ele><time>2022-02-05T12:04:34Z</time></trkpt>
<trkpt lat="45.857264" lon="11.373854"><ele>785.08</ele><time>2022-02-05T12:04:35Z</time></trkpt>
<trkpt lat="45.857252" lon="11.374064"><ele>786.36</ele><time>2022-02-05T12:04:36Z</time></trkpt>
<trkpt lat="45.857346" lon="11.3745"><ele>790.96</ele><time>2022-02-05T12:04:37Z</time></trkpt>
<trkpt lat="45.857345" lon="11.374864"><ele>794.51</ele><time>2022-02-05T12:04:38Z</time></trkpt>
<trkpt lat="45.857069" lon="11.375476"><ele>797.31</ele><time>2022-02-05T12:04:40Z</time></trkpt>
<trkpt lat="45.856469" lon="11.376299"><ele>803.37</ele><time>2022-02-05T12:04:41Z</time></trkpt>
<trkpt lat="45.855841" lon="11.377038"><ele>808.2</ele><time>2022-02-05T12:04:42Z</time></trkpt>
<trkpt lat="45.855449" lon="11.377565"><ele>809.63</ele><time>2022-02-05T12:04:43Z</time></trkpt>
<trkpt lat="45.854826" lon="11.377998"><ele>815.22</ele><time>2022-02-05T12:04:44Z</time></trkpt>
<trkpt lat="45.854766" lon="11.378191"><ele>816.72</ele><time>2022-02-05T12:04:45Z</time></trkpt>
<trkpt lat="45.854785" lon="11.378378"><ele>817.64</ele><time>2022-02-05T12:04:46Z</time></trkpt>
<trkpt lat="45.854849" lon="11.378501"><ele>818.09</ele><time>2022-02-05T12:04:48Z</time></trkpt>
<trkpt lat="45.854967" lon="11.3786"><ele>818.79</ele><time>2022-02-05T12:04:49Z</time></trkpt>
<trkpt lat="45.855268" lon="11.378659"><ele>819.44</ele><time>2022-02-05T12:04:50Z</time></trkpt>
<trkpt lat="45.85583" lon="11.378608"><ele>819.0</ele><time>2022-02-05T12:04:51Z</time></trkpt>
<trkpt lat="45.856249" lon="11.378608"><ele>822.5</ele><time>2022-02-05T12:04:52Z</time></trkpt>
<trkpt lat="45.856524" lon="11.378694"><ele>827.01</ele><time>2022-02-05T12:04:53Z</time></trkpt>
<trkpt lat="45.85696" lon="11.378968"><ele>832.33</ele><time>2022-02-05T12:04:55Z</time></trkpt>
<trkpt lat="45.857343" lon="11.379239"><ele>834.49</ele><time>2022-02-05T12:04:56Z</time></trkpt>
<trkpt lat="45.857638" lon="11.379711"><ele>831.1</ele><time>2022-02-05T12:04:57Z</time></trkpt>
<trkpt lat="45.85777" lon="11.38009"><ele>831.58</ele><time>2022-02-05T12:04:58Z</time></trkpt>
<trkpt lat="45.857923" lon="11.380884"><ele>840.89</ele><time>2022-02-05T12:04:59Z</time></trkpt>
<trkpt lat="45.858093" lon="11.381288"><ele>843.77</ele><time>2022-02-05T12:05:00Z</time></trkpt>
<trkpt lat="45.858247" lon="11.381513"><ele>844.07</ele><time>2022-02-05T12:05:01Z</time></trkpt>
<trkpt lat="45.858429" lon="11.381508"><ele>843.65</ele><time>2022-02-05T12:05:04Z</time></trkpt>
<trkpt lat="45.858582" lon="11.381475"><ele>843.21</ele><time>2022-02-05T12:05:07Z</time></trkpt>
<trkpt lat="45.859151" lon="11.381056"><ele>845.43</ele><time>2022-02-05T12:05:10Z</time></trkpt>
<trkpt lat="45.859312" lon="11.381063"><ele>847.96</ele><time>2022-02-05T12:05:13Z</time></trkpt>
<trkpt lat="45.859503" lon="11.381282"><ele>849.97</ele><time>2022-02-05T12:05:16Z</time></trkpt>
<trkpt lat="45.860158" lon="11.382825"><ele>858.54</ele><time>2022-02-05T12:05:19Z</time></trkpt>
<trkpt lat="45.860422" lon="11.383546"><ele>864.51</ele><time>2022-02-05T12:05:21Z</time></trkpt>
<trkpt lat="45.860452" lon="11.383769"><ele>864.46</ele><time>2022-02-05T12:05:24Z</time></trkpt>
<trkpt lat="45.860503" lon="11.385833"><ele>873.66</ele><time>2022-02-05T12:05:27Z</time></trkpt>
<trkpt lat="45.86053" lon="11.386423"><ele>872.54</ele><time>2022-02-05T12:05:30Z</time></trkpt>
<trkpt lat="45.860613" lon="11.38733"><ele>878.08</ele><time>2022-02-05T12:05:33Z</time></trkpt>
<trkpt lat="45.860669" lon="11.387676"><ele>878.93</ele><time>2022-02-05T12:05:36Z</time></trkpt>
<trkpt lat="45.860775" lon="11.388011"><ele>878.13</ele><time>2022-02-05T12:05:39Z</time></trkpt>
<trkpt lat="45.86133" lon="11.388933"><ele>876.66</ele><time>2022-02-05T12:05:41Z</time></trkpt>
<trkpt lat="45.861748" lon="11.389586"><ele>879.83</ele><time>2022-02-05T12:05:44Z</time></trkpt>
<trkpt lat="45.862137" lon="11.390264"><ele>889.37</ele><time>2022-02-05T12:05:47Z</time></trkpt>
<trkpt lat="45.862281" lon="11.390785"><ele>894.73</ele><time>2022-02-05T12:05:50Z</time></trkpt>
<trkpt lat="45.862323" lon="11.391097"><ele>895.57</ele><time>2022-02-05T12:05:53Z</time></trkpt>
<trkpt lat="45.862316" lon="11.391302"><ele>895.82</ele><time>2022-02-05T12:05:56Z</time></trkpt>
<trkpt lat="45.862239" lon="11.391616"><ele>895.99</ele><time>2022-02-05T12:05:59Z</time></trkpt>
<trkpt lat="45.861843" lon="11.392567"><ele>906.6</ele><time>2022-02-05T12:06:01Z</time></trkpt>
<trkpt lat="45.861662" lon="11.393418"><ele>907.2</ele><time>2022-02-05T12:06:04Z</time></trkpt>
<trkpt lat="45.861593" lon="11.393989"><ele>908.86</ele><time>2022-02-05T12:06:07Z</time></trkpt>
<trkpt lat="45.861644" lon="11.394853"><ele>916.41</ele><time>2022-02-05T12:06:10Z</time></trkpt>
<trkpt lat="45.861714" lon="11.395231"><ele>918.51</ele><time>2022-02-05T12:06:13Z</time></trkpt>
<trkpt lat="45.862518" lon="11.397759"><ele>929.07</ele><time>2022-02-05T12:06:16Z</time></trkpt>
<trkpt lat="45.86296" lon="11.398477"><ele>929.66</ele><time>2022-02-05T12:06:19Z</time></trkpt>
<trkpt lat="45.863182" lon="11.398888"><ele>931.81</ele><time>2022-02-05T12:06:22Z</time></trkpt>
<trkpt lat="45.863391" lon="11.39922"><ele>933.64</ele><time>2022-02-05T12:06:24Z</time></trkpt>
<trkpt lat="45.863728" lon="11.4001"><ele>938.67</ele><time>2022-02-05T12:06:27Z</time></trkpt>
<trkpt lat="45.864348" lon="11.401499"><ele>941.56</ele><time>2022-02-05T12:06:30Z</time></trkpt>
<trkpt lat="45.864512" lon="11.401723"><ele>941.58</ele><time>2022-02-05T12:06:33Z</time></trkpt>
<trkpt lat="45.86465" lon="11.401812"><ele>941.8</ele><time>2022-02-05T12:06:36Z</time></trkpt>
<trkpt lat="45.864785" lon="11.401865"><ele>943.03</ele><time>2022-02-05T12:06:39Z</time></trkpt>
<trkpt lat="45.865273" lon="11.402168"><ele>945.91</ele><time>2022-02-05T12:06:42Z</time></trkpt>
<trkpt lat="45.865663" lon="11.40258"><ele>943.35</ele><time>2022-02-05T12:06:44Z</time></trkpt>
<trkpt lat="45.865831" lon="11.402676"><ele>941.29</ele><time>2022-02-05T12:06:47Z</time></trkpt>
<trkpt lat="45.866591" lon="11.402791"><ele>944.57</ele><time>2022-02-05T12:06:50Z</time></trkpt>
<trkpt lat="45.866677" lon="11.402935"><ele>945.77</ele><time>2022-02-05T12:06:53Z</time></trkpt>
<trkpt lat="45.866692" lon="11.403143"><ele>946.16</ele><time>2022-02-05T12:06:56Z</time></trkpt>
<trkpt lat="45.866535" lon="11.403749"><ele>946.93</ele><time>2022-02-05T12:06:59Z</time></trkpt>
<trkpt lat="45.86649" lon="11.404181"><ele>952.83</ele><time>2022-02-05T12:07:02Z</time></trkpt>
<trkpt lat="45.866428" lon="11.404374"><ele>954.93</ele><time>2022-02-05T12:07:04Z</time></trkpt>
<trkpt lat="45.866215" lon="11.404845"><ele>955.65</ele><time>2022-02-05T12:07:07Z</time></trkpt>
<trkpt lat="45.866176" lon="11.40505"><ele>956.23</ele><time>2022-02-05T12:07:10Z</time></trkpt>
<trkpt lat="45.866155" lon="11.406398"><ele>963.34</ele><time>2022-02-05T12:07:13Z</time></trkpt>
<trkpt lat="45.866162" lon="11.406709"><ele>965.59</ele><time>2022-02-05T12:07:16Z</time></trkpt>
<trkpt lat="45.866202" lon="11.406882"><ele>967.14</ele><time>2022-02-05T12:07:19Z</time></trkpt>
<trkpt lat="45.866312" lon="11.407099"><ele>969.91</ele><time>2022-02-05T12:07:22Z</time></trkpt>
<trkpt lat="45.866511" lon="11.407414"><ele>973.67</ele><time>2022-02-05T12:07:24Z</time></trkpt>
<trkpt lat="45.866564" lon="11.407537"><ele>974.99</ele><time>2022-02-05T12:07:27Z</time></trkpt>
<trkpt lat="45.866581" lon="11.407751"><ele>976.75</ele><time>2022-02-05T12:07:30Z</time></trkpt>
<trkpt lat="45.866556" lon="11.407941"><ele>977.53</ele><time>2022-02-05T12:07:33Z</time></trkpt>
<trkpt lat="45.86634" lon="11.408353"><ele>973.99</ele><time>2022-02-05T12:07:36Z</time></trkpt>
<trkpt lat="45.866223" lon="11.408677"><ele>974.17</ele><time>2022-02-05T12:07:39Z</time></trkpt>
<trkpt lat="45.86619" lon="11.409468"><ele>976.42</ele><time>2022-02-05T12:07:42Z</time></trkpt>
<trkpt lat="45.866194" lon="11.410484"><ele>978.56</ele><time>2022-02-05T12:07:44Z</time></trkpt>
<trkpt lat="45.866241" lon="11.410723"><ele>981.52</ele><time>2022-02-05T12:07:47Z</time></trkpt>
<trkpt lat="45.86639" lon="11.410884"><ele>985.47</ele><time>2022-02-05T12:07:50Z</time></trkpt>
<trkpt lat="45.86672" lon="11.411084"><ele>989.15</ele><time>2022-02-05T12:07:53Z</time></trkpt>
<trkpt lat="45.866926" lon="11.411297"><ele>990.61</ele><time>2022-02-05T12:07:56Z</time></trkpt>
<trkpt lat="45.866952" lon="11.41153"><ele>989.19</ele><time>2022-02-05T12:07:59Z</time></trkpt>
<trkpt lat="45.866928" lon="11.41191"><ele>986.92</ele><time>2022-02-05T12:08:02Z</time></trkpt>
<trkpt lat="45.866827" lon="11.412479"><ele>994.11</ele><time>2022-02-05T12:08:04Z</time></trkpt>
<trkpt lat="45.866577" lon="11.413499"><ele>994.99</ele><time>2022-02-05T12:08:07Z</time></trkpt>
<trkpt lat="45.866272" lon="11.415662"><ele>999.74</ele><time>2022-02-05T12:08:10Z</time></trkpt>
<trkpt lat="45.866284" lon="11.415964"><ele>1000.29</ele><time>2022-02-05T12:08:13Z</time></trkpt>
<trkpt lat="45.866572" lon="11.416827"><ele>1000.04</ele><time>2022-02-05T12:08:16Z</time></trkpt>
<trkpt lat="45.866793" lon="11.417688"><ele>1004.46</ele><time>2022-02-05T12:08:19Z</time></trkpt>
<trkpt lat="45.867086" lon="11.419023"><ele>1002.01</ele><time>2022-02-05T12:08:22Z</time></trkpt>
<trkpt lat="45.867464" lon="11.420484"><ele>1003.48</ele><time>2022-02-05T12:08:24Z</time></trkpt>
<trkpt lat="45.867577" lon="11.420745"><ele>1000.78</ele><time>2022-02-05T12:08:27Z</time></trkpt>
<trkpt lat="45.867872" lon="11.421143"><ele>1003.63</ele><time>2022-02-05T12:08:30Z</time></trkpt>
<trkpt lat="45.868314" lon="11.421589"><ele>1000.72</ele><time>2022-02-05T12:08:33Z</time></trkpt>
<trkpt lat="45.868942" lon="11.421997"><ele>997.3</ele><time>2022-02-05T12:08:36Z</time></trkpt>
<trkpt lat="45.869467" lon="11.422305"><ele>1012.72</ele><time>2022-02-05T12:08:39Z</time></trkpt>
<trkpt lat="45.869554" lon="11.422371"><ele>1016.31</ele><time>2022-02-05T12:08:42Z</time></trkpt>
<trkpt lat="45.869578" lon="11.422467"><ele>1015.48</ele><time>2022-02-05T12:08:45Z</time></trkpt>
<trkpt lat="45.869548" lon="11.422796"><ele>1010.27</ele><time>2022-02-05T12:08:47Z</time></trkpt>
<trkpt lat="45.869476" lon="11.423145"><ele>1002.54</ele><time>2022-02-05T12:08:50Z</time></trkpt>
<trkpt lat="45.869359" lon="11.423563"><ele>1000.58</ele><time>2022-02-05T12:08:53Z</time></trkpt>
<trkpt lat="45.869008" lon="11.424309"><ele>998.18</ele><time>2022-02-05T12:08:56Z</time></trkpt>
<trkpt lat="45.86897" lon="11.42443"><ele>998.45</ele><time>2022-02-05T12:08:59Z</time></trkpt>
<trkpt lat="45.868934" lon="11.424748"><ele>1000.43</ele><time>2022-02-05T12:09:02Z</time></trkpt>
<trkpt lat="45.868925" lon="11.42509"><ele>1001.38</ele><time>2022-02-05T12:09:05Z</time></trkpt>
<trkpt lat="45.86895" lon="11.427222"><ele>999.11</ele><time>2022-02-05T12:09:07Z</time></trkpt>
<trkpt lat="45.86893" lon="11.427331"><ele>998.67</ele><time>2022-02-05T12:09:10Z</time></trkpt>
<trkpt lat="45.868798" lon="11.427757"><ele>997.32</ele><time>2022-02-05T12:09:13Z</time></trkpt>
<trkpt lat="45.868794" lon="11.42784"><ele>997.47</ele><time>2022-02-05T12:09:16Z</time></trkpt>
<trkpt lat="45.868828" lon="11.428015"><ele>998.22</ele><time>2022-02-05T12:09:19Z</time></trkpt>
<trkpt lat="45.869139" lon="11.428878"><ele>1000.88</ele><time>2022-02-05T12:09:22Z</time></trkpt>
<trkpt lat="45.869214" lon="11.429152"><ele>1000.74</ele><time>2022-02-05T12:09:25Z</time></trkpt>
<trkpt lat="45.869447" lon="11.429664"><ele>1003.04</ele><time>2022-02-05T12:09:27Z</time></trkpt>
<trkpt lat="45.869594" lon="11.430056"><ele>1003.43</ele><time>2022-02-05T12:09:30Z</time></trkpt>
<trkpt lat="45.869643" lon="11.43026"><ele>1003.61</ele><time>2022-02-05T12:09:33Z</time></trkpt>
<trkpt lat="45.86975" lon="11.43095"><ele>1007.58</ele><time>2022-02-05T12:09:36Z</time></trkpt>
<trkpt lat="45.870073" lon="11.431721"><ele>1005.8</ele><time>2022-02-05T12:09:39Z</time></trkpt>
<trkpt lat="45.870202" lon="11.431989"><ele>1005.49</ele><time>2022-02-05T12:09:42Z</time></trkpt>
<trkpt lat="45.870317" lon="11.432174"><ele>1003.84</ele><time>2022-02-05T12:09:45Z</time></trkpt>
<trkpt lat="45.871014" lon="11.43303"><ele>1006.47</ele><time>2022-02-05T12:09:47Z</time></trkpt>
<trkpt lat="45.87138" lon="11.433514"><ele>1009.54</ele><time>2022-02-05T12:09:50Z</time></trkpt>
<trkpt lat="45.872286" lon="11.434943"><ele>1008.42</ele><time>2022-02-05T12:09:53Z</time></trkpt>
<trkpt lat="45.872535" lon="11.435401"><ele>1009.33</ele><time>2022-02-05T12:09:56Z</time></trkpt>
<trkpt lat="45.872748" lon="11.435921"><ele>1008.55</ele><time>2022-02-05T12:09:59Z</time></trkpt>
<trkpt lat="45.872953" lon="11.436619"><ele>1009.67</ele><time>2022-02-05T12:10:02Z</time></trkpt>
<trkpt lat="45.873052" lon="11.437014"><ele>1016.18</ele><time>2022-02-05T12:10:05Z</time></trkpt>
<trkpt lat="45.873423" lon="11.438167"><ele>1018.92</ele><time>2022-02-05T12:10:07Z</time></trkpt>
<trkpt lat="45.873554" lon="11.438618"><ele>1017.74</ele><time>2022-02-05T12:10:10Z</time></trkpt>
<trkpt lat="45.873742" lon="11.439461"><ele>1014.74</ele><time>2022-02-05T12:10:13Z</time></trkpt>
<trkpt lat="45.874592" lon="11.443886"><ele>1008.13</ele><time>2022-02-05T12:10:16Z</time></trkpt>
<trkpt lat="45.874963" lon="11.445651"><ele>1010.79</ele><time>2022-02-05T12:10:19Z</time></trkpt>
<trkpt lat="45.875044" lon="11.446278"><ele>1007.66</ele><time>2022-02-05T12:10:22Z</time></trkpt>
<trkpt lat="45.875103" lon="11.447079"><ele>1005.98</ele><time>2022-02-05T12:10:25Z</time></trkpt>
<trkpt lat="45.875102" lon="11.448498"><ele>1005.26</ele><time>2022-02-05T12:10:27Z</time></trkpt>
<trkpt lat="45.875052" lon="11.449578"><ele>1005.47</ele><time>2022-02-05T12:10:30Z</time></trkpt>
<trkpt lat="45.87509" lon="11.451314"><ele>998.97</ele><time>2022-02-05T12:10:33Z</time></trkpt>
<trkpt lat="45.875119" lon="11.451605"><ele>999.73</ele><time>2022-02-05T12:10:36Z</time></trkpt>
<trkpt lat="45.875982" lon="11.456242"><ele>999.39</ele><time>2022-02-05T12:10:39Z</time></trkpt>
<trkpt lat="45.876071" lon="11.456805"><ele>1000.63</ele><time>2022-02-05T12:10:42Z</time></trkpt>
<trkpt lat="45.87608" lon="11.458487"><ele>998.82</ele><time>2022-02-05T12:10:45Z</time></trkpt>
<trkpt lat="45.87619" lon="11.458736"><ele>999.08</ele><time>2022-02-05T12:10:47Z</time></trkpt>
<trkpt lat="45.876797" lon="11.459582"><ele>996.27</ele><time>2022-02-05T12:10:50Z</time></trkpt>
<trkpt lat="45.876843" lon="11.459677"><ele>996.06</ele><time>2022-02-05T12:10:53Z</time></trkpt>
<trkpt lat="45.876853" lon="11.459802"><ele>996.29</ele><time>2022-02-05T12:10:56Z</time></trkpt>
<trkpt lat="45.876837" lon="11.459896"><ele>996.62</ele><time>2022-02-05T12:10:59Z</time></trkpt>
<trkpt lat="45.876796" lon="11.459986"><ele>996.95</ele><time>2022-02-05T12:11:02Z</time></trkpt>
<trkpt lat="45.87637" lon="11.460285"><ele>997.93</ele><time>2022-02-05T12:11:05Z</time></trkpt>
<trkpt lat="45.876171" lon="11.460781"><ele>996.58</ele><time>2022-02-05T12:11:08Z</time></trkpt>
<trkpt lat="45.875568" lon="11.462612"><ele>990.91</ele><time>2022-02-05T12:11:10Z</time></trkpt>
<trkpt lat="45.875153" lon="11.463656"><ele>988.07</ele><time>2022-02-05T12:11:13Z</time></trkpt>
<trkpt lat="45.875039" lon="11.463842"><ele>984.3</ele><time>2022-02-05T12:11:16Z</time></trkpt>
<trkpt lat="45.874848" lon="11.464005"><ele>980.8</ele><time>2022-02-05T12:11:19Z</time></trkpt>
<trkpt lat="45.874246" lon="11.464302"><ele>977.48</ele><time>2022-02-05T12:11:22Z</time></trkpt>
<trkpt lat="45.874099" lon="11.46441"><ele>976.06</ele><time>2022-02-05T12:11:25Z</time></trkpt>
<trkpt lat="45.873944" lon="11.464603"><ele>975.2</ele><time>2022-02-05T12:11:28Z</time></trkpt>
<trkpt lat="45.873599" lon="11.465179"><ele>974.13</ele><time>2022-02-05T12:11:30Z</time></trkpt>
<trkpt lat="45.873453" lon="11.465323"><ele>973.72</ele><time>2022-02-05T12:11:33Z</time></trkpt>
<trkpt lat="45.873329" lon="11.465385"><ele>972.87</ele><time>2022-02-05T12:11:36Z</time></trkpt>
<trkpt lat="45.873073" lon="11.465423"><ele>973.69</ele><time>2022-02-05T12:11:39Z</time></trkpt>
<trkpt lat="45.872768" lon="11.465431"><ele>970.63</ele><time>2022-02-05T12:11:42Z</time></trkpt>
<trkpt lat="45.872702" lon="11.465466"><ele>970.28</ele><time>2022-02-05T12:11:45Z</time></trkpt>
<trkpt lat="45.872679" lon="11.465544"><ele>971.05</ele><time>2022-02-05T12:11:48Z</time></trkpt>
<trkpt lat="45.872676" lon="11.465694"><ele>971.67</ele><time>2022-02-05T12:11:50Z</time></trkpt>
<trkpt lat="45.872798" lon="11.46631"><ele>972.85</ele><time>2022-02-05T12:11:53Z</time></trkpt>
<trkpt lat="45.872885" lon="11.466639"><ele>967.75</ele><time>2022-02-05T12:11:56Z</time></trkpt>
<trkpt lat="45.872952" lon="11.466772"><ele>966.45</ele><time>2022-02-05T12:11:59Z</time></trkpt>
<trkpt lat="45.873227" lon="11.467089"><ele>968.47</ele><time>2022-02-05T12:12:02Z</time></trkpt>
<trkpt lat="45.873291" lon="11.467231"><ele>968.84</ele><time>2022-02-05T12:12:05Z</time></trkpt>
<trkpt lat="45.873395" lon="11.467643"><ele>964.52</ele><time>2022-02-05T12:12:08Z</time></trkpt>
<trkpt lat="45.873534" lon="11.468005"><ele>959.57</ele><time>2022-02-05T12:12:10Z</time></trkpt>
<trkpt lat="45.873706" lon="11.468393"><ele>957.61</ele><time>2022-02-05T12:12:13Z</time></trkpt>
<trkpt lat="45.873891" lon="11.468901"><ele>957.73</ele><time>2022-02-05T12:12:16Z</time></trkpt>
<trkpt lat="45.873978" lon="11.469088"><ele>953.8</ele><time>2022-02-05T12:12:19Z</time></trkpt>
<trkpt lat="45.874088" lon="11.469192"><ele>951.75</ele><time>2022-02-05T12:12:22Z</time></trkpt>
<trkpt lat="45.874204" lon="11.469234"><ele>952.08</ele><time>2022-02-05T12:12:25Z</time></trkpt>
<trkpt lat="45.874689" lon="11.469242"><ele>962.01</ele><time>2022-02-05T12:12:28Z</time></trkpt>
<trkpt lat="45.874758" lon="11.469276"><ele>963.13</ele><time>2022-02-05T12:12:30Z</time></trkpt>
<trkpt lat="45.874822" lon="11.469355"><ele>963.33</ele><time>2022-02-05T12:12:33Z</time></trkpt>
<trkpt lat="45.874848" lon="11.469488"><ele>961.85</ele><time>2022-02-05T12:12:36Z</time></trkpt>
<trkpt lat="45.87479" lon="11.469946"><ele>952.09</ele><time>2022-02-05T12:12:39Z</time></trkpt>
<trkpt lat="45.874816" lon="11.470092"><ele>949.6</ele><time>2022-02-05T12:12:42Z</time></trkpt>
<trkpt lat="45.874982" lon="11.470305"><ele>949.03</ele><time>2022-02-05T12:12:45Z</time></trkpt>
<trkpt lat="45.875251" lon="11.470567"><ele>954.48</ele><time>2022-02-05T12:12:48Z</time></trkpt>
<trkpt lat="45.875707" lon="11.47125"><ele>947.3</ele><time>2022-02-05T12:12:50Z</time></trkpt>
<trkpt lat="45.875834" lon="11.471379"><ele>947.26</ele><time>2022-02-05T12:12:53Z</time></trkpt>
<trkpt lat="45.876008" lon="11.471483"><ele>947.93</ele><time>2022-02-05T12:12:56Z</time></trkpt>
<trkpt lat="45.876658" lon="11.472112"><ele>945.46</ele><time>2022-02-05T12:12:59Z</time></trkpt>
<trkpt lat="45.876826" lon="11.472233"><ele>943.33</ele><time>2022-02-05T12:13:02Z</time></trkpt>
<trkpt lat="45.877321" lon="11.472511"><ele>943.48</ele><time>2022-02-05T12:13:05Z</time></trkpt>
<trkpt lat="45.877373" lon="11.472577"><ele>942.71</ele><time>2022-02-05T12:13:08Z</time></trkpt>
<trkpt lat="45.877397" lon="11.472666"><ele>940.45</ele><time>2022-02-05T12:13:10Z</time></trkpt>
<trkpt lat="45.877377" lon="11.472875"><ele>932.71</ele><time>2022-02-05T12:13:13Z</time></trkpt>
<trkpt lat="45.877113" lon="11.474641"><ele>931.51</ele><time>2022-02-05T12:13:16Z</time></trkpt>
<trkpt lat="45.877061" lon="11.474887"><ele>939.16</ele><time>2022-02-05T12:13:19Z</time></trkpt>
<trkpt lat="45.877006" lon="11.474991"><ele>942.13</ele><time>2022-02-05T12:13:22Z</time></trkpt>
<trkpt lat="45.876893" lon="11.475111"><ele>944.99</ele><time>2022-02-05T12:13:25Z</time></trkpt>
<trkpt lat="45.876777" lon="11.475182"><ele>947.19</ele><time>2022-02-05T12:13:28Z</time></trkpt>
<trkpt lat="45.876643" lon="11.475207"><ele>948.05</ele><time>2022-02-05T12:13:31Z</time></trkpt>
<trkpt lat="45.876481" lon="11.475207"><ele>946.88</ele><time>2022-02-05T12:13:33Z</time></trkpt>
<trkpt lat="45.875559" lon="11.475136"><ele>944.43</ele><time>2022-02-05T12:13:36Z</time></trkpt>
<trkpt lat="45.87544" lon="11.475169"><ele>944.73</ele><time>2022-02-05T12:13:39Z</time></trkpt>
<trkpt lat="45.875353" lon="11.47524"><ele>945.89</ele><time>2022-02-05T12:13:42Z</time></trkpt>
<trkpt lat="45.875295" lon="11.475357"><ele>947.36</ele><time>2022-02-05T12:13:45Z</time></trkpt>
<trkpt lat="45.875257" lon="11.475574"><ele>949.6</ele><time>2022-02-05T12:13:48Z</time></trkpt>
<trkpt lat="45.875214" lon="11.476707"><ele>952.68</ele><time>2022-02-05T12:13:51Z</time></trkpt>
<trkpt lat="45.875193" lon="11.477286"><ele>954.62</ele><time>2022-02-05T12:13:53Z</time></trkpt>
<trkpt lat="45.875217" lon="11.47756"><ele>955.61</ele><time>2022-02-05T12:13:56Z</time></trkpt>
<trkpt lat="45.875272" lon="11.477752"><ele>955.97</ele><time>2022-02-05T12:13:59Z</time></trkpt>
<trkpt lat="45.875555" lon="11.478233"><ele>962.27</ele><time>2022-02-05T12:14:02Z</time></trkpt>
<trkpt lat="45.875576" lon="11.478327"><ele>963.48</ele><time>2022-02-05T12:14:05Z</time></trkpt>
<trkpt lat="45.875575" lon="11.478402"><ele>964.88</ele><time>2022-02-05T12:14:08Z</time></trkpt>
<trkpt lat="45.875536" lon="11.478518"><ele>966.86</ele><time>2022-02-05T12:14:11Z</time></trkpt>
<trkpt lat="45.875463" lon="11.478607"><ele>968.23</ele><time>2022-02-05T12:14:13Z</time></trkpt>
<trkpt lat="45.8752" lon="11.478689"><ele>968.82</ele><time>2022-02-05T12:14:16Z</time></trkpt>
<trkpt lat="45.87514" lon="11.478733"><ele>969.7</ele><time>2022-02-05T12:14:19Z</time></trkpt>
<trkpt lat="45.875086" lon="11.478817"><ele>971.1</ele><time>2022-02-05T12:14:22Z</time></trkpt>
<trkpt lat="45.874967" lon="11.479127"><ele>975.31</ele><time>2022-02-05T12:14:25Z</time></trkpt>
<trkpt lat="45.874851" lon="11.479509"><ele>979.54</ele><time>2022-02-05T12:14:28Z</time></trkpt>
<trkpt lat="45.874787" lon="11.479658"><ele>982.3</ele><time>2022-02-05T12:14:31Z</time></trkpt>
<trkpt lat="45.874752" lon="11.479697"><ele>983.26</ele><time>2022-02-05T12:14:33Z</time></trkpt>
<trkpt lat="45.874542" lon="11.4797"><ele>988.61</ele><time>2022-02-05T12:14:36Z</time></trkpt>
<trkpt lat="45.87428" lon="11.479406"><ele>989.8</ele><time>2022-02-05T12:14:39Z</time></trkpt>
<trkpt lat="45.874158" lon="11.479227"><ele>990.65</ele><time>2022-02-05T12:14:42Z</time></trkpt>
<trkpt lat="45.874045" lon="11.479002"><ele>992.3</ele><time>2022-02-05T12:14:45Z</time></trkpt>
<trkpt lat="45.873973" lon="11.478749"><ele>993.87</ele><time>2022-02-05T12:14:48Z</time></trkpt>
<trkpt lat="45.873922" lon="11.478483"><ele>994.01</ele><time>2022-02-05T12:14:51Z</time></trkpt>
<trkpt lat="45.87388" lon="11.478035"><ele>988.63</ele><time>2022-02-05T12:14:53Z</time></trkpt>
<trkpt lat="45.873824" lon="11.477894"><ele>985.95</ele><time>2022-02-05T12:14:56Z</time></trkpt>
<trkpt lat="45.873708" lon="11.477815"><ele>984.1</ele><time>2022-02-05T12:14:59Z</time></trkpt>
<trkpt lat="45.873563" lon="11.477811"><ele>983.89</ele><time>2022-02-05T12:15:02Z</time></trkpt>
<trkpt lat="45.873363" lon="11.477841"><ele>985.26</ele><time>2022-02-05T12:15:05Z</time></trkpt>
<trkpt lat="45.872936" lon="11.478049"><ele>996.16</ele><time>2022-02-05T12:15:08Z</time></trkpt>
<trkpt lat="45.8728" lon="11.478071"><ele>998.05</ele><time>2022-02-05T12:15:11Z</time></trkpt>
<trkpt lat="45.872674" lon="11.478014"><ele>997.3</ele><time>2022-02-05T12:15:13Z</time></trkpt>
<trkpt lat="45.872585" lon="11.477884"><ele>995.33</ele><time>2022-02-05T12:15:16Z</time></trkpt>
<trkpt lat="45.872552" lon="11.477733"><ele>993.56</ele><time>2022-02-05T12:15:19Z</time></trkpt>
<trkpt lat="45.872559" lon="11.477571"><ele>992.56</ele><time>2022-02-05T12:15:22Z</time></trkpt>
<trkpt lat="45.872725" lon="11.477112"><ele>991.67</ele><time>2022-02-05T12:15:25Z</time></trkpt>
<trkpt lat="45.872786" lon="11.476885"><ele>992.06</ele><time>2022-02-05T12:15:28Z</time></trkpt>
<trkpt lat="45.872808" lon="11.476677"><ele>992.52</ele><time>2022-02-05T12:15:31Z</time></trkpt>
<trkpt lat="45.872801" lon="11.476479"><ele>992.6</ele><time>2022-02-05T12:15:33Z</time></trkpt>
<trkpt lat="45.872772" lon="11.476311"><ele>992.76</ele><time>2022-02-05T12:15:36Z</time></trkpt>
<trkpt lat="45.872712" lon="11.476193"><ele>992.6</ele><time>2022-02-05T12:15:39Z</time></trkpt>
<trkpt lat="45.872648" lon="11.476118"><ele>992.51</ele><time>2022-02-05T12:15:42Z</time></trkpt>
<trkpt lat="45.872577" lon="11.476093"><ele>992.61</ele><time>2022-02-05T12:15:45Z</time></trkpt>
<trkpt lat="45.872343" lon="11.476096"><ele>994.58</ele><time>2022-02-05T12:15:48Z</time></trkpt>
<trkpt lat="45.871372" lon="11.476354"><ele>995.95</ele><time>2022-02-05T12:15:51Z</time></trkpt>
<trkpt lat="45.871158" lon="11.476474"><ele>996.14</ele><time>2022-02-05T12:15:54Z</time></trkpt>
<trkpt lat="45.870941" lon="11.476644"><ele>998.37</ele><time>2022-02-05T12:15:56Z</time></trkpt>
<trkpt lat="45.870764" lon="11.476874"><ele>1003.36</ele><time>2022-02-05T12:15:59Z</time></trkpt>
<trkpt lat="45.870627" lon="11.477085"><ele>1006.41</ele><time>2022-02-05T12:16:02Z</time></trkpt>
<trkpt lat="45.870488" lon="11.477398"><ele>1006.35</ele><time>2022-02-05T12:16:05Z</time></trkpt>
<trkpt lat="45.870174" lon="11.47872"><ele>1004.4</ele><time>2022-02-05T12:16:08Z</time></trkpt>
<trkpt lat="45.869949" lon="11.479446"><ele>1005.81</ele><time>2022-02-05T12:16:11Z</time></trkpt>
<trkpt lat="45.869844" lon="11.479571"><ele>1005.44</ele><time>2022-02-05T12:16:14Z</time></trkpt>
<trkpt lat="45.869727" lon="11.479612"><ele>1005.02</ele><time>2022-02-05T12:16:16Z</time></trkpt>
<trkpt lat="45.869679" lon="11.479605"><ele>1004.93</ele><time>2022-02-05T12:16:19Z</time></trkpt>
<trkpt lat="45.869579" lon="11.47949"><ele>1004.57</ele><time>2022-02-05T12:16:31Z</time></trkpt>
<trkpt lat="45.869436" lon="11.479276"><ele>1003.39</ele><time>2022-02-05T12:16:42Z</time></trkpt>
<trkpt lat="45.865608" lon="11.475263"><ele>995.37</ele><time>2022-02-05T12:16:54Z</time></trkpt>
<trkpt lat="45.864384" lon="11.473941"><ele>994.32</ele><time>2022-02-05T12:17:05Z</time></trkpt>
<trkpt lat="45.864208" lon="11.473723"><ele>994.85</ele><time>2022-02-05T12:17:16Z</time></trkpt>
<trkpt lat="45.864092" lon="11.473541"><ele>995.45</ele><time>2022-02-05T12:17:28Z</time></trkpt>
<trkpt lat="45.863836" lon="11.473003"><ele>995.28</ele><time>2022-02-05T12:17:39Z</time></trkpt>
<trkpt lat="45.863684" lon="11.47285"><ele>993.6</ele><time>2022-02-05T12:17:51Z</time></trkpt>
<trkpt lat="45.862859" lon="11.472314"><ele>988.58</ele><time>2022-02-05T12:18:02Z</time></trkpt>
<trkpt lat="45.862747" lon="11.472213"><ele>987.86</ele><time>2022-02-05T12:18:14Z</time></trkpt>
<trkpt lat="45.862731" lon="11.47214"><ele>987.59</ele><time>2022-02-05T12:18:17Z</time></trkpt>
<trkpt lat="45.862682" lon="11.472111"><ele>987.39</ele><time>2022-02-05T12:18:20Z</time></trkpt>
<trkpt lat="45.862638" lon="11.471942"><ele>986.98</ele><time>2022-02-05T12:18:23Z</time></trkpt>
<trkpt lat="45.862646" lon="11.471771"><ele>985.75</ele><time>2022-02-05T12:18:26Z</time></trkpt>
<trkpt lat="45.863113" lon="11.468338"><ele>976.83</ele><time>2022-02-05T12:18:29Z</time></trkpt>
<trkpt lat="45.863126" lon="11.468134"><ele>975.49</ele><time>2022-02-05T12:18:32Z</time></trkpt>
<trkpt lat="45.863111" lon="11.467585"><ele>973.14</ele><time>2022-02-05T12:18:35Z</time></trkpt>
<trkpt lat="45.863074" lon="11.467239"><ele>974.88</ele><time>2022-02-05T12:18:38Z</time></trkpt>
<trkpt lat="45.86302" lon="11.466961"><ele>975.43</ele><time>2022-02-05T12:18:41Z</time></trkpt>
<trkpt lat="45.862718" lon="11.46598"><ele>972.39</ele><time>2022-02-05T12:18:45Z</time></trkpt>
<trkpt lat="45.862623" lon="11.465808"><ele>971.27</ele><time>2022-02-05T12:18:48Z</time></trkpt>
<trkpt lat="45.862025" lon="11.465112"><ele>968.18</ele><time>2022-02-05T12:18:51Z</time></trkpt>
<trkpt lat="45.861941" lon="11.464965"><ele>967.93</ele><time>2022-02-05T12:18:54Z</time></trkpt>
<trkpt lat="45.861848" lon="11.464694"><ele>966.33</ele><time>2022-02-05T12:18:57Z</time></trkpt>
<trkpt lat="45.861763" lon="11.464284"><ele>966.42</ele><time>2022-02-05T12:19:00Z</time></trkpt>
<trkpt lat="45.861647" lon="11.464047"><ele>965.74</ele><time>2022-02-05T12:19:03Z</time></trkpt>
<trkpt lat="45.861318" lon="11.463667"><ele>963.73</ele><time>2022-02-05T12:19:06Z</time></trkpt>
<trkpt lat="45.861098" lon="11.463473"><ele>963.82</ele><time>2022-02-05T12:19:09Z</time></trkpt>
<trkpt lat="45.860555" lon="11.463253"><ele>959.57</ele><time>2022-02-05T12:19:12Z</time></trkpt>
<trkpt lat="45.860437" lon="11.463188"><ele>958.14</ele><time>2022-02-05T12:19:16Z</time></trkpt>
<trkpt lat="45.860369" lon="11.463126"><ele>957.63</ele><time>2022-02-05T12:19:19Z</time></trkpt>
<trkpt lat="45.860288" lon="11.462939"><ele>957.56</ele><time>2022-02-05T12:19:22Z</time></trkpt>
<trkpt lat="45.860273" lon="11.462838"><ele>957.73</ele><time>2022-02-05T12:19:25Z</time></trkpt>
<trkpt lat="45.860275" lon="11.462715"><ele>957.74</ele><time>2022-02-05T12:19:28Z</time></trkpt>
<trkpt lat="45.860374" lon="11.462386"><ele>956.53</ele><time>2022-02-05T12:19:31Z</time></trkpt>
<trkpt lat="45.860855" lon="11.460964"><ele>954.31</ele><time>2022-02-05T12:19:34Z</time></trkpt>
<trkpt lat="45.860899" lon="11.460714"><ele>955.47</ele><time>2022-02-05T12:19:37Z</time></trkpt>
<trkpt lat="45.860888" lon="11.460405"><ele>956.1</ele><time>2022-02-05T12:19:40Z</time></trkpt>
<trkpt lat="45.860703" lon="11.45951"><ele>954.66</ele><time>2022-02-05T12:19:43Z</time></trkpt>
<trkpt lat="45.860489" lon="11.458585"><ele>945.08</ele><time>2022-02-05T12:19:46Z</time></trkpt>
<trkpt lat="45.860375" lon="11.4583"><ele>944.82</ele><time>2022-02-05T12:19:50Z</time></trkpt>
<trkpt lat="45.859812" lon="11.457299"><ele>941.69</ele><time>2022-02-05T12:19:53Z</time></trkpt>
<trkpt lat="45.859722" lon="11.457191"><ele>941.22</ele><time>2022-02-05T12:19:56Z</time></trkpt>
<trkpt lat="45.85963" lon="11.457135"><ele>940.96</ele><time>2022-02-05T12:19:59Z</time></trkpt>
<trkpt lat="45.859544" lon="11.457108"><ele>940.54</ele><time>2022-02-05T12:20:02Z</time></trkpt>
<trkpt lat="45.859452" lon="11.457106"><ele>939.9</ele><time>2022-02-05T12:20:05Z</time></trkpt>
<trkpt lat="45.858916" lon="11.457197"><ele>939.99</ele><time>2022-02-05T12:20:08Z</time></trkpt>
<trkpt lat="45.858704" lon="11.457206"><ele>940.1</ele><time>2022-02-05T12:20:11Z</time></trkpt>
<trkpt lat="45.858151" lon="11.457151"><ele>939.86</ele><time>2022-02-05T12:20:14Z</time></trkpt>
<trkpt lat="45.857897" lon="11.457151"><ele>936.65</ele><time>2022-02-05T12:20:17Z</time></trkpt>
<trkpt lat="45.85664" lon="11.457354"><ele>924.66</ele><time>2022-02-05T12:20:21Z</time></trkpt>
<trkpt lat="45.856506" lon="11.457305"><ele>923.09</ele><time>2022-02-05T12:20:24Z</time></trkpt>
<trkpt lat="45.856462" lon="11.457256"><ele>922.81</ele><time>2022-02-05T12:20:27Z</time></trkpt>
<trkpt lat="45.856241" lon="11.456595"><ele>921.97</ele><time>2022-02-05T12:20:30Z</time></trkpt>
<trkpt lat="45.856193" lon="11.456497"><ele>922.65</ele><time>2022-02-05T12:20:33Z</time></trkpt>
<trkpt lat="45.856134" lon="11.456431"><ele>922.67</ele><time>2022-02-05T12:20:36Z</time></trkpt>
<trkpt lat="45.856074" lon="11.456414"><ele>922.42</ele><time>2022-02-05T12:20:39Z</time></trkpt>
<trkpt lat="45.855855" lon="11.456426"><ele>921.41</ele><time>2022-02-05T12:20:42Z</time></trkpt>
<trkpt lat="45.855538" lon="11.456484"><ele>920.06</ele><time>2022-02-05T12:20:45Z</time></trkpt>
<trkpt lat="45.855538" lon="11.456484"><ele>920.06</ele><time>2022-02-05T12:20:45Z</time></trkpt>
<trkpt lat="45.855197" lon="11.456547"><ele>918.72</ele><time>2022-02-05T12:20:47Z</time></trkpt>
<trkpt lat="45.854612" lon="11.456784"><ele>910.3</ele><time>2022-02-05T12:20:48Z</time></trkpt>
<trkpt lat="45.854386" lon="11.456799"><ele>906.13</ele><time>2022-02-05T12:20:50Z</time></trkpt>
<trkpt lat="45.854018" lon="11.456652"><ele>906.28</ele><time>2022-02-05T12:20:51Z</time></trkpt>
<trkpt lat="45.853898" lon="11.456581"><ele>906.93</ele><time>2022-02-05T12:20:53Z</time></trkpt>
<trkpt lat="45.853429" lon="11.456174"><ele>910.36</ele><time>2022-02-05T12:20:54Z</time></trkpt>
<trkpt lat="45.85328" lon="11.456084"><ele>909.62</ele><time>2022-02-05T12:20:56Z</time></trkpt>
<trkpt lat="45.853104" lon="11.456066"><ele>906.71</ele><time>2022-02-05T12:20:57Z</time></trkpt>
<trkpt lat="45.852721" lon="11.456193"><ele>901.53</ele><time>2022-02-05T12:20:59Z</time></trkpt>
<trkpt lat="45.851455" lon="11.456777"><ele>899.0</ele><time>2022-02-05T12:21:00Z</time></trkpt>
<trkpt lat="45.851283" lon="11.456819"><ele>902.68</ele><time>2022-02-05T12:21:01Z</time></trkpt>
<trkpt lat="45.851143" lon="11.456806"><ele>906.59</ele><time>2022-02-05T12:21:03Z</time></trkpt>
<trkpt lat="45.851044" lon="11.456719"><ele>909.23</ele><time>2022-02-05T12:21:04Z</time></trkpt>
<trkpt lat="45.85099" lon="11.456627"><ele>910.42</ele><time>2022-02-05T12:21:06Z</time></trkpt>
<trkpt lat="45.850945" lon="11.456482"><ele>911.1</ele><time>2022-02-05T12:21:07Z</time></trkpt>
<trkpt lat="45.850866" lon="11.456079"><ele>912.03</ele><time>2022-02-05T12:21:09Z</time></trkpt>
<trkpt lat="45.850744" lon="11.455629"><ele>912.23</ele><time>2022-02-05T12:21:10Z</time></trkpt>
<trkpt lat="45.850536" lon="11.455288"><ele>916.57</ele><time>2022-02-05T12:21:12Z</time></trkpt>
<trkpt lat="45.850461" lon="11.455125"><ele>917.11</ele><time>2022-02-05T12:21:13Z</time></trkpt>
<trkpt lat="45.850316" lon="11.454659"><ele>917.29</ele><time>2022-02-05T12:21:15Z</time></trkpt>
<trkpt lat="45.849997" lon="11.454213"><ele>925.73</ele><time>2022-02-05T12:21:16Z</time></trkpt>
<trkpt lat="45.849922" lon="11.45408"><ele>926.34</ele><time>2022-02-05T12:21:18Z</time></trkpt>
<trkpt lat="45.849688" lon="11.453547"><ele>925.87</ele><time>2022-02-05T12:21:19Z</time></trkpt>
<trkpt lat="45.849586" lon="11.453381"><ele>923.01</ele><time>2022-02-05T12:21:21Z</time></trkpt>
<trkpt lat="45.849436" lon="11.453294"><ele>922.11</ele><time>2022-02-05T12:21:22Z</time></trkpt>
<trkpt lat="45.849333" lon="11.453278"><ele>922.98</ele><time>2022-02-05T12:21:23Z</time></trkpt>
<trkpt lat="45.849184" lon="11.453293"><ele>925.06</ele><time>2022-02-05T12:21:25Z</time></trkpt>
<trkpt lat="45.848744" lon="11.453423"><ele>925.31</ele><time>2022-02-05T12:21:26Z</time></trkpt>
<trkpt lat="45.848553" lon="11.453414"><ele>925.54</ele><time>2022-02-05T12:21:28Z</time></trkpt>
<trkpt lat="45.848487" lon="11.453351"><ele>925.95</ele><time>2022-02-05T12:21:29Z</time></trkpt>
<trkpt lat="45.84847" lon="11.453276"><ele>926.22</ele><time>2022-02-05T12:21:31Z</time></trkpt>
<trkpt lat="45.848469" lon="11.45317"><ele>926.61</ele><time>2022-02-05T12:21:32Z</time></trkpt>
<trkpt lat="45.84862" lon="11.452885"><ele>927.1</ele><time>2022-02-05T12:21:34Z</time></trkpt>
<trkpt lat="45.848669" lon="11.452769"><ele>926.99</ele><time>2022-02-05T12:21:35Z</time></trkpt>
<trkpt lat="45.848694" lon="11.452646"><ele>926.84</ele><time>2022-02-05T12:21:37Z</time></trkpt>
<trkpt lat="45.848712" lon="11.452207"><ele>928.13</ele><time>2022-02-05T12:21:38Z</time></trkpt>
<trkpt lat="45.848676" lon="11.451925"><ele>929.32</ele><time>2022-02-05T12:21:40Z</time></trkpt>
<trkpt lat="45.848637" lon="11.451801"><ele>929.93</ele><time>2022-02-05T12:21:41Z</time></trkpt>
<trkpt lat="45.848588" lon="11.451718"><ele>930.51</ele><time>2022-02-05T12:21:43Z</time></trkpt>
<trkpt lat="45.847581" lon="11.450531"><ele>933.82</ele><time>2022-02-05T12:21:44Z</time></trkpt>
<trkpt lat="45.847441" lon="11.450393"><ele>935.77</ele><time>2022-02-05T12:21:46Z</time></trkpt>
<trkpt lat="45.847303" lon="11.450291"><ele>936.96</ele><time>2022-02-05T12:21:47Z</time></trkpt>
<trkpt lat="45.84674" lon="11.449975"><ele>941.46</ele><time>2022-02-05T12:21:48Z</time></trkpt>
<trkpt lat="45.846266" lon="11.449667"><ele>945.9</ele><time>2022-02-05T12:21:50Z</time></trkpt>
<trkpt lat="45.846084" lon="11.449449"><ele>948.51</ele><time>2022-02-05T12:21:51Z</time></trkpt>
<trkpt lat="45.845982" lon="11.449266"><ele>949.98</ele><time>2022-02-05T12:21:53Z</time></trkpt>
<trkpt lat="45.845936" lon="11.449145"><ele>950.72</ele><time>2022-02-05T12:21:54Z</time></trkpt>
<trkpt lat="45.845929" lon="11.448915"><ele>950.05</ele><time>2022-02-05T12:21:56Z</time></trkpt>
<trkpt lat="45.845958" lon="11.44881"><ele>949.63</ele><time>2022-02-05T12:21:57Z</time></trkpt>
<trkpt lat="45.846049" lon="11.448691"><ele>949.06</ele><time>2022-02-05T12:21:59Z</time></trkpt>
<trkpt lat="45.846319" lon="11.448451"><ele>949.38</ele><time>2022-02-05T12:22:00Z</time></trkpt>
<trkpt lat="45.846493" lon="11.448237"><ele>952.76</ele><time>2022-02-05T12:22:02Z</time></trkpt>
<trkpt lat="45.846657" lon="11.447888"><ele>958.97</ele><time>2022-02-05T12:22:03Z</time></trkpt>
<trkpt lat="45.847098" lon="11.447056"><ele>959.72</ele><time>2022-02-05T12:22:05Z</time></trkpt>
<trkpt lat="45.847182" lon="11.44691"><ele>959.78</ele><time>2022-02-05T12:22:06Z</time></trkpt>
<trkpt lat="45.847245" lon="11.446832"><ele>960.41</ele><time>2022-02-05T12:22:08Z</time></trkpt>
<trkpt lat="45.847311" lon="11.446787"><ele>961.53</ele><time>2022-02-05T12:22:09Z</time></trkpt>
<trkpt lat="45.847434" lon="11.446784"><ele>962.69</ele><time>2022-02-05T12:22:11Z</time></trkpt>
<trkpt lat="45.847485" lon="11.446813"><ele>962.76</ele><time>2022-02-05T12:22:12Z</time></trkpt>
<trkpt lat="45.84794" lon="11.44722"><ele>961.79</ele><time>2022-02-05T12:22:13Z</time></trkpt>
<trkpt lat="45.848599" lon="11.447304"><ele>971.25</ele><time>2022-02-05T12:22:15Z</time></trkpt>
<trkpt lat="45.848643" lon="11.447263"><ele>972.28</ele><time>2022-02-05T12:22:16Z</time></trkpt>
<trkpt lat="45.848663" lon="11.447204"><ele>973.28</ele><time>2022-02-05T12:22:18Z</time></trkpt>
<trkpt lat="45.848657" lon="11.44715"><ele>974.09</ele><time>2022-02-05T12:22:19Z</time></trkpt>
<trkpt lat="45.848624" lon="11.447104"><ele>974.73</ele><time>2022-02-05T12:22:21Z</time></trkpt>
<trkpt lat="45.848324" lon="11.446973"><ele>971.24</ele><time>2022-02-05T12:22:22Z</time></trkpt>
<trkpt lat="45.84803" lon="11.44681"><ele>970.59</ele><time>2022-02-05T12:22:24Z</time></trkpt>
<trkpt lat="45.847853" lon="11.446624"><ele>971.75</ele><time>2022-02-05T12:22:25Z</time></trkpt>
<trkpt lat="45.84776" lon="11.446453"><ele>972.8</ele><time>2022-02-05T12:22:27Z</time></trkpt>
<trkpt lat="45.847617" lon="11.446008"><ele>977.81</ele><time>2022-02-05T12:22:28Z</time></trkpt>
<trkpt lat="45.847507" lon="11.445805"><ele>980.54</ele><time>2022-02-05T12:22:30Z</time></trkpt>
<trkpt lat="45.847446" lon="11.445739"><ele>981.7</ele><time>2022-02-05T12:22:31Z</time></trkpt>
<trkpt lat="45.847282" lon="11.445632"><ele>983.63</ele><time>2022-02-05T12:22:33Z</time></trkpt>
<trkpt lat="45.846531" lon="11.445344"><ele>984.73</ele><time>2022-02-05T12:22:34Z</time></trkpt>
<trkpt lat="45.846406" lon="11.445261"><ele>985.94</ele><time>2022-02-05T12:22:36Z</time></trkpt>
<trkpt lat="45.846354" lon="11.445158"><ele>986.32</ele><time>2022-02-05T12:22:37Z</time></trkpt>
<trkpt lat="45.846246" lon="11.4447"><ele>988.26</ele><time>2022-02-05T12:22:38Z</time></trkpt>
<trkpt lat="45.846179" lon="11.444533"><ele>989.69</ele><time>2022-02-05T12:22:40Z</time></trkpt>
<trkpt lat="45.846108" lon="11.444417"><ele>990.37</ele><time>2022-02-05T12:22:41Z</time></trkpt>
<trkpt lat="45.845994" lon="11.444299"><ele>991.69</ele><time>2022-02-05T12:22:43Z</time></trkpt>
<trkpt lat="45.845664" lon="11.444112"><ele>993.57</ele><time>2022-02-05T12:22:44Z</time></trkpt>
<trkpt lat="45.845561" lon="11.443963"><ele>994.97</ele><time>2022-02-05T12:22:46Z</time></trkpt>
<trkpt lat="45.845529" lon="11.443856"><ele>996.22</ele><time>2022-02-05T12:22:47Z</time></trkpt>
<trkpt lat="45.845433" lon="11.443164"><ele>997.49</ele><time>2022-02-05T12:22:49Z</time></trkpt>
<trkpt lat="45.845399" lon="11.443059"><ele>997.56</ele><time>2022-02-05T12:22:50Z</time></trkpt>
<trkpt lat="45.845342" lon="11.442985"><ele>998.1</ele><time>2022-02-05T12:22:52Z</time></trkpt>
<trkpt lat="45.845218" lon="11.442926"><ele>999.58</ele><time>2022-02-05T12:22:53Z</time></trkpt>
<trkpt lat="45.845084" lon="11.442952"><ele>1000.83</ele><time>2022-02-05T12:22:55Z</time></trkpt>
<trkpt lat="45.844978" lon="11.443007"><ele>1001.51</ele><time>2022-02-05T12:22:56Z</time></trkpt>
<trkpt lat="45.844831" lon="11.443127"><ele>1001.91</ele><time>2022-02-05T12:22:58Z</time></trkpt>
<trkpt lat="45.844506" lon="11.443451"><ele>1002.48</ele><time>2022-02-05T12:22:59Z</time></trkpt>
<trkpt lat="45.84437" lon="11.443539"><ele>1001.52</ele><time>2022-02-05T12:23:01Z</time></trkpt>
<trkpt lat="45.844296" lon="11.443556"><ele>1000.69</ele><time>2022-02-05T12:23:02Z</time></trkpt>
<trkpt lat="45.844219" lon="11.443542"><ele>1000.02</ele><time>2022-02-05T12:23:03Z</time></trkpt>
<trkpt lat="45.844075" lon="11.443463"><ele>999.42</ele><time>2022-02-05T12:23:05Z</time></trkpt>
<trkpt lat="45.844007" lon="11.443393"><ele>999.74</ele><time>2022-02-05T12:23:06Z</time></trkpt>
<trkpt lat="45.843956" lon="11.44328"><ele>1001.1</ele><time>2022-02-05T12:23:08Z</time></trkpt>
<trkpt lat="45.843933" lon="11.443159"><ele>1003.1</ele><time>2022-02-05T12:23:09Z</time></trkpt>
<trkpt lat="45.843778" lon="11.441272"><ele>1019.99</ele><time>2022-02-05T12:23:11Z</time></trkpt>
<trkpt lat="45.843735" lon="11.440978"><ele>1021.8</ele><time>2022-02-05T12:23:12Z</time></trkpt>
<trkpt lat="45.843697" lon="11.440928"><ele>1022.24</ele><time>2022-02-05T12:23:14Z</time></trkpt>
<trkpt lat="45.843646" lon="11.44089"><ele>1022.64</ele><time>2022-02-05T12:23:15Z</time></trkpt>
<trkpt lat="45.843527" lon="11.440907"><ele>1022.96</ele><time>2022-02-05T12:23:17Z</time></trkpt>
<trkpt lat="45.843164" lon="11.441131"><ele>1022.96</ele><time>2022-02-05T12:23:18Z</time></trkpt>
<trkpt lat="45.843051" lon="11.441178"><ele>1023.09</ele><time>2022-02-05T12:23:20Z</time></trkpt>
<trkpt lat="45.842759" lon="11.441229"><ele>1026.02</ele><time>2022-02-05T12:23:21Z</time></trkpt>
<trkpt lat="45.842637" lon="11.441207"><ele>1028.01</ele><time>2022-02-05T12:23:23Z</time></trkpt>
<trkpt lat="45.84259" lon="11.44116"><ele>1028.85</ele><time>2022-02-05T12:23:24Z</time></trkpt>
<trkpt lat="45.842564" lon="11.441095"><ele>1029.39</ele><time>2022-02-05T12:23:26Z</time></trkpt>
<trkpt lat="45.842552" lon="11.440999"><ele>1029.99</ele><time>2022-02-05T12:23:27Z</time></trkpt>
<trkpt lat="45.842563" lon="11.440889"><ele>1030.48</ele><time>2022-02-05T12:23:28Z</time></trkpt>
<trkpt lat="45.843174" lon="11.43767"><ele>1046.89</ele><time>2022-02-05T12:23:30Z</time></trkpt>
<trkpt lat="45.843409" lon="11.436512"><ele>1052.03</ele><time>2022-02-05T12:23:31Z</time></trkpt>
<trkpt lat="45.8434" lon="11.436275"><ele>1052.04</ele><time>2022-02-05T12:23:33Z</time></trkpt>
<trkpt lat="45.843365" lon="11.436155"><ele>1051.92</ele><time>2022-02-05T12:23:34Z</time></trkpt>
<trkpt lat="45.843277" lon="11.435998"><ele>1051.8</ele><time>2022-02-05T12:23:36Z</time></trkpt>
<trkpt lat="45.843122" lon="11.435813"><ele>1051.62</ele><time>2022-02-05T12:23:37Z</time></trkpt>
<trkpt lat="45.841402" lon="11.434048"><ele>1048.14</ele><time>2022-02-05T12:23:39Z</time></trkpt>
<trkpt lat="45.840971" lon="11.433603"><ele>1047.5</ele><time>2022-02-05T12:23:40Z</time></trkpt>
<trkpt lat="45.840894" lon="11.433537"><ele>1047.78</ele><time>2022-02-05T12:23:42Z</time></trkpt>
<trkpt lat="45.840662" lon="11.433277"><ele>1048.57</ele><time>2022-02-05T12:23:54Z</time></trkpt>
<trkpt lat="45.839005" lon="11.431637"><ele>1052.0</ele><time>2022-02-05T12:24:05Z</time></trkpt>
<trkpt lat="45.839023" lon="11.431574"><ele>1052.0</ele><time>2022-02-05T12:24:07Z</time></trkpt>
<trkpt lat="45.838995" lon="11.43149"><ele>1052.0</ele><time>2022-02-05T12:24:09Z</time></trkpt>
<trkpt lat="45.838953" lon="11.431471"><ele>1052.0</ele><time>2022-02-05T12:24:10Z</time></trkpt>
<trkpt lat="45.838914" lon="11.431489"><ele>1052.0</ele><time>2022-02-05T12:24:12Z</time></trkpt>
<trkpt lat="45.838889" lon="11.431537"><ele>1052.0</ele><time>2022-02-05T12:24:14Z</time></trkpt>
<trkpt lat="45.838897" lon="11.431624"><ele>1052.0</ele><time>2022-02-05T12:24:15Z</time></trkpt>
<trkpt lat="45.838701" lon="11.431643"><ele>1051.32</ele><time>2022-02-05T12:24:17Z</time></trkpt>
<trkpt lat="45.838006" lon="11.431881"><ele>1048.36</ele><time>2022-02-05T12:24:18Z</time></trkpt>
<trkpt lat="45.837689" lon="11.432074"><ele>1048.29</ele><time>2022-02-05T12:24:20Z</time></trkpt>
<trkpt lat="45.837665" lon="11.432131"><ele>1048.53</ele><time>2022-02-05T12:24:22Z</time></trkpt>
<trkpt lat="45.837501" lon="11.432162"><ele>1047.57</ele><time>2022-02-05T12:24:24Z</time></trkpt>
<trkpt lat="45.836449" lon="11.432677"><ele>1043.58</ele><time>2022-02-05T12:24:26Z</time></trkpt>
<trkpt lat="45.83592" lon="11.432893"><ele>1043.18</ele><time>2022-02-05T12:24:28Z</time></trkpt>
<trkpt lat="45.835551" lon="11.432941"><ele>1042.98</ele><time>2022-02-05T12:24:31Z</time></trkpt>
<trkpt lat="45.834873" lon="11.432955"><ele>1041.13</ele><time>2022-02-05T12:24:33Z</time></trkpt>
<trkpt lat="45.834575" lon="11.433015"><ele>1040.88</ele><time>2022-02-05T12:24:35Z</time></trkpt>
<trkpt lat="45.834304" lon="11.433138"><ele>1039.34</ele><time>2022-02-05T12:24:37Z</time></trkpt>
<trkpt lat="45.834167" lon="11.433226"><ele>1037.78</ele><time>2022-02-05T12:24:39Z</time></trkpt>
<trkpt lat="45.83398" lon="11.433387"><ele>1036.2</ele><time>2022-02-05T12:24:41Z</time></trkpt>
<trkpt lat="45.833136" lon="11.43437"><ele>1034.22</ele><time>2022-02-05T12:24:44Z</time></trkpt>
<trkpt lat="45.832909" lon="11.434611"><ele>1036.72</ele><time>2022-02-05T12:24:46Z</time></trkpt>
<trkpt lat="45.832629" lon="11.43486"><ele>1037.65</ele><time>2022-02-05T12:24:48Z</time></trkpt>
<trkpt lat="45.832265" lon="11.435096"><ele>1035.86</ele><time>2022-02-05T12:24:50Z</time></trkpt>
<trkpt lat="45.83145" lon="11.435431"><ele>1031.82</ele><time>2022-02-05T12:24:52Z</time></trkpt>
<trkpt lat="45.830859" lon="11.435647"><ele>1028.91</ele><time>2022-02-05T12:24:55Z</time></trkpt>
<trkpt lat="45.829552" lon="11.43591"><ele>1023.17</ele><time>2022-02-05T12:24:57Z</time></trkpt>
<trkpt lat="45.827662" lon="11.436525"><ele>1018.3</ele><time>2022-02-05T12:24:59Z</time></trkpt>
<trkpt lat="45.825433" lon="11.436863"><ele>1012.5</ele><time>2022-02-05T12:25:01Z</time></trkpt>
<trkpt lat="45.825301" lon="11.436917"><ele>1012.54</ele><time>2022-02-05T12:25:03Z</time></trkpt>
<trkpt lat="45.824096" lon="11.437869"><ele>1010.77</ele><time>2022-02-05T12:25:06Z</time></trkpt>
<trkpt lat="45.822762" lon="11.438556"><ele>1000.78</ele><time>2022-02-05T12:25:08Z</time></trkpt>
<trkpt lat="45.822474" lon="11.438666"><ele>999.66</ele><time>2022-02-05T12:25:10Z</time></trkpt>
<trkpt lat="45.822249" lon="11.438692"><ele>996.91</ele><time>2022-02-05T12:25:12Z</time></trkpt>
<trkpt lat="45.822109" lon="11.438685"><ele>995.94</ele><time>2022-02-05T12:25:14Z</time></trkpt>
<trkpt lat="45.821699" lon="11.438564"><ele>997.09</ele><time>2022-02-05T12:25:17Z</time></trkpt>
<trkpt lat="45.821461" lon="11.438463"><ele>997.48</ele><time>2022-02-05T12:25:19Z</time></trkpt>
<trkpt lat="45.821248" lon="11.43832"><ele>997.06</ele><time>2022-02-05T12:25:21Z</time></trkpt>
<trkpt lat="45.820406" lon="11.437548"><ele>992.9</ele><time>2022-02-05T12:25:23Z</time></trkpt>
<trkpt lat="45.819345" lon="11.436485"><ele>983.84</ele><time>2022-02-05T12:25:25Z</time></trkpt>
<trkpt lat="45.819166" lon="11.436326"><ele>982.13</ele><time>2022-02-05T12:25:27Z</time></trkpt>
<trkpt lat="45.818942" lon="11.436161"><ele>981.86</ele><time>2022-02-05T12:25:30Z</time></trkpt>
<trkpt lat="45.818126" lon="11.435665"><ele>977.76</ele><time>2022-02-05T12:25:32Z</time></trkpt>
<trkpt lat="45.817551" lon="11.435289"><ele>977.35</ele><time>2022-02-05T12:25:34Z</time></trkpt>
<trkpt lat="45.817339" lon="11.435056"><ele>978.12</ele><time>2022-02-05T12:25:36Z</time></trkpt>
<trkpt lat="45.817106" lon="11.43469"><ele>978.49</ele><time>2022-02-05T12:25:38Z</time></trkpt>
<trkpt lat="45.816379" lon="11.43338"><ele>976.88</ele><time>2022-02-05T12:25:41Z</time></trkpt>
<trkpt lat="45.816082" lon="11.432787"><ele>969.72</ele><time>2022-02-05T12:25:43Z</time></trkpt>
<trkpt lat="45.81592" lon="11.432336"><ele>970.52</ele><time>2022-02-05T12:25:45Z</time></trkpt>
<trkpt lat="45.815219" lon="11.429853"><ele>957.45</ele><time>2022-02-05T12:25:47Z</time></trkpt>
<trkpt lat="45.815116" lon="11.429628"><ele>955.22</ele><time>2022-02-05T12:25:49Z</time></trkpt>
<trkpt lat="45.814954" lon="11.429393"><ele>950.7</ele><time>2022-02-05T12:25:52Z</time></trkpt>
<trkpt lat="45.814828" lon="11.429246"><ele>948.51</ele><time>2022-02-05T12:25:54Z</time></trkpt>
<trkpt lat="45.814275" lon="11.428805"><ele>942.51</ele><time>2022-02-05T12:25:56Z</time></trkpt>
<trkpt lat="45.812733" lon="11.427644"><ele>933.37</ele><time>2022-02-05T12:25:58Z</time></trkpt>
<trkpt lat="45.811377" lon="11.426571"><ele>925.32</ele><time>2022-02-05T12:26:00Z</time></trkpt>
<trkpt lat="45.811028" lon="11.42636"><ele>919.88</ele><time>2022-02-05T12:26:03Z</time></trkpt>
<trkpt lat="45.810099" lon="11.426105"><ele>913.71</ele><time>2022-02-05T12:26:05Z</time></trkpt>
<trkpt lat="45.809869" lon="11.425981"><ele>912.5</ele><time>2022-02-05T12:26:07Z</time></trkpt>
<trkpt lat="45.809781" lon="11.425905"><ele>910.32</ele><time>2022-02-05T12:26:09Z</time></trkpt>
<trkpt lat="45.809258" lon="11.425185"><ele>907.57</ele><time>2022-02-05T12:26:11Z</time></trkpt>
<trkpt lat="45.809081" lon="11.425042"><ele>907.39</ele><time>2022-02-05T12:26:13Z</time></trkpt>
<trkpt lat="45.808787" lon="11.424971"><ele>905.28</ele><time>2022-02-05T12:26:16Z</time></trkpt>
<trkpt lat="45.808438" lon="11.424946"><ele>905.85</ele><time>2022-02-05T12:26:18Z</time></trkpt>
<trkpt lat="45.808339" lon="11.424917"><ele>906.15</ele><time>2022-02-05T12:26:20Z</time></trkpt>
<trkpt lat="45.808183" lon="11.424809"><ele>905.49</ele><time>2022-02-05T12:26:22Z</time></trkpt>
<trkpt lat="45.807552" lon="11.424174"><ele>893.56</ele><time>2022-02-05T12:26:24Z</time></trkpt>
<trkpt lat="45.807438" lon="11.424105"><ele>892.24</ele><time>2022-02-05T12:26:27Z</time></trkpt>
<trkpt lat="45.807264" lon="11.424059"><ele>891.82</ele><time>2022-02-05T12:26:29Z</time></trkpt>
<trkpt lat="45.806846" lon="11.424008"><ele>892.72</ele><time>2022-02-05T12:26:31Z</time></trkpt>
<trkpt lat="45.806706" lon="11.423978"><ele>892.28</ele><time>2022-02-05T12:26:33Z</time></trkpt>
<trkpt lat="45.806582" lon="11.423922"><ele>890.93</ele><time>2022-02-05T12:26:35Z</time></trkpt>
<trkpt lat="45.806333" lon="11.423742"><ele>887.15</ele><time>2022-02-05T12:26:38Z</time></trkpt>
<trkpt lat="45.80584" lon="11.423219"><ele>881.63</ele><time>2022-02-05T12:26:40Z</time></trkpt>
<trkpt lat="45.805685" lon="11.423085"><ele>880.57</ele><time>2022-02-05T12:26:42Z</time></trkpt>
<trkpt lat="45.805498" lon="11.423012"><ele>880.78</ele><time>2022-02-05T12:26:44Z</time></trkpt>
<trkpt lat="45.805345" lon="11.422988"><ele>880.39</ele><time>2022-02-05T12:26:46Z</time></trkpt>
<trkpt lat="45.803942" lon="11.422858"><ele>871.21</ele><time>2022-02-05T12:26:49Z</time></trkpt>
<trkpt lat="45.803381" lon="11.422687"><ele>866.78</ele><time>2022-02-05T12:26:51Z</time></trkpt>
<trkpt lat="45.802482" lon="11.422356"><ele>860.28</ele><time>2022-02-05T12:26:53Z</time></trkpt>
<trkpt lat="45.80217" lon="11.422198"><ele>853.78</ele><time>2022-02-05T12:26:55Z</time></trkpt>
<trkpt lat="45.802015" lon="11.422194"><ele>853.05</ele><time>2022-02-05T12:26:57Z</time></trkpt>
<trkpt lat="45.801571" lon="11.422357"><ele>847.79</ele><time>2022-02-05T12:26:59Z</time></trkpt>
<trkpt lat="45.801458" lon="11.422442"><ele>846.55</ele><time>2022-02-05T12:27:02Z</time></trkpt>
<trkpt lat="45.801335" lon="11.42265"><ele>846.91</ele><time>2022-02-05T12:27:04Z</time></trkpt>
<trkpt lat="45.801294" lon="11.422793"><ele>848.14</ele><time>2022-02-05T12:27:06Z</time></trkpt>
<trkpt lat="45.801306" lon="11.423144"><ele>852.46</ele><time>2022-02-05T12:27:08Z</time></trkpt>
<trkpt lat="45.801423" lon="11.423992"><ele>856.93</ele><time>2022-02-05T12:27:10Z</time></trkpt>
<trkpt lat="45.801368" lon="11.424258"><ele>854.27</ele><time>2022-02-05T12:27:13Z</time></trkpt>
<trkpt lat="45.801231" lon="11.424468"><ele>848.24</ele><time>2022-02-05T12:27:15Z</time></trkpt>
<trkpt lat="45.801083" lon="11.424558"><ele>841.24</ele><time>2022-02-05T12:27:17Z</time></trkpt>
<trkpt lat="45.800935" lon="11.424723"><ele>835.26</ele><time>2022-02-05T12:27:19Z</time></trkpt>
<trkpt lat="45.800867" lon="11.42493"><ele>836.04</ele><time>2022-02-05T12:27:21Z</time></trkpt>
<trkpt lat="45.800758" lon="11.425717"><ele>849.19</ele><time>2022-02-05T12:27:24Z</time></trkpt>
<trkpt lat="45.800719" lon="11.425786"><ele>849.09</ele><time>2022-02-05T12:27:26Z</time></trkpt>
<trkpt lat="45.80065" lon="11.425872"><ele>847.62</ele><time>2022-02-05T12:27:28Z</time></trkpt>
<trkpt lat="45.800579" lon="11.425916"><ele>844.75</ele><time>2022-02-05T12:27:30Z</time></trkpt>
<trkpt lat="45.800341" lon="11.425929"><ele>832.92</ele><time>2022-02-05T12:27:32Z</time></trkpt>
<trkpt lat="45.800186" lon="11.426064"><ele>830.63</ele><time>2022-02-05T12:27:35Z</time></trkpt>
<trkpt lat="45.800099" lon="11.426254"><ele>833.49</ele><time>2022-02-05T12:27:37Z</time></trkpt>
<trkpt lat="45.800032" lon="11.426686"><ele>840.69</ele><time>2022-02-05T12:27:39Z</time></trkpt>
<trkpt lat="45.799987" lon="11.426832"><ele>840.56</ele><time>2022-02-05T12:27:41Z</time></trkpt>
<trkpt lat="45.79986" lon="11.427035"><ele>835.92</ele><time>2022-02-05T12:27:43Z</time></trkpt>
<trkpt lat="45.799626" lon="11.427248"><ele>825.67</ele><time>2022-02-05T12:27:45Z</time></trkpt>
<trkpt lat="45.799528" lon="11.427419"><ele>823.36</ele><time>2022-02-05T12:27:48Z</time></trkpt>
<trkpt lat="45.799485" lon="11.427576"><ele>823.57</ele><time>2022-02-05T12:27:50Z</time></trkpt>
<trkpt lat="45.799476" lon="11.428249"><ele>827.54</ele><time>2022-02-05T12:27:52Z</time></trkpt>
<trkpt lat="45.799408" lon="11.428631"><ele>828.72</ele><time>2022-02-05T12:27:54Z</time></trkpt>
<trkpt lat="45.799264" lon="11.429168"><ele>829.62</ele><time>2022-02-05T12:27:56Z</time></trkpt>
<trkpt lat="45.799163" lon="11.429467"><ele>822.93</ele><time>2022-02-05T12:27:59Z</time></trkpt>
<trkpt lat="45.798628" lon="11.430691"><ele>809.83</ele><time>2022-02-05T12:28:01Z</time></trkpt>
<trkpt lat="45.7986" lon="11.430835"><ele>809.43</ele><time>2022-02-05T12:28:03Z</time></trkpt>
<trkpt lat="45.798566" lon="11.431418"><ele>813.9</ele><time>2022-02-05T12:28:05Z</time></trkpt>
<trkpt lat="45.798541" lon="11.431527"><ele>814.95</ele><time>2022-02-05T12:28:07Z</time></trkpt>
<trkpt lat="45.798029" lon="11.432652"><ele>806.72</ele><time>2022-02-05T12:28:10Z</time></trkpt>
<trkpt lat="45.797926" lon="11.433011"><ele>805.04</ele><time>2022-02-05T12:28:12Z</time></trkpt>
<trkpt lat="45.797815" lon="11.433647"><ele>809.75</ele><time>2022-02-05T12:28:14Z</time></trkpt>
<trkpt lat="45.797711" lon="11.434081"><ele>805.99</ele><time>2022-02-05T12:28:16Z</time></trkpt>
<trkpt lat="45.796924" lon="11.436706"><ele>796.17</ele><time>2022-02-05T12:28:18Z</time></trkpt>
<trkpt lat="45.796881" lon="11.436923"><ele>793.6</ele><time>2022-02-05T12:28:20Z</time></trkpt>
<trkpt lat="45.796804" lon="11.436984"><ele>789.67</ele><time>2022-02-05T12:28:23Z</time></trkpt>
<trkpt lat="45.796729" lon="11.436967"><ele>786.93</ele><time>2022-02-05T12:28:25Z</time></trkpt>
<trkpt lat="45.796701" lon="11.436943"><ele>786.37</ele><time>2022-02-05T12:28:27Z</time></trkpt>
<trkpt lat="45.796645" lon="11.436839"><ele>784.74</ele><time>2022-02-05T12:28:29Z</time></trkpt>
<trkpt lat="45.796638" lon="11.436767"><ele>785.1</ele><time>2022-02-05T12:28:31Z</time></trkpt>
<trkpt lat="45.796655" lon="11.43666"><ele>787.21</ele><time>2022-02-05T12:28:34Z</time></trkpt>
<trkpt lat="45.796762" lon="11.436464"><ele>788.64</ele><time>2022-02-05T12:28:36Z</time></trkpt>
<trkpt lat="45.796822" lon="11.4363"><ele>788.05</ele><time>2022-02-05T12:28:38Z</time></trkpt>
<trkpt lat="45.797001" lon="11.435631"><ele>782.84</ele><time>2022-02-05T12:28:40Z</time></trkpt>
<trkpt lat="45.79729" lon="11.433735"><ele>778.53</ele><time>2022-02-05T12:28:42Z</time></trkpt>
<trkpt lat="45.797364" lon="11.433055"><ele>775.59</ele><time>2022-02-05T12:28:45Z</time></trkpt>
<trkpt lat="45.797422" lon="11.431978"><ele>767.06</ele><time>2022-02-05T12:28:47Z</time></trkpt>
<trkpt lat="45.797506" lon="11.431696"><ele>766.68</ele><time>2022-02-05T12:28:49Z</time></trkpt>
<trkpt lat="45.797719" lon="11.431223"><ele>766.49</ele><time>2022-02-05T12:28:51Z</time></trkpt>
<trkpt lat="45.797778" lon="11.431033"><ele>765.91</ele><time>2022-02-05T12:28:53Z</time></trkpt>
<trkpt lat="45.797838" lon="11.430199"><ele>760.55</ele><time>2022-02-05T12:28:56Z</time></trkpt>
<trkpt lat="45.797856" lon="11.4301"><ele>761.18</ele><time>2022-02-05T12:28:58Z</time></trkpt>
<trkpt lat="45.797911" lon="11.429867"><ele>762.79</ele><time>2022-02-05T12:29:00Z</time></trkpt>
<trkpt lat="45.798113" lon="11.429259"><ele>763.39</ele><time>2022-02-05T12:29:02Z</time></trkpt>
<trkpt lat="45.798099" lon="11.429063"><ele>759.23</ele><time>2022-02-05T12:29:04Z</time></trkpt>
<trkpt lat="45.798072" lon="11.428994"><ele>756.85</ele><time>2022-02-05T12:29:06Z</time></trkpt>
<trkpt lat="45.797987" lon="11.428938"><ele>752.45</ele><time>2022-02-05T12:29:09Z</time></trkpt>
<trkpt lat="45.797913" lon="11.428941"><ele>749.66</ele><time>2022-02-05T12:29:11Z</time></trkpt>
<trkpt lat="45.797874" lon="11.428994"><ele>749.58</ele><time>2022-02-05T12:29:13Z</time></trkpt>
<trkpt lat="45.797818" lon="11.429136"><ele>751.43</ele><time>2022-02-05T12:29:15Z</time></trkpt>
<trkpt lat="45.79751" lon="11.430669"><ele>751.59</ele><time>2022-02-05T12:29:17Z</time></trkpt>
<trkpt lat="45.797451" lon="11.430881"><ele>751.12</ele><time>2022-02-05T12:29:20Z</time></trkpt>
<trkpt lat="45.797347" lon="11.431102"><ele>749.38</ele><time>2022-02-05T12:29:22Z</time></trkpt>
<trkpt lat="45.797196" lon="11.431292"><ele>746.65</ele><time>2022-02-05T12:29:24Z</time></trkpt>
<trkpt lat="45.797041" lon="11.431622"><ele>743.11</ele><time>2022-02-05T12:29:26Z</time></trkpt>
<trkpt lat="45.796986" lon="11.431827"><ele>742.29</ele><time>2022-02-05T12:29:28Z</time></trkpt>
<trkpt lat="45.796911" lon="11.432277"><ele>739.55</ele><time>2022-02-05T12:29:31Z</time></trkpt>
<trkpt lat="45.796844" lon="11.432797"><ele>737.79</ele><time>2022-02-05T12:29:33Z</time></trkpt>
<trkpt lat="45.796796" lon="11.432985"><ele>737.29</ele><time>2022-02-05T12:29:35Z</time></trkpt>
<trkpt lat="45.79601" lon="11.435325"><ele>727.21</ele><time>2022-02-05T12:29:37Z</time></trkpt>
<trkpt lat="45.795946" lon="11.435481"><ele>726.27</ele><time>2022-02-05T12:29:39Z</time></trkpt>
<trkpt lat="45.795629" lon="11.436031"><ele>726.09</ele><time>2022-02-05T12:29:42Z</time></trkpt>
<trkpt lat="45.795504" lon="11.436134"><ele>724.29</ele><time>2022-02-05T12:29:44Z</time></trkpt>
<trkpt lat="45.795394" lon="11.436107"><ele>720.14</ele><time>2022-02-05T12:29:46Z</time></trkpt>
<trkpt lat="45.795347" lon="11.436055"><ele>717.82</ele><time>2022-02-05T12:29:48Z</time></trkpt>
<trkpt lat="45.795319" lon="11.435977"><ele>715.94</ele><time>2022-02-05T12:29:50Z</time></trkpt>
<trkpt lat="45.795313" lon="11.435906"><ele>714.97</ele><time>2022-02-05T12:29:52Z</time></trkpt>
<trkpt lat="45.795346" lon="11.435795"><ele>714.43</ele><time>2022-02-05T12:29:55Z</time></trkpt>
<trkpt lat="45.795623" lon="11.43554"><ele>718.79</ele><time>2022-02-05T12:29:57Z</time></trkpt>
<trkpt lat="45.795666" lon="11.435478"><ele>718.81</ele><time>2022-02-05T12:29:59Z</time></trkpt>
<trkpt lat="45.795699" lon="11.435383"><ele>718.55</ele><time>2022-02-05T12:30:01Z</time></trkpt>
<trkpt lat="45.795758" lon="11.435187"><ele>718.67</ele><time>2022-02-05T12:30:03Z</time></trkpt>
<trkpt lat="45.796277" lon="11.432852"><ele>710.26</ele><time>2022-02-05T12:30:06Z</time></trkpt>
<trkpt lat="45.796293" lon="11.432544"><ele>707.62</ele><time>2022-02-05T12:30:08Z</time></trkpt>
<trkpt lat="45.796255" lon="11.432107"><ele>702.01</ele><time>2022-02-05T12:30:10Z</time></trkpt>
<trkpt lat="45.796242" lon="11.431723"><ele>697.58</ele><time>2022-02-05T12:30:12Z</time></trkpt>
<trkpt lat="45.796242" lon="11.43157"><ele>696.23</ele><time>2022-02-05T12:30:14Z</time></trkpt>
<trkpt lat="45.796273" lon="11.431315"><ele>695.71</ele><time>2022-02-05T12:30:17Z</time></trkpt>
<trkpt lat="45.796327" lon="11.431051"><ele>696.17</ele><time>2022-02-05T12:30:19Z</time></trkpt>
<trkpt lat="45.796613" lon="11.430188"><ele>697.61</ele><time>2022-02-05T12:30:21Z</time></trkpt>
<trkpt lat="45.796635" lon="11.429991"><ele>698.46</ele><time>2022-02-05T12:30:23Z</time></trkpt>
<trkpt lat="45.796637" lon="11.429412"><ele>691.28</ele><time>2022-02-05T12:30:25Z</time></trkpt>
<trkpt lat="45.796783" lon="11.428668"><ele>689.85</ele><time>2022-02-05T12:30:28Z</time></trkpt>
<trkpt lat="45.796908" lon="11.428444"><ele>690.8</ele><time>2022-02-05T12:30:30Z</time></trkpt>
<trkpt lat="45.797137" lon="11.428154"><ele>692.18</ele><time>2022-02-05T12:30:32Z</time></trkpt>
<trkpt lat="45.797166" lon="11.428096"><ele>691.88</ele><time>2022-02-05T12:30:34Z</time></trkpt>
<trkpt lat="45.797175" lon="11.428014"><ele>690.52</ele><time>2022-02-05T12:30:36Z</time></trkpt>
<trkpt lat="45.797164" lon="11.427944"><ele>688.72</ele><time>2022-02-05T12:30:38Z</time></trkpt>
<trkpt lat="45.797142" lon="11.427875"><ele>686.49</ele><time>2022-02-05T12:30:41Z</time></trkpt>
<trkpt lat="45.797094" lon="11.427816"><ele>683.29</ele><time>2022-02-05T12:30:43Z</time></trkpt>
<trkpt lat="45.797026" lon="11.427793"><ele>679.86</ele><time>2022-02-05T12:30:45Z</time></trkpt>
<trkpt lat="45.796973" lon="11.427803"><ele>677.85</ele><time>2022-02-05T12:30:47Z</time></trkpt>
<trkpt lat="45.796933" lon="11.427837"><ele>677.08</ele><time>2022-02-05T12:30:49Z</time></trkpt>
<trkpt lat="45.796765" lon="11.428277"><ele>680.97</ele><time>2022-02-05T12:30:52Z</time></trkpt>
<trkpt lat="45.796531" lon="11.428817"><ele>681.0</ele><time>2022-02-05T12:30:54Z</time></trkpt>
<trkpt lat="45.796462" lon="11.429034"><ele>680.19</ele><time>2022-02-05T12:30:56Z</time></trkpt>
<trkpt lat="45.796215" lon="11.430052"><ele>679.27</ele><time>2022-02-05T12:30:58Z</time></trkpt>
<trkpt lat="45.796157" lon="11.430206"><ele>678.12</ele><time>2022-02-05T12:31:00Z</time></trkpt>
<trkpt lat="45.79602" lon="11.430435"><ele>676.04</ele><time>2022-02-05T12:31:03Z</time></trkpt>
<trkpt lat="45.795742" lon="11.430988"><ele>668.84</ele><time>2022-02-05T12:31:05Z</time></trkpt>
<trkpt lat="45.795678" lon="11.431166"><ele>666.96</ele><time>2022-02-05T12:31:07Z</time></trkpt>
<trkpt lat="45.795619" lon="11.431414"><ele>665.64</ele><time>2022-02-05T12:31:09Z</time></trkpt>
<trkpt lat="45.795509" lon="11.432116"><ele>665.01</ele><time>2022-02-05T12:31:11Z</time></trkpt>
<trkpt lat="45.795417" lon="11.432405"><ele>663.14</ele><time>2022-02-05T12:31:14Z</time></trkpt>
<trkpt lat="45.795344" lon="11.432577"><ele>661.7</ele><time>2022-02-05T12:31:16Z</time></trkpt>
<trkpt lat="45.795128" lon="11.432942"><ele>660.04</ele><time>2022-02-05T12:31:18Z</time></trkpt>
<trkpt lat="45.79401" lon="11.434649"><ele>647.59</ele><time>2022-02-05T12:31:20Z</time></trkpt>
<trkpt lat="45.793887" lon="11.435001"><ele>647.94</ele><time>2022-02-05T12:31:22Z</time></trkpt>
<trkpt lat="45.793845" lon="11.43507"><ele>646.64</ele><time>2022-02-05T12:31:24Z</time></trkpt>
<trkpt lat="45.793777" lon="11.435112"><ele>644.77</ele><time>2022-02-05T12:31:27Z</time></trkpt>
<trkpt lat="45.7937" lon="11.43511"><ele>642.84</ele><time>2022-02-05T12:31:29Z</time></trkpt>
<trkpt lat="45.793644" lon="11.435067"><ele>641.59</ele><time>2022-02-05T12:31:31Z</time></trkpt>
<trkpt lat="45.793608" lon="11.434998"><ele>640.89</ele><time>2022-02-05T12:31:33Z</time></trkpt>
<trkpt lat="45.793599" lon="11.434917"><ele>640.27</ele><time>2022-02-05T12:31:35Z</time></trkpt>
<trkpt lat="45.793616" lon="11.434818"><ele>640.48</ele><time>2022-02-05T12:31:38Z</time></trkpt>
<trkpt lat="45.793651" lon="11.434756"><ele>641.11</ele><time>2022-02-05T12:31:40Z</time></trkpt>
<trkpt lat="45.794089" lon="11.43422"><ele>645.24</ele><time>2022-02-05T12:31:42Z</time></trkpt>
<trkpt lat="45.794145" lon="11.434126"><ele>645.75</ele><time>2022-02-05T12:31:44Z</time></trkpt>
<trkpt lat="45.794213" lon="11.433954"><ele>645.2</ele><time>2022-02-05T12:31:46Z</time></trkpt>
<trkpt lat="45.794645" lon="11.432634"><ele>637.39</ele><time>2022-02-05T12:31:49Z</time></trkpt>
<trkpt lat="45.794807" lon="11.431953"><ele>633.86</ele><time>2022-02-05T12:31:51Z</time></trkpt>
<trkpt lat="45.795281" lon="11.428502"><ele>615.7</ele><time>2022-02-05T12:31:53Z</time></trkpt>
<trkpt lat="45.795325" lon="11.428283"><ele>615.32</ele><time>2022-02-05T12:31:55Z</time></trkpt>
<trkpt lat="45.795384" lon="11.428102"><ele>614.28</ele><time>2022-02-05T12:31:57Z</time></trkpt>
<trkpt lat="45.795589" lon="11.427646"><ele>610.67</ele><time>2022-02-05T12:31:59Z</time></trkpt>
<trkpt lat="45.795719" lon="11.427205"><ele>606.63</ele><time>2022-02-05T12:32:02Z</time></trkpt>
<trkpt lat="45.795839" lon="11.426715"><ele>598.85</ele><time>2022-02-05T12:32:04Z</time></trkpt>
<trkpt lat="45.795899" lon="11.426562"><ele>599.55</ele><time>2022-02-05T12:32:06Z</time></trkpt>
<trkpt lat="45.795983" lon="11.426422"><ele>601.09</ele><time>2022-02-05T12:32:08Z</time></trkpt>
<trkpt lat="45.796194" lon="11.426139"><ele>606.1</ele><time>2022-02-05T12:32:10Z</time></trkpt>
<trkpt lat="45.796218" lon="11.426059"><ele>606.03</ele><time>2022-02-05T12:32:13Z</time></trkpt>
<trkpt lat="45.79622" lon="11.42599"><ele>605.32</ele><time>2022-02-05T12:32:15Z</time></trkpt>
<trkpt lat="45.796178" lon="11.425912"><ele>602.95</ele><time>2022-02-05T12:32:17Z</time></trkpt>
<trkpt lat="45.796079" lon="11.425838"><ele>598.66</ele><time>2022-02-05T12:32:19Z</time></trkpt>
<trkpt lat="45.796017" lon="11.425847"><ele>596.01</ele><time>2022-02-05T12:32:21Z</time></trkpt>
<trkpt lat="45.79597" lon="11.42589"><ele>594.22</ele><time>2022-02-05T12:32:24Z</time></trkpt>
<trkpt lat="45.795824" lon="11.426328"><ele>591.01</ele><time>2022-02-05T12:32:26Z</time></trkpt>
<trkpt lat="45.795622" lon="11.426802"><ele>592.54</ele><time>2022-02-05T12:32:28Z</time></trkpt>
<trkpt lat="45.795442" lon="11.427151"><ele>595.49</ele><time>2022-02-05T12:32:30Z</time></trkpt>
<trkpt lat="45.79527" lon="11.427405"><ele>597.3</ele><time>2022-02-05T12:32:32Z</time></trkpt>
<trkpt lat="45.794919" lon="11.427763"><ele>588.19</ele><time>2022-02-05T12:32:35Z</time></trkpt>
<trkpt lat="45.794825" lon="11.42792"><ele>584.24</ele><time>2022-02-05T12:32:37Z</time></trkpt>
<trkpt lat="45.794677" lon="11.428362"><ele>581.47</ele><time>2022-02-05T12:32:39Z</time></trkpt>
<trkpt lat="45.794523" lon="11.428764"><ele>580.97</ele><time>2022-02-05T12:32:41Z</time></trkpt>
<trkpt lat="45.794156" lon="11.429622"><ele>574.96</ele><time>2022-02-05T12:32:43Z</time></trkpt>
<trkpt lat="45.794064" lon="11.429873"><ele>573.56</ele><time>2022-02-05T12:32:45Z</time></trkpt>
<trkpt lat="45.79403" lon="11.430019"><ele>573.18</ele><time>2022-02-05T12:32:48Z</time></trkpt>
<trkpt lat="45.794011" lon="11.430209"><ele>573.4</ele><time>2022-02-05T12:32:50Z</time></trkpt>
<trkpt lat="45.794013" lon="11.430438"><ele>576.07</ele><time>2022-02-05T12:32:52Z</time></trkpt>
<trkpt lat="45.79398" lon="11.430546"><ele>575.81</ele><time>2022-02-05T12:32:54Z</time></trkpt>
<trkpt lat="45.793941" lon="11.430591"><ele>574.33</ele><time>2022-02-05T12:32:56Z</time></trkpt>
<trkpt lat="45.793851" lon="11.430613"><ele>570.44</ele><time>2022-02-05T12:32:59Z</time></trkpt>
<trkpt lat="45.79375" lon="11.430534"><ele>565.82</ele><time>2022-02-05T12:33:01Z</time></trkpt>
<trkpt lat="45.793725" lon="11.430433"><ele>564.04</ele><time>2022-02-05T12:33:03Z</time></trkpt>
<trkpt lat="45.793748" lon="11.4302"><ele>563.43</ele><time>2022-02-05T12:33:05Z</time></trkpt>
<trkpt lat="45.794188" lon="11.428337"><ele>564.58</ele><time>2022-02-05T12:33:07Z</time></trkpt>
<trkpt lat="45.794307" lon="11.427328"><ele>552.97</ele><time>2022-02-05T12:33:10Z</time></trkpt>
<trkpt lat="45.794331" lon="11.427233"><ele>552.28</ele><time>2022-02-05T12:33:12Z</time></trkpt>
<trkpt lat="45.794435" lon="11.426987"><ele>552.33</ele><time>2022-02-05T12:33:14Z</time></trkpt>
<trkpt lat="45.794776" lon="11.426508"><ele>553.94</ele><time>2022-02-05T12:33:16Z</time></trkpt>
<trkpt lat="45.794823" lon="11.426409"><ele>555.28</ele><time>2022-02-05T12:33:18Z</time></trkpt>
<trkpt lat="45.795025" lon="11.425711"><ele>550.12</ele><time>2022-02-05T12:33:21Z</time></trkpt>
<trkpt lat="45.795112" lon="11.425466"><ele>547.62</ele><time>2022-02-05T12:33:23Z</time></trkpt>
<trkpt lat="45.795267" lon="11.425107"><ele>545.63</ele><time>2022-02-05T12:33:25Z</time></trkpt>
<trkpt lat="45.795263" lon="11.424965"><ele>543.24</ele><time>2022-02-05T12:33:27Z</time></trkpt>
<trkpt lat="45.795229" lon="11.424893"><ele>541.63</ele><time>2022-02-05T12:33:29Z</time></trkpt>
<trkpt lat="45.795179" lon="11.424822"><ele>539.58</ele><time>2022-02-05T12:33:31Z</time></trkpt>
<trkpt lat="45.795107" lon="11.424801"><ele>537.55</ele><time>2022-02-05T12:33:34Z</time></trkpt>
<trkpt lat="45.795056" lon="11.424839"><ele>536.67</ele><time>2022-02-05T12:33:36Z</time></trkpt>
<trkpt lat="45.795026" lon="11.424907"><ele>536.65</ele><time>2022-02-05T12:33:38Z</time></trkpt>
<trkpt lat="45.794954" lon="11.425235"><ele>539.34</ele><time>2022-02-05T12:33:40Z</time></trkpt>
<trkpt lat="45.794709" lon="11.425797"><ele>541.96</ele><time>2022-02-05T12:33:42Z</time></trkpt>
<trkpt lat="45.794577" lon="11.426005"><ele>540.05</ele><time>2022-02-05T12:33:45Z</time></trkpt>
<trkpt lat="45.79408" lon="11.426535"><ele>530.39</ele><time>2022-02-05T12:33:47Z</time></trkpt>
<trkpt lat="45.793925" lon="11.426733"><ele>525.82</ele><time>2022-02-05T12:33:49Z</time></trkpt>
<trkpt lat="45.79338" lon="11.427822"><ele>521.04</ele><time>2022-02-05T12:33:51Z</time></trkpt>
<trkpt lat="45.793016" lon="11.428439"><ele>514.56</ele><time>2022-02-05T12:33:53Z</time></trkpt>
<trkpt lat="45.792933" lon="11.42865"><ele>513.52</ele><time>2022-02-05T12:33:56Z</time></trkpt>
<trkpt lat="45.792904" lon="11.428769"><ele>514.03</ele><time>2022-02-05T12:33:58Z</time></trkpt>
<trkpt lat="45.792711" lon="11.429907"><ele>515.16</ele><time>2022-02-05T12:34:00Z</time></trkpt>
<trkpt lat="45.792673" lon="11.430032"><ele>515.74</ele><time>2022-02-05T12:34:02Z</time></trkpt>
<trkpt lat="45.792558" lon="11.430234"><ele>515.12</ele><time>2022-02-05T12:34:04Z</time></trkpt>
<trkpt lat="45.792465" lon="11.430319"><ele>514.1</ele><time>2022-02-05T12:34:07Z</time></trkpt>
<trkpt lat="45.79232" lon="11.430395"><ele>512.37</ele><time>2022-02-05T12:34:09Z</time></trkpt>
<trkpt lat="45.792154" lon="11.430403"><ele>509.73</ele><time>2022-02-05T12:34:11Z</time></trkpt>
<trkpt lat="45.791699" lon="11.430172"><ele>500.14</ele><time>2022-02-05T12:34:13Z</time></trkpt>
<trkpt lat="45.791553" lon="11.430214"><ele>499.4</ele><time>2022-02-05T12:34:15Z</time></trkpt>
<trkpt lat="45.791336" lon="11.430396"><ele>500.29</ele><time>2022-02-05T12:34:17Z</time></trkpt>
<trkpt lat="45.789493" lon="11.432142"><ele>482.66</ele><time>2022-02-05T12:34:20Z</time></trkpt>
<trkpt lat="45.789389" lon="11.432224"><ele>482.44</ele><time>2022-02-05T12:34:22Z</time></trkpt>
<trkpt lat="45.789182" lon="11.432323"><ele>482.72</ele><time>2022-02-05T12:34:24Z</time></trkpt>
<trkpt lat="45.789069" lon="11.43234"><ele>481.61</ele><time>2022-02-05T12:34:26Z</time></trkpt>
<trkpt lat="45.78859" lon="11.432291"><ele>474.05</ele><time>2022-02-05T12:34:28Z</time></trkpt>
<trkpt lat="45.788407" lon="11.432351"><ele>471.41</ele><time>2022-02-05T12:34:31Z</time></trkpt>
<trkpt lat="45.788283" lon="11.432428"><ele>469.38</ele><time>2022-02-05T12:34:33Z</time></trkpt>
<trkpt lat="45.788111" lon="11.432587"><ele>466.79</ele><time>2022-02-05T12:34:35Z</time></trkpt>
<trkpt lat="45.788027" lon="11.432703"><ele>465.56</ele><time>2022-02-05T12:34:37Z</time></trkpt>
<trkpt lat="45.787446" lon="11.433788"><ele>465.0</ele><time>2022-02-05T12:34:39Z</time></trkpt>
<trkpt lat="45.787346" lon="11.43404"><ele>463.68</ele><time>2022-02-05T12:34:42Z</time></trkpt>
<trkpt lat="45.787271" lon="11.434292"><ele>461.27</ele><time>2022-02-05T12:34:44Z</time></trkpt>
<trkpt lat="45.787189" lon="11.43476"><ele>454.39</ele><time>2022-02-05T12:34:46Z</time></trkpt>
<trkpt lat="45.787221" lon="11.43506"><ele>455.7</ele><time>2022-02-05T12:34:48Z</time></trkpt>
<trkpt lat="45.787299" lon="11.435278"><ele>458.32</ele><time>2022-02-05T12:34:50Z</time></trkpt>
<trkpt lat="45.78748" lon="11.435512"><ele>460.47</ele><time>2022-02-05T12:34:53Z</time></trkpt>
<trkpt lat="45.787568" lon="11.435567"><ele>460.49</ele><time>2022-02-05T12:34:55Z</time></trkpt>
<trkpt lat="45.787834" lon="11.435566"><ele>462.78</ele><time>2022-02-05T12:34:57Z</time></trkpt>
<trkpt lat="45.78805" lon="11.435593"><ele>462.46</ele><time>2022-02-05T12:34:59Z</time></trkpt>
<trkpt lat="45.788204" lon="11.435659"><ele>462.98</ele><time>2022-02-05T12:35:01Z</time></trkpt>
<trkpt lat="45.788303" lon="11.435775"><ele>463.03</ele><time>2022-02-05T12:35:03Z</time></trkpt>
<trkpt lat="45.788354" lon="11.435893"><ele>463.54</ele><time>2022-02-05T12:35:06Z</time></trkpt>
<trkpt lat="45.788379" lon="11.436001"><ele>464.46</ele><time>2022-02-05T12:35:08Z</time></trkpt>
<trkpt lat="45.788384" lon="11.436216"><ele>464.9</ele><time>2022-02-05T12:35:10Z</time></trkpt>
<trkpt lat="45.78832" lon="11.436439"><ele>461.61</ele><time>2022-02-05T12:35:12Z</time></trkpt>
<trkpt lat="45.788173" lon="11.436639"><ele>456.86</ele><time>2022-02-05T12:35:14Z</time></trkpt>
<trkpt lat="45.787743" lon="11.437348"><ele>449.37</ele><time>2022-02-05T12:35:17Z</time></trkpt>
<trkpt lat="45.787031" lon="11.438529"><ele>447.01</ele><time>2022-02-05T12:35:19Z</time></trkpt>
<trkpt lat="45.786792" lon="11.438818"><ele>444.13</ele><time>2022-02-05T12:35:21Z</time></trkpt>
<trkpt lat="45.786508" lon="11.439072"><ele>442.03</ele><time>2022-02-05T12:35:23Z</time></trkpt>
<trkpt lat="45.786365" lon="11.439176"><ele>441.52</ele><time>2022-02-05T12:35:25Z</time></trkpt>
<trkpt lat="45.785606" lon="11.43968"><ele>428.19</ele><time>2022-02-05T12:35:28Z</time></trkpt>
<trkpt lat="45.785306" lon="11.439958"><ele>425.87</ele><time>2022-02-05T12:35:30Z</time></trkpt>
<trkpt lat="45.784969" lon="11.440333"><ele>418.24</ele><time>2022-02-05T12:35:32Z</time></trkpt>
<trkpt lat="45.784892" lon="11.440442"><ele>418.09</ele><time>2022-02-05T12:35:34Z</time></trkpt>
<trkpt lat="45.784412" lon="11.441388"><ele>413.37</ele><time>2022-02-05T12:35:36Z</time></trkpt>
<trkpt lat="45.783836" lon="11.442257"><ele>404.45</ele><time>2022-02-05T12:35:38Z</time></trkpt>
<trkpt lat="45.783572" lon="11.44273"><ele>404.93</ele><time>2022-02-05T12:35:41Z</time></trkpt>
<trkpt lat="45.783302" lon="11.443275"><ele>412.58</ele><time>2022-02-05T12:35:43Z</time></trkpt>
<trkpt lat="45.782767" lon="11.444224"><ele>402.81</ele><time>2022-02-05T12:35:45Z</time></trkpt>
<trkpt lat="45.782647" lon="11.444505"><ele>400.32</ele><time>2022-02-05T12:35:47Z</time></trkpt>
<trkpt lat="45.782465" lon="11.445186"><ele>398.08</ele><time>2022-02-05T12:35:49Z</time></trkpt>
<trkpt lat="45.782421" lon="11.445232"><ele>396.34</ele><time>2022-02-05T12:35:52Z</time></trkpt>
<trkpt lat="45.782375" lon="11.445246"><ele>394.37</ele><time>2022-02-05T12:35:54Z</time></trkpt>
<trkpt lat="45.782283" lon="11.445202"><ele>389.93</ele><time>2022-02-05T12:35:56Z</time></trkpt>
<trkpt lat="45.782239" lon="11.445071"><ele>386.57</ele><time>2022-02-05T12:35:58Z</time></trkpt>
<trkpt lat="45.782241" lon="11.445006"><ele>386.0</ele><time>2022-02-05T12:36:00Z</time></trkpt>
<trkpt lat="45.782459" lon="11.444074"><ele>390.67</ele><time>2022-02-05T12:36:03Z</time></trkpt>
<trkpt lat="45.782546" lon="11.443834"><ele>392.38</ele><time>2022-02-05T12:36:05Z</time></trkpt>
<trkpt lat="45.782624" lon="11.443683"><ele>393.81</ele><time>2022-02-05T12:36:07Z</time></trkpt>
<trkpt lat="45.782983" lon="11.443126"><ele>393.36</ele><time>2022-02-05T12:36:09Z</time></trkpt>
<trkpt lat="45.783152" lon="11.44275"><ele>389.68</ele><time>2022-02-05T12:36:11Z</time></trkpt>
<trkpt lat="45.783702" lon="11.441181"><ele>377.58</ele><time>2022-02-05T12:36:14Z</time></trkpt>
<trkpt lat="45.784013" lon="11.440346"><ele>372.48</ele><time>2022-02-05T12:36:16Z</time></trkpt>
<trkpt lat="45.784328" lon="11.439674"><ele>369.56</ele><time>2022-02-05T12:36:18Z</time></trkpt>
<trkpt lat="45.784444" lon="11.439316"><ele>364.74</ele><time>2022-02-05T12:36:20Z</time></trkpt>
<trkpt lat="45.784486" lon="11.439015"><ele>362.08</ele><time>2022-02-05T12:36:22Z</time></trkpt>
<trkpt lat="45.784529" lon="11.438478"><ele>362.61</ele><time>2022-02-05T12:36:24Z</time></trkpt>
<trkpt lat="45.784588" lon="11.438075"><ele>364.14</ele><time>2022-02-05T12:36:27Z</time></trkpt>
<trkpt lat="45.784588" lon="11.437935"><ele>364.56</ele><time>2022-02-05T12:36:29Z</time></trkpt>
<trkpt lat="45.784558" lon="11.437842"><ele>364.04</ele><time>2022-02-05T12:36:31Z</time></trkpt>
<trkpt lat="45.784469" lon="11.437746"><ele>361.71</ele><time>2022-02-05T12:36:33Z</time></trkpt>
<trkpt lat="45.784358" lon="11.43776"><ele>358.52</ele><time>2022-02-05T12:36:35Z</time></trkpt>
<trkpt lat="45.784311" lon="11.437797"><ele>357.09</ele><time>2022-02-05T12:36:38Z</time></trkpt>
<trkpt lat="45.784252" lon="11.437924"><ele>354.94</ele><time>2022-02-05T12:36:40Z</time></trkpt>
<trkpt lat="45.784242" lon="11.438011"><ele>354.32</ele><time>2022-02-05T12:36:42Z</time></trkpt>
<trkpt lat="45.784191" lon="11.438913"><ele>351.04</ele><time>2022-02-05T12:36:44Z</time></trkpt>
<trkpt lat="45.784162" lon="11.439045"><ele>351.02</ele><time>2022-02-05T12:36:46Z</time></trkpt>
<trkpt lat="45.784088" lon="11.439236"><ele>351.3</ele><time>2022-02-05T12:36:49Z</time></trkpt>
<trkpt lat="45.783951" lon="11.439437"><ele>351.23</ele><time>2022-02-05T12:36:51Z</time></trkpt>
<trkpt lat="45.783613" lon="11.439854"><ele>345.96</ele><time>2022-02-05T12:36:53Z</time></trkpt>
<trkpt lat="45.783426" lon="11.440147"><ele>345.1</ele><time>2022-02-05T12:36:55Z</time></trkpt>
<trkpt lat="45.783011" lon="11.440936"><ele>340.99</ele><time>2022-02-05T12:36:57Z</time></trkpt>
<trkpt lat="45.782801" lon="11.441278"><ele>338.84</ele><time>2022-02-05T12:37:00Z</time></trkpt>
<trkpt lat="45.782535" lon="11.441562"><ele>342.06</ele><time>2022-02-05T12:37:02Z</time></trkpt>
<trkpt lat="45.782433" lon="11.441645"><ele>341.54</ele><time>2022-02-05T12:37:04Z</time></trkpt>
<trkpt lat="45.781985" lon="11.441907"><ele>334.97</ele><time>2022-02-05T12:37:06Z</time></trkpt>
<trkpt lat="45.781859" lon="11.442013"><ele>334.01</ele><time>2022-02-05T12:37:08Z</time></trkpt>
<trkpt lat="45.781664" lon="11.442228"><ele>332.99</ele><time>2022-02-05T12:37:10Z</time></trkpt>
<trkpt lat="45.781542" lon="11.442412"><ele>331.25</ele><time>2022-02-05T12:37:13Z</time></trkpt>
<trkpt lat="45.780977" lon="11.443616"><ele>326.11</ele><time>2022-02-05T12:37:15Z</time></trkpt>
<trkpt lat="45.780842" lon="11.443927"><ele>326.01</ele><time>2022-02-05T12:37:17Z</time></trkpt>
<trkpt lat="45.780779" lon="11.444125"><ele>323.79</ele><time>2022-02-05T12:37:19Z</time></trkpt>
<trkpt lat="45.780153" lon="11.447113"><ele>309.8</ele><time>2022-02-05T12:37:21Z</time></trkpt>
<trkpt lat="45.780091" lon="11.447284"><ele>309.26</ele><time>2022-02-05T12:37:24Z</time></trkpt>
<trkpt lat="45.780012" lon="11.447443"><ele>309.3</ele><time>2022-02-05T12:37:26Z</time></trkpt>
<trkpt lat="45.779929" lon="11.447562"><ele>309.76</ele><time>2022-02-05T12:37:28Z</time></trkpt>
<trkpt lat="45.779014" lon="11.448734"><ele>297.68</ele><time>2022-02-05T12:37:30Z</time></trkpt>
<trkpt lat="45.779014" lon="11.448734"><ele>297.68</ele><time>2022-02-05T12:37:30Z</time></trkpt>
<trkpt lat="45.778175" lon="11.4498"><ele>292.12</ele><time>2022-02-05T12:37:35Z</time></trkpt>
<trkpt lat="45.777977" lon="11.450002"><ele>290.79</ele><time>2022-02-05T12:37:39Z</time></trkpt>
<trkpt lat="45.777791" lon="11.450144"><ele>289.02</ele><time>2022-02-05T12:37:44Z</time></trkpt>
<trkpt lat="45.777583" lon="11.450239"><ele>287.02</ele><time>2022-02-05T12:37:48Z</time></trkpt>
<trkpt lat="45.777294" lon="11.450295"><ele>280.37</ele><time>2022-02-05T12:37:53Z</time></trkpt>
<trkpt lat="45.777073" lon="11.450293"><ele>277.76</ele><time>2022-02-05T12:37:57Z</time></trkpt>
<trkpt lat="45.776817" lon="11.450218"><ele>276.81</ele><time>2022-02-05T12:38:02Z</time></trkpt>
<trkpt lat="45.775677" lon="11.449738"><ele>270.26</ele><time>2022-02-05T12:38:06Z</time></trkpt>
<trkpt lat="45.775545" lon="11.449518"><ele>267.92</ele><time>2022-02-05T12:38:11Z</time></trkpt>
<trkpt lat="45.775528" lon="11.449388"><ele>267.82</ele><time>2022-02-05T12:38:15Z</time></trkpt>
<trkpt lat="45.775467" lon="11.449279"><ele>267.55</ele><time>2022-02-05T12:38:18Z</time></trkpt>
<trkpt lat="45.775427" lon="11.449247"><ele>267.4</ele><time>2022-02-05T12:38:22Z</time></trkpt>
<trkpt lat="45.775332" lon="11.449226"><ele>267.02</ele><time>2022-02-05T12:38:25Z</time></trkpt>
<trkpt lat="45.775258" lon="11.449257"><ele>266.53</ele><time>2022-02-05T12:38:29Z</time></trkpt>
<trkpt lat="45.775182" lon="11.449364"><ele>265.6</ele><time>2022-02-05T12:38:32Z</time></trkpt>
<trkpt lat="45.775156" lon="11.449524"><ele>264.96</ele><time>2022-02-05T12:38:36Z</time></trkpt>
<trkpt lat="45.775198" lon="11.449677"><ele>264.83</ele><time>2022-02-05T12:38:39Z</time></trkpt>
<trkpt lat="45.775222" lon="11.449713"><ele>264.82</ele><time>2022-02-05T12:38:43Z</time></trkpt>
<trkpt lat="45.775221" lon="11.44984"><ele>265.56</ele><time>2022-02-05T12:38:47Z</time></trkpt>
<trkpt lat="45.775201" lon="11.44996"><ele>266.2</ele><time>2022-02-05T12:38:50Z</time></trkpt>
<trkpt lat="45.774757" lon="11.450786"><ele>265.35</ele><time>2022-02-05T12:38:54Z</time></trkpt>
<trkpt lat="45.774112" lon="11.452245"><ele>262.0</ele><time>2022-02-05T12:38:57Z</time></trkpt>
<trkpt lat="45.773918" lon="11.452724"><ele>260.39</ele><time>2022-02-05T12:39:01Z</time></trkpt>
<trkpt lat="45.773812" lon="11.453539"><ele>256.72</ele><time>2022-02-05T12:39:04Z</time></trkpt>
<trkpt lat="45.773565" lon="11.45585"><ele>251.64</ele><time>2022-02-05T12:39:08Z</time></trkpt>
<trkpt lat="45.773506" lon="11.456167"><ele>251.68</ele><time>2022-02-05T12:39:11Z</time></trkpt>
<trkpt lat="45.773398" lon="11.456376"><ele>251.8</ele><time>2022-02-05T12:39:15Z</time></trkpt>
<trkpt lat="45.773054" lon="11.456859"><ele>252.0</ele><time>2022-02-05T12:39:18Z</time></trkpt>
<trkpt lat="45.773004" lon="11.457006"><ele>252.0</ele><time>2022-02-05T12:39:22Z</time></trkpt>
<trkpt lat="45.772992" lon="11.457136"><ele>252.0</ele><time>2022-02-05T12:39:26Z</time></trkpt>
<trkpt lat="45.773039" lon="11.457725"><ele>252.12</ele><time>2022-02-05T12:39:29Z</time></trkpt>
<trkpt lat="45.773145" lon="11.457936"><ele>250.05</ele><time>2022-02-05T12:39:33Z</time></trkpt>
<trkpt lat="45.773435" lon="11.458057"><ele>250.83</ele><time>2022-02-05T12:39:36Z</time></trkpt>
<trkpt lat="45.773487" lon="11.458135"><ele>251.36</ele><time>2022-02-05T12:39:40Z</time></trkpt>
<trkpt lat="45.773486" lon="11.458265"><ele>250.66</ele><time>2022-02-05T12:39:43Z</time></trkpt>
<trkpt lat="45.773418" lon="11.458353"><ele>248.94</ele><time>2022-02-05T12:39:47Z</time></trkpt>
<trkpt lat="45.773213" lon="11.458529"><ele>246.93</ele><time>2022-02-05T12:39:50Z</time></trkpt>
<trkpt lat="45.772974" lon="11.458649"><ele>243.89</ele><time>2022-02-05T12:39:54Z</time></trkpt>
<trkpt lat="45.772831" lon="11.45881"><ele>242.54</ele><time>2022-02-05T12:39:58Z</time></trkpt>
<trkpt lat="45.772705" lon="11.458862"><ele>240.47</ele><time>2022-02-05T12:40:01Z</time></trkpt>
<trkpt lat="45.77259" lon="11.458853"><ele>238.27</ele><time>2022-02-05T12:40:05Z</time></trkpt>
<trkpt lat="45.772427" lon="11.458878"><ele>235.86</ele><time>2022-02-05T12:40:08Z</time></trkpt>
<trkpt lat="45.771802" lon="11.459252"><ele>232.75</ele><time>2022-02-05T12:40:12Z</time></trkpt>
<trkpt lat="45.7717" lon="11.459349"><ele>233.13</ele><time>2022-02-05T12:40:15Z</time></trkpt>
<trkpt lat="45.771362" lon="11.459845"><ele>232.09</ele><time>2022-02-05T12:40:19Z</time></trkpt>
<trkpt lat="45.771117" lon="11.46011"><ele>230.85</ele><time>2022-02-05T12:40:22Z</time></trkpt>
<trkpt lat="45.77097" lon="11.460226"><ele>230.51</ele><time>2022-02-05T12:40:26Z</time></trkpt>
<trkpt lat="45.770876" lon="11.460262"><ele>230.14</ele><time>2022-02-05T12:40:30Z</time></trkpt>
<trkpt lat="45.770446" lon="11.460656"><ele>228.35</ele><time>2022-02-05T12:40:33Z</time></trkpt>
<trkpt lat="45.770362" lon="11.460702"><ele>227.98</ele><time>2022-02-05T12:40:37Z</time></trkpt>
<trkpt lat="45.770413" lon="11.461154"><ele>229.72</ele><time>2022-02-05T12:40:39Z</time></trkpt>
<trkpt lat="45.770415" lon="11.461307"><ele>230.55</ele><time>2022-02-05T12:40:41Z</time></trkpt>
<trkpt lat="45.770321" lon="11.461786"><ele>233.33</ele><time>2022-02-05T12:40:43Z</time></trkpt>
<trkpt lat="45.770211" lon="11.462176"><ele>233.83</ele><time>2022-02-05T12:40:46Z</time></trkpt>
<trkpt lat="45.770195" lon="11.462409"><ele>235.43</ele><time>2022-02-05T12:40:48Z</time></trkpt>
<trkpt lat="45.770207" lon="11.462578"><ele>237.24</ele><time>2022-02-05T12:40:50Z</time></trkpt>
<trkpt lat="45.770238" lon="11.462691"><ele>238.8</ele><time>2022-02-05T12:40:52Z</time></trkpt>
<trkpt lat="45.770316" lon="11.46284"><ele>241.54</ele><time>2022-02-05T12:40:55Z</time></trkpt>
<trkpt lat="45.770562" lon="11.463028"><ele>244.97</ele><time>2022-02-05T12:40:57Z</time></trkpt>
<trkpt lat="45.77059" lon="11.463076"><ele>245.59</ele><time>2022-02-05T12:40:59Z</time></trkpt>
<trkpt lat="45.770594" lon="11.463153"><ele>246.42</ele><time>2022-02-05T12:41:01Z</time></trkpt>
<trkpt lat="45.770566" lon="11.463239"><ele>247.07</ele><time>2022-02-05T12:41:04Z</time></trkpt>
<trkpt lat="45.770536" lon="11.463258"><ele>247.39</ele><time>2022-02-05T12:41:06Z</time></trkpt>
<trkpt lat="45.770178" lon="11.463305"><ele>250.88</ele><time>2022-02-05T12:41:08Z</time></trkpt>
<trkpt lat="45.769965" lon="11.463244"><ele>248.04</ele><time>2022-02-05T12:41:10Z</time></trkpt>
<trkpt lat="45.769837" lon="11.463142"><ele>244.35</ele><time>2022-02-05T12:41:12Z</time></trkpt>
<trkpt lat="45.769778" lon="11.463122"><ele>243.53</ele><time>2022-02-05T12:41:15Z</time></trkpt>
<trkpt lat="45.769702" lon="11.463151"><ele>243.5</ele><time>2022-02-05T12:41:17Z</time></trkpt>
<trkpt lat="45.769553" lon="11.463267"><ele>243.98</ele><time>2022-02-05T12:41:19Z</time></trkpt>
<trkpt lat="45.769047" lon="11.463842"><ele>256.36</ele><time>2022-02-05T12:41:21Z</time></trkpt>
<trkpt lat="45.768892" lon="11.463989"><ele>257.49</ele><time>2022-02-05T12:41:24Z</time></trkpt>
<trkpt lat="45.7687" lon="11.464013"><ele>252.56</ele><time>2022-02-05T12:41:26Z</time></trkpt>
<trkpt lat="45.76847" lon="11.463977"><ele>246.82</ele><time>2022-02-05T12:41:28Z</time></trkpt>
<trkpt lat="45.768264" lon="11.464017"><ele>245.22</ele><time>2022-02-05T12:41:30Z</time></trkpt>
<trkpt lat="45.768109" lon="11.464124"><ele>246.6</ele><time>2022-02-05T12:41:33Z</time></trkpt>
<trkpt lat="45.768003" lon="11.46427"><ele>246.6</ele><time>2022-02-05T12:41:35Z</time></trkpt>
<trkpt lat="45.768017" lon="11.464386"><ele>248.95</ele><time>2022-02-05T12:41:37Z</time></trkpt>
<trkpt lat="45.768053" lon="11.464404"><ele>250.34</ele><time>2022-02-05T12:41:39Z</time></trkpt>
<trkpt lat="45.768125" lon="11.464407"><ele>251.65</ele><time>2022-02-05T12:41:42Z</time></trkpt>
<trkpt lat="45.768446" lon="11.464307"><ele>254.45</ele><time>2022-02-05T12:41:44Z</time></trkpt>
<trkpt lat="45.768617" lon="11.464331"><ele>257.06</ele><time>2022-02-05T12:41:46Z</time></trkpt>
<trkpt lat="45.768764" lon="11.4644"><ele>261.03</ele><time>2022-02-05T12:41:48Z</time></trkpt>
<trkpt lat="45.768822" lon="11.464451"><ele>262.85</ele><time>2022-02-05T12:41:51Z</time></trkpt>
<trkpt lat="45.768863" lon="11.464555"><ele>264.36</ele><time>2022-02-05T12:41:53Z</time></trkpt>
<trkpt lat="45.768963" lon="11.465425"><ele>267.07</ele><time>2022-02-05T12:41:55Z</time></trkpt>
<trkpt lat="45.768991" lon="11.466061"><ele>267.99</ele><time>2022-02-05T12:41:57Z</time></trkpt>
<trkpt lat="45.768978" lon="11.466222"><ele>268.9</ele><time>2022-02-05T12:41:59Z</time></trkpt>
<trkpt lat="45.768918" lon="11.466333"><ele>269.55</ele><time>2022-02-05T12:42:02Z</time></trkpt>
<trkpt lat="45.768633" lon="11.46673"><ele>271.53</ele><time>2022-02-05T12:42:04Z</time></trkpt>
<trkpt lat="45.768521" lon="11.466804"><ele>271.51</ele><time>2022-02-05T12:42:06Z</time></trkpt>
<trkpt lat="45.768429" lon="11.466835"><ele>271.16</ele><time>2022-02-05T12:42:08Z</time></trkpt>
<trkpt lat="45.768331" lon="11.466943"><ele>270.95</ele><time>2022-02-05T12:42:11Z</time></trkpt>
<trkpt lat="45.768172" lon="11.467247"><ele>269.34</ele><time>2022-02-05T12:42:13Z</time></trkpt>
<trkpt lat="45.768073" lon="11.467574"><ele>269.19</ele><time>2022-02-05T12:42:15Z</time></trkpt>
<trkpt lat="45.767969" lon="11.468118"><ele>266.81</ele><time>2022-02-05T12:42:17Z</time></trkpt>
<trkpt lat="45.767651" lon="11.468929"><ele>260.79</ele><time>2022-02-05T12:42:20Z</time></trkpt>
<trkpt lat="45.767222" lon="11.469803"><ele>259.3</ele><time>2022-02-05T12:42:22Z</time></trkpt>
<trkpt lat="45.766503" lon="11.471807"><ele>251.62</ele><time>2022-02-05T12:42:24Z</time></trkpt>
<trkpt lat="45.766027" lon="11.472885"><ele>248.99</ele><time>2022-02-05T12:42:26Z</time></trkpt>
<trkpt lat="45.765971" lon="11.473075"><ele>247.94</ele><time>2022-02-05T12:42:29Z</time></trkpt>
<trkpt lat="45.765923" lon="11.473355"><ele>246.47</ele><time>2022-02-05T12:42:31Z</time></trkpt>
<trkpt lat="45.76591" lon="11.473619"><ele>244.6</ele><time>2022-02-05T12:42:33Z</time></trkpt>
<trkpt lat="45.76593" lon="11.473878"><ele>242.88</ele><time>2022-02-05T12:42:35Z</time></trkpt>
<trkpt lat="45.765971" lon="11.474089"><ele>242.51</ele><time>2022-02-05T12:42:38Z</time></trkpt>
<trkpt lat="45.766037" lon="11.474234"><ele>243.26</ele><time>2022-02-05T12:42:40Z</time></trkpt>
<trkpt lat="45.766085" lon="11.474461"><ele>242.48</ele><time>2022-02-05T12:42:42Z</time></trkpt>
<trkpt lat="45.766091" lon="11.474586"><ele>243.03</ele><time>2022-02-05T12:42:44Z</time></trkpt>
<trkpt lat="45.766025" lon="11.47476"><ele>242.18</ele><time>2022-02-05T12:42:46Z</time></trkpt>
<trkpt lat="45.765961" lon="11.474853"><ele>241.67</ele><time>2022-02-05T12:42:49Z</time></trkpt>
<trkpt lat="45.765895" lon="11.474995"><ele>242.05</ele><time>2022-02-05T12:42:51Z</time></trkpt>
<trkpt lat="45.765855" lon="11.475173"><ele>243.21</ele><time>2022-02-05T12:42:53Z</time></trkpt>
<trkpt lat="45.765838" lon="11.475391"><ele>243.27</ele><time>2022-02-05T12:42:55Z</time></trkpt>
<trkpt lat="45.765676" lon="11.480929"><ele>228.49</ele><time>2022-02-05T12:42:58Z</time></trkpt>
<trkpt lat="45.765531" lon="11.483092"><ele>226.74</ele><time>2022-02-05T12:43:00Z</time></trkpt>
<trkpt lat="45.765541" lon="11.483529"><ele>226.85</ele><time>2022-02-05T12:43:02Z</time></trkpt>
<trkpt lat="45.765643" lon="11.483987"><ele>229.38</ele><time>2022-02-05T12:43:04Z</time></trkpt>
<trkpt lat="45.765824" lon="11.484523"><ele>231.81</ele><time>2022-02-05T12:43:07Z</time></trkpt>
<trkpt lat="45.765856" lon="11.484895"><ele>233.5</ele><time>2022-02-05T12:43:09Z</time></trkpt>
<trkpt lat="45.765831" lon="11.485237"><ele>233.81</ele><time>2022-02-05T12:43:11Z</time></trkpt>
<trkpt lat="45.765687" lon="11.486428"><ele>231.8</ele><time>2022-02-05T12:43:13Z</time></trkpt>
<trkpt lat="45.765615" lon="11.487238"><ele>228.73</ele><time>2022-02-05T12:43:16Z</time></trkpt>
<trkpt lat="45.765607" lon="11.487625"><ele>227.07</ele><time>2022-02-05T12:43:18Z</time></trkpt>
<trkpt lat="45.765693" lon="11.488375"><ele>226.59</ele><time>2022-02-05T12:43:20Z</time></trkpt>
<trkpt lat="45.765698" lon="11.489125"><ele>221.19</ele><time>2022-02-05T12:43:22Z</time></trkpt>
<trkpt lat="45.765795" lon="11.489851"><ele>222.9</ele><time>2022-02-05T12:43:25Z</time></trkpt>
<trkpt lat="45.765799" lon="11.490254"><ele>221.68</ele><time>2022-02-05T12:43:27Z</time></trkpt>
<trkpt lat="45.76572" lon="11.491426"><ele>210.68</ele><time>2022-02-05T12:43:29Z</time></trkpt>
<trkpt lat="45.765721" lon="11.4917"><ele>211.97</ele><time>2022-02-05T12:43:31Z</time></trkpt>
<trkpt lat="45.765788" lon="11.492149"><ele>212.51</ele><time>2022-02-05T12:43:33Z</time></trkpt>
<trkpt lat="45.765667" lon="11.492653"><ele>208.62</ele><time>2022-02-05T12:43:36Z</time></trkpt>
<trkpt lat="45.76576" lon="11.495049"><ele>210.63</ele><time>2022-02-05T12:43:38Z</time></trkpt>
<trkpt lat="45.765882" lon="11.49549"><ele>211.57</ele><time>2022-02-05T12:43:40Z</time></trkpt>
<trkpt lat="45.765923" lon="11.495809"><ele>211.05</ele><time>2022-02-05T12:43:42Z</time></trkpt>
<trkpt lat="45.76591" lon="11.496066"><ele>209.25</ele><time>2022-02-05T12:43:45Z</time></trkpt>
<trkpt lat="45.765862" lon="11.496443"><ele>207.79</ele><time>2022-02-05T12:43:47Z</time></trkpt>
<trkpt lat="45.765781" lon="11.496877"><ele>208.29</ele><time>2022-02-05T12:43:49Z</time></trkpt>
<trkpt lat="45.76572" lon="11.497468"><ele>205.54</ele><time>2022-02-05T12:43:51Z</time></trkpt>
<trkpt lat="45.765709" lon="11.498136"><ele>203.8</ele><time>2022-02-05T12:43:54Z</time></trkpt>
<trkpt lat="45.765777" lon="11.498886"><ele>199.82</ele><time>2022-02-05T12:43:56Z</time></trkpt>
<trkpt lat="45.765923" lon="11.499493"><ele>200.73</ele><time>2022-02-05T12:43:58Z</time></trkpt>
<trkpt lat="45.765882" lon="11.500304"><ele>197.75</ele><time>2022-02-05T12:44:00Z</time></trkpt>
<trkpt lat="45.76596" lon="11.501182"><ele>196.79</ele><time>2022-02-05T12:44:03Z</time></trkpt>
<trkpt lat="45.765957" lon="11.50163"><ele>196.22</ele><time>2022-02-05T12:44:05Z</time></trkpt>
<trkpt lat="45.765923" lon="11.502078"><ele>197.2</ele><time>2022-02-05T12:44:07Z</time></trkpt>
<trkpt lat="45.765734" lon="11.502909"><ele>190.89</ele><time>2022-02-05T12:44:09Z</time></trkpt>
<trkpt lat="45.765608" lon="11.503234"><ele>188.99</ele><time>2022-02-05T12:44:12Z</time></trkpt>
<trkpt lat="45.765562" lon="11.503651"><ele>190.02</ele><time>2022-02-05T12:44:14Z</time></trkpt>
<trkpt lat="45.765542" lon="11.504128"><ele>188.88</ele><time>2022-02-05T12:44:16Z</time></trkpt>
<trkpt lat="45.765297" lon="11.505275"><ele>183.27</ele><time>2022-02-05T12:44:18Z</time></trkpt>
<trkpt lat="45.764906" lon="11.506971"><ele>176.66</ele><time>2022-02-05T12:44:20Z</time></trkpt>
<trkpt lat="45.76474" lon="11.507488"><ele>176.06</ele><time>2022-02-05T12:44:23Z</time></trkpt>
<trkpt lat="45.764574" lon="11.507912"><ele>175.16</ele><time>2022-02-05T12:44:25Z</time></trkpt>
<trkpt lat="45.76419" lon="11.508655"><ele>172.08</ele><time>2022-02-05T12:44:27Z</time></trkpt>
<trkpt lat="45.763594" lon="11.509734"><ele>172.98</ele><time>2022-02-05T12:44:29Z</time></trkpt>
<trkpt lat="45.763388" lon="11.510178"><ele>173.32</ele><time>2022-02-05T12:44:32Z</time></trkpt>
<trkpt lat="45.763143" lon="11.510603"><ele>173.31</ele><time>2022-02-05T12:44:34Z</time></trkpt>
<trkpt lat="45.763602" lon="11.511085"><ele>176.84</ele><time>2022-02-05T12:44:36Z</time></trkpt>
<trkpt lat="45.763923" lon="11.511372"><ele>182.08</ele><time>2022-02-05T12:44:38Z</time></trkpt>
<trkpt lat="45.764425" lon="11.511648"><ele>188.72</ele><time>2022-02-05T12:44:39Z</time></trkpt>
<trkpt lat="45.764666" lon="11.51176"><ele>190.33</ele><time>2022-02-05T12:44:41Z</time></trkpt>
<trkpt lat="45.765689" lon="11.512131"><ele>196.13</ele><time>2022-02-05T12:44:43Z</time></trkpt>
<trkpt lat="45.765967" lon="11.512341"><ele>198.91</ele><time>2022-02-05T12:44:45Z</time></trkpt>
<trkpt lat="45.766202" lon="11.512655"><ele>200.56</ele><time>2022-02-05T12:44:47Z</time></trkpt>
<trkpt lat="45.766746" lon="11.513099"><ele>203.48</ele><time>2022-02-05T12:44:49Z</time></trkpt>
<trkpt lat="45.767021" lon="11.513383"><ele>206.05</ele><time>2022-02-05T12:44:51Z</time></trkpt>
<trkpt lat="45.767211" lon="11.513529"><ele>206.68</ele><time>2022-02-05T12:44:52Z</time></trkpt>
<trkpt lat="45.767548" lon="11.513863"><ele>208.6</ele><time>2022-02-05T12:44:54Z</time></trkpt>
<trkpt lat="45.767914" lon="11.514277"><ele>212.38</ele><time>2022-02-05T12:44:56Z</time></trkpt>
<trkpt lat="45.768017" lon="11.514366"><ele>213.44</ele><time>2022-02-05T12:44:58Z</time></trkpt>
<trkpt lat="45.768353" lon="11.51461"><ele>217.25</ele><time>2022-02-05T12:45:00Z</time></trkpt>
<trkpt lat="45.768483" lon="11.514643"><ele>219.0</ele><time>2022-02-05T12:45:02Z</time></trkpt>
<trkpt lat="45.769087" lon="11.514966"><ele>227.03</ele><time>2022-02-05T12:45:04Z</time></trkpt>
<trkpt lat="45.769211" lon="11.515068"><ele>228.54</ele><time>2022-02-05T12:45:05Z</time></trkpt>
<trkpt lat="45.77004" lon="11.515906"><ele>234.54</ele><time>2022-02-05T12:45:07Z</time></trkpt>
<trkpt lat="45.770351" lon="11.516115"><ele>238.31</ele><time>2022-02-05T12:45:09Z</time></trkpt>
<trkpt lat="45.770603" lon="11.51623"><ele>241.81</ele><time>2022-02-05T12:45:11Z</time></trkpt>
<trkpt lat="45.77064" lon="11.516325"><ele>241.77</ele><time>2022-02-05T12:45:13Z</time></trkpt>
<trkpt lat="45.770662" lon="11.516456"><ele>242.05</ele><time>2022-02-05T12:45:15Z</time></trkpt>
<trkpt lat="45.770675" lon="11.516884"><ele>244.6</ele><time>2022-02-05T12:45:17Z</time></trkpt>
<trkpt lat="45.770655" lon="11.517395"><ele>249.09</ele><time>2022-02-05T12:45:19Z</time></trkpt>
<trkpt lat="45.770619" lon="11.517783"><ele>253.68</ele><time>2022-02-05T12:45:20Z</time></trkpt>
<trkpt lat="45.770534" lon="11.51832"><ele>256.97</ele><time>2022-02-05T12:45:22Z</time></trkpt>
<trkpt lat="45.770513" lon="11.518598"><ele>255.71</ele><time>2022-02-05T12:45:24Z</time></trkpt>
<trkpt lat="45.770544" lon="11.51911"><ele>258.24</ele><time>2022-02-05T12:45:26Z</time></trkpt>
<trkpt lat="45.770559" lon="11.519872"><ele>263.15</ele><time>2022-02-05T12:45:28Z</time></trkpt>
<trkpt lat="45.770582" lon="11.520163"><ele>264.44</ele><time>2022-02-05T12:45:30Z</time></trkpt>
<trkpt lat="45.77084" lon="11.521726"><ele>272.24</ele><time>2022-02-05T12:45:32Z</time></trkpt>
<trkpt lat="45.770864" lon="11.521788"><ele>272.3</ele><time>2022-02-05T12:45:33Z</time></trkpt>
<trkpt lat="45.770922" lon="11.521823"><ele>274.51</ele><time>2022-02-05T12:45:35Z</time></trkpt>
<trkpt lat="45.770957" lon="11.521784"><ele>276.86</ele><time>2022-02-05T12:45:37Z</time></trkpt>
<trkpt lat="45.770957" lon="11.521738"><ele>277.61</ele><time>2022-02-05T12:45:39Z</time></trkpt>
<trkpt lat="45.770882" lon="11.521454"><ele>277.19</ele><time>2022-02-05T12:45:41Z</time></trkpt>
<trkpt lat="45.770862" lon="11.521276"><ele>276.73</ele><time>2022-02-05T12:45:43Z</time></trkpt>
<trkpt lat="45.770837" lon="11.520662"><ele>277.37</ele><time>2022-02-05T12:45:45Z</time></trkpt>
<trkpt lat="45.770851" lon="11.52026"><ele>279.7</ele><time>2022-02-05T12:45:46Z</time></trkpt>
<trkpt lat="45.77087" lon="11.520174"><ele>279.98</ele><time>2022-02-05T12:45:48Z</time></trkpt>
<trkpt lat="45.771047" lon="11.519745"><ele>284.65</ele><time>2022-02-05T12:45:50Z</time></trkpt>
<trkpt lat="45.771095" lon="11.519498"><ele>284.09</ele><time>2022-02-05T12:45:52Z</time></trkpt>
<trkpt lat="45.771275" lon="11.518311"><ele>294.56</ele><time>2022-02-05T12:45:54Z</time></trkpt>
<trkpt lat="45.771309" lon="11.518207"><ele>295.04</ele><time>2022-02-05T12:45:56Z</time></trkpt>
<trkpt lat="45.771346" lon="11.518197"><ele>297.03</ele><time>2022-02-05T12:45:58Z</time></trkpt>
<trkpt lat="45.77139" lon="11.518244"><ele>300.11</ele><time>2022-02-05T12:45:59Z</time></trkpt>
<trkpt lat="45.771394" lon="11.518296"><ele>300.81</ele><time>2022-02-05T12:46:01Z</time></trkpt>
<trkpt lat="45.771348" lon="11.518561"><ele>299.85</ele><time>2022-02-05T12:46:03Z</time></trkpt>
<trkpt lat="45.771336" lon="11.51888"><ele>298.73</ele><time>2022-02-05T12:46:05Z</time></trkpt>
<trkpt lat="45.771348" lon="11.519047"><ele>297.92</ele><time>2022-02-05T12:46:07Z</time></trkpt>
<trkpt lat="45.771435" lon="11.519714"><ele>299.76</ele><time>2022-02-05T12:46:09Z</time></trkpt>
<trkpt lat="45.771674" lon="11.521166"><ele>315.37</ele><time>2022-02-05T12:46:11Z</time></trkpt>
<trkpt lat="45.77178" lon="11.521521"><ele>319.54</ele><time>2022-02-05T12:46:12Z</time></trkpt>
<trkpt lat="45.771892" lon="11.521752"><ele>322.49</ele><time>2022-02-05T12:46:14Z</time></trkpt>
<trkpt lat="45.772041" lon="11.521852"><ele>329.97</ele><time>2022-02-05T12:46:16Z</time></trkpt>
<trkpt lat="45.772104" lon="11.521925"><ele>333.38</ele><time>2022-02-05T12:46:18Z</time></trkpt>
<trkpt lat="45.772105" lon="11.522079"><ele>331.89</ele><time>2022-02-05T12:46:20Z</time></trkpt>
<trkpt lat="45.772061" lon="11.522476"><ele>328.19</ele><time>2022-02-05T12:46:22Z</time></trkpt>
<trkpt lat="45.772071" lon="11.522674"><ele>329.8</ele><time>2022-02-05T12:46:24Z</time></trkpt>
<trkpt lat="45.772134" lon="11.523008"><ele>332.18</ele><time>2022-02-05T12:46:25Z</time></trkpt>
<trkpt lat="45.772176" lon="11.523122"><ele>332.87</ele><time>2022-02-05T12:46:27Z</time></trkpt>
<trkpt lat="45.772329" lon="11.523411"><ele>335.9</ele><time>2022-02-05T12:46:29Z</time></trkpt>
<trkpt lat="45.772434" lon="11.523554"><ele>338.11</ele><time>2022-02-05T12:46:31Z</time></trkpt>
<trkpt lat="45.772602" lon="11.523684"><ele>345.85</ele><time>2022-02-05T12:46:33Z</time></trkpt>
<trkpt lat="45.772637" lon="11.523734"><ele>347.18</ele><time>2022-02-05T12:46:35Z</time></trkpt>
<trkpt lat="45.772789" lon="11.524102"><ele>346.77</ele><time>2022-02-05T12:46:37Z</time></trkpt>
<trkpt lat="45.773001" lon="11.52453"><ele>350.75</ele><time>2022-02-05T12:46:38Z</time></trkpt>
<trkpt lat="45.773353" lon="11.525153"><ele>359.05</ele><time>2022-02-05T12:46:40Z</time></trkpt>
<trkpt lat="45.773589" lon="11.525902"><ele>356.3</ele><time>2022-02-05T12:46:42Z</time></trkpt>
<trkpt lat="45.773736" lon="11.52622"><ele>354.33</ele><time>2022-02-05T12:46:44Z</time></trkpt>
<trkpt lat="45.774078" lon="11.526597"><ele>354.19</ele><time>2022-02-05T12:46:46Z</time></trkpt>
<trkpt lat="45.774179" lon="11.52668"><ele>354.61</ele><time>2022-02-05T12:46:48Z</time></trkpt>
<trkpt lat="45.774355" lon="11.526784"><ele>362.88</ele><time>2022-02-05T12:46:50Z</time></trkpt>
<trkpt lat="45.774406" lon="11.526853"><ele>364.14</ele><time>2022-02-05T12:46:51Z</time></trkpt>
<trkpt lat="45.77442" lon="11.5269"><ele>363.82</ele><time>2022-02-05T12:46:53Z</time></trkpt>
<trkpt lat="45.774412" lon="11.527016"><ele>362.4</ele><time>2022-02-05T12:46:55Z</time></trkpt>
<trkpt lat="45.774358" lon="11.527117"><ele>360.04</ele><time>2022-02-05T12:46:57Z</time></trkpt>
<trkpt lat="45.774116" lon="11.527395"><ele>353.06</ele><time>2022-02-05T12:46:59Z</time></trkpt>
<trkpt lat="45.774004" lon="11.527589"><ele>349.38</ele><time>2022-02-05T12:47:01Z</time></trkpt>
<trkpt lat="45.77399" lon="11.52779"><ele>349.86</ele><time>2022-02-05T12:47:03Z</time></trkpt>
<trkpt lat="45.774042" lon="11.528376"><ele>358.61</ele><time>2022-02-05T12:47:04Z</time></trkpt>
<trkpt lat="45.774191" lon="11.52927"><ele>367.13</ele><time>2022-02-05T12:47:06Z</time></trkpt>
<trkpt lat="45.774231" lon="11.529434"><ele>367.2</ele><time>2022-02-05T12:47:08Z</time></trkpt>
<trkpt lat="45.774335" lon="11.529721"><ele>366.66</ele><time>2022-02-05T12:47:10Z</time></trkpt>
<trkpt lat="45.774434" lon="11.529923"><ele>368.02</ele><time>2022-02-05T12:47:12Z</time></trkpt>
<trkpt lat="45.774535" lon="11.530189"><ele>371.51</ele><time>2022-02-05T12:47:14Z</time></trkpt>
<trkpt lat="45.774788" lon="11.530913"><ele>380.35</ele><time>2022-02-05T12:47:16Z</time></trkpt>
<trkpt lat="45.775" lon="11.53178"><ele>384.55</ele><time>2022-02-05T12:47:17Z</time></trkpt>
<trkpt lat="45.775101" lon="11.53214"><ele>384.45</ele><time>2022-02-05T12:47:19Z</time></trkpt>
<trkpt lat="45.775124" lon="11.532165"><ele>385.6</ele><time>2022-02-05T12:47:21Z</time></trkpt>
<trkpt lat="45.775163" lon="11.532159"><ele>388.7</ele><time>2022-02-05T12:47:23Z</time></trkpt>
<trkpt lat="45.775181" lon="11.532092"><ele>391.46</ele><time>2022-02-05T12:47:25Z</time></trkpt>
<trkpt lat="45.775079" lon="11.53171"><ele>390.86</ele><time>2022-02-05T12:47:27Z</time></trkpt>
<trkpt lat="45.775044" lon="11.529762"><ele>402.38</ele><time>2022-02-05T12:47:29Z</time></trkpt>
<trkpt lat="45.775045" lon="11.52881"><ele>404.61</ele><time>2022-02-05T12:47:30Z</time></trkpt>
<trkpt lat="45.775105" lon="11.528218"><ele>416.54</ele><time>2022-02-05T12:47:32Z</time></trkpt>
<trkpt lat="45.775162" lon="11.527263"><ele>405.21</ele><time>2022-02-05T12:47:34Z</time></trkpt>
<trkpt lat="45.77519" lon="11.527185"><ele>404.44</ele><time>2022-02-05T12:47:36Z</time></trkpt>
<trkpt lat="45.775256" lon="11.527112"><ele>405.27</ele><time>2022-02-05T12:47:38Z</time></trkpt>
<trkpt lat="45.775527" lon="11.526907"><ele>411.29</ele><time>2022-02-05T12:47:40Z</time></trkpt>
<trkpt lat="45.775631" lon="11.526859"><ele>414.85</ele><time>2022-02-05T12:47:42Z</time></trkpt>
<trkpt lat="45.776346" lon="11.526373"><ele>426.48</ele><time>2022-02-05T12:47:44Z</time></trkpt>
<trkpt lat="45.776809" lon="11.526251"><ele>431.77</ele><time>2022-02-05T12:47:45Z</time></trkpt>
<trkpt lat="45.776992" lon="11.52616"><ele>429.73</ele><time>2022-02-05T12:47:47Z</time></trkpt>
<trkpt lat="45.777148" lon="11.526115"><ele>429.6</ele><time>2022-02-05T12:47:49Z</time></trkpt>
<trkpt lat="45.777729" lon="11.526174"><ele>449.04</ele><time>2022-02-05T12:47:51Z</time></trkpt>
<trkpt lat="45.778003" lon="11.526134"><ele>455.34</ele><time>2022-02-05T12:47:53Z</time></trkpt>
<trkpt lat="45.778372" lon="11.526187"><ele>460.88</ele><time>2022-02-05T12:47:55Z</time></trkpt>
<trkpt lat="45.77853" lon="11.526144"><ele>458.45</ele><time>2022-02-05T12:47:57Z</time></trkpt>
<trkpt lat="45.778715" lon="11.526043"><ele>461.35</ele><time>2022-02-05T12:47:58Z</time></trkpt>
<trkpt lat="45.778928" lon="11.526006"><ele>468.57</ele><time>2022-02-05T12:48:00Z</time></trkpt>
<trkpt lat="45.778967" lon="11.525956"><ele>470.05</ele><time>2022-02-05T12:48:02Z</time></trkpt>
<trkpt lat="45.778985" lon="11.525902"><ele>470.63</ele><time>2022-02-05T12:48:04Z</time></trkpt>
<trkpt lat="45.778948" lon="11.525854"><ele>469.17</ele><time>2022-02-05T12:48:06Z</time></trkpt>
<trkpt lat="45.778673" lon="11.525653"><ele>467.1</ele><time>2022-02-05T12:48:08Z</time></trkpt>
<trkpt lat="45.778488" lon="11.525557"><ele>466.3</ele><time>2022-02-05T12:48:10Z</time></trkpt>
<trkpt lat="45.778292" lon="11.525495"><ele>464.13</ele><time>2022-02-05T12:48:11Z</time></trkpt>
<trkpt lat="45.778021" lon="11.525316"><ele>460.73</ele><time>2022-02-05T12:48:13Z</time></trkpt>
<trkpt lat="45.777361" lon="11.52494"><ele>465.08</ele><time>2022-02-05T12:48:15Z</time></trkpt>
<trkpt lat="45.776953" lon="11.524796"><ele>473.69</ele><time>2022-02-05T12:48:17Z</time></trkpt>
<trkpt lat="45.776516" lon="11.524613"><ele>475.54</ele><time>2022-02-05T12:48:19Z</time></trkpt>
<trkpt lat="45.776097" lon="11.524514"><ele>474.25</ele><time>2022-02-05T12:48:21Z</time></trkpt>
<trkpt lat="45.775996" lon="11.524458"><ele>475.33</ele><time>2022-02-05T12:48:23Z</time></trkpt>
<trkpt lat="45.775834" lon="11.524316"><ele>475.47</ele><time>2022-02-05T12:48:24Z</time></trkpt>
<trkpt lat="45.775601" lon="11.524012"><ele>475.89</ele><time>2022-02-05T12:48:26Z</time></trkpt>
<trkpt lat="45.775371" lon="11.523535"><ele>480.51</ele><time>2022-02-05T12:48:28Z</time></trkpt>
<trkpt lat="45.77511" lon="11.522835"><ele>483.21</ele><time>2022-02-05T12:48:30Z</time></trkpt>
<trkpt lat="45.775047" lon="11.522615"><ele>482.58</ele><time>2022-02-05T12:48:32Z</time></trkpt>
<trkpt lat="45.77508" lon="11.522501"><ele>484.31</ele><time>2022-02-05T12:48:34Z</time></trkpt>
<trkpt lat="45.775134" lon="11.522389"><ele>487.06</ele><time>2022-02-05T12:48:36Z</time></trkpt>
<trkpt lat="45.775146" lon="11.522253"><ele>488.89</ele><time>2022-02-05T12:48:37Z</time></trkpt>
<trkpt lat="45.775141" lon="11.522072"><ele>490.69</ele><time>2022-02-05T12:48:39Z</time></trkpt>
<trkpt lat="45.775021" lon="11.52155"><ele>493.03</ele><time>2022-02-05T12:48:41Z</time></trkpt>
<trkpt lat="45.775017" lon="11.521291"><ele>492.84</ele><time>2022-02-05T12:48:43Z</time></trkpt>
<trkpt lat="45.775056" lon="11.521067"><ele>493.05</ele><time>2022-02-05T12:48:45Z</time></trkpt>
<trkpt lat="45.775126" lon="11.520329"><ele>495.19</ele><time>2022-02-05T12:48:47Z</time></trkpt>
<trkpt lat="45.775261" lon="11.519669"><ele>505.74</ele><time>2022-02-05T12:48:49Z</time></trkpt>
<trkpt lat="45.775373" lon="11.519217"><ele>511.81</ele><time>2022-02-05T12:48:50Z</time></trkpt>
<trkpt lat="45.775459" lon="11.519019"><ele>512.08</ele><time>2022-02-05T12:48:52Z</time></trkpt>
<trkpt lat="45.775549" lon="11.51889"><ele>512.83</ele><time>2022-02-05T12:48:54Z</time></trkpt>
<trkpt lat="45.775648" lon="11.518819"><ele>512.58</ele><time>2022-02-05T12:48:56Z</time></trkpt>
<trkpt lat="45.776263" lon="11.518577"><ele>515.11</ele><time>2022-02-05T12:48:58Z</time></trkpt>
<trkpt lat="45.7763" lon="11.518655"><ele>516.65</ele><time>2022-02-05T12:49:00Z</time></trkpt>
<trkpt lat="45.776293" lon="11.518705"><ele>517.81</ele><time>2022-02-05T12:49:02Z</time></trkpt>
<trkpt lat="45.776254" lon="11.518764"><ele>519.29</ele><time>2022-02-05T12:49:03Z</time></trkpt>
<trkpt lat="45.776137" lon="11.518847"><ele>521.23</ele><time>2022-02-05T12:49:05Z</time></trkpt>
<trkpt lat="45.77599" lon="11.519028"><ele>523.11</ele><time>2022-02-05T12:49:07Z</time></trkpt>
<trkpt lat="45.775874" lon="11.519307"><ele>525.32</ele><time>2022-02-05T12:49:09Z</time></trkpt>
<trkpt lat="45.775846" lon="11.519608"><ele>526.25</ele><time>2022-02-05T12:49:11Z</time></trkpt>
<trkpt lat="45.7759" lon="11.520441"><ele>531.72</ele><time>2022-02-05T12:49:13Z</time></trkpt>
<trkpt lat="45.775896" lon="11.521135"><ele>531.16</ele><time>2022-02-05T12:49:15Z</time></trkpt>
<trkpt lat="45.775877" lon="11.521354"><ele>529.23</ele><time>2022-02-05T12:49:16Z</time></trkpt>
<trkpt lat="45.775891" lon="11.521387"><ele>529.72</ele><time>2022-02-05T12:49:18Z</time></trkpt>
<trkpt lat="45.775925" lon="11.521403"><ele>531.24</ele><time>2022-02-05T12:49:20Z</time></trkpt>
<trkpt lat="45.775954" lon="11.521392"><ele>532.66</ele><time>2022-02-05T12:49:22Z</time></trkpt>
<trkpt lat="45.775967" lon="11.52111"><ele>533.82</ele><time>2022-02-05T12:49:24Z</time></trkpt>
<trkpt lat="45.775999" lon="11.520906"><ele>535.25</ele><time>2022-02-05T12:49:26Z</time></trkpt>
<trkpt lat="45.776046" lon="11.52072"><ele>536.58</ele><time>2022-02-05T12:49:28Z</time></trkpt>
<trkpt lat="45.776264" lon="11.520199"><ele>538.29</ele><time>2022-02-05T12:49:29Z</time></trkpt>
<trkpt lat="45.776421" lon="11.519956"><ele>538.61</ele><time>2022-02-05T12:49:31Z</time></trkpt>
<trkpt lat="45.776702" lon="11.519627"><ele>541.57</ele><time>2022-02-05T12:49:33Z</time></trkpt>
<trkpt lat="45.777258" lon="11.519381"><ele>549.59</ele><time>2022-02-05T12:49:35Z</time></trkpt>
<trkpt lat="45.777704" lon="11.519033"><ele>552.77</ele><time>2022-02-05T12:49:37Z</time></trkpt>
<trkpt lat="45.777909" lon="11.518619"><ele>550.77</ele><time>2022-02-05T12:49:39Z</time></trkpt>
<trkpt lat="45.778481" lon="11.517793"><ele>555.32</ele><time>2022-02-05T12:49:41Z</time></trkpt>
<trkpt lat="45.778702" lon="11.517577"><ele>562.34</ele><time>2022-02-05T12:49:42Z</time></trkpt>
<trkpt lat="45.778832" lon="11.517361"><ele>562.53</ele><time>2022-02-05T12:49:44Z</time></trkpt>
<trkpt lat="45.778973" lon="11.51699"><ele>557.6</ele><time>2022-02-05T12:49:46Z</time></trkpt>
<trkpt lat="45.779049" lon="11.516913"><ele>558.73</ele><time>2022-02-05T12:49:48Z</time></trkpt>
<trkpt lat="45.779191" lon="11.516784"><ele>559.29</ele><time>2022-02-05T12:49:50Z</time></trkpt>
<trkpt lat="45.779846" lon="11.51654"><ele>571.86</ele><time>2022-02-05T12:49:52Z</time></trkpt>
<trkpt lat="45.780084" lon="11.516416"><ele>570.45</ele><time>2022-02-05T12:49:54Z</time></trkpt>
<trkpt lat="45.780443" lon="11.516312"><ele>568.7</ele><time>2022-02-05T12:49:55Z</time></trkpt>
<trkpt lat="45.780886" lon="11.516338"><ele>579.64</ele><time>2022-02-05T12:49:57Z</time></trkpt>
<trkpt lat="45.781383" lon="11.516424"><ele>591.79</ele><time>2022-02-05T12:49:59Z</time></trkpt>
<trkpt lat="45.78142" lon="11.516396"><ele>591.97</ele><time>2022-02-05T12:50:01Z</time></trkpt>
<trkpt lat="45.781449" lon="11.516336"><ele>591.97</ele><time>2022-02-05T12:50:03Z</time></trkpt>
<trkpt lat="45.781454" lon="11.516235"><ele>591.11</ele><time>2022-02-05T12:50:05Z</time></trkpt>
<trkpt lat="45.781431" lon="11.516124"><ele>589.33</ele><time>2022-02-05T12:50:07Z</time></trkpt>
<trkpt lat="45.781163" lon="11.515626"><ele>579.79</ele><time>2022-02-05T12:50:09Z</time></trkpt>
<trkpt lat="45.781117" lon="11.515478"><ele>578.18</ele><time>2022-02-05T12:50:10Z</time></trkpt>
<trkpt lat="45.781042" lon="11.515001"><ele>585.25</ele><time>2022-02-05T12:50:12Z</time></trkpt>
<trkpt lat="45.781071" lon="11.514689"><ele>594.04</ele><time>2022-02-05T12:50:14Z</time></trkpt>
<trkpt lat="45.781049" lon="11.514513"><ele>596.2</ele><time>2022-02-05T12:50:16Z</time></trkpt>
<trkpt lat="45.780762" lon="11.514043"><ele>595.49</ele><time>2022-02-05T12:50:18Z</time></trkpt>
<trkpt lat="45.780564" lon="11.513685"><ele>596.56</ele><time>2022-02-05T12:50:20Z</time></trkpt>
<trkpt lat="45.780478" lon="11.51351"><ele>596.41</ele><time>2022-02-05T12:50:22Z</time></trkpt>
<trkpt lat="45.780443" lon="11.513338"><ele>597.53</ele><time>2022-02-05T12:50:23Z</time></trkpt>
<trkpt lat="45.780422" lon="11.512795"><ele>597.69</ele><time>2022-02-05T12:50:25Z</time></trkpt>
<trkpt lat="45.780457" lon="11.512671"><ele>597.48</ele><time>2022-02-05T12:50:27Z</time></trkpt>
<trkpt lat="45.78069" lon="11.512358"><ele>599.86</ele><time>2022-02-05T12:50:29Z</time></trkpt>
<trkpt lat="45.780755" lon="11.512184"><ele>598.42</ele><time>2022-02-05T12:50:31Z</time></trkpt>
<trkpt lat="45.780792" lon="11.512128"><ele>598.15</ele><time>2022-02-05T12:50:33Z</time></trkpt>
<trkpt lat="45.780828" lon="11.512114"><ele>598.89</ele><time>2022-02-05T12:50:35Z</time></trkpt>
<trkpt lat="45.780854" lon="11.512143"><ele>600.41</ele><time>2022-02-05T12:50:36Z</time></trkpt>
<trkpt lat="45.7808" lon="11.512605"><ele>604.36</ele><time>2022-02-05T12:50:38Z</time></trkpt>
<trkpt lat="45.78085" lon="11.512742"><ele>605.36</ele><time>2022-02-05T12:50:40Z</time></trkpt>
<trkpt lat="45.781551" lon="11.513806"><ele>614.31</ele><time>2022-02-05T12:50:42Z</time></trkpt>
<trkpt lat="45.781664" lon="11.51405"><ele>615.74</ele><time>2022-02-05T12:50:44Z</time></trkpt>
<trkpt lat="45.781914" lon="11.515034"><ele>621.76</ele><time>2022-02-05T12:50:46Z</time></trkpt>
<trkpt lat="45.782049" lon="11.515394"><ele>625.28</ele><time>2022-02-05T12:50:48Z</time></trkpt>
<trkpt lat="45.782115" lon="11.515562"><ele>626.73</ele><time>2022-02-05T12:50:49Z</time></trkpt>
<trkpt lat="45.782449" lon="11.516146"><ele>634.57</ele><time>2022-02-05T12:50:51Z</time></trkpt>
<trkpt lat="45.782606" lon="11.516541"><ele>637.54</ele><time>2022-02-05T12:50:53Z</time></trkpt>
<trkpt lat="45.782799" lon="11.517198"><ele>642.65</ele><time>2022-02-05T12:50:55Z</time></trkpt>
<trkpt lat="45.782961" lon="11.517864"><ele>651.46</ele><time>2022-02-05T12:50:57Z</time></trkpt>
<trkpt lat="45.782964" lon="11.517938"><ele>653.41</ele><time>2022-02-05T12:50:59Z</time></trkpt>
<trkpt lat="45.782872" lon="11.518095"><ele>655.99</ele><time>2022-02-05T12:51:01Z</time></trkpt>
<trkpt lat="45.782719" lon="11.51815"><ele>654.95</ele><time>2022-02-05T12:51:02Z</time></trkpt>
<trkpt lat="45.782203" lon="11.518267"><ele>653.55</ele><time>2022-02-05T12:51:04Z</time></trkpt>
<trkpt lat="45.782071" lon="11.518353"><ele>653.14</ele><time>2022-02-05T12:51:06Z</time></trkpt>
<trkpt lat="45.781986" lon="11.518521"><ele>654.88</ele><time>2022-02-05T12:51:08Z</time></trkpt>
<trkpt lat="45.781922" lon="11.518767"><ele>659.26</ele><time>2022-02-05T12:51:10Z</time></trkpt>
<trkpt lat="45.781729" lon="11.518912"><ele>661.86</ele><time>2022-02-05T12:51:12Z</time></trkpt>
<trkpt lat="45.781529" lon="11.519019"><ele>665.04</ele><time>2022-02-05T12:51:14Z</time></trkpt>
<trkpt lat="45.781433" lon="11.518999"><ele>664.85</ele><time>2022-02-05T12:51:15Z</time></trkpt>
<trkpt lat="45.781361" lon="11.518913"><ele>663.36</ele><time>2022-02-05T12:51:17Z</time></trkpt>
<trkpt lat="45.781174" lon="11.518801"><ele>659.62</ele><time>2022-02-05T12:51:19Z</time></trkpt>
<trkpt lat="45.781081" lon="11.518827"><ele>660.44</ele><time>2022-02-05T12:51:21Z</time></trkpt>
<trkpt lat="45.780761" lon="11.519138"><ele>668.27</ele><time>2022-02-05T12:51:23Z</time></trkpt>
<trkpt lat="45.780387" lon="11.519915"><ele>667.01</ele><time>2022-02-05T12:51:25Z</time></trkpt>
<trkpt lat="45.78033" lon="11.520175"><ele>668.8</ele><time>2022-02-05T12:51:27Z</time></trkpt>
<trkpt lat="45.78033" lon="11.520364"><ele>671.41</ele><time>2022-02-05T12:51:28Z</time></trkpt>
<trkpt lat="45.780389" lon="11.520656"><ele>676.77</ele><time>2022-02-05T12:51:30Z</time></trkpt>
<trkpt lat="45.780463" lon="11.520879"><ele>679.67</ele><time>2022-02-05T12:51:32Z</time></trkpt>
<trkpt lat="45.780575" lon="11.521102"><ele>683.49</ele><time>2022-02-05T12:51:34Z</time></trkpt>
<trkpt lat="45.780838" lon="11.521514"><ele>683.39</ele><time>2022-02-05T12:51:36Z</time></trkpt>
<trkpt lat="45.781033" lon="11.52166"><ele>684.43</ele><time>2022-02-05T12:51:38Z</time></trkpt>
<trkpt lat="45.781733" lon="11.521842"><ele>692.91</ele><time>2022-02-05T12:51:40Z</time></trkpt>
<trkpt lat="45.781893" lon="11.521935"><ele>693.57</ele><time>2022-02-05T12:51:41Z</time></trkpt>
<trkpt lat="45.782149" lon="11.522134"><ele>694.21</ele><time>2022-02-05T12:51:43Z</time></trkpt>
<trkpt lat="45.782213" lon="11.522113"><ele>695.44</ele><time>2022-02-05T12:51:45Z</time></trkpt>
<trkpt lat="45.782216" lon="11.52206"><ele>696.25</ele><time>2022-02-05T12:51:47Z</time></trkpt>
<trkpt lat="45.78218" lon="11.52199"><ele>696.74</ele><time>2022-02-05T12:51:49Z</time></trkpt>
<trkpt lat="45.781988" lon="11.521719"><ele>697.87</ele><time>2022-02-05T12:51:51Z</time></trkpt>
<trkpt lat="45.781926" lon="11.521592"><ele>698.53</ele><time>2022-02-05T12:51:53Z</time></trkpt>
<trkpt lat="45.781884" lon="11.521418"><ele>699.82</ele><time>2022-02-05T12:51:54Z</time></trkpt>
<trkpt lat="45.781876" lon="11.521242"><ele>699.61</ele><time>2022-02-05T12:51:56Z</time></trkpt>
<trkpt lat="45.781915" lon="11.521075"><ele>699.42</ele><time>2022-02-05T12:51:58Z</time></trkpt>
<trkpt lat="45.782058" lon="11.520858"><ele>700.55</ele><time>2022-02-05T12:52:00Z</time></trkpt>
<trkpt lat="45.782198" lon="11.520715"><ele>702.67</ele><time>2022-02-05T12:52:02Z</time></trkpt>
<trkpt lat="45.782336" lon="11.520617"><ele>705.48</ele><time>2022-02-05T12:52:04Z</time></trkpt>
<trkpt lat="45.78261" lon="11.520525"><ele>709.39</ele><time>2022-02-05T12:52:06Z</time></trkpt>
<trkpt lat="45.782862" lon="11.520372"><ele>709.86</ele><time>2022-02-05T12:52:07Z</time></trkpt>
<trkpt lat="45.783053" lon="11.520201"><ele>709.57</ele><time>2022-02-05T12:52:09Z</time></trkpt>
<trkpt lat="45.783304" lon="11.519849"><ele>711.53</ele><time>2022-02-05T12:52:11Z</time></trkpt>
<trkpt lat="45.783556" lon="11.519591"><ele>716.14</ele><time>2022-02-05T12:52:13Z</time></trkpt>
<trkpt lat="45.784372" lon="11.519162"><ele>725.56</ele><time>2022-02-05T12:52:15Z</time></trkpt>
<trkpt lat="45.784731" lon="11.519025"><ele>728.14</ele><time>2022-02-05T12:52:17Z</time></trkpt>
<trkpt lat="45.784944" lon="11.518818"><ele>729.72</ele><time>2022-02-05T12:52:19Z</time></trkpt>
<trkpt lat="45.785058" lon="11.518598"><ele>730.15</ele><time>2022-02-05T12:52:20Z</time></trkpt>
<trkpt lat="45.785148" lon="11.518286"><ele>731.05</ele><time>2022-02-05T12:52:22Z</time></trkpt>
<trkpt lat="45.785157" lon="11.517858"><ele>735.34</ele><time>2022-02-05T12:52:24Z</time></trkpt>
<trkpt lat="45.785147" lon="11.517616"><ele>738.23</ele><time>2022-02-05T12:52:26Z</time></trkpt>
<trkpt lat="45.784812" lon="11.516466"><ele>748.15</ele><time>2022-02-05T12:52:28Z</time></trkpt>
<trkpt lat="45.784746" lon="11.516108"><ele>750.01</ele><time>2022-02-05T12:52:30Z</time></trkpt>
<trkpt lat="45.78461" lon="11.515086"><ele>754.76</ele><time>2022-02-05T12:52:32Z</time></trkpt>
<trkpt lat="45.784572" lon="11.514473"><ele>763.25</ele><time>2022-02-05T12:52:34Z</time></trkpt>
<trkpt lat="45.784531" lon="11.514073"><ele>764.88</ele><time>2022-02-05T12:52:35Z</time></trkpt>
<trkpt lat="45.784213" lon="11.51205"><ele>772.18</ele><time>2022-02-05T12:52:37Z</time></trkpt>
<trkpt lat="45.784228" lon="11.511819"><ele>772.85</ele><time>2022-02-05T12:52:39Z</time></trkpt>
<trkpt lat="45.784346" lon="11.511523"><ele>776.67</ele><time>2022-02-05T12:52:41Z</time></trkpt>
<trkpt lat="45.784472" lon="11.511317"><ele>779.88</ele><time>2022-02-05T12:52:43Z</time></trkpt>
<trkpt lat="45.784717" lon="11.511005"><ele>785.41</ele><time>2022-02-05T12:52:45Z</time></trkpt>
<trkpt lat="45.78479" lon="11.510806"><ele>786.93</ele><time>2022-02-05T12:52:47Z</time></trkpt>
<trkpt lat="45.784846" lon="11.510579"><ele>788.15</ele><time>2022-02-05T12:52:48Z</time></trkpt>
<trkpt lat="45.784879" lon="11.510201"><ele>788.75</ele><time>2022-02-05T12:52:50Z</time></trkpt>
<trkpt lat="45.784875" lon="11.509669"><ele>789.4</ele><time>2022-02-05T12:52:52Z</time></trkpt>
<trkpt lat="45.784891" lon="11.509077"><ele>788.87</ele><time>2022-02-05T12:52:54Z</time></trkpt>
<trkpt lat="45.784989" lon="11.508435"><ele>788.48</ele><time>2022-02-05T12:52:56Z</time></trkpt>
<trkpt lat="45.785049" lon="11.508196"><ele>788.73</ele><time>2022-02-05T12:52:58Z</time></trkpt>
<trkpt lat="45.785127" lon="11.508033"><ele>790.01</ele><time>2022-02-05T12:53:00Z</time></trkpt>
<trkpt lat="45.785262" lon="11.507918"><ele>793.34</ele><time>2022-02-05T12:53:01Z</time></trkpt>
<trkpt lat="45.785392" lon="11.507892"><ele>796.1</ele><time>2022-02-05T12:53:03Z</time></trkpt>
<trkpt lat="45.785888" lon="11.507996"><ele>807.93</ele><time>2022-02-05T12:53:05Z</time></trkpt>
<trkpt lat="45.785998" lon="11.50795"><ele>809.5</ele><time>2022-02-05T12:53:07Z</time></trkpt>
<trkpt lat="45.786106" lon="11.507822"><ele>809.66</ele><time>2022-02-05T12:53:09Z</time></trkpt>
<trkpt lat="45.786163" lon="11.507682"><ele>809.85</ele><time>2022-02-05T12:53:11Z</time></trkpt>
<trkpt lat="45.786192" lon="11.50755"><ele>809.95</ele><time>2022-02-05T12:53:13Z</time></trkpt>
<trkpt lat="45.786237" lon="11.507146"><ele>807.92</ele><time>2022-02-05T12:53:14Z</time></trkpt>
<trkpt lat="45.786287" lon="11.507125"><ele>809.73</ele><time>2022-02-05T12:53:16Z</time></trkpt>
<trkpt lat="45.786311" lon="11.507164"><ele>811.51</ele><time>2022-02-05T12:53:18Z</time></trkpt>
<trkpt lat="45.786315" lon="11.507219"><ele>812.74</ele><time>2022-02-05T12:53:20Z</time></trkpt>
<trkpt lat="45.786291" lon="11.507586"><ele>813.25</ele><time>2022-02-05T12:53:22Z</time></trkpt>
<trkpt lat="45.786225" lon="11.508098"><ele>817.27</ele><time>2022-02-05T12:53:24Z</time></trkpt>
<trkpt lat="45.785802" lon="11.508699"><ele>821.28</ele><time>2022-02-05T12:53:26Z</time></trkpt>
<trkpt lat="45.785689" lon="11.508897"><ele>819.9</ele><time>2022-02-05T12:53:27Z</time></trkpt>
<trkpt lat="45.785685" lon="11.509091"><ele>821.12</ele><time>2022-02-05T12:53:29Z</time></trkpt>
<trkpt lat="45.785768" lon="11.509569"><ele>826.21</ele><time>2022-02-05T12:53:31Z</time></trkpt>
<trkpt lat="45.785934" lon="11.509901"><ele>831.07</ele><time>2022-02-05T12:53:33Z</time></trkpt>
<trkpt lat="45.786006" lon="11.510253"><ele>831.38</ele><time>2022-02-05T12:53:35Z</time></trkpt>
<trkpt lat="45.786022" lon="11.510682"><ele>831.92</ele><time>2022-02-05T12:53:37Z</time></trkpt>
<trkpt lat="45.785942" lon="11.510972"><ele>830.79</ele><time>2022-02-05T12:53:39Z</time></trkpt>
<trkpt lat="45.785982" lon="11.511341"><ele>835.59</ele><time>2022-02-05T12:53:40Z</time></trkpt>
<trkpt lat="45.786021" lon="11.512072"><ele>837.99</ele><time>2022-02-05T12:53:42Z</time></trkpt>
<trkpt lat="45.786119" lon="11.51251"><ele>842.23</ele><time>2022-02-05T12:53:44Z</time></trkpt>
<trkpt lat="45.786149" lon="11.512854"><ele>842.45</ele><time>2022-02-05T12:53:46Z</time></trkpt>
<trkpt lat="45.786149" lon="11.513223"><ele>844.54</ele><time>2022-02-05T12:53:48Z</time></trkpt>
<trkpt lat="45.786107" lon="11.513635"><ele>848.1</ele><time>2022-02-05T12:53:50Z</time></trkpt>
<trkpt lat="45.786201" lon="11.514321"><ele>854.49</ele><time>2022-02-05T12:53:52Z</time></trkpt>
<trkpt lat="45.786279" lon="11.514622"><ele>854.07</ele><time>2022-02-05T12:53:53Z</time></trkpt>
<trkpt lat="45.786471" lon="11.514991"><ele>857.71</ele><time>2022-02-05T12:53:55Z</time></trkpt>
<trkpt lat="45.786836" lon="11.515489"><ele>866.76</ele><time>2022-02-05T12:53:57Z</time></trkpt>
<trkpt lat="45.787033" lon="11.515823"><ele>867.68</ele><time>2022-02-05T12:53:59Z</time></trkpt>
<trkpt lat="45.787213" lon="11.516278"><ele>868.46</ele><time>2022-02-05T12:54:01Z</time></trkpt>
<trkpt lat="45.787416" lon="11.516922"><ele>872.68</ele><time>2022-02-05T12:54:03Z</time></trkpt>
<trkpt lat="45.787434" lon="11.517136"><ele>871.55</ele><time>2022-02-05T12:54:05Z</time></trkpt>
<trkpt lat="45.787668" lon="11.517789"><ele>875.98</ele><time>2022-02-05T12:54:06Z</time></trkpt>
<trkpt lat="45.787835" lon="11.518347"><ele>879.82</ele><time>2022-02-05T12:54:08Z</time></trkpt>
<trkpt lat="45.787943" lon="11.518827"><ele>882.52</ele><time>2022-02-05T12:54:10Z</time></trkpt>
<trkpt lat="45.787985" lon="11.519231"><ele>883.66</ele><time>2022-02-05T12:54:12Z</time></trkpt>
<trkpt lat="45.787985" lon="11.519729"><ele>884.95</ele><time>2022-02-05T12:54:14Z</time></trkpt>
<trkpt lat="45.787931" lon="11.520467"><ele>889.67</ele><time>2022-02-05T12:54:16Z</time></trkpt>
<trkpt lat="45.787859" lon="11.520999"><ele>892.18</ele><time>2022-02-05T12:54:18Z</time></trkpt>
<trkpt lat="45.787746" lon="11.521419"><ele>900.4</ele><time>2022-02-05T12:54:19Z</time></trkpt>
<trkpt lat="45.787405" lon="11.522312"><ele>897.31</ele><time>2022-02-05T12:54:21Z</time></trkpt>
<trkpt lat="45.787393" lon="11.522424"><ele>897.36</ele><time>2022-02-05T12:54:23Z</time></trkpt>
<trkpt lat="45.78744" lon="11.522475"><ele>899.53</ele><time>2022-02-05T12:54:25Z</time></trkpt>
<trkpt lat="45.787518" lon="11.522398"><ele>902.1</ele><time>2022-02-05T12:54:27Z</time></trkpt>
<trkpt lat="45.787656" lon="11.522123"><ele>905.89</ele><time>2022-02-05T12:54:29Z</time></trkpt>
<trkpt lat="45.787925" lon="11.521677"><ele>910.79</ele><time>2022-02-05T12:54:31Z</time></trkpt>
<trkpt lat="45.788177" lon="11.521145"><ele>912.41</ele><time>2022-02-05T12:54:32Z</time></trkpt>
<trkpt lat="45.788338" lon="11.520561"><ele>912.34</ele><time>2022-02-05T12:54:34Z</time></trkpt>
<trkpt lat="45.788482" lon="11.519969"><ele>913.98</ele><time>2022-02-05T12:54:36Z</time></trkpt>
<trkpt lat="45.78856" lon="11.519334"><ele>917.51</ele><time>2022-02-05T12:54:38Z</time></trkpt>
<trkpt lat="45.788643" lon="11.518355"><ele>925.99</ele><time>2022-02-05T12:54:40Z</time></trkpt>
<trkpt lat="45.788625" lon="11.517248"><ele>938.24</ele><time>2022-02-05T12:54:42Z</time></trkpt>
<trkpt lat="45.788566" lon="11.516476"><ele>942.14</ele><time>2022-02-05T12:54:44Z</time></trkpt>
<trkpt lat="45.788254" lon="11.514922"><ele>945.68</ele><time>2022-02-05T12:54:45Z</time></trkpt>
<trkpt lat="45.788254" lon="11.514708"><ele>947.04</ele><time>2022-02-05T12:54:47Z</time></trkpt>
<trkpt lat="45.788404" lon="11.513849"><ele>956.52</ele><time>2022-02-05T12:54:49Z</time></trkpt>
<trkpt lat="45.788386" lon="11.51324"><ele>958.28</ele><time>2022-02-05T12:54:51Z</time></trkpt>
<trkpt lat="45.788404" lon="11.512845"><ele>955.08</ele><time>2022-02-05T12:54:53Z</time></trkpt>
<trkpt lat="45.788476" lon="11.512502"><ele>951.24</ele><time>2022-02-05T12:54:55Z</time></trkpt>
<trkpt lat="45.788554" lon="11.512424"><ele>954.22</ele><time>2022-02-05T12:54:57Z</time></trkpt>
<trkpt lat="45.788566" lon="11.512588"><ele>958.32</ele><time>2022-02-05T12:54:59Z</time></trkpt>
<trkpt lat="45.788482" lon="11.512854"><ele>959.22</ele><time>2022-02-05T12:55:00Z</time></trkpt>
<trkpt lat="45.788476" lon="11.513411"><ele>961.73</ele><time>2022-02-05T12:55:02Z</time></trkpt>
<trkpt lat="45.788661" lon="11.514347"><ele>968.53</ele><time>2022-02-05T12:55:04Z</time></trkpt>
<trkpt lat="45.788661" lon="11.514742"><ele>967.9</ele><time>2022-02-05T12:55:06Z</time></trkpt>
<trkpt lat="45.788697" lon="11.514922"><ele>967.07</ele><time>2022-02-05T12:55:08Z</time></trkpt>
<trkpt lat="45.788829" lon="11.515223"><ele>967.56</ele><time>2022-02-05T12:55:10Z</time></trkpt>
<trkpt lat="45.789068" lon="11.515686"><ele>971.08</ele><time>2022-02-05T12:55:12Z</time></trkpt>
<trkpt lat="45.789296" lon="11.516359"><ele>975.72</ele><time>2022-02-05T12:55:13Z</time></trkpt>
<trkpt lat="45.789502" lon="11.517034"><ele>980.74</ele><time>2022-02-05T12:55:15Z</time></trkpt>
<trkpt lat="45.78992" lon="11.519406"><ele>994.79</ele><time>2022-02-05T12:55:17Z</time></trkpt>
<trkpt lat="45.790145" lon="11.519521"><ele>1001.74</ele><time>2022-02-05T12:55:19Z</time></trkpt>
<trkpt lat="45.790396" lon="11.519739"><ele>1008.86</ele><time>2022-02-05T12:55:21Z</time></trkpt>
<trkpt lat="45.790582" lon="11.520106"><ele>1012.87</ele><time>2022-02-05T12:55:23Z</time></trkpt>
<trkpt lat="45.790657" lon="11.520125"><ele>1015.6</ele><time>2022-02-05T12:55:25Z</time></trkpt>
<trkpt lat="45.790715" lon="11.519935"><ele>1018.86</ele><time>2022-02-05T12:55:26Z</time></trkpt>
<trkpt lat="45.790686" lon="11.519789"><ele>1019.51</ele><time>2022-02-05T12:55:28Z</time></trkpt>
<trkpt lat="45.7905" lon="11.519538"><ele>1016.4</ele><time>2022-02-05T12:55:30Z</time></trkpt>
<trkpt lat="45.790106" lon="11.51916"><ele>1005.63</ele><time>2022-02-05T12:55:32Z</time></trkpt>
<trkpt lat="45.79007" lon="11.518871"><ele>1006.09</ele><time>2022-02-05T12:55:34Z</time></trkpt>
<trkpt lat="45.790099" lon="11.518278"><ele>1010.91</ele><time>2022-02-05T12:55:36Z</time></trkpt>
<trkpt lat="45.790086" lon="11.517566"><ele>1018.94</ele><time>2022-02-05T12:55:38Z</time></trkpt>
<trkpt lat="45.79014" lon="11.517265"><ele>1023.9</ele><time>2022-02-05T12:55:39Z</time></trkpt>
<trkpt lat="45.790182" lon="11.516759"><ele>1023.35</ele><time>2022-02-05T12:55:41Z</time></trkpt>
<trkpt lat="45.79019" lon="11.516428"><ele>1023.53</ele><time>2022-02-05T12:55:43Z</time></trkpt>
<trkpt lat="45.790172" lon="11.516081"><ele>1023.58</ele><time>2022-02-05T12:55:45Z</time></trkpt>
<trkpt lat="45.790008" lon="11.514922"><ele>1030.57</ele><time>2022-02-05T12:55:47Z</time></trkpt>
<trkpt lat="45.789957" lon="11.514308"><ele>1032.19</ele><time>2022-02-05T12:55:49Z</time></trkpt>
<trkpt lat="45.78995" lon="11.513734"><ele>1033.93</ele><time>2022-02-05T12:55:51Z</time></trkpt>
<trkpt lat="45.790068" lon="11.513102"><ele>1035.31</ele><time>2022-02-05T12:55:52Z</time></trkpt>
<trkpt lat="45.790182" lon="11.512845"><ele>1037.56</ele><time>2022-02-05T12:55:54Z</time></trkpt>
<trkpt lat="45.79062" lon="11.512356"><ele>1044.91</ele><time>2022-02-05T12:55:56Z</time></trkpt>
<trkpt lat="45.790836" lon="11.512021"><ele>1049.36</ele><time>2022-02-05T12:55:58Z</time></trkpt>
<trkpt lat="45.791177" lon="11.511626"><ele>1060.13</ele><time>2022-02-05T12:56:00Z</time></trkpt>
<trkpt lat="45.791271" lon="11.511386"><ele>1063.46</ele><time>2022-02-05T12:56:02Z</time></trkpt>
<trkpt lat="45.791319" lon="11.51106"><ele>1064.24</ele><time>2022-02-05T12:56:04Z</time></trkpt>
<trkpt lat="45.791337" lon="11.510708"><ele>1061.91</ele><time>2022-02-05T12:56:05Z</time></trkpt>
<trkpt lat="45.791786" lon="11.508751"><ele>1076.14</ele><time>2022-02-05T12:56:07Z</time></trkpt>
<trkpt lat="45.791865" lon="11.50815"><ele>1074.92</ele><time>2022-02-05T12:56:09Z</time></trkpt>
<trkpt lat="45.791895" lon="11.507515"><ele>1074.99</ele><time>2022-02-05T12:56:11Z</time></trkpt>
<trkpt lat="45.791967" lon="11.507052"><ele>1076.67</ele><time>2022-02-05T12:56:13Z</time></trkpt>
<trkpt lat="45.792121" lon="11.506725"><ele>1078.93</ele><time>2022-02-05T12:56:15Z</time></trkpt>
<trkpt lat="45.792456" lon="11.506236"><ele>1081.84</ele><time>2022-02-05T12:56:17Z</time></trkpt>
<trkpt lat="45.793365" lon="11.505674"><ele>1092.94</ele><time>2022-02-05T12:56:18Z</time></trkpt>
<trkpt lat="45.793712" lon="11.505524"><ele>1089.13</ele><time>2022-02-05T12:56:20Z</time></trkpt>
<trkpt lat="45.794066" lon="11.505506"><ele>1092.89</ele><time>2022-02-05T12:56:22Z</time></trkpt>
<trkpt lat="45.794478" lon="11.505567"><ele>1099.26</ele><time>2022-02-05T12:56:24Z</time></trkpt>
<trkpt lat="45.794981" lon="11.505764"><ele>1112.92</ele><time>2022-02-05T12:56:26Z</time></trkpt>
<trkpt lat="45.795783" lon="11.506219"><ele>1114.58</ele><time>2022-02-05T12:56:28Z</time></trkpt>
<trkpt lat="45.795963" lon="11.506373"><ele>1118.0</ele><time>2022-02-05T12:56:30Z</time></trkpt>
<trkpt lat="45.79694" lon="11.507343"><ele>1128.09</ele><time>2022-02-05T12:56:31Z</time></trkpt>
<trkpt lat="45.797851" lon="11.508392"><ele>1136.06</ele><time>2022-02-05T12:56:33Z</time></trkpt>
<trkpt lat="45.797978" lon="11.508577"><ele>1138.15</ele><time>2022-02-05T12:56:35Z</time></trkpt>
<trkpt lat="45.798047" lon="11.508893"><ele>1145.17</ele><time>2022-02-05T12:56:37Z</time></trkpt>
<trkpt lat="45.798195" lon="11.509051"><ele>1147.71</ele><time>2022-02-05T12:56:39Z</time></trkpt>
<trkpt lat="45.798322" lon="11.509022"><ele>1146.9</ele><time>2022-02-05T12:56:41Z</time></trkpt>
<trkpt lat="45.798423" lon="11.508824"><ele>1145.58</ele><time>2022-02-05T12:56:43Z</time></trkpt>
<trkpt lat="45.798572" lon="11.508423"><ele>1146.22</ele><time>2022-02-05T12:56:44Z</time></trkpt>
<trkpt lat="45.798817" lon="11.507841"><ele>1152.35</ele><time>2022-02-05T12:56:46Z</time></trkpt>
<trkpt lat="45.798883" lon="11.507386"><ele>1153.32</ele><time>2022-02-05T12:56:48Z</time></trkpt>
<trkpt lat="45.798856" lon="11.507026"><ele>1152.92</ele><time>2022-02-05T12:56:50Z</time></trkpt>
<trkpt lat="45.798705" lon="11.506344"><ele>1150.6</ele><time>2022-02-05T12:56:52Z</time></trkpt>
<trkpt lat="45.798644" lon="11.505646"><ele>1150.48</ele><time>2022-02-05T12:56:54Z</time></trkpt>
<trkpt lat="45.798652" lon="11.505592"><ele>1151.1</ele><time>2022-02-05T12:56:56Z</time></trkpt>
<trkpt lat="45.798696" lon="11.505559"><ele>1152.75</ele><time>2022-02-05T12:56:57Z</time></trkpt>
<trkpt lat="45.798733" lon="11.505586"><ele>1153.83</ele><time>2022-02-05T12:56:59Z</time></trkpt>
<trkpt lat="45.798758" lon="11.505648"><ele>1154.43</ele><time>2022-02-05T12:57:01Z</time></trkpt>
<trkpt lat="45.798792" lon="11.506125"><ele>1155.14</ele><time>2022-02-05T12:57:03Z</time></trkpt>
<trkpt lat="45.798865" lon="11.506302"><ele>1157.95</ele><time>2022-02-05T12:57:05Z</time></trkpt>
<trkpt lat="45.799244" lon="11.506983"><ele>1169.19</ele><time>2022-02-05T12:57:07Z</time></trkpt>
<trkpt lat="45.799363" lon="11.507472"><ele>1171.96</ele><time>2022-02-05T12:57:09Z</time></trkpt>
<trkpt lat="45.799447" lon="11.50821"><ele>1174.64</ele><time>2022-02-05T12:57:11Z</time></trkpt>
<trkpt lat="45.799423" lon="11.508528"><ele>1175.09</ele><time>2022-02-05T12:57:12Z</time></trkpt>
<trkpt lat="45.799297" lon="11.509178"><ele>1172.24</ele><time>2022-02-05T12:57:14Z</time></trkpt>
<trkpt lat="45.799348" lon="11.509392"><ele>1174.14</ele><time>2022-02-05T12:57:16Z</time></trkpt>
<trkpt lat="45.799533" lon="11.509851"><ele>1180.39</ele><time>2022-02-05T12:57:18Z</time></trkpt>
<trkpt lat="45.799688" lon="11.50999"><ele>1183.41</ele><time>2022-02-05T12:57:20Z</time></trkpt>
<trkpt lat="45.799906" lon="11.510263"><ele>1187.93</ele><time>2022-02-05T12:57:22Z</time></trkpt>
<trkpt lat="45.800003" lon="11.510483"><ele>1190.06</ele><time>2022-02-05T12:57:24Z</time></trkpt>
<trkpt lat="45.799986" lon="11.510777"><ele>1191.24</ele><time>2022-02-05T12:57:25Z</time></trkpt>
<trkpt lat="45.79989" lon="11.511309"><ele>1193.29</ele><time>2022-02-05T12:57:27Z</time></trkpt>
<trkpt lat="45.799842" lon="11.511789"><ele>1192.18</ele><time>2022-02-05T12:57:29Z</time></trkpt>
<trkpt lat="45.79992" lon="11.512038"><ele>1195.78</ele><time>2022-02-05T12:57:31Z</time></trkpt>
<trkpt lat="45.800069" lon="11.512339"><ele>1202.29</ele><time>2022-02-05T12:57:33Z</time></trkpt>
<trkpt lat="45.800269" lon="11.512819"><ele>1209.43</ele><time>2022-02-05T12:57:35Z</time></trkpt>
<trkpt lat="45.800295" lon="11.513464"><ele>1210.45</ele><time>2022-02-05T12:57:37Z</time></trkpt>
<trkpt lat="45.800186" lon="11.514418"><ele>1215.87</ele><time>2022-02-05T12:57:38Z</time></trkpt>
<trkpt lat="45.800111" lon="11.514914"><ele>1216.39</ele><time>2022-02-05T12:57:40Z</time></trkpt>
<trkpt lat="45.800124" lon="11.515206"><ele>1218.29</ele><time>2022-02-05T12:57:42Z</time></trkpt>
<trkpt lat="45.800171" lon="11.515566"><ele>1222.38</ele><time>2022-02-05T12:57:44Z</time></trkpt>
<trkpt lat="45.800111" lon="11.515815"><ele>1222.86</ele><time>2022-02-05T12:57:46Z</time></trkpt>
<trkpt lat="45.800105" lon="11.516115"><ele>1223.91</ele><time>2022-02-05T12:57:48Z</time></trkpt>
<trkpt lat="45.800145" lon="11.516587"><ele>1225.22</ele><time>2022-02-05T12:57:50Z</time></trkpt>
<trkpt lat="45.800279" lon="11.516991"><ele>1228.2</ele><time>2022-02-05T12:57:51Z</time></trkpt>
<trkpt lat="45.800291" lon="11.517343"><ele>1230.7</ele><time>2022-02-05T12:57:53Z</time></trkpt>
<trkpt lat="45.800255" lon="11.517677"><ele>1233.03</ele><time>2022-02-05T12:57:55Z</time></trkpt>
<trkpt lat="45.800165" lon="11.517935"><ele>1234.02</ele><time>2022-02-05T12:57:57Z</time></trkpt>
<trkpt lat="45.799812" lon="11.51869"><ele>1237.38</ele><time>2022-02-05T12:57:59Z</time></trkpt>
<trkpt lat="45.799652" lon="11.518954"><ele>1238.54</ele><time>2022-02-05T12:58:01Z</time></trkpt>
<trkpt lat="45.799629" lon="11.519039"><ele>1238.07</ele><time>2022-02-05T12:58:03Z</time></trkpt>
<trkpt lat="45.799641" lon="11.519121"><ele>1237.36</ele><time>2022-02-05T12:58:05Z</time></trkpt>
<trkpt lat="45.79946" lon="11.519452"><ele>1232.78</ele><time>2022-02-05T12:58:06Z</time></trkpt>
<trkpt lat="45.799105" lon="11.519927"><ele>1227.27</ele><time>2022-02-05T12:58:08Z</time></trkpt>
<trkpt lat="45.798994" lon="11.520125"><ele>1224.41</ele><time>2022-02-05T12:58:09Z</time></trkpt>
<trkpt lat="45.798951" lon="11.520404"><ele>1223.1</ele><time>2022-02-05T12:58:10Z</time></trkpt>
<trkpt lat="45.798901" lon="11.521088"><ele>1225.18</ele><time>2022-02-05T12:58:12Z</time></trkpt>
<trkpt lat="45.798944" lon="11.521683"><ele>1230.43</ele><time>2022-02-05T12:58:13Z</time></trkpt>
<trkpt lat="45.798937" lon="11.522172"><ele>1230.18</ele><time>2022-02-05T12:58:14Z</time></trkpt>
<trkpt lat="45.798976" lon="11.522324"><ele>1230.28</ele><time>2022-02-05T12:58:16Z</time></trkpt>
<trkpt lat="45.7992" lon="11.522735"><ele>1230.42</ele><time>2022-02-05T12:58:17Z</time></trkpt>
<trkpt lat="45.799294" lon="11.522941"><ele>1231.53</ele><time>2022-02-05T12:58:18Z</time></trkpt>
<trkpt lat="45.799354" lon="11.523132"><ele>1232.13</ele><time>2022-02-05T12:58:20Z</time></trkpt>
<trkpt lat="45.799385" lon="11.523422"><ele>1233.5</ele><time>2022-02-05T12:58:21Z</time></trkpt>
<trkpt lat="45.79937" lon="11.523628"><ele>1234.54</ele><time>2022-02-05T12:58:23Z</time></trkpt>
<trkpt lat="45.799333" lon="11.523851"><ele>1235.66</ele><time>2022-02-05T12:58:24Z</time></trkpt>
<trkpt lat="45.799183" lon="11.524307"><ele>1239.78</ele><time>2022-02-05T12:58:25Z</time></trkpt>
<trkpt lat="45.799174" lon="11.524454"><ele>1241.13</ele><time>2022-02-05T12:58:27Z</time></trkpt>
<trkpt lat="45.799241" lon="11.52465"><ele>1242.54</ele><time>2022-02-05T12:58:28Z</time></trkpt>
<trkpt lat="45.799432" lon="11.524996"><ele>1246.69</ele><time>2022-02-05T12:58:29Z</time></trkpt>
<trkpt lat="45.799477" lon="11.525144"><ele>1247.54</ele><time>2022-02-05T12:58:31Z</time></trkpt>
<trkpt lat="45.799479" lon="11.525339"><ele>1247.29</ele><time>2022-02-05T12:58:32Z</time></trkpt>
<trkpt lat="45.799354" lon="11.526326"><ele>1248.43</ele><time>2022-02-05T12:58:34Z</time></trkpt>
<trkpt lat="45.799211" lon="11.52685"><ele>1246.25</ele><time>2022-02-05T12:58:35Z</time></trkpt>
<trkpt lat="45.799107" lon="11.527823"><ele>1246.66</ele><time>2022-02-05T12:58:36Z</time></trkpt>
<trkpt lat="45.799071" lon="11.528309"><ele>1246.16</ele><time>2022-02-05T12:58:38Z</time></trkpt>
<trkpt lat="45.799058" lon="11.52877"><ele>1246.76</ele><time>2022-02-05T12:58:39Z</time></trkpt>
<trkpt lat="45.799024" lon="11.528936"><ele>1246.75</ele><time>2022-02-05T12:58:40Z</time></trkpt>
<trkpt lat="45.798942" lon="11.529162"><ele>1245.7</ele><time>2022-02-05T12:58:42Z</time></trkpt>
<trkpt lat="45.798903" lon="11.529317"><ele>1245.05</ele><time>2022-02-05T12:58:43Z</time></trkpt>
<trkpt lat="45.798858" lon="11.529934"><ele>1248.21</ele><time>2022-02-05T12:58:44Z</time></trkpt>
<trkpt lat="45.798877" lon="11.530409"><ele>1249.93</ele><time>2022-02-05T12:58:46Z</time></trkpt>
<trkpt lat="45.798901" lon="11.530615"><ele>1249.7</ele><time>2022-02-05T12:58:47Z</time></trkpt>
<trkpt lat="45.798942" lon="11.530744"><ele>1249.49</ele><time>2022-02-05T12:58:49Z</time></trkpt>
<trkpt lat="45.799011" lon="11.530846"><ele>1250.3</ele><time>2022-02-05T12:58:50Z</time></trkpt>
<trkpt lat="45.79911" lon="11.530889"><ele>1252.26</ele><time>2022-02-05T12:58:51Z</time></trkpt>
<trkpt lat="45.799991" lon="11.530913"><ele>1255.6</ele><time>2022-02-05T12:58:53Z</time></trkpt>
<trkpt lat="45.800184" lon="11.530932"><ele>1258.3</ele><time>2022-02-05T12:58:54Z</time></trkpt>
<trkpt lat="45.80026" lon="11.530969"><ele>1258.78</ele><time>2022-02-05T12:58:55Z</time></trkpt>
<trkpt lat="45.800307" lon="11.531045"><ele>1258.26</ele><time>2022-02-05T12:58:57Z</time></trkpt>
<trkpt lat="45.800337" lon="11.531173"><ele>1257.26</ele><time>2022-02-05T12:58:58Z</time></trkpt>
<trkpt lat="45.800313" lon="11.531299"><ele>1255.65</ele><time>2022-02-05T12:58:59Z</time></trkpt>
<trkpt lat="45.800012" lon="11.532163"><ele>1258.28</ele><time>2022-02-05T12:59:01Z</time></trkpt>
<trkpt lat="45.800002" lon="11.532308"><ele>1259.02</ele><time>2022-02-05T12:59:02Z</time></trkpt>
<trkpt lat="45.800045" lon="11.532402"><ele>1259.38</ele><time>2022-02-05T12:59:04Z</time></trkpt>
<trkpt lat="45.800139" lon="11.532482"><ele>1260.03</ele><time>2022-02-05T12:59:05Z</time></trkpt>
<trkpt lat="45.800685" lon="11.532852"><ele>1260.91</ele><time>2022-02-05T12:59:06Z</time></trkpt>
<trkpt lat="45.800792" lon="11.532893"><ele>1262.09</ele><time>2022-02-05T12:59:08Z</time></trkpt>
<trkpt lat="45.801033" lon="11.532914"><ele>1263.96</ele><time>2022-02-05T12:59:09Z</time></trkpt>
<trkpt lat="45.801111" lon="11.532992"><ele>1263.69</ele><time>2022-02-05T12:59:10Z</time></trkpt>
<trkpt lat="45.801356" lon="11.533434"><ele>1262.51</ele><time>2022-02-05T12:59:12Z</time></trkpt>
<trkpt lat="45.801453" lon="11.533528"><ele>1261.79</ele><time>2022-02-05T12:59:13Z</time></trkpt>
<trkpt lat="45.801552" lon="11.533584"><ele>1261.12</ele><time>2022-02-05T12:59:15Z</time></trkpt>
<trkpt lat="45.801659" lon="11.533584"><ele>1261.54</ele><time>2022-02-05T12:59:16Z</time></trkpt>
<trkpt lat="45.802246" lon="11.533491"><ele>1264.9</ele><time>2022-02-05T12:59:17Z</time></trkpt>
<trkpt lat="45.802336" lon="11.533461"><ele>1264.5</ele><time>2022-02-05T12:59:19Z</time></trkpt>
<trkpt lat="45.802411" lon="11.533399"><ele>1265.13</ele><time>2022-02-05T12:59:20Z</time></trkpt>
<trkpt lat="45.802476" lon="11.533287"><ele>1266.99</ele><time>2022-02-05T12:59:21Z</time></trkpt>
<trkpt lat="45.802519" lon="11.533139"><ele>1269.59</ele><time>2022-02-05T12:59:23Z</time></trkpt>
<trkpt lat="45.802568" lon="11.533069"><ele>1271.21</ele><time>2022-02-05T12:59:24Z</time></trkpt>
<trkpt lat="45.80265" lon="11.53304"><ele>1272.39</ele><time>2022-02-05T12:59:25Z</time></trkpt>
<trkpt lat="45.802758" lon="11.533044"><ele>1273.1</ele><time>2022-02-05T12:59:27Z</time></trkpt>
<trkpt lat="45.802835" lon="11.533078"><ele>1272.68</ele><time>2022-02-05T12:59:28Z</time></trkpt>
<trkpt lat="45.803007" lon="11.533244"><ele>1270.2</ele><time>2022-02-05T12:59:30Z</time></trkpt>
<trkpt lat="45.80311" lon="11.533303"><ele>1270.2</ele><time>2022-02-05T12:59:31Z</time></trkpt>
<trkpt lat="45.803447" lon="11.533383"><ele>1272.78</ele><time>2022-02-05T12:59:32Z</time></trkpt>
<trkpt lat="45.803538" lon="11.533432"><ele>1273.21</ele><time>2022-02-05T12:59:34Z</time></trkpt>
<trkpt lat="45.803666" lon="11.533544"><ele>1272.61</ele><time>2022-02-05T12:59:35Z</time></trkpt>
<trkpt lat="45.804088" lon="11.534051"><ele>1269.78</ele><time>2022-02-05T12:59:36Z</time></trkpt>
<trkpt lat="45.804208" lon="11.534123"><ele>1270.05</ele><time>2022-02-05T12:59:38Z</time></trkpt>
<trkpt lat="45.804513" lon="11.53425"><ele>1270.86</ele><time>2022-02-05T12:59:39Z</time></trkpt>
<trkpt lat="45.80479" lon="11.534413"><ele>1272.25</ele><time>2022-02-05T12:59:41Z</time></trkpt>
<trkpt lat="45.80491" lon="11.534429"><ele>1272.05</ele><time>2022-02-05T12:59:42Z</time></trkpt>
<trkpt lat="45.805262" lon="11.534582"><ele>1273.85</ele><time>2022-02-05T12:59:43Z</time></trkpt>
<trkpt lat="45.805211" lon="11.534751"><ele>1273.97</ele><time>2022-02-05T12:59:45Z</time></trkpt>
<trkpt lat="45.805189" lon="11.535089"><ele>1272.56</ele><time>2022-02-05T12:59:47Z</time></trkpt>
<trkpt lat="45.805138" lon="11.535349"><ele>1270.35</ele><time>2022-02-05T12:59:49Z</time></trkpt>
<trkpt lat="45.805021" lon="11.535674"><ele>1267.47</ele><time>2022-02-05T12:59:51Z</time></trkpt>
<trkpt lat="45.80494" lon="11.535966"><ele>1267.71</ele><time>2022-02-05T12:59:53Z</time></trkpt>
<trkpt lat="45.804852" lon="11.536181"><ele>1267.0</ele><time>2022-02-05T12:59:56Z</time></trkpt>
<trkpt lat="45.804723" lon="11.53635"><ele>1263.89</ele><time>2022-02-05T12:59:58Z</time></trkpt>
<trkpt lat="45.804645" lon="11.536505"><ele>1261.63</ele><time>2022-02-05T13:00:00Z</time></trkpt>
<trkpt lat="45.804589" lon="11.536701"><ele>1260.07</ele><time>2022-02-05T13:00:02Z</time></trkpt>
<trkpt lat="45.804589" lon="11.536956"><ele>1259.09</ele><time>2022-02-05T13:00:04Z</time></trkpt>
<trkpt lat="45.804697" lon="11.538844"><ele>1252.12</ele><time>2022-02-05T13:00:06Z</time></trkpt>
<trkpt lat="45.804645" lon="11.539035"><ele>1251.82</ele><time>2022-02-05T13:00:08Z</time></trkpt>
<trkpt lat="45.804508" lon="11.539287"><ele>1249.27</ele><time>2022-02-05T13:00:10Z</time></trkpt>
<trkpt lat="45.804347" lon="11.539515"><ele>1247.44</ele><time>2022-02-05T13:00:12Z</time></trkpt>
<trkpt lat="45.804166" lon="11.539649"><ele>1247.41</ele><time>2022-02-05T13:00:14Z</time></trkpt>
<trkpt lat="45.80372" lon="11.539851"><ele>1241.44</ele><time>2022-02-05T13:00:16Z</time></trkpt>
<trkpt lat="45.803199" lon="11.540048"><ele>1236.69</ele><time>2022-02-05T13:00:18Z</time></trkpt>
<trkpt lat="45.802784" lon="11.54025"><ele>1232.56</ele><time>2022-02-05T13:00:20Z</time></trkpt>
<trkpt lat="45.80264" lon="11.540357"><ele>1231.25</ele><time>2022-02-05T13:00:22Z</time></trkpt>
<trkpt lat="45.802532" lon="11.540518"><ele>1230.66</ele><time>2022-02-05T13:00:24Z</time></trkpt>
<trkpt lat="45.802207" lon="11.541156"><ele>1226.25</ele><time>2022-02-05T13:00:26Z</time></trkpt>
<trkpt lat="45.802143" lon="11.541315"><ele>1226.81</ele><time>2022-02-05T13:00:28Z</time></trkpt>
<trkpt lat="45.8021" lon="11.541738"><ele>1231.52</ele><time>2022-02-05T13:00:30Z</time></trkpt>
<trkpt lat="45.802044" lon="11.541931"><ele>1231.78</ele><time>2022-02-05T13:00:32Z</time></trkpt>
<trkpt lat="45.801905" lon="11.542068"><ele>1228.86</ele><time>2022-02-05T13:00:34Z</time></trkpt>
<trkpt lat="45.801517" lon="11.542261"><ele>1223.06</ele><time>2022-02-05T13:00:36Z</time></trkpt>
<trkpt lat="45.80138" lon="11.54239"><ele>1222.32</ele><time>2022-02-05T13:00:38Z</time></trkpt>
<trkpt lat="45.801292" lon="11.542554"><ele>1221.91</ele><time>2022-02-05T13:00:40Z</time></trkpt>
<trkpt lat="45.80121" lon="11.543106"><ele>1219.01</ele><time>2022-02-05T13:00:42Z</time></trkpt>
<trkpt lat="45.801154" lon="11.543653"><ele>1211.34</ele><time>2022-02-05T13:00:44Z</time></trkpt>
<trkpt lat="45.801189" lon="11.543849"><ele>1212.05</ele><time>2022-02-05T13:00:46Z</time></trkpt>
<trkpt lat="45.801277" lon="11.543964"><ele>1213.91</ele><time>2022-02-05T13:00:48Z</time></trkpt>
<trkpt lat="45.80149" lon="11.544093"><ele>1217.19</ele><time>2022-02-05T13:00:50Z</time></trkpt>
<trkpt lat="45.801588" lon="11.544198"><ele>1217.14</ele><time>2022-02-05T13:00:52Z</time></trkpt>
<trkpt lat="45.801631" lon="11.544362"><ele>1216.16</ele><time>2022-02-05T13:00:54Z</time></trkpt>
<trkpt lat="45.801649" lon="11.544761"><ele>1210.91</ele><time>2022-02-05T13:00:56Z</time></trkpt>
<trkpt lat="45.801685" lon="11.544997"><ele>1207.51</ele><time>2022-02-05T13:00:59Z</time></trkpt>
<trkpt lat="45.801773" lon="11.545206"><ele>1205.04</ele><time>2022-02-05T13:01:01Z</time></trkpt>
<trkpt lat="45.801922" lon="11.545343"><ele>1206.42</ele><time>2022-02-05T13:01:03Z</time></trkpt>
<trkpt lat="45.802229" lon="11.545544"><ele>1209.22</ele><time>2022-02-05T13:01:05Z</time></trkpt>
<trkpt lat="45.802528" lon="11.545689"><ele>1207.85</ele><time>2022-02-05T13:01:07Z</time></trkpt>
<trkpt lat="45.802653" lon="11.545818"><ele>1206.41</ele><time>2022-02-05T13:01:09Z</time></trkpt>
<trkpt lat="45.802812" lon="11.546059"><ele>1202.05</ele><time>2022-02-05T13:01:11Z</time></trkpt>
<trkpt lat="45.803145" lon="11.546776"><ele>1190.1</ele><time>2022-02-05T13:01:13Z</time></trkpt>
<trkpt lat="45.803231" lon="11.546856"><ele>1190.54</ele><time>2022-02-05T13:01:15Z</time></trkpt>
<trkpt lat="45.803514" lon="11.546987"><ele>1194.22</ele><time>2022-02-05T13:01:17Z</time></trkpt>
<trkpt lat="45.803596" lon="11.547073"><ele>1194.79</ele><time>2022-02-05T13:01:19Z</time></trkpt>
<trkpt lat="45.803628" lon="11.547218"><ele>1193.48</ele><time>2022-02-05T13:01:21Z</time></trkpt>
<trkpt lat="45.803618" lon="11.547516"><ele>1188.98</ele><time>2022-02-05T13:01:23Z</time></trkpt>
<trkpt lat="45.80365" lon="11.547784"><ele>1186.04</ele><time>2022-02-05T13:01:25Z</time></trkpt>
<trkpt lat="45.803794" lon="11.548208"><ele>1183.45</ele><time>2022-02-05T13:01:27Z</time></trkpt>
<trkpt lat="45.80397" lon="11.548503"><ele>1182.46</ele><time>2022-02-05T13:01:29Z</time></trkpt>
<trkpt lat="45.80408" lon="11.548573"><ele>1184.26</ele><time>2022-02-05T13:01:31Z</time></trkpt>
<trkpt lat="45.804205" lon="11.548618"><ele>1186.85</ele><time>2022-02-05T13:01:33Z</time></trkpt>
<trkpt lat="45.804252" lon="11.548688"><ele>1186.86</ele><time>2022-02-05T13:01:35Z</time></trkpt>
<trkpt lat="45.804282" lon="11.548897"><ele>1184.25</ele><time>2022-02-05T13:01:37Z</time></trkpt>
<trkpt lat="45.804282" lon="11.549106"><ele>1182.3</ele><time>2022-02-05T13:01:39Z</time></trkpt>
<trkpt lat="45.804243" lon="11.549428"><ele>1179.27</ele><time>2022-02-05T13:01:41Z</time></trkpt>
<trkpt lat="45.804234" lon="11.549691"><ele>1178.5</ele><time>2022-02-05T13:01:43Z</time></trkpt>
<trkpt lat="45.804256" lon="11.549916"><ele>1178.7</ele><time>2022-02-05T13:01:45Z</time></trkpt>
<trkpt lat="45.804252" lon="11.550083"><ele>1178.74</ele><time>2022-02-05T13:01:47Z</time></trkpt>
<trkpt lat="45.80419" lon="11.550195"><ele>1178.07</ele><time>2022-02-05T13:01:49Z</time></trkpt>
<trkpt lat="45.804069" lon="11.550262"><ele>1177.26</ele><time>2022-02-05T13:01:51Z</time></trkpt>
<trkpt lat="45.803773" lon="11.550313"><ele>1173.74</ele><time>2022-02-05T13:01:53Z</time></trkpt>
<trkpt lat="45.803654" lon="11.55038"><ele>1171.09</ele><time>2022-02-05T13:01:55Z</time></trkpt>
<trkpt lat="45.80332" lon="11.550734"><ele>1161.47</ele><time>2022-02-05T13:01:57Z</time></trkpt>
<trkpt lat="45.803229" lon="11.550895"><ele>1157.58</ele><time>2022-02-05T13:01:59Z</time></trkpt>
<trkpt lat="45.803179" lon="11.551099"><ele>1154.4</ele><time>2022-02-05T13:02:02Z</time></trkpt>
<trkpt lat="45.803162" lon="11.5513"><ele>1152.5</ele><time>2022-02-05T13:02:04Z</time></trkpt>
<trkpt lat="45.803185" lon="11.551569"><ele>1151.44</ele><time>2022-02-05T13:02:06Z</time></trkpt>
<trkpt lat="45.803278" lon="11.551893"><ele>1152.16</ele><time>2022-02-05T13:02:08Z</time></trkpt>
<trkpt lat="45.803979" lon="11.553996"><ele>1140.8</ele><time>2022-02-05T13:02:10Z</time></trkpt>
<trkpt lat="45.804175" lon="11.554374"><ele>1141.23</ele><time>2022-02-05T13:02:12Z</time></trkpt>
<trkpt lat="45.804671" lon="11.554738"><ele>1147.22</ele><time>2022-02-05T13:02:14Z</time></trkpt>
<trkpt lat="45.805131" lon="11.555355"><ele>1144.62</ele><time>2022-02-05T13:02:16Z</time></trkpt>
<trkpt lat="45.805438" lon="11.555881"><ele>1142.2</ele><time>2022-02-05T13:02:18Z</time></trkpt>
<trkpt lat="45.806017" lon="11.556519"><ele>1147.14</ele><time>2022-02-05T13:02:20Z</time></trkpt>
<trkpt lat="45.806574" lon="11.557206"><ele>1147.06</ele><time>2022-02-05T13:02:22Z</time></trkpt>
<trkpt lat="45.80687" lon="11.557351"><ele>1152.07</ele><time>2022-02-05T13:02:24Z</time></trkpt>
<trkpt lat="45.807132" lon="11.557598"><ele>1153.96</ele><time>2022-02-05T13:02:26Z</time></trkpt>
<trkpt lat="45.807464" lon="11.558113"><ele>1150.97</ele><time>2022-02-05T13:02:28Z</time></trkpt>
<trkpt lat="45.807722" lon="11.558231"><ele>1152.09</ele><time>2022-02-05T13:02:30Z</time></trkpt>
<trkpt lat="45.808078" lon="11.558236"><ele>1156.35</ele><time>2022-02-05T13:02:32Z</time></trkpt>
<trkpt lat="45.808603" lon="11.558087"><ele>1163.01</ele><time>2022-02-05T13:02:34Z</time></trkpt>
<trkpt lat="45.808743" lon="11.558136"><ele>1163.33</ele><time>2022-02-05T13:02:36Z</time></trkpt>
<trkpt lat="45.80883" lon="11.5584"><ele>1160.88</ele><time>2022-02-05T13:02:38Z</time></trkpt>
<trkpt lat="45.808801" lon="11.558804"><ele>1158.77</ele><time>2022-02-05T13:02:40Z</time></trkpt>
<trkpt lat="45.808705" lon="11.55916"><ele>1157.0</ele><time>2022-02-05T13:02:42Z</time></trkpt>
<trkpt lat="45.808535" lon="11.560415"><ele>1154.37</ele><time>2022-02-05T13:02:44Z</time></trkpt>
<trkpt lat="45.808662" lon="11.561483"><ele>1148.26</ele><time>2022-02-05T13:02:46Z</time></trkpt>
<trkpt lat="45.808836" lon="11.562226"><ele>1143.66</ele><time>2022-02-05T13:02:48Z</time></trkpt>
<trkpt lat="45.809243" lon="11.562857"><ele>1150.86</ele><time>2022-02-05T13:02:50Z</time></trkpt>
<trkpt lat="45.809337" lon="11.563175"><ele>1148.15</ele><time>2022-02-05T13:02:52Z</time></trkpt>
<trkpt lat="45.809362" lon="11.563956"><ele>1140.88</ele><time>2022-02-05T13:02:54Z</time></trkpt>
<trkpt lat="45.80951" lon="11.564922"><ele>1137.82</ele><time>2022-02-05T13:02:56Z</time></trkpt>
<trkpt lat="45.80957" lon="11.566402"><ele>1133.72</ele><time>2022-02-05T13:02:58Z</time></trkpt>
<trkpt lat="45.809464" lon="11.567089"><ele>1125.77</ele><time>2022-02-05T13:03:00Z</time></trkpt>
<trkpt lat="45.809621" lon="11.567865"><ele>1126.79</ele><time>2022-02-05T13:03:02Z</time></trkpt>
<trkpt lat="45.809659" lon="11.568573"><ele>1119.96</ele><time>2022-02-05T13:03:05Z</time></trkpt>
<trkpt lat="45.809786" lon="11.569091"><ele>1120.41</ele><time>2022-02-05T13:03:07Z</time></trkpt>
<trkpt lat="45.809778" lon="11.570244"><ele>1117.28</ele><time>2022-02-05T13:03:09Z</time></trkpt>
<trkpt lat="45.80985" lon="11.570795"><ele>1115.37</ele><time>2022-02-05T13:03:11Z</time></trkpt>
<trkpt lat="45.809964" lon="11.571262"><ele>1116.7</ele><time>2022-02-05T13:03:13Z</time></trkpt>
<trkpt lat="45.809981" lon="11.571665"><ele>1117.04</ele><time>2022-02-05T13:03:15Z</time></trkpt>
<trkpt lat="45.809812" lon="11.57247"><ele>1109.86</ele><time>2022-02-05T13:03:17Z</time></trkpt>
<trkpt lat="45.809744" lon="11.573369"><ele>1111.29</ele><time>2022-02-05T13:03:19Z</time></trkpt>
<trkpt lat="45.809515" lon="11.574345"><ele>1097.56</ele><time>2022-02-05T13:03:21Z</time></trkpt>
<trkpt lat="45.809689" lon="11.575362"><ele>1101.96</ele><time>2022-02-05T13:03:23Z</time></trkpt>
<trkpt lat="45.80968" lon="11.575973"><ele>1095.48</ele><time>2022-02-05T13:03:25Z</time></trkpt>
<trkpt lat="45.810108" lon="11.576583"><ele>1101.9</ele><time>2022-02-05T13:03:27Z</time></trkpt>
<trkpt lat="45.810265" lon="11.576969"><ele>1103.23</ele><time>2022-02-05T13:03:29Z</time></trkpt>
<trkpt lat="45.810197" lon="11.578466"><ele>1093.61</ele><time>2022-02-05T13:03:31Z</time></trkpt>
<trkpt lat="45.810265" lon="11.579696"><ele>1091.46</ele><time>2022-02-05T13:03:33Z</time></trkpt>
<trkpt lat="45.810358" lon="11.580213"><ele>1089.78</ele><time>2022-02-05T13:03:35Z</time></trkpt>
<trkpt lat="45.810477" lon="11.580451"><ele>1091.22</ele><time>2022-02-05T13:03:37Z</time></trkpt>
<trkpt lat="45.810863" lon="11.581354"><ele>1097.7</ele><time>2022-02-05T13:03:39Z</time></trkpt>
<trkpt lat="45.810948" lon="11.581668"><ele>1094.65</ele><time>2022-02-05T13:03:41Z</time></trkpt>
<trkpt lat="45.811011" lon="11.58199"><ele>1093.04</ele><time>2022-02-05T13:03:43Z</time></trkpt>
<trkpt lat="45.811156" lon="11.582482"><ele>1091.42</ele><time>2022-02-05T13:03:45Z</time></trkpt>
<trkpt lat="45.811262" lon="11.582779"><ele>1090.57</ele><time>2022-02-05T13:03:47Z</time></trkpt>
<trkpt lat="45.811541" lon="11.583357"><ele>1093.59</ele><time>2022-02-05T13:03:49Z</time></trkpt>
<trkpt lat="45.811953" lon="11.584555"><ele>1089.92</ele><time>2022-02-05T13:03:51Z</time></trkpt>
<trkpt lat="45.812284" lon="11.585607"><ele>1087.2</ele><time>2022-02-05T13:03:53Z</time></trkpt>
<trkpt lat="45.81264" lon="11.587447"><ele>1082.31</ele><time>2022-02-05T13:03:54Z</time></trkpt>
<trkpt lat="45.812814" lon="11.588193"><ele>1082.82</ele><time>2022-02-05T13:03:56Z</time></trkpt>
<trkpt lat="45.812848" lon="11.588448"><ele>1081.98</ele><time>2022-02-05T13:03:58Z</time></trkpt>
<trkpt lat="45.812894" lon="11.589063"><ele>1077.89</ele><time>2022-02-05T13:04:00Z</time></trkpt>
<trkpt lat="45.812983" lon="11.589279"><ele>1077.55</ele><time>2022-02-05T13:04:02Z</time></trkpt>
<trkpt lat="45.813136" lon="11.589449"><ele>1078.49</ele><time>2022-02-05T13:04:04Z</time></trkpt>
<trkpt lat="45.813301" lon="11.589712"><ele>1074.79</ele><time>2022-02-05T13:04:06Z</time></trkpt>
<trkpt lat="45.813441" lon="11.589975"><ele>1072.31</ele><time>2022-02-05T13:04:08Z</time></trkpt>
<trkpt lat="45.813638" lon="11.590442"><ele>1069.94</ele><time>2022-02-05T13:04:10Z</time></trkpt>
<trkpt lat="45.813836" lon="11.590528"><ele>1070.25</ele><time>2022-02-05T13:04:12Z</time></trkpt>
<trkpt lat="45.814094" lon="11.590566"><ele>1071.24</ele><time>2022-02-05T13:04:14Z</time></trkpt>
<trkpt lat="45.814266" lon="11.590652"><ele>1070.05</ele><time>2022-02-05T13:04:16Z</time></trkpt>
<trkpt lat="45.814539" lon="11.590834"><ele>1068.01</ele><time>2022-02-05T13:04:18Z</time></trkpt>
<trkpt lat="45.814606" lon="11.590968"><ele>1067.57</ele><time>2022-02-05T13:04:20Z</time></trkpt>
<trkpt lat="45.814629" lon="11.591097"><ele>1066.77</ele><time>2022-02-05T13:04:22Z</time></trkpt>
<trkpt lat="45.814599" lon="11.591204"><ele>1065.92</ele><time>2022-02-05T13:04:24Z</time></trkpt>
<trkpt lat="45.814385" lon="11.59161"><ele>1059.37</ele><time>2022-02-05T13:04:26Z</time></trkpt>
<trkpt lat="45.814357" lon="11.591766"><ele>1057.47</ele><time>2022-02-05T13:04:28Z</time></trkpt>
<trkpt lat="45.814377" lon="11.591967"><ele>1056.01</ele><time>2022-02-05T13:04:30Z</time></trkpt>
<trkpt lat="45.814458" lon="11.592343"><ele>1053.88</ele><time>2022-02-05T13:04:32Z</time></trkpt>
<trkpt lat="45.814603" lon="11.592595"><ele>1054.83</ele><time>2022-02-05T13:04:34Z</time></trkpt>
<trkpt lat="45.814785" lon="11.592828"><ele>1055.23</ele><time>2022-02-05T13:04:36Z</time></trkpt>
<trkpt lat="45.814903" lon="11.592944"><ele>1055.26</ele><time>2022-02-05T13:04:37Z</time></trkpt>
<trkpt lat="45.815303" lon="11.593139"><ele>1056.11</ele><time>2022-02-05T13:04:39Z</time></trkpt>
<trkpt lat="45.815409" lon="11.593212"><ele>1056.7</ele><time>2022-02-05T13:04:41Z</time></trkpt>
<trkpt lat="45.815476" lon="11.593341"><ele>1056.49</ele><time>2022-02-05T13:04:43Z</time></trkpt>
<trkpt lat="45.815497" lon="11.593464"><ele>1055.43</ele><time>2022-02-05T13:04:45Z</time></trkpt>
<trkpt lat="45.815484" lon="11.593595"><ele>1053.64</ele><time>2022-02-05T13:04:47Z</time></trkpt>
<trkpt lat="45.815387" lon="11.593885"><ele>1048.78</ele><time>2022-02-05T13:04:49Z</time></trkpt>
<trkpt lat="45.815377" lon="11.59403"><ele>1047.64</ele><time>2022-02-05T13:04:51Z</time></trkpt>
<trkpt lat="45.815452" lon="11.59429"><ele>1046.8</ele><time>2022-02-05T13:04:53Z</time></trkpt>
<trkpt lat="45.815567" lon="11.594566"><ele>1046.85</ele><time>2022-02-05T13:04:55Z</time></trkpt>
<trkpt lat="45.815651" lon="11.594721"><ele>1048.4</ele><time>2022-02-05T13:04:57Z</time></trkpt>
<trkpt lat="45.815697" lon="11.594775"><ele>1049.85</ele><time>2022-02-05T13:04:59Z</time></trkpt>
<trkpt lat="45.815818" lon="11.594819"><ele>1052.98</ele><time>2022-02-05T13:05:01Z</time></trkpt>
<trkpt lat="45.816009" lon="11.594819"><ele>1056.1</ele><time>2022-02-05T13:05:03Z</time></trkpt>
<trkpt lat="45.816243" lon="11.594784"><ele>1058.5</ele><time>2022-02-05T13:05:05Z</time></trkpt>
<trkpt lat="45.817056" lon="11.59487"><ele>1059.66</ele><time>2022-02-05T13:05:07Z</time></trkpt>
<trkpt lat="45.818378" lon="11.595162"><ele>1061.32</ele><time>2022-02-05T13:05:09Z</time></trkpt>
<trkpt lat="45.818809" lon="11.595317"><ele>1064.19</ele><time>2022-02-05T13:05:11Z</time></trkpt>
<trkpt lat="45.819228" lon="11.595531"><ele>1069.29</ele><time>2022-02-05T13:05:13Z</time></trkpt>
<trkpt lat="45.819569" lon="11.595806"><ele>1073.98</ele><time>2022-02-05T13:05:15Z</time></trkpt>
<trkpt lat="45.82116" lon="11.596922"><ele>1078.62</ele><time>2022-02-05T13:05:17Z</time></trkpt>
<trkpt lat="45.821411" lon="11.597128"><ele>1079.84</ele><time>2022-02-05T13:05:19Z</time></trkpt>
<trkpt lat="45.821943" lon="11.597359"><ele>1081.01</ele><time>2022-02-05T13:05:20Z</time></trkpt>
<trkpt lat="45.822207" lon="11.597454"><ele>1079.39</ele><time>2022-02-05T13:05:22Z</time></trkpt>
<trkpt lat="45.822553" lon="11.59754"><ele>1072.47</ele><time>2022-02-05T13:05:24Z</time></trkpt>
<trkpt lat="45.8229" lon="11.59754"><ele>1068.23</ele><time>2022-02-05T13:05:26Z</time></trkpt>
<trkpt lat="45.823211" lon="11.597582"><ele>1071.27</ele><time>2022-02-05T13:05:28Z</time></trkpt>
<trkpt lat="45.823391" lon="11.59766"><ele>1073.46</ele><time>2022-02-05T13:05:30Z</time></trkpt>
<trkpt lat="45.823558" lon="11.597823"><ele>1073.76</ele><time>2022-02-05T13:05:32Z</time></trkpt>
<trkpt lat="45.823786" lon="11.598183"><ele>1070.81</ele><time>2022-02-05T13:05:34Z</time></trkpt>
<trkpt lat="45.823983" lon="11.598544"><ele>1067.57</ele><time>2022-02-05T13:05:36Z</time></trkpt>
<trkpt lat="45.824192" lon="11.598767"><ele>1068.1</ele><time>2022-02-05T13:05:38Z</time></trkpt>
<trkpt lat="45.824485" lon="11.598887"><ele>1069.17</ele><time>2022-02-05T13:05:40Z</time></trkpt>
<trkpt lat="45.824713" lon="11.59887"><ele>1070.36</ele><time>2022-02-05T13:05:42Z</time></trkpt>
<trkpt lat="45.825712" lon="11.598647"><ele>1077.06</ele><time>2022-02-05T13:05:44Z</time></trkpt>
<trkpt lat="45.826097" lon="11.59868"><ele>1073.38</ele><time>2022-02-05T13:05:46Z</time></trkpt>
<trkpt lat="45.826417" lon="11.598679"><ele>1070.06</ele><time>2022-02-05T13:05:48Z</time></trkpt>
<trkpt lat="45.826845" lon="11.598634"><ele>1068.17</ele><time>2022-02-05T13:05:50Z</time></trkpt>
<trkpt lat="45.827136" lon="11.598537"><ele>1068.11</ele><time>2022-02-05T13:05:52Z</time></trkpt>
<trkpt lat="45.827275" lon="11.598457"><ele>1068.85</ele><time>2022-02-05T13:05:54Z</time></trkpt>
<trkpt lat="45.827681" lon="11.5983"><ele>1069.56</ele><time>2022-02-05T13:05:56Z</time></trkpt>
<trkpt lat="45.828794" lon="11.59795"><ele>1066.03</ele><time>2022-02-05T13:05:58Z</time></trkpt>
<trkpt lat="45.829673" lon="11.597634"><ele>1064.72</ele><time>2022-02-05T13:06:00Z</time></trkpt>
<trkpt lat="45.829902" lon="11.597487"><ele>1062.04</ele><time>2022-02-05T13:06:02Z</time></trkpt>
<trkpt lat="45.830188" lon="11.597209"><ele>1059.23</ele><time>2022-02-05T13:06:03Z</time></trkpt>
<trkpt lat="45.831386" lon="11.595935"><ele>1056.28</ele><time>2022-02-05T13:06:05Z</time></trkpt>
<trkpt lat="45.834103" lon="11.593331"><ele>1050.71</ele><time>2022-02-05T13:06:07Z</time></trkpt>
<trkpt lat="45.834567" lon="11.592922"><ele>1057.13</ele><time>2022-02-05T13:06:09Z</time></trkpt>
<trkpt lat="45.835085" lon="11.592416"><ele>1054.22</ele><time>2022-02-05T13:06:11Z</time></trkpt>
<trkpt lat="45.835274" lon="11.592187"><ele>1049.6</ele><time>2022-02-05T13:06:13Z</time></trkpt>
<trkpt lat="45.835857" lon="11.591373"><ele>1044.83</ele><time>2022-02-05T13:06:15Z</time></trkpt>
<trkpt lat="45.836143" lon="11.590775"><ele>1044.94</ele><time>2022-02-05T13:06:17Z</time></trkpt>
<trkpt lat="45.836366" lon="11.590214"><ele>1042.64</ele><time>2022-02-05T13:06:19Z</time></trkpt>
<trkpt lat="45.836533" lon="11.589681"><ele>1041.56</ele><time>2022-02-05T13:06:21Z</time></trkpt>
<trkpt lat="45.836593" lon="11.589329"><ele>1040.95</ele><time>2022-02-05T13:06:23Z</time></trkpt>
<trkpt lat="45.836601" lon="11.588945"><ele>1041.69</ele><time>2022-02-05T13:06:25Z</time></trkpt>
<trkpt lat="45.836571" lon="11.588634"><ele>1042.15</ele><time>2022-02-05T13:06:27Z</time></trkpt>
<trkpt lat="45.836324" lon="11.587816"><ele>1045.98</ele><time>2022-02-05T13:06:29Z</time></trkpt>
<trkpt lat="45.836006" lon="11.586968"><ele>1042.92</ele><time>2022-02-05T13:06:31Z</time></trkpt>
<trkpt lat="45.83587" lon="11.586656"><ele>1038.18</ele><time>2022-02-05T13:06:33Z</time></trkpt>
<trkpt lat="45.835323" lon="11.585901"><ele>1037.32</ele><time>2022-02-05T13:06:35Z</time></trkpt>
<trkpt lat="45.83509" lon="11.585537"><ele>1038.75</ele><time>2022-02-05T13:06:37Z</time></trkpt>
<trkpt lat="45.834938" lon="11.585147"><ele>1033.1</ele><time>2022-02-05T13:06:39Z</time></trkpt>
<trkpt lat="45.834982" lon="11.585129"><ele>1032.5</ele><time>2022-02-05T13:06:41Z</time></trkpt>
<trkpt lat="45.835799" lon="11.585945"><ele>1026.37</ele><time>2022-02-05T13:06:43Z</time></trkpt>
<trkpt lat="45.836514" lon="11.586596"><ele>1019.32</ele><time>2022-02-05T13:06:45Z</time></trkpt>
<trkpt lat="45.836644" lon="11.586759"><ele>1015.82</ele><time>2022-02-05T13:06:47Z</time></trkpt>
<trkpt lat="45.836781" lon="11.586981"><ele>1010.5</ele><time>2022-02-05T13:06:49Z</time></trkpt>
<trkpt lat="45.836982" lon="11.587366"><ele>1006.89</ele><time>2022-02-05T13:06:52Z</time></trkpt>
<trkpt lat="45.837981" lon="11.58939"><ele>1010.13</ele><time>2022-02-05T13:06:54Z</time></trkpt>
<trkpt lat="45.838711" lon="11.590829"><ele>1005.97</ele><time>2022-02-05T13:06:56Z</time></trkpt>
<trkpt lat="45.838904" lon="11.591128"><ele>1006.47</ele><time>2022-02-05T13:06:58Z</time></trkpt>
<trkpt lat="45.839274" lon="11.59158"><ele>1009.01</ele><time>2022-02-05T13:07:00Z</time></trkpt>
<trkpt lat="45.839543" lon="11.59186"><ele>1012.52</ele><time>2022-02-05T13:07:02Z</time></trkpt>
<trkpt lat="45.839685" lon="11.591973"><ele>1013.39</ele><time>2022-02-05T13:07:04Z</time></trkpt>
<trkpt lat="45.839855" lon="11.592064"><ele>1013.26</ele><time>2022-02-05T13:07:07Z</time></trkpt>
<trkpt lat="45.84005" lon="11.592134"><ele>1011.75</ele><time>2022-02-05T13:07:09Z</time></trkpt>
<trkpt lat="45.840567" lon="11.592195"><ele>1011.41</ele><time>2022-02-05T13:07:11Z</time></trkpt>
<trkpt lat="45.840789" lon="11.59225"><ele>1009.01</ele><time>2022-02-05T13:07:13Z</time></trkpt>
<trkpt lat="45.840995" lon="11.59232"><ele>1007.57</ele><time>2022-02-05T13:07:15Z</time></trkpt>
<trkpt lat="45.841314" lon="11.59252"><ele>1006.89</ele><time>2022-02-05T13:07:17Z</time></trkpt>
<trkpt lat="45.841454" lon="11.592655"><ele>1008.64</ele><time>2022-02-05T13:07:19Z</time></trkpt>
<trkpt lat="45.841565" lon="11.592797"><ele>1009.08</ele><time>2022-02-05T13:07:22Z</time></trkpt>
<trkpt lat="45.841751" lon="11.593052"><ele>1009.91</ele><time>2022-02-05T13:07:24Z</time></trkpt>
<trkpt lat="45.841855" lon="11.593235"><ele>1011.43</ele><time>2022-02-05T13:07:26Z</time></trkpt>
<trkpt lat="45.842078" lon="11.593491"><ele>1013.74</ele><time>2022-02-05T13:07:28Z</time></trkpt>
<trkpt lat="45.842494" lon="11.593905"><ele>1009.03</ele><time>2022-02-05T13:07:30Z</time></trkpt>
<trkpt lat="45.843147" lon="11.594778"><ele>1007.52</ele><time>2022-02-05T13:07:32Z</time></trkpt>
<trkpt lat="45.843383" lon="11.595199"><ele>1003.25</ele><time>2022-02-05T13:07:34Z</time></trkpt>
<trkpt lat="45.843473" lon="11.595473"><ele>1001.94</ele><time>2022-02-05T13:07:37Z</time></trkpt>
<trkpt lat="45.843555" lon="11.595803"><ele>999.19</ele><time>2022-02-05T13:07:39Z</time></trkpt>
<trkpt lat="45.843656" lon="11.596103"><ele>995.91</ele><time>2022-02-05T13:07:41Z</time></trkpt>
<trkpt lat="45.843933" lon="11.596787"><ele>987.5</ele><time>2022-02-05T13:07:43Z</time></trkpt>
<trkpt lat="45.844019" lon="11.597128"><ele>987.81</ele><time>2022-02-05T13:07:45Z</time></trkpt>
<trkpt lat="45.844315" lon="11.598807"><ele>993.68</ele><time>2022-02-05T13:07:47Z</time></trkpt>
<trkpt lat="45.844419" lon="11.599302"><ele>988.48</ele><time>2022-02-05T13:07:49Z</time></trkpt>
<trkpt lat="45.844507" lon="11.599563"><ele>984.94</ele><time>2022-02-05T13:07:52Z</time></trkpt>
<trkpt lat="45.845098" lon="11.600607"><ele>977.02</ele><time>2022-02-05T13:07:54Z</time></trkpt>
<trkpt lat="45.845238" lon="11.600824"><ele>978.08</ele><time>2022-02-05T13:07:56Z</time></trkpt>
<trkpt lat="45.845721" lon="11.60144"><ele>981.2</ele><time>2022-02-05T13:07:58Z</time></trkpt>
<trkpt lat="45.845921" lon="11.601662"><ele>982.97</ele><time>2022-02-05T13:08:00Z</time></trkpt>
<trkpt lat="45.846108" lon="11.601794"><ele>984.05</ele><time>2022-02-05T13:08:02Z</time></trkpt>
<trkpt lat="45.846534" lon="11.601995"><ele>978.69</ele><time>2022-02-05T13:08:04Z</time></trkpt>
<trkpt lat="45.846776" lon="11.602026"><ele>977.26</ele><time>2022-02-05T13:08:06Z</time></trkpt>
<trkpt lat="45.847025" lon="11.601979"><ele>975.7</ele><time>2022-02-05T13:08:09Z</time></trkpt>
<trkpt lat="45.848173" lon="11.601526"><ele>975.86</ele><time>2022-02-05T13:08:11Z</time></trkpt>
<trkpt lat="45.848286" lon="11.601513"><ele>976.84</ele><time>2022-02-05T13:08:13Z</time></trkpt>
<trkpt lat="45.848366" lon="11.601532"><ele>977.48</ele><time>2022-02-05T13:08:15Z</time></trkpt>
<trkpt lat="45.848509" lon="11.601629"><ele>978.16</ele><time>2022-02-05T13:08:17Z</time></trkpt>
<trkpt lat="45.848891" lon="11.60205"><ele>976.29</ele><time>2022-02-05T13:08:19Z</time></trkpt>
<trkpt lat="45.849434" lon="11.602573"><ele>976.95</ele><time>2022-02-05T13:08:21Z</time></trkpt>
<trkpt lat="45.849756" lon="11.602846"><ele>977.77</ele><time>2022-02-05T13:08:24Z</time></trkpt>
<trkpt lat="45.850091" lon="11.603092"><ele>977.4</ele><time>2022-02-05T13:08:26Z</time></trkpt>
<trkpt lat="45.850652" lon="11.603455"><ele>976.72</ele><time>2022-02-05T13:08:28Z</time></trkpt>
<trkpt lat="45.850818" lon="11.603516"><ele>976.39</ele><time>2022-02-05T13:08:30Z</time></trkpt>
<trkpt lat="45.85102" lon="11.603537"><ele>975.26</ele><time>2022-02-05T13:08:32Z</time></trkpt>
<trkpt lat="45.851402" lon="11.603517"><ele>975.72</ele><time>2022-02-05T13:08:34Z</time></trkpt>
<trkpt lat="45.852702" lon="11.603359"><ele>967.41</ele><time>2022-02-05T13:08:36Z</time></trkpt>
<trkpt lat="45.85318" lon="11.603332"><ele>968.48</ele><time>2022-02-05T13:08:39Z</time></trkpt>
<trkpt lat="45.853311" lon="11.603374"><ele>969.51</ele><time>2022-02-05T13:08:41Z</time></trkpt>
<trkpt lat="45.85342" lon="11.603434"><ele>971.47</ele><time>2022-02-05T13:08:43Z</time></trkpt>
<trkpt lat="45.853806" lon="11.603679"><ele>975.81</ele><time>2022-02-05T13:08:45Z</time></trkpt>
<trkpt lat="45.854486" lon="11.604255"><ele>974.22</ele><time>2022-02-05T13:08:47Z</time></trkpt>
<trkpt lat="45.854586" lon="11.60439"><ele>975.04</ele><time>2022-02-05T13:08:49Z</time></trkpt>
<trkpt lat="45.854924" lon="11.604912"><ele>976.65</ele><time>2022-02-05T13:08:51Z</time></trkpt>
<trkpt lat="45.85503" lon="11.605128"><ele>977.61</ele><time>2022-02-05T13:08:54Z</time></trkpt>
<trkpt lat="45.855244" lon="11.605688"><ele>980.91</ele><time>2022-02-05T13:08:56Z</time></trkpt>
<trkpt lat="45.855324" lon="11.605785"><ele>978.4</ele><time>2022-02-05T13:08:58Z</time></trkpt>
<trkpt lat="45.855745" lon="11.60603"><ele>967.3</ele><time>2022-02-05T13:09:00Z</time></trkpt>
<trkpt lat="45.855832" lon="11.606143"><ele>964.9</ele><time>2022-02-05T13:09:02Z</time></trkpt>
<trkpt lat="45.855967" lon="11.606366"><ele>965.64</ele><time>2022-02-05T13:09:04Z</time></trkpt>
<trkpt lat="45.856418" lon="11.607247"><ele>966.45</ele><time>2022-02-05T13:09:06Z</time></trkpt>
<trkpt lat="45.856502" lon="11.607475"><ele>965.88</ele><time>2022-02-05T13:09:09Z</time></trkpt>
<trkpt lat="45.856779" lon="11.608388"><ele>956.91</ele><time>2022-02-05T13:09:11Z</time></trkpt>
<trkpt lat="45.856867" lon="11.608555"><ele>955.18</ele><time>2022-02-05T13:09:13Z</time></trkpt>
<trkpt lat="45.856963" lon="11.608664"><ele>953.72</ele><time>2022-02-05T13:09:15Z</time></trkpt>
<trkpt lat="45.857822" lon="11.609258"><ele>950.94</ele><time>2022-02-05T13:09:17Z</time></trkpt>
<trkpt lat="45.85802" lon="11.609372"><ele>952.21</ele><time>2022-02-05T13:09:19Z</time></trkpt>
<trkpt lat="45.858157" lon="11.609427"><ele>953.28</ele><time>2022-02-05T13:09:21Z</time></trkpt>
<trkpt lat="45.858312" lon="11.60945"><ele>954.77</ele><time>2022-02-05T13:09:24Z</time></trkpt>
<trkpt lat="45.858971" lon="11.609328"><ele>954.39</ele><time>2022-02-05T13:09:26Z</time></trkpt>
<trkpt lat="45.85922" lon="11.609329"><ele>954.99</ele><time>2022-02-05T13:09:28Z</time></trkpt>
<trkpt lat="45.859566" lon="11.609469"><ele>952.17</ele><time>2022-02-05T13:09:30Z</time></trkpt>
<trkpt lat="45.859774" lon="11.609594"><ele>950.71</ele><time>2022-02-05T13:09:32Z</time></trkpt>
<trkpt lat="45.859926" lon="11.609737"><ele>949.58</ele><time>2022-02-05T13:09:34Z</time></trkpt>
<trkpt lat="45.860861" lon="11.611195"><ele>937.7</ele><time>2022-02-05T13:09:36Z</time></trkpt>
<trkpt lat="45.861308" lon="11.611926"><ele>936.19</ele><time>2022-02-05T13:09:39Z</time></trkpt>
<trkpt lat="45.861529" lon="11.612528"><ele>936.83</ele><time>2022-02-05T13:09:41Z</time></trkpt>
<trkpt lat="45.861618" lon="11.612693"><ele>937.56</ele><time>2022-02-05T13:09:43Z</time></trkpt>
<trkpt lat="45.861698" lon="11.612776"><ele>938.68</ele><time>2022-02-05T13:09:45Z</time></trkpt>
<trkpt lat="45.861783" lon="11.612797"><ele>940.52</ele><time>2022-02-05T13:09:47Z</time></trkpt>
<trkpt lat="45.861864" lon="11.612783"><ele>942.26</ele><time>2022-02-05T13:09:49Z</time></trkpt>
<trkpt lat="45.862088" lon="11.612679"><ele>945.73</ele><time>2022-02-05T13:09:51Z</time></trkpt>
<trkpt lat="45.862669" lon="11.612317"><ele>948.66</ele><time>2022-02-05T13:09:53Z</time></trkpt>
<trkpt lat="45.862728" lon="11.61232"><ele>948.99</ele><time>2022-02-05T13:09:56Z</time></trkpt>
<trkpt lat="45.862776" lon="11.61244"><ele>948.41</ele><time>2022-02-05T13:09:58Z</time></trkpt>
<trkpt lat="45.862784" lon="11.612685"><ele>947.57</ele><time>2022-02-05T13:10:00Z</time></trkpt>
<trkpt lat="45.862674" lon="11.612981"><ele>948.9</ele><time>2022-02-05T13:10:02Z</time></trkpt>
<trkpt lat="45.862496" lon="11.613309"><ele>951.62</ele><time>2022-02-05T13:10:04Z</time></trkpt>
<trkpt lat="45.862371" lon="11.613799"><ele>955.11</ele><time>2022-02-05T13:10:06Z</time></trkpt>
<trkpt lat="45.862349" lon="11.613978"><ele>955.72</ele><time>2022-02-05T13:10:08Z</time></trkpt>
<trkpt lat="45.862355" lon="11.6142"><ele>956.48</ele><time>2022-02-05T13:10:11Z</time></trkpt>
<trkpt lat="45.862391" lon="11.614306"><ele>956.61</ele><time>2022-02-05T13:10:13Z</time></trkpt>
<trkpt lat="45.862526" lon="11.614503"><ele>957.28</ele><time>2022-02-05T13:10:15Z</time></trkpt>
<trkpt lat="45.862561" lon="11.614529"><ele>957.66</ele><time>2022-02-05T13:10:17Z</time></trkpt>
<trkpt lat="45.862771" lon="11.614566"><ele>959.93</ele><time>2022-02-05T13:10:19Z</time></trkpt>
<trkpt lat="45.86285" lon="11.614557"><ele>960.46</ele><time>2022-02-05T13:10:21Z</time></trkpt>
<trkpt lat="45.862958" lon="11.614494"><ele>961.6</ele><time>2022-02-05T13:10:23Z</time></trkpt>
<trkpt lat="45.863186" lon="11.614245"><ele>965.79</ele><time>2022-02-05T13:10:26Z</time></trkpt>
<trkpt lat="45.863372" lon="11.614384"><ele>965.08</ele><time>2022-02-05T13:10:27Z</time></trkpt>
<trkpt lat="45.863522" lon="11.614537"><ele>965.07</ele><time>2022-02-05T13:10:29Z</time></trkpt>
<trkpt lat="45.863664" lon="11.61475"><ele>962.67</ele><time>2022-02-05T13:10:31Z</time></trkpt>
<trkpt lat="45.863796" lon="11.614996"><ele>961.71</ele><time>2022-02-05T13:10:33Z</time></trkpt>
<trkpt lat="45.863901" lon="11.615218"><ele>962.76</ele><time>2022-02-05T13:10:34Z</time></trkpt>
<trkpt lat="45.864046" lon="11.615884"><ele>955.57</ele><time>2022-02-05T13:10:36Z</time></trkpt>
<trkpt lat="45.86412" lon="11.616216"><ele>955.67</ele><time>2022-02-05T13:10:38Z</time></trkpt>
<trkpt lat="45.864184" lon="11.616362"><ele>956.41</ele><time>2022-02-05T13:10:40Z</time></trkpt>
<trkpt lat="45.864278" lon="11.61645"><ele>957.29</ele><time>2022-02-05T13:10:41Z</time></trkpt>
<trkpt lat="45.864498" lon="11.616482"><ele>959.84</ele><time>2022-02-05T13:10:43Z</time></trkpt>
<trkpt lat="45.864807" lon="11.616394"><ele>964.22</ele><time>2022-02-05T13:10:45Z</time></trkpt>
<trkpt lat="45.86493" lon="11.616466"><ele>963.91</ele><time>2022-02-05T13:10:47Z</time></trkpt>
<trkpt lat="45.86506" lon="11.616622"><ele>964.25</ele><time>2022-02-05T13:10:48Z</time></trkpt>
<trkpt lat="45.865163" lon="11.616853"><ele>963.22</ele><time>2022-02-05T13:10:50Z</time></trkpt>
<trkpt lat="45.865204" lon="11.617114"><ele>961.54</ele><time>2022-02-05T13:10:52Z</time></trkpt>
<trkpt lat="45.865421" lon="11.617414"><ele>962.34</ele><time>2022-02-05T13:10:54Z</time></trkpt>
<trkpt lat="45.86565" lon="11.617655"><ele>962.37</ele><time>2022-02-05T13:10:55Z</time></trkpt>
<trkpt lat="45.866091" lon="11.618044"><ele>962.91</ele><time>2022-02-05T13:10:57Z</time></trkpt>
<trkpt lat="45.866286" lon="11.617888"><ele>966.59</ele><time>2022-02-05T13:10:59Z</time></trkpt>
<trkpt lat="45.866517" lon="11.617495"><ele>974.12</ele><time>2022-02-05T13:11:01Z</time></trkpt>
<trkpt lat="45.866685" lon="11.617255"><ele>979.17</ele><time>2022-02-05T13:11:02Z</time></trkpt>
<trkpt lat="45.866777" lon="11.617258"><ele>978.48</ele><time>2022-02-05T13:11:04Z</time></trkpt>
<trkpt lat="45.866905" lon="11.617331"><ele>976.26</ele><time>2022-02-05T13:11:06Z</time></trkpt>
<trkpt lat="45.867039" lon="11.617562"><ele>972.94</ele><time>2022-02-05T13:11:08Z</time></trkpt>
<trkpt lat="45.867199" lon="11.617915"><ele>971.6</ele><time>2022-02-05T13:11:09Z</time></trkpt>
<trkpt lat="45.867303" lon="11.618241"><ele>971.14</ele><time>2022-02-05T13:11:11Z</time></trkpt>
<trkpt lat="45.867487" lon="11.618361"><ele>975.12</ele><time>2022-02-05T13:11:13Z</time></trkpt>
<trkpt lat="45.86799" lon="11.618478"><ele>977.36</ele><time>2022-02-05T13:11:15Z</time></trkpt>
<trkpt lat="45.868354" lon="11.618663"><ele>977.35</ele><time>2022-02-05T13:11:16Z</time></trkpt>
<trkpt lat="45.868561" lon="11.618637"><ele>978.53</ele><time>2022-02-05T13:11:18Z</time></trkpt>
<trkpt lat="45.869377" lon="11.618723"><ele>986.89</ele><time>2022-02-05T13:11:20Z</time></trkpt>
<trkpt lat="45.869747" lon="11.618789"><ele>982.75</ele><time>2022-02-05T13:11:22Z</time></trkpt>
<trkpt lat="45.870137" lon="11.618664"><ele>986.35</ele><time>2022-02-05T13:11:23Z</time></trkpt>
<trkpt lat="45.870533" lon="11.618664"><ele>982.76</ele><time>2022-02-05T13:11:25Z</time></trkpt>
<trkpt lat="45.870682" lon="11.618564"><ele>988.44</ele><time>2022-02-05T13:11:27Z</time></trkpt>
<trkpt lat="45.870827" lon="11.618419"><ele>996.15</ele><time>2022-02-05T13:11:29Z</time></trkpt>
<trkpt lat="45.870995" lon="11.618291"><ele>995.56</ele><time>2022-02-05T13:11:30Z</time></trkpt>
<trkpt lat="45.871401" lon="11.618156"><ele>980.85</ele><time>2022-02-05T13:11:32Z</time></trkpt>
<trkpt lat="45.871853" lon="11.617852"><ele>980.03</ele><time>2022-02-05T13:11:34Z</time></trkpt>
<trkpt lat="45.872237" lon="11.617487"><ele>982.16</ele><time>2022-02-05T13:11:36Z</time></trkpt>
<trkpt lat="45.872673" lon="11.617306"><ele>975.24</ele><time>2022-02-05T13:11:37Z</time></trkpt>
<trkpt lat="45.873061" lon="11.617246"><ele>971.91</ele><time>2022-02-05T13:11:39Z</time></trkpt>
<trkpt lat="45.873432" lon="11.617255"><ele>973.9</ele><time>2022-02-05T13:11:41Z</time></trkpt>
<trkpt lat="45.873659" lon="11.617375"><ele>968.73</ele><time>2022-02-05T13:11:43Z</time></trkpt>
<trkpt lat="45.873856" lon="11.617598"><ele>957.63</ele><time>2022-02-05T13:11:44Z</time></trkpt>
<trkpt lat="45.873988" lon="11.617624"><ele>956.39</ele><time>2022-02-05T13:11:46Z</time></trkpt>
<trkpt lat="45.874567" lon="11.617572"><ele>951.54</ele><time>2022-02-05T13:11:48Z</time></trkpt>
<trkpt lat="45.87483" lon="11.617427"><ele>946.76</ele><time>2022-02-05T13:11:50Z</time></trkpt>
<trkpt lat="45.875117" lon="11.617118"><ele>941.3</ele><time>2022-02-05T13:11:51Z</time></trkpt>
<trkpt lat="45.875284" lon="11.616886"><ele>940.62</ele><time>2022-02-05T13:11:53Z</time></trkpt>
<trkpt lat="45.875362" lon="11.616671"><ele>941.49</ele><time>2022-02-05T13:11:55Z</time></trkpt>
<trkpt lat="45.875362" lon="11.616405"><ele>941.2</ele><time>2022-02-05T13:11:57Z</time></trkpt>
<trkpt lat="45.875278" lon="11.616122"><ele>939.14</ele><time>2022-02-05T13:11:58Z</time></trkpt>
<trkpt lat="45.875171" lon="11.615907"><ele>940.26</ele><time>2022-02-05T13:12:00Z</time></trkpt>
<trkpt lat="45.875105" lon="11.615701"><ele>939.99</ele><time>2022-02-05T13:12:02Z</time></trkpt>
<trkpt lat="45.875003" lon="11.615058"><ele>932.14</ele><time>2022-02-05T13:12:04Z</time></trkpt>
<trkpt lat="45.874908" lon="11.61486"><ele>931.8</ele><time>2022-02-05T13:12:05Z</time></trkpt>
<trkpt lat="45.874818" lon="11.614757"><ele>932.82</ele><time>2022-02-05T13:12:07Z</time></trkpt>
<trkpt lat="45.874699" lon="11.614688"><ele>935.29</ele><time>2022-02-05T13:12:09Z</time></trkpt>
<trkpt lat="45.874585" lon="11.614577"><ele>936.86</ele><time>2022-02-05T13:12:11Z</time></trkpt>
<trkpt lat="45.874537" lon="11.614354"><ele>935.12</ele><time>2022-02-05T13:12:12Z</time></trkpt>
<trkpt lat="45.874651" lon="11.613375"><ele>912.63</ele><time>2022-02-05T13:12:14Z</time></trkpt>
<trkpt lat="45.874579" lon="11.613247"><ele>912.19</ele><time>2022-02-05T13:12:16Z</time></trkpt>
<trkpt lat="45.874436" lon="11.613092"><ele>912.79</ele><time>2022-02-05T13:12:18Z</time></trkpt>
<trkpt lat="45.874298" lon="11.612946"><ele>912.32</ele><time>2022-02-05T13:12:19Z</time></trkpt>
<trkpt lat="45.874191" lon="11.612732"><ele>910.53</ele><time>2022-02-05T13:12:21Z</time></trkpt>
<trkpt lat="45.874167" lon="11.612388"><ele>909.19</ele><time>2022-02-05T13:12:23Z</time></trkpt>
<trkpt lat="45.874167" lon="11.611959"><ele>907.05</ele><time>2022-02-05T13:12:25Z</time></trkpt>
<trkpt lat="45.874119" lon="11.61183"><ele>908.33</ele><time>2022-02-05T13:12:26Z</time></trkpt>
<trkpt lat="45.873958" lon="11.611573"><ele>911.09</ele><time>2022-02-05T13:12:28Z</time></trkpt>
<trkpt lat="45.873916" lon="11.611436"><ele>910.99</ele><time>2022-02-05T13:12:30Z</time></trkpt>
<trkpt lat="45.873934" lon="11.611273"><ele>910.72</ele><time>2022-02-05T13:12:32Z</time></trkpt>
<trkpt lat="45.874029" lon="11.611212"><ele>910.45</ele><time>2022-02-05T13:12:33Z</time></trkpt>
<trkpt lat="45.874484" lon="11.611315"><ele>907.24</ele><time>2022-02-05T13:12:35Z</time></trkpt>
<trkpt lat="45.874741" lon="11.611333"><ele>908.22</ele><time>2022-02-05T13:12:37Z</time></trkpt>
<trkpt lat="45.874962" lon="11.611247"><ele>912.59</ele><time>2022-02-05T13:12:39Z</time></trkpt>
<trkpt lat="45.875177" lon="11.61123"><ele>914.35</ele><time>2022-02-05T13:12:40Z</time></trkpt>
<trkpt lat="45.875541" lon="11.611324"><ele>916.01</ele><time>2022-02-05T13:12:42Z</time></trkpt>
<trkpt lat="45.875673" lon="11.61141"><ele>916.77</ele><time>2022-02-05T13:12:44Z</time></trkpt>
<trkpt lat="45.875822" lon="11.61165"><ele>916.0</ele><time>2022-02-05T13:12:46Z</time></trkpt>
<trkpt lat="45.875936" lon="11.611796"><ele>916.0</ele><time>2022-02-05T13:12:47Z</time></trkpt>
<trkpt lat="45.876133" lon="11.611985"><ele>915.82</ele><time>2022-02-05T13:12:49Z</time></trkpt>
<trkpt lat="45.876832" lon="11.612534"><ele>923.52</ele><time>2022-02-05T13:12:51Z</time></trkpt>
<trkpt lat="45.877041" lon="11.612603"><ele>924.32</ele><time>2022-02-05T13:12:53Z</time></trkpt>
<trkpt lat="45.877334" lon="11.612594"><ele>927.1</ele><time>2022-02-05T13:12:54Z</time></trkpt>
<trkpt lat="45.877483" lon="11.612646"><ele>927.22</ele><time>2022-02-05T13:12:56Z</time></trkpt>
<trkpt lat="45.877645" lon="11.61274"><ele>927.03</ele><time>2022-02-05T13:12:58Z</time></trkpt>
<trkpt lat="45.878034" lon="11.613142"><ele>929.96</ele><time>2022-02-05T13:13:00Z</time></trkpt>
<trkpt lat="45.878786" lon="11.612843"><ele>934.04</ele><time>2022-02-05T13:13:01Z</time></trkpt>
<trkpt lat="45.878899" lon="11.61276"><ele>933.95</ele><time>2022-02-05T13:13:03Z</time></trkpt>
<trkpt lat="45.879046" lon="11.61248"><ele>933.92</ele><time>2022-02-05T13:13:05Z</time></trkpt>
<trkpt lat="45.879134" lon="11.612171"><ele>935.54</ele><time>2022-02-05T13:13:07Z</time></trkpt>
<trkpt lat="45.879161" lon="11.61191"><ele>935.93</ele><time>2022-02-05T13:13:08Z</time></trkpt>
<trkpt lat="45.879193" lon="11.61178"><ele>934.62</ele><time>2022-02-05T13:13:10Z</time></trkpt>
<trkpt lat="45.879346" lon="11.611518"><ele>929.8</ele><time>2022-02-05T13:13:12Z</time></trkpt>
<trkpt lat="45.879522" lon="11.611297"><ele>927.5</ele><time>2022-02-05T13:13:14Z</time></trkpt>
<trkpt lat="45.879765" lon="11.611085"><ele>924.82</ele><time>2022-02-05T13:13:15Z</time></trkpt>
<trkpt lat="45.880071" lon="11.610779"><ele>923.91</ele><time>2022-02-05T13:13:17Z</time></trkpt>
<trkpt lat="45.880377" lon="11.610432"><ele>924.63</ele><time>2022-02-05T13:13:19Z</time></trkpt>
<trkpt lat="45.880852" lon="11.609854"><ele>920.89</ele><time>2022-02-05T13:13:21Z</time></trkpt>
<trkpt lat="45.881028" lon="11.60961"><ele>918.64</ele><time>2022-02-05T13:13:22Z</time></trkpt>
<trkpt lat="45.881152" lon="11.60938"><ele>918.85</ele><time>2022-02-05T13:13:24Z</time></trkpt>
<trkpt lat="45.881279" lon="11.609072"><ele>918.45</ele><time>2022-02-05T13:13:26Z</time></trkpt>
<trkpt lat="45.881395" lon="11.608668"><ele>917.13</ele><time>2022-02-05T13:13:28Z</time></trkpt>
<trkpt lat="45.881439" lon="11.608376"><ele>917.39</ele><time>2022-02-05T13:13:29Z</time></trkpt>
<trkpt lat="45.881463" lon="11.607779"><ele>915.26</ele><time>2022-02-05T13:13:31Z</time></trkpt>
<trkpt lat="45.881496" lon="11.607534"><ele>912.32</ele><time>2022-02-05T13:13:33Z</time></trkpt>
<trkpt lat="45.881554" lon="11.607382"><ele>909.28</ele><time>2022-02-05T13:13:35Z</time></trkpt>
<trkpt lat="45.881606" lon="11.607294"><ele>907.11</ele><time>2022-02-05T13:13:36Z</time></trkpt>
<trkpt lat="45.881711" lon="11.607183"><ele>905.48</ele><time>2022-02-05T13:13:38Z</time></trkpt>
<trkpt lat="45.881905" lon="11.607102"><ele>906.98</ele><time>2022-02-05T13:13:40Z</time></trkpt>
<trkpt lat="45.88197" lon="11.607101"><ele>907.36</ele><time>2022-02-05T13:13:42Z</time></trkpt>
<trkpt lat="45.8821" lon="11.60715"><ele>907.66</ele><time>2022-02-05T13:13:43Z</time></trkpt>
<trkpt lat="45.882233" lon="11.607261"><ele>906.41</ele><time>2022-02-05T13:13:45Z</time></trkpt>
<trkpt lat="45.882323" lon="11.607375"><ele>906.24</ele><time>2022-02-05T13:13:47Z</time></trkpt>
<trkpt lat="45.882442" lon="11.607608"><ele>904.38</ele><time>2022-02-05T13:13:49Z</time></trkpt>
<trkpt lat="45.882659" lon="11.6081"><ele>896.25</ele><time>2022-02-05T13:13:50Z</time></trkpt>
<trkpt lat="45.882812" lon="11.60834"><ele>893.59</ele><time>2022-02-05T13:13:52Z</time></trkpt>
<trkpt lat="45.88299" lon="11.608535"><ele>893.24</ele><time>2022-02-05T13:13:54Z</time></trkpt>
<trkpt lat="45.883386" lon="11.608845"><ele>894.37</ele><time>2022-02-05T13:13:56Z</time></trkpt>
<trkpt lat="45.883521" lon="11.608906"><ele>894.7</ele><time>2022-02-05T13:13:58Z</time></trkpt>
<trkpt lat="45.883705" lon="11.608956"><ele>895.56</ele><time>2022-02-05T13:13:59Z</time></trkpt>
<trkpt lat="45.883827" lon="11.608952"><ele>896.59</ele><time>2022-02-05T13:14:01Z</time></trkpt>
<trkpt lat="45.883982" lon="11.608905"><ele>898.43</ele><time>2022-02-05T13:14:03Z</time></trkpt>
<trkpt lat="45.884539" lon="11.608463"><ele>895.96</ele><time>2022-02-05T13:14:05Z</time></trkpt>
<trkpt lat="45.884738" lon="11.60826"><ele>896.31</ele><time>2022-02-05T13:14:06Z</time></trkpt>
<trkpt lat="45.885148" lon="11.607697"><ele>898.47</ele><time>2022-02-05T13:14:08Z</time></trkpt>
<trkpt lat="45.885302" lon="11.607532"><ele>895.41</ele><time>2022-02-05T13:14:10Z</time></trkpt>
<trkpt lat="45.885507" lon="11.607388"><ele>892.06</ele><time>2022-02-05T13:14:12Z</time></trkpt>
<trkpt lat="45.885611" lon="11.607369"><ele>889.86</ele><time>2022-02-05T13:14:13Z</time></trkpt>
<trkpt lat="45.885719" lon="11.607391"><ele>887.43</ele><time>2022-02-05T13:14:15Z</time></trkpt>
<trkpt lat="45.88641" lon="11.607739"><ele>876.06</ele><time>2022-02-05T13:14:17Z</time></trkpt>
<trkpt lat="45.886652" lon="11.607815"><ele>868.66</ele><time>2022-02-05T13:14:19Z</time></trkpt>
<trkpt lat="45.886812" lon="11.607835"><ele>867.34</ele><time>2022-02-05T13:14:20Z</time></trkpt>
<trkpt lat="45.886932" lon="11.607811"><ele>867.94</ele><time>2022-02-05T13:14:22Z</time></trkpt>
<trkpt lat="45.887101" lon="11.607738"><ele>871.68</ele><time>2022-02-05T13:14:24Z</time></trkpt>
<trkpt lat="45.887364" lon="11.607533"><ele>869.17</ele><time>2022-02-05T13:14:26Z</time></trkpt>
<trkpt lat="45.888168" lon="11.606822"><ele>872.62</ele><time>2022-02-05T13:14:27Z</time></trkpt>
<trkpt lat="45.888297" lon="11.60667"><ele>870.63</ele><time>2022-02-05T13:14:29Z</time></trkpt>
<trkpt lat="45.888349" lon="11.606503"><ele>871.11</ele><time>2022-02-05T13:14:31Z</time></trkpt>
<trkpt lat="45.888344" lon="11.605521"><ele>870.11</ele><time>2022-02-05T13:14:33Z</time></trkpt>
<trkpt lat="45.888355" lon="11.605394"><ele>868.45</ele><time>2022-02-05T13:14:34Z</time></trkpt>
<trkpt lat="45.888401" lon="11.605232"><ele>863.61</ele><time>2022-02-05T13:14:36Z</time></trkpt>
<trkpt lat="45.888956" lon="11.604405"><ele>854.07</ele><time>2022-02-05T13:14:38Z</time></trkpt>
<trkpt lat="45.889488" lon="11.603724"><ele>845.79</ele><time>2022-02-05T13:14:40Z</time></trkpt>
<trkpt lat="45.889939" lon="11.603162"><ele>856.02</ele><time>2022-02-05T13:14:41Z</time></trkpt>
<trkpt lat="45.890555" lon="11.602322"><ele>862.34</ele><time>2022-02-05T13:14:43Z</time></trkpt>
<trkpt lat="45.890594" lon="11.602245"><ele>862.91</ele><time>2022-02-05T13:14:45Z</time></trkpt>
<trkpt lat="45.890646" lon="11.602097"><ele>863.51</ele><time>2022-02-05T13:14:47Z</time></trkpt>
<trkpt lat="45.890675" lon="11.601918"><ele>863.57</ele><time>2022-02-05T13:14:48Z</time></trkpt>
<trkpt lat="45.890743" lon="11.600883"><ele>865.88</ele><time>2022-02-05T13:14:50Z</time></trkpt>
<trkpt lat="45.890816" lon="11.600637"><ele>864.53</ele><time>2022-02-05T13:14:52Z</time></trkpt>
<trkpt lat="45.890905" lon="11.600457"><ele>864.9</ele><time>2022-02-05T13:14:54Z</time></trkpt>
<trkpt lat="45.891736" lon="11.599384"><ele>868.22</ele><time>2022-02-05T13:14:55Z</time></trkpt>
<trkpt lat="45.891844" lon="11.599106"><ele>868.9</ele><time>2022-02-05T13:14:57Z</time></trkpt>
<trkpt lat="45.89196" lon="11.59894"><ele>870.32</ele><time>2022-02-05T13:14:59Z</time></trkpt>
<trkpt lat="45.89209" lon="11.598886"><ele>870.99</ele><time>2022-02-05T13:15:01Z</time></trkpt>
<trkpt lat="45.892366" lon="11.598837"><ele>871.49</ele><time>2022-02-05T13:15:02Z</time></trkpt>
<trkpt lat="45.892541" lon="11.598657"><ele>868.66</ele><time>2022-02-05T13:15:04Z</time></trkpt>
<trkpt lat="45.89268" lon="11.598408"><ele>869.76</ele><time>2022-02-05T13:15:06Z</time></trkpt>
<trkpt lat="45.892715" lon="11.598225"><ele>870.3</ele><time>2022-02-05T13:15:08Z</time></trkpt>
<trkpt lat="45.892705" lon="11.598039"><ele>870.6</ele><time>2022-02-05T13:15:09Z</time></trkpt>
<trkpt lat="45.892599" lon="11.597636"><ele>871.99</ele><time>2022-02-05T13:15:11Z</time></trkpt>
<trkpt lat="45.892568" lon="11.597227"><ele>874.95</ele><time>2022-02-05T13:15:13Z</time></trkpt>
<trkpt lat="45.892402" lon="11.596789"><ele>874.58</ele><time>2022-02-05T13:15:15Z</time></trkpt>
<trkpt lat="45.89228" lon="11.59615"><ele>874.32</ele><time>2022-02-05T13:15:16Z</time></trkpt>
<trkpt lat="45.892189" lon="11.595436"><ele>880.03</ele><time>2022-02-05T13:15:18Z</time></trkpt>
<trkpt lat="45.892205" lon="11.595234"><ele>881.81</ele><time>2022-02-05T13:15:20Z</time></trkpt>
<trkpt lat="45.892336" lon="11.594653"><ele>892.31</ele><time>2022-02-05T13:15:22Z</time></trkpt>
<trkpt lat="45.892306" lon="11.594331"><ele>894.42</ele><time>2022-02-05T13:15:23Z</time></trkpt>
<trkpt lat="45.892217" lon="11.594031"><ele>893.35</ele><time>2022-02-05T13:15:25Z</time></trkpt>
<trkpt lat="45.892277" lon="11.593709"><ele>894.07</ele><time>2022-02-05T13:15:27Z</time></trkpt>
<trkpt lat="45.892473" lon="11.593034"><ele>899.38</ele><time>2022-02-05T13:15:29Z</time></trkpt>
<trkpt lat="45.892489" lon="11.592781"><ele>901.66</ele><time>2022-02-05T13:15:30Z</time></trkpt>
<trkpt lat="45.892463" lon="11.59249"><ele>905.11</ele><time>2022-02-05T13:15:32Z</time></trkpt>
<trkpt lat="45.892396" lon="11.592035"><ele>909.9</ele><time>2022-02-05T13:15:34Z</time></trkpt>
<trkpt lat="45.892306" lon="11.591649"><ele>912.99</ele><time>2022-02-05T13:15:36Z</time></trkpt>
<trkpt lat="45.892157" lon="11.591198"><ele>915.41</ele><time>2022-02-05T13:15:37Z</time></trkpt>
<trkpt lat="45.892068" lon="11.590855"><ele>919.27</ele><time>2022-02-05T13:15:39Z</time></trkpt>
<trkpt lat="45.892082" lon="11.59049"><ele>923.33</ele><time>2022-02-05T13:15:41Z</time></trkpt>
<trkpt lat="45.892053" lon="11.59019"><ele>924.23</ele><time>2022-02-05T13:15:43Z</time></trkpt>
<trkpt lat="45.892202" lon="11.59019"><ele>927.83</ele><time>2022-02-05T13:15:44Z</time></trkpt>
<trkpt lat="45.892306" lon="11.590512"><ele>928.69</ele><time>2022-02-05T13:15:46Z</time></trkpt>
<trkpt lat="45.89256" lon="11.590726"><ele>932.84</ele><time>2022-02-05T13:15:48Z</time></trkpt>
<trkpt lat="45.892755" lon="11.590962"><ele>935.8</ele><time>2022-02-05T13:15:50Z</time></trkpt>
<trkpt lat="45.892889" lon="11.59122"><ele>936.6</ele><time>2022-02-05T13:15:51Z</time></trkpt>
<trkpt lat="45.893008" lon="11.591392"><ele>938.91</ele><time>2022-02-05T13:15:53Z</time></trkpt>
<trkpt lat="45.893128" lon="11.59122"><ele>946.3</ele><time>2022-02-05T13:15:55Z</time></trkpt>
<trkpt lat="45.893068" lon="11.590726"><ele>950.15</ele><time>2022-02-05T13:15:57Z</time></trkpt>
<trkpt lat="45.892978" lon="11.590276"><ele>948.8</ele><time>2022-02-05T13:15:58Z</time></trkpt>
<trkpt lat="45.892799" lon="11.589804"><ele>948.6</ele><time>2022-02-05T13:16:00Z</time></trkpt>
<trkpt lat="45.892719" lon="11.589429"><ele>950.21</ele><time>2022-02-05T13:16:02Z</time></trkpt>
<trkpt lat="45.892708" lon="11.589303"><ele>950.89</ele><time>2022-02-05T13:16:04Z</time></trkpt>
<trkpt lat="45.892716" lon="11.589064"><ele>953.4</ele><time>2022-02-05T13:16:05Z</time></trkpt>
<trkpt lat="45.892762" lon="11.588653"><ele>959.15</ele><time>2022-02-05T13:16:07Z</time></trkpt>
<trkpt lat="45.892614" lon="11.588358"><ele>957.69</ele><time>2022-02-05T13:16:09Z</time></trkpt>
<trkpt lat="45.89255" lon="11.58814"><ele>958.04</ele><time>2022-02-05T13:16:11Z</time></trkpt>
<trkpt lat="45.892516" lon="11.587572"><ele>963.59</ele><time>2022-02-05T13:16:12Z</time></trkpt>
<trkpt lat="45.892501" lon="11.586757"><ele>976.05</ele><time>2022-02-05T13:16:14Z</time></trkpt>
<trkpt lat="45.892172" lon="11.585212"><ele>983.24</ele><time>2022-02-05T13:16:16Z</time></trkpt>
<trkpt lat="45.892038" lon="11.584225"><ele>993.18</ele><time>2022-02-05T13:16:18Z</time></trkpt>
<trkpt lat="45.891978" lon="11.583409"><ele>1002.2</ele><time>2022-02-05T13:16:19Z</time></trkpt>
<trkpt lat="45.891829" lon="11.582851"><ele>1005.86</ele><time>2022-02-05T13:16:21Z</time></trkpt>
<trkpt lat="45.89144" lon="11.582444"><ele>1001.64</ele><time>2022-02-05T13:16:23Z</time></trkpt>
<trkpt lat="45.891321" lon="11.582202"><ele>1002.55</ele><time>2022-02-05T13:16:25Z</time></trkpt>
<trkpt lat="45.89127" lon="11.581986"><ele>1005.11</ele><time>2022-02-05T13:16:26Z</time></trkpt>
<trkpt lat="45.891274" lon="11.581609"><ele>1012.01</ele><time>2022-02-05T13:16:28Z</time></trkpt>
<trkpt lat="45.89125" lon="11.58153"><ele>1012.96</ele><time>2022-02-05T13:16:30Z</time></trkpt>
<trkpt lat="45.891117" lon="11.58137"><ele>1012.58</ele><time>2022-02-05T13:16:32Z</time></trkpt>
<trkpt lat="45.89099" lon="11.58134"><ele>1014.43</ele><time>2022-02-05T13:16:33Z</time></trkpt>
<trkpt lat="45.890771" lon="11.581418"><ele>1015.58</ele><time>2022-02-05T13:16:35Z</time></trkpt>
<trkpt lat="45.890448" lon="11.581649"><ele>1015.11</ele><time>2022-02-05T13:16:37Z</time></trkpt>
<trkpt lat="45.890377" lon="11.581646"><ele>1015.64</ele><time>2022-02-05T13:16:39Z</time></trkpt>
<trkpt lat="45.890345" lon="11.581556"><ele>1017.31</ele><time>2022-02-05T13:16:40Z</time></trkpt>
<trkpt lat="45.890378" lon="11.581462"><ele>1018.76</ele><time>2022-02-05T13:16:42Z</time></trkpt>
<trkpt lat="45.890447" lon="11.581363"><ele>1020.46</ele><time>2022-02-05T13:16:44Z</time></trkpt>
<trkpt lat="45.890785" lon="11.580948"><ele>1027.1</ele><time>2022-02-05T13:16:46Z</time></trkpt>
<trkpt lat="45.891004" lon="11.580735"><ele>1032.91</ele><time>2022-02-05T13:16:47Z</time></trkpt>
<trkpt lat="45.89118" lon="11.580676"><ele>1035.88</ele><time>2022-02-05T13:16:49Z</time></trkpt>
<trkpt lat="45.891602" lon="11.580649"><ele>1039.17</ele><time>2022-02-05T13:16:51Z</time></trkpt>
<trkpt lat="45.891744" lon="11.580615"><ele>1039.63</ele><time>2022-02-05T13:16:53Z</time></trkpt>
<trkpt lat="45.891884" lon="11.580944"><ele>1037.64</ele><time>2022-02-05T13:16:55Z</time></trkpt>
<trkpt lat="45.892683" lon="11.583397"><ele>1031.77</ele><time>2022-02-05T13:16:56Z</time></trkpt>
<trkpt lat="45.892823" lon="11.583617"><ele>1031.44</ele><time>2022-02-05T13:16:58Z</time></trkpt>
<trkpt lat="45.892925" lon="11.583676"><ele>1032.0</ele><time>2022-02-05T13:17:00Z</time></trkpt>
<trkpt lat="45.893157" lon="11.583721"><ele>1033.85</ele><time>2022-02-05T13:17:02Z</time></trkpt>
<trkpt lat="45.893378" lon="11.583803"><ele>1035.21</ele><time>2022-02-05T13:17:04Z</time></trkpt>
<trkpt lat="45.893475" lon="11.583872"><ele>1036.88</ele><time>2022-02-05T13:17:06Z</time></trkpt>
<trkpt lat="45.893599" lon="11.584082"><ele>1038.41</ele><time>2022-02-05T13:17:07Z</time></trkpt>
<trkpt lat="45.893638" lon="11.584207"><ele>1039.37</ele><time>2022-02-05T13:17:09Z</time></trkpt>
<trkpt lat="45.893907" lon="11.586006"><ele>1029.19</ele><time>2022-02-05T13:17:11Z</time></trkpt>
<trkpt lat="45.894089" lon="11.586726"><ele>1027.61</ele><time>2022-02-05T13:17:13Z</time></trkpt>
<trkpt lat="45.894166" lon="11.586945"><ele>1024.96</ele><time>2022-02-05T13:17:15Z</time></trkpt>
<trkpt lat="45.894328" lon="11.58725"><ele>1025.77</ele><time>2022-02-05T13:17:17Z</time></trkpt>
<trkpt lat="45.894538" lon="11.587704"><ele>1024.27</ele><time>2022-02-05T13:17:18Z</time></trkpt>
<trkpt lat="45.894579" lon="11.587837"><ele>1023.38</ele><time>2022-02-05T13:17:20Z</time></trkpt>
<trkpt lat="45.894646" lon="11.588165"><ele>1022.03</ele><time>2022-02-05T13:17:22Z</time></trkpt>
<trkpt lat="45.89471" lon="11.588605"><ele>1021.47</ele><time>2022-02-05T13:17:24Z</time></trkpt>
<trkpt lat="45.894721" lon="11.588874"><ele>1021.89</ele><time>2022-02-05T13:17:26Z</time></trkpt>
<trkpt lat="45.894684" lon="11.589454"><ele>1023.23</ele><time>2022-02-05T13:17:28Z</time></trkpt>
<trkpt lat="45.894691" lon="11.592084"><ele>1020.0</ele><time>2022-02-05T13:17:30Z</time></trkpt>
<trkpt lat="45.894704" lon="11.592326"><ele>1021.44</ele><time>2022-02-05T13:17:31Z</time></trkpt>
<trkpt lat="45.894722" lon="11.592474"><ele>1022.1</ele><time>2022-02-05T13:17:33Z</time></trkpt>
<trkpt lat="45.894788" lon="11.592765"><ele>1022.21</ele><time>2022-02-05T13:17:35Z</time></trkpt>
<trkpt lat="45.89503" lon="11.59354"><ele>1021.16</ele><time>2022-02-05T13:17:37Z</time></trkpt>
<trkpt lat="45.895063" lon="11.593711"><ele>1020.34</ele><time>2022-02-05T13:17:39Z</time></trkpt>
<trkpt lat="45.895071" lon="11.594065"><ele>1020.26</ele><time>2022-02-05T13:17:41Z</time></trkpt>
<trkpt lat="45.894994" lon="11.594725"><ele>1018.55</ele><time>2022-02-05T13:17:42Z</time></trkpt>
<trkpt lat="45.894997" lon="11.595071"><ele>1015.57</ele><time>2022-02-05T13:17:44Z</time></trkpt>
<trkpt lat="45.895028" lon="11.595256"><ele>1017.0</ele><time>2022-02-05T13:17:46Z</time></trkpt>
<trkpt lat="45.895119" lon="11.595602"><ele>1017.53</ele><time>2022-02-05T13:17:48Z</time></trkpt>
<trkpt lat="45.89535" lon="11.596283"><ele>1014.58</ele><time>2022-02-05T13:17:50Z</time></trkpt>
<trkpt lat="45.895406" lon="11.596525"><ele>1011.28</ele><time>2022-02-05T13:17:52Z</time></trkpt>
<trkpt lat="45.895439" lon="11.596779"><ele>1007.1</ele><time>2022-02-05T13:17:53Z</time></trkpt>
<trkpt lat="45.895454" lon="11.597043"><ele>1004.42</ele><time>2022-02-05T13:17:55Z</time></trkpt>
<trkpt lat="45.895463" lon="11.598112"><ele>1012.39</ele><time>2022-02-05T13:17:57Z</time></trkpt>
<trkpt lat="45.89545" lon="11.598354"><ele>1010.19</ele><time>2022-02-05T13:17:59Z</time></trkpt>
<trkpt lat="45.89539" lon="11.598783"><ele>1004.14</ele><time>2022-02-05T13:18:01Z</time></trkpt>
<trkpt lat="45.895096" lon="11.600274"><ele>996.8</ele><time>2022-02-05T13:18:03Z</time></trkpt>
<trkpt lat="45.895091" lon="11.600413"><ele>997.4</ele><time>2022-02-05T13:18:05Z</time></trkpt>
<trkpt lat="45.895142" lon="11.600664"><ele>998.34</ele><time>2022-02-05T13:18:06Z</time></trkpt>
<trkpt lat="45.895187" lon="11.600751"><ele>998.46</ele><time>2022-02-05T13:18:08Z</time></trkpt>
<trkpt lat="45.895261" lon="11.60084"><ele>999.28</ele><time>2022-02-05T13:18:10Z</time></trkpt>
<trkpt lat="45.895356" lon="11.600898"><ele>1000.05</ele><time>2022-02-05T13:18:12Z</time></trkpt>
<trkpt lat="45.895899" lon="11.601002"><ele>1005.41</ele><time>2022-02-05T13:18:14Z</time></trkpt>
<trkpt lat="45.896017" lon="11.601064"><ele>1005.05</ele><time>2022-02-05T13:18:16Z</time></trkpt>
<trkpt lat="45.896082" lon="11.601123"><ele>1003.88</ele><time>2022-02-05T13:18:17Z</time></trkpt>
<trkpt lat="45.89616" lon="11.601242"><ele>1001.36</ele><time>2022-02-05T13:18:19Z</time></trkpt>
<trkpt lat="45.896201" lon="11.601368"><ele>998.56</ele><time>2022-02-05T13:18:21Z</time></trkpt>
<trkpt lat="45.896211" lon="11.601494"><ele>996.38</ele><time>2022-02-05T13:18:23Z</time></trkpt>
<trkpt lat="45.896197" lon="11.601627"><ele>992.99</ele><time>2022-02-05T13:18:25Z</time></trkpt>
<trkpt lat="45.896151" lon="11.60182"><ele>990.7</ele><time>2022-02-05T13:18:27Z</time></trkpt>
<trkpt lat="45.895455" lon="11.603952"><ele>1001.5</ele><time>2022-02-05T13:18:28Z</time></trkpt>
<trkpt lat="45.895351" lon="11.604147"><ele>1001.89</ele><time>2022-02-05T13:18:30Z</time></trkpt>
<trkpt lat="45.894842" lon="11.604836"><ele>1006.37</ele><time>2022-02-05T13:18:32Z</time></trkpt>
<trkpt lat="45.894694" lon="11.605143"><ele>1006.71</ele><time>2022-02-05T13:18:34Z</time></trkpt>
<trkpt lat="45.89463" lon="11.605314"><ele>1006.07</ele><time>2022-02-05T13:18:36Z</time></trkpt>
<trkpt lat="45.894603" lon="11.605451"><ele>1006.11</ele><time>2022-02-05T13:18:38Z</time></trkpt>
<trkpt lat="45.894596" lon="11.605585"><ele>1006.84</ele><time>2022-02-05T13:18:39Z</time></trkpt>
<trkpt lat="45.89461" lon="11.607079"><ele>1009.59</ele><time>2022-02-05T13:18:41Z</time></trkpt>
<trkpt lat="45.894591" lon="11.607257"><ele>1009.57</ele><time>2022-02-05T13:18:43Z</time></trkpt>
<trkpt lat="45.894519" lon="11.607559"><ele>1007.63</ele><time>2022-02-05T13:18:45Z</time></trkpt>
<trkpt lat="45.89448" lon="11.60783"><ele>1008.38</ele><time>2022-02-05T13:18:47Z</time></trkpt>
<trkpt lat="45.894437" lon="11.609036"><ele>1010.61</ele><time>2022-02-05T13:18:49Z</time></trkpt>
<trkpt lat="45.894416" lon="11.609243"><ele>1010.11</ele><time>2022-02-05T13:18:51Z</time></trkpt>
<trkpt lat="45.894381" lon="11.609427"><ele>1009.66</ele><time>2022-02-05T13:18:52Z</time></trkpt>
<trkpt lat="45.894317" lon="11.609626"><ele>1010.88</ele><time>2022-02-05T13:18:54Z</time></trkpt>
<trkpt lat="45.894231" lon="11.609797"><ele>1011.03</ele><time>2022-02-05T13:18:56Z</time></trkpt>
<trkpt lat="45.893862" lon="11.610329"><ele>1013.69</ele><time>2022-02-05T13:18:58Z</time></trkpt>
<trkpt lat="45.89374" lon="11.610461"><ele>1013.24</ele><time>2022-02-05T13:19:00Z</time></trkpt>
<trkpt lat="45.893147" lon="11.610914"><ele>1018.17</ele><time>2022-02-05T13:19:02Z</time></trkpt>
<trkpt lat="45.892521" lon="11.611152"><ele>1007.78</ele><time>2022-02-05T13:19:03Z</time></trkpt>
<trkpt lat="45.892255" lon="11.611335"><ele>1007.94</ele><time>2022-02-05T13:19:05Z</time></trkpt>
<trkpt lat="45.892111" lon="11.611534"><ele>1007.98</ele><time>2022-02-05T13:19:07Z</time></trkpt>
<trkpt lat="45.891978" lon="11.611855"><ele>1006.22</ele><time>2022-02-05T13:19:09Z</time></trkpt>
<trkpt lat="45.891946" lon="11.611982"><ele>1005.44</ele><time>2022-02-05T13:19:11Z</time></trkpt>
<trkpt lat="45.891943" lon="11.612267"><ele>1008.1</ele><time>2022-02-05T13:19:13Z</time></trkpt>
<trkpt lat="45.892016" lon="11.612729"><ele>1010.19</ele><time>2022-02-05T13:19:14Z</time></trkpt>
<trkpt lat="45.892138" lon="11.613217"><ele>1012.11</ele><time>2022-02-05T13:19:16Z</time></trkpt>
<trkpt lat="45.892216" lon="11.613867"><ele>1011.95</ele><time>2022-02-05T13:19:18Z</time></trkpt>
<trkpt lat="45.892213" lon="11.61421"><ele>1012.16</ele><time>2022-02-05T13:19:20Z</time></trkpt>
<trkpt lat="45.892145" lon="11.614554"><ele>1014.92</ele><time>2022-02-05T13:19:22Z</time></trkpt>
<trkpt lat="45.891929" lon="11.615042"><ele>1014.96</ele><time>2022-02-05T13:19:24Z</time></trkpt>
<trkpt lat="45.891785" lon="11.615242"><ele>1012.59</ele><time>2022-02-05T13:19:26Z</time></trkpt>
<trkpt lat="45.891627" lon="11.615424"><ele>1012.59</ele><time>2022-02-05T13:19:27Z</time></trkpt>
<trkpt lat="45.891378" lon="11.615632"><ele>1017.11</ele><time>2022-02-05T13:19:29Z</time></trkpt>
<trkpt lat="45.890976" lon="11.615884"><ele>1019.51</ele><time>2022-02-05T13:19:31Z</time></trkpt>
<trkpt lat="45.890817" lon="11.616044"><ele>1018.02</ele><time>2022-02-05T13:19:33Z</time></trkpt>
<trkpt lat="45.890777" lon="11.616056"><ele>1016.89</ele><time>2022-02-05T13:19:35Z</time></trkpt>
<trkpt lat="45.890728" lon="11.61636"><ele>1016.65</ele><time>2022-02-05T13:19:37Z</time></trkpt>
<trkpt lat="45.890746" lon="11.616488"><ele>1016.29</ele><time>2022-02-05T13:19:38Z</time></trkpt>
<trkpt lat="45.890836" lon="11.616696"><ele>1016.4</ele><time>2022-02-05T13:19:40Z</time></trkpt>
<trkpt lat="45.890905" lon="11.61675"><ele>1015.63</ele><time>2022-02-05T13:19:42Z</time></trkpt>
<trkpt lat="45.891088" lon="11.616765"><ele>1016.38</ele><time>2022-02-05T13:19:44Z</time></trkpt>
<trkpt lat="45.891445" lon="11.616677"><ele>1020.93</ele><time>2022-02-05T13:19:46Z</time></trkpt>
<trkpt lat="45.891841" lon="11.616536"><ele>1022.48</ele><time>2022-02-05T13:19:48Z</time></trkpt>
<trkpt lat="45.892339" lon="11.616257"><ele>1021.4</ele><time>2022-02-05T13:19:49Z</time></trkpt>
<trkpt lat="45.892547" lon="11.616089"><ele>1023.12</ele><time>2022-02-05T13:19:51Z</time></trkpt>
<trkpt lat="45.893331" lon="11.615272"><ele>1021.16</ele><time>2022-02-05T13:19:53Z</time></trkpt>
<trkpt lat="45.893371" lon="11.615198"><ele>1021.83</ele><time>2022-02-05T13:19:55Z</time></trkpt>
<trkpt lat="45.893648" lon="11.614974"><ele>1024.55</ele><time>2022-02-05T13:19:57Z</time></trkpt>
<trkpt lat="45.893754" lon="11.614919"><ele>1025.82</ele><time>2022-02-05T13:19:59Z</time></trkpt>
<trkpt lat="45.893942" lon="11.614918"><ele>1025.9</ele><time>2022-02-05T13:20:00Z</time></trkpt>
<trkpt lat="45.894062" lon="11.614957"><ele>1024.8</ele><time>2022-02-05T13:20:02Z</time></trkpt>
<trkpt lat="45.89492" lon="11.615374"><ele>1027.96</ele><time>2022-02-05T13:20:04Z</time></trkpt>
<trkpt lat="45.895223" lon="11.615576"><ele>1026.81</ele><time>2022-02-05T13:20:06Z</time></trkpt>
<trkpt lat="45.895581" lon="11.615878"><ele>1026.1</ele><time>2022-02-05T13:20:08Z</time></trkpt>
<trkpt lat="45.896969" lon="11.617271"><ele>1025.92</ele><time>2022-02-05T13:20:10Z</time></trkpt>
<trkpt lat="45.897138" lon="11.617387"><ele>1028.77</ele><time>2022-02-05T13:20:12Z</time></trkpt>
<trkpt lat="45.897303" lon="11.617462"><ele>1030.3</ele><time>2022-02-05T13:20:13Z</time></trkpt>
<trkpt lat="45.897591" lon="11.617517"><ele>1034.35</ele><time>2022-02-05T13:20:15Z</time></trkpt>
<trkpt lat="45.897763" lon="11.617574"><ele>1036.03</ele><time>2022-02-05T13:20:17Z</time></trkpt>
<trkpt lat="45.897899" lon="11.617727"><ele>1035.01</ele><time>2022-02-05T13:20:19Z</time></trkpt>
<trkpt lat="45.898241" lon="11.618448"><ele>1028.64</ele><time>2022-02-05T13:20:21Z</time></trkpt>
<trkpt lat="45.898535" lon="11.61893"><ele>1028.44</ele><time>2022-02-05T13:20:23Z</time></trkpt>
<trkpt lat="45.900449" lon="11.621663"><ele>1043.64</ele><time>2022-02-05T13:20:24Z</time></trkpt>
<trkpt lat="45.900555" lon="11.621875"><ele>1047.49</ele><time>2022-02-05T13:20:26Z</time></trkpt>
<trkpt lat="45.900621" lon="11.622055"><ele>1048.94</ele><time>2022-02-05T13:20:28Z</time></trkpt>
<trkpt lat="45.900688" lon="11.622433"><ele>1049.62</ele><time>2022-02-05T13:20:30Z</time></trkpt>
<trkpt lat="45.900693" lon="11.622632"><ele>1047.06</ele><time>2022-02-05T13:20:32Z</time></trkpt>
<trkpt lat="45.900597" lon="11.623437"><ele>1038.75</ele><time>2022-02-05T13:20:34Z</time></trkpt>
<trkpt lat="45.9006" lon="11.623669"><ele>1040.21</ele><time>2022-02-05T13:20:35Z</time></trkpt>
<trkpt lat="45.900703" lon="11.624054"><ele>1044.9</ele><time>2022-02-05T13:20:37Z</time></trkpt>
<trkpt lat="45.900763" lon="11.624658"><ele>1048.06</ele><time>2022-02-05T13:20:39Z</time></trkpt>
<trkpt lat="45.900756" lon="11.624746"><ele>1048.31</ele><time>2022-02-05T13:20:41Z</time></trkpt>
<trkpt lat="45.900721" lon="11.624836"><ele>1048.65</ele><time>2022-02-05T13:20:43Z</time></trkpt>
<trkpt lat="45.900665" lon="11.624899"><ele>1048.57</ele><time>2022-02-05T13:20:45Z</time></trkpt>
<trkpt lat="45.900584" lon="11.624947"><ele>1048.23</ele><time>2022-02-05T13:20:47Z</time></trkpt>
<trkpt lat="45.900493" lon="11.624969"><ele>1048.26</ele><time>2022-02-05T13:20:48Z</time></trkpt>
<trkpt lat="45.899988" lon="11.624966"><ele>1044.38</ele><time>2022-02-05T13:20:50Z</time></trkpt>
<trkpt lat="45.89987" lon="11.625018"><ele>1043.85</ele><time>2022-02-05T13:20:52Z</time></trkpt>
<trkpt lat="45.899736" lon="11.625132"><ele>1045.08</ele><time>2022-02-05T13:20:54Z</time></trkpt>
<trkpt lat="45.899654" lon="11.62524"><ele>1046.52</ele><time>2022-02-05T13:20:56Z</time></trkpt>
<trkpt lat="45.899599" lon="11.625395"><ele>1048.59</ele><time>2022-02-05T13:20:58Z</time></trkpt>
<trkpt lat="45.899573" lon="11.625564"><ele>1051.26</ele><time>2022-02-05T13:20:59Z</time></trkpt>
<trkpt lat="45.899517" lon="11.626164"><ele>1058.42</ele><time>2022-02-05T13:21:01Z</time></trkpt>
<trkpt lat="45.899485" lon="11.626341"><ele>1058.98</ele><time>2022-02-05T13:21:03Z</time></trkpt>
<trkpt lat="45.899312" lon="11.62684"><ele>1054.38</ele><time>2022-02-05T13:21:05Z</time></trkpt>
<trkpt lat="45.899296" lon="11.626967"><ele>1053.77</ele><time>2022-02-05T13:21:07Z</time></trkpt>
<trkpt lat="45.89931" lon="11.627078"><ele>1054.36</ele><time>2022-02-05T13:21:09Z</time></trkpt>
<trkpt lat="45.899401" lon="11.627439"><ele>1056.36</ele><time>2022-02-05T13:21:10Z</time></trkpt>
<trkpt lat="45.899385" lon="11.627631"><ele>1056.23</ele><time>2022-02-05T13:21:12Z</time></trkpt>
<trkpt lat="45.899342" lon="11.627726"><ele>1056.06</ele><time>2022-02-05T13:21:14Z</time></trkpt>
<trkpt lat="45.899119" lon="11.627926"><ele>1057.06</ele><time>2022-02-05T13:21:16Z</time></trkpt>
<trkpt lat="45.898412" lon="11.628403"><ele>1063.06</ele><time>2022-02-05T13:21:18Z</time></trkpt>
<trkpt lat="45.897906" lon="11.628678"><ele>1062.45</ele><time>2022-02-05T13:21:20Z</time></trkpt>
<trkpt lat="45.897163" lon="11.629444"><ele>1076.92</ele><time>2022-02-05T13:21:21Z</time></trkpt>
<trkpt lat="45.896823" lon="11.629849"><ele>1076.16</ele><time>2022-02-05T13:21:23Z</time></trkpt>
<trkpt lat="45.896621" lon="11.63012"><ele>1077.34</ele><time>2022-02-05T13:21:25Z</time></trkpt>
<trkpt lat="45.896513" lon="11.630396"><ele>1079.75</ele><time>2022-02-05T13:21:27Z</time></trkpt>
<trkpt lat="45.896488" lon="11.630517"><ele>1080.92</ele><time>2022-02-05T13:21:29Z</time></trkpt>
<trkpt lat="45.896508" lon="11.63062"><ele>1082.08</ele><time>2022-02-05T13:21:31Z</time></trkpt>
<trkpt lat="45.896555" lon="11.630687"><ele>1083.05</ele><time>2022-02-05T13:21:33Z</time></trkpt>
<trkpt lat="45.896651" lon="11.630703"><ele>1084.33</ele><time>2022-02-05T13:21:34Z</time></trkpt>
<trkpt lat="45.897424" lon="11.630623"><ele>1091.0</ele><time>2022-02-05T13:21:36Z</time></trkpt>
<trkpt lat="45.897631" lon="11.630477"><ele>1091.72</ele><time>2022-02-05T13:21:38Z</time></trkpt>
<trkpt lat="45.897835" lon="11.630384"><ele>1091.46</ele><time>2022-02-05T13:21:40Z</time></trkpt>
<trkpt lat="45.89998" lon="11.629857"><ele>1079.84</ele><time>2022-02-05T13:21:42Z</time></trkpt>
<trkpt lat="45.900232" lon="11.62983"><ele>1078.27</ele><time>2022-02-05T13:21:44Z</time></trkpt>
<trkpt lat="45.90023" lon="11.629917"><ele>1078.22</ele><time>2022-02-05T13:21:45Z</time></trkpt>
<trkpt lat="45.900216" lon="11.629947"><ele>1078.27</ele><time>2022-02-05T13:21:47Z</time></trkpt>
<trkpt lat="45.899813" lon="11.630183"><ele>1079.51</ele><time>2022-02-05T13:21:49Z</time></trkpt>
<trkpt lat="45.899526" lon="11.630395"><ele>1079.28</ele><time>2022-02-05T13:21:51Z</time></trkpt>
<trkpt lat="45.899227" lon="11.630707"><ele>1076.27</ele><time>2022-02-05T13:21:53Z</time></trkpt>
<trkpt lat="45.899102" lon="11.630905"><ele>1076.26</ele><time>2022-02-05T13:21:54Z</time></trkpt>
<trkpt lat="45.898983" lon="11.631153"><ele>1079.5</ele><time>2022-02-05T13:21:56Z</time></trkpt>
<trkpt lat="45.898936" lon="11.631253"><ele>1081.25</ele><time>2022-02-05T13:21:58Z</time></trkpt>
<trkpt lat="45.898916" lon="11.631364"><ele>1082.21</ele><time>2022-02-05T13:22:00Z</time></trkpt>
<trkpt lat="45.898922" lon="11.631503"><ele>1083.71</ele><time>2022-02-05T13:22:01Z</time></trkpt>
<trkpt lat="45.898978" lon="11.631702"><ele>1084.2</ele><time>2022-02-05T13:22:03Z</time></trkpt>
<trkpt lat="45.899098" lon="11.631955"><ele>1081.77</ele><time>2022-02-05T13:22:05Z</time></trkpt>
<trkpt lat="45.899208" lon="11.632096"><ele>1079.5</ele><time>2022-02-05T13:22:07Z</time></trkpt>
<trkpt lat="45.899487" lon="11.63254"><ele>1075.53</ele><time>2022-02-05T13:22:09Z</time></trkpt>
<trkpt lat="45.899892" lon="11.633275"><ele>1069.12</ele><time>2022-02-05T13:22:10Z</time></trkpt>
<trkpt lat="45.900377" lon="11.634339"><ele>1052.05</ele><time>2022-02-05T13:22:12Z</time></trkpt>
<trkpt lat="45.900436" lon="11.634518"><ele>1051.53</ele><time>2022-02-05T13:22:14Z</time></trkpt>
<trkpt lat="45.900612" lon="11.635239"><ele>1049.55</ele><time>2022-02-05T13:22:16Z</time></trkpt>
<trkpt lat="45.900643" lon="11.635503"><ele>1049.55</ele><time>2022-02-05T13:22:17Z</time></trkpt>
<trkpt lat="45.900639" lon="11.635713"><ele>1048.54</ele><time>2022-02-05T13:22:19Z</time></trkpt>
<trkpt lat="45.900606" lon="11.635912"><ele>1046.83</ele><time>2022-02-05T13:22:21Z</time></trkpt>
<trkpt lat="45.900529" lon="11.636148"><ele>1043.86</ele><time>2022-02-05T13:22:23Z</time></trkpt>
<trkpt lat="45.900394" lon="11.63634"><ele>1042.32</ele><time>2022-02-05T13:22:25Z</time></trkpt>
<trkpt lat="45.900267" lon="11.636478"><ele>1040.53</ele><time>2022-02-05T13:22:26Z</time></trkpt>
<trkpt lat="45.90012" lon="11.636601"><ele>1040.02</ele><time>2022-02-05T13:22:28Z</time></trkpt>
<trkpt lat="45.898989" lon="11.637264"><ele>1031.37</ele><time>2022-02-05T13:22:30Z</time></trkpt>
<trkpt lat="45.898081" lon="11.637732"><ele>1023.83</ele><time>2022-02-05T13:22:32Z</time></trkpt>
<trkpt lat="45.897818" lon="11.637802"><ele>1020.53</ele><time>2022-02-05T13:22:33Z</time></trkpt>
<trkpt lat="45.897362" lon="11.637793"><ele>1012.13</ele><time>2022-02-05T13:22:35Z</time></trkpt>
<trkpt lat="45.897176" lon="11.63767"><ele>1010.79</ele><time>2022-02-05T13:22:37Z</time></trkpt>
<trkpt lat="45.896978" lon="11.63744"><ele>1010.99</ele><time>2022-02-05T13:22:39Z</time></trkpt>
<trkpt lat="45.896834" lon="11.637238"><ele>1009.08</ele><time>2022-02-05T13:22:41Z</time></trkpt>
<trkpt lat="45.896744" lon="11.637006"><ele>1006.83</ele><time>2022-02-05T13:22:42Z</time></trkpt>
<trkpt lat="45.896667" lon="11.636646"><ele>1005.18</ele><time>2022-02-05T13:22:44Z</time></trkpt>
<trkpt lat="45.896614" lon="11.63657"><ele>1003.56</ele><time>2022-02-05T13:22:46Z</time></trkpt>
<trkpt lat="45.89649" lon="11.63624"><ele>1000.3</ele><time>2022-02-05T13:22:48Z</time></trkpt>
<trkpt lat="45.896423" lon="11.635723"><ele>1000.82</ele><time>2022-02-05T13:22:50Z</time></trkpt>
<trkpt lat="45.896406" lon="11.63512"><ele>1000.04</ele><time>2022-02-05T13:22:51Z</time></trkpt>
<trkpt lat="45.896418" lon="11.63417"><ele>999.16</ele><time>2022-02-05T13:22:53Z</time></trkpt>
<trkpt lat="45.896389" lon="11.633805"><ele>999.93</ele><time>2022-02-05T13:22:55Z</time></trkpt>
<trkpt lat="45.896333" lon="11.633713"><ele>999.28</ele><time>2022-02-05T13:22:57Z</time></trkpt>
<trkpt lat="45.896287" lon="11.633682"><ele>998.38</ele><time>2022-02-05T13:22:58Z</time></trkpt>
<trkpt lat="45.896219" lon="11.633676"><ele>996.59</ele><time>2022-02-05T13:23:00Z</time></trkpt>
<trkpt lat="45.896144" lon="11.633709"><ele>993.84</ele><time>2022-02-05T13:23:02Z</time></trkpt>
<trkpt lat="45.895176" lon="11.634405"><ele>991.38</ele><time>2022-02-05T13:23:04Z</time></trkpt>
<trkpt lat="45.895039" lon="11.634669"><ele>990.86</ele><time>2022-02-05T13:23:06Z</time></trkpt>
<trkpt lat="45.894995" lon="11.634817"><ele>989.62</ele><time>2022-02-05T13:23:07Z</time></trkpt>
<trkpt lat="45.894863" lon="11.635151"><ele>994.78</ele><time>2022-02-05T13:23:09Z</time></trkpt>
<trkpt lat="45.894831" lon="11.635402"><ele>994.25</ele><time>2022-02-05T13:23:11Z</time></trkpt>
<trkpt lat="45.894948" lon="11.636492"><ele>984.69</ele><time>2022-02-05T13:23:13Z</time></trkpt>
<trkpt lat="45.894948" lon="11.636492"><ele>984.69</ele><time>2022-02-05T13:23:13Z</time></trkpt>
<trkpt lat="45.895029" lon="11.637236"><ele>975.13</ele><time>2022-02-05T13:23:14Z</time></trkpt>
<trkpt lat="45.895083" lon="11.638341"><ele>967.15</ele><time>2022-02-05T13:23:15Z</time></trkpt>
<trkpt lat="45.895036" lon="11.638815"><ele>963.25</ele><time>2022-02-05T13:23:17Z</time></trkpt>
<trkpt lat="45.894948" lon="11.639164"><ele>957.8</ele><time>2022-02-05T13:23:18Z</time></trkpt>
<trkpt lat="45.8948" lon="11.639382"><ele>953.91</ele><time>2022-02-05T13:23:19Z</time></trkpt>
<trkpt lat="45.894582" lon="11.639499"><ele>952.02</ele><time>2022-02-05T13:23:20Z</time></trkpt>
<trkpt lat="45.894387" lon="11.639517"><ele>952.53</ele><time>2022-02-05T13:23:22Z</time></trkpt>
<trkpt lat="45.893258" lon="11.63932"><ele>958.8</ele><time>2022-02-05T13:23:23Z</time></trkpt>
<trkpt lat="45.893152" lon="11.639334"><ele>957.41</ele><time>2022-02-05T13:23:24Z</time></trkpt>
<trkpt lat="45.893047" lon="11.639405"><ele>954.39</ele><time>2022-02-05T13:23:26Z</time></trkpt>
<trkpt lat="45.892806" lon="11.639856"><ele>945.0</ele><time>2022-02-05T13:23:27Z</time></trkpt>
<trkpt lat="45.892434" lon="11.64032"><ele>943.44</ele><time>2022-02-05T13:23:28Z</time></trkpt>
<trkpt lat="45.892122" lon="11.64063"><ele>935.61</ele><time>2022-02-05T13:23:29Z</time></trkpt>
<trkpt lat="45.89192" lon="11.640742"><ele>929.99</ele><time>2022-02-05T13:23:31Z</time></trkpt>
<trkpt lat="45.891711" lon="11.640792"><ele>925.36</ele><time>2022-02-05T13:23:32Z</time></trkpt>
<trkpt lat="45.891497" lon="11.640795"><ele>923.19</ele><time>2022-02-05T13:23:33Z</time></trkpt>
<trkpt lat="45.891137" lon="11.640679"><ele>925.49</ele><time>2022-02-05T13:23:35Z</time></trkpt>
<trkpt lat="45.890973" lon="11.640683"><ele>926.58</ele><time>2022-02-05T13:23:36Z</time></trkpt>
<trkpt lat="45.890623" lon="11.640846"><ele>923.3</ele><time>2022-02-05T13:23:37Z</time></trkpt>
<trkpt lat="45.890223" lon="11.64092"><ele>916.42</ele><time>2022-02-05T13:23:39Z</time></trkpt>
<trkpt lat="45.887798" lon="11.641605"><ele>909.62</ele><time>2022-02-05T13:23:40Z</time></trkpt>
<trkpt lat="45.887216" lon="11.642281"><ele>898.99</ele><time>2022-02-05T13:23:41Z</time></trkpt>
<trkpt lat="45.886822" lon="11.642321"><ele>902.71</ele><time>2022-02-05T13:23:42Z</time></trkpt>
<trkpt lat="45.886229" lon="11.642619"><ele>892.61</ele><time>2022-02-05T13:23:44Z</time></trkpt>
<trkpt lat="45.886068" lon="11.642613"><ele>890.77</ele><time>2022-02-05T13:23:45Z</time></trkpt>
<trkpt lat="45.885538" lon="11.642472"><ele>893.52</ele><time>2022-02-05T13:23:46Z</time></trkpt>
<trkpt lat="45.885145" lon="11.642529"><ele>891.07</ele><time>2022-02-05T13:23:48Z</time></trkpt>
<trkpt lat="45.884747" lon="11.642766"><ele>886.19</ele><time>2022-02-05T13:23:49Z</time></trkpt>
<trkpt lat="45.884592" lon="11.642845"><ele>885.1</ele><time>2022-02-05T13:23:50Z</time></trkpt>
<trkpt lat="45.884407" lon="11.64291"><ele>883.58</ele><time>2022-02-05T13:23:51Z</time></trkpt>
<trkpt lat="45.883311" lon="11.642822"><ele>868.08</ele><time>2022-02-05T13:23:53Z</time></trkpt>
<trkpt lat="45.883145" lon="11.642829"><ele>862.75</ele><time>2022-02-05T13:23:54Z</time></trkpt>
<trkpt lat="45.883045" lon="11.642818"><ele>860.05</ele><time>2022-02-05T13:23:55Z</time></trkpt>
<trkpt lat="45.882967" lon="11.642774"><ele>858.13</ele><time>2022-02-05T13:23:57Z</time></trkpt>
<trkpt lat="45.88267" lon="11.642301"><ele>869.51</ele><time>2022-02-05T13:23:58Z</time></trkpt>
<trkpt lat="45.882627" lon="11.642285"><ele>870.25</ele><time>2022-02-05T13:23:59Z</time></trkpt>
<trkpt lat="45.88258" lon="11.642296"><ele>871.13</ele><time>2022-02-05T13:24:01Z</time></trkpt>
<trkpt lat="45.88251" lon="11.64234"><ele>872.89</ele><time>2022-02-05T13:24:02Z</time></trkpt>
<trkpt lat="45.882169" lon="11.642537"><ele>859.58</ele><time>2022-02-05T13:24:03Z</time></trkpt>
<trkpt lat="45.881806" lon="11.64253"><ele>848.95</ele><time>2022-02-05T13:24:04Z</time></trkpt>
<trkpt lat="45.881363" lon="11.642367"><ele>844.76</ele><time>2022-02-05T13:24:06Z</time></trkpt>
<trkpt lat="45.880724" lon="11.642035"><ele>842.07</ele><time>2022-02-05T13:24:07Z</time></trkpt>
<trkpt lat="45.880524" lon="11.641999"><ele>837.09</ele><time>2022-02-05T13:24:08Z</time></trkpt>
<trkpt lat="45.880307" lon="11.641998"><ele>829.22</ele><time>2022-02-05T13:24:10Z</time></trkpt>
<trkpt lat="45.880173" lon="11.641953"><ele>827.1</ele><time>2022-02-05T13:24:11Z</time></trkpt>
<trkpt lat="45.880049" lon="11.641792"><ele>831.61</ele><time>2022-02-05T13:24:12Z</time></trkpt>
<trkpt lat="45.879905" lon="11.641649"><ele>837.58</ele><time>2022-02-05T13:24:14Z</time></trkpt>
<trkpt lat="45.879761" lon="11.641609"><ele>838.91</ele><time>2022-02-05T13:24:15Z</time></trkpt>
<trkpt lat="45.879613" lon="11.641628"><ele>836.16</ele><time>2022-02-05T13:24:16Z</time></trkpt>
<trkpt lat="45.879446" lon="11.641689"><ele>829.61</ele><time>2022-02-05T13:24:17Z</time></trkpt>
<trkpt lat="45.879312" lon="11.641698"><ele>826.2</ele><time>2022-02-05T13:24:19Z</time></trkpt>
<trkpt lat="45.879188" lon="11.641675"><ele>824.95</ele><time>2022-02-05T13:24:20Z</time></trkpt>
<trkpt lat="45.879141" lon="11.641763"><ele>818.81</ele><time>2022-02-05T13:24:21Z</time></trkpt>
<trkpt lat="45.879174" lon="11.641831"><ele>815.65</ele><time>2022-02-05T13:24:23Z</time></trkpt>
<trkpt lat="45.879417" lon="11.641849"><ele>818.72</ele><time>2022-02-05T13:24:24Z</time></trkpt>
<trkpt lat="45.879591" lon="11.641826"><ele>823.35</ele><time>2022-02-05T13:24:25Z</time></trkpt>
<trkpt lat="45.879671" lon="11.641834"><ele>824.21</ele><time>2022-02-05T13:24:26Z</time></trkpt>
<trkpt lat="45.879888" lon="11.641965"><ele>819.14</ele><time>2022-02-05T13:24:28Z</time></trkpt>
<trkpt lat="45.88001" lon="11.642127"><ele>811.85</ele><time>2022-02-05T13:24:29Z</time></trkpt>
<trkpt lat="45.880124" lon="11.642376"><ele>800.84</ele><time>2022-02-05T13:24:30Z</time></trkpt>
<trkpt lat="45.88021" lon="11.642475"><ele>797.41</ele><time>2022-02-05T13:24:32Z</time></trkpt>
<trkpt lat="45.880355" lon="11.642491"><ele>802.73</ele><time>2022-02-05T13:24:33Z</time></trkpt>
<trkpt lat="45.880613" lon="11.642481"><ele>816.01</ele><time>2022-02-05T13:24:34Z</time></trkpt>
<trkpt lat="45.880795" lon="11.642542"><ele>818.57</ele><time>2022-02-05T13:24:36Z</time></trkpt>
<trkpt lat="45.880891" lon="11.642633"><ele>815.21</ele><time>2022-02-05T13:24:37Z</time></trkpt>
<trkpt lat="45.881028" lon="11.642815"><ele>806.96</ele><time>2022-02-05T13:24:38Z</time></trkpt>
<trkpt lat="45.881247" lon="11.64297"><ele>804.66</ele><time>2022-02-05T13:24:39Z</time></trkpt>
<trkpt lat="45.881484" lon="11.643037"><ele>810.53</ele><time>2022-02-05T13:24:41Z</time></trkpt>
<trkpt lat="45.881762" lon="11.643079"><ele>816.73</ele><time>2022-02-05T13:24:42Z</time></trkpt>
<trkpt lat="45.881947" lon="11.643021"><ele>820.6</ele><time>2022-02-05T13:24:43Z</time></trkpt>
<trkpt lat="45.882115" lon="11.643022"><ele>818.73</ele><time>2022-02-05T13:24:45Z</time></trkpt>
<trkpt lat="45.882241" lon="11.643162"><ele>809.24</ele><time>2022-02-05T13:24:46Z</time></trkpt>
<trkpt lat="45.882319" lon="11.643331"><ele>803.62</ele><time>2022-02-05T13:24:47Z</time></trkpt>
<trkpt lat="45.882325" lon="11.643453"><ele>801.02</ele><time>2022-02-05T13:24:48Z</time></trkpt>
<trkpt lat="45.882268" lon="11.643613"><ele>792.84</ele><time>2022-02-05T13:24:50Z</time></trkpt>
<trkpt lat="45.881935" lon="11.643973"><ele>783.7</ele><time>2022-02-05T13:24:51Z</time></trkpt>
<trkpt lat="45.881463" lon="11.644271"><ele>785.96</ele><time>2022-02-05T13:24:52Z</time></trkpt>
<trkpt lat="45.881326" lon="11.644332"><ele>784.66</ele><time>2022-02-05T13:24:54Z</time></trkpt>
<trkpt lat="45.880966" lon="11.644366"><ele>777.64</ele><time>2022-02-05T13:24:55Z</time></trkpt>
<trkpt lat="45.880809" lon="11.64442"><ele>774.98</ele><time>2022-02-05T13:24:56Z</time></trkpt>
<trkpt lat="45.880115" lon="11.64485"><ele>757.21</ele><time>2022-02-05T13:24:58Z</time></trkpt>
<trkpt lat="45.880012" lon="11.644941"><ele>755.44</ele><time>2022-02-05T13:24:59Z</time></trkpt>
<trkpt lat="45.879959" lon="11.645024"><ele>757.25</ele><time>2022-02-05T13:25:00Z</time></trkpt>
<trkpt lat="45.879786" lon="11.645373"><ele>765.56</ele><time>2022-02-05T13:25:01Z</time></trkpt>
<trkpt lat="45.87969" lon="11.64549"><ele>763.45</ele><time>2022-02-05T13:25:03Z</time></trkpt>
<trkpt lat="45.879521" lon="11.645645"><ele>757.94</ele><time>2022-02-05T13:25:04Z</time></trkpt>
<trkpt lat="45.879409" lon="11.645871"><ele>757.64</ele><time>2022-02-05T13:25:05Z</time></trkpt>
<trkpt lat="45.879332" lon="11.646173"><ele>770.33</ele><time>2022-02-05T13:25:07Z</time></trkpt>
<trkpt lat="45.879272" lon="11.64624"><ele>770.61</ele><time>2022-02-05T13:25:08Z</time></trkpt>
<trkpt lat="45.878714" lon="11.646468"><ele>756.05</ele><time>2022-02-05T13:25:09Z</time></trkpt>
<trkpt lat="45.878641" lon="11.64652"><ele>756.53</ele><time>2022-02-05T13:25:10Z</time></trkpt>
<trkpt lat="45.878455" lon="11.646738"><ele>760.58</ele><time>2022-02-05T13:25:12Z</time></trkpt>
<trkpt lat="45.878303" lon="11.646849"><ele>758.95</ele><time>2022-02-05T13:25:13Z</time></trkpt>
<trkpt lat="45.878171" lon="11.646857"><ele>755.12</ele><time>2022-02-05T13:25:14Z</time></trkpt>
<trkpt lat="45.87777" lon="11.646655"><ele>736.26</ele><time>2022-02-05T13:25:16Z</time></trkpt>
<trkpt lat="45.877697" lon="11.646646"><ele>734.51</ele><time>2022-02-05T13:25:17Z</time></trkpt>
<trkpt lat="45.87739" lon="11.646764"><ele>729.68</ele><time>2022-02-05T13:25:18Z</time></trkpt>
<trkpt lat="45.877162" lon="11.646934"><ele>724.75</ele><time>2022-02-05T13:25:20Z</time></trkpt>
<trkpt lat="45.877103" lon="11.647015"><ele>725.23</ele><time>2022-02-05T13:25:21Z</time></trkpt>
<trkpt lat="45.877041" lon="11.647171"><ele>728.48</ele><time>2022-02-05T13:25:22Z</time></trkpt>
<trkpt lat="45.876976" lon="11.647564"><ele>740.74</ele><time>2022-02-05T13:25:23Z</time></trkpt>
<trkpt lat="45.876923" lon="11.647711"><ele>744.04</ele><time>2022-02-05T13:25:25Z</time></trkpt>
<trkpt lat="45.876864" lon="11.647803"><ele>746.35</ele><time>2022-02-05T13:25:26Z</time></trkpt>
<trkpt lat="45.876709" lon="11.647969"><ele>750.19</ele><time>2022-02-05T13:25:27Z</time></trkpt>
<trkpt lat="45.876592" lon="11.648047"><ele>748.08</ele><time>2022-02-05T13:25:29Z</time></trkpt>
<trkpt lat="45.876482" lon="11.648045"><ele>741.3</ele><time>2022-02-05T13:25:30Z</time></trkpt>
<trkpt lat="45.876212" lon="11.647955"><ele>725.27</ele><time>2022-02-05T13:25:31Z</time></trkpt>
<trkpt lat="45.876139" lon="11.647958"><ele>722.28</ele><time>2022-02-05T13:25:33Z</time></trkpt>
<trkpt lat="45.876087" lon="11.647986"><ele>721.03</ele><time>2022-02-05T13:25:34Z</time></trkpt>
<trkpt lat="45.875999" lon="11.64811"><ele>722.35</ele><time>2022-02-05T13:25:35Z</time></trkpt>
<trkpt lat="45.875913" lon="11.648309"><ele>728.61</ele><time>2022-02-05T13:25:36Z</time></trkpt>
<trkpt lat="45.875837" lon="11.648549"><ele>737.24</ele><time>2022-02-05T13:25:38Z</time></trkpt>
<trkpt lat="45.875777" lon="11.648641"><ele>737.1</ele><time>2022-02-05T13:25:39Z</time></trkpt>
<trkpt lat="45.875722" lon="11.648672"><ele>734.15</ele><time>2022-02-05T13:25:40Z</time></trkpt>
<trkpt lat="45.875562" lon="11.648668"><ele>722.12</ele><time>2022-02-05T13:25:42Z</time></trkpt>
<trkpt lat="45.875492" lon="11.648695"><ele>718.9</ele><time>2022-02-05T13:25:43Z</time></trkpt>
<trkpt lat="45.875224" lon="11.648935"><ele>712.06</ele><time>2022-02-05T13:25:44Z</time></trkpt>
<trkpt lat="45.875125" lon="11.649048"><ele>709.86</ele><time>2022-02-05T13:25:45Z</time></trkpt>
<trkpt lat="45.875026" lon="11.64941"><ele>720.84</ele><time>2022-02-05T13:25:47Z</time></trkpt>
<trkpt lat="45.874941" lon="11.649593"><ele>725.64</ele><time>2022-02-05T13:25:48Z</time></trkpt>
<trkpt lat="45.874853" lon="11.649714"><ele>725.93</ele><time>2022-02-05T13:25:49Z</time></trkpt>
<trkpt lat="45.874811" lon="11.649696"><ele>722.04</ele><time>2022-02-05T13:25:51Z</time></trkpt>
<trkpt lat="45.874812" lon="11.64962"><ele>718.3</ele><time>2022-02-05T13:25:52Z</time></trkpt>
<trkpt lat="45.874955" lon="11.649372"><ele>714.73</ele><time>2022-02-05T13:25:53Z</time></trkpt>
<trkpt lat="45.874961" lon="11.649085"><ele>701.73</ele><time>2022-02-05T13:25:55Z</time></trkpt>
<trkpt lat="45.875011" lon="11.648857"><ele>695.3</ele><time>2022-02-05T13:25:56Z</time></trkpt>
<trkpt lat="45.875043" lon="11.648798"><ele>695.01</ele><time>2022-02-05T13:25:57Z</time></trkpt>
<trkpt lat="45.875382" lon="11.648419"><ele>700.68</ele><time>2022-02-05T13:25:58Z</time></trkpt>
<trkpt lat="45.875622" lon="11.648296"><ele>711.59</ele><time>2022-02-05T13:26:00Z</time></trkpt>
<trkpt lat="45.875712" lon="11.648224"><ele>713.75</ele><time>2022-02-05T13:26:01Z</time></trkpt>
<trkpt lat="45.875837" lon="11.648009"><ele>709.84</ele><time>2022-02-05T13:26:02Z</time></trkpt>
<trkpt lat="45.875906" lon="11.647739"><ele>699.83</ele><time>2022-02-05T13:26:04Z</time></trkpt>
<trkpt lat="45.875887" lon="11.647695"><ele>695.92</ele><time>2022-02-05T13:26:05Z</time></trkpt>
<trkpt lat="45.875865" lon="11.647697"><ele>694.6</ele><time>2022-02-05T13:26:06Z</time></trkpt>
<trkpt lat="45.8758" lon="11.647793"><ele>697.21</ele><time>2022-02-05T13:26:07Z</time></trkpt>
<trkpt lat="45.875751" lon="11.647995"><ele>704.62</ele><time>2022-02-05T13:26:09Z</time></trkpt>
<trkpt lat="45.875658" lon="11.648145"><ele>706.77</ele><time>2022-02-05T13:26:10Z</time></trkpt>
<trkpt lat="45.875569" lon="11.648199"><ele>704.01</ele><time>2022-02-05T13:26:11Z</time></trkpt>
<trkpt lat="45.875353" lon="11.648219"><ele>688.91</ele><time>2022-02-05T13:26:13Z</time></trkpt>
<trkpt lat="45.875228" lon="11.648299"><ele>684.83</ele><time>2022-02-05T13:26:14Z</time></trkpt>
<trkpt lat="45.874823" lon="11.648633"><ele>677.78</ele><time>2022-02-05T13:26:15Z</time></trkpt>
<trkpt lat="45.874724" lon="11.648789"><ele>678.84</ele><time>2022-02-05T13:26:17Z</time></trkpt>
<trkpt lat="45.874652" lon="11.649105"><ele>686.18</ele><time>2022-02-05T13:26:18Z</time></trkpt>
<trkpt lat="45.874535" lon="11.649243"><ele>684.85</ele><time>2022-02-05T13:26:19Z</time></trkpt>
<trkpt lat="45.874341" lon="11.649284"><ele>677.03</ele><time>2022-02-05T13:26:20Z</time></trkpt>
<trkpt lat="45.874058" lon="11.64945"><ele>671.03</ele><time>2022-02-05T13:26:22Z</time></trkpt>
<trkpt lat="45.873898" lon="11.649603"><ele>670.85</ele><time>2022-02-05T13:26:23Z</time></trkpt>
<trkpt lat="45.87379" lon="11.649769"><ele>672.36</ele><time>2022-02-05T13:26:24Z</time></trkpt>
<trkpt lat="45.873661" lon="11.649888"><ele>670.75</ele><time>2022-02-05T13:26:26Z</time></trkpt>
<trkpt lat="45.873537" lon="11.649963"><ele>667.24</ele><time>2022-02-05T13:26:27Z</time></trkpt>
<trkpt lat="45.873402" lon="11.650079"><ele>664.27</ele><time>2022-02-05T13:26:28Z</time></trkpt>
<trkpt lat="45.873298" lon="11.650202"><ele>661.49</ele><time>2022-02-05T13:26:29Z</time></trkpt>
<trkpt lat="45.873241" lon="11.650382"><ele>661.21</ele><time>2022-02-05T13:26:31Z</time></trkpt>
<trkpt lat="45.873219" lon="11.650964"><ele>672.11</ele><time>2022-02-05T13:26:32Z</time></trkpt>
<trkpt lat="45.873145" lon="11.651105"><ele>672.39</ele><time>2022-02-05T13:26:33Z</time></trkpt>
<trkpt lat="45.873051" lon="11.651176"><ele>669.13</ele><time>2022-02-05T13:26:35Z</time></trkpt>
<trkpt lat="45.872946" lon="11.651207"><ele>663.24</ele><time>2022-02-05T13:26:36Z</time></trkpt>
<trkpt lat="45.872693" lon="11.651225"><ele>650.34</ele><time>2022-02-05T13:26:37Z</time></trkpt>
<trkpt lat="45.872598" lon="11.651249"><ele>647.82</ele><time>2022-02-05T13:26:39Z</time></trkpt>
<trkpt lat="45.872438" lon="11.651371"><ele>646.16</ele><time>2022-02-05T13:26:40Z</time></trkpt>
<trkpt lat="45.871789" lon="11.652249"><ele>640.78</ele><time>2022-02-05T13:26:41Z</time></trkpt>
<trkpt lat="45.871617" lon="11.652418"><ele>635.92</ele><time>2022-02-05T13:26:42Z</time></trkpt>
<trkpt lat="45.871423" lon="11.652558"><ele>635.3</ele><time>2022-02-05T13:26:44Z</time></trkpt>
<trkpt lat="45.871381" lon="11.65255"><ele>635.97</ele><time>2022-02-05T13:26:45Z</time></trkpt>
<trkpt lat="45.871357" lon="11.652507"><ele>637.73</ele><time>2022-02-05T13:26:46Z</time></trkpt>
<trkpt lat="45.871401" lon="11.652447"><ele>636.39</ele><time>2022-02-05T13:26:48Z</time></trkpt>
<trkpt lat="45.871562" lon="11.652321"><ele>636.23</ele><time>2022-02-05T13:26:49Z</time></trkpt>
<trkpt lat="45.871717" lon="11.652063"><ele>635.79</ele><time>2022-02-05T13:26:50Z</time></trkpt>
<trkpt lat="45.871939" lon="11.651519"><ele>631.03</ele><time>2022-02-05T13:26:52Z</time></trkpt>
<trkpt lat="45.872209" lon="11.650939"><ele>622.28</ele><time>2022-02-05T13:26:53Z</time></trkpt>
<trkpt lat="45.872312" lon="11.650771"><ele>620.86</ele><time>2022-02-05T13:26:54Z</time></trkpt>
<trkpt lat="45.87238" lon="11.650708"><ele>621.79</ele><time>2022-02-05T13:26:55Z</time></trkpt>
<trkpt lat="45.872593" lon="11.65065"><ele>630.17</ele><time>2022-02-05T13:26:57Z</time></trkpt>
<trkpt lat="45.872657" lon="11.650591"><ele>632.03</ele><time>2022-02-05T13:26:58Z</time></trkpt>
<trkpt lat="45.872693" lon="11.650491"><ele>631.55</ele><time>2022-02-05T13:26:59Z</time></trkpt>
<trkpt lat="45.872707" lon="11.65035"><ele>628.96</ele><time>2022-02-05T13:27:01Z</time></trkpt>
<trkpt lat="45.87263" lon="11.649853"><ele>615.2</ele><time>2022-02-05T13:27:02Z</time></trkpt>
<trkpt lat="45.872651" lon="11.649658"><ele>612.92</ele><time>2022-02-05T13:27:03Z</time></trkpt>
<trkpt lat="45.872704" lon="11.649468"><ele>611.99</ele><time>2022-02-05T13:27:04Z</time></trkpt>
<trkpt lat="45.872777" lon="11.649339"><ele>612.28</ele><time>2022-02-05T13:27:06Z</time></trkpt>
<trkpt lat="45.872977" lon="11.649149"><ele>615.34</ele><time>2022-02-05T13:27:07Z</time></trkpt>
<trkpt lat="45.873297" lon="11.648964"><ele>622.9</ele><time>2022-02-05T13:27:08Z</time></trkpt>
<trkpt lat="45.873379" lon="11.648891"><ele>623.43</ele><time>2022-02-05T13:27:10Z</time></trkpt>
<trkpt lat="45.873622" lon="11.648517"><ele>610.96</ele><time>2022-02-05T13:27:11Z</time></trkpt>
<trkpt lat="45.873839" lon="11.648398"><ele>618.35</ele><time>2022-02-05T13:27:12Z</time></trkpt>
<trkpt lat="45.873951" lon="11.648302"><ele>620.39</ele><time>2022-02-05T13:27:14Z</time></trkpt>
<trkpt lat="45.874016" lon="11.648109"><ele>614.55</ele><time>2022-02-05T13:27:15Z</time></trkpt>
<trkpt lat="45.87405" lon="11.647955"><ele>609.14</ele><time>2022-02-05T13:27:16Z</time></trkpt>
<trkpt lat="45.874038" lon="11.647913"><ele>606.41</ele><time>2022-02-05T13:27:17Z</time></trkpt>
<trkpt lat="45.873988" lon="11.647927"><ele>604.04</ele><time>2022-02-05T13:27:19Z</time></trkpt>
<trkpt lat="45.873952" lon="11.648159"><ele>613.12</ele><time>2022-02-05T13:27:20Z</time></trkpt>
<trkpt lat="45.87389" lon="11.648291"><ele>615.91</ele><time>2022-02-05T13:27:21Z</time></trkpt>
<trkpt lat="45.873759" lon="11.648358"><ele>610.54</ele><time>2022-02-05T13:27:23Z</time></trkpt>
<trkpt lat="45.87361" lon="11.648396"><ele>602.84</ele><time>2022-02-05T13:27:24Z</time></trkpt>
<trkpt lat="45.87324" lon="11.648718"><ele>609.29</ele><time>2022-02-05T13:27:25Z</time></trkpt>
<trkpt lat="45.872744" lon="11.648855"><ele>597.35</ele><time>2022-02-05T13:27:26Z</time></trkpt>
<trkpt lat="45.872634" lon="11.648895"><ele>593.43</ele><time>2022-02-05T13:27:28Z</time></trkpt>
<trkpt lat="45.872539" lon="11.64896"><ele>590.41</ele><time>2022-02-05T13:27:29Z</time></trkpt>
<trkpt lat="45.872316" lon="11.649227"><ele>585.53</ele><time>2022-02-05T13:27:30Z</time></trkpt>
<trkpt lat="45.872218" lon="11.64942"><ele>586.1</ele><time>2022-02-05T13:27:32Z</time></trkpt>
<trkpt lat="45.872163" lon="11.649671"><ele>589.4</ele><time>2022-02-05T13:27:33Z</time></trkpt>
<trkpt lat="45.872158" lon="11.649865"><ele>593.35</ele><time>2022-02-05T13:27:34Z</time></trkpt>
<trkpt lat="45.872086" lon="11.649991"><ele>591.97</ele><time>2022-02-05T13:27:36Z</time></trkpt>
<trkpt lat="45.871871" lon="11.650131"><ele>585.03</ele><time>2022-02-05T13:27:37Z</time></trkpt>
<trkpt lat="45.871746" lon="11.650251"><ele>583.03</ele><time>2022-02-05T13:27:38Z</time></trkpt>
<trkpt lat="45.871395" lon="11.650787"><ele>585.29</ele><time>2022-02-05T13:27:39Z</time></trkpt>
<trkpt lat="45.870847" lon="11.651204"><ele>575.22</ele><time>2022-02-05T13:27:41Z</time></trkpt>
<trkpt lat="45.870486" lon="11.651336"><ele>569.77</ele><time>2022-02-05T13:27:42Z</time></trkpt>
<trkpt lat="45.870212" lon="11.651385"><ele>571.85</ele><time>2022-02-05T13:27:43Z</time></trkpt>
<trkpt lat="45.870162" lon="11.651343"><ele>570.56</ele><time>2022-02-05T13:27:45Z</time></trkpt>
<trkpt lat="45.87016" lon="11.651286"><ele>568.75</ele><time>2022-02-05T13:27:46Z</time></trkpt>
<trkpt lat="45.870214" lon="11.651238"><ele>566.94</ele><time>2022-02-05T13:27:47Z</time></trkpt>
<trkpt lat="45.870513" lon="11.651183"><ele>565.63</ele><time>2022-02-05T13:27:48Z</time></trkpt>
<trkpt lat="45.870654" lon="11.651089"><ele>565.96</ele><time>2022-02-05T13:27:50Z</time></trkpt>
<trkpt lat="45.870867" lon="11.650893"><ele>566.72</ele><time>2022-02-05T13:27:51Z</time></trkpt>
<trkpt lat="45.87107" lon="11.650655"><ele>565.74</ele><time>2022-02-05T13:27:52Z</time></trkpt>
<trkpt lat="45.87144" lon="11.649909"><ele>556.22</ele><time>2022-02-05T13:27:54Z</time></trkpt>
<trkpt lat="45.871588" lon="11.649737"><ele>558.71</ele><time>2022-02-05T13:27:55Z</time></trkpt>
<trkpt lat="45.871626" lon="11.649642"><ele>558.39</ele><time>2022-02-05T13:27:56Z</time></trkpt>
<trkpt lat="45.871614" lon="11.649302"><ele>551.89</ele><time>2022-02-05T13:27:58Z</time></trkpt>
<trkpt lat="45.87163" lon="11.649178"><ele>551.16</ele><time>2022-02-05T13:27:59Z</time></trkpt>
<trkpt lat="45.871708" lon="11.648911"><ele>550.82</ele><time>2022-02-05T13:28:00Z</time></trkpt>
<trkpt lat="45.871813" lon="11.64864"><ele>548.85</ele><time>2022-02-05T13:28:01Z</time></trkpt>
<trkpt lat="45.871802" lon="11.648606"><ele>547.78</ele><time>2022-02-05T13:28:03Z</time></trkpt>
<trkpt lat="45.871776" lon="11.6486"><ele>546.88</ele><time>2022-02-05T13:28:04Z</time></trkpt>
<trkpt lat="45.871724" lon="11.648665"><ele>546.71</ele><time>2022-02-05T13:28:05Z</time></trkpt>
<trkpt lat="45.871592" lon="11.648998"><ele>546.4</ele><time>2022-02-05T13:28:07Z</time></trkpt>
<trkpt lat="45.871507" lon="11.649283"><ele>546.34</ele><time>2022-02-05T13:28:08Z</time></trkpt>
<trkpt lat="45.8715" lon="11.649428"><ele>548.51</ele><time>2022-02-05T13:28:09Z</time></trkpt>
<trkpt lat="45.871466" lon="11.649573"><ele>549.78</ele><time>2022-02-05T13:28:10Z</time></trkpt>
<trkpt lat="45.871408" lon="11.649654"><ele>548.64</ele><time>2022-02-05T13:28:12Z</time></trkpt>
<trkpt lat="45.871192" lon="11.649778"><ele>544.05</ele><time>2022-02-05T13:28:13Z</time></trkpt>
<trkpt lat="45.871003" lon="11.649946"><ele>542.29</ele><time>2022-02-05T13:28:14Z</time></trkpt>
<trkpt lat="45.870837" lon="11.650106"><ele>542.16</ele><time>2022-02-05T13:28:16Z</time></trkpt>
<trkpt lat="45.870679" lon="11.650305"><ele>542.91</ele><time>2022-02-05T13:28:17Z</time></trkpt>
<trkpt lat="45.870446" lon="11.650551"><ele>544.29</ele><time>2022-02-05T13:28:18Z</time></trkpt>
<trkpt lat="45.870392" lon="11.650568"><ele>543.22</ele><time>2022-02-05T13:28:20Z</time></trkpt>
<trkpt lat="45.87036" lon="11.650551"><ele>541.47</ele><time>2022-02-05T13:28:21Z</time></trkpt>
<trkpt lat="45.870365" lon="11.650485"><ele>539.09</ele><time>2022-02-05T13:28:22Z</time></trkpt>
<trkpt lat="45.870427" lon="11.6504"><ele>538.0</ele><time>2022-02-05T13:28:23Z</time></trkpt>
<trkpt lat="45.870543" lon="11.650321"><ele>539.12</ele><time>2022-02-05T13:28:25Z</time></trkpt>
<trkpt lat="45.870642" lon="11.650201"><ele>538.19</ele><time>2022-02-05T13:28:26Z</time></trkpt>
<trkpt lat="45.870923" lon="11.649743"><ele>533.23</ele><time>2022-02-05T13:28:27Z</time></trkpt>
<trkpt lat="45.871225" lon="11.649416"><ele>535.51</ele><time>2022-02-05T13:28:29Z</time></trkpt>
<trkpt lat="45.871265" lon="11.64932"><ele>534.91</ele><time>2022-02-05T13:28:30Z</time></trkpt>
<trkpt lat="45.871289" lon="11.64902"><ele>529.06</ele><time>2022-02-05T13:28:31Z</time></trkpt>
<trkpt lat="45.871396" lon="11.648628"><ele>528.7</ele><time>2022-02-05T13:28:33Z</time></trkpt>
<trkpt lat="45.871404" lon="11.648572"><ele>528.44</ele><time>2022-02-05T13:28:34Z</time></trkpt>
<trkpt lat="45.871381" lon="11.648539"><ele>526.65</ele><time>2022-02-05T13:28:35Z</time></trkpt>
<trkpt lat="45.871354" lon="11.648546"><ele>524.91</ele><time>2022-02-05T13:28:36Z</time></trkpt>
<trkpt lat="45.871328" lon="11.648605"><ele>523.8</ele><time>2022-02-05T13:28:38Z</time></trkpt>
<trkpt lat="45.871173" lon="11.649115"><ele>524.18</ele><time>2022-02-05T13:28:39Z</time></trkpt>
<trkpt lat="45.871117" lon="11.649236"><ele>524.59</ele><time>2022-02-05T13:28:40Z</time></trkpt>
<trkpt lat="45.870303" lon="11.649868"><ele>514.64</ele><time>2022-02-05T13:28:42Z</time></trkpt>
<trkpt lat="45.870125" lon="11.649966"><ele>512.02</ele><time>2022-02-05T13:28:43Z</time></trkpt>
<trkpt lat="45.869371" lon="11.650089"><ele>504.15</ele><time>2022-02-05T13:28:44Z</time></trkpt>
<trkpt lat="45.869263" lon="11.650141"><ele>503.18</ele><time>2022-02-05T13:28:45Z</time></trkpt>
<trkpt lat="45.869127" lon="11.650247"><ele>502.93</ele><time>2022-02-05T13:28:47Z</time></trkpt>
<trkpt lat="45.869093" lon="11.650243"><ele>501.2</ele><time>2022-02-05T13:28:48Z</time></trkpt>
<trkpt lat="45.869085" lon="11.650217"><ele>499.83</ele><time>2022-02-05T13:28:49Z</time></trkpt>
<trkpt lat="45.869104" lon="11.650161"><ele>498.5</ele><time>2022-02-05T13:28:51Z</time></trkpt>
<trkpt lat="45.869194" lon="11.650085"><ele>499.11</ele><time>2022-02-05T13:28:52Z</time></trkpt>
<trkpt lat="45.869583" lon="11.649859"><ele>499.41</ele><time>2022-02-05T13:28:53Z</time></trkpt>
<trkpt lat="45.869836" lon="11.649679"><ele>497.38</ele><time>2022-02-05T13:28:55Z</time></trkpt>
<trkpt lat="45.870305" lon="11.649229"><ele>496.02</ele><time>2022-02-05T13:28:56Z</time></trkpt>
<trkpt lat="45.870619" lon="11.649006"><ele>499.63</ele><time>2022-02-05T13:28:57Z</time></trkpt>
<trkpt lat="45.870709" lon="11.648905"><ele>499.65</ele><time>2022-02-05T13:28:58Z</time></trkpt>
<trkpt lat="45.870755" lon="11.648812"><ele>498.7</ele><time>2022-02-05T13:29:00Z</time></trkpt>
<trkpt lat="45.870747" lon="11.648302"><ele>483.18</ele><time>2022-02-05T13:29:01Z</time></trkpt>
<trkpt lat="45.870812" lon="11.648077"><ele>480.45</ele><time>2022-02-05T13:29:02Z</time></trkpt>
<trkpt lat="45.870903" lon="11.647952"><ele>481.16</ele><time>2022-02-05T13:29:04Z</time></trkpt>
<trkpt lat="45.871072" lon="11.647858"><ele>484.34</ele><time>2022-02-05T13:29:05Z</time></trkpt>
<trkpt lat="45.871236" lon="11.647729"><ele>488.07</ele><time>2022-02-05T13:29:06Z</time></trkpt>
<trkpt lat="45.871502" lon="11.647305"><ele>476.37</ele><time>2022-02-05T13:29:07Z</time></trkpt>
<trkpt lat="45.871558" lon="11.647108"><ele>467.83</ele><time>2022-02-05T13:29:09Z</time></trkpt>
<trkpt lat="45.871635" lon="11.646974"><ele>464.76</ele><time>2022-02-05T13:29:10Z</time></trkpt>
<trkpt lat="45.871712" lon="11.646928"><ele>466.64</ele><time>2022-02-05T13:29:11Z</time></trkpt>
<trkpt lat="45.871827" lon="11.646905"><ele>472.21</ele><time>2022-02-05T13:29:13Z</time></trkpt>
<trkpt lat="45.872393" lon="11.646934"><ele>493.11</ele><time>2022-02-05T13:29:14Z</time></trkpt>
<trkpt lat="45.872456" lon="11.64689"><ele>490.6</ele><time>2022-02-05T13:29:15Z</time></trkpt>
<trkpt lat="45.872453" lon="11.646849"><ele>487.7</ele><time>2022-02-05T13:29:17Z</time></trkpt>
<trkpt lat="45.872409" lon="11.646812"><ele>484.63</ele><time>2022-02-05T13:29:18Z</time></trkpt>
<trkpt lat="45.872226" lon="11.646832"><ele>484.33</ele><time>2022-02-05T13:29:19Z</time></trkpt>
<trkpt lat="45.871831" lon="11.646799"><ele>467.1</ele><time>2022-02-05T13:29:20Z</time></trkpt>
<trkpt lat="45.8717" lon="11.646806"><ele>458.73</ele><time>2022-02-05T13:29:22Z</time></trkpt>
<trkpt lat="45.871537" lon="11.646873"><ele>452.94</ele><time>2022-02-05T13:29:23Z</time></trkpt>
<trkpt lat="45.871497" lon="11.646928"><ele>454.17</ele><time>2022-02-05T13:29:24Z</time></trkpt>
<trkpt lat="45.871352" lon="11.64727"><ele>465.98</ele><time>2022-02-05T13:29:26Z</time></trkpt>
<trkpt lat="45.871115" lon="11.647537"><ele>466.54</ele><time>2022-02-05T13:29:27Z</time></trkpt>
<trkpt lat="45.870983" lon="11.647644"><ele>468.88</ele><time>2022-02-05T13:29:28Z</time></trkpt>
<trkpt lat="45.870748" lon="11.647655"><ele>460.69</ele><time>2022-02-05T13:29:29Z</time></trkpt>
<trkpt lat="45.870611" lon="11.647688"><ele>455.59</ele><time>2022-02-05T13:29:31Z</time></trkpt>
<trkpt lat="45.870525" lon="11.647769"><ele>454.16</ele><time>2022-02-05T13:29:32Z</time></trkpt>
<trkpt lat="45.870369" lon="11.648102"><ele>455.99</ele><time>2022-02-05T13:29:33Z</time></trkpt>
<trkpt lat="45.870316" lon="11.648364"><ele>461.0</ele><time>2022-02-05T13:29:35Z</time></trkpt>
<trkpt lat="45.870258" lon="11.648478"><ele>461.38</ele><time>2022-02-05T13:29:36Z</time></trkpt>
<trkpt lat="45.870186" lon="11.648556"><ele>461.37</ele><time>2022-02-05T13:29:37Z</time></trkpt>
<trkpt lat="45.870089" lon="11.648618"><ele>460.87</ele><time>2022-02-05T13:29:39Z</time></trkpt>
<trkpt lat="45.869988" lon="11.648637"><ele>458.8</ele><time>2022-02-05T13:29:40Z</time></trkpt>
<trkpt lat="45.869418" lon="11.648663"><ele>449.06</ele><time>2022-02-05T13:29:41Z</time></trkpt>
<trkpt lat="45.869292" lon="11.648715"><ele>449.66</ele><time>2022-02-05T13:29:42Z</time></trkpt>
<trkpt lat="45.86899" lon="11.648953"><ele>450.07</ele><time>2022-02-05T13:29:44Z</time></trkpt>
<trkpt lat="45.86884" lon="11.649145"><ele>448.06</ele><time>2022-02-05T13:29:45Z</time></trkpt>
<trkpt lat="45.868628" lon="11.64927"><ele>441.33</ele><time>2022-02-05T13:29:46Z</time></trkpt>
<trkpt lat="45.868496" lon="11.649456"><ele>439.87</ele><time>2022-02-05T13:29:48Z</time></trkpt>
<trkpt lat="45.868315" lon="11.649793"><ele>438.06</ele><time>2022-02-05T13:29:49Z</time></trkpt>
<trkpt lat="45.868263" lon="11.649978"><ele>438.7</ele><time>2022-02-05T13:29:50Z</time></trkpt>
<trkpt lat="45.868248" lon="11.650158"><ele>442.19</ele><time>2022-02-05T13:29:52Z</time></trkpt>
<trkpt lat="45.868219" lon="11.650161"><ele>440.62</ele><time>2022-02-05T13:29:53Z</time></trkpt>
<trkpt lat="45.868189" lon="11.650123"><ele>438.08</ele><time>2022-02-05T13:29:54Z</time></trkpt>
<trkpt lat="45.86823" lon="11.649831"><ele>433.25</ele><time>2022-02-05T13:29:55Z</time></trkpt>
<trkpt lat="45.868283" lon="11.649675"><ele>433.23</ele><time>2022-02-05T13:29:57Z</time></trkpt>
<trkpt lat="45.868404" lon="11.649424"><ele>434.58</ele><time>2022-02-05T13:29:58Z</time></trkpt>
<trkpt lat="45.868463" lon="11.64923"><ele>431.02</ele><time>2022-02-05T13:29:59Z</time></trkpt>
<trkpt lat="45.86879" lon="11.648815"><ele>433.23</ele><time>2022-02-05T13:30:01Z</time></trkpt>
<trkpt lat="45.868968" lon="11.648509"><ele>426.54</ele><time>2022-02-05T13:30:02Z</time></trkpt>
<trkpt lat="45.869067" lon="11.648398"><ele>425.1</ele><time>2022-02-05T13:30:03Z</time></trkpt>
<trkpt lat="45.869275" lon="11.64822"><ele>423.05</ele><time>2022-02-05T13:30:04Z</time></trkpt>
<trkpt lat="45.869385" lon="11.648193"><ele>424.16</ele><time>2022-02-05T13:30:06Z</time></trkpt>
<trkpt lat="45.869601" lon="11.648216"><ele>429.0</ele><time>2022-02-05T13:30:07Z</time></trkpt>
<trkpt lat="45.869755" lon="11.648205"><ele>431.27</ele><time>2022-02-05T13:30:08Z</time></trkpt>
<trkpt lat="45.86978" lon="11.648171"><ele>430.4</ele><time>2022-02-05T13:30:10Z</time></trkpt>
<trkpt lat="45.869754" lon="11.648137"><ele>428.27</ele><time>2022-02-05T13:30:11Z</time></trkpt>
<trkpt lat="45.869289" lon="11.648097"><ele>417.57</ele><time>2022-02-05T13:30:12Z</time></trkpt>
<trkpt lat="45.869093" lon="11.64815"><ele>413.65</ele><time>2022-02-05T13:30:14Z</time></trkpt>
<trkpt lat="45.868922" lon="11.648272"><ele>411.29</ele><time>2022-02-05T13:30:15Z</time></trkpt>
<trkpt lat="45.868663" lon="11.648559"><ele>409.88</ele><time>2022-02-05T13:30:16Z</time></trkpt>
<trkpt lat="45.868433" lon="11.648766"><ele>403.7</ele><time>2022-02-05T13:30:17Z</time></trkpt>
<trkpt lat="45.867952" lon="11.649383"><ele>394.89</ele><time>2022-02-05T13:30:19Z</time></trkpt>
<trkpt lat="45.867889" lon="11.6495"><ele>394.91</ele><time>2022-02-05T13:30:20Z</time></trkpt>
<trkpt lat="45.867814" lon="11.649863"><ele>400.86</ele><time>2022-02-05T13:30:21Z</time></trkpt>
<trkpt lat="45.867724" lon="11.649985"><ele>395.43</ele><time>2022-02-05T13:30:23Z</time></trkpt>
<trkpt lat="45.867611" lon="11.650053"><ele>387.89</ele><time>2022-02-05T13:30:24Z</time></trkpt>
<trkpt lat="45.867584" lon="11.650037"><ele>385.37</ele><time>2022-02-05T13:30:25Z</time></trkpt>
<trkpt lat="45.867582" lon="11.64996"><ele>383.58</ele><time>2022-02-05T13:30:26Z</time></trkpt>
<trkpt lat="45.86768" lon="11.649894"><ele>390.11</ele><time>2022-02-05T13:30:28Z</time></trkpt>
<trkpt lat="45.867737" lon="11.649819"><ele>393.35</ele><time>2022-02-05T13:30:29Z</time></trkpt>
<trkpt lat="45.867785" lon="11.649691"><ele>394.29</ele><time>2022-02-05T13:30:30Z</time></trkpt>
<trkpt lat="45.867808" lon="11.649436"><ele>385.14</ele><time>2022-02-05T13:30:32Z</time></trkpt>
<trkpt lat="45.86784" lon="11.649304"><ele>379.9</ele><time>2022-02-05T13:30:33Z</time></trkpt>
<trkpt lat="45.867885" lon="11.649197"><ele>378.31</ele><time>2022-02-05T13:30:34Z</time></trkpt>
<trkpt lat="45.868442" lon="11.648221"><ele>380.91</ele><time>2022-02-05T13:30:36Z</time></trkpt>
<trkpt lat="45.868555" lon="11.647958"><ele>379.83</ele><time>2022-02-05T13:30:37Z</time></trkpt>
<trkpt lat="45.868668" lon="11.647637"><ele>375.08</ele><time>2022-02-05T13:30:38Z</time></trkpt>
<trkpt lat="45.868736" lon="11.647575"><ele>374.36</ele><time>2022-02-05T13:30:39Z</time></trkpt>
<trkpt lat="45.86915" lon="11.647422"><ele>378.11</ele><time>2022-02-05T13:30:41Z</time></trkpt>
<trkpt lat="45.869455" lon="11.647429"><ele>386.28</ele><time>2022-02-05T13:30:42Z</time></trkpt>
<trkpt lat="45.869534" lon="11.647362"><ele>382.64</ele><time>2022-02-05T13:30:43Z</time></trkpt>
<trkpt lat="45.869516" lon="11.647315"><ele>378.72</ele><time>2022-02-05T13:30:45Z</time></trkpt>
<trkpt lat="45.869163" lon="11.647317"><ele>371.42</ele><time>2022-02-05T13:30:46Z</time></trkpt>
<trkpt lat="45.868681" lon="11.647365"><ele>366.03</ele><time>2022-02-05T13:30:47Z</time></trkpt>
<trkpt lat="45.868539" lon="11.647397"><ele>361.6</ele><time>2022-02-05T13:30:48Z</time></trkpt>
<trkpt lat="45.868467" lon="11.647494"><ele>360.88</ele><time>2022-02-05T13:30:50Z</time></trkpt>
<trkpt lat="45.868288" lon="11.64787"><ele>361.77</ele><time>2022-02-05T13:30:51Z</time></trkpt>
<trkpt lat="45.867527" lon="11.648963"><ele>337.58</ele><time>2022-02-05T13:30:52Z</time></trkpt>
<trkpt lat="45.867423" lon="11.649271"><ele>344.04</ele><time>2022-02-05T13:30:54Z</time></trkpt>
<trkpt lat="45.867366" lon="11.649374"><ele>346.35</ele><time>2022-02-05T13:30:55Z</time></trkpt>
<trkpt lat="45.86725" lon="11.64943"><ele>342.8</ele><time>2022-02-05T13:30:56Z</time></trkpt>
<trkpt lat="45.867168" lon="11.649504"><ele>339.58</ele><time>2022-02-05T13:30:58Z</time></trkpt>
<trkpt lat="45.867122" lon="11.649643"><ele>342.6</ele><time>2022-02-05T13:30:59Z</time></trkpt>
<trkpt lat="45.867072" lon="11.650184"><ele>360.32</ele><time>2022-02-05T13:31:00Z</time></trkpt>
<trkpt lat="45.86704" lon="11.650234"><ele>359.55</ele><time>2022-02-05T13:31:01Z</time></trkpt>
<trkpt lat="45.866945" lon="11.650272"><ele>354.9</ele><time>2022-02-05T13:31:03Z</time></trkpt>
<trkpt lat="45.866586" lon="11.650329"><ele>331.99</ele><time>2022-02-05T13:31:04Z</time></trkpt>
<trkpt lat="45.866419" lon="11.650482"><ele>333.58</ele><time>2022-02-05T13:31:05Z</time></trkpt>
<trkpt lat="45.866164" lon="11.650813"><ele>342.09</ele><time>2022-02-05T13:31:07Z</time></trkpt>
<trkpt lat="45.865986" lon="11.650874"><ele>331.86</ele><time>2022-02-05T13:31:08Z</time></trkpt>
<trkpt lat="45.865802" lon="11.650985"><ele>324.99</ele><time>2022-02-05T13:31:09Z</time></trkpt>
<trkpt lat="45.865448" lon="11.651149"><ele>321.39</ele><time>2022-02-05T13:31:11Z</time></trkpt>
<trkpt lat="45.865407" lon="11.651184"><ele>322.12</ele><time>2022-02-05T13:31:12Z</time></trkpt>
<trkpt lat="45.865358" lon="11.651266"><ele>325.59</ele><time>2022-02-05T13:31:13Z</time></trkpt>
<trkpt lat="45.865347" lon="11.651445"><ele>336.61</ele><time>2022-02-05T13:31:14Z</time></trkpt>
<trkpt lat="45.865319" lon="11.651492"><ele>338.84</ele><time>2022-02-05T13:31:16Z</time></trkpt>
<trkpt lat="45.865246" lon="11.65152"><ele>338.03</ele><time>2022-02-05T13:31:17Z</time></trkpt>
<trkpt lat="45.865021" lon="11.651522"><ele>327.63</ele><time>2022-02-05T13:31:18Z</time></trkpt>
<trkpt lat="45.86495" lon="11.651557"><ele>326.08</ele><time>2022-02-05T13:31:20Z</time></trkpt>
<trkpt lat="45.864876" lon="11.651638"><ele>327.06</ele><time>2022-02-05T13:31:21Z</time></trkpt>
<trkpt lat="45.864797" lon="11.651688"><ele>326.09</ele><time>2022-02-05T13:31:22Z</time></trkpt>
<trkpt lat="45.864564" lon="11.651736"><ele>314.9</ele><time>2022-02-05T13:31:23Z</time></trkpt>
<trkpt lat="45.86443" lon="11.651899"><ele>315.28</ele><time>2022-02-05T13:31:25Z</time></trkpt>
<trkpt lat="45.864349" lon="11.652108"><ele>319.89</ele><time>2022-02-05T13:31:26Z</time></trkpt>
<trkpt lat="45.864125" lon="11.6522"><ele>301.42</ele><time>2022-02-05T13:31:27Z</time></trkpt>
<trkpt lat="45.863955" lon="11.652401"><ele>300.48</ele><time>2022-02-05T13:31:29Z</time></trkpt>
<trkpt lat="45.863931" lon="11.652396"><ele>298.48</ele><time>2022-02-05T13:31:30Z</time></trkpt>
<trkpt lat="45.863921" lon="11.652355"><ele>295.52</ele><time>2022-02-05T13:31:31Z</time></trkpt>
<trkpt lat="45.863929" lon="11.652313"><ele>293.78</ele><time>2022-02-05T13:31:33Z</time></trkpt>
<trkpt lat="45.864028" lon="11.652144"><ele>292.73</ele><time>2022-02-05T13:31:34Z</time></trkpt>
<trkpt lat="45.864094" lon="11.652079"><ele>295.09</ele><time>2022-02-05T13:31:35Z</time></trkpt>
<trkpt lat="45.8643" lon="11.651997"><ele>309.52</ele><time>2022-02-05T13:31:36Z</time></trkpt>
<trkpt lat="45.864399" lon="11.651715"><ele>303.26</ele><time>2022-02-05T13:31:38Z</time></trkpt>
<trkpt lat="45.864521" lon="11.651536"><ele>300.65</ele><time>2022-02-05T13:31:39Z</time></trkpt>
<trkpt lat="45.864856" lon="11.651339"><ele>307.82</ele><time>2022-02-05T13:31:40Z</time></trkpt>
<trkpt lat="45.864978" lon="11.651306"><ele>311.91</ele><time>2022-02-05T13:31:42Z</time></trkpt>
<trkpt lat="45.865098" lon="11.651246"><ele>313.29</ele><time>2022-02-05T13:31:43Z</time></trkpt>
<trkpt lat="45.86512" lon="11.651222"><ele>312.71</ele><time>2022-02-05T13:31:44Z</time></trkpt>
<trkpt lat="45.865211" lon="11.650934"><ele>298.45</ele><time>2022-02-05T13:31:45Z</time></trkpt>
<trkpt lat="45.865242" lon="11.650893"><ele>297.29</ele><time>2022-02-05T13:31:47Z</time></trkpt>
<trkpt lat="45.86528" lon="11.650862"><ele>296.95</ele><time>2022-02-05T13:31:48Z</time></trkpt>
<trkpt lat="45.865341" lon="11.650859"><ele>298.91</ele><time>2022-02-05T13:31:49Z</time></trkpt>
<trkpt lat="45.865603" lon="11.650738"><ele>299.74</ele><time>2022-02-05T13:31:51Z</time></trkpt>
<trkpt lat="45.865893" lon="11.650488"><ele>298.6</ele><time>2022-02-05T13:31:52Z</time></trkpt>
<trkpt lat="45.865973" lon="11.650412"><ele>298.68</ele><time>2022-02-05T13:31:53Z</time></trkpt>
<trkpt lat="45.866038" lon="11.650278"><ele>293.25</ele><time>2022-02-05T13:31:55Z</time></trkpt>
<trkpt lat="45.866194" lon="11.650098"><ele>288.96</ele><time>2022-02-05T13:31:56Z</time></trkpt>
<trkpt lat="45.86628" lon="11.649924"><ele>282.75</ele><time>2022-02-05T13:31:57Z</time></trkpt>
<trkpt lat="45.866338" lon="11.649863"><ele>283.03</ele><time>2022-02-05T13:31:58Z</time></trkpt>
<trkpt lat="45.866557" lon="11.649738"><ele>295.2</ele><time>2022-02-05T13:32:00Z</time></trkpt>
<trkpt lat="45.866604" lon="11.649691"><ele>297.04</ele><time>2022-02-05T13:32:01Z</time></trkpt>
<trkpt lat="45.866609" lon="11.649585"><ele>291.31</ele><time>2022-02-05T13:32:02Z</time></trkpt>
<trkpt lat="45.86658" lon="11.649379"><ele>276.05</ele><time>2022-02-05T13:32:04Z</time></trkpt>
<trkpt lat="45.86659" lon="11.649237"><ele>267.1</ele><time>2022-02-05T13:32:05Z</time></trkpt>
<trkpt lat="45.866624" lon="11.649168"><ele>264.48</ele><time>2022-02-05T13:32:06Z</time></trkpt>
<trkpt lat="45.866882" lon="11.648894"><ele>278.33</ele><time>2022-02-05T13:32:07Z</time></trkpt>
<trkpt lat="45.867069" lon="11.648746"><ele>288.71</ele><time>2022-02-05T13:32:09Z</time></trkpt>
<trkpt lat="45.867111" lon="11.64862"><ele>286.07</ele><time>2022-02-05T13:32:10Z</time></trkpt>
<trkpt lat="45.867109" lon="11.648499"><ele>280.42</ele><time>2022-02-05T13:32:11Z</time></trkpt>
<trkpt lat="45.867134" lon="11.648357"><ele>276.53</ele><time>2022-02-05T13:32:13Z</time></trkpt>
<trkpt lat="45.867182" lon="11.648246"><ele>276.49</ele><time>2022-02-05T13:32:14Z</time></trkpt>
<trkpt lat="45.867312" lon="11.648077"><ele>281.45</ele><time>2022-02-05T13:32:15Z</time></trkpt>
<trkpt lat="45.867328" lon="11.647971"><ele>278.49</ele><time>2022-02-05T13:32:17Z</time></trkpt>
<trkpt lat="45.867317" lon="11.64786"><ele>272.91</ele><time>2022-02-05T13:32:18Z</time></trkpt>
<trkpt lat="45.867325" lon="11.647756"><ele>269.95</ele><time>2022-02-05T13:32:19Z</time></trkpt>
<trkpt lat="45.867373" lon="11.647575"><ele>271.52</ele><time>2022-02-05T13:32:20Z</time></trkpt>
<trkpt lat="45.867382" lon="11.647463"><ele>270.25</ele><time>2022-02-05T13:32:22Z</time></trkpt>
<trkpt lat="45.867362" lon="11.647298"><ele>265.52</ele><time>2022-02-05T13:32:23Z</time></trkpt>
<trkpt lat="45.867377" lon="11.647005"><ele>257.41</ele><time>2022-02-05T13:32:24Z</time></trkpt>
<trkpt lat="45.867362" lon="11.646979"><ele>255.72</ele><time>2022-02-05T13:32:26Z</time></trkpt>
<trkpt lat="45.86734" lon="11.64698"><ele>254.55</ele><time>2022-02-05T13:32:27Z</time></trkpt>
<trkpt lat="45.867313" lon="11.647007"><ele>254.06</ele><time>2022-02-05T13:32:28Z</time></trkpt>
<trkpt lat="45.867283" lon="11.647102"><ele>255.82</ele><time>2022-02-05T13:32:29Z</time></trkpt>
<trkpt lat="45.867269" lon="11.647203"><ele>258.7</ele><time>2022-02-05T13:32:31Z</time></trkpt>
<trkpt lat="45.867295" lon="11.647505"><ele>264.58</ele><time>2022-02-05T13:32:32Z</time></trkpt>
<trkpt lat="45.867176" lon="11.647782"><ele>258.19</ele><time>2022-02-05T13:32:33Z</time></trkpt>
<trkpt lat="45.867162" lon="11.648021"><ele>265.82</ele><time>2022-02-05T13:32:35Z</time></trkpt>
<trkpt lat="45.86712" lon="11.648151"><ele>267.17</ele><time>2022-02-05T13:32:36Z</time></trkpt>
<trkpt lat="45.86706" lon="11.648237"><ele>264.91</ele><time>2022-02-05T13:32:37Z</time></trkpt>
<trkpt lat="45.866972" lon="11.64844"><ele>264.63</ele><time>2022-02-05T13:32:39Z</time></trkpt>
<trkpt lat="45.866929" lon="11.648595"><ele>267.83</ele><time>2022-02-05T13:32:40Z</time></trkpt>
<trkpt lat="45.866835" lon="11.648702"><ele>264.05</ele><time>2022-02-05T13:32:41Z</time></trkpt>
<trkpt lat="45.866459" lon="11.648931"><ele>243.25</ele><time>2022-02-05T13:32:42Z</time></trkpt>
<trkpt lat="45.866373" lon="11.649091"><ele>245.55</ele><time>2022-02-05T13:32:44Z</time></trkpt>
<trkpt lat="45.866352" lon="11.649331"><ele>255.56</ele><time>2022-02-05T13:32:45Z</time></trkpt>
<trkpt lat="45.866334" lon="11.649377"><ele>256.43</ele><time>2022-02-05T13:32:46Z</time></trkpt>
<trkpt lat="45.8663" lon="11.649426"><ele>256.13</ele><time>2022-02-05T13:32:48Z</time></trkpt>
<trkpt lat="45.866157" lon="11.649482"><ele>247.77</ele><time>2022-02-05T13:32:49Z</time></trkpt>
<trkpt lat="45.86602" lon="11.649621"><ele>246.51</ele><time>2022-02-05T13:32:50Z</time></trkpt>
<trkpt lat="45.865822" lon="11.650026"><ele>261.13</ele><time>2022-02-05T13:32:52Z</time></trkpt>
<trkpt lat="45.865776" lon="11.650023"><ele>257.94</ele><time>2022-02-05T13:32:53Z</time></trkpt>
<trkpt lat="45.865756" lon="11.649999"><ele>254.95</ele><time>2022-02-05T13:32:54Z</time></trkpt>
<trkpt lat="45.865755" lon="11.649956"><ele>251.88</ele><time>2022-02-05T13:32:55Z</time></trkpt>
<trkpt lat="45.865792" lon="11.649835"><ele>245.6</ele><time>2022-02-05T13:32:57Z</time></trkpt>
<trkpt lat="45.866038" lon="11.649311"><ele>233.48</ele><time>2022-02-05T13:32:58Z</time></trkpt>
<trkpt lat="45.866169" lon="11.64919"><ele>236.66</ele><time>2022-02-05T13:32:59Z</time></trkpt>
<trkpt lat="45.86621" lon="11.649088"><ele>235.66</ele><time>2022-02-05T13:33:01Z</time></trkpt>
<trkpt lat="45.866278" lon="11.648832"><ele>230.88</ele><time>2022-02-05T13:33:02Z</time></trkpt>
<trkpt lat="45.866409" lon="11.648634"><ele>231.58</ele><time>2022-02-05T13:33:03Z</time></trkpt>
<trkpt lat="45.866512" lon="11.648539"><ele>234.68</ele><time>2022-02-05T13:33:04Z</time></trkpt>
<trkpt lat="45.86665" lon="11.648347"><ele>236.59</ele><time>2022-02-05T13:33:06Z</time></trkpt>
<trkpt lat="45.866755" lon="11.648097"><ele>238.28</ele><time>2022-02-05T13:33:07Z</time></trkpt>
<trkpt lat="45.866809" lon="11.647888"><ele>238.29</ele><time>2022-02-05T13:33:08Z</time></trkpt>
<trkpt lat="45.866843" lon="11.647672"><ele>236.87</ele><time>2022-02-05T13:33:10Z</time></trkpt>
<trkpt lat="45.866895" lon="11.646939"><ele>231.23</ele><time>2022-02-05T13:33:11Z</time></trkpt>
<trkpt lat="45.866873" lon="11.646668"><ele>228.27</ele><time>2022-02-05T13:33:12Z</time></trkpt>
<trkpt lat="45.866855" lon="11.646625"><ele>227.86</ele><time>2022-02-05T13:33:14Z</time></trkpt>
<trkpt lat="45.866801" lon="11.646584"><ele>227.78</ele><time>2022-02-05T13:33:15Z</time></trkpt>
<trkpt lat="45.866765" lon="11.646616"><ele>228.27</ele><time>2022-02-05T13:33:16Z</time></trkpt>
<trkpt lat="45.866642" lon="11.646926"><ele>228.55</ele><time>2022-02-05T13:33:17Z</time></trkpt>
<trkpt lat="45.866392" lon="11.647205"><ele>227.36</ele><time>2022-02-05T13:33:19Z</time></trkpt>
<trkpt lat="45.866356" lon="11.647312"><ele>228.35</ele><time>2022-02-05T13:33:20Z</time></trkpt>
<trkpt lat="45.866261" lon="11.647734"><ele>228.29</ele><time>2022-02-05T13:33:21Z</time></trkpt>
<trkpt lat="45.866143" lon="11.647956"><ele>228.24</ele><time>2022-02-05T13:33:23Z</time></trkpt>
<trkpt lat="45.865963" lon="11.648154"><ele>235.1</ele><time>2022-02-05T13:33:24Z</time></trkpt>
<trkpt lat="45.865855" lon="11.648369"><ele>232.87</ele><time>2022-02-05T13:33:25Z</time></trkpt>
<trkpt lat="45.865763" lon="11.648629"><ele>228.68</ele><time>2022-02-05T13:33:26Z</time></trkpt>
<trkpt lat="45.865539" lon="11.648993"><ele>224.1</ele><time>2022-02-05T13:33:28Z</time></trkpt>
<trkpt lat="45.865324" lon="11.649253"><ele>226.84</ele><time>2022-02-05T13:33:29Z</time></trkpt>
<trkpt lat="45.865158" lon="11.649314"><ele>232.42</ele><time>2022-02-05T13:33:30Z</time></trkpt>
<trkpt lat="45.86487" lon="11.649353"><ele>238.89</ele><time>2022-02-05T13:33:32Z</time></trkpt>
<trkpt lat="45.864511" lon="11.649445"><ele>234.43</ele><time>2022-02-05T13:33:33Z</time></trkpt>
<trkpt lat="45.864383" lon="11.649492"><ele>235.11</ele><time>2022-02-05T13:33:34Z</time></trkpt>
<trkpt lat="45.864252" lon="11.649574"><ele>237.77</ele><time>2022-02-05T13:33:36Z</time></trkpt>
<trkpt lat="45.864032" lon="11.649818"><ele>239.88</ele><time>2022-02-05T13:33:37Z</time></trkpt>
<trkpt lat="45.863714" lon="11.650279"><ele>231.49</ele><time>2022-02-05T13:33:38Z</time></trkpt>
<trkpt lat="45.863369" lon="11.650704"><ele>215.27</ele><time>2022-02-05T13:33:39Z</time></trkpt>
<trkpt lat="45.862547" lon="11.651553"><ele>216.27</ele><time>2022-02-05T13:33:41Z</time></trkpt>
<trkpt lat="45.86212" lon="11.65196"><ele>211.77</ele><time>2022-02-05T13:33:42Z</time></trkpt>
<trkpt lat="45.861886" lon="11.652223"><ele>203.1</ele><time>2022-02-05T13:33:43Z</time></trkpt>
<trkpt lat="45.861813" lon="11.652406"><ele>201.8</ele><time>2022-02-05T13:33:45Z</time></trkpt>
<trkpt lat="45.861597" lon="11.653348"><ele>190.44</ele><time>2022-02-05T13:33:46Z</time></trkpt>
<trkpt lat="45.861508" lon="11.654106"><ele>192.48</ele><time>2022-02-05T13:33:47Z</time></trkpt>
<trkpt lat="45.861416" lon="11.65445"><ele>187.63</ele><time>2022-02-05T13:33:48Z</time></trkpt>
<trkpt lat="45.861348" lon="11.654597"><ele>187.64</ele><time>2022-02-05T13:33:50Z</time></trkpt>
<trkpt lat="45.861248" lon="11.654703"><ele>190.73</ele><time>2022-02-05T13:33:51Z</time></trkpt>
<trkpt lat="45.861153" lon="11.654989"><ele>192.82</ele><time>2022-02-05T13:33:52Z</time></trkpt>
<trkpt lat="45.861085" lon="11.655554"><ele>188.9</ele><time>2022-02-05T13:33:54Z</time></trkpt>
<trkpt lat="45.860948" lon="11.65577"><ele>183.65</ele><time>2022-02-05T13:33:55Z</time></trkpt>
<trkpt lat="45.860437" lon="11.656235"><ele>177.66</ele><time>2022-02-05T13:33:56Z</time></trkpt>
<trkpt lat="45.860225" lon="11.656399"><ele>174.57</ele><time>2022-02-05T13:33:58Z</time></trkpt>
<trkpt lat="45.859753" lon="11.656615"><ele>176.77</ele><time>2022-02-05T13:33:59Z</time></trkpt>
<trkpt lat="45.859686" lon="11.656683"><ele>176.43</ele><time>2022-02-05T13:34:00Z</time></trkpt>
<trkpt lat="45.85959" lon="11.656842"><ele>176.99</ele><time>2022-02-05T13:34:01Z</time></trkpt>
<trkpt lat="45.859394" lon="11.657278"><ele>174.8</ele><time>2022-02-05T13:34:03Z</time></trkpt>
<trkpt lat="45.859261" lon="11.657528"><ele>171.17</ele><time>2022-02-05T13:34:04Z</time></trkpt>
<trkpt lat="45.859197" lon="11.657635"><ele>169.15</ele><time>2022-02-05T13:34:05Z</time></trkpt>
<trkpt lat="45.859131" lon="11.657702"><ele>168.35</ele><time>2022-02-05T13:34:07Z</time></trkpt>
<trkpt lat="45.858989" lon="11.6578"><ele>168.3</ele><time>2022-02-05T13:34:08Z</time></trkpt>
<trkpt lat="45.858749" lon="11.657877"><ele>170.92</ele><time>2022-02-05T13:34:09Z</time></trkpt>
<trkpt lat="45.858504" lon="11.657916"><ele>174.53</ele><time>2022-02-05T13:34:11Z</time></trkpt>
<trkpt lat="45.858477" lon="11.657948"><ele>173.74</ele><time>2022-02-05T13:34:12Z</time></trkpt>
<trkpt lat="45.858469" lon="11.657989"><ele>172.09</ele><time>2022-02-05T13:34:13Z</time></trkpt>
<trkpt lat="45.858216" lon="11.658005"><ele>177.05</ele><time>2022-02-05T13:34:15Z</time></trkpt>
<trkpt lat="45.857942" lon="11.658072"><ele>179.35</ele><time>2022-02-05T13:34:16Z</time></trkpt>
<trkpt lat="45.857638" lon="11.65821"><ele>178.5</ele><time>2022-02-05T13:34:17Z</time></trkpt>
<trkpt lat="45.857346" lon="11.658404"><ele>172.78</ele><time>2022-02-05T13:34:19Z</time></trkpt>
<trkpt lat="45.857049" lon="11.658551"><ele>171.46</ele><time>2022-02-05T13:34:20Z</time></trkpt>
<trkpt lat="45.856712" lon="11.658939"><ele>175.57</ele><time>2022-02-05T13:34:21Z</time></trkpt>
<trkpt lat="45.856548" lon="11.659239"><ele>177.76</ele><time>2022-02-05T13:34:23Z</time></trkpt>
<trkpt lat="45.85645" lon="11.659491"><ele>178.92</ele><time>2022-02-05T13:34:24Z</time></trkpt>
<trkpt lat="45.856333" lon="11.660034"><ele>170.87</ele><time>2022-02-05T13:34:25Z</time></trkpt>
<trkpt lat="45.85629" lon="11.660164"><ele>167.81</ele><time>2022-02-05T13:34:27Z</time></trkpt>
<trkpt lat="45.855925" lon="11.660869"><ele>161.68</ele><time>2022-02-05T13:34:28Z</time></trkpt>
<trkpt lat="45.855846" lon="11.660994"><ele>161.56</ele><time>2022-02-05T13:34:30Z</time></trkpt>
<trkpt lat="45.855725" lon="11.661097"><ele>162.11</ele><time>2022-02-05T13:34:31Z</time></trkpt>
<trkpt lat="45.855269" lon="11.661268"><ele>168.63</ele><time>2022-02-05T13:34:32Z</time></trkpt>
<trkpt lat="45.855185" lon="11.661316"><ele>169.22</ele><time>2022-02-05T13:34:34Z</time></trkpt>
<trkpt lat="45.854862" lon="11.661589"><ele>165.91</ele><time>2022-02-05T13:34:35Z</time></trkpt>
<trkpt lat="45.854667" lon="11.661804"><ele>163.62</ele><time>2022-02-05T13:34:36Z</time></trkpt>
<trkpt lat="45.854621" lon="11.661881"><ele>162.5</ele><time>2022-02-05T13:34:38Z</time></trkpt>
<trkpt lat="45.854598" lon="11.661974"><ele>160.6</ele><time>2022-02-05T13:34:39Z</time></trkpt>
<trkpt lat="45.854606" lon="11.662074"><ele>158.3</ele><time>2022-02-05T13:34:40Z</time></trkpt>
<trkpt lat="45.854633" lon="11.66214"><ele>156.38</ele><time>2022-02-05T13:34:42Z</time></trkpt>
<trkpt lat="45.854756" lon="11.662265"><ele>152.25</ele><time>2022-02-05T13:34:43Z</time></trkpt>
<trkpt lat="45.854847" lon="11.662284"><ele>150.63</ele><time>2022-02-05T13:34:44Z</time></trkpt>
<trkpt lat="45.855379" lon="11.66227"><ele>146.77</ele><time>2022-02-05T13:34:46Z</time></trkpt>
<trkpt lat="45.855443" lon="11.662279"><ele>146.67</ele><time>2022-02-05T13:34:47Z</time></trkpt>
<trkpt lat="45.855476" lon="11.662309"><ele>146.46</ele><time>2022-02-05T13:34:49Z</time></trkpt>
<trkpt lat="45.856073" lon="11.661853"><ele>148.65</ele><time>2022-02-05T13:34:54Z</time></trkpt>
<trkpt lat="45.856127" lon="11.661752"><ele>148.53</ele><time>2022-02-05T13:34:59Z</time></trkpt>
<trkpt lat="45.856862" lon="11.659398"><ele>153.73</ele><time>2022-02-05T13:35:04Z</time></trkpt>
<trkpt lat="45.85695" lon="11.659254"><ele>151.69</ele><time>2022-02-05T13:35:09Z</time></trkpt>
<trkpt lat="45.857044" lon="11.659164"><ele>151.97</ele><time>2022-02-05T13:35:15Z</time></trkpt>
<trkpt lat="45.857263" lon="11.659024"><ele>153.45</ele><time>2022-02-05T13:35:20Z</time></trkpt>
<trkpt lat="45.857487" lon="11.659953"><ele>149.57</ele><time>2022-02-05T13:35:24Z</time></trkpt>
<trkpt lat="45.857541" lon="11.660051"><ele>149.32</ele><time>2022-02-05T13:35:28Z</time></trkpt>
<trkpt lat="45.857591" lon="11.660102"><ele>149.77</ele><time>2022-02-05T13:35:32Z</time></trkpt>
<trkpt lat="45.857813" lon="11.660209"><ele>151.91</ele><time>2022-02-05T13:35:36Z</time></trkpt>
<trkpt lat="45.857853" lon="11.66026"><ele>152.22</ele><time>2022-02-05T13:35:40Z</time></trkpt>
<trkpt lat="45.858207" lon="11.661183"><ele>155.31</ele><time>2022-02-05T13:35:44Z</time></trkpt>
<trkpt lat="45.857383" lon="11.661877"><ele>156.43</ele><time>2022-02-05T13:35:53Z</time></trkpt>
<trkpt lat="45.85721" lon="11.662088"><ele>157.98</ele><time>2022-02-05T13:36:02Z</time></trkpt>
<trkpt lat="45.856608" lon="11.662986"><ele>155.3</ele><time>2022-02-05T13:36:11Z</time></trkpt>
<trkpt lat="45.856039" lon="11.663767"><ele>148.17</ele><time>2022-02-05T13:36:20Z</time></trkpt>
<trkpt lat="45.855756" lon="11.664045"><ele>150.4</ele><time>2022-02-05T13:36:29Z</time></trkpt>
<trkpt lat="45.855183" lon="11.664446"><ele>155.63</ele><time>2022-02-05T13:36:38Z</time></trkpt>
<trkpt lat="45.854267" lon="11.665182"><ele>146.93</ele><time>2022-02-05T13:36:47Z</time></trkpt>
<trkpt lat="45.853938" lon="11.665478"><ele>147.72</ele><time>2022-02-05T13:36:56Z</time></trkpt>
<trkpt lat="45.85364" lon="11.665807"><ele>148.81</ele><time>2022-02-05T13:37:05Z</time></trkpt>
<trkpt lat="45.852952" lon="11.666861"><ele>145.11</ele><time>2022-02-05T13:37:13Z</time></trkpt>
<trkpt lat="45.852704" lon="11.667188"><ele>143.59</ele><time>2022-02-05T13:37:22Z</time></trkpt>
<trkpt lat="45.852437" lon="11.667515"><ele>147.55</ele><time>2022-02-05T13:37:31Z</time></trkpt>
<trkpt lat="45.851842" lon="11.66813"><ele>147.77</ele><time>2022-02-05T13:37:40Z</time></trkpt>
<trkpt lat="45.851308" lon="11.668502"><ele>144.36</ele><time>2022-02-05T13:37:49Z</time></trkpt>
<trkpt lat="45.850703" lon="11.668866"><ele>143.78</ele><time>2022-02-05T13:37:58Z</time></trkpt>
<trkpt lat="45.849015" lon="11.670018"><ele>146.95</ele><time>2022-02-05T13:38:07Z</time></trkpt>
<trkpt lat="45.848778" lon="11.670229"><ele>146.18</ele><time>2022-02-05T13:38:16Z</time></trkpt>
<trkpt lat="45.847377" lon="11.671659"><ele>146.47</ele><time>2022-02-05T13:38:25Z</time></trkpt>
<trkpt lat="45.846938" lon="11.672048"><ele>142.97</ele><time>2022-02-05T13:38:34Z</time></trkpt>
<trkpt lat="45.846706" lon="11.672326"><ele>140.15</ele><time>2022-02-05T13:38:43Z</time></trkpt>
<trkpt lat="45.846496" lon="11.672692"><ele>139.57</ele><time>2022-02-05T13:38:52Z</time></trkpt>
<trkpt lat="45.846392" lon="11.672925"><ele>143.71</ele><time>2022-02-05T13:39:01Z</time></trkpt>
<trkpt lat="45.846182" lon="11.673699"><ele>146.02</ele><time>2022-02-05T13:39:10Z</time></trkpt>
<trkpt lat="45.846028" lon="11.673953"><ele>144.47</ele><time>2022-02-05T13:39:19Z</time></trkpt>
<trkpt lat="45.84565" lon="11.67436"><ele>144.74</ele><time>2022-02-05T13:39:27Z</time></trkpt>
<trkpt lat="45.844907" lon="11.675248"><ele>146.49</ele><time>2022-02-05T13:39:36Z</time></trkpt>
<trkpt lat="45.844701" lon="11.675566"><ele>144.84</ele><time>2022-02-05T13:39:45Z</time></trkpt>
<trkpt lat="45.844464" lon="11.676081"><ele>143.34</ele><time>2022-02-05T13:39:54Z</time></trkpt>
<trkpt lat="45.844248" lon="11.676625"><ele>142.29</ele><time>2022-02-05T13:40:03Z</time></trkpt>
<trkpt lat="45.842874" lon="11.679621"><ele>140.8</ele><time>2022-02-05T13:40:12Z</time></trkpt>
<trkpt lat="45.842691" lon="11.680049"><ele>139.55</ele><time>2022-02-05T13:40:21Z</time></trkpt>
<trkpt lat="45.842433" lon="11.680791"><ele>139.72</ele><time>2022-02-05T13:40:30Z</time></trkpt>
<trkpt lat="45.841467" lon="11.684307"><ele>142.7</ele><time>2022-02-05T13:40:39Z</time></trkpt>
<trkpt lat="45.841291" lon="11.684808"><ele>141.06</ele><time>2022-02-05T13:40:48Z</time></trkpt>
<trkpt lat="45.841096" lon="11.685292"><ele>140.0</ele><time>2022-02-05T13:40:57Z</time></trkpt>
<trkpt lat="45.840439" lon="11.686605"><ele>140.58</ele><time>2022-02-05T13:41:06Z</time></trkpt>
<trkpt lat="45.840079" lon="11.687276"><ele>145.92</ele><time>2022-02-05T13:41:15Z</time></trkpt>
<trkpt lat="45.83997" lon="11.687476"><ele>147.51</ele><time>2022-02-05T13:41:24Z</time></trkpt>
<trkpt lat="45.839913" lon="11.687591"><ele>147.29</ele><time>2022-02-05T13:41:32Z</time></trkpt>
<trkpt lat="45.839148" lon="11.689041"><ele>148.76</ele><time>2022-02-05T13:41:41Z</time></trkpt>
<trkpt lat="45.83852" lon="11.6903"><ele>139.72</ele><time>2022-02-05T13:41:50Z</time></trkpt>
<trkpt lat="45.837863" lon="11.691465"><ele>140.39</ele><time>2022-02-05T13:41:59Z</time></trkpt>
<trkpt lat="45.837049" lon="11.692542"><ele>138.82</ele><time>2022-02-05T13:42:08Z</time></trkpt>
<trkpt lat="45.836564" lon="11.693144"><ele>137.59</ele><time>2022-02-05T13:42:17Z</time></trkpt>
<trkpt lat="45.83639" lon="11.693362"><ele>136.22</ele><time>2022-02-05T13:42:26Z</time></trkpt>
<trkpt lat="45.833092" lon="11.69746"><ele>133.27</ele><time>2022-02-05T13:42:35Z</time></trkpt>
<trkpt lat="45.832877" lon="11.69785"><ele>135.57</ele><time>2022-02-05T13:42:44Z</time></trkpt>
<trkpt lat="45.832702" lon="11.698269"><ele>138.54</ele><time>2022-02-05T13:42:53Z</time></trkpt>
<trkpt lat="45.832409" lon="11.699153"><ele>137.36</ele><time>2022-02-05T13:43:02Z</time></trkpt>
<trkpt lat="45.831998" lon="11.700365"><ele>134.76</ele><time>2022-02-05T13:43:11Z</time></trkpt>
<trkpt lat="45.831756" lon="11.700883"><ele>137.17</ele><time>2022-02-05T13:43:20Z</time></trkpt>
<trkpt lat="45.831483" lon="11.701358"><ele>137.28</ele><time>2022-02-05T13:43:29Z</time></trkpt>
<trkpt lat="45.831161" lon="11.701783"><ele>134.53</ele><time>2022-02-05T13:43:38Z</time></trkpt>
<trkpt lat="45.830816" lon="11.70218"><ele>132.49</ele><time>2022-02-05T13:43:46Z</time></trkpt>
<trkpt lat="45.829136" lon="11.703547"><ele>130.3</ele><time>2022-02-05T13:43:55Z</time></trkpt>
<trkpt lat="45.827105" lon="11.70515"><ele>132.81</ele><time>2022-02-05T13:44:04Z</time></trkpt>
<trkpt lat="45.826613" lon="11.705495"><ele>130.57</ele><time>2022-02-05T13:44:13Z</time></trkpt>
<trkpt lat="45.826231" lon="11.705809"><ele>133.84</ele><time>2022-02-05T13:44:22Z</time></trkpt>
<trkpt lat="45.825932" lon="11.706129"><ele>135.11</ele><time>2022-02-05T13:44:31Z</time></trkpt>
<trkpt lat="45.825298" lon="11.707153"><ele>137.9</ele><time>2022-02-05T13:44:40Z</time></trkpt>
<trkpt lat="45.82479" lon="11.708035"><ele>131.73</ele><time>2022-02-05T13:44:49Z</time></trkpt>
<trkpt lat="45.824302" lon="11.708969"><ele>131.4</ele><time>2022-02-05T13:44:58Z</time></trkpt>
<trkpt lat="45.824056" lon="11.7094"><ele>131.89</ele><time>2022-02-05T13:45:07Z</time></trkpt>
<trkpt lat="45.823768" lon="11.709816"><ele>134.09</ele><time>2022-02-05T13:45:16Z</time></trkpt>
<trkpt lat="45.823486" lon="11.71015"><ele>133.76</ele><time>2022-02-05T13:45:25Z</time></trkpt>
<trkpt lat="45.822874" lon="11.710751"><ele>133.8</ele><time>2022-02-05T13:45:34Z</time></trkpt>
<trkpt lat="45.820601" lon="11.712879"><ele>132.49</ele><time>2022-02-05T13:45:43Z</time></trkpt>
<trkpt lat="45.81992" lon="11.713543"><ele>132.29</ele><time>2022-02-05T13:45:51Z</time></trkpt>
<trkpt lat="45.818437" lon="11.715084"><ele>126.68</ele><time>2022-02-05T13:46:00Z</time></trkpt>
<trkpt lat="45.817877" lon="11.715466"><ele>127.28</ele><time>2022-02-05T13:46:05Z</time></trkpt>
<trkpt lat="45.817368" lon="11.715756"><ele>125.13</ele><time>2022-02-05T13:46:10Z</time></trkpt>
<trkpt lat="45.817282" lon="11.715828"><ele>125.01</ele><time>2022-02-05T13:46:15Z</time></trkpt>
<trkpt lat="45.817212" lon="11.715928"><ele>125.34</ele><time>2022-02-05T13:46:19Z</time></trkpt>
<trkpt lat="45.817011" lon="11.716405"><ele>125.83</ele><time>2022-02-05T13:46:24Z</time></trkpt>
<trkpt lat="45.816695" lon="11.716993"><ele>125.91</ele><time>2022-02-05T13:46:29Z</time></trkpt>
<trkpt lat="45.816657" lon="11.717112"><ele>126.64</ele><time>2022-02-05T13:46:34Z</time></trkpt>
<trkpt lat="45.81638" lon="11.717415"><ele>125.0</ele><time>2022-02-05T13:46:38Z</time></trkpt>
<trkpt lat="45.816055" lon="11.7177"><ele>124.82</ele><time>2022-02-05T13:46:43Z</time></trkpt>
<trkpt lat="45.815726" lon="11.717941"><ele>125.4</ele><time>2022-02-05T13:46:48Z</time></trkpt>
<trkpt lat="45.814876" lon="11.718449"><ele>125.29</ele><time>2022-02-05T13:46:52Z</time></trkpt>
<trkpt lat="45.81444" lon="11.718679"><ele>126.47</ele><time>2022-02-05T13:46:57Z</time></trkpt>
<trkpt lat="45.813848" lon="11.719039"><ele>128.69</ele><time>2022-02-05T13:47:02Z</time></trkpt>
<trkpt lat="45.813333" lon="11.719188"><ele>129.08</ele><time>2022-02-05T13:47:07Z</time></trkpt>
<trkpt lat="45.812443" lon="11.71955"><ele>123.63</ele><time>2022-02-05T13:47:11Z</time></trkpt>
<trkpt lat="45.81179" lon="11.719673"><ele>122.83</ele><time>2022-02-05T13:47:16Z</time></trkpt>
<trkpt lat="45.811054" lon="11.719643"><ele>127.78</ele><time>2022-02-05T13:47:21Z</time></trkpt>
<trkpt lat="45.810727" lon="11.719533"><ele>127.71</ele><time>2022-02-05T13:47:26Z</time></trkpt>
<trkpt lat="45.810062" lon="11.719238"><ele>128.3</ele><time>2022-02-05T13:47:30Z</time></trkpt>
<trkpt lat="45.809473" lon="11.71889"><ele>132.98</ele><time>2022-02-05T13:47:35Z</time></trkpt>
<trkpt lat="45.808677" lon="11.718267"><ele>122.39</ele><time>2022-02-05T13:47:40Z</time></trkpt>
<trkpt lat="45.808314" lon="11.718099"><ele>125.33</ele><time>2022-02-05T13:47:44Z</time></trkpt>
<trkpt lat="45.807918" lon="11.717773"><ele>120.48</ele><time>2022-02-05T13:47:49Z</time></trkpt>
<trkpt lat="45.807851" lon="11.717745"><ele>120.12</ele><time>2022-02-05T13:47:54Z</time></trkpt>
<trkpt lat="45.806411" lon="11.718009"><ele>125.66</ele><time>2022-02-05T13:47:59Z</time></trkpt>
<trkpt lat="45.806121" lon="11.718071"><ele>128.14</ele><time>2022-02-05T13:48:03Z</time></trkpt>
<trkpt lat="45.805926" lon="11.718148"><ele>129.55</ele><time>2022-02-05T13:48:08Z</time></trkpt>
<trkpt lat="45.805377" lon="11.718184"><ele>130.09</ele><time>2022-02-05T13:48:13Z</time></trkpt>
<trkpt lat="45.805168" lon="11.718189"><ele>127.54</ele><time>2022-02-05T13:48:18Z</time></trkpt>
<trkpt lat="45.804775" lon="11.718205"><ele>123.56</ele><time>2022-02-05T13:48:23Z</time></trkpt>
<trkpt lat="45.804736" lon="11.718353"><ele>124.57</ele><time>2022-02-05T13:48:28Z</time></trkpt>
<trkpt lat="45.804595" lon="11.718556"><ele>128.8</ele><time>2022-02-05T13:48:33Z</time></trkpt>
<trkpt lat="45.804298" lon="11.718808"><ele>132.61</ele><time>2022-02-05T13:48:38Z</time></trkpt>
<trkpt lat="45.803813" lon="11.719335"><ele>132.32</ele><time>2022-02-05T13:48:43Z</time></trkpt>
<trkpt lat="45.803664" lon="11.719456"><ele>132.74</ele><time>2022-02-05T13:48:47Z</time></trkpt>
<trkpt lat="45.803438" lon="11.71958"><ele>131.46</ele><time>2022-02-05T13:48:52Z</time></trkpt>
<trkpt lat="45.802917" lon="11.719925"><ele>131.28</ele><time>2022-02-05T13:48:57Z</time></trkpt>
<trkpt lat="45.802189" lon="11.7206"><ele>136.86</ele><time>2022-02-05T13:49:02Z</time></trkpt>
<trkpt lat="45.802166" lon="11.720646"><ele>137.17</ele><time>2022-02-05T13:49:07Z</time></trkpt>
<trkpt lat="45.802166" lon="11.720646"><ele>137.17</ele><time>2022-02-05T13:49:07Z</time></trkpt>
<trkpt lat="45.80207" lon="11.720845"><ele>137.48</ele><time>2022-02-05T13:49:12Z</time></trkpt>
<trkpt lat="45.802008" lon="11.721338"><ele>142.33</ele><time>2022-02-05T13:49:17Z</time></trkpt>
<trkpt lat="45.801949" lon="11.721553"><ele>143.26</ele><time>2022-02-05T13:49:23Z</time></trkpt>
<trkpt lat="45.801815" lon="11.721747"><ele>143.15</ele><time>2022-02-05T13:49:28Z</time></trkpt>
<trkpt lat="45.800942" lon="11.722791"><ele>144.38</ele><time>2022-02-05T13:49:33Z</time></trkpt>
<trkpt lat="45.800429" lon="11.723367"><ele>143.24</ele><time>2022-02-05T13:49:39Z</time></trkpt>
<trkpt lat="45.800031" lon="11.723737"><ele>145.52</ele><time>2022-02-05T13:49:44Z</time></trkpt>
<trkpt lat="45.799649" lon="11.724043"><ele>149.38</ele><time>2022-02-05T13:49:49Z</time></trkpt>
<trkpt lat="45.798884" lon="11.72466"><ele>150.04</ele><time>2022-02-05T13:49:55Z</time></trkpt>
<trkpt lat="45.798786" lon="11.724798"><ele>150.44</ele><time>2022-02-05T13:50:00Z</time></trkpt>
<trkpt lat="45.798733" lon="11.724917"><ele>151.25</ele><time>2022-02-05T13:50:06Z</time></trkpt>
<trkpt lat="45.798454" lon="11.726112"><ele>160.43</ele><time>2022-02-05T13:50:11Z</time></trkpt>
<trkpt lat="45.798443" lon="11.726354"><ele>160.74</ele><time>2022-02-05T13:50:16Z</time></trkpt>
<trkpt lat="45.798458" lon="11.726592"><ele>161.3</ele><time>2022-02-05T13:50:22Z</time></trkpt>
<trkpt lat="45.798434" lon="11.726883"><ele>161.86</ele><time>2022-02-05T13:50:27Z</time></trkpt>
<trkpt lat="45.798423" lon="11.726971"><ele>162.1</ele><time>2022-02-05T13:50:32Z</time></trkpt>
<trkpt lat="45.798448" lon="11.727053"><ele>162.39</ele><time>2022-02-05T13:50:36Z</time></trkpt>
<trkpt lat="45.798502" lon="11.727099"><ele>162.55</ele><time>2022-02-05T13:50:41Z</time></trkpt>
<trkpt lat="45.79862" lon="11.727348"><ele>163.42</ele><time>2022-02-05T13:50:45Z</time></trkpt>
<trkpt lat="45.799208" lon="11.729096"><ele>162.81</ele><time>2022-02-05T13:50:50Z</time></trkpt>
<trkpt lat="45.799118" lon="11.729265"><ele>162.65</ele><time>2022-02-05T13:50:54Z</time></trkpt>
<trkpt lat="45.798485" lon="11.72994"><ele>161.36</ele><time>2022-02-05T13:50:59Z</time></trkpt>
<trkpt lat="45.798307" lon="11.730153"><ele>160.95</ele><time>2022-02-05T13:51:03Z</time></trkpt>
<trkpt lat="45.797541" lon="11.731402"><ele>160.14</ele><time>2022-02-05T13:51:08Z</time></trkpt>
<trkpt lat="45.797227" lon="11.731874"><ele>159.0</ele><time>2022-02-05T13:51:12Z</time></trkpt>
<trkpt lat="45.796982" lon="11.732136"><ele>158.04</ele><time>2022-02-05T13:51:16Z</time></trkpt>
<trkpt lat="45.796885" lon="11.732202"><ele>158.01</ele><time>2022-02-05T13:51:21Z</time></trkpt>
<trkpt lat="45.796784" lon="11.732238"><ele>158.0</ele><time>2022-02-05T13:51:25Z</time></trkpt>
<trkpt lat="45.796606" lon="11.732258"><ele>158.22</ele><time>2022-02-05T13:51:30Z</time></trkpt>
<trkpt lat="45.796534" lon="11.732299"><ele>158.48</ele><time>2022-02-05T13:51:34Z</time></trkpt>
<trkpt lat="45.796459" lon="11.732378"><ele>158.75</ele><time>2022-02-05T13:51:39Z</time></trkpt>
<trkpt lat="45.796082" lon="11.733099"><ele>158.91</ele><time>2022-02-05T13:51:43Z</time></trkpt>
<trkpt lat="45.795528" lon="11.734587"><ele>160.39</ele><time>2022-02-05T13:51:47Z</time></trkpt>
<trkpt lat="45.795279" lon="11.735328"><ele>157.82</ele><time>2022-02-05T13:51:52Z</time></trkpt>
<trkpt lat="45.795396" lon="11.735427"><ele>157.46</ele><time>2022-02-05T13:51:55Z</time></trkpt>
<trkpt lat="45.795616" lon="11.735661"><ele>157.0</ele><time>2022-02-05T13:51:59Z</time></trkpt>
<trkpt lat="45.795879" lon="11.736077"><ele>159.98</ele><time>2022-02-05T13:52:02Z</time></trkpt>
<trkpt lat="45.795977" lon="11.736324"><ele>163.33</ele><time>2022-02-05T13:52:06Z</time></trkpt>
<trkpt lat="45.795748" lon="11.736838"><ele>164.7</ele><time>2022-02-05T13:52:14Z</time></trkpt>
<trkpt lat="45.79568" lon="11.73703"><ele>164.72</ele><time>2022-02-05T13:52:23Z</time></trkpt>
<trkpt lat="45.795629" lon="11.737269"><ele>165.4</ele><time>2022-02-05T13:52:31Z</time></trkpt>
<trkpt lat="45.795396" lon="11.738431"><ele>163.52</ele><time>2022-02-05T13:52:39Z</time></trkpt>
<trkpt lat="45.79518" lon="11.739819"><ele>165.45</ele><time>2022-02-05T13:52:48Z</time></trkpt>
<trkpt lat="45.795024" lon="11.740583"><ele>166.81</ele><time>2022-02-05T13:52:56Z</time></trkpt>
<trkpt lat="45.794815" lon="11.741192"><ele>165.96</ele><time>2022-02-05T13:53:05Z</time></trkpt>
<trkpt lat="45.79451" lon="11.741673"><ele>170.06</ele><time>2022-02-05T13:53:13Z</time></trkpt>
<trkpt lat="45.794264" lon="11.742222"><ele>170.65</ele><time>2022-02-05T13:53:21Z</time></trkpt>
<trkpt lat="45.794177" lon="11.742717"><ele>168.22</ele><time>2022-02-05T13:53:30Z</time></trkpt>
<trkpt lat="45.794225" lon="11.744015"><ele>164.79</ele><time>2022-02-05T13:53:38Z</time></trkpt>
<trkpt lat="45.794476" lon="11.748998"><ele>161.55</ele><time>2022-02-05T13:53:47Z</time></trkpt>
<trkpt lat="45.794869" lon="11.75084"><ele>161.0</ele><time>2022-02-05T13:53:55Z</time></trkpt>
<trkpt lat="45.79512" lon="11.751561"><ele>161.35</ele><time>2022-02-05T13:54:03Z</time></trkpt>
<trkpt lat="45.795383" lon="11.752432"><ele>163.6</ele><time>2022-02-05T13:54:12Z</time></trkpt>
<trkpt lat="45.795517" lon="11.753001"><ele>165.0</ele><time>2022-02-05T13:54:20Z</time></trkpt>
<trkpt lat="45.795684" lon="11.753806"><ele>166.7</ele><time>2022-02-05T13:54:28Z</time></trkpt>
<trkpt lat="45.795843" lon="11.754388"><ele>169.03</ele><time>2022-02-05T13:54:37Z</time></trkpt>
<trkpt lat="45.79621" lon="11.755347"><ele>171.35</ele><time>2022-02-05T13:54:45Z</time></trkpt>
<trkpt lat="45.796535" lon="11.756083"><ele>172.05</ele><time>2022-02-05T13:54:54Z</time></trkpt>
<trkpt lat="45.796644" lon="11.756511"><ele>172.8</ele><time>2022-02-05T13:55:02Z</time></trkpt>
<trkpt lat="45.796714" lon="11.756681"><ele>172.95</ele><time>2022-02-05T13:55:10Z</time></trkpt>
<trkpt lat="45.7968" lon="11.756807"><ele>172.49</ele><time>2022-02-05T13:55:19Z</time></trkpt>
<trkpt lat="45.796827" lon="11.756891"><ele>171.6</ele><time>2022-02-05T13:55:27Z</time></trkpt>
<trkpt lat="45.796827" lon="11.756891"><ele>171.6</ele><time>2022-02-05T13:55:27Z</time></trkpt>
<trkpt lat="45.796937" lon="11.757226"><ele>170.98</ele><time>2022-02-05T13:55:30Z</time></trkpt>
<trkpt lat="45.796959" lon="11.757413"><ele>170.37</ele><time>2022-02-05T13:55:32Z</time></trkpt>
<trkpt lat="45.797027" lon="11.757402"><ele>170.65</ele><time>2022-02-05T13:55:36Z</time></trkpt>
<trkpt lat="45.797346" lon="11.757249"><ele>171.99</ele><time>2022-02-05T13:55:39Z</time></trkpt>
<trkpt lat="45.797664" lon="11.756946"><ele>173.0</ele><time>2022-02-05T13:55:43Z</time></trkpt>
<trkpt lat="45.797802" lon="11.756836"><ele>173.44</ele><time>2022-02-05T13:55:46Z</time></trkpt>
<trkpt lat="45.797964" lon="11.756775"><ele>173.87</ele><time>2022-02-05T13:55:50Z</time></trkpt>
<trkpt lat="45.798498" lon="11.756636"><ele>175.64</ele><time>2022-02-05T13:55:54Z</time></trkpt>
<trkpt lat="45.798947" lon="11.756552"><ele>177.83</ele><time>2022-02-05T13:55:57Z</time></trkpt>
<trkpt lat="45.799259" lon="11.75644"><ele>180.48</ele><time>2022-02-05T13:56:01Z</time></trkpt>
<trkpt lat="45.799473" lon="11.756417"><ele>182.0</ele><time>2022-02-05T13:56:04Z</time></trkpt>
<trkpt lat="45.800215" lon="11.756538"><ele>185.48</ele><time>2022-02-05T13:56:08Z</time></trkpt>
<trkpt lat="45.800287" lon="11.756588"><ele>185.6</ele><time>2022-02-05T13:56:11Z</time></trkpt>
<trkpt lat="45.800434" lon="11.756924"><ele>184.23</ele><time>2022-02-05T13:56:15Z</time></trkpt>
<trkpt lat="45.800594" lon="11.757114"><ele>184.53</ele><time>2022-02-05T13:56:18Z</time></trkpt>
<trkpt lat="45.800989" lon="11.757467"><ele>185.17</ele><time>2022-02-05T13:56:22Z</time></trkpt>
<trkpt lat="45.801333" lon="11.757877"><ele>185.51</ele><time>2022-02-05T13:56:25Z</time></trkpt>
<trkpt lat="45.801513" lon="11.75797"><ele>186.24</ele><time>2022-02-05T13:56:29Z</time></trkpt>
<trkpt lat="45.80186" lon="11.757862"><ele>187.3</ele><time>2022-02-05T13:56:33Z</time></trkpt>
<trkpt lat="45.80219" lon="11.75792"><ele>188.0</ele><time>2022-02-05T13:56:36Z</time></trkpt>
<trkpt lat="45.802464" lon="11.757803"><ele>188.08</ele><time>2022-02-05T13:56:40Z</time></trkpt>
<trkpt lat="45.802721" lon="11.757655"><ele>190.04</ele><time>2022-02-05T13:56:43Z</time></trkpt>
<trkpt lat="45.803299" lon="11.757265"><ele>191.91</ele><time>2022-02-05T13:56:47Z</time></trkpt>
<trkpt lat="45.804155" lon="11.756732"><ele>201.25</ele><time>2022-02-05T13:56:50Z</time></trkpt>
<trkpt lat="45.804233" lon="11.756665"><ele>202.25</ele><time>2022-02-05T13:56:54Z</time></trkpt>
<trkpt lat="45.804514" lon="11.756342"><ele>210.11</ele><time>2022-02-05T13:56:57Z</time></trkpt>
<trkpt lat="45.804603" lon="11.756293"><ele>212.75</ele><time>2022-02-05T13:57:01Z</time></trkpt>
<trkpt lat="45.804691" lon="11.756279"><ele>214.65</ele><time>2022-02-05T13:57:04Z</time></trkpt>
<trkpt lat="45.804973" lon="11.756325"><ele>216.34</ele><time>2022-02-05T13:57:08Z</time></trkpt>
<trkpt lat="45.805835" lon="11.756642"><ele>224.92</ele><time>2022-02-05T13:57:11Z</time></trkpt>
<trkpt lat="45.806507" lon="11.756751"><ele>232.92</ele><time>2022-02-05T13:57:15Z</time></trkpt>
<trkpt lat="45.807487" lon="11.756799"><ele>239.66</ele><time>2022-02-05T13:57:19Z</time></trkpt>
<trkpt lat="45.807665" lon="11.756877"><ele>236.46</ele><time>2022-02-05T13:57:22Z</time></trkpt>
<trkpt lat="45.807725" lon="11.756875"><ele>236.23</ele><time>2022-02-05T13:57:26Z</time></trkpt>
<trkpt lat="45.807783" lon="11.756825"><ele>237.4</ele><time>2022-02-05T13:57:29Z</time></trkpt>
<trkpt lat="45.807802" lon="11.756711"><ele>240.62</ele><time>2022-02-05T13:57:33Z</time></trkpt>
<trkpt lat="45.807778" lon="11.756645"><ele>242.69</ele><time>2022-02-05T13:57:34Z</time></trkpt>
<trkpt lat="45.807737" lon="11.756605"><ele>244.26</ele><time>2022-02-05T13:57:35Z</time></trkpt>
<trkpt lat="45.80744" lon="11.75659"><ele>246.28</ele><time>2022-02-05T13:57:37Z</time></trkpt>
<trkpt lat="45.806806" lon="11.756436"><ele>248.48</ele><time>2022-02-05T13:57:38Z</time></trkpt>
<trkpt lat="45.80645" lon="11.756275"><ele>254.26</ele><time>2022-02-05T13:57:39Z</time></trkpt>
<trkpt lat="45.805963" lon="11.755938"><ele>263.05</ele><time>2022-02-05T13:57:40Z</time></trkpt>
<trkpt lat="45.805648" lon="11.755691"><ele>265.39</ele><time>2022-02-05T13:57:42Z</time></trkpt>
<trkpt lat="45.805357" lon="11.755399"><ele>271.79</ele><time>2022-02-05T13:57:43Z</time></trkpt>
<trkpt lat="45.80494" lon="11.754891"><ele>275.44</ele><time>2022-02-05T13:57:44Z</time></trkpt>
<trkpt lat="45.804533" lon="11.754359"><ele>283.6</ele><time>2022-02-05T13:57:46Z</time></trkpt>
<trkpt lat="45.803575" lon="11.752899"><ele>283.96</ele><time>2022-02-05T13:57:47Z</time></trkpt>
<trkpt lat="45.80317" lon="11.751962"><ele>303.42</ele><time>2022-02-05T13:57:48Z</time></trkpt>
<trkpt lat="45.802947" lon="11.751258"><ele>312.44</ele><time>2022-02-05T13:57:49Z</time></trkpt>
<trkpt lat="45.80276" lon="11.75056"><ele>314.04</ele><time>2022-02-05T13:57:51Z</time></trkpt>
<trkpt lat="45.802581" lon="11.750012"><ele>321.45</ele><time>2022-02-05T13:57:52Z</time></trkpt>
<trkpt lat="45.802456" lon="11.749766"><ele>325.66</ele><time>2022-02-05T13:57:53Z</time></trkpt>
<trkpt lat="45.802191" lon="11.749558"><ele>326.92</ele><time>2022-02-05T13:57:54Z</time></trkpt>
<trkpt lat="45.801912" lon="11.749377"><ele>327.13</ele><time>2022-02-05T13:57:56Z</time></trkpt>
<trkpt lat="45.801694" lon="11.749177"><ele>325.16</ele><time>2022-02-05T13:57:57Z</time></trkpt>
<trkpt lat="45.801434" lon="11.748853"><ele>326.7</ele><time>2022-02-05T13:57:58Z</time></trkpt>
<trkpt lat="45.801033" lon="11.74802"><ele>341.47</ele><time>2022-02-05T13:58:00Z</time></trkpt>
<trkpt lat="45.800537" lon="11.747176"><ele>342.83</ele><time>2022-02-05T13:58:01Z</time></trkpt>
<trkpt lat="45.800522" lon="11.747117"><ele>344.2</ele><time>2022-02-05T13:58:02Z</time></trkpt>
<trkpt lat="45.80052" lon="11.747053"><ele>346.21</ele><time>2022-02-05T13:58:03Z</time></trkpt>
<trkpt lat="45.800553" lon="11.746996"><ele>349.25</ele><time>2022-02-05T13:58:05Z</time></trkpt>
<trkpt lat="45.800638" lon="11.746975"><ele>353.02</ele><time>2022-02-05T13:58:06Z</time></trkpt>
<trkpt lat="45.80068" lon="11.747013"><ele>353.48</ele><time>2022-02-05T13:58:07Z</time></trkpt>
<trkpt lat="45.800832" lon="11.747357"><ele>351.54</ele><time>2022-02-05T13:58:09Z</time></trkpt>
<trkpt lat="45.801163" lon="11.747712"><ele>358.66</ele><time>2022-02-05T13:58:10Z</time></trkpt>
<trkpt lat="45.801514" lon="11.748189"><ele>360.53</ele><time>2022-02-05T13:58:11Z</time></trkpt>
<trkpt lat="45.801768" lon="11.748461"><ele>364.77</ele><time>2022-02-05T13:58:12Z</time></trkpt>
<trkpt lat="45.80199" lon="11.74866"><ele>369.39</ele><time>2022-02-05T13:58:14Z</time></trkpt>
<trkpt lat="45.802306" lon="11.748751"><ele>372.07</ele><time>2022-02-05T13:58:15Z</time></trkpt>
<trkpt lat="45.802779" lon="11.748755"><ele>383.75</ele><time>2022-02-05T13:58:16Z</time></trkpt>
<trkpt lat="45.803055" lon="11.7489"><ele>390.43</ele><time>2022-02-05T13:58:17Z</time></trkpt>
<trkpt lat="45.803304" lon="11.74925"><ele>386.16</ele><time>2022-02-05T13:58:19Z</time></trkpt>
<trkpt lat="45.803592" lon="11.749748"><ele>385.19</ele><time>2022-02-05T13:58:20Z</time></trkpt>
<trkpt lat="45.804282" lon="11.751217"><ele>397.64</ele><time>2022-02-05T13:58:21Z</time></trkpt>
<trkpt lat="45.804428" lon="11.751487"><ele>400.58</ele><time>2022-02-05T13:58:23Z</time></trkpt>
<trkpt lat="45.804637" lon="11.751703"><ele>401.15</ele><time>2022-02-05T13:58:24Z</time></trkpt>
<trkpt lat="45.805233" lon="11.752161"><ele>404.32</ele><time>2022-02-05T13:58:25Z</time></trkpt>
<trkpt lat="45.806196" lon="11.753003"><ele>412.6</ele><time>2022-02-05T13:58:26Z</time></trkpt>
<trkpt lat="45.806489" lon="11.753234"><ele>408.05</ele><time>2022-02-05T13:58:28Z</time></trkpt>
<trkpt lat="45.806776" lon="11.753346"><ele>410.31</ele><time>2022-02-05T13:58:29Z</time></trkpt>
<trkpt lat="45.807105" lon="11.75338"><ele>422.55</ele><time>2022-02-05T13:58:30Z</time></trkpt>
<trkpt lat="45.807446" lon="11.753255"><ele>437.2</ele><time>2022-02-05T13:58:32Z</time></trkpt>
<trkpt lat="45.808164" lon="11.753102"><ele>434.11</ele><time>2022-02-05T13:58:33Z</time></trkpt>
<trkpt lat="45.80934" lon="11.752692"><ele>441.73</ele><time>2022-02-05T13:58:34Z</time></trkpt>
<trkpt lat="45.809527" lon="11.752606"><ele>441.43</ele><time>2022-02-05T13:58:35Z</time></trkpt>
<trkpt lat="45.809666" lon="11.75249"><ele>446.62</ele><time>2022-02-05T13:58:37Z</time></trkpt>
<trkpt lat="45.809971" lon="11.752086"><ele>471.25</ele><time>2022-02-05T13:58:38Z</time></trkpt>
<trkpt lat="45.810127" lon="11.751998"><ele>470.88</ele><time>2022-02-05T13:58:39Z</time></trkpt>
<trkpt lat="45.810558" lon="11.75193"><ele>448.92</ele><time>2022-02-05T13:58:40Z</time></trkpt>
<trkpt lat="45.810701" lon="11.751881"><ele>448.37</ele><time>2022-02-05T13:58:42Z</time></trkpt>
<trkpt lat="45.810724" lon="11.75184"><ele>449.9</ele><time>2022-02-05T13:58:43Z</time></trkpt>
<trkpt lat="45.810728" lon="11.751791"><ele>452.36</ele><time>2022-02-05T13:58:44Z</time></trkpt>
<trkpt lat="45.810709" lon="11.751724"><ele>456.66</ele><time>2022-02-05T13:58:46Z</time></trkpt>
<trkpt lat="45.810679" lon="11.751705"><ele>459.0</ele><time>2022-02-05T13:58:47Z</time></trkpt>
<trkpt lat="45.810637" lon="11.75169"><ele>461.76</ele><time>2022-02-05T13:58:48Z</time></trkpt>
<trkpt lat="45.810575" lon="11.751701"><ele>463.77</ele><time>2022-02-05T13:58:49Z</time></trkpt>
<trkpt lat="45.810361" lon="11.751798"><ele>470.16</ele><time>2022-02-05T13:58:51Z</time></trkpt>
<trkpt lat="45.809983" lon="11.75187"><ele>482.23</ele><time>2022-02-05T13:58:52Z</time></trkpt>
<trkpt lat="45.80969" lon="11.752076"><ele>475.9</ele><time>2022-02-05T13:58:53Z</time></trkpt>
<trkpt lat="45.809393" lon="11.752227"><ele>471.17</ele><time>2022-02-05T13:58:55Z</time></trkpt>
<trkpt lat="45.808575" lon="11.752377"><ele>475.18</ele><time>2022-02-05T13:58:56Z</time></trkpt>
<trkpt lat="45.807859" lon="11.752347"><ele>477.48</ele><time>2022-02-05T13:58:57Z</time></trkpt>
<trkpt lat="45.807303" lon="11.752258"><ele>473.49</ele><time>2022-02-05T13:58:58Z</time></trkpt>
<trkpt lat="45.807003" lon="11.752057"><ele>481.07</ele><time>2022-02-05T13:59:00Z</time></trkpt>
<trkpt lat="45.806701" lon="11.751751"><ele>492.53</ele><time>2022-02-05T13:59:01Z</time></trkpt>
<trkpt lat="45.806382" lon="11.751145"><ele>503.82</ele><time>2022-02-05T13:59:02Z</time></trkpt>
<trkpt lat="45.806077" lon="11.750617"><ele>505.36</ele><time>2022-02-05T13:59:03Z</time></trkpt>
<trkpt lat="45.805741" lon="11.750347"><ele>504.69</ele><time>2022-02-05T13:59:05Z</time></trkpt>
<trkpt lat="45.805489" lon="11.750065"><ele>500.91</ele><time>2022-02-05T13:59:06Z</time></trkpt>
<trkpt lat="45.805435" lon="11.749933"><ele>501.59</ele><time>2022-02-05T13:59:07Z</time></trkpt>
<trkpt lat="45.805205" lon="11.749015"><ele>513.79</ele><time>2022-02-05T13:59:09Z</time></trkpt>
<trkpt lat="45.804845" lon="11.747786"><ele>529.67</ele><time>2022-02-05T13:59:10Z</time></trkpt>
<trkpt lat="45.804649" lon="11.74734"><ele>532.58</ele><time>2022-02-05T13:59:11Z</time></trkpt>
<trkpt lat="45.8043" lon="11.746771"><ele>529.09</ele><time>2022-02-05T13:59:12Z</time></trkpt>
<trkpt lat="45.803917" lon="11.746201"><ele>526.9</ele><time>2022-02-05T13:59:14Z</time></trkpt>
<trkpt lat="45.803831" lon="11.745937"><ele>530.03</ele><time>2022-02-05T13:59:15Z</time></trkpt>
<trkpt lat="45.803775" lon="11.745681"><ele>533.18</ele><time>2022-02-05T13:59:16Z</time></trkpt>
<trkpt lat="45.803836" lon="11.745289"><ele>543.01</ele><time>2022-02-05T13:59:18Z</time></trkpt>
<trkpt lat="45.803949" lon="11.744947"><ele>551.38</ele><time>2022-02-05T13:59:19Z</time></trkpt>
<trkpt lat="45.803965" lon="11.744714"><ele>554.43</ele><time>2022-02-05T13:59:20Z</time></trkpt>
<trkpt lat="45.803935" lon="11.744504"><ele>555.4</ele><time>2022-02-05T13:59:21Z</time></trkpt>
<trkpt lat="45.803875" lon="11.744435"><ele>554.92</ele><time>2022-02-05T13:59:23Z</time></trkpt>
<trkpt lat="45.803789" lon="11.744395"><ele>554.47</ele><time>2022-02-05T13:59:24Z</time></trkpt>
<trkpt lat="45.803683" lon="11.744437"><ele>552.89</ele><time>2022-02-05T13:59:25Z</time></trkpt>
<trkpt lat="45.803564" lon="11.744555"><ele>550.51</ele><time>2022-02-05T13:59:26Z</time></trkpt>
<trkpt lat="45.803447" lon="11.744565"><ele>549.6</ele><time>2022-02-05T13:59:28Z</time></trkpt>
<trkpt lat="45.803298" lon="11.744463"><ele>550.04</ele><time>2022-02-05T13:59:29Z</time></trkpt>
<trkpt lat="45.802965" lon="11.74416"><ele>547.58</ele><time>2022-02-05T13:59:30Z</time></trkpt>
<trkpt lat="45.802823" lon="11.744089"><ele>545.72</ele><time>2022-02-05T13:59:32Z</time></trkpt>
<trkpt lat="45.802739" lon="11.743953"><ele>547.72</ele><time>2022-02-05T13:59:33Z</time></trkpt>
<trkpt lat="45.802736" lon="11.743897"><ele>549.54</ele><time>2022-02-05T13:59:34Z</time></trkpt>
<trkpt lat="45.802772" lon="11.743807"><ele>553.51</ele><time>2022-02-05T13:59:35Z</time></trkpt>
<trkpt lat="45.802827" lon="11.743778"><ele>555.65</ele><time>2022-02-05T13:59:37Z</time></trkpt>
<trkpt lat="45.803003" lon="11.743812"><ele>558.36</ele><time>2022-02-05T13:59:38Z</time></trkpt>
<trkpt lat="45.8032" lon="11.743952"><ele>556.69</ele><time>2022-02-05T13:59:39Z</time></trkpt>
<trkpt lat="45.803319" lon="11.74401"><ele>556.67</ele><time>2022-02-05T13:59:41Z</time></trkpt>
<trkpt lat="45.803434" lon="11.744026"><ele>557.8</ele><time>2022-02-05T13:59:42Z</time></trkpt>
<trkpt lat="45.804031" lon="11.743731"><ele>567.76</ele><time>2022-02-05T13:59:43Z</time></trkpt>
<trkpt lat="45.804328" lon="11.743656"><ele>573.74</ele><time>2022-02-05T13:59:44Z</time></trkpt>
<trkpt lat="45.804406" lon="11.74372"><ele>574.78</ele><time>2022-02-05T13:59:46Z</time></trkpt>
<trkpt lat="45.804463" lon="11.743908"><ele>574.62</ele><time>2022-02-05T13:59:47Z</time></trkpt>
<trkpt lat="45.804481" lon="11.744367"><ele>573.06</ele><time>2022-02-05T13:59:48Z</time></trkpt>
<trkpt lat="45.804565" lon="11.744708"><ele>576.25</ele><time>2022-02-05T13:59:50Z</time></trkpt>
<trkpt lat="45.804689" lon="11.745015"><ele>579.57</ele><time>2022-02-05T13:59:51Z</time></trkpt>
<trkpt lat="45.804851" lon="11.745332"><ele>582.8</ele><time>2022-02-05T13:59:52Z</time></trkpt>
<trkpt lat="45.804981" lon="11.745707"><ele>587.37</ele><time>2022-02-05T13:59:53Z</time></trkpt>
<trkpt lat="45.805068" lon="11.746076"><ele>587.09</ele><time>2022-02-05T13:59:55Z</time></trkpt>
<trkpt lat="45.805219" lon="11.746566"><ele>586.43</ele><time>2022-02-05T13:59:56Z</time></trkpt>
<trkpt lat="45.805417" lon="11.74696"><ele>590.0</ele><time>2022-02-05T13:59:57Z</time></trkpt>
<trkpt lat="45.80558" lon="11.747408"><ele>584.26</ele><time>2022-02-05T13:59:58Z</time></trkpt>
<trkpt lat="45.805771" lon="11.747795"><ele>588.36</ele><time>2022-02-05T14:00:00Z</time></trkpt>
<trkpt lat="45.806271" lon="11.748386"><ele>592.52</ele><time>2022-02-05T14:00:01Z</time></trkpt>
<trkpt lat="45.806332" lon="11.748407"><ele>594.07</ele><time>2022-02-05T14:00:02Z</time></trkpt>
<trkpt lat="45.806395" lon="11.748394"><ele>596.21</ele><time>2022-02-05T14:00:04Z</time></trkpt>
<trkpt lat="45.806455" lon="11.748317"><ele>598.3</ele><time>2022-02-05T14:00:05Z</time></trkpt>
<trkpt lat="45.806468" lon="11.748241"><ele>600.14</ele><time>2022-02-05T14:00:06Z</time></trkpt>
<trkpt lat="45.806456" lon="11.748165"><ele>601.61</ele><time>2022-02-05T14:00:07Z</time></trkpt>
<trkpt lat="45.806339" lon="11.747998"><ele>602.86</ele><time>2022-02-05T14:00:09Z</time></trkpt>
<trkpt lat="45.806176" lon="11.747865"><ele>602.11</ele><time>2022-02-05T14:00:10Z</time></trkpt>
<trkpt lat="45.806012" lon="11.747606"><ele>603.26</ele><time>2022-02-05T14:00:11Z</time></trkpt>
<trkpt lat="45.805901" lon="11.747288"><ele>606.42</ele><time>2022-02-05T14:00:13Z</time></trkpt>
<trkpt lat="45.805785" lon="11.746875"><ele>611.01</ele><time>2022-02-05T14:00:14Z</time></trkpt>
<trkpt lat="45.805742" lon="11.74639"><ele>614.72</ele><time>2022-02-05T14:00:15Z</time></trkpt>
<trkpt lat="45.805753" lon="11.745898"><ele>616.54</ele><time>2022-02-05T14:00:16Z</time></trkpt>
<trkpt lat="45.805825" lon="11.745527"><ele>620.85</ele><time>2022-02-05T14:00:18Z</time></trkpt>
<trkpt lat="45.805844" lon="11.745338"><ele>622.13</ele><time>2022-02-05T14:00:19Z</time></trkpt>
<trkpt lat="45.805838" lon="11.745145"><ele>623.57</ele><time>2022-02-05T14:00:20Z</time></trkpt>
<trkpt lat="45.805732" lon="11.74472"><ele>624.41</ele><time>2022-02-05T14:00:21Z</time></trkpt>
<trkpt lat="45.805694" lon="11.744352"><ele>627.81</ele><time>2022-02-05T14:00:23Z</time></trkpt>
<trkpt lat="45.80571" lon="11.743995"><ele>630.57</ele><time>2022-02-05T14:00:24Z</time></trkpt>
<trkpt lat="45.80575" lon="11.743725"><ele>631.4</ele><time>2022-02-05T14:00:25Z</time></trkpt>
<trkpt lat="45.806037" lon="11.742801"><ele>638.81</ele><time>2022-02-05T14:00:27Z</time></trkpt>
<trkpt lat="45.806105" lon="11.742368"><ele>640.82</ele><time>2022-02-05T14:00:28Z</time></trkpt>
<trkpt lat="45.806152" lon="11.742317"><ele>643.08</ele><time>2022-02-05T14:00:29Z</time></trkpt>
<trkpt lat="45.806245" lon="11.742368"><ele>648.03</ele><time>2022-02-05T14:00:30Z</time></trkpt>
<trkpt lat="45.80627" lon="11.742421"><ele>649.69</ele><time>2022-02-05T14:00:32Z</time></trkpt>
<trkpt lat="45.806278" lon="11.742486"><ele>650.53</ele><time>2022-02-05T14:00:33Z</time></trkpt>
<trkpt lat="45.806158" lon="11.74306"><ele>644.54</ele><time>2022-02-05T14:00:34Z</time></trkpt>
<trkpt lat="45.806155" lon="11.743461"><ele>645.53</ele><time>2022-02-05T14:00:36Z</time></trkpt>
<trkpt lat="45.806239" lon="11.743776"><ele>649.31</ele><time>2022-02-05T14:00:37Z</time></trkpt>
<trkpt lat="45.806348" lon="11.744063"><ele>652.13</ele><time>2022-02-05T14:00:38Z</time></trkpt>
<trkpt lat="45.806513" lon="11.744342"><ele>654.51</ele><time>2022-02-05T14:00:39Z</time></trkpt>
<trkpt lat="45.806675" lon="11.744571"><ele>656.25</ele><time>2022-02-05T14:00:41Z</time></trkpt>
<trkpt lat="45.806795" lon="11.744678"><ele>655.94</ele><time>2022-02-05T14:00:42Z</time></trkpt>
<trkpt lat="45.806986" lon="11.744775"><ele>657.1</ele><time>2022-02-05T14:00:43Z</time></trkpt>
<trkpt lat="45.807228" lon="11.74481"><ele>659.78</ele><time>2022-02-05T14:00:44Z</time></trkpt>
<trkpt lat="45.807412" lon="11.744743"><ele>663.24</ele><time>2022-02-05T14:00:46Z</time></trkpt>
<trkpt lat="45.807634" lon="11.744582"><ele>667.51</ele><time>2022-02-05T14:00:47Z</time></trkpt>
<trkpt lat="45.807785" lon="11.744429"><ele>671.1</ele><time>2022-02-05T14:00:48Z</time></trkpt>
<trkpt lat="45.808278" lon="11.74381"><ele>678.07</ele><time>2022-02-05T14:00:50Z</time></trkpt>
<trkpt lat="45.808473" lon="11.743594"><ele>682.55</ele><time>2022-02-05T14:00:51Z</time></trkpt>
<trkpt lat="45.808679" lon="11.743436"><ele>685.74</ele><time>2022-02-05T14:00:52Z</time></trkpt>
<trkpt lat="45.809018" lon="11.743285"><ele>690.74</ele><time>2022-02-05T14:00:53Z</time></trkpt>
<trkpt lat="45.809355" lon="11.743218"><ele>695.96</ele><time>2022-02-05T14:00:55Z</time></trkpt>
<trkpt lat="45.809493" lon="11.743225"><ele>697.62</ele><time>2022-02-05T14:00:56Z</time></trkpt>
<trkpt lat="45.809593" lon="11.743334"><ele>698.2</ele><time>2022-02-05T14:00:57Z</time></trkpt>
<trkpt lat="45.809642" lon="11.74351"><ele>697.37</ele><time>2022-02-05T14:00:59Z</time></trkpt>
<trkpt lat="45.809683" lon="11.743923"><ele>693.73</ele><time>2022-02-05T14:01:00Z</time></trkpt>
<trkpt lat="45.809801" lon="11.744145"><ele>695.51</ele><time>2022-02-05T14:01:01Z</time></trkpt>
<trkpt lat="45.810008" lon="11.744397"><ele>699.57</ele><time>2022-02-05T14:01:02Z</time></trkpt>
<trkpt lat="45.810107" lon="11.744554"><ele>700.76</ele><time>2022-02-05T14:01:04Z</time></trkpt>
<trkpt lat="45.810132" lon="11.744772"><ele>699.84</ele><time>2022-02-05T14:01:05Z</time></trkpt>
<trkpt lat="45.810104" lon="11.744996"><ele>699.24</ele><time>2022-02-05T14:01:06Z</time></trkpt>
<trkpt lat="45.81009" lon="11.745319"><ele>700.61</ele><time>2022-02-05T14:01:07Z</time></trkpt>
<trkpt lat="45.81015" lon="11.745554"><ele>701.69</ele><time>2022-02-05T14:01:09Z</time></trkpt>
<trkpt lat="45.810299" lon="11.745821"><ele>701.58</ele><time>2022-02-05T14:01:10Z</time></trkpt>
<trkpt lat="45.810484" lon="11.745929"><ele>703.66</ele><time>2022-02-05T14:01:11Z</time></trkpt>
<trkpt lat="45.81068" lon="11.745932"><ele>706.34</ele><time>2022-02-05T14:01:13Z</time></trkpt>
<trkpt lat="45.811428" lon="11.745833"><ele>716.15</ele><time>2022-02-05T14:01:14Z</time></trkpt>
<trkpt lat="45.812043" lon="11.745813"><ele>724.13</ele><time>2022-02-05T14:01:15Z</time></trkpt>
<trkpt lat="45.812622" lon="11.745884"><ele>728.12</ele><time>2022-02-05T14:01:16Z</time></trkpt>
<trkpt lat="45.812828" lon="11.745929"><ele>729.18</ele><time>2022-02-05T14:01:18Z</time></trkpt>
<trkpt lat="45.813047" lon="11.74589"><ele>732.28</ele><time>2022-02-05T14:01:19Z</time></trkpt>
<trkpt lat="45.81333" lon="11.745724"><ele>737.55</ele><time>2022-02-05T14:01:20Z</time></trkpt>
<trkpt lat="45.813516" lon="11.745717"><ele>735.42</ele><time>2022-02-05T14:01:22Z</time></trkpt>
<trkpt lat="45.813712" lon="11.745757"><ele>731.97</ele><time>2022-02-05T14:01:23Z</time></trkpt>
<trkpt lat="45.814149" lon="11.74594"><ele>720.67</ele><time>2022-02-05T14:01:24Z</time></trkpt>
<trkpt lat="45.814193" lon="11.745938"><ele>720.03</ele><time>2022-02-05T14:01:25Z</time></trkpt>
<trkpt lat="45.814243" lon="11.745888"><ele>720.96</ele><time>2022-02-05T14:01:27Z</time></trkpt>
<trkpt lat="45.814259" lon="11.745788"><ele>725.13</ele><time>2022-02-05T14:01:28Z</time></trkpt>
<trkpt lat="45.814231" lon="11.745734"><ele>727.93</ele><time>2022-02-05T14:01:29Z</time></trkpt>
<trkpt lat="45.814173" lon="11.745699"><ele>730.23</ele><time>2022-02-05T14:01:30Z</time></trkpt>
<trkpt lat="45.814033" lon="11.745712"><ele>731.11</ele><time>2022-02-05T14:01:32Z</time></trkpt>
<trkpt lat="45.813881" lon="11.745697"><ele>733.43</ele><time>2022-02-05T14:01:33Z</time></trkpt>
<trkpt lat="45.813647" lon="11.745589"><ele>738.74</ele><time>2022-02-05T14:01:34Z</time></trkpt>
<trkpt lat="45.813059" lon="11.745424"><ele>746.31</ele><time>2022-02-05T14:01:36Z</time></trkpt>
<trkpt lat="45.812064" lon="11.744757"><ele>755.17</ele><time>2022-02-05T14:01:37Z</time></trkpt>
<trkpt lat="45.81192" lon="11.744614"><ele>755.72</ele><time>2022-02-05T14:01:38Z</time></trkpt>
<trkpt lat="45.811791" lon="11.74442"><ele>755.67</ele><time>2022-02-05T14:01:39Z</time></trkpt>
<trkpt lat="45.811739" lon="11.744234"><ele>757.72</ele><time>2022-02-05T14:01:41Z</time></trkpt>
<trkpt lat="45.81171" lon="11.744001"><ele>761.34</ele><time>2022-02-05T14:01:42Z</time></trkpt>
<trkpt lat="45.811713" lon="11.743665"><ele>765.82</ele><time>2022-02-05T14:01:43Z</time></trkpt>
<trkpt lat="45.811765" lon="11.743387"><ele>768.08</ele><time>2022-02-05T14:01:45Z</time></trkpt>
<trkpt lat="45.811845" lon="11.743128"><ele>770.39</ele><time>2022-02-05T14:01:46Z</time></trkpt>
<trkpt lat="45.811852" lon="11.742891"><ele>771.46</ele><time>2022-02-05T14:01:47Z</time></trkpt>
<trkpt lat="45.811755" lon="11.742554"><ele>771.76</ele><time>2022-02-05T14:01:48Z</time></trkpt>
<trkpt lat="45.811638" lon="11.742301"><ele>771.66</ele><time>2022-02-05T14:01:50Z</time></trkpt>
<trkpt lat="45.811492" lon="11.741878"><ele>770.21</ele><time>2022-02-05T14:01:51Z</time></trkpt>
<trkpt lat="45.811463" lon="11.741644"><ele>770.24</ele><time>2022-02-05T14:01:52Z</time></trkpt>
<trkpt lat="45.811505" lon="11.741364"><ele>773.0</ele><time>2022-02-05T14:01:53Z</time></trkpt>
<trkpt lat="45.811662" lon="11.74096"><ele>781.51</ele><time>2022-02-05T14:01:55Z</time></trkpt>
<trkpt lat="45.81183" lon="11.740718"><ele>788.05</ele><time>2022-02-05T14:01:56Z</time></trkpt>
<trkpt lat="45.812002" lon="11.740538"><ele>791.53</ele><time>2022-02-05T14:01:57Z</time></trkpt>
<trkpt lat="45.812194" lon="11.740446"><ele>793.23</ele><time>2022-02-05T14:01:59Z</time></trkpt>
<trkpt lat="45.812378" lon="11.74046"><ele>794.66</ele><time>2022-02-05T14:02:00Z</time></trkpt>
<trkpt lat="45.812545" lon="11.740552"><ele>794.87</ele><time>2022-02-05T14:02:01Z</time></trkpt>
<trkpt lat="45.812748" lon="11.740736"><ele>792.88</ele><time>2022-02-05T14:02:02Z</time></trkpt>
<trkpt lat="45.813233" lon="11.741093"><ele>785.35</ele><time>2022-02-05T14:02:04Z</time></trkpt>
<trkpt lat="45.813484" lon="11.741198"><ele>785.58</ele><time>2022-02-05T14:02:05Z</time></trkpt>
<trkpt lat="45.813908" lon="11.741226"><ele>786.89</ele><time>2022-02-05T14:02:06Z</time></trkpt>
<trkpt lat="45.814099" lon="11.741169"><ele>786.27</ele><time>2022-02-05T14:02:08Z</time></trkpt>
<trkpt lat="45.814273" lon="11.741088"><ele>785.76</ele><time>2022-02-05T14:02:09Z</time></trkpt>
<trkpt lat="45.81444" lon="11.740945"><ele>788.03</ele><time>2022-02-05T14:02:10Z</time></trkpt>
<trkpt lat="45.814611" lon="11.740675"><ele>790.64</ele><time>2022-02-05T14:02:11Z</time></trkpt>
<trkpt lat="45.814945" lon="11.740076"><ele>787.21</ele><time>2022-02-05T14:02:13Z</time></trkpt>
<trkpt lat="45.81514" lon="11.739847"><ele>789.03</ele><time>2022-02-05T14:02:14Z</time></trkpt>
<trkpt lat="45.815286" lon="11.739802"><ele>790.11</ele><time>2022-02-05T14:02:15Z</time></trkpt>
<trkpt lat="45.815416" lon="11.739794"><ele>792.32</ele><time>2022-02-05T14:02:16Z</time></trkpt>
<trkpt lat="45.815551" lon="11.739851"><ele>793.99</ele><time>2022-02-05T14:02:18Z</time></trkpt>
<trkpt lat="45.815661" lon="11.740011"><ele>795.98</ele><time>2022-02-05T14:02:19Z</time></trkpt>
<trkpt lat="45.815725" lon="11.740325"><ele>797.36</ele><time>2022-02-05T14:02:20Z</time></trkpt>
<trkpt lat="45.815768" lon="11.740692"><ele>800.93</ele><time>2022-02-05T14:02:22Z</time></trkpt>
<trkpt lat="45.815773" lon="11.74095"><ele>802.6</ele><time>2022-02-05T14:02:23Z</time></trkpt>
<trkpt lat="45.815747" lon="11.74127"><ele>800.93</ele><time>2022-02-05T14:02:24Z</time></trkpt>
<trkpt lat="45.815803" lon="11.741546"><ele>801.85</ele><time>2022-02-05T14:02:25Z</time></trkpt>
<trkpt lat="45.815987" lon="11.741951"><ele>800.27</ele><time>2022-02-05T14:02:27Z</time></trkpt>
<trkpt lat="45.816145" lon="11.742066"><ele>801.47</ele><time>2022-02-05T14:02:28Z</time></trkpt>
<trkpt lat="45.816709" lon="11.742112"><ele>805.77</ele><time>2022-02-05T14:02:29Z</time></trkpt>
<trkpt lat="45.816857" lon="11.742085"><ele>808.63</ele><time>2022-02-05T14:02:31Z</time></trkpt>
<trkpt lat="45.816991" lon="11.741971"><ele>813.59</ele><time>2022-02-05T14:02:32Z</time></trkpt>
<trkpt lat="45.817257" lon="11.74136"><ele>823.91</ele><time>2022-02-05T14:02:33Z</time></trkpt>
<trkpt lat="45.817377" lon="11.741249"><ele>824.52</ele><time>2022-02-05T14:02:34Z</time></trkpt>
<trkpt lat="45.817498" lon="11.741194"><ele>824.34</ele><time>2022-02-05T14:02:36Z</time></trkpt>
<trkpt lat="45.817661" lon="11.741223"><ele>824.3</ele><time>2022-02-05T14:02:37Z</time></trkpt>
<trkpt lat="45.81781" lon="11.741297"><ele>823.97</ele><time>2022-02-05T14:02:38Z</time></trkpt>
<trkpt lat="45.817948" lon="11.741437"><ele>822.97</ele><time>2022-02-05T14:02:39Z</time></trkpt>
<trkpt lat="45.818182" lon="11.741741"><ele>819.45</ele><time>2022-02-05T14:02:41Z</time></trkpt>
<trkpt lat="45.818305" lon="11.741744"><ele>820.16</ele><time>2022-02-05T14:02:42Z</time></trkpt>
<trkpt lat="45.818475" lon="11.741555"><ele>823.3</ele><time>2022-02-05T14:02:43Z</time></trkpt>
<trkpt lat="45.81876" lon="11.741143"><ele>828.93</ele><time>2022-02-05T14:02:45Z</time></trkpt>
<trkpt lat="45.818902" lon="11.740986"><ele>829.84</ele><time>2022-02-05T14:02:46Z</time></trkpt>
<trkpt lat="45.819054" lon="11.740915"><ele>829.4</ele><time>2022-02-05T14:02:47Z</time></trkpt>
<trkpt lat="45.81913" lon="11.74091"><ele>828.95</ele><time>2022-02-05T14:02:48Z</time></trkpt>
<trkpt lat="45.819468" lon="11.740983"><ele>832.37</ele><time>2022-02-05T14:02:50Z</time></trkpt>
<trkpt lat="45.819695" lon="11.741121"><ele>834.48</ele><time>2022-02-05T14:02:51Z</time></trkpt>
<trkpt lat="45.820024" lon="11.741678"><ele>835.99</ele><time>2022-02-05T14:02:52Z</time></trkpt>
<trkpt lat="45.820129" lon="11.741735"><ele>839.93</ele><time>2022-02-05T14:02:54Z</time></trkpt>
<trkpt lat="45.820343" lon="11.741786"><ele>847.63</ele><time>2022-02-05T14:02:55Z</time></trkpt>
<trkpt lat="45.820532" lon="11.741856"><ele>851.16</ele><time>2022-02-05T14:02:56Z</time></trkpt>
<trkpt lat="45.820885" lon="11.742084"><ele>848.19</ele><time>2022-02-05T14:02:57Z</time></trkpt>
<trkpt lat="45.821021" lon="11.742108"><ele>849.7</ele><time>2022-02-05T14:02:59Z</time></trkpt>
<trkpt lat="45.821278" lon="11.741999"><ele>864.28</ele><time>2022-02-05T14:03:00Z</time></trkpt>
<trkpt lat="45.821405" lon="11.741987"><ele>868.87</ele><time>2022-02-05T14:03:01Z</time></trkpt>
<trkpt lat="45.821496" lon="11.742036"><ele>868.63</ele><time>2022-02-05T14:03:02Z</time></trkpt>
<trkpt lat="45.82162" lon="11.74217"><ele>864.51</ele><time>2022-02-05T14:03:04Z</time></trkpt>
<trkpt lat="45.821752" lon="11.742245"><ele>863.31</ele><time>2022-02-05T14:03:05Z</time></trkpt>
<trkpt lat="45.82206" lon="11.742257"><ele>866.3</ele><time>2022-02-05T14:03:06Z</time></trkpt>
<trkpt lat="45.822222" lon="11.742291"><ele>864.55</ele><time>2022-02-05T14:03:08Z</time></trkpt>
<trkpt lat="45.822738" lon="11.742653"><ele>850.47</ele><time>2022-02-05T14:03:09Z</time></trkpt>
<trkpt lat="45.823092" lon="11.742702"><ele>852.88</ele><time>2022-02-05T14:03:10Z</time></trkpt>
<trkpt lat="45.823263" lon="11.742669"><ele>855.6</ele><time>2022-02-05T14:03:11Z</time></trkpt>
<trkpt lat="45.823398" lon="11.742589"><ele>858.28</ele><time>2022-02-05T14:03:13Z</time></trkpt>
<trkpt lat="45.823532" lon="11.742393"><ele>861.06</ele><time>2022-02-05T14:03:14Z</time></trkpt>
<trkpt lat="45.823641" lon="11.74209"><ele>861.95</ele><time>2022-02-05T14:03:15Z</time></trkpt>
<trkpt lat="45.82392" lon="11.741588"><ele>858.04</ele><time>2022-02-05T14:03:17Z</time></trkpt>
<trkpt lat="45.823994" lon="11.7413"><ele>854.86</ele><time>2022-02-05T14:03:18Z</time></trkpt>
<trkpt lat="45.824034" lon="11.74068"><ele>855.56</ele><time>2022-02-05T14:03:19Z</time></trkpt>
<trkpt lat="45.824194" lon="11.73968"><ele>856.36</ele><time>2022-02-05T14:03:20Z</time></trkpt>
<trkpt lat="45.824222" lon="11.7393"><ele>857.44</ele><time>2022-02-05T14:03:22Z</time></trkpt>
<trkpt lat="45.824281" lon="11.738924"><ele>857.94</ele><time>2022-02-05T14:03:23Z</time></trkpt>
<trkpt lat="45.82439" lon="11.738455"><ele>854.11</ele><time>2022-02-05T14:03:24Z</time></trkpt>
<trkpt lat="45.824383" lon="11.738305"><ele>852.78</ele><time>2022-02-05T14:03:25Z</time></trkpt>
<trkpt lat="45.824342" lon="11.738186"><ele>852.39</ele><time>2022-02-05T14:03:27Z</time></trkpt>
<trkpt lat="45.824128" lon="11.73784"><ele>854.81</ele><time>2022-02-05T14:03:28Z</time></trkpt>
<trkpt lat="45.823838" lon="11.737472"><ele>864.76</ele><time>2022-02-05T14:03:29Z</time></trkpt>
<trkpt lat="45.823802" lon="11.737397"><ele>864.54</ele><time>2022-02-05T14:03:31Z</time></trkpt>
<trkpt lat="45.823787" lon="11.737315"><ele>863.71</ele><time>2022-02-05T14:03:32Z</time></trkpt>
<trkpt lat="45.8238" lon="11.737226"><ele>862.33</ele><time>2022-02-05T14:03:33Z</time></trkpt>
<trkpt lat="45.823865" lon="11.737101"><ele>862.07</ele><time>2022-02-05T14:03:34Z</time></trkpt>
<trkpt lat="45.823909" lon="11.737059"><ele>861.85</ele><time>2022-02-05T14:03:36Z</time></trkpt>
<trkpt lat="45.824159" lon="11.736928"><ele>859.35</ele><time>2022-02-05T14:03:37Z</time></trkpt>
<trkpt lat="45.824286" lon="11.736911"><ele>859.06</ele><time>2022-02-05T14:03:38Z</time></trkpt>
<trkpt lat="45.82447" lon="11.737035"><ele>856.55</ele><time>2022-02-05T14:03:40Z</time></trkpt>
<trkpt lat="45.824981" lon="11.73745"><ele>857.42</ele><time>2022-02-05T14:03:41Z</time></trkpt>
<trkpt lat="45.825103" lon="11.737654"><ele>858.51</ele><time>2022-02-05T14:03:42Z</time></trkpt>
<trkpt lat="45.825192" lon="11.737942"><ele>858.8</ele><time>2022-02-05T14:03:43Z</time></trkpt>
<trkpt lat="45.825295" lon="11.738123"><ele>859.74</ele><time>2022-02-05T14:03:45Z</time></trkpt>
<trkpt lat="45.825579" lon="11.738329"><ele>864.81</ele><time>2022-02-05T14:03:46Z</time></trkpt>
<trkpt lat="45.825679" lon="11.738488"><ele>866.57</ele><time>2022-02-05T14:03:47Z</time></trkpt>
<trkpt lat="45.825787" lon="11.738795"><ele>869.24</ele><time>2022-02-05T14:03:48Z</time></trkpt>
<trkpt lat="45.826009" lon="11.739161"><ele>879.36</ele><time>2022-02-05T14:03:50Z</time></trkpt>
<trkpt lat="45.82609" lon="11.739346"><ele>881.0</ele><time>2022-02-05T14:03:51Z</time></trkpt>
<trkpt lat="45.826126" lon="11.739571"><ele>881.21</ele><time>2022-02-05T14:03:52Z</time></trkpt>
<trkpt lat="45.826143" lon="11.740131"><ele>883.49</ele><time>2022-02-05T14:03:54Z</time></trkpt>
<trkpt lat="45.826225" lon="11.74081"><ele>886.31</ele><time>2022-02-05T14:03:55Z</time></trkpt>
<trkpt lat="45.8263" lon="11.741221"><ele>889.16</ele><time>2022-02-05T14:03:56Z</time></trkpt>
<trkpt lat="45.826459" lon="11.741674"><ele>895.64</ele><time>2022-02-05T14:03:57Z</time></trkpt>
<trkpt lat="45.826616" lon="11.742059"><ele>898.01</ele><time>2022-02-05T14:03:59Z</time></trkpt>
<trkpt lat="45.826731" lon="11.742278"><ele>898.93</ele><time>2022-02-05T14:04:00Z</time></trkpt>
<trkpt lat="45.826857" lon="11.742436"><ele>899.4</ele><time>2022-02-05T14:04:01Z</time></trkpt>
<trkpt lat="45.82703" lon="11.742545"><ele>901.13</ele><time>2022-02-05T14:04:03Z</time></trkpt>
<trkpt lat="45.827267" lon="11.742633"><ele>902.6</ele><time>2022-02-05T14:04:04Z</time></trkpt>
<trkpt lat="45.827449" lon="11.742637"><ele>904.09</ele><time>2022-02-05T14:04:05Z</time></trkpt>
<trkpt lat="45.828179" lon="11.742463"><ele>920.18</ele><time>2022-02-05T14:04:06Z</time></trkpt>
<trkpt lat="45.828307" lon="11.742535"><ele>922.29</ele><time>2022-02-05T14:04:08Z</time></trkpt>
<trkpt lat="45.828392" lon="11.742678"><ele>925.24</ele><time>2022-02-05T14:04:09Z</time></trkpt>
<trkpt lat="45.828449" lon="11.742917"><ele>928.9</ele><time>2022-02-05T14:04:10Z</time></trkpt>
<trkpt lat="45.82847" lon="11.74325"><ele>930.56</ele><time>2022-02-05T14:04:11Z</time></trkpt>
<trkpt lat="45.828477" lon="11.74405"><ele>931.52</ele><time>2022-02-05T14:04:13Z</time></trkpt>
<trkpt lat="45.828511" lon="11.744298"><ele>932.83</ele><time>2022-02-05T14:04:14Z</time></trkpt>
<trkpt lat="45.828584" lon="11.74461"><ele>934.97</ele><time>2022-02-05T14:04:15Z</time></trkpt>
<trkpt lat="45.828699" lon="11.744872"><ele>935.24</ele><time>2022-02-05T14:04:17Z</time></trkpt>
<trkpt lat="45.828896" lon="11.745108"><ele>936.8</ele><time>2022-02-05T14:04:18Z</time></trkpt>
<trkpt lat="45.829043" lon="11.745206"><ele>936.91</ele><time>2022-02-05T14:04:19Z</time></trkpt>
<trkpt lat="45.829191" lon="11.74526"><ele>937.71</ele><time>2022-02-05T14:04:20Z</time></trkpt>
<trkpt lat="45.829658" lon="11.7453"><ele>939.66</ele><time>2022-02-05T14:04:22Z</time></trkpt>
<trkpt lat="45.8299" lon="11.745378"><ele>939.19</ele><time>2022-02-05T14:04:23Z</time></trkpt>
<trkpt lat="45.82995" lon="11.745373"><ele>939.45</ele><time>2022-02-05T14:04:24Z</time></trkpt>
<trkpt lat="45.829974" lon="11.745314"><ele>940.38</ele><time>2022-02-05T14:04:26Z</time></trkpt>
<trkpt lat="45.829979" lon="11.745241"><ele>941.61</ele><time>2022-02-05T14:04:27Z</time></trkpt>
<trkpt lat="45.829929" lon="11.745181"><ele>942.75</ele><time>2022-02-05T14:04:28Z</time></trkpt>
<trkpt lat="45.829671" lon="11.745147"><ele>943.59</ele><time>2022-02-05T14:04:29Z</time></trkpt>
<trkpt lat="45.829462" lon="11.745057"><ele>944.87</ele><time>2022-02-05T14:04:31Z</time></trkpt>
<trkpt lat="45.829204" lon="11.744886"><ele>947.7</ele><time>2022-02-05T14:04:32Z</time></trkpt>
<trkpt lat="45.829088" lon="11.744758"><ele>949.05</ele><time>2022-02-05T14:04:33Z</time></trkpt>
<trkpt lat="45.829018" lon="11.744588"><ele>951.14</ele><time>2022-02-05T14:04:34Z</time></trkpt>
<trkpt lat="45.828998" lon="11.744309"><ele>954.96</ele><time>2022-02-05T14:04:36Z</time></trkpt>
<trkpt lat="45.829022" lon="11.743814"><ele>956.93</ele><time>2022-02-05T14:04:37Z</time></trkpt>
<trkpt lat="45.829061" lon="11.743424"><ele>958.03</ele><time>2022-02-05T14:04:38Z</time></trkpt>
<trkpt lat="45.82914" lon="11.742983"><ele>959.91</ele><time>2022-02-05T14:04:40Z</time></trkpt>
<trkpt lat="45.829369" lon="11.742273"><ele>967.35</ele><time>2022-02-05T14:04:41Z</time></trkpt>
<trkpt lat="45.829522" lon="11.741694"><ele>970.21</ele><time>2022-02-05T14:04:42Z</time></trkpt>
<trkpt lat="45.829787" lon="11.741046"><ele>978.75</ele><time>2022-02-05T14:04:43Z</time></trkpt>
<trkpt lat="45.829792" lon="11.74094"><ele>980.49</ele><time>2022-02-05T14:04:45Z</time></trkpt>
<trkpt lat="45.829767" lon="11.740843"><ele>981.14</ele><time>2022-02-05T14:04:46Z</time></trkpt>
<trkpt lat="45.829703" lon="11.740766"><ele>980.97</ele><time>2022-02-05T14:04:47Z</time></trkpt>
<trkpt lat="45.829508" lon="11.74074"><ele>979.12</ele><time>2022-02-05T14:04:49Z</time></trkpt>
<trkpt lat="45.829296" lon="11.740753"><ele>976.96</ele><time>2022-02-05T14:04:50Z</time></trkpt>
<trkpt lat="45.82873" lon="11.740678"><ele>976.11</ele><time>2022-02-05T14:04:51Z</time></trkpt>
<trkpt lat="45.828491" lon="11.74062"><ele>978.15</ele><time>2022-02-05T14:04:52Z</time></trkpt>
<trkpt lat="45.828285" lon="11.74053"><ele>979.57</ele><time>2022-02-05T14:04:54Z</time></trkpt>
<trkpt lat="45.828177" lon="11.740406"><ele>978.85</ele><time>2022-02-05T14:04:55Z</time></trkpt>
<trkpt lat="45.828131" lon="11.740283"><ele>978.79</ele><time>2022-02-05T14:04:56Z</time></trkpt>
<trkpt lat="45.8281" lon="11.740129"><ele>978.03</ele><time>2022-02-05T14:04:58Z</time></trkpt>
<trkpt lat="45.828095" lon="11.739871"><ele>977.3</ele><time>2022-02-05T14:04:59Z</time></trkpt>
<trkpt lat="45.828164" lon="11.73968"><ele>978.9</ele><time>2022-02-05T14:05:00Z</time></trkpt>
<trkpt lat="45.828349" lon="11.739424"><ele>986.88</ele><time>2022-02-05T14:05:01Z</time></trkpt>
<trkpt lat="45.828387" lon="11.739236"><ele>990.93</ele><time>2022-02-05T14:05:03Z</time></trkpt>
<trkpt lat="45.828377" lon="11.739013"><ele>993.41</ele><time>2022-02-05T14:05:04Z</time></trkpt>
<trkpt lat="45.828332" lon="11.738801"><ele>993.88</ele><time>2022-02-05T14:05:05Z</time></trkpt>
<trkpt lat="45.828221" lon="11.73842"><ele>992.97</ele><time>2022-02-05T14:05:06Z</time></trkpt>
<trkpt lat="45.828157" lon="11.73811"><ele>995.1</ele><time>2022-02-05T14:05:08Z</time></trkpt>
<trkpt lat="45.828149" lon="11.737559"><ele>996.83</ele><time>2022-02-05T14:05:09Z</time></trkpt>
<trkpt lat="45.828189" lon="11.737272"><ele>995.36</ele><time>2022-02-05T14:05:10Z</time></trkpt>
<trkpt lat="45.828287" lon="11.736965"><ele>994.63</ele><time>2022-02-05T14:05:12Z</time></trkpt>
<trkpt lat="45.828387" lon="11.736813"><ele>994.8</ele><time>2022-02-05T14:05:13Z</time></trkpt>
<trkpt lat="45.828549" lon="11.7367"><ele>995.67</ele><time>2022-02-05T14:05:14Z</time></trkpt>
<trkpt lat="45.828792" lon="11.736664"><ele>999.14</ele><time>2022-02-05T14:05:15Z</time></trkpt>
<trkpt lat="45.829065" lon="11.736671"><ele>1001.81</ele><time>2022-02-05T14:05:17Z</time></trkpt>
<trkpt lat="45.829791" lon="11.736845"><ele>1002.84</ele><time>2022-02-05T14:05:18Z</time></trkpt>
<trkpt lat="45.830194" lon="11.7369"><ele>1000.52</ele><time>2022-02-05T14:05:19Z</time></trkpt>
<trkpt lat="45.830439" lon="11.736973"><ele>1004.38</ele><time>2022-02-05T14:05:21Z</time></trkpt>
<trkpt lat="45.830648" lon="11.736989"><ele>1007.98</ele><time>2022-02-05T14:05:22Z</time></trkpt>
<trkpt lat="45.830934" lon="11.736912"><ele>1009.25</ele><time>2022-02-05T14:05:23Z</time></trkpt>
<trkpt lat="45.831309" lon="11.736899"><ele>1014.39</ele><time>2022-02-05T14:05:24Z</time></trkpt>
<trkpt lat="45.83142" lon="11.736873"><ele>1016.49</ele><time>2022-02-05T14:05:26Z</time></trkpt>
<trkpt lat="45.831535" lon="11.736776"><ele>1016.87</ele><time>2022-02-05T14:05:27Z</time></trkpt>
<trkpt lat="45.83164" lon="11.736481"><ele>1011.94</ele><time>2022-02-05T14:05:28Z</time></trkpt>
<trkpt lat="45.83168" lon="11.736271"><ele>1009.04</ele><time>2022-02-05T14:05:29Z</time></trkpt>
<trkpt lat="45.831744" lon="11.736073"><ele>1006.5</ele><time>2022-02-05T14:05:31Z</time></trkpt>
<trkpt lat="45.831825" lon="11.735965"><ele>1004.86</ele><time>2022-02-05T14:05:32Z</time></trkpt>
<trkpt lat="45.831959" lon="11.735923"><ele>1007.7</ele><time>2022-02-05T14:05:33Z</time></trkpt>
<trkpt lat="45.832249" lon="11.735948"><ele>1018.27</ele><time>2022-02-05T14:05:35Z</time></trkpt>
<trkpt lat="45.832458" lon="11.735902"><ele>1021.89</ele><time>2022-02-05T14:05:36Z</time></trkpt>
<trkpt lat="45.832589" lon="11.735803"><ele>1022.94</ele><time>2022-02-05T14:05:37Z</time></trkpt>
<trkpt lat="45.832716" lon="11.735594"><ele>1020.66</ele><time>2022-02-05T14:05:38Z</time></trkpt>
<trkpt lat="45.832844" lon="11.735295"><ele>1011.2</ele><time>2022-02-05T14:05:40Z</time></trkpt>
<trkpt lat="45.832904" lon="11.735211"><ele>1010.1</ele><time>2022-02-05T14:05:41Z</time></trkpt>
<trkpt lat="45.833598" lon="11.735001"><ele>1031.54</ele><time>2022-02-05T14:05:42Z</time></trkpt>
<trkpt lat="45.833781" lon="11.734887"><ele>1024.23</ele><time>2022-02-05T14:05:44Z</time></trkpt>
<trkpt lat="45.834071" lon="11.734558"><ele>1011.21</ele><time>2022-02-05T14:05:45Z</time></trkpt>
<trkpt lat="45.834281" lon="11.734212"><ele>1007.91</ele><time>2022-02-05T14:05:46Z</time></trkpt>
<trkpt lat="45.834376" lon="11.734078"><ele>1010.21</ele><time>2022-02-05T14:05:47Z</time></trkpt>
<trkpt lat="45.834479" lon="11.733969"><ele>1014.54</ele><time>2022-02-05T14:05:49Z</time></trkpt>
<trkpt lat="45.834591" lon="11.733924"><ele>1017.51</ele><time>2022-02-05T14:05:50Z</time></trkpt>
<trkpt lat="45.834696" lon="11.733927"><ele>1020.08</ele><time>2022-02-05T14:05:51Z</time></trkpt>
<trkpt lat="45.834811" lon="11.733954"><ele>1021.17</ele><time>2022-02-05T14:05:52Z</time></trkpt>
<trkpt lat="45.834907" lon="11.73402"><ele>1021.39</ele><time>2022-02-05T14:05:54Z</time></trkpt>
<trkpt lat="45.834969" lon="11.734114"><ele>1021.16</ele><time>2022-02-05T14:05:55Z</time></trkpt>
<trkpt lat="45.835089" lon="11.734597"><ele>1016.77</ele><time>2022-02-05T14:05:56Z</time></trkpt>
<trkpt lat="45.835159" lon="11.73473"><ele>1014.32</ele><time>2022-02-05T14:05:58Z</time></trkpt>
<trkpt lat="45.83565" lon="11.735126"><ele>1006.32</ele><time>2022-02-05T14:05:59Z</time></trkpt>
<trkpt lat="45.836074" lon="11.735716"><ele>1000.81</ele><time>2022-02-05T14:06:00Z</time></trkpt>
<trkpt lat="45.836209" lon="11.73584"><ele>1000.72</ele><time>2022-02-05T14:06:01Z</time></trkpt>
<trkpt lat="45.836383" lon="11.735928"><ele>1001.04</ele><time>2022-02-05T14:06:03Z</time></trkpt>
<trkpt lat="45.836792" lon="11.736063"><ele>1004.11</ele><time>2022-02-05T14:06:04Z</time></trkpt>
<trkpt lat="45.837074" lon="11.736277"><ele>1004.53</ele><time>2022-02-05T14:06:05Z</time></trkpt>
<trkpt lat="45.837187" lon="11.736334"><ele>1002.84</ele><time>2022-02-05T14:06:07Z</time></trkpt>
<trkpt lat="45.837425" lon="11.736399"><ele>1000.53</ele><time>2022-02-05T14:06:08Z</time></trkpt>
<trkpt lat="45.837556" lon="11.736479"><ele>1000.42</ele><time>2022-02-05T14:06:09Z</time></trkpt>
<trkpt lat="45.8378" lon="11.736681"><ele>1002.03</ele><time>2022-02-05T14:06:10Z</time></trkpt>
<trkpt lat="45.8379" lon="11.736733"><ele>1001.82</ele><time>2022-02-05T14:06:12Z</time></trkpt>
<trkpt lat="45.839026" lon="11.736742"><ele>997.66</ele><time>2022-02-05T14:06:13Z</time></trkpt>
<trkpt lat="45.839195" lon="11.736781"><ele>995.5</ele><time>2022-02-05T14:06:14Z</time></trkpt>
<trkpt lat="45.839308" lon="11.736856"><ele>993.77</ele><time>2022-02-05T14:06:15Z</time></trkpt>
<trkpt lat="45.839717" lon="11.737296"><ele>997.63</ele><time>2022-02-05T14:06:17Z</time></trkpt>
<trkpt lat="45.84007" lon="11.737573"><ele>1003.32</ele><time>2022-02-05T14:06:18Z</time></trkpt>
<trkpt lat="45.84033" lon="11.73796"><ele>1001.46</ele><time>2022-02-05T14:06:19Z</time></trkpt>
<trkpt lat="45.840407" lon="11.738105"><ele>1001.66</ele><time>2022-02-05T14:06:21Z</time></trkpt>
<trkpt lat="45.840585" lon="11.738528"><ele>1001.1</ele><time>2022-02-05T14:06:22Z</time></trkpt>
<trkpt lat="45.840678" lon="11.738706"><ele>1001.9</ele><time>2022-02-05T14:06:23Z</time></trkpt>
<trkpt lat="45.840789" lon="11.738848"><ele>1003.35</ele><time>2022-02-05T14:06:24Z</time></trkpt>
<trkpt lat="45.841118" lon="11.739123"><ele>1008.14</ele><time>2022-02-05T14:06:26Z</time></trkpt>
<trkpt lat="45.841216" lon="11.739243"><ele>1008.2</ele><time>2022-02-05T14:06:27Z</time></trkpt>
<trkpt lat="45.841278" lon="11.739377"><ele>1006.34</ele><time>2022-02-05T14:06:28Z</time></trkpt>
<trkpt lat="45.841343" lon="11.739644"><ele>1000.76</ele><time>2022-02-05T14:06:30Z</time></trkpt>
<trkpt lat="45.8414" lon="11.739775"><ele>999.72</ele><time>2022-02-05T14:06:31Z</time></trkpt>
<trkpt lat="45.841629" lon="11.740071"><ele>1004.09</ele><time>2022-02-05T14:06:32Z</time></trkpt>
<trkpt lat="45.841837" lon="11.740297"><ele>1004.7</ele><time>2022-02-05T14:06:33Z</time></trkpt>
<trkpt lat="45.842056" lon="11.74045"><ele>1004.37</ele><time>2022-02-05T14:06:35Z</time></trkpt>
<trkpt lat="45.842224" lon="11.740531"><ele>1004.99</ele><time>2022-02-05T14:06:36Z</time></trkpt>
<trkpt lat="45.842666" lon="11.740573"><ele>1013.73</ele><time>2022-02-05T14:06:37Z</time></trkpt>
<trkpt lat="45.842739" lon="11.74062"><ele>1014.55</ele><time>2022-02-05T14:06:38Z</time></trkpt>
<trkpt lat="45.842772" lon="11.740665"><ele>1014.47</ele><time>2022-02-05T14:06:40Z</time></trkpt>
<trkpt lat="45.842839" lon="11.74084"><ele>1013.71</ele><time>2022-02-05T14:06:41Z</time></trkpt>
<trkpt lat="45.842927" lon="11.741494"><ele>1006.76</ele><time>2022-02-05T14:06:42Z</time></trkpt>
<trkpt lat="45.843008" lon="11.741966"><ele>1007.53</ele><time>2022-02-05T14:06:44Z</time></trkpt>
<trkpt lat="45.843025" lon="11.742194"><ele>1007.65</ele><time>2022-02-05T14:06:45Z</time></trkpt>
<trkpt lat="45.842979" lon="11.742679"><ele>1003.47</ele><time>2022-02-05T14:06:46Z</time></trkpt>
<trkpt lat="45.842987" lon="11.742741"><ele>1003.2</ele><time>2022-02-05T14:06:47Z</time></trkpt>
<trkpt lat="45.843038" lon="11.742871"><ele>1004.19</ele><time>2022-02-05T14:06:49Z</time></trkpt>
<trkpt lat="45.843296" lon="11.743151"><ele>1012.59</ele><time>2022-02-05T14:06:50Z</time></trkpt>
<trkpt lat="45.843464" lon="11.743416"><ele>1013.93</ele><time>2022-02-05T14:06:51Z</time></trkpt>
<trkpt lat="45.84367" lon="11.74381"><ele>1013.55</ele><time>2022-02-05T14:06:53Z</time></trkpt>
<trkpt lat="45.843903" lon="11.744188"><ele>1015.9</ele><time>2022-02-05T14:06:54Z</time></trkpt>
<trkpt lat="45.84419" lon="11.744563"><ele>1015.12</ele><time>2022-02-05T14:06:55Z</time></trkpt>
<trkpt lat="45.844611" lon="11.745045"><ele>1011.04</ele><time>2022-02-05T14:06:56Z</time></trkpt>
<trkpt lat="45.844789" lon="11.745152"><ele>1011.22</ele><time>2022-02-05T14:06:58Z</time></trkpt>
<trkpt lat="45.844949" lon="11.745181"><ele>1011.97</ele><time>2022-02-05T14:06:59Z</time></trkpt>
<trkpt lat="45.845081" lon="11.745117"><ele>1013.31</ele><time>2022-02-05T14:07:00Z</time></trkpt>
<trkpt lat="45.845173" lon="11.744961"><ele>1015.98</ele><time>2022-02-05T14:07:01Z</time></trkpt>
<trkpt lat="45.845306" lon="11.744842"><ele>1018.62</ele><time>2022-02-05T14:07:03Z</time></trkpt>
<trkpt lat="45.845616" lon="11.744696"><ele>1017.86</ele><time>2022-02-05T14:07:04Z</time></trkpt>
<trkpt lat="45.846149" lon="11.744234"><ele>1017.84</ele><time>2022-02-05T14:07:05Z</time></trkpt>
<trkpt lat="45.846393" lon="11.743892"><ele>1015.79</ele><time>2022-02-05T14:07:07Z</time></trkpt>
<trkpt lat="45.846699" lon="11.743264"><ele>1013.69</ele><time>2022-02-05T14:07:08Z</time></trkpt>
<trkpt lat="45.84684" lon="11.743144"><ele>1014.19</ele><time>2022-02-05T14:07:09Z</time></trkpt>
<trkpt lat="45.847037" lon="11.743198"><ele>1015.65</ele><time>2022-02-05T14:07:10Z</time></trkpt>
<trkpt lat="45.847327" lon="11.743519"><ele>1019.77</ele><time>2022-02-05T14:07:12Z</time></trkpt>
<trkpt lat="45.847437" lon="11.743867"><ele>1016.39</ele><time>2022-02-05T14:07:13Z</time></trkpt>
<trkpt lat="45.847557" lon="11.744008"><ele>1015.43</ele><time>2022-02-05T14:07:14Z</time></trkpt>
<trkpt lat="45.847735" lon="11.744003"><ele>1016.95</ele><time>2022-02-05T14:07:16Z</time></trkpt>
<trkpt lat="45.848261" lon="11.74369"><ele>1018.53</ele><time>2022-02-05T14:07:17Z</time></trkpt>
<trkpt lat="45.848873" lon="11.743159"><ele>1024.26</ele><time>2022-02-05T14:07:18Z</time></trkpt>
<trkpt lat="45.849127" lon="11.743011"><ele>1023.15</ele><time>2022-02-05T14:07:19Z</time></trkpt>
<trkpt lat="45.849725" lon="11.742793"><ele>1024.51</ele><time>2022-02-05T14:07:21Z</time></trkpt>
<trkpt lat="45.85001" lon="11.742761"><ele>1024.52</ele><time>2022-02-05T14:07:22Z</time></trkpt>
<trkpt lat="45.850234" lon="11.742864"><ele>1017.74</ele><time>2022-02-05T14:07:23Z</time></trkpt>
<trkpt lat="45.850478" lon="11.742879"><ele>1015.07</ele><time>2022-02-05T14:07:24Z</time></trkpt>
<trkpt lat="45.850889" lon="11.742609"><ele>1016.35</ele><time>2022-02-05T14:07:26Z</time></trkpt>
<trkpt lat="45.851122" lon="11.742358"><ele>1019.27</ele><time>2022-02-05T14:07:27Z</time></trkpt>
<trkpt lat="45.851476" lon="11.741756"><ele>1025.31</ele><time>2022-02-05T14:07:28Z</time></trkpt>
<trkpt lat="45.851681" lon="11.741328"><ele>1026.7</ele><time>2022-02-05T14:07:30Z</time></trkpt>
<trkpt lat="45.852141" lon="11.740274"><ele>1028.87</ele><time>2022-02-05T14:07:31Z</time></trkpt>
<trkpt lat="45.852208" lon="11.739954"><ele>1029.78</ele><time>2022-02-05T14:07:32Z</time></trkpt>
<trkpt lat="45.852243" lon="11.73969"><ele>1029.42</ele><time>2022-02-05T14:07:33Z</time></trkpt>
<trkpt lat="45.852204" lon="11.739473"><ele>1030.53</ele><time>2022-02-05T14:07:35Z</time></trkpt>
<trkpt lat="45.852072" lon="11.739153"><ele>1032.68</ele><time>2022-02-05T14:07:36Z</time></trkpt>
<trkpt lat="45.851863" lon="11.738838"><ele>1036.96</ele><time>2022-02-05T14:07:37Z</time></trkpt>
<trkpt lat="45.851798" lon="11.738657"><ele>1038.79</ele><time>2022-02-05T14:07:39Z</time></trkpt>
<trkpt lat="45.851791" lon="11.73847"><ele>1041.13</ele><time>2022-02-05T14:07:40Z</time></trkpt>
<trkpt lat="45.851856" lon="11.738314"><ele>1042.34</ele><time>2022-02-05T14:07:41Z</time></trkpt>
<trkpt lat="45.851949" lon="11.738182"><ele>1043.09</ele><time>2022-02-05T14:07:42Z</time></trkpt>
<trkpt lat="45.852312" lon="11.737874"><ele>1037.34</ele><time>2022-02-05T14:07:44Z</time></trkpt>
<trkpt lat="45.852468" lon="11.737614"><ele>1035.87</ele><time>2022-02-05T14:07:45Z</time></trkpt>
<trkpt lat="45.8525" lon="11.73733"><ele>1036.22</ele><time>2022-02-05T14:07:46Z</time></trkpt>
<trkpt lat="45.852489" lon="11.736916"><ele>1039.65</ele><time>2022-02-05T14:07:47Z</time></trkpt>
<trkpt lat="45.852516" lon="11.736668"><ele>1039.77</ele><time>2022-02-05T14:07:49Z</time></trkpt>
<trkpt lat="45.852615" lon="11.736453"><ele>1041.6</ele><time>2022-02-05T14:07:50Z</time></trkpt>
<trkpt lat="45.852851" lon="11.736192"><ele>1045.84</ele><time>2022-02-05T14:07:51Z</time></trkpt>
<trkpt lat="45.853407" lon="11.735719"><ele>1051.58</ele><time>2022-02-05T14:07:53Z</time></trkpt>
<trkpt lat="45.853735" lon="11.735569"><ele>1048.95</ele><time>2022-02-05T14:07:54Z</time></trkpt>
<trkpt lat="45.853889" lon="11.735455"><ele>1048.52</ele><time>2022-02-05T14:07:55Z</time></trkpt>
<trkpt lat="45.854202" lon="11.735051"><ele>1053.02</ele><time>2022-02-05T14:07:56Z</time></trkpt>
<trkpt lat="45.854386" lon="11.734991"><ele>1052.16</ele><time>2022-02-05T14:07:58Z</time></trkpt>
<trkpt lat="45.854537" lon="11.73488"><ele>1053.86</ele><time>2022-02-05T14:07:59Z</time></trkpt>
<trkpt lat="45.854789" lon="11.734599"><ele>1060.98</ele><time>2022-02-05T14:08:00Z</time></trkpt>
<trkpt lat="45.854965" lon="11.734522"><ele>1063.15</ele><time>2022-02-05T14:08:02Z</time></trkpt>
<trkpt lat="45.855145" lon="11.7346"><ele>1060.64</ele><time>2022-02-05T14:08:03Z</time></trkpt>
<trkpt lat="45.855286" lon="11.734704"><ele>1057.78</ele><time>2022-02-05T14:08:04Z</time></trkpt>
<trkpt lat="45.855439" lon="11.73487"><ele>1055.16</ele><time>2022-02-05T14:08:05Z</time></trkpt>
<trkpt lat="45.855592" lon="11.734974"><ele>1054.82</ele><time>2022-02-05T14:08:07Z</time></trkpt>
<trkpt lat="45.855768" lon="11.735043"><ele>1053.69</ele><time>2022-02-05T14:08:08Z</time></trkpt>
<trkpt lat="45.856005" lon="11.735049"><ele>1052.85</ele><time>2022-02-05T14:08:09Z</time></trkpt>
<trkpt lat="45.856121" lon="11.734999"><ele>1052.98</ele><time>2022-02-05T14:08:10Z</time></trkpt>
<trkpt lat="45.856212" lon="11.734899"><ele>1054.64</ele><time>2022-02-05T14:08:12Z</time></trkpt>
<trkpt lat="45.856344" lon="11.73471"><ele>1056.04</ele><time>2022-02-05T14:08:13Z</time></trkpt>
<trkpt lat="45.85653" lon="11.734234"><ele>1063.5</ele><time>2022-02-05T14:08:14Z</time></trkpt>
<trkpt lat="45.856633" lon="11.734131"><ele>1063.51</ele><time>2022-02-05T14:08:16Z</time></trkpt>
<trkpt lat="45.856794" lon="11.734031"><ele>1061.06</ele><time>2022-02-05T14:08:17Z</time></trkpt>
<trkpt lat="45.856926" lon="11.733839"><ele>1059.58</ele><time>2022-02-05T14:08:18Z</time></trkpt>
<trkpt lat="45.857034" lon="11.733643"><ele>1060.54</ele><time>2022-02-05T14:08:19Z</time></trkpt>
<trkpt lat="45.857109" lon="11.733565"><ele>1060.02</ele><time>2022-02-05T14:08:21Z</time></trkpt>
<trkpt lat="45.857182" lon="11.733526"><ele>1058.84</ele><time>2022-02-05T14:08:22Z</time></trkpt>
<trkpt lat="45.857399" lon="11.733632"><ele>1056.21</ele><time>2022-02-05T14:08:23Z</time></trkpt>
<trkpt lat="45.857581" lon="11.733632"><ele>1056.53</ele><time>2022-02-05T14:08:25Z</time></trkpt>
<trkpt lat="45.857712" lon="11.733581"><ele>1057.69</ele><time>2022-02-05T14:08:26Z</time></trkpt>
<trkpt lat="45.857961" lon="11.733311"><ele>1061.06</ele><time>2022-02-05T14:08:27Z</time></trkpt>
<trkpt lat="45.858266" lon="11.733129"><ele>1060.28</ele><time>2022-02-05T14:08:28Z</time></trkpt>
<trkpt lat="45.85836" lon="11.733002"><ele>1060.48</ele><time>2022-02-05T14:08:30Z</time></trkpt>
<trkpt lat="45.858409" lon="11.732812"><ele>1062.36</ele><time>2022-02-05T14:08:31Z</time></trkpt>
<trkpt lat="45.858424" lon="11.732467"><ele>1065.22</ele><time>2022-02-05T14:08:32Z</time></trkpt>
<trkpt lat="45.858457" lon="11.732347"><ele>1065.52</ele><time>2022-02-05T14:08:34Z</time></trkpt>
<trkpt lat="45.858547" lon="11.732319"><ele>1064.49</ele><time>2022-02-05T14:08:35Z</time></trkpt>
<trkpt lat="45.858809" lon="11.732454"><ele>1066.73</ele><time>2022-02-05T14:08:35Z</time></trkpt>
<trkpt lat="45.858953" lon="11.732603"><ele>1069.77</ele><time>2022-02-05T14:08:36Z</time></trkpt>
<trkpt lat="45.859123" lon="11.732847"><ele>1073.81</ele><time>2022-02-05T14:08:37Z</time></trkpt>
<trkpt lat="45.859151" lon="11.733123"><ele>1075.16</ele><time>2022-02-05T14:08:38Z</time></trkpt>
<trkpt lat="45.859124" lon="11.733276"><ele>1075.38</ele><time>2022-02-05T14:08:38Z</time></trkpt>
<trkpt lat="45.85907" lon="11.733407"><ele>1074.0</ele><time>2022-02-05T14:08:39Z</time></trkpt>
<trkpt lat="45.858972" lon="11.733575"><ele>1071.43</ele><time>2022-02-05T14:08:40Z</time></trkpt>
<trkpt lat="45.858943" lon="11.733745"><ele>1072.73</ele><time>2022-02-05T14:08:41Z</time></trkpt>
<trkpt lat="45.858943" lon="11.733745"><ele>1072.73</ele><time>2022-02-05T14:08:41Z</time></trkpt>
<trkpt lat="45.858885" lon="11.734087"><ele>1074.03</ele><time>2022-02-05T14:08:42Z</time></trkpt>
<trkpt lat="45.858759" lon="11.73449"><ele>1075.17</ele><time>2022-02-05T14:08:44Z</time></trkpt>
<trkpt lat="45.85867" lon="11.734891"><ele>1080.69</ele><time>2022-02-05T14:08:45Z</time></trkpt>
<trkpt lat="45.858464" lon="11.735663"><ele>1080.91</ele><time>2022-02-05T14:08:47Z</time></trkpt>
<trkpt lat="45.858431" lon="11.735944"><ele>1083.16</ele><time>2022-02-05T14:08:49Z</time></trkpt>
<trkpt lat="45.858522" lon="11.736531"><ele>1087.95</ele><time>2022-02-05T14:08:50Z</time></trkpt>
<trkpt lat="45.858529" lon="11.736841"><ele>1090.82</ele><time>2022-02-05T14:08:52Z</time></trkpt>
<trkpt lat="45.858514" lon="11.737033"><ele>1092.82</ele><time>2022-02-05T14:08:53Z</time></trkpt>
<trkpt lat="45.858432" lon="11.737211"><ele>1093.32</ele><time>2022-02-05T14:08:55Z</time></trkpt>
<trkpt lat="45.858198" lon="11.737505"><ele>1090.25</ele><time>2022-02-05T14:08:57Z</time></trkpt>
<trkpt lat="45.858169" lon="11.737568"><ele>1090.18</ele><time>2022-02-05T14:08:58Z</time></trkpt>
<trkpt lat="45.858059" lon="11.738332"><ele>1095.12</ele><time>2022-02-05T14:09:00Z</time></trkpt>
<trkpt lat="45.858057" lon="11.738548"><ele>1095.81</ele><time>2022-02-05T14:09:01Z</time></trkpt>
<trkpt lat="45.858228" lon="11.739278"><ele>1101.42</ele><time>2022-02-05T14:09:03Z</time></trkpt>
<trkpt lat="45.858271" lon="11.7395"><ele>1101.58</ele><time>2022-02-05T14:09:05Z</time></trkpt>
<trkpt lat="45.858389" lon="11.739833"><ele>1101.32</ele><time>2022-02-05T14:09:06Z</time></trkpt>
<trkpt lat="45.858586" lon="11.740287"><ele>1100.14</ele><time>2022-02-05T14:09:08Z</time></trkpt>
<trkpt lat="45.858675" lon="11.740407"><ele>1101.2</ele><time>2022-02-05T14:09:09Z</time></trkpt>
<trkpt lat="45.859006" lon="11.740658"><ele>1110.83</ele><time>2022-02-05T14:09:11Z</time></trkpt>
<trkpt lat="45.859068" lon="11.740744"><ele>1112.07</ele><time>2022-02-05T14:09:12Z</time></trkpt>
<trkpt lat="45.859093" lon="11.74083"><ele>1111.66</ele><time>2022-02-05T14:09:14Z</time></trkpt>
<trkpt lat="45.85909" lon="11.741238"><ele>1107.39</ele><time>2022-02-05T14:09:16Z</time></trkpt>
<trkpt lat="45.859105" lon="11.741346"><ele>1106.84</ele><time>2022-02-05T14:09:17Z</time></trkpt>
<trkpt lat="45.859349" lon="11.741812"><ele>1112.12</ele><time>2022-02-05T14:09:19Z</time></trkpt>
<trkpt lat="45.859445" lon="11.742217"><ele>1116.01</ele><time>2022-02-05T14:09:20Z</time></trkpt>
<trkpt lat="45.859471" lon="11.742279"><ele>1116.95</ele><time>2022-02-05T14:09:22Z</time></trkpt>
<trkpt lat="45.859788" lon="11.7426"><ele>1124.94</ele><time>2022-02-05T14:09:24Z</time></trkpt>
<trkpt lat="45.860004" lon="11.742909"><ele>1125.77</ele><time>2022-02-05T14:09:25Z</time></trkpt>
<trkpt lat="45.860063" lon="11.743022"><ele>1125.8</ele><time>2022-02-05T14:09:27Z</time></trkpt>
<trkpt lat="45.860241" lon="11.743628"><ele>1129.97</ele><time>2022-02-05T14:09:28Z</time></trkpt>
<trkpt lat="45.860383" lon="11.744332"><ele>1134.92</ele><time>2022-02-05T14:09:30Z</time></trkpt>
<trkpt lat="45.860392" lon="11.744489"><ele>1135.9</ele><time>2022-02-05T14:09:32Z</time></trkpt>
<trkpt lat="45.860366" lon="11.744547"><ele>1135.9</ele><time>2022-02-05T14:09:33Z</time></trkpt>
<trkpt lat="45.860308" lon="11.744556"><ele>1135.2</ele><time>2022-02-05T14:09:35Z</time></trkpt>
<trkpt lat="45.86025" lon="11.744527"><ele>1134.99</ele><time>2022-02-05T14:09:36Z</time></trkpt>
<trkpt lat="45.860026" lon="11.744227"><ele>1132.24</ele><time>2022-02-05T14:09:38Z</time></trkpt>
<trkpt lat="45.859931" lon="11.744168"><ele>1131.53</ele><time>2022-02-05T14:09:40Z</time></trkpt>
<trkpt lat="45.859809" lon="11.744176"><ele>1132.56</ele><time>2022-02-05T14:09:41Z</time></trkpt>
<trkpt lat="45.859245" lon="11.744464"><ele>1137.03</ele><time>2022-02-05T14:09:43Z</time></trkpt>
<trkpt lat="45.858705" lon="11.744561"><ele>1144.44</ele><time>2022-02-05T14:09:44Z</time></trkpt>
<trkpt lat="45.858616" lon="11.744646"><ele>1146.39</ele><time>2022-02-05T14:09:46Z</time></trkpt>
<trkpt lat="45.858576" lon="11.744723"><ele>1147.01</ele><time>2022-02-05T14:09:48Z</time></trkpt>
<trkpt lat="45.858555" lon="11.744805"><ele>1147.71</ele><time>2022-02-05T14:09:49Z</time></trkpt>
<trkpt lat="45.858509" lon="11.745435"><ele>1148.89</ele><time>2022-02-05T14:09:51Z</time></trkpt>
<trkpt lat="45.858475" lon="11.746928"><ele>1157.05</ele><time>2022-02-05T14:09:52Z</time></trkpt>
<trkpt lat="45.858392" lon="11.74768"><ele>1157.2</ele><time>2022-02-05T14:09:54Z</time></trkpt>
<trkpt lat="45.858382" lon="11.748385"><ele>1163.04</ele><time>2022-02-05T14:09:55Z</time></trkpt>
<trkpt lat="45.858497" lon="11.749127"><ele>1170.2</ele><time>2022-02-05T14:09:57Z</time></trkpt>
<trkpt lat="45.858705" lon="11.749697"><ele>1177.72</ele><time>2022-02-05T14:09:59Z</time></trkpt>
<trkpt lat="45.858612" lon="11.750427"><ele>1177.58</ele><time>2022-02-05T14:10:00Z</time></trkpt>
<trkpt lat="45.858668" lon="11.751227"><ele>1180.48</ele><time>2022-02-05T14:10:02Z</time></trkpt>
<trkpt lat="45.858403" lon="11.752047"><ele>1180.79</ele><time>2022-02-05T14:10:03Z</time></trkpt>
<trkpt lat="45.85838" lon="11.753055"><ele>1187.52</ele><time>2022-02-05T14:10:05Z</time></trkpt>
<trkpt lat="45.858713" lon="11.755003"><ele>1203.34</ele><time>2022-02-05T14:10:07Z</time></trkpt>
<trkpt lat="45.858832" lon="11.755957"><ele>1209.17</ele><time>2022-02-05T14:10:08Z</time></trkpt>
<trkpt lat="45.858904" lon="11.756826"><ele>1210.66</ele><time>2022-02-05T14:10:10Z</time></trkpt>
<trkpt lat="45.859021" lon="11.757518"><ele>1212.99</ele><time>2022-02-05T14:10:11Z</time></trkpt>
<trkpt lat="45.85899" lon="11.757888"><ele>1211.78</ele><time>2022-02-05T14:10:13Z</time></trkpt>
<trkpt lat="45.859138" lon="11.758288"><ele>1221.39</ele><time>2022-02-05T14:10:15Z</time></trkpt>
<trkpt lat="45.859553" lon="11.759053"><ele>1225.95</ele><time>2022-02-05T14:10:16Z</time></trkpt>
<trkpt lat="45.859895" lon="11.759749"><ele>1230.26</ele><time>2022-02-05T14:10:18Z</time></trkpt>
<trkpt lat="45.860112" lon="11.760405"><ele>1232.27</ele><time>2022-02-05T14:10:19Z</time></trkpt>
<trkpt lat="45.860621" lon="11.761036"><ele>1238.73</ele><time>2022-02-05T14:10:21Z</time></trkpt>
<trkpt lat="45.861251" lon="11.760951"><ele>1248.26</ele><time>2022-02-05T14:10:23Z</time></trkpt>
<trkpt lat="45.861515" lon="11.761086"><ele>1249.94</ele><time>2022-02-05T14:10:24Z</time></trkpt>
<trkpt lat="45.861647" lon="11.761489"><ele>1244.23</ele><time>2022-02-05T14:10:26Z</time></trkpt>
<trkpt lat="45.861798" lon="11.761523"><ele>1245.46</ele><time>2022-02-05T14:10:27Z</time></trkpt>
<trkpt lat="45.862202" lon="11.76147"><ele>1248.34</ele><time>2022-02-05T14:10:29Z</time></trkpt>
<trkpt lat="45.862307" lon="11.761497"><ele>1249.44</ele><time>2022-02-05T14:10:30Z</time></trkpt>
<trkpt lat="45.862381" lon="11.761553"><ele>1250.1</ele><time>2022-02-05T14:10:32Z</time></trkpt>
<trkpt lat="45.862544" lon="11.761777"><ele>1251.32</ele><time>2022-02-05T14:10:34Z</time></trkpt>
<trkpt lat="45.862788" lon="11.761945"><ele>1256.17</ele><time>2022-02-05T14:10:35Z</time></trkpt>
<trkpt lat="45.862953" lon="11.762034"><ele>1258.39</ele><time>2022-02-05T14:10:37Z</time></trkpt>
<trkpt lat="45.86308" lon="11.762219"><ele>1259.73</ele><time>2022-02-05T14:10:38Z</time></trkpt>
<trkpt lat="45.863124" lon="11.762378"><ele>1259.98</ele><time>2022-02-05T14:10:40Z</time></trkpt>
<trkpt lat="45.863134" lon="11.762621"><ele>1258.79</ele><time>2022-02-05T14:10:42Z</time></trkpt>
<trkpt lat="45.863271" lon="11.763076"><ele>1261.05</ele><time>2022-02-05T14:10:43Z</time></trkpt>
<trkpt lat="45.863497" lon="11.76342"><ele>1263.8</ele><time>2022-02-05T14:10:45Z</time></trkpt>
<trkpt lat="45.864077" lon="11.763532"><ele>1273.96</ele><time>2022-02-05T14:10:46Z</time></trkpt>
<trkpt lat="45.864374" lon="11.763901"><ele>1276.91</ele><time>2022-02-05T14:10:48Z</time></trkpt>
<trkpt lat="45.864471" lon="11.764114"><ele>1278.29</ele><time>2022-02-05T14:10:50Z</time></trkpt>
<trkpt lat="45.864525" lon="11.764314"><ele>1279.69</ele><time>2022-02-05T14:10:51Z</time></trkpt>
<trkpt lat="45.864528" lon="11.764385"><ele>1279.78</ele><time>2022-02-05T14:10:53Z</time></trkpt>
<trkpt lat="45.864464" lon="11.764524"><ele>1279.21</ele><time>2022-02-05T14:10:54Z</time></trkpt>
<trkpt lat="45.864384" lon="11.764636"><ele>1279.35</ele><time>2022-02-05T14:10:56Z</time></trkpt>
<trkpt lat="45.864304" lon="11.764678"><ele>1278.92</ele><time>2022-02-05T14:10:58Z</time></trkpt>
<trkpt lat="45.864222" lon="11.764695"><ele>1278.23</ele><time>2022-02-05T14:10:59Z</time></trkpt>
<trkpt lat="45.864103" lon="11.76466"><ele>1277.0</ele><time>2022-02-05T14:11:01Z</time></trkpt>
<trkpt lat="45.863873" lon="11.764505"><ele>1273.45</ele><time>2022-02-05T14:11:02Z</time></trkpt>
<trkpt lat="45.863676" lon="11.764542"><ele>1276.17</ele><time>2022-02-05T14:11:04Z</time></trkpt>
<trkpt lat="45.863463" lon="11.764629"><ele>1280.74</ele><time>2022-02-05T14:11:06Z</time></trkpt>
<trkpt lat="45.863242" lon="11.764882"><ele>1290.4</ele><time>2022-02-05T14:11:07Z</time></trkpt>
<trkpt lat="45.863174" lon="11.764928"><ele>1292.21</ele><time>2022-02-05T14:11:09Z</time></trkpt>
<trkpt lat="45.863107" lon="11.764936"><ele>1292.96</ele><time>2022-02-05T14:11:10Z</time></trkpt>
<trkpt lat="45.862791" lon="11.764479"><ele>1282.78</ele><time>2022-02-05T14:11:12Z</time></trkpt>
<trkpt lat="45.862668" lon="11.764492"><ele>1283.06</ele><time>2022-02-05T14:11:13Z</time></trkpt>
<trkpt lat="45.862534" lon="11.764566"><ele>1284.3</ele><time>2022-02-05T14:11:15Z</time></trkpt>
<trkpt lat="45.861906" lon="11.765266"><ele>1298.86</ele><time>2022-02-05T14:11:17Z</time></trkpt>
<trkpt lat="45.861702" lon="11.765642"><ele>1297.82</ele><time>2022-02-05T14:11:18Z</time></trkpt>
<trkpt lat="45.861544" lon="11.766189"><ele>1301.58</ele><time>2022-02-05T14:11:20Z</time></trkpt>
<trkpt lat="45.861339" lon="11.766708"><ele>1304.16</ele><time>2022-02-05T14:11:21Z</time></trkpt>
<trkpt lat="45.861355" lon="11.767017"><ele>1305.3</ele><time>2022-02-05T14:11:23Z</time></trkpt>
<trkpt lat="45.861618" lon="11.76725"><ele>1310.02</ele><time>2022-02-05T14:11:25Z</time></trkpt>
<trkpt lat="45.862124" lon="11.767406"><ele>1320.97</ele><time>2022-02-05T14:11:26Z</time></trkpt>
<trkpt lat="45.862173" lon="11.767466"><ele>1321.86</ele><time>2022-02-05T14:11:28Z</time></trkpt>
<trkpt lat="45.862186" lon="11.767537"><ele>1321.55</ele><time>2022-02-05T14:11:29Z</time></trkpt>
<trkpt lat="45.862129" lon="11.767955"><ele>1316.05</ele><time>2022-02-05T14:11:31Z</time></trkpt>
<trkpt lat="45.862141" lon="11.768126"><ele>1315.62</ele><time>2022-02-05T14:11:33Z</time></trkpt>
<trkpt lat="45.862203" lon="11.76828"><ele>1316.8</ele><time>2022-02-05T14:11:34Z</time></trkpt>
<trkpt lat="45.862368" lon="11.768405"><ele>1325.27</ele><time>2022-02-05T14:11:36Z</time></trkpt>
<trkpt lat="45.862422" lon="11.768514"><ele>1328.6</ele><time>2022-02-05T14:11:37Z</time></trkpt>
<trkpt lat="45.862417" lon="11.768605"><ele>1328.77</ele><time>2022-02-05T14:11:39Z</time></trkpt>
<trkpt lat="45.861992" lon="11.769092"><ele>1321.54</ele><time>2022-02-05T14:11:41Z</time></trkpt>
<trkpt lat="45.861951" lon="11.769233"><ele>1322.42</ele><time>2022-02-05T14:11:42Z</time></trkpt>
<trkpt lat="45.861945" lon="11.769376"><ele>1324.8</ele><time>2022-02-05T14:11:44Z</time></trkpt>
<trkpt lat="45.862038" lon="11.769625"><ele>1330.89</ele><time>2022-02-05T14:11:45Z</time></trkpt>
<trkpt lat="45.862108" lon="11.770006"><ele>1336.56</ele><time>2022-02-05T14:11:47Z</time></trkpt>
<trkpt lat="45.861833" lon="11.770527"><ele>1335.05</ele><time>2022-02-05T14:11:48Z</time></trkpt>
<trkpt lat="45.861694" lon="11.771052"><ele>1336.52</ele><time>2022-02-05T14:11:50Z</time></trkpt>
<trkpt lat="45.861658" lon="11.771645"><ele>1341.39</ele><time>2022-02-05T14:11:52Z</time></trkpt>
<trkpt lat="45.861525" lon="11.772082"><ele>1339.37</ele><time>2022-02-05T14:11:53Z</time></trkpt>
<trkpt lat="45.861555" lon="11.772698"><ele>1345.06</ele><time>2022-02-05T14:11:55Z</time></trkpt>
<trkpt lat="45.86183" lon="11.773722"><ele>1359.29</ele><time>2022-02-05T14:11:56Z</time></trkpt>
<trkpt lat="45.861745" lon="11.774888"><ele>1362.92</ele><time>2022-02-05T14:11:58Z</time></trkpt>
<trkpt lat="45.862007" lon="11.775835"><ele>1364.23</ele><time>2022-02-05T14:12:00Z</time></trkpt>
<trkpt lat="45.862398" lon="11.77638"><ele>1371.2</ele><time>2022-02-05T14:12:01Z</time></trkpt>
<trkpt lat="45.86302" lon="11.777107"><ele>1376.98</ele><time>2022-02-05T14:12:03Z</time></trkpt>
<trkpt lat="45.863183" lon="11.77719"><ele>1379.73</ele><time>2022-02-05T14:12:04Z</time></trkpt>
<trkpt lat="45.863342" lon="11.777174"><ele>1384.05</ele><time>2022-02-05T14:12:06Z</time></trkpt>
<trkpt lat="45.863407" lon="11.777228"><ele>1384.53</ele><time>2022-02-05T14:12:08Z</time></trkpt>
<trkpt lat="45.863518" lon="11.777627"><ele>1383.38</ele><time>2022-02-05T14:12:09Z</time></trkpt>
<trkpt lat="45.863677" lon="11.777764"><ele>1385.77</ele><time>2022-02-05T14:12:11Z</time></trkpt>
<trkpt lat="45.86382" lon="11.777831"><ele>1386.78</ele><time>2022-02-05T14:12:12Z</time></trkpt>
<trkpt lat="45.86393" lon="11.777816"><ele>1387.58</ele><time>2022-02-05T14:12:14Z</time></trkpt>
<trkpt lat="45.864038" lon="11.777749"><ele>1387.67</ele><time>2022-02-05T14:12:16Z</time></trkpt>
<trkpt lat="45.864323" lon="11.777499"><ele>1386.77</ele><time>2022-02-05T14:12:17Z</time></trkpt>
<trkpt lat="45.865667" lon="11.775495"><ele>1409.27</ele><time>2022-02-05T14:12:19Z</time></trkpt>
<trkpt lat="45.866112" lon="11.774679"><ele>1413.22</ele><time>2022-02-05T14:12:20Z</time></trkpt>
<trkpt lat="45.866328" lon="11.774134"><ele>1425.41</ele><time>2022-02-05T14:12:22Z</time></trkpt>
<trkpt lat="45.866421" lon="11.773983"><ele>1428.09</ele><time>2022-02-05T14:12:24Z</time></trkpt>
<trkpt lat="45.866626" lon="11.77406"><ele>1429.11</ele><time>2022-02-05T14:12:25Z</time></trkpt>
<trkpt lat="45.86694" lon="11.774661"><ele>1429.47</ele><time>2022-02-05T14:12:27Z</time></trkpt>
<trkpt lat="45.866962" lon="11.77536"><ele>1430.63</ele><time>2022-02-05T14:12:28Z</time></trkpt>
<trkpt lat="45.866943" lon="11.77611"><ele>1431.93</ele><time>2022-02-05T14:12:30Z</time></trkpt>
<trkpt lat="45.866721" lon="11.777514"><ele>1444.03</ele><time>2022-02-05T14:12:31Z</time></trkpt>
<trkpt lat="45.866563" lon="11.778008"><ele>1438.82</ele><time>2022-02-05T14:12:33Z</time></trkpt>
<trkpt lat="45.866563" lon="11.778623"><ele>1444.91</ele><time>2022-02-05T14:12:35Z</time></trkpt>
<trkpt lat="45.866526" lon="11.779387"><ele>1450.42</ele><time>2022-02-05T14:12:36Z</time></trkpt>
<trkpt lat="45.866365" lon="11.77987"><ele>1447.9</ele><time>2022-02-05T14:12:38Z</time></trkpt>
<trkpt lat="45.86644" lon="11.780333"><ele>1454.72</ele><time>2022-02-05T14:12:39Z</time></trkpt>
<trkpt lat="45.86646" lon="11.780794"><ele>1454.73</ele><time>2022-02-05T14:12:41Z</time></trkpt>
<trkpt lat="45.866595" lon="11.781225"><ele>1461.49</ele><time>2022-02-05T14:12:43Z</time></trkpt>
<trkpt lat="45.866644" lon="11.781547"><ele>1463.98</ele><time>2022-02-05T14:12:44Z</time></trkpt>
<trkpt lat="45.866549" lon="11.782004"><ele>1460.12</ele><time>2022-02-05T14:12:46Z</time></trkpt>
<trkpt lat="45.866702" lon="11.78247"><ele>1461.59</ele><time>2022-02-05T14:12:47Z</time></trkpt>
<trkpt lat="45.867643" lon="11.783423"><ele>1477.34</ele><time>2022-02-05T14:12:49Z</time></trkpt>
<trkpt lat="45.867827" lon="11.783719"><ele>1481.27</ele><time>2022-02-05T14:12:51Z</time></trkpt>
<trkpt lat="45.86785" lon="11.783932"><ele>1481.67</ele><time>2022-02-05T14:12:52Z</time></trkpt>
<trkpt lat="45.86759" lon="11.784293"><ele>1477.81</ele><time>2022-02-05T14:12:54Z</time></trkpt>
<trkpt lat="45.867553" lon="11.784416"><ele>1478.62</ele><time>2022-02-05T14:12:55Z</time></trkpt>
<trkpt lat="45.867572" lon="11.784708"><ele>1482.63</ele><time>2022-02-05T14:12:57Z</time></trkpt>
<trkpt lat="45.867555" lon="11.785553"><ele>1493.94</ele><time>2022-02-05T14:12:59Z</time></trkpt>
<trkpt lat="45.867344" lon="11.785964"><ele>1491.0</ele><time>2022-02-05T14:13:00Z</time></trkpt>
<trkpt lat="45.867175" lon="11.786397"><ele>1488.39</ele><time>2022-02-05T14:13:02Z</time></trkpt>
<trkpt lat="45.867268" lon="11.786991"><ele>1493.74</ele><time>2022-02-05T14:13:03Z</time></trkpt>
<trkpt lat="45.867498" lon="11.787282"><ele>1494.32</ele><time>2022-02-05T14:13:05Z</time></trkpt>
<trkpt lat="45.867837" lon="11.787352"><ele>1500.32</ele><time>2022-02-05T14:13:07Z</time></trkpt>
<trkpt lat="45.868452" lon="11.787406"><ele>1506.74</ele><time>2022-02-05T14:13:08Z</time></trkpt>
<trkpt lat="45.868692" lon="11.787665"><ele>1509.31</ele><time>2022-02-05T14:13:10Z</time></trkpt>
<trkpt lat="45.869112" lon="11.78828"><ele>1520.38</ele><time>2022-02-05T14:13:11Z</time></trkpt>
<trkpt lat="45.869117" lon="11.788458"><ele>1521.37</ele><time>2022-02-05T14:13:13Z</time></trkpt>
<trkpt lat="45.86907" lon="11.788576"><ele>1520.91</ele><time>2022-02-05T14:13:14Z</time></trkpt>
<trkpt lat="45.868904" lon="11.788706"><ele>1518.45</ele><time>2022-02-05T14:13:16Z</time></trkpt>
<trkpt lat="45.868559" lon="11.788703"><ele>1513.58</ele><time>2022-02-05T14:13:18Z</time></trkpt>
<trkpt lat="45.868487" lon="11.788797"><ele>1513.51</ele><time>2022-02-05T14:13:19Z</time></trkpt>
<trkpt lat="45.868469" lon="11.7889"><ele>1514.62</ele><time>2022-02-05T14:13:21Z</time></trkpt>
<trkpt lat="45.868514" lon="11.788984"><ele>1517.26</ele><time>2022-02-05T14:13:22Z</time></trkpt>
<trkpt lat="45.868607" lon="11.789007"><ele>1520.01</ele><time>2022-02-05T14:13:24Z</time></trkpt>
<trkpt lat="45.868778" lon="11.788935"><ele>1521.33</ele><time>2022-02-05T14:13:26Z</time></trkpt>
<trkpt lat="45.869204" lon="11.788903"><ele>1529.63</ele><time>2022-02-05T14:13:27Z</time></trkpt>
<trkpt lat="45.869283" lon="11.788818"><ele>1531.92</ele><time>2022-02-05T14:13:29Z</time></trkpt>
<trkpt lat="45.869322" lon="11.788698"><ele>1532.56</ele><time>2022-02-05T14:13:30Z</time></trkpt>
<trkpt lat="45.869394" lon="11.787632"><ele>1533.01</ele><time>2022-02-05T14:13:32Z</time></trkpt>
<trkpt lat="45.869554" lon="11.787324"><ele>1540.36</ele><time>2022-02-05T14:13:34Z</time></trkpt>
<trkpt lat="45.869565" lon="11.787244"><ele>1541.15</ele><time>2022-02-05T14:13:35Z</time></trkpt>
<trkpt lat="45.869559" lon="11.787119"><ele>1541.67</ele><time>2022-02-05T14:13:37Z</time></trkpt>
<trkpt lat="45.869284" lon="11.785896"><ele>1541.95</ele><time>2022-02-05T14:13:38Z</time></trkpt>
<trkpt lat="45.869266" lon="11.785763"><ele>1541.45</ele><time>2022-02-05T14:13:40Z</time></trkpt>
<trkpt lat="45.869303" lon="11.785598"><ele>1541.19</ele><time>2022-02-05T14:13:42Z</time></trkpt>
<trkpt lat="45.869464" lon="11.785381"><ele>1540.76</ele><time>2022-02-05T14:13:43Z</time></trkpt>
<trkpt lat="45.869622" lon="11.785301"><ele>1541.9</ele><time>2022-02-05T14:13:45Z</time></trkpt>
<trkpt lat="45.870033" lon="11.785368"><ele>1546.07</ele><time>2022-02-05T14:13:46Z</time></trkpt>
<trkpt lat="45.871258" lon="11.785397"><ele>1553.75</ele><time>2022-02-05T14:13:48Z</time></trkpt>
<trkpt lat="45.871853" lon="11.785557"><ele>1560.01</ele><time>2022-02-05T14:13:49Z</time></trkpt>
<trkpt lat="45.872185" lon="11.785953"><ele>1561.45</ele><time>2022-02-05T14:13:51Z</time></trkpt>
<trkpt lat="45.872433" lon="11.786507"><ele>1563.29</ele><time>2022-02-05T14:13:53Z</time></trkpt>
<trkpt lat="45.872618" lon="11.787393"><ele>1568.52</ele><time>2022-02-05T14:13:54Z</time></trkpt>
<trkpt lat="45.872658" lon="11.78797"><ele>1579.0</ele><time>2022-02-05T14:13:56Z</time></trkpt>
<trkpt lat="45.872769" lon="11.788404"><ele>1580.25</ele><time>2022-02-05T14:13:57Z</time></trkpt>
<trkpt lat="45.872805" lon="11.788682"><ele>1574.1</ele><time>2022-02-05T14:13:59Z</time></trkpt>
<trkpt lat="45.872745" lon="11.78918"><ele>1572.32</ele><time>2022-02-05T14:14:01Z</time></trkpt>
<trkpt lat="45.872538" lon="11.789692"><ele>1579.55</ele><time>2022-02-05T14:14:02Z</time></trkpt>
<trkpt lat="45.872325" lon="11.790448"><ele>1585.26</ele><time>2022-02-05T14:14:04Z</time></trkpt>
<trkpt lat="45.872385" lon="11.790671"><ele>1585.8</ele><time>2022-02-05T14:14:05Z</time></trkpt>
<trkpt lat="45.872777" lon="11.79095"><ele>1588.37</ele><time>2022-02-05T14:14:07Z</time></trkpt>
<trkpt lat="45.873197" lon="11.791513"><ele>1588.25</ele><time>2022-02-05T14:14:09Z</time></trkpt>
<trkpt lat="45.873503" lon="11.792186"><ele>1590.84</ele><time>2022-02-05T14:14:10Z</time></trkpt>
<trkpt lat="45.873895" lon="11.793363"><ele>1601.4</ele><time>2022-02-05T14:14:12Z</time></trkpt>
<trkpt lat="45.873924" lon="11.793978"><ele>1605.13</ele><time>2022-02-05T14:14:13Z</time></trkpt>
<trkpt lat="45.873828" lon="11.794309"><ele>1606.46</ele><time>2022-02-05T14:14:15Z</time></trkpt>
<trkpt lat="45.873842" lon="11.794666"><ele>1607.92</ele><time>2022-02-05T14:14:17Z</time></trkpt>
<trkpt lat="45.873957" lon="11.794995"><ele>1612.66</ele><time>2022-02-05T14:14:18Z</time></trkpt>
<trkpt lat="45.874422" lon="11.795618"><ele>1611.93</ele><time>2022-02-05T14:14:20Z</time></trkpt>
<trkpt lat="45.874858" lon="11.796092"><ele>1610.8</ele><time>2022-02-05T14:14:21Z</time></trkpt>
<trkpt lat="45.875068" lon="11.796287"><ele>1611.48</ele><time>2022-02-05T14:14:23Z</time></trkpt>
<trkpt lat="45.875275" lon="11.796373"><ele>1609.65</ele><time>2022-02-05T14:14:25Z</time></trkpt>
<trkpt lat="45.875395" lon="11.796379"><ele>1606.8</ele><time>2022-02-05T14:14:26Z</time></trkpt>
<trkpt lat="45.875501" lon="11.796451"><ele>1606.05</ele><time>2022-02-05T14:14:28Z</time></trkpt>
<trkpt lat="45.875601" lon="11.796664"><ele>1607.96</ele><time>2022-02-05T14:14:29Z</time></trkpt>
<trkpt lat="45.875682" lon="11.79689"><ele>1609.72</ele><time>2022-02-05T14:14:31Z</time></trkpt>
<trkpt lat="45.875855" lon="11.797209"><ele>1611.67</ele><time>2022-02-05T14:14:32Z</time></trkpt>
<trkpt lat="45.875995" lon="11.797362"><ele>1616.44</ele><time>2022-02-05T14:14:34Z</time></trkpt>
<trkpt lat="45.87613" lon="11.797406"><ele>1617.53</ele><time>2022-02-05T14:14:36Z</time></trkpt>
<trkpt lat="45.876302" lon="11.797345"><ele>1618.36</ele><time>2022-02-05T14:14:37Z</time></trkpt>
<trkpt lat="45.877132" lon="11.796683"><ele>1611.62</ele><time>2022-02-05T14:14:39Z</time></trkpt>
<trkpt lat="45.877394" lon="11.796556"><ele>1610.35</ele><time>2022-02-05T14:14:40Z</time></trkpt>
<trkpt lat="45.8777" lon="11.796471"><ele>1612.11</ele><time>2022-02-05T14:14:42Z</time></trkpt>
<trkpt lat="45.877981" lon="11.796756"><ele>1618.42</ele><time>2022-02-05T14:14:44Z</time></trkpt>
<trkpt lat="45.878156" lon="11.796881"><ele>1622.02</ele><time>2022-02-05T14:14:45Z</time></trkpt>
<trkpt lat="45.878303" lon="11.79685"><ele>1623.28</ele><time>2022-02-05T14:14:47Z</time></trkpt>
<trkpt lat="45.878992" lon="11.796167"><ele>1619.43</ele><time>2022-02-05T14:14:48Z</time></trkpt>
<trkpt lat="45.879211" lon="11.795998"><ele>1620.8</ele><time>2022-02-05T14:14:50Z</time></trkpt>
<trkpt lat="45.879288" lon="11.795822"><ele>1618.56</ele><time>2022-02-05T14:14:52Z</time></trkpt>
<trkpt lat="45.879264" lon="11.79522"><ele>1609.37</ele><time>2022-02-05T14:14:53Z</time></trkpt>
<trkpt lat="45.879295" lon="11.795126"><ele>1608.69</ele><time>2022-02-05T14:14:55Z</time></trkpt>
<trkpt lat="45.879573" lon="11.794777"><ele>1610.62</ele><time>2022-02-05T14:14:56Z</time></trkpt>
<trkpt lat="45.879927" lon="11.794414"><ele>1614.86</ele><time>2022-02-05T14:14:58Z</time></trkpt>
<trkpt lat="45.880082" lon="11.794158"><ele>1615.74</ele><time>2022-02-05T14:15:00Z</time></trkpt>
<trkpt lat="45.880209" lon="11.793808"><ele>1609.99</ele><time>2022-02-05T14:15:01Z</time></trkpt>
<trkpt lat="45.880387" lon="11.793632"><ele>1606.75</ele><time>2022-02-05T14:15:03Z</time></trkpt>
<trkpt lat="45.880577" lon="11.793505"><ele>1604.96</ele><time>2022-02-05T14:15:04Z</time></trkpt>
<trkpt lat="45.880761" lon="11.793419"><ele>1605.19</ele><time>2022-02-05T14:15:06Z</time></trkpt>
<trkpt lat="45.880872" lon="11.793297"><ele>1602.9</ele><time>2022-02-05T14:15:07Z</time></trkpt>
<trkpt lat="45.880985" lon="11.792853"><ele>1593.5</ele><time>2022-02-05T14:15:09Z</time></trkpt>
<trkpt lat="45.881098" lon="11.792663"><ele>1590.54</ele><time>2022-02-05T14:15:11Z</time></trkpt>
<trkpt lat="45.88127" lon="11.79263"><ele>1590.88</ele><time>2022-02-05T14:15:12Z</time></trkpt>
<trkpt lat="45.881692" lon="11.792736"><ele>1596.53</ele><time>2022-02-05T14:15:14Z</time></trkpt>
<trkpt lat="45.881775" lon="11.792713"><ele>1598.27</ele><time>2022-02-05T14:15:15Z</time></trkpt>
<trkpt lat="45.881877" lon="11.792604"><ele>1598.03</ele><time>2022-02-05T14:15:17Z</time></trkpt>
<trkpt lat="45.881936" lon="11.792479"><ele>1596.17</ele><time>2022-02-05T14:15:19Z</time></trkpt>
<trkpt lat="45.882275" lon="11.791298"><ele>1581.06</ele><time>2022-02-05T14:15:20Z</time></trkpt>
<trkpt lat="45.882613" lon="11.790385"><ele>1572.29</ele><time>2022-02-05T14:15:22Z</time></trkpt>
<trkpt lat="45.882798" lon="11.790006"><ele>1567.77</ele><time>2022-02-05T14:15:23Z</time></trkpt>
<trkpt lat="45.883195" lon="11.789539"><ele>1564.75</ele><time>2022-02-05T14:15:25Z</time></trkpt>
<trkpt lat="45.883609" lon="11.788877"><ele>1559.58</ele><time>2022-02-05T14:15:27Z</time></trkpt>
<trkpt lat="45.883897" lon="11.78868"><ele>1555.11</ele><time>2022-02-05T14:15:28Z</time></trkpt>
<trkpt lat="45.884125" lon="11.78858"><ele>1554.46</ele><time>2022-02-05T14:15:30Z</time></trkpt>
<trkpt lat="45.884347" lon="11.788524"><ele>1558.03</ele><time>2022-02-05T14:15:31Z</time></trkpt>
<trkpt lat="45.88448" lon="11.788434"><ele>1559.05</ele><time>2022-02-05T14:15:33Z</time></trkpt>
<trkpt lat="45.884552" lon="11.788325"><ele>1558.26</ele><time>2022-02-05T14:15:35Z</time></trkpt>
<trkpt lat="45.884662" lon="11.788062"><ele>1555.21</ele><time>2022-02-05T14:15:36Z</time></trkpt>
<trkpt lat="45.884835" lon="11.787435"><ele>1548.8</ele><time>2022-02-05T14:15:38Z</time></trkpt>
<trkpt lat="45.88492" lon="11.787017"><ele>1547.04</ele><time>2022-02-05T14:15:39Z</time></trkpt>
<trkpt lat="45.884997" lon="11.786119"><ele>1536.98</ele><time>2022-02-05T14:15:41Z</time></trkpt>
<trkpt lat="45.885027" lon="11.785966"><ele>1536.26</ele><time>2022-02-05T14:15:43Z</time></trkpt>
<trkpt lat="45.885152" lon="11.785537"><ele>1534.63</ele><time>2022-02-05T14:15:44Z</time></trkpt>
<trkpt lat="45.885173" lon="11.785368"><ele>1532.65</ele><time>2022-02-05T14:15:46Z</time></trkpt>
<trkpt lat="45.88519" lon="11.784319"><ele>1525.6</ele><time>2022-02-05T14:15:47Z</time></trkpt>
<trkpt lat="45.885238" lon="11.783923"><ele>1523.39</ele><time>2022-02-05T14:15:49Z</time></trkpt>
<trkpt lat="45.88551" lon="11.782845"><ele>1515.02</ele><time>2022-02-05T14:15:50Z</time></trkpt>
<trkpt lat="45.88562" lon="11.782556"><ele>1513.2</ele><time>2022-02-05T14:15:52Z</time></trkpt>
<trkpt lat="45.885955" lon="11.782059"><ele>1515.09</ele><time>2022-02-05T14:15:54Z</time></trkpt>
<trkpt lat="45.886012" lon="11.781925"><ele>1515.76</ele><time>2022-02-05T14:15:55Z</time></trkpt>
<trkpt lat="45.886206" lon="11.781277"><ele>1515.04</ele><time>2022-02-05T14:15:57Z</time></trkpt>
<trkpt lat="45.886305" lon="11.781051"><ele>1512.74</ele><time>2022-02-05T14:15:58Z</time></trkpt>
<trkpt lat="45.886425" lon="11.78085"><ele>1509.93</ele><time>2022-02-05T14:16:00Z</time></trkpt>
<trkpt lat="45.886556" lon="11.780678"><ele>1507.49</ele><time>2022-02-05T14:16:02Z</time></trkpt>
<trkpt lat="45.8868" lon="11.780421"><ele>1507.42</ele><time>2022-02-05T14:16:03Z</time></trkpt>
<trkpt lat="45.886977" lon="11.780186"><ele>1508.4</ele><time>2022-02-05T14:16:05Z</time></trkpt>
<trkpt lat="45.887106" lon="11.779906"><ele>1507.36</ele><time>2022-02-05T14:16:06Z</time></trkpt>
<trkpt lat="45.887214" lon="11.779595"><ele>1506.89</ele><time>2022-02-05T14:16:08Z</time></trkpt>
<trkpt lat="45.887257" lon="11.779424"><ele>1506.55</ele><time>2022-02-05T14:16:10Z</time></trkpt>
<trkpt lat="45.887293" lon="11.778882"><ele>1501.99</ele><time>2022-02-05T14:16:11Z</time></trkpt>
<trkpt lat="45.887345" lon="11.778459"><ele>1499.04</ele><time>2022-02-05T14:16:13Z</time></trkpt>
<trkpt lat="45.887381" lon="11.778298"><ele>1497.64</ele><time>2022-02-05T14:16:14Z</time></trkpt>
<trkpt lat="45.887478" lon="11.778084"><ele>1497.7</ele><time>2022-02-05T14:16:16Z</time></trkpt>
<trkpt lat="45.887708" lon="11.777707"><ele>1499.1</ele><time>2022-02-05T14:16:18Z</time></trkpt>
<trkpt lat="45.887786" lon="11.777494"><ele>1500.13</ele><time>2022-02-05T14:16:19Z</time></trkpt>
<trkpt lat="45.887838" lon="11.777161"><ele>1500.0</ele><time>2022-02-05T14:16:21Z</time></trkpt>
<trkpt lat="45.887991" lon="11.775861"><ele>1497.73</ele><time>2022-02-05T14:16:22Z</time></trkpt>
<trkpt lat="45.887976" lon="11.775119"><ele>1495.77</ele><time>2022-02-05T14:16:24Z</time></trkpt>
<trkpt lat="45.888005" lon="11.774783"><ele>1493.66</ele><time>2022-02-05T14:16:26Z</time></trkpt>
<trkpt lat="45.888163" lon="11.773995"><ele>1496.41</ele><time>2022-02-05T14:16:27Z</time></trkpt>
<trkpt lat="45.888233" lon="11.773192"><ele>1492.56</ele><time>2022-02-05T14:16:29Z</time></trkpt>
<trkpt lat="45.888213" lon="11.772874"><ele>1492.04</ele><time>2022-02-05T14:16:30Z</time></trkpt>
<trkpt lat="45.888177" lon="11.772633"><ele>1491.33</ele><time>2022-02-05T14:16:32Z</time></trkpt>
<trkpt lat="45.887812" lon="11.771384"><ele>1485.88</ele><time>2022-02-05T14:16:33Z</time></trkpt>
<trkpt lat="45.88779" lon="11.771254"><ele>1485.75</ele><time>2022-02-05T14:16:35Z</time></trkpt>
<trkpt lat="45.887784" lon="11.771097"><ele>1486.01</ele><time>2022-02-05T14:16:37Z</time></trkpt>
<trkpt lat="45.887869" lon="11.770814"><ele>1484.99</ele><time>2022-02-05T14:16:38Z</time></trkpt>
<trkpt lat="45.887986" lon="11.770672"><ele>1484.53</ele><time>2022-02-05T14:16:40Z</time></trkpt>
<trkpt lat="45.888043" lon="11.770634"><ele>1484.92</ele><time>2022-02-05T14:16:41Z</time></trkpt>
<trkpt lat="45.88813" lon="11.770615"><ele>1484.22</ele><time>2022-02-05T14:16:43Z</time></trkpt>
<trkpt lat="45.888263" lon="11.770619"><ele>1483.19</ele><time>2022-02-05T14:16:45Z</time></trkpt>
<trkpt lat="45.888892" lon="11.770732"><ele>1476.02</ele><time>2022-02-05T14:16:46Z</time></trkpt>
<trkpt lat="45.8894" lon="11.770735"><ele>1467.7</ele><time>2022-02-05T14:16:48Z</time></trkpt>
<trkpt lat="45.889977" lon="11.770458"><ele>1460.67</ele><time>2022-02-05T14:16:49Z</time></trkpt>
<trkpt lat="45.891504" lon="11.768918"><ele>1437.33</ele><time>2022-02-05T14:16:51Z</time></trkpt>
<trkpt lat="45.891651" lon="11.768852"><ele>1438.1</ele><time>2022-02-05T14:16:53Z</time></trkpt>
<trkpt lat="45.891759" lon="11.768877"><ele>1438.81</ele><time>2022-02-05T14:16:54Z</time></trkpt>
<trkpt lat="45.891859" lon="11.768997"><ele>1439.48</ele><time>2022-02-05T14:16:56Z</time></trkpt>
<trkpt lat="45.891881" lon="11.769225"><ele>1439.81</ele><time>2022-02-05T14:16:57Z</time></trkpt>
<trkpt lat="45.891789" lon="11.769538"><ele>1439.81</ele><time>2022-02-05T14:16:59Z</time></trkpt>
<trkpt lat="45.89139" lon="11.770306"><ele>1441.47</ele><time>2022-02-05T14:17:01Z</time></trkpt>
<trkpt lat="45.891028" lon="11.77136"><ele>1441.27</ele><time>2022-02-05T14:17:02Z</time></trkpt>
<trkpt lat="45.890874" lon="11.771685"><ele>1445.38</ele><time>2022-02-05T14:17:04Z</time></trkpt>
<trkpt lat="45.890837" lon="11.771939"><ele>1444.81</ele><time>2022-02-05T14:17:05Z</time></trkpt>
<trkpt lat="45.890887" lon="11.772191"><ele>1444.18</ele><time>2022-02-05T14:17:07Z</time></trkpt>
<trkpt lat="45.891305" lon="11.772619"><ele>1428.97</ele><time>2022-02-05T14:17:08Z</time></trkpt>
<trkpt lat="45.891421" lon="11.772835"><ele>1426.49</ele><time>2022-02-05T14:17:10Z</time></trkpt>
<trkpt lat="45.891558" lon="11.773268"><ele>1426.57</ele><time>2022-02-05T14:17:12Z</time></trkpt>
<trkpt lat="45.891669" lon="11.773458"><ele>1425.14</ele><time>2022-02-05T14:17:13Z</time></trkpt>
<trkpt lat="45.892221" lon="11.773901"><ele>1419.33</ele><time>2022-02-05T14:17:15Z</time></trkpt>
<trkpt lat="45.892787" lon="11.774563"><ele>1421.64</ele><time>2022-02-05T14:17:16Z</time></trkpt>
<trkpt lat="45.893163" lon="11.77489"><ele>1413.02</ele><time>2022-02-05T14:17:18Z</time></trkpt>
<trkpt lat="45.893702" lon="11.775235"><ele>1400.32</ele><time>2022-02-05T14:17:20Z</time></trkpt>
<trkpt lat="45.894077" lon="11.775395"><ele>1392.57</ele><time>2022-02-05T14:17:21Z</time></trkpt>
<trkpt lat="45.89427" lon="11.775561"><ele>1390.14</ele><time>2022-02-05T14:17:23Z</time></trkpt>
<trkpt lat="45.894428" lon="11.775785"><ele>1388.02</ele><time>2022-02-05T14:17:24Z</time></trkpt>
<trkpt lat="45.894634" lon="11.776152"><ele>1386.91</ele><time>2022-02-05T14:17:26Z</time></trkpt>
<trkpt lat="45.894785" lon="11.776466"><ele>1387.85</ele><time>2022-02-05T14:17:28Z</time></trkpt>
<trkpt lat="45.894931" lon="11.776714"><ele>1390.92</ele><time>2022-02-05T14:17:29Z</time></trkpt>
<trkpt lat="45.894997" lon="11.776883"><ele>1391.94</ele><time>2022-02-05T14:17:31Z</time></trkpt>
<trkpt lat="45.89502" lon="11.777073"><ele>1393.78</ele><time>2022-02-05T14:17:32Z</time></trkpt>
<trkpt lat="45.894817" lon="11.77764"><ele>1394.09</ele><time>2022-02-05T14:17:34Z</time></trkpt>
<trkpt lat="45.894804" lon="11.778352"><ele>1401.27</ele><time>2022-02-05T14:17:36Z</time></trkpt>
<trkpt lat="45.894933" lon="11.779068"><ele>1401.81</ele><time>2022-02-05T14:17:37Z</time></trkpt>
<trkpt lat="45.895471" lon="11.779841"><ele>1402.8</ele><time>2022-02-05T14:17:39Z</time></trkpt>
<trkpt lat="45.895806" lon="11.779927"><ele>1404.77</ele><time>2022-02-05T14:17:41Z</time></trkpt>
<trkpt lat="45.895806" lon="11.779927"><ele>1404.77</ele><time>2022-02-05T14:17:41Z</time></trkpt>
<trkpt lat="45.895839" lon="11.779936"><ele>1406.74</ele><time>2022-02-05T14:17:43Z</time></trkpt>
<trkpt lat="45.896207" lon="11.779833"><ele>1408.6</ele><time>2022-02-05T14:17:45Z</time></trkpt>
<trkpt lat="45.897016" lon="11.780049"><ele>1414.64</ele><time>2022-02-05T14:17:47Z</time></trkpt>
<trkpt lat="45.897572" lon="11.780069"><ele>1425.04</ele><time>2022-02-05T14:17:49Z</time></trkpt>
<trkpt lat="45.898143" lon="11.779977"><ele>1431.39</ele><time>2022-02-05T14:17:51Z</time></trkpt>
<trkpt lat="45.898737" lon="11.780372"><ele>1430.84</ele><time>2022-02-05T14:17:53Z</time></trkpt>
<trkpt lat="45.89918" lon="11.780613"><ele>1430.88</ele><time>2022-02-05T14:17:56Z</time></trkpt>
<trkpt lat="45.901425" lon="11.780863"><ele>1438.45</ele><time>2022-02-05T14:17:58Z</time></trkpt>
<trkpt lat="45.90188" lon="11.780991"><ele>1435.5</ele><time>2022-02-05T14:18:00Z</time></trkpt>
<trkpt lat="45.902363" lon="11.781245"><ele>1438.76</ele><time>2022-02-05T14:18:02Z</time></trkpt>
<trkpt lat="45.902856" lon="11.781751"><ele>1447.75</ele><time>2022-02-05T14:18:04Z</time></trkpt>
<trkpt lat="45.90317" lon="11.782264"><ele>1450.5</ele><time>2022-02-05T14:18:06Z</time></trkpt>
<trkpt lat="45.903368" lon="11.783051"><ele>1449.16</ele><time>2022-02-05T14:18:08Z</time></trkpt>
<trkpt lat="45.903499" lon="11.783812"><ele>1447.46</ele><time>2022-02-05T14:18:11Z</time></trkpt>
<trkpt lat="45.903698" lon="11.7839"><ele>1449.78</ele><time>2022-02-05T14:18:13Z</time></trkpt>
<trkpt lat="45.903963" lon="11.783817"><ele>1452.25</ele><time>2022-02-05T14:18:15Z</time></trkpt>
<trkpt lat="45.904065" lon="11.783095"><ele>1458.95</ele><time>2022-02-05T14:18:17Z</time></trkpt>
<trkpt lat="45.904408" lon="11.782542"><ele>1461.95</ele><time>2022-02-05T14:18:19Z</time></trkpt>
<trkpt lat="45.904674" lon="11.782435"><ele>1461.2</ele><time>2022-02-05T14:18:21Z</time></trkpt>
<trkpt lat="45.904984" lon="11.782202"><ele>1463.27</ele><time>2022-02-05T14:18:23Z</time></trkpt>
<trkpt lat="45.90549" lon="11.781657"><ele>1462.01</ele><time>2022-02-05T14:18:25Z</time></trkpt>
<trkpt lat="45.906166" lon="11.781292"><ele>1463.28</ele><time>2022-02-05T14:18:28Z</time></trkpt>
<trkpt lat="45.906772" lon="11.781234"><ele>1456.69</ele><time>2022-02-05T14:18:30Z</time></trkpt>
<trkpt lat="45.907415" lon="11.78097"><ele>1454.97</ele><time>2022-02-05T14:18:32Z</time></trkpt>
<trkpt lat="45.907624" lon="11.780977"><ele>1451.65</ele><time>2022-02-05T14:18:34Z</time></trkpt>
<trkpt lat="45.908234" lon="11.781304"><ele>1438.34</ele><time>2022-02-05T14:18:36Z</time></trkpt>
<trkpt lat="45.908366" lon="11.781404"><ele>1435.98</ele><time>2022-02-05T14:18:38Z</time></trkpt>
<trkpt lat="45.908672" lon="11.781826"><ele>1429.79</ele><time>2022-02-05T14:18:40Z</time></trkpt>
<trkpt lat="45.908908" lon="11.78231"><ele>1422.26</ele><time>2022-02-05T14:18:43Z</time></trkpt>
<trkpt lat="45.909418" lon="11.783102"><ele>1412.56</ele><time>2022-02-05T14:18:45Z</time></trkpt>
<trkpt lat="45.909516" lon="11.783437"><ele>1406.95</ele><time>2022-02-05T14:18:47Z</time></trkpt>
<trkpt lat="45.909678" lon="11.783751"><ele>1401.51</ele><time>2022-02-05T14:18:49Z</time></trkpt>
<trkpt lat="45.909898" lon="11.783861"><ele>1399.42</ele><time>2022-02-05T14:18:51Z</time></trkpt>
<trkpt lat="45.910085" lon="11.78389"><ele>1397.75</ele><time>2022-02-05T14:18:53Z</time></trkpt>
<trkpt lat="45.910268" lon="11.78395"><ele>1394.02</ele><time>2022-02-05T14:18:55Z</time></trkpt>
<trkpt lat="45.910372" lon="11.784083"><ele>1390.96</ele><time>2022-02-05T14:18:58Z</time></trkpt>
<trkpt lat="45.91073" lon="11.7847"><ele>1384.0</ele><time>2022-02-05T14:19:00Z</time></trkpt>
<trkpt lat="45.911273" lon="11.785439"><ele>1381.27</ele><time>2022-02-05T14:19:02Z</time></trkpt>
<trkpt lat="45.911673" lon="11.785863"><ele>1385.84</ele><time>2022-02-05T14:19:04Z</time></trkpt>
<trkpt lat="45.911986" lon="11.786159"><ele>1389.2</ele><time>2022-02-05T14:19:06Z</time></trkpt>
<trkpt lat="45.912815" lon="11.786855"><ele>1396.67</ele><time>2022-02-05T14:19:08Z</time></trkpt>
<trkpt lat="45.913253" lon="11.787401"><ele>1401.31</ele><time>2022-02-05T14:19:10Z</time></trkpt>
<trkpt lat="45.914139" lon="11.788181"><ele>1412.05</ele><time>2022-02-05T14:19:13Z</time></trkpt>
<trkpt lat="45.914684" lon="11.789184"><ele>1415.23</ele><time>2022-02-05T14:19:15Z</time></trkpt>
<trkpt lat="45.914885" lon="11.78939"><ele>1416.33</ele><time>2022-02-05T14:19:17Z</time></trkpt>
<trkpt lat="45.915441" lon="11.789518"><ele>1409.12</ele><time>2022-02-05T14:19:19Z</time></trkpt>
<trkpt lat="45.915691" lon="11.789935"><ele>1417.22</ele><time>2022-02-05T14:19:21Z</time></trkpt>
<trkpt lat="45.916039" lon="11.790211"><ele>1419.45</ele><time>2022-02-05T14:19:23Z</time></trkpt>
<trkpt lat="45.916307" lon="11.790253"><ele>1417.14</ele><time>2022-02-05T14:19:25Z</time></trkpt>
<trkpt lat="45.917367" lon="11.790094"><ele>1412.73</ele><time>2022-02-05T14:19:28Z</time></trkpt>
<trkpt lat="45.918098" lon="11.79011"><ele>1412.05</ele><time>2022-02-05T14:19:30Z</time></trkpt>
<trkpt lat="45.918723" lon="11.790203"><ele>1409.55</ele><time>2022-02-05T14:19:32Z</time></trkpt>
<trkpt lat="45.919885" lon="11.790167"><ele>1398.69</ele><time>2022-02-05T14:19:34Z</time></trkpt>
<trkpt lat="45.92038" lon="11.789966"><ele>1391.2</ele><time>2022-02-05T14:19:36Z</time></trkpt>
<trkpt lat="45.920858" lon="11.789628"><ele>1385.02</ele><time>2022-02-05T14:19:38Z</time></trkpt>
<trkpt lat="45.921375" lon="11.78906"><ele>1379.19</ele><time>2022-02-05T14:19:40Z</time></trkpt>
<trkpt lat="45.921602" lon="11.788905"><ele>1378.79</ele><time>2022-02-05T14:19:43Z</time></trkpt>
<trkpt lat="45.921944" lon="11.788861"><ele>1378.9</ele><time>2022-02-05T14:19:45Z</time></trkpt>
<trkpt lat="45.922335" lon="11.788952"><ele>1382.58</ele><time>2022-02-05T14:19:47Z</time></trkpt>
<trkpt lat="45.922667" lon="11.788959"><ele>1382.79</ele><time>2022-02-05T14:19:49Z</time></trkpt>
<trkpt lat="45.922988" lon="11.78875"><ele>1382.11</ele><time>2022-02-05T14:19:51Z</time></trkpt>
<trkpt lat="45.923407" lon="11.78843"><ele>1381.84</ele><time>2022-02-05T14:19:53Z</time></trkpt>
<trkpt lat="45.923853" lon="11.788145"><ele>1383.37</ele><time>2022-02-05T14:19:55Z</time></trkpt>
<trkpt lat="45.924886" lon="11.787818"><ele>1376.88</ele><time>2022-02-05T14:19:58Z</time></trkpt>
<trkpt lat="45.925482" lon="11.787882"><ele>1371.76</ele><time>2022-02-05T14:20:00Z</time></trkpt>
<trkpt lat="45.925636" lon="11.787851"><ele>1371.0</ele><time>2022-02-05T14:20:02Z</time></trkpt>
<trkpt lat="45.92654" lon="11.787515"><ele>1368.14</ele><time>2022-02-05T14:20:04Z</time></trkpt>
<trkpt lat="45.927012" lon="11.787394"><ele>1369.16</ele><time>2022-02-05T14:20:06Z</time></trkpt>
<trkpt lat="45.92784" lon="11.787578"><ele>1369.67</ele><time>2022-02-05T14:20:08Z</time></trkpt>
<trkpt lat="45.928067" lon="11.787864"><ele>1371.27</ele><time>2022-02-05T14:20:10Z</time></trkpt>
<trkpt lat="45.92816" lon="11.787927"><ele>1372.55</ele><time>2022-02-05T14:20:13Z</time></trkpt>
<trkpt lat="45.928297" lon="11.787913"><ele>1372.79</ele><time>2022-02-05T14:20:15Z</time></trkpt>
<trkpt lat="45.92917" lon="11.787065"><ele>1365.17</ele><time>2022-02-05T14:20:17Z</time></trkpt>
<trkpt lat="45.929429" lon="11.786916"><ele>1362.19</ele><time>2022-02-05T14:20:19Z</time></trkpt>
<trkpt lat="45.929725" lon="11.786807"><ele>1358.05</ele><time>2022-02-05T14:20:21Z</time></trkpt>
<trkpt lat="45.929991" lon="11.786665"><ele>1353.97</ele><time>2022-02-05T14:20:23Z</time></trkpt>
<trkpt lat="45.930401" lon="11.786366"><ele>1347.48</ele><time>2022-02-05T14:20:25Z</time></trkpt>
<trkpt lat="45.930678" lon="11.7861"><ele>1339.27</ele><time>2022-02-05T14:20:28Z</time></trkpt>
<trkpt lat="45.930711" lon="11.78594"><ele>1335.13</ele><time>2022-02-05T14:20:30Z</time></trkpt>
<trkpt lat="45.930586" lon="11.78591"><ele>1334.83</ele><time>2022-02-05T14:20:32Z</time></trkpt>
<trkpt lat="45.930245" lon="11.78597"><ele>1338.02</ele><time>2022-02-05T14:20:34Z</time></trkpt>
<trkpt lat="45.930203" lon="11.785896"><ele>1336.43</ele><time>2022-02-05T14:20:36Z</time></trkpt>
<trkpt lat="45.930298" lon="11.785737"><ele>1333.15</ele><time>2022-02-05T14:20:38Z</time></trkpt>
<trkpt lat="45.93114" lon="11.785465"><ele>1320.77</ele><time>2022-02-05T14:20:40Z</time></trkpt>
<trkpt lat="45.931383" lon="11.78568"><ele>1325.23</ele><time>2022-02-05T14:20:43Z</time></trkpt>
<trkpt lat="45.931623" lon="11.785805"><ele>1325.31</ele><time>2022-02-05T14:20:45Z</time></trkpt>
<trkpt lat="45.932113" lon="11.784992"><ele>1315.46</ele><time>2022-02-05T14:20:47Z</time></trkpt>
<trkpt lat="45.932437" lon="11.78471"><ele>1311.71</ele><time>2022-02-05T14:20:49Z</time></trkpt>
<trkpt lat="45.932847" lon="11.784507"><ele>1303.54</ele><time>2022-02-05T14:20:51Z</time></trkpt>
<trkpt lat="45.93347" lon="11.783988"><ele>1292.71</ele><time>2022-02-05T14:20:53Z</time></trkpt>
<trkpt lat="45.93385" lon="11.783427"><ele>1289.16</ele><time>2022-02-05T14:20:55Z</time></trkpt>
<trkpt lat="45.934281" lon="11.783071"><ele>1286.56</ele><time>2022-02-05T14:20:58Z</time></trkpt>
<trkpt lat="45.93484" lon="11.782445"><ele>1289.33</ele><time>2022-02-05T14:21:00Z</time></trkpt>
<trkpt lat="45.935308" lon="11.781262"><ele>1285.55</ele><time>2022-02-05T14:21:02Z</time></trkpt>
<trkpt lat="45.9355" lon="11.781468"><ele>1287.08</ele><time>2022-02-05T14:21:04Z</time></trkpt>
<trkpt lat="45.935843" lon="11.781737"><ele>1283.83</ele><time>2022-02-05T14:21:06Z</time></trkpt>
<trkpt lat="45.936203" lon="11.781856"><ele>1278.11</ele><time>2022-02-05T14:21:08Z</time></trkpt>
<trkpt lat="45.936318" lon="11.78181"><ele>1277.13</ele><time>2022-02-05T14:21:10Z</time></trkpt>
<trkpt lat="45.93639" lon="11.781619"><ele>1276.98</ele><time>2022-02-05T14:21:13Z</time></trkpt>
<trkpt lat="45.936445" lon="11.781373"><ele>1276.75</ele><time>2022-02-05T14:21:15Z</time></trkpt>
<trkpt lat="45.936487" lon="11.780742"><ele>1273.58</ele><time>2022-02-05T14:21:17Z</time></trkpt>
<trkpt lat="45.936553" lon="11.780772"><ele>1274.02</ele><time>2022-02-05T14:21:19Z</time></trkpt>
<trkpt lat="45.936751" lon="11.781415"><ele>1273.93</ele><time>2022-02-05T14:21:21Z</time></trkpt>
<trkpt lat="45.936944" lon="11.781748"><ele>1268.01</ele><time>2022-02-05T14:21:23Z</time></trkpt>
<trkpt lat="45.937145" lon="11.781705"><ele>1265.11</ele><time>2022-02-05T14:21:25Z</time></trkpt>
<trkpt lat="45.937123" lon="11.781225"><ele>1265.96</ele><time>2022-02-05T14:21:28Z</time></trkpt>
<trkpt lat="45.937206" lon="11.781088"><ele>1263.32</ele><time>2022-02-05T14:21:30Z</time></trkpt>
<trkpt lat="45.937423" lon="11.781142"><ele>1258.69</ele><time>2022-02-05T14:21:32Z</time></trkpt>
<trkpt lat="45.93751" lon="11.781244"><ele>1256.73</ele><time>2022-02-05T14:21:34Z</time></trkpt>
<trkpt lat="45.937639" lon="11.781505"><ele>1253.3</ele><time>2022-02-05T14:21:36Z</time></trkpt>
<trkpt lat="45.937593" lon="11.781817"><ele>1254.15</ele><time>2022-02-05T14:21:38Z</time></trkpt>
<trkpt lat="45.93741" lon="11.782318"><ele>1260.04</ele><time>2022-02-05T14:21:40Z</time></trkpt>
<trkpt lat="45.937602" lon="11.782908"><ele>1255.47</ele><time>2022-02-05T14:21:43Z</time></trkpt>
<trkpt lat="45.937762" lon="11.783323"><ele>1249.51</ele><time>2022-02-05T14:21:45Z</time></trkpt>
<trkpt lat="45.937883" lon="11.784332"><ele>1230.53</ele><time>2022-02-05T14:21:47Z</time></trkpt>
<trkpt lat="45.937993" lon="11.7847"><ele>1226.68</ele><time>2022-02-05T14:21:49Z</time></trkpt>
<trkpt lat="45.93833" lon="11.785159"><ele>1225.01</ele><time>2022-02-05T14:21:51Z</time></trkpt>
<trkpt lat="45.938773" lon="11.786256"><ele>1218.97</ele><time>2022-02-05T14:21:53Z</time></trkpt>
<trkpt lat="45.938969" lon="11.786593"><ele>1214.54</ele><time>2022-02-05T14:21:55Z</time></trkpt>
<trkpt lat="45.939277" lon="11.787182"><ele>1206.1</ele><time>2022-02-05T14:21:58Z</time></trkpt>
<trkpt lat="45.939645" lon="11.787555"><ele>1201.94</ele><time>2022-02-05T14:22:00Z</time></trkpt>
<trkpt lat="45.94009" lon="11.788105"><ele>1199.65</ele><time>2022-02-05T14:22:02Z</time></trkpt>
<trkpt lat="45.940533" lon="11.788475"><ele>1192.26</ele><time>2022-02-05T14:22:04Z</time></trkpt>
<trkpt lat="45.940987" lon="11.789075"><ele>1184.02</ele><time>2022-02-05T14:22:06Z</time></trkpt>
<trkpt lat="45.941207" lon="11.78955"><ele>1183.63</ele><time>2022-02-05T14:22:08Z</time></trkpt>
<trkpt lat="45.941337" lon="11.79004"><ele>1187.94</ele><time>2022-02-05T14:22:10Z</time></trkpt>
<trkpt lat="45.941655" lon="11.790538"><ele>1193.81</ele><time>2022-02-05T14:22:13Z</time></trkpt>
<trkpt lat="45.941963" lon="11.790857"><ele>1189.78</ele><time>2022-02-05T14:22:15Z</time></trkpt>
<trkpt lat="45.942335" lon="11.79142"><ele>1188.57</ele><time>2022-02-05T14:22:17Z</time></trkpt>
<trkpt lat="45.942597" lon="11.791933"><ele>1187.99</ele><time>2022-02-05T14:22:19Z</time></trkpt>
<trkpt lat="45.942772" lon="11.792483"><ele>1186.17</ele><time>2022-02-05T14:22:21Z</time></trkpt>
<trkpt lat="45.94299" lon="11.792963"><ele>1178.97</ele><time>2022-02-05T14:22:23Z</time></trkpt>
<trkpt lat="45.943362" lon="11.793002"><ele>1169.06</ele><time>2022-02-05T14:22:25Z</time></trkpt>
<trkpt lat="45.943952" lon="11.793268"><ele>1161.16</ele><time>2022-02-05T14:22:28Z</time></trkpt>
<trkpt lat="45.944418" lon="11.793618"><ele>1160.2</ele><time>2022-02-05T14:22:30Z</time></trkpt>
<trkpt lat="45.944753" lon="11.794015"><ele>1159.84</ele><time>2022-02-05T14:22:32Z</time></trkpt>
<trkpt lat="45.945387" lon="11.794317"><ele>1145.74</ele><time>2022-02-05T14:22:34Z</time></trkpt>
<trkpt lat="45.945842" lon="11.794365"><ele>1137.81</ele><time>2022-02-05T14:22:36Z</time></trkpt>
<trkpt lat="45.946462" lon="11.794573"><ele>1133.99</ele><time>2022-02-05T14:22:38Z</time></trkpt>
<trkpt lat="45.946908" lon="11.794667"><ele>1131.37</ele><time>2022-02-05T14:22:40Z</time></trkpt>
<trkpt lat="45.947698" lon="11.79521"><ele>1126.69</ele><time>2022-02-05T14:22:43Z</time></trkpt>
<trkpt lat="45.94804" lon="11.795282"><ele>1122.38</ele><time>2022-02-05T14:22:45Z</time></trkpt>
<trkpt lat="45.948925" lon="11.795862"><ele>1112.75</ele><time>2022-02-05T14:22:47Z</time></trkpt>
<trkpt lat="45.94938" lon="11.796112"><ele>1099.34</ele><time>2022-02-05T14:22:49Z</time></trkpt>
<trkpt lat="45.949553" lon="11.79623"><ele>1096.6</ele><time>2022-02-05T14:22:51Z</time></trkpt>
<trkpt lat="45.949965" lon="11.796427"><ele>1092.8</ele><time>2022-02-05T14:22:53Z</time></trkpt>
<trkpt lat="45.950513" lon="11.796468"><ele>1092.76</ele><time>2022-02-05T14:22:55Z</time></trkpt>
<trkpt lat="45.95096" lon="11.796413"><ele>1085.99</ele><time>2022-02-05T14:22:58Z</time></trkpt>
<trkpt lat="45.951387" lon="11.7966"><ele>1089.9</ele><time>2022-02-05T14:23:00Z</time></trkpt>
<trkpt lat="45.951592" lon="11.79705"><ele>1106.22</ele><time>2022-02-05T14:23:02Z</time></trkpt>
<trkpt lat="45.951942" lon="11.797283"><ele>1108.78</ele><time>2022-02-05T14:23:04Z</time></trkpt>
<trkpt lat="45.952528" lon="11.797465"><ele>1105.96</ele><time>2022-02-05T14:23:06Z</time></trkpt>
<trkpt lat="45.952962" lon="11.797427"><ele>1095.88</ele><time>2022-02-05T14:23:08Z</time></trkpt>
<trkpt lat="45.95347" lon="11.797348"><ele>1092.39</ele><time>2022-02-05T14:23:10Z</time></trkpt>
<trkpt lat="45.95385" lon="11.797438"><ele>1097.24</ele><time>2022-02-05T14:23:13Z</time></trkpt>
<trkpt lat="45.954922" lon="11.797845"><ele>1109.48</ele><time>2022-02-05T14:23:15Z</time></trkpt>
<trkpt lat="45.955217" lon="11.797763"><ele>1103.22</ele><time>2022-02-05T14:23:17Z</time></trkpt>
<trkpt lat="45.95561" lon="11.797507"><ele>1092.65</ele><time>2022-02-05T14:23:19Z</time></trkpt>
<trkpt lat="45.955955" lon="11.79739"><ele>1094.7</ele><time>2022-02-05T14:23:21Z</time></trkpt>
<trkpt lat="45.956258" lon="11.797468"><ele>1101.68</ele><time>2022-02-05T14:23:23Z</time></trkpt>
<trkpt lat="45.956693" lon="11.797425"><ele>1100.07</ele><time>2022-02-05T14:23:25Z</time></trkpt>
<trkpt lat="45.956995" lon="11.797468"><ele>1103.77</ele><time>2022-02-05T14:23:28Z</time></trkpt>
<trkpt lat="45.957495" lon="11.797398"><ele>1107.76</ele><time>2022-02-05T14:23:30Z</time></trkpt>
<trkpt lat="45.957898" lon="11.797268"><ele>1104.12</ele><time>2022-02-05T14:23:32Z</time></trkpt>
<trkpt lat="45.958325" lon="11.797187"><ele>1108.86</ele><time>2022-02-05T14:23:34Z</time></trkpt>
<trkpt lat="45.959642" lon="11.796352"><ele>1102.63</ele><time>2022-02-05T14:23:36Z</time></trkpt>
<trkpt lat="45.959948" lon="11.796072"><ele>1097.53</ele><time>2022-02-05T14:23:38Z</time></trkpt>
<trkpt lat="45.960175" lon="11.795635"><ele>1091.86</ele><time>2022-02-05T14:23:40Z</time></trkpt>
<trkpt lat="45.960513" lon="11.795075"><ele>1087.47</ele><time>2022-02-05T14:23:43Z</time></trkpt>
<trkpt lat="45.960772" lon="11.79485"><ele>1086.4</ele><time>2022-02-05T14:23:45Z</time></trkpt>
<trkpt lat="45.961125" lon="11.794712"><ele>1084.79</ele><time>2022-02-05T14:23:47Z</time></trkpt>
<trkpt lat="45.961321" lon="11.794672"><ele>1082.68</ele><time>2022-02-05T14:23:49Z</time></trkpt>
<trkpt lat="45.961411" lon="11.794715"><ele>1082.16</ele><time>2022-02-05T14:23:51Z</time></trkpt>
<trkpt lat="45.961558" lon="11.794882"><ele>1080.27</ele><time>2022-02-05T14:23:53Z</time></trkpt>
<trkpt lat="45.961775" lon="11.795277"><ele>1078.92</ele><time>2022-02-05T14:23:55Z</time></trkpt>
<trkpt lat="45.96194" lon="11.795705"><ele>1077.89</ele><time>2022-02-05T14:23:58Z</time></trkpt>
<trkpt lat="45.962065" lon="11.796726"><ele>1080.32</ele><time>2022-02-05T14:24:00Z</time></trkpt>
<trkpt lat="45.962005" lon="11.796932"><ele>1081.82</ele><time>2022-02-05T14:24:02Z</time></trkpt>
<trkpt lat="45.961666" lon="11.797586"><ele>1085.21</ele><time>2022-02-05T14:24:04Z</time></trkpt>
<trkpt lat="45.961458" lon="11.798358"><ele>1079.4</ele><time>2022-02-05T14:24:06Z</time></trkpt>
<trkpt lat="45.961332" lon="11.799152"><ele>1071.75</ele><time>2022-02-05T14:24:08Z</time></trkpt>
<trkpt lat="45.961017" lon="11.799923"><ele>1077.52</ele><time>2022-02-05T14:24:10Z</time></trkpt>
<trkpt lat="45.960365" lon="11.80087"><ele>1076.36</ele><time>2022-02-05T14:24:13Z</time></trkpt>
<trkpt lat="45.959863" lon="11.801487"><ele>1065.16</ele><time>2022-02-05T14:24:15Z</time></trkpt>
<trkpt lat="45.959307" lon="11.801797"><ele>1075.17</ele><time>2022-02-05T14:24:17Z</time></trkpt>
<trkpt lat="45.959036" lon="11.802055"><ele>1081.68</ele><time>2022-02-05T14:24:19Z</time></trkpt>
<trkpt lat="45.958842" lon="11.802702"><ele>1081.91</ele><time>2022-02-05T14:24:21Z</time></trkpt>
<trkpt lat="45.958897" lon="11.802892"><ele>1080.95</ele><time>2022-02-05T14:24:23Z</time></trkpt>
<trkpt lat="45.959573" lon="11.802575"><ele>1062.31</ele><time>2022-02-05T14:24:25Z</time></trkpt>
<trkpt lat="45.959973" lon="11.802731"><ele>1059.06</ele><time>2022-02-05T14:24:27Z</time></trkpt>
<trkpt lat="45.960429" lon="11.80301"><ele>1052.66</ele><time>2022-02-05T14:24:30Z</time></trkpt>
<trkpt lat="45.960594" lon="11.803631"><ele>1059.51</ele><time>2022-02-05T14:24:32Z</time></trkpt>
<trkpt lat="45.960828" lon="11.803721"><ele>1054.94</ele><time>2022-02-05T14:24:34Z</time></trkpt>
<trkpt lat="45.961166" lon="11.80352"><ele>1046.37</ele><time>2022-02-05T14:24:36Z</time></trkpt>
<trkpt lat="45.961433" lon="11.803468"><ele>1043.91</ele><time>2022-02-05T14:24:38Z</time></trkpt>
<trkpt lat="45.961613" lon="11.803576"><ele>1043.76</ele><time>2022-02-05T14:24:40Z</time></trkpt>
<trkpt lat="45.962082" lon="11.804017"><ele>1045.44</ele><time>2022-02-05T14:24:42Z</time></trkpt>
<trkpt lat="45.962367" lon="11.803927"><ele>1038.51</ele><time>2022-02-05T14:24:45Z</time></trkpt>
<trkpt lat="45.962546" lon="11.803926"><ele>1037.2</ele><time>2022-02-05T14:24:47Z</time></trkpt>
<trkpt lat="45.962672" lon="11.804034"><ele>1037.21</ele><time>2022-02-05T14:24:49Z</time></trkpt>
<trkpt lat="45.962922" lon="11.804765"><ele>1044.93</ele><time>2022-02-05T14:24:51Z</time></trkpt>
<trkpt lat="45.963375" lon="11.805322"><ele>1048.11</ele><time>2022-02-05T14:24:53Z</time></trkpt>
<trkpt lat="45.964025" lon="11.805675"><ele>1039.84</ele><time>2022-02-05T14:24:55Z</time></trkpt>
<trkpt lat="45.964297" lon="11.805901"><ele>1039.91</ele><time>2022-02-05T14:24:57Z</time></trkpt>
<trkpt lat="45.964467" lon="11.80625"><ele>1042.61</ele><time>2022-02-05T14:25:00Z</time></trkpt>
<trkpt lat="45.964892" lon="11.806477"><ele>1030.23</ele><time>2022-02-05T14:25:02Z</time></trkpt>
<trkpt lat="45.965064" lon="11.806921"><ele>1033.92</ele><time>2022-02-05T14:25:04Z</time></trkpt>
<trkpt lat="45.965336" lon="11.807075"><ele>1031.79</ele><time>2022-02-05T14:25:06Z</time></trkpt>
<trkpt lat="45.965666" lon="11.806957"><ele>1024.65</ele><time>2022-02-05T14:25:08Z</time></trkpt>
<trkpt lat="45.965964" lon="11.806706"><ele>1019.96</ele><time>2022-02-05T14:25:10Z</time></trkpt>
<trkpt lat="45.966276" lon="11.806477"><ele>1015.75</ele><time>2022-02-05T14:25:12Z</time></trkpt>
<trkpt lat="45.96711" lon="11.806732"><ele>1014.87</ele><time>2022-02-05T14:25:15Z</time></trkpt>
<trkpt lat="45.967702" lon="11.80746"><ele>1015.31</ele><time>2022-02-05T14:25:17Z</time></trkpt>
<trkpt lat="45.968042" lon="11.807757"><ele>1016.82</ele><time>2022-02-05T14:25:19Z</time></trkpt>
<trkpt lat="45.968202" lon="11.807793"><ele>1017.77</ele><time>2022-02-05T14:25:21Z</time></trkpt>
<trkpt lat="45.968352" lon="11.807752"><ele>1017.76</ele><time>2022-02-05T14:25:23Z</time></trkpt>
<trkpt lat="45.968651" lon="11.807424"><ele>1013.06</ele><time>2022-02-05T14:25:25Z</time></trkpt>
<trkpt lat="45.969156" lon="11.807198"><ele>1008.31</ele><time>2022-02-05T14:25:27Z</time></trkpt>
<trkpt lat="45.96975" lon="11.807453"><ele>1013.54</ele><time>2022-02-05T14:25:30Z</time></trkpt>
<trkpt lat="45.970233" lon="11.80829"><ele>1016.79</ele><time>2022-02-05T14:25:32Z</time></trkpt>
<trkpt lat="45.970618" lon="11.808478"><ele>1014.59</ele><time>2022-02-05T14:25:34Z</time></trkpt>
<trkpt lat="45.971288" lon="11.808585"><ele>1010.94</ele><time>2022-02-05T14:25:36Z</time></trkpt>
<trkpt lat="45.971753" lon="11.80851"><ele>1005.96</ele><time>2022-02-05T14:25:38Z</time></trkpt>
<trkpt lat="45.972312" lon="11.808543"><ele>1004.5</ele><time>2022-02-05T14:25:40Z</time></trkpt>
<trkpt lat="45.973057" lon="11.808652"><ele>999.61</ele><time>2022-02-05T14:25:42Z</time></trkpt>
<trkpt lat="45.973535" lon="11.80857"><ele>998.49</ele><time>2022-02-05T14:25:45Z</time></trkpt>
<trkpt lat="45.973864" lon="11.808321"><ele>987.5</ele><time>2022-02-05T14:25:47Z</time></trkpt>
<trkpt lat="45.974228" lon="11.808237"><ele>982.93</ele><time>2022-02-05T14:25:49Z</time></trkpt>
<trkpt lat="45.974718" lon="11.808524"><ele>997.89</ele><time>2022-02-05T14:25:51Z</time></trkpt>
<trkpt lat="45.974884" lon="11.808494"><ele>996.2</ele><time>2022-02-05T14:25:53Z</time></trkpt>
<trkpt lat="45.975113" lon="11.807583"><ele>969.64</ele><time>2022-02-05T14:25:55Z</time></trkpt>
<trkpt lat="45.97526" lon="11.807236"><ele>962.87</ele><time>2022-02-05T14:25:57Z</time></trkpt>
<trkpt lat="45.975543" lon="11.807015"><ele>965.32</ele><time>2022-02-05T14:26:00Z</time></trkpt>
<trkpt lat="45.975756" lon="11.806713"><ele>958.28</ele><time>2022-02-05T14:26:02Z</time></trkpt>
<trkpt lat="45.975945" lon="11.806625"><ele>960.14</ele><time>2022-02-05T14:26:04Z</time></trkpt>
<trkpt lat="45.976612" lon="11.806543"><ele>958.11</ele><time>2022-02-05T14:26:06Z</time></trkpt>
<trkpt lat="45.9774" lon="11.806779"><ele>950.95</ele><time>2022-02-05T14:26:08Z</time></trkpt>
<trkpt lat="45.977598" lon="11.80664"><ele>944.19</ele><time>2022-02-05T14:26:10Z</time></trkpt>
<trkpt lat="45.977836" lon="11.80614"><ele>937.55</ele><time>2022-02-05T14:26:12Z</time></trkpt>
<trkpt lat="45.978083" lon="11.805895"><ele>933.22</ele><time>2022-02-05T14:26:15Z</time></trkpt>
<trkpt lat="45.978362" lon="11.80585"><ele>933.7</ele><time>2022-02-05T14:26:17Z</time></trkpt>
<trkpt lat="45.978627" lon="11.806018"><ele>940.11</ele><time>2022-02-05T14:26:19Z</time></trkpt>
<trkpt lat="45.979033" lon="11.806393"><ele>937.03</ele><time>2022-02-05T14:26:21Z</time></trkpt>
<trkpt lat="45.979492" lon="11.806748"><ele>936.77</ele><time>2022-02-05T14:26:23Z</time></trkpt>
<trkpt lat="45.979929" lon="11.807223"><ele>931.6</ele><time>2022-02-05T14:26:25Z</time></trkpt>
<trkpt lat="45.980125" lon="11.807498"><ele>932.44</ele><time>2022-02-05T14:26:27Z</time></trkpt>
<trkpt lat="45.980389" lon="11.807502"><ele>923.84</ele><time>2022-02-05T14:26:30Z</time></trkpt>
<trkpt lat="45.981129" lon="11.808277"><ele>927.67</ele><time>2022-02-05T14:26:32Z</time></trkpt>
<trkpt lat="45.981572" lon="11.808228"><ele>912.21</ele><time>2022-02-05T14:26:34Z</time></trkpt>
<trkpt lat="45.982125" lon="11.808925"><ele>913.8</ele><time>2022-02-05T14:26:36Z</time></trkpt>
<trkpt lat="45.982493" lon="11.809554"><ele>913.96</ele><time>2022-02-05T14:26:38Z</time></trkpt>
<trkpt lat="45.983045" lon="11.809988"><ele>904.24</ele><time>2022-02-05T14:26:40Z</time></trkpt>
<trkpt lat="45.983232" lon="11.810395"><ele>902.29</ele><time>2022-02-05T14:26:42Z</time></trkpt>
<trkpt lat="45.983472" lon="11.811391"><ele>902.52</ele><time>2022-02-05T14:26:45Z</time></trkpt>
<trkpt lat="45.98357" lon="11.811383"><ele>897.86</ele><time>2022-02-05T14:26:47Z</time></trkpt>
<trkpt lat="45.983598" lon="11.811235"><ele>895.45</ele><time>2022-02-05T14:26:49Z</time></trkpt>
<trkpt lat="45.983475" lon="11.810853"><ele>896.13</ele><time>2022-02-05T14:26:51Z</time></trkpt>
<trkpt lat="45.983448" lon="11.810364"><ele>895.36</ele><time>2022-02-05T14:26:53Z</time></trkpt>
<trkpt lat="45.983305" lon="11.809726"><ele>895.85</ele><time>2022-02-05T14:26:55Z</time></trkpt>
<trkpt lat="45.983218" lon="11.809074"><ele>892.6</ele><time>2022-02-05T14:26:57Z</time></trkpt>
<trkpt lat="45.982901" lon="11.808601"><ele>890.47</ele><time>2022-02-05T14:27:00Z</time></trkpt>
<trkpt lat="45.982483" lon="11.807694"><ele>888.5</ele><time>2022-02-05T14:27:02Z</time></trkpt>
<trkpt lat="45.982483" lon="11.807694"><ele>888.5</ele><time>2022-02-05T14:27:02Z</time></trkpt>
<trkpt lat="45.982455" lon="11.807633"><ele>886.52</ele><time>2022-02-05T14:27:04Z</time></trkpt>
<trkpt lat="45.981949" lon="11.806925"><ele>884.6</ele><time>2022-02-05T14:27:06Z</time></trkpt>
<trkpt lat="45.981873" lon="11.8063"><ele>874.3</ele><time>2022-02-05T14:27:08Z</time></trkpt>
<trkpt lat="45.981481" lon="11.805669"><ele>867.18</ele><time>2022-02-05T14:27:10Z</time></trkpt>
<trkpt lat="45.981058" lon="11.805131"><ele>864.07</ele><time>2022-02-05T14:27:12Z</time></trkpt>
<trkpt lat="45.981035" lon="11.804892"><ele>861.38</ele><time>2022-02-05T14:27:14Z</time></trkpt>
<trkpt lat="45.981208" lon="11.804893"><ele>858.15</ele><time>2022-02-05T14:27:16Z</time></trkpt>
<trkpt lat="45.981403" lon="11.805159"><ele>858.16</ele><time>2022-02-05T14:27:18Z</time></trkpt>
<trkpt lat="45.982225" lon="11.805512"><ele>851.16</ele><time>2022-02-05T14:27:20Z</time></trkpt>
<trkpt lat="45.982646" lon="11.805931"><ele>853.02</ele><time>2022-02-05T14:27:22Z</time></trkpt>
<trkpt lat="45.982935" lon="11.805857"><ele>845.04</ele><time>2022-02-05T14:27:24Z</time></trkpt>
<trkpt lat="45.983597" lon="11.806372"><ele>844.0</ele><time>2022-02-05T14:27:26Z</time></trkpt>
<trkpt lat="45.984407" lon="11.807428"><ele>838.72</ele><time>2022-02-05T14:27:28Z</time></trkpt>
<trkpt lat="45.984837" lon="11.807574"><ele>826.72</ele><time>2022-02-05T14:27:30Z</time></trkpt>
<trkpt lat="45.985281" lon="11.808062"><ele>821.09</ele><time>2022-02-05T14:27:32Z</time></trkpt>
<trkpt lat="45.985667" lon="11.8088"><ele>820.67</ele><time>2022-02-05T14:27:34Z</time></trkpt>
<trkpt lat="45.985985" lon="11.809625"><ele>817.63</ele><time>2022-02-05T14:27:36Z</time></trkpt>
<trkpt lat="45.986922" lon="11.811012"><ele>802.84</ele><time>2022-02-05T14:27:38Z</time></trkpt>
<trkpt lat="45.987305" lon="11.811647"><ele>800.76</ele><time>2022-02-05T14:27:40Z</time></trkpt>
<trkpt lat="45.988098" lon="11.813312"><ele>789.85</ele><time>2022-02-05T14:27:42Z</time></trkpt>
<trkpt lat="45.988438" lon="11.813788"><ele>782.9</ele><time>2022-02-05T14:27:44Z</time></trkpt>
<trkpt lat="45.989008" lon="11.814507"><ele>774.23</ele><time>2022-02-05T14:27:46Z</time></trkpt>
<trkpt lat="45.99003" lon="11.815587"><ele>759.91</ele><time>2022-02-05T14:27:48Z</time></trkpt>
<trkpt lat="45.990207" lon="11.815468"><ele>754.58</ele><time>2022-02-05T14:27:50Z</time></trkpt>
<trkpt lat="45.99016" lon="11.8149"><ele>752.7</ele><time>2022-02-05T14:27:52Z</time></trkpt>
<trkpt lat="45.990104" lon="11.814428"><ele>753.71</ele><time>2022-02-05T14:27:54Z</time></trkpt>
<trkpt lat="45.990206" lon="11.8138"><ele>747.19</ele><time>2022-02-05T14:27:56Z</time></trkpt>
<trkpt lat="45.99011" lon="11.812766"><ele>738.48</ele><time>2022-02-05T14:27:59Z</time></trkpt>
<trkpt lat="45.99008" lon="11.812581"><ele>737.19</ele><time>2022-02-05T14:28:01Z</time></trkpt>
<trkpt lat="45.989871" lon="11.811693"><ele>726.81</ele><time>2022-02-05T14:28:03Z</time></trkpt>
<trkpt lat="45.989795" lon="11.811448"><ele>725.14</ele><time>2022-02-05T14:28:05Z</time></trkpt>
<trkpt lat="45.989726" lon="11.811267"><ele>725.04</ele><time>2022-02-05T14:28:07Z</time></trkpt>
<trkpt lat="45.989477" lon="11.810943"><ele>724.55</ele><time>2022-02-05T14:28:09Z</time></trkpt>
<trkpt lat="45.989446" lon="11.81084"><ele>724.04</ele><time>2022-02-05T14:28:11Z</time></trkpt>
<trkpt lat="45.989434" lon="11.810771"><ele>723.58</ele><time>2022-02-05T14:28:13Z</time></trkpt>
<trkpt lat="45.989447" lon="11.810721"><ele>723.17</ele><time>2022-02-05T14:28:15Z</time></trkpt>
<trkpt lat="45.989491" lon="11.810658"><ele>722.4</ele><time>2022-02-05T14:28:17Z</time></trkpt>
<trkpt lat="45.989531" lon="11.810646"><ele>722.03</ele><time>2022-02-05T14:28:19Z</time></trkpt>
<trkpt lat="45.989577" lon="11.810663"><ele>721.82</ele><time>2022-02-05T14:28:21Z</time></trkpt>
<trkpt lat="45.989828" lon="11.810976"><ele>720.93</ele><time>2022-02-05T14:28:23Z</time></trkpt>
<trkpt lat="45.990079" lon="11.81121"><ele>716.44</ele><time>2022-02-05T14:28:25Z</time></trkpt>
<trkpt lat="45.990146" lon="11.811335"><ele>715.41</ele><time>2022-02-05T14:28:27Z</time></trkpt>
<trkpt lat="45.990284" lon="11.811723"><ele>716.59</ele><time>2022-02-05T14:28:29Z</time></trkpt>
<trkpt lat="45.990357" lon="11.811845"><ele>715.62</ele><time>2022-02-05T14:28:31Z</time></trkpt>
<trkpt lat="45.990494" lon="11.811918"><ele>711.18</ele><time>2022-02-05T14:28:33Z</time></trkpt>
<trkpt lat="45.990922" lon="11.811974"><ele>707.15</ele><time>2022-02-05T14:28:35Z</time></trkpt>
<trkpt lat="45.991064" lon="11.812024"><ele>707.55</ele><time>2022-02-05T14:28:37Z</time></trkpt>
<trkpt lat="45.991192" lon="11.812097"><ele>706.03</ele><time>2022-02-05T14:28:39Z</time></trkpt>
<trkpt lat="45.991694" lon="11.812689"><ele>701.22</ele><time>2022-02-05T14:28:41Z</time></trkpt>
<trkpt lat="45.991775" lon="11.81275"><ele>699.93</ele><time>2022-02-05T14:28:43Z</time></trkpt>
<trkpt lat="45.991986" lon="11.812841"><ele>694.8</ele><time>2022-02-05T14:28:45Z</time></trkpt>
<trkpt lat="45.992078" lon="11.812908"><ele>693.0</ele><time>2022-02-05T14:28:47Z</time></trkpt>
<trkpt lat="45.992996" lon="11.814295"><ele>675.06</ele><time>2022-02-05T14:28:49Z</time></trkpt>
<trkpt lat="45.993046" lon="11.814414"><ele>674.16</ele><time>2022-02-05T14:28:51Z</time></trkpt>
<trkpt lat="45.993233" lon="11.815045"><ele>669.63</ele><time>2022-02-05T14:28:53Z</time></trkpt>
<trkpt lat="45.993245" lon="11.815185"><ele>669.68</ele><time>2022-02-05T14:28:55Z</time></trkpt>
<trkpt lat="45.99324" lon="11.81536"><ele>669.83</ele><time>2022-02-05T14:28:57Z</time></trkpt>
<trkpt lat="45.993178" lon="11.815764"><ele>669.42</ele><time>2022-02-05T14:28:59Z</time></trkpt>
<trkpt lat="45.993088" lon="11.815988"><ele>668.34</ele><time>2022-02-05T14:29:01Z</time></trkpt>
<trkpt lat="45.99261" lon="11.816826"><ele>664.46</ele><time>2022-02-05T14:29:03Z</time></trkpt>
<trkpt lat="45.992464" lon="11.816906"><ele>664.85</ele><time>2022-02-05T14:29:05Z</time></trkpt>
<trkpt lat="45.992216" lon="11.816934"><ele>670.38</ele><time>2022-02-05T14:29:07Z</time></trkpt>
<trkpt lat="45.992167" lon="11.816995"><ele>670.24</ele><time>2022-02-05T14:29:09Z</time></trkpt>
<trkpt lat="45.992132" lon="11.817119"><ele>667.88</ele><time>2022-02-05T14:29:11Z</time></trkpt>
<trkpt lat="45.992152" lon="11.817437"><ele>658.63</ele><time>2022-02-05T14:29:13Z</time></trkpt>
<trkpt lat="45.992137" lon="11.817555"><ele>657.31</ele><time>2022-02-05T14:29:16Z</time></trkpt>
<trkpt lat="45.99201" lon="11.817958"><ele>659.22</ele><time>2022-02-05T14:29:18Z</time></trkpt>
<trkpt lat="45.992007" lon="11.818042"><ele>659.01</ele><time>2022-02-05T14:29:20Z</time></trkpt>
<trkpt lat="45.992033" lon="11.818126"><ele>659.15</ele><time>2022-02-05T14:29:22Z</time></trkpt>
<trkpt lat="45.992106" lon="11.818232"><ele>658.29</ele><time>2022-02-05T14:29:24Z</time></trkpt>
<trkpt lat="45.992317" lon="11.818447"><ele>656.22</ele><time>2022-02-05T14:29:26Z</time></trkpt>
<trkpt lat="45.992448" lon="11.818505"><ele>654.52</ele><time>2022-02-05T14:29:28Z</time></trkpt>
<trkpt lat="45.99261" lon="11.818518"><ele>651.79</ele><time>2022-02-05T14:29:30Z</time></trkpt>
<trkpt lat="45.992875" lon="11.818385"><ele>642.85</ele><time>2022-02-05T14:29:32Z</time></trkpt>
<trkpt lat="45.993052" lon="11.818321"><ele>637.79</ele><time>2022-02-05T14:29:34Z</time></trkpt>
<trkpt lat="45.993575" lon="11.818257"><ele>632.43</ele><time>2022-02-05T14:29:36Z</time></trkpt>
<trkpt lat="45.993679" lon="11.818273"><ele>630.26</ele><time>2022-02-05T14:29:38Z</time></trkpt>
<trkpt lat="45.993761" lon="11.818316"><ele>628.68</ele><time>2022-02-05T14:29:40Z</time></trkpt>
<trkpt lat="45.993863" lon="11.818426"><ele>628.11</ele><time>2022-02-05T14:29:42Z</time></trkpt>
<trkpt lat="45.994004" lon="11.818638"><ele>628.2</ele><time>2022-02-05T14:29:44Z</time></trkpt>
<trkpt lat="45.994079" lon="11.818901"><ele>628.49</ele><time>2022-02-05T14:29:46Z</time></trkpt>
<trkpt lat="45.994113" lon="11.819165"><ele>627.13</ele><time>2022-02-05T14:29:48Z</time></trkpt>
<trkpt lat="45.994148" lon="11.820375"><ele>625.04</ele><time>2022-02-05T14:29:50Z</time></trkpt>
<trkpt lat="45.994255" lon="11.822468"><ele>608.09</ele><time>2022-02-05T14:29:52Z</time></trkpt>
<trkpt lat="45.994239" lon="11.822693"><ele>605.73</ele><time>2022-02-05T14:29:54Z</time></trkpt>
<trkpt lat="45.994182" lon="11.822947"><ele>604.21</ele><time>2022-02-05T14:29:56Z</time></trkpt>
<trkpt lat="45.993841" lon="11.823837"><ele>604.5</ele><time>2022-02-05T14:29:58Z</time></trkpt>
<trkpt lat="45.993541" lon="11.824895"><ele>596.32</ele><time>2022-02-05T14:30:00Z</time></trkpt>
<trkpt lat="45.993496" lon="11.825174"><ele>593.52</ele><time>2022-02-05T14:30:02Z</time></trkpt>
<trkpt lat="45.993444" lon="11.825668"><ele>585.7</ele><time>2022-02-05T14:30:04Z</time></trkpt>
<trkpt lat="45.993177" lon="11.826704"><ele>576.54</ele><time>2022-02-05T14:30:06Z</time></trkpt>
<trkpt lat="45.992534" lon="11.828203"><ele>570.46</ele><time>2022-02-05T14:30:08Z</time></trkpt>
<trkpt lat="45.992437" lon="11.828551"><ele>566.7</ele><time>2022-02-05T14:30:10Z</time></trkpt>
<trkpt lat="45.992131" lon="11.830392"><ele>541.1</ele><time>2022-02-05T14:30:12Z</time></trkpt>
<trkpt lat="45.992014" lon="11.830735"><ele>537.15</ele><time>2022-02-05T14:30:14Z</time></trkpt>
<trkpt lat="45.991868" lon="11.831043"><ele>533.86</ele><time>2022-02-05T14:30:16Z</time></trkpt>
<trkpt lat="45.991762" lon="11.831208"><ele>533.03</ele><time>2022-02-05T14:30:18Z</time></trkpt>
<trkpt lat="45.991469" lon="11.831454"><ele>541.82</ele><time>2022-02-05T14:30:20Z</time></trkpt>
<trkpt lat="45.991412" lon="11.83153"><ele>542.03</ele><time>2022-02-05T14:30:22Z</time></trkpt>
<trkpt lat="45.991395" lon="11.831599"><ele>539.82</ele><time>2022-02-05T14:30:24Z</time></trkpt>
<trkpt lat="45.991406" lon="11.831672"><ele>535.89</ele><time>2022-02-05T14:30:26Z</time></trkpt>
<trkpt lat="45.991429" lon="11.831707"><ele>533.19</ele><time>2022-02-05T14:30:28Z</time></trkpt>
<trkpt lat="45.991475" lon="11.831707"><ele>531.01</ele><time>2022-02-05T14:30:31Z</time></trkpt>
<trkpt lat="45.991534" lon="11.831675"><ele>529.39</ele><time>2022-02-05T14:30:33Z</time></trkpt>
<trkpt lat="45.992081" lon="11.831051"><ele>524.92</ele><time>2022-02-05T14:30:35Z</time></trkpt>
<trkpt lat="45.992186" lon="11.830833"><ele>527.44</ele><time>2022-02-05T14:30:37Z</time></trkpt>
<trkpt lat="45.993107" lon="11.828636"><ele>524.94</ele><time>2022-02-05T14:30:39Z</time></trkpt>
<trkpt lat="45.994048" lon="11.827346"><ele>504.85</ele><time>2022-02-05T14:30:41Z</time></trkpt>
<trkpt lat="45.99479" lon="11.825953"><ele>493.29</ele><time>2022-02-05T14:30:43Z</time></trkpt>
<trkpt lat="45.994936" lon="11.825628"><ele>493.96</ele><time>2022-02-05T14:30:45Z</time></trkpt>
<trkpt lat="45.995176" lon="11.824794"><ele>492.22</ele><time>2022-02-05T14:30:47Z</time></trkpt>
<trkpt lat="45.99574" lon="11.823598"><ele>478.6</ele><time>2022-02-05T14:30:49Z</time></trkpt>
<trkpt lat="45.996092" lon="11.822709"><ele>469.17</ele><time>2022-02-05T14:30:51Z</time></trkpt>
<trkpt lat="45.996275" lon="11.822352"><ele>470.01</ele><time>2022-02-05T14:30:53Z</time></trkpt>
<trkpt lat="45.996673" lon="11.821754"><ele>461.69</ele><time>2022-02-05T14:30:55Z</time></trkpt>
<trkpt lat="45.996801" lon="11.821587"><ele>457.08</ele><time>2022-02-05T14:30:57Z</time></trkpt>
<trkpt lat="45.996985" lon="11.821177"><ele>455.66</ele><time>2022-02-05T14:30:59Z</time></trkpt>
<trkpt lat="45.997049" lon="11.820936"><ele>456.09</ele><time>2022-02-05T14:31:01Z</time></trkpt>
<trkpt lat="45.997143" lon="11.820345"><ele>456.53</ele><time>2022-02-05T14:31:03Z</time></trkpt>
<trkpt lat="45.997184" lon="11.820296"><ele>455.8</ele><time>2022-02-05T14:31:05Z</time></trkpt>
<trkpt lat="45.997225" lon="11.820297"><ele>454.67</ele><time>2022-02-05T14:31:07Z</time></trkpt>
<trkpt lat="45.997276" lon="11.820358"><ele>451.51</ele><time>2022-02-05T14:31:09Z</time></trkpt>
<trkpt lat="45.99728" lon="11.820431"><ele>450.42</ele><time>2022-02-05T14:31:11Z</time></trkpt>
<trkpt lat="45.997168" lon="11.82143"><ele>438.82</ele><time>2022-02-05T14:31:13Z</time></trkpt>
<trkpt lat="45.996983" lon="11.82176"><ele>440.63</ele><time>2022-02-05T14:31:15Z</time></trkpt>
<trkpt lat="45.99687" lon="11.822079"><ele>439.99</ele><time>2022-02-05T14:31:17Z</time></trkpt>
<trkpt lat="45.996597" lon="11.823327"><ele>429.58</ele><time>2022-02-05T14:31:19Z</time></trkpt>
<trkpt lat="45.996391" lon="11.82419"><ele>419.23</ele><time>2022-02-05T14:31:21Z</time></trkpt>
<trkpt lat="45.996085" lon="11.824957"><ele>419.0</ele><time>2022-02-05T14:31:23Z</time></trkpt>
<trkpt lat="45.995945" lon="11.826026"><ele>406.29</ele><time>2022-02-05T14:31:25Z</time></trkpt>
<trkpt lat="45.995728" lon="11.827263"><ele>395.39</ele><time>2022-02-05T14:31:27Z</time></trkpt>
<trkpt lat="45.995271" lon="11.828507"><ele>390.45</ele><time>2022-02-05T14:31:29Z</time></trkpt>
<trkpt lat="45.994998" lon="11.829347"><ele>378.23</ele><time>2022-02-05T14:31:31Z</time></trkpt>
<trkpt lat="45.994892" lon="11.830512"><ele>357.84</ele><time>2022-02-05T14:31:33Z</time></trkpt>
<trkpt lat="45.994613" lon="11.831103"><ele>360.84</ele><time>2022-02-05T14:31:35Z</time></trkpt>
<trkpt lat="45.994505" lon="11.832276"><ele>346.03</ele><time>2022-02-05T14:31:37Z</time></trkpt>
<trkpt lat="45.994136" lon="11.833849"><ele>345.63</ele><time>2022-02-05T14:31:39Z</time></trkpt>
<trkpt lat="45.994158" lon="11.834832"><ele>336.19</ele><time>2022-02-05T14:31:41Z</time></trkpt>
<trkpt lat="45.994095" lon="11.835213"><ele>336.84</ele><time>2022-02-05T14:31:43Z</time></trkpt>
<trkpt lat="45.994104" lon="11.835443"><ele>336.54</ele><time>2022-02-05T14:31:46Z</time></trkpt>
<trkpt lat="45.994133" lon="11.835513"><ele>336.26</ele><time>2022-02-05T14:31:48Z</time></trkpt>
<trkpt lat="45.994238" lon="11.835609"><ele>335.74</ele><time>2022-02-05T14:31:50Z</time></trkpt>
<trkpt lat="45.994483" lon="11.835683"><ele>334.72</ele><time>2022-02-05T14:31:52Z</time></trkpt>
<trkpt lat="45.995612" lon="11.83587"><ele>335.2</ele><time>2022-02-05T14:31:54Z</time></trkpt>
<trkpt lat="45.995929" lon="11.835866"><ele>335.31</ele><time>2022-02-05T14:31:56Z</time></trkpt>
<trkpt lat="45.995997" lon="11.835989"><ele>334.82</ele><time>2022-02-05T14:32:00Z</time></trkpt>
<trkpt lat="45.996304" lon="11.837019"><ele>331.3</ele><time>2022-02-05T14:32:04Z</time></trkpt>
<trkpt lat="45.996344" lon="11.837113"><ele>331.16</ele><time>2022-02-05T14:32:07Z</time></trkpt>
<trkpt lat="45.99676" lon="11.837587"><ele>328.77</ele><time>2022-02-05T14:32:11Z</time></trkpt>
<trkpt lat="45.997627" lon="11.838"><ele>328.54</ele><time>2022-02-05T14:32:15Z</time></trkpt>
<trkpt lat="45.99785" lon="11.838154"><ele>327.48</ele><time>2022-02-05T14:32:19Z</time></trkpt>
<trkpt lat="45.998001" lon="11.838288"><ele>326.39</ele><time>2022-02-05T14:32:23Z</time></trkpt>
<trkpt lat="45.9986" lon="11.838911"><ele>325.92</ele><time>2022-02-05T14:32:27Z</time></trkpt>
<trkpt lat="45.998962" lon="11.839208"><ele>322.63</ele><time>2022-02-05T14:32:31Z</time></trkpt>
<trkpt lat="45.999115" lon="11.839273"><ele>322.11</ele><time>2022-02-05T14:32:35Z</time></trkpt>
<trkpt lat="45.999283" lon="11.839293"><ele>322.0</ele><time>2022-02-05T14:32:39Z</time></trkpt>
<trkpt lat="45.999828" lon="11.839223"><ele>323.63</ele><time>2022-02-05T14:32:43Z</time></trkpt>
<trkpt lat="46.000003" lon="11.839223"><ele>325.0</ele><time>2022-02-05T14:32:46Z</time></trkpt>
<trkpt lat="46.000197" lon="11.839271"><ele>325.27</ele><time>2022-02-05T14:32:50Z</time></trkpt>
<trkpt lat="46.000416" lon="11.839367"><ele>325.36</ele><time>2022-02-05T14:32:54Z</time></trkpt>
<trkpt lat="46.000969" lon="11.839792"><ele>321.75</ele><time>2022-02-05T14:32:58Z</time></trkpt>
<trkpt lat="46.001016" lon="11.840022"><ele>321.05</ele><time>2022-02-05T14:33:01Z</time></trkpt>
<trkpt lat="46.000908" lon="11.840491"><ele>321.06</ele><time>2022-02-05T14:33:04Z</time></trkpt>
<trkpt lat="46.000867" lon="11.840761"><ele>321.0</ele><time>2022-02-05T14:33:07Z</time></trkpt>
<trkpt lat="46.000852" lon="11.841203"><ele>321.62</ele><time>2022-02-05T14:33:10Z</time></trkpt>
<trkpt lat="46.000901" lon="11.841765"><ele>321.49</ele><time>2022-02-05T14:33:13Z</time></trkpt>
<trkpt lat="46.000896" lon="11.842083"><ele>321.0</ele><time>2022-02-05T14:33:16Z</time></trkpt>
<trkpt lat="46.000859" lon="11.842682"><ele>320.67</ele><time>2022-02-05T14:33:19Z</time></trkpt>
<trkpt lat="46.000883" lon="11.843409"><ele>320.28</ele><time>2022-02-05T14:33:22Z</time></trkpt>
<trkpt lat="46.000898" lon="11.843967"><ele>319.98</ele><time>2022-02-05T14:33:30Z</time></trkpt>
<trkpt lat="46.000964" lon="11.844685"><ele>322.33</ele><time>2022-02-05T14:33:39Z</time></trkpt>
<trkpt lat="46.001134" lon="11.845868"><ele>320.55</ele><time>2022-02-05T14:33:47Z</time></trkpt>
<trkpt lat="46.001259" lon="11.846484"><ele>315.82</ele><time>2022-02-05T14:33:55Z</time></trkpt>
<trkpt lat="46.00232" lon="11.850914"><ele>311.81</ele><time>2022-02-05T14:34:03Z</time></trkpt>
<trkpt lat="46.003596" lon="11.856115"><ele>303.05</ele><time>2022-02-05T14:34:12Z</time></trkpt>
<trkpt lat="46.003846" lon="11.85725"><ele>304.26</ele><time>2022-02-05T14:34:20Z</time></trkpt>
<trkpt lat="46.003846" lon="11.85725"><ele>304.26</ele><time>2022-02-05T14:34:20Z</time></trkpt>
<trkpt lat="46.004103" lon="11.858416"><ele>305.46</ele><time>2022-02-05T14:34:26Z</time></trkpt>
<trkpt lat="46.005689" lon="11.865997"><ele>295.41</ele><time>2022-02-05T14:34:32Z</time></trkpt>
<trkpt lat="46.006262" lon="11.868665"><ele>292.45</ele><time>2022-02-05T14:34:38Z</time></trkpt>
<trkpt lat="46.006887" lon="11.871164"><ele>289.58</ele><time>2022-02-05T14:34:44Z</time></trkpt>
<trkpt lat="46.007084" lon="11.872046"><ele>287.45</ele><time>2022-02-05T14:34:50Z</time></trkpt>
<trkpt lat="46.007167" lon="11.872483"><ele>285.26</ele><time>2022-02-05T14:34:56Z</time></trkpt>
<trkpt lat="46.007233" lon="11.873024"><ele>284.11</ele><time>2022-02-05T14:35:02Z</time></trkpt>
<trkpt lat="46.007286" lon="11.873642"><ele>282.38</ele><time>2022-02-05T14:35:08Z</time></trkpt>
<trkpt lat="46.007263" lon="11.875779"><ele>287.73</ele><time>2022-02-05T14:35:14Z</time></trkpt>
<trkpt lat="46.007286" lon="11.876466"><ele>283.98</ele><time>2022-02-05T14:35:20Z</time></trkpt>
<trkpt lat="46.00737" lon="11.87711"><ele>280.51</ele><time>2022-02-05T14:35:26Z</time></trkpt>
<trkpt lat="46.007489" lon="11.877719"><ele>281.0</ele><time>2022-02-05T14:35:32Z</time></trkpt>
<trkpt lat="46.008139" lon="11.880011"><ele>277.33</ele><time>2022-02-05T14:35:38Z</time></trkpt>
<trkpt lat="46.009044" lon="11.883026"><ele>273.55</ele><time>2022-02-05T14:35:44Z</time></trkpt>
<trkpt lat="46.00982" lon="11.886245"><ele>273.0</ele><time>2022-02-05T14:35:50Z</time></trkpt>
<trkpt lat="46.010472" lon="11.88877"><ele>268.6</ele><time>2022-02-05T14:35:56Z</time></trkpt>
<trkpt lat="46.010856" lon="11.890414"><ele>274.05</ele><time>2022-02-05T14:36:02Z</time></trkpt>
<trkpt lat="46.011607" lon="11.893435"><ele>272.68</ele><time>2022-02-05T14:36:08Z</time></trkpt>
<trkpt lat="46.011726" lon="11.893976"><ele>270.47</ele><time>2022-02-05T14:36:14Z</time></trkpt>
<trkpt lat="46.011809" lon="11.894491"><ele>268.44</ele><time>2022-02-05T14:36:20Z</time></trkpt>
<trkpt lat="46.011857" lon="11.894929"><ele>267.28</ele><time>2022-02-05T14:36:26Z</time></trkpt>
<trkpt lat="46.011863" lon="11.895427"><ele>267.86</ele><time>2022-02-05T14:36:32Z</time></trkpt>
<trkpt lat="46.011839" lon="11.89589"><ele>267.82</ele><time>2022-02-05T14:36:38Z</time></trkpt>
<trkpt lat="46.01178" lon="11.896508"><ele>268.39</ele><time>2022-02-05T14:36:44Z</time></trkpt>
<trkpt lat="46.01166" lon="11.897092"><ele>274.15</ele><time>2022-02-05T14:36:50Z</time></trkpt>
<trkpt lat="46.011476" lon="11.897658"><ele>278.85</ele><time>2022-02-05T14:36:56Z</time></trkpt>
<trkpt lat="46.011257" lon="11.898164"><ele>280.58</ele><time>2022-02-05T14:37:02Z</time></trkpt>
<trkpt lat="46.010976" lon="11.898653"><ele>281.6</ele><time>2022-02-05T14:37:08Z</time></trkpt>
<trkpt lat="46.010714" lon="11.898997"><ele>285.3</ele><time>2022-02-05T14:37:14Z</time></trkpt>
<trkpt lat="46.009608" lon="11.900113"><ele>273.53</ele><time>2022-02-05T14:37:20Z</time></trkpt>
<trkpt lat="46.008919" lon="11.900903"><ele>283.02</ele><time>2022-02-05T14:37:26Z</time></trkpt>
<trkpt lat="46.008536" lon="11.901498"><ele>283.53</ele><time>2022-02-05T14:37:32Z</time></trkpt>
<trkpt lat="46.008277" lon="11.902072"><ele>285.75</ele><time>2022-02-05T14:37:38Z</time></trkpt>
<trkpt lat="46.008082" lon="11.902602"><ele>288.83</ele><time>2022-02-05T14:37:44Z</time></trkpt>
<trkpt lat="46.007976" lon="11.902974"><ele>290.65</ele><time>2022-02-05T14:37:50Z</time></trkpt>
<trkpt lat="46.007895" lon="11.903396"><ele>291.67</ele><time>2022-02-05T14:37:57Z</time></trkpt>
<trkpt lat="46.007844" lon="11.904019"><ele>293.16</ele><time>2022-02-05T14:38:03Z</time></trkpt>
<trkpt lat="46.007839" lon="11.904856"><ele>295.15</ele><time>2022-02-05T14:38:09Z</time></trkpt>
<trkpt lat="46.007894" lon="11.90558"><ele>295.0</ele><time>2022-02-05T14:38:15Z</time></trkpt>
<trkpt lat="46.008258" lon="11.908344"><ele>299.86</ele><time>2022-02-05T14:38:21Z</time></trkpt>
<trkpt lat="46.008467" lon="11.909562"><ele>299.29</ele><time>2022-02-05T14:38:27Z</time></trkpt>
<trkpt lat="46.00862" lon="11.910111"><ele>297.3</ele><time>2022-02-05T14:38:33Z</time></trkpt>
<trkpt lat="46.008806" lon="11.910641"><ele>296.72</ele><time>2022-02-05T14:38:39Z</time></trkpt>
<trkpt lat="46.011075" lon="11.914416"><ele>292.57</ele><time>2022-02-05T14:38:45Z</time></trkpt>
<trkpt lat="46.011412" lon="11.915008"><ele>281.36</ele><time>2022-02-05T14:38:51Z</time></trkpt>
<trkpt lat="46.011537" lon="11.915266"><ele>278.69</ele><time>2022-02-05T14:38:57Z</time></trkpt>
<trkpt lat="46.011698" lon="11.915678"><ele>275.99</ele><time>2022-02-05T14:39:03Z</time></trkpt>
<trkpt lat="46.011913" lon="11.916433"><ele>275.74</ele><time>2022-02-05T14:39:09Z</time></trkpt>
<trkpt lat="46.012002" lon="11.916965"><ele>274.8</ele><time>2022-02-05T14:39:15Z</time></trkpt>
<trkpt lat="46.012054" lon="11.917514"><ele>275.23</ele><time>2022-02-05T14:39:21Z</time></trkpt>
<trkpt lat="46.012082" lon="11.918121"><ele>273.15</ele><time>2022-02-05T14:39:27Z</time></trkpt>
<trkpt lat="46.012053" lon="11.919677"><ele>269.62</ele><time>2022-02-05T14:39:33Z</time></trkpt>
<trkpt lat="46.012002" lon="11.920232"><ele>265.61</ele><time>2022-02-05T14:39:39Z</time></trkpt>
<trkpt lat="46.011916" lon="11.920701"><ele>261.38</ele><time>2022-02-05T14:39:45Z</time></trkpt>
<trkpt lat="46.011732" lon="11.921448"><ele>254.01</ele><time>2022-02-05T14:39:51Z</time></trkpt>
<trkpt lat="46.011612" lon="11.921831"><ele>252.35</ele><time>2022-02-05T14:39:57Z</time></trkpt>
<trkpt lat="46.011062" lon="11.923304"><ele>245.85</ele><time>2022-02-05T14:40:03Z</time></trkpt>
<trkpt lat="46.01073" lon="11.924269"><ele>241.63</ele><time>2022-02-05T14:40:09Z</time></trkpt>
<trkpt lat="46.009709" lon="11.927127"><ele>243.21</ele><time>2022-02-05T14:40:15Z</time></trkpt>
<trkpt lat="46.009072" lon="11.928916"><ele>239.0</ele><time>2022-02-05T14:40:21Z</time></trkpt>
<trkpt lat="46.008902" lon="11.929309"><ele>238.56</ele><time>2022-02-05T14:40:27Z</time></trkpt>
<trkpt lat="46.008832" lon="11.929375"><ele>237.94</ele><time>2022-02-05T14:40:30Z</time></trkpt>
<trkpt lat="46.008792" lon="11.929457"><ele>237.65</ele><time>2022-02-05T14:40:33Z</time></trkpt>
<trkpt lat="46.008705" lon="11.929569"><ele>237.34</ele><time>2022-02-05T14:40:36Z</time></trkpt>
<trkpt lat="46.008512" lon="11.929685"><ele>236.6</ele><time>2022-02-05T14:40:39Z</time></trkpt>
<trkpt lat="46.008435" lon="11.929769"><ele>236.37</ele><time>2022-02-05T14:40:42Z</time></trkpt>
<trkpt lat="46.00826" lon="11.930043"><ele>236.11</ele><time>2022-02-05T14:40:44Z</time></trkpt>
<trkpt lat="46.007654" lon="11.931168"><ele>233.38</ele><time>2022-02-05T14:40:47Z</time></trkpt>
<trkpt lat="46.007245" lon="11.931978"><ele>236.81</ele><time>2022-02-05T14:40:50Z</time></trkpt>
<trkpt lat="46.006434" lon="11.933446"><ele>233.4</ele><time>2022-02-05T14:40:53Z</time></trkpt>
<trkpt lat="46.005312" lon="11.935547"><ele>234.03</ele><time>2022-02-05T14:40:56Z</time></trkpt>
<trkpt lat="46.004758" lon="11.936706"><ele>231.14</ele><time>2022-02-05T14:40:59Z</time></trkpt>
<trkpt lat="46.004494" lon="11.937081"><ele>232.0</ele><time>2022-02-05T14:41:02Z</time></trkpt>
<trkpt lat="46.004131" lon="11.937344"><ele>232.3</ele><time>2022-02-05T14:41:05Z</time></trkpt>
<trkpt lat="46.002385" lon="11.938324"><ele>237.56</ele><time>2022-02-05T14:41:08Z</time></trkpt>
<trkpt lat="46.000629" lon="11.939298"><ele>229.19</ele><time>2022-02-05T14:41:11Z</time></trkpt>
<trkpt lat="46.000325" lon="11.939528"><ele>229.22</ele><time>2022-02-05T14:41:14Z</time></trkpt>
<trkpt lat="46.000118" lon="11.939711"><ele>228.4</ele><time>2022-02-05T14:41:17Z</time></trkpt>
<trkpt lat="45.9999" lon="11.940056"><ele>229.54</ele><time>2022-02-05T14:41:20Z</time></trkpt>
<trkpt lat="45.999778" lon="11.940365"><ele>228.68</ele><time>2022-02-05T14:41:23Z</time></trkpt>
<trkpt lat="45.999682" lon="11.940774"><ele>227.45</ele><time>2022-02-05T14:41:25Z</time></trkpt>
<trkpt lat="45.999677" lon="11.941085"><ele>227.51</ele><time>2022-02-05T14:41:28Z</time></trkpt>
<trkpt lat="45.999692" lon="11.941466"><ele>229.63</ele><time>2022-02-05T14:41:31Z</time></trkpt>
<trkpt lat="45.999715" lon="11.941558"><ele>229.79</ele><time>2022-02-05T14:41:34Z</time></trkpt>
<trkpt lat="45.999715" lon="11.941558"><ele>229.79</ele><time>2022-02-05T14:41:34Z</time></trkpt>
<trkpt lat="45.99981" lon="11.941948"><ele>229.96</ele><time>2022-02-05T14:41:39Z</time></trkpt>
<trkpt lat="45.999972" lon="11.94231"><ele>230.33</ele><time>2022-02-05T14:41:43Z</time></trkpt>
<trkpt lat="46.000681" lon="11.943383"><ele>231.81</ele><time>2022-02-05T14:41:48Z</time></trkpt>
<trkpt lat="46.000966" lon="11.944012"><ele>231.17</ele><time>2022-02-05T14:41:52Z</time></trkpt>
<trkpt lat="46.00103" lon="11.944275"><ele>232.23</ele><time>2022-02-05T14:41:56Z</time></trkpt>
<trkpt lat="46.001069" lon="11.944607"><ele>233.12</ele><time>2022-02-05T14:42:01Z</time></trkpt>
<trkpt lat="46.00106" lon="11.945069"><ele>226.75</ele><time>2022-02-05T14:42:05Z</time></trkpt>
<trkpt lat="46.000963" lon="11.945926"><ele>225.43</ele><time>2022-02-05T14:42:10Z</time></trkpt>
<trkpt lat="46.000888" lon="11.946315"><ele>224.01</ele><time>2022-02-05T14:42:14Z</time></trkpt>
<trkpt lat="46.000401" lon="11.94748"><ele>225.04</ele><time>2022-02-05T14:42:18Z</time></trkpt>
<trkpt lat="46.00024" lon="11.947802"><ele>225.4</ele><time>2022-02-05T14:42:23Z</time></trkpt>
<trkpt lat="46.000051" lon="11.948002"><ele>227.45</ele><time>2022-02-05T14:42:27Z</time></trkpt>
<trkpt lat="45.999845" lon="11.948146"><ele>227.53</ele><time>2022-02-05T14:42:32Z</time></trkpt>
<trkpt lat="45.999552" lon="11.948299"><ele>227.92</ele><time>2022-02-05T14:42:36Z</time></trkpt>
<trkpt lat="45.999207" lon="11.948367"><ele>228.33</ele><time>2022-02-05T14:42:40Z</time></trkpt>
<trkpt lat="45.998255" lon="11.948378"><ele>229.47</ele><time>2022-02-05T14:42:45Z</time></trkpt>
<trkpt lat="45.996435" lon="11.948557"><ele>234.72</ele><time>2022-02-05T14:42:49Z</time></trkpt>
<trkpt lat="45.995905" lon="11.948715"><ele>231.7</ele><time>2022-02-05T14:42:54Z</time></trkpt>
<trkpt lat="45.995665" lon="11.948846"><ele>232.49</ele><time>2022-02-05T14:42:58Z</time></trkpt>
<trkpt lat="45.995381" lon="11.949022"><ele>233.94</ele><time>2022-02-05T14:43:02Z</time></trkpt>
<trkpt lat="45.994466" lon="11.949652"><ele>236.5</ele><time>2022-02-05T14:43:07Z</time></trkpt>
<trkpt lat="45.994022" lon="11.950165"><ele>230.82</ele><time>2022-02-05T14:43:11Z</time></trkpt>
<trkpt lat="45.993708" lon="11.950573"><ele>230.22</ele><time>2022-02-05T14:43:16Z</time></trkpt>
<trkpt lat="45.993255" lon="11.951109"><ele>225.91</ele><time>2022-02-05T14:43:20Z</time></trkpt>
<trkpt lat="45.992937" lon="11.951413"><ele>223.37</ele><time>2022-02-05T14:43:24Z</time></trkpt>
<trkpt lat="45.99251" lon="11.951868"><ele>222.89</ele><time>2022-02-05T14:43:29Z</time></trkpt>
<trkpt lat="45.99195" lon="11.952381"><ele>219.85</ele><time>2022-02-05T14:43:33Z</time></trkpt>
<trkpt lat="45.990885" lon="11.953046"><ele>220.61</ele><time>2022-02-05T14:43:38Z</time></trkpt>
<trkpt lat="45.990666" lon="11.953116"><ele>220.35</ele><time>2022-02-05T14:43:42Z</time></trkpt>
<trkpt lat="45.989831" lon="11.953265"><ele>222.17</ele><time>2022-02-05T14:43:46Z</time></trkpt>
<trkpt lat="45.989547" lon="11.953408"><ele>223.12</ele><time>2022-02-05T14:43:51Z</time></trkpt>
<trkpt lat="45.989151" lon="11.953678"><ele>221.55</ele><time>2022-02-05T14:43:55Z</time></trkpt>
<trkpt lat="45.988897" lon="11.953822"><ele>217.71</ele><time>2022-02-05T14:44:00Z</time></trkpt>
<trkpt lat="45.988652" lon="11.953909"><ele>218.14</ele><time>2022-02-05T14:44:04Z</time></trkpt>
<trkpt lat="45.988298" lon="11.953953"><ele>218.99</ele><time>2022-02-05T14:44:08Z</time></trkpt>
<trkpt lat="45.987658" lon="11.953935"><ele>214.12</ele><time>2022-02-05T14:44:13Z</time></trkpt>
<trkpt lat="45.987308" lon="11.953765"><ele>214.32</ele><time>2022-02-05T14:44:17Z</time></trkpt>
<trkpt lat="45.987044" lon="11.953575"><ele>215.66</ele><time>2022-02-05T14:44:22Z</time></trkpt>
<trkpt lat="45.986722" lon="11.953443"><ele>216.08</ele><time>2022-02-05T14:44:26Z</time></trkpt>
<trkpt lat="45.986466" lon="11.953425"><ele>215.52</ele><time>2022-02-05T14:44:30Z</time></trkpt>
<trkpt lat="45.985982" lon="11.953468"><ele>215.09</ele><time>2022-02-05T14:44:35Z</time></trkpt>
<trkpt lat="45.985434" lon="11.953434"><ele>213.89</ele><time>2022-02-05T14:44:39Z</time></trkpt>
<trkpt lat="45.985113" lon="11.953346"><ele>213.02</ele><time>2022-02-05T14:44:44Z</time></trkpt>
<trkpt lat="45.984812" lon="11.95321"><ele>214.5</ele><time>2022-02-05T14:44:48Z</time></trkpt>
<trkpt lat="45.984521" lon="11.952919"><ele>217.21</ele><time>2022-02-05T14:44:52Z</time></trkpt>
<trkpt lat="45.983828" lon="11.952051"><ele>213.05</ele><time>2022-02-05T14:44:57Z</time></trkpt>
<trkpt lat="45.98347" lon="11.951636"><ele>215.3</ele><time>2022-02-05T14:45:01Z</time></trkpt>
<trkpt lat="45.982868" lon="11.950748"><ele>218.84</ele><time>2022-02-05T14:45:06Z</time></trkpt>
<trkpt lat="45.982522" lon="11.949973"><ele>212.26</ele><time>2022-02-05T14:45:10Z</time></trkpt>
<trkpt lat="45.981393" lon="11.946881"><ele>211.3</ele><time>2022-02-05T14:45:14Z</time></trkpt>
<trkpt lat="45.981118" lon="11.946301"><ele>213.21</ele><time>2022-02-05T14:45:19Z</time></trkpt>
<trkpt lat="45.980878" lon="11.94586"><ele>211.09</ele><time>2022-02-05T14:45:23Z</time></trkpt>
<trkpt lat="45.97911" lon="11.943269"><ele>210.65</ele><time>2022-02-05T14:45:28Z</time></trkpt>
<trkpt lat="45.978027" lon="11.941739"><ele>209.3</ele><time>2022-02-05T14:45:32Z</time></trkpt>
<trkpt lat="45.976978" lon="11.940217"><ele>205.46</ele><time>2022-02-05T14:45:36Z</time></trkpt>
<trkpt lat="45.97582" lon="11.938452"><ele>215.15</ele><time>2022-02-05T14:45:41Z</time></trkpt>
<trkpt lat="45.975378" lon="11.937916"><ele>213.41</ele><time>2022-02-05T14:45:45Z</time></trkpt>
<trkpt lat="45.974936" lon="11.937658"><ele>214.64</ele><time>2022-02-05T14:45:50Z</time></trkpt>
<trkpt lat="45.97329" lon="11.936826"><ele>208.44</ele><time>2022-02-05T14:45:54Z</time></trkpt>
<trkpt lat="45.972926" lon="11.936517"><ele>208.01</ele><time>2022-02-05T14:45:58Z</time></trkpt>
<trkpt lat="45.972383" lon="11.935787"><ele>207.68</ele><time>2022-02-05T14:46:03Z</time></trkpt>
<trkpt lat="45.972011" lon="11.935188"><ele>206.88</ele><time>2022-02-05T14:46:07Z</time></trkpt>
<trkpt lat="45.971515" lon="11.93449"><ele>205.66</ele><time>2022-02-05T14:46:12Z</time></trkpt>
<trkpt lat="45.971039" lon="11.933957"><ele>203.66</ele><time>2022-02-05T14:46:16Z</time></trkpt>
<trkpt lat="45.97058" lon="11.933545"><ele>202.74</ele><time>2022-02-05T14:46:20Z</time></trkpt>
<trkpt lat="45.970289" lon="11.933411"><ele>201.79</ele><time>2022-02-05T14:46:25Z</time></trkpt>
<trkpt lat="45.969894" lon="11.933309"><ele>203.09</ele><time>2022-02-05T14:46:29Z</time></trkpt>
<trkpt lat="45.969603" lon="11.933306"><ele>203.01</ele><time>2022-02-05T14:46:34Z</time></trkpt>
<trkpt lat="45.968436" lon="11.933384"><ele>211.73</ele><time>2022-02-05T14:46:38Z</time></trkpt>
<trkpt lat="45.968121" lon="11.933362"><ele>209.45</ele><time>2022-02-05T14:46:42Z</time></trkpt>
<trkpt lat="45.967806" lon="11.933301"><ele>205.68</ele><time>2022-02-05T14:46:47Z</time></trkpt>
<trkpt lat="45.967558" lon="11.933223"><ele>203.74</ele><time>2022-02-05T14:46:51Z</time></trkpt>
<trkpt lat="45.966701" lon="11.932794"><ele>201.3</ele><time>2022-02-05T14:46:56Z</time></trkpt>
<trkpt lat="45.966131" lon="11.932457"><ele>202.85</ele><time>2022-02-05T14:47:00Z</time></trkpt>
<trkpt lat="45.965332" lon="11.93195"><ele>204.08</ele><time>2022-02-05T14:47:04Z</time></trkpt>
<trkpt lat="45.965144" lon="11.931895"><ele>204.82</ele><time>2022-02-05T14:47:09Z</time></trkpt>
<trkpt lat="45.964956" lon="11.931893"><ele>206.13</ele><time>2022-02-05T14:47:13Z</time></trkpt>
<trkpt lat="45.964598" lon="11.931996"><ele>209.04</ele><time>2022-02-05T14:47:18Z</time></trkpt>
<trkpt lat="45.963673" lon="11.932517"><ele>207.15</ele><time>2022-02-05T14:47:22Z</time></trkpt>
<trkpt lat="45.962489" lon="11.933062"><ele>212.75</ele><time>2022-02-05T14:47:26Z</time></trkpt>
<trkpt lat="45.959373" lon="11.933957"><ele>210.13</ele><time>2022-02-05T14:47:31Z</time></trkpt>
<trkpt lat="45.958705" lon="11.933935"><ele>208.12</ele><time>2022-02-05T14:47:35Z</time></trkpt>
<trkpt lat="45.958092" lon="11.933722"><ele>208.26</ele><time>2022-02-05T14:47:40Z</time></trkpt>
<trkpt lat="45.957448" lon="11.933391"><ele>212.61</ele><time>2022-02-05T14:47:44Z</time></trkpt>
<trkpt lat="45.956938" lon="11.932909"><ele>216.51</ele><time>2022-02-05T14:47:48Z</time></trkpt>
<trkpt lat="45.956358" lon="11.932165"><ele>213.71</ele><time>2022-02-05T14:47:53Z</time></trkpt>
<trkpt lat="45.955969" lon="11.931511"><ele>213.38</ele><time>2022-02-05T14:47:57Z</time></trkpt>
<trkpt lat="45.955365" lon="11.930079"><ele>216.89</ele><time>2022-02-05T14:48:02Z</time></trkpt>
<trkpt lat="45.955225" lon="11.929811"><ele>217.19</ele><time>2022-02-05T14:48:06Z</time></trkpt>
<trkpt lat="45.95503" lon="11.929566"><ele>211.18</ele><time>2022-02-05T14:48:10Z</time></trkpt>
<trkpt lat="45.954792" lon="11.929357"><ele>207.92</ele><time>2022-02-05T14:48:15Z</time></trkpt>
<trkpt lat="45.953627" lon="11.928555"><ele>215.02</ele><time>2022-02-05T14:48:19Z</time></trkpt>
<trkpt lat="45.952836" lon="11.927826"><ele>206.83</ele><time>2022-02-05T14:48:24Z</time></trkpt>
<trkpt lat="45.952181" lon="11.927179"><ele>206.9</ele><time>2022-02-05T14:48:28Z</time></trkpt>
<trkpt lat="45.951752" lon="11.926829"><ele>207.78</ele><time>2022-02-05T14:48:32Z</time></trkpt>
<trkpt lat="45.950799" lon="11.926104"><ele>210.76</ele><time>2022-02-05T14:48:37Z</time></trkpt>
<trkpt lat="45.950261" lon="11.92564"><ele>212.79</ele><time>2022-02-05T14:48:41Z</time></trkpt>
<trkpt lat="45.948696" lon="11.923755"><ele>212.37</ele><time>2022-02-05T14:48:46Z</time></trkpt>
<trkpt lat="45.948313" lon="11.923338"><ele>215.52</ele><time>2022-02-05T14:48:50Z</time></trkpt>
<trkpt lat="45.948148" lon="11.923196"><ele>218.78</ele><time>2022-02-05T14:48:54Z</time></trkpt>
<trkpt lat="45.947918" lon="11.923035"><ele>221.73</ele><time>2022-02-05T14:48:59Z</time></trkpt>
<trkpt lat="45.947625" lon="11.922896"><ele>225.69</ele><time>2022-02-05T14:49:03Z</time></trkpt>
<trkpt lat="45.946745" lon="11.922556"><ele>224.03</ele><time>2022-02-05T14:49:08Z</time></trkpt>
<trkpt lat="45.946308" lon="11.922415"><ele>213.17</ele><time>2022-02-05T14:49:12Z</time></trkpt>
<trkpt lat="45.945939" lon="11.922379"><ele>204.84</ele><time>2022-02-05T14:49:17Z</time></trkpt>
<trkpt lat="45.945542" lon="11.922383"><ele>201.67</ele><time>2022-02-05T14:49:21Z</time></trkpt>
<trkpt lat="45.945345" lon="11.922348"><ele>208.71</ele><time>2022-02-05T14:49:25Z</time></trkpt>
<trkpt lat="45.944464" lon="11.922003"><ele>222.71</ele><time>2022-02-05T14:49:30Z</time></trkpt>
<trkpt lat="45.943782" lon="11.921867"><ele>213.9</ele><time>2022-02-05T14:49:34Z</time></trkpt>
<trkpt lat="45.943331" lon="11.921696"><ele>216.01</ele><time>2022-02-05T14:49:39Z</time></trkpt>
<trkpt lat="45.942921" lon="11.921464"><ele>214.06</ele><time>2022-02-05T14:49:43Z</time></trkpt>
<trkpt lat="45.941134" lon="11.920191"><ele>200.19</ele><time>2022-02-05T14:49:47Z</time></trkpt>
<trkpt lat="45.940585" lon="11.91987"><ele>202.61</ele><time>2022-02-05T14:49:52Z</time></trkpt>
<trkpt lat="45.940226" lon="11.919753"><ele>201.88</ele><time>2022-02-05T14:49:56Z</time></trkpt>
<trkpt lat="45.939833" lon="11.919703"><ele>202.32</ele><time>2022-02-05T14:50:01Z</time></trkpt>
<trkpt lat="45.938657" lon="11.919771"><ele>204.34</ele><time>2022-02-05T14:50:05Z</time></trkpt>
<trkpt lat="45.937787" lon="11.920103"><ele>203.61</ele><time>2022-02-05T14:50:09Z</time></trkpt>
<trkpt lat="45.936874" lon="11.920582"><ele>202.32</ele><time>2022-02-05T14:50:14Z</time></trkpt>
<trkpt lat="45.936162" lon="11.921153"><ele>208.51</ele><time>2022-02-05T14:50:18Z</time></trkpt>
<trkpt lat="45.935557" lon="11.922014"><ele>217.18</ele><time>2022-02-05T14:50:23Z</time></trkpt>
<trkpt lat="45.935266" lon="11.922787"><ele>208.43</ele><time>2022-02-05T14:50:27Z</time></trkpt>
<trkpt lat="45.93347" lon="11.926089"><ele>216.98</ele><time>2022-02-05T14:50:31Z</time></trkpt>
<trkpt lat="45.93273" lon="11.92753"><ele>213.91</ele><time>2022-02-05T14:50:36Z</time></trkpt>
<trkpt lat="45.932299" lon="11.928895"><ele>214.59</ele><time>2022-02-05T14:50:40Z</time></trkpt>
<trkpt lat="45.932013" lon="11.930428"><ele>214.48</ele><time>2022-02-05T14:50:45Z</time></trkpt>
<trkpt lat="45.931756" lon="11.931657"><ele>214.71</ele><time>2022-02-05T14:50:49Z</time></trkpt>
<trkpt lat="45.931434" lon="11.932811"><ele>217.82</ele><time>2022-02-05T14:50:53Z</time></trkpt>
<trkpt lat="45.930659" lon="11.934719"><ele>219.79</ele><time>2022-02-05T14:50:58Z</time></trkpt>
<trkpt lat="45.93017" lon="11.935445"><ele>217.55</ele><time>2022-02-05T14:51:02Z</time></trkpt>
<trkpt lat="45.92944" lon="11.936063"><ele>217.34</ele><time>2022-02-05T14:51:07Z</time></trkpt>
<trkpt lat="45.928394" lon="11.936882"><ele>218.84</ele><time>2022-02-05T14:51:11Z</time></trkpt>
<trkpt lat="45.927984" lon="11.93742"><ele>214.65</ele><time>2022-02-05T14:51:15Z</time></trkpt>
<trkpt lat="45.927779" lon="11.937793"><ele>217.04</ele><time>2022-02-05T14:51:20Z</time></trkpt>
<trkpt lat="45.927558" lon="11.938306"><ele>216.54</ele><time>2022-02-05T14:51:24Z</time></trkpt>
<trkpt lat="45.926833" lon="11.940239"><ele>220.12</ele><time>2022-02-05T14:51:29Z</time></trkpt>
<trkpt lat="45.926476" lon="11.941099"><ele>224.18</ele><time>2022-02-05T14:51:33Z</time></trkpt>
<trkpt lat="45.926238" lon="11.941582"><ele>226.13</ele><time>2022-02-05T14:51:37Z</time></trkpt>
<trkpt lat="45.925828" lon="11.942187"><ele>227.44</ele><time>2022-02-05T14:51:42Z</time></trkpt>
<trkpt lat="45.924079" lon="11.944142"><ele>225.1</ele><time>2022-02-05T14:51:46Z</time></trkpt>
<trkpt lat="45.923305" lon="11.944976"><ele>226.76</ele><time>2022-02-05T14:51:51Z</time></trkpt>
<trkpt lat="45.922973" lon="11.945223"><ele>228.26</ele><time>2022-02-05T14:51:55Z</time></trkpt>
<trkpt lat="45.922791" lon="11.945325"><ele>230.1</ele><time>2022-02-05T14:51:59Z</time></trkpt>
<trkpt lat="45.922314" lon="11.945486"><ele>230.0</ele><time>2022-02-05T14:52:04Z</time></trkpt>
<trkpt lat="45.922073" lon="11.945494"><ele>229.77</ele><time>2022-02-05T14:52:08Z</time></trkpt>
<trkpt lat="45.921815" lon="11.945465"><ele>229.19</ele><time>2022-02-05T14:52:13Z</time></trkpt>
<trkpt lat="45.921587" lon="11.945414"><ele>228.6</ele><time>2022-02-05T14:52:17Z</time></trkpt>
<trkpt lat="45.921392" lon="11.945331"><ele>228.44</ele><time>2022-02-05T14:52:21Z</time></trkpt>
<trkpt lat="45.921078" lon="11.945146"><ele>228.48</ele><time>2022-02-05T14:52:26Z</time></trkpt>
<trkpt lat="45.920945" lon="11.945028"><ele>226.93</ele><time>2022-02-05T14:52:30Z</time></trkpt>
<trkpt lat="45.919619" lon="11.943635"><ele>222.86</ele><time>2022-02-05T14:52:35Z</time></trkpt>
<trkpt lat="45.919133" lon="11.943163"><ele>219.83</ele><time>2022-02-05T14:52:39Z</time></trkpt>
<trkpt lat="45.918401" lon="11.942396"><ele>222.81</ele><time>2022-02-05T14:52:43Z</time></trkpt>
<trkpt lat="45.917816" lon="11.942036"><ele>219.67</ele><time>2022-02-05T14:52:48Z</time></trkpt>
<trkpt lat="45.91704" lon="11.941864"><ele>218.45</ele><time>2022-02-05T14:52:52Z</time></trkpt>
<trkpt lat="45.916685" lon="11.941811"><ele>215.15</ele><time>2022-02-05T14:52:57Z</time></trkpt>
<trkpt lat="45.914591" lon="11.941495"><ele>210.91</ele><time>2022-02-05T14:53:01Z</time></trkpt>
<trkpt lat="45.913642" lon="11.941323"><ele>210.93</ele><time>2022-02-05T14:53:05Z</time></trkpt>
<trkpt lat="45.912728" lon="11.941221"><ele>204.35</ele><time>2022-02-05T14:53:10Z</time></trkpt>
<trkpt lat="45.91191" lon="11.941349"><ele>202.8</ele><time>2022-02-05T14:53:14Z</time></trkpt>
<trkpt lat="45.910203" lon="11.941815"><ele>199.14</ele><time>2022-02-05T14:53:19Z</time></trkpt>
<trkpt lat="45.909384" lon="11.942096"><ele>192.48</ele><time>2022-02-05T14:53:23Z</time></trkpt>
<trkpt lat="45.908795" lon="11.942298"><ele>187.43</ele><time>2022-02-05T14:53:27Z</time></trkpt>
<trkpt lat="45.908224" lon="11.94246"><ele>180.44</ele><time>2022-02-05T14:53:32Z</time></trkpt>
<trkpt lat="45.907836" lon="11.9424"><ele>177.49</ele><time>2022-02-05T14:53:36Z</time></trkpt>
<trkpt lat="45.907177" lon="11.942101"><ele>180.37</ele><time>2022-02-05T14:53:41Z</time></trkpt>
<trkpt lat="45.906863" lon="11.941978"><ele>179.41</ele><time>2022-02-05T14:53:45Z</time></trkpt>
<trkpt lat="45.906054" lon="11.941573"><ele>182.54</ele><time>2022-02-05T14:53:49Z</time></trkpt>
<trkpt lat="45.905616" lon="11.941389"><ele>187.13</ele><time>2022-02-05T14:53:54Z</time></trkpt>
<trkpt lat="45.905502" lon="11.941309"><ele>188.29</ele><time>2022-02-05T14:53:58Z</time></trkpt>
<trkpt lat="45.90545" lon="11.941249"><ele>188.63</ele><time>2022-02-05T14:54:03Z</time></trkpt>
<trkpt lat="45.905416" lon="11.941174"><ele>188.73</ele><time>2022-02-05T14:54:07Z</time></trkpt>
<trkpt lat="45.905373" lon="11.941039"><ele>188.54</ele><time>2022-02-05T14:54:13Z</time></trkpt>
<trkpt lat="45.905313" lon="11.940974"><ele>188.7</ele><time>2022-02-05T14:54:18Z</time></trkpt>
<trkpt lat="45.90527" lon="11.940958"><ele>188.92</ele><time>2022-02-05T14:54:23Z</time></trkpt>
<trkpt lat="45.905188" lon="11.94098"><ele>189.21</ele><time>2022-02-05T14:54:29Z</time></trkpt>
<trkpt lat="45.905134" lon="11.941045"><ele>189.65</ele><time>2022-02-05T14:54:34Z</time></trkpt>
<trkpt lat="45.905048" lon="11.941284"><ele>190.11</ele><time>2022-02-05T14:54:40Z</time></trkpt>
<trkpt lat="45.904955" lon="11.941473"><ele>190.37</ele><time>2022-02-05T14:54:45Z</time></trkpt>
<trkpt lat="45.90485" lon="11.941548"><ele>190.49</ele><time>2022-02-05T14:54:51Z</time></trkpt>
<trkpt lat="45.902972" lon="11.942342"><ele>191.82</ele><time>2022-02-05T14:54:56Z</time></trkpt>
<trkpt lat="45.901819" lon="11.942663"><ele>192.85</ele><time>2022-02-05T14:55:01Z</time></trkpt>
<trkpt lat="45.901101" lon="11.9428"><ele>192.94</ele><time>2022-02-05T14:55:07Z</time></trkpt>
<trkpt lat="45.901101" lon="11.9428"><ele>192.94</ele><time>2022-02-05T14:55:07Z</time></trkpt>
<trkpt lat="45.900485" lon="11.942915"><ele>193.27</ele><time>2022-02-05T14:55:11Z</time></trkpt>
<trkpt lat="45.90025" lon="11.942948"><ele>190.62</ele><time>2022-02-05T14:55:15Z</time></trkpt>
<trkpt lat="45.900106" lon="11.942946"><ele>189.79</ele><time>2022-02-05T14:55:19Z</time></trkpt>
<trkpt lat="45.899746" lon="11.942877"><ele>190.18</ele><time>2022-02-05T14:55:24Z</time></trkpt>
<trkpt lat="45.899657" lon="11.94283"><ele>191.4</ele><time>2022-02-05T14:55:28Z</time></trkpt>
<trkpt lat="45.899567" lon="11.942871"><ele>190.88</ele><time>2022-02-05T14:55:32Z</time></trkpt>
<trkpt lat="45.899522" lon="11.942949"><ele>189.02</ele><time>2022-02-05T14:55:35Z</time></trkpt>
<trkpt lat="45.899507" lon="11.943048"><ele>186.41</ele><time>2022-02-05T14:55:39Z</time></trkpt>
<trkpt lat="45.899535" lon="11.943162"><ele>184.79</ele><time>2022-02-05T14:55:43Z</time></trkpt>
<trkpt lat="45.899601" lon="11.943235"><ele>183.98</ele><time>2022-02-05T14:55:47Z</time></trkpt>
<trkpt lat="45.899726" lon="11.943567"><ele>179.65</ele><time>2022-02-05T14:55:51Z</time></trkpt>
<trkpt lat="45.899742" lon="11.943744"><ele>177.64</ele><time>2022-02-05T14:55:55Z</time></trkpt>
<trkpt lat="45.900104" lon="11.949248"><ele>173.89</ele><time>2022-02-05T14:55:59Z</time></trkpt>
<trkpt lat="45.900225" lon="11.951229"><ele>176.32</ele><time>2022-02-05T14:56:03Z</time></trkpt>
<trkpt lat="45.900208" lon="11.951363"><ele>179.37</ele><time>2022-02-05T14:56:07Z</time></trkpt>
<trkpt lat="45.900123" lon="11.951564"><ele>184.91</ele><time>2022-02-05T14:56:11Z</time></trkpt>
<trkpt lat="45.9" lon="11.951678"><ele>185.63</ele><time>2022-02-05T14:56:15Z</time></trkpt>
<trkpt lat="45.898028" lon="11.952648"><ele>181.29</ele><time>2022-02-05T14:56:20Z</time></trkpt>
<trkpt lat="45.897724" lon="11.95283"><ele>178.91</ele><time>2022-02-05T14:56:24Z</time></trkpt>
<trkpt lat="45.897113" lon="11.953465"><ele>176.87</ele><time>2022-02-05T14:56:28Z</time></trkpt>
<trkpt lat="45.896845" lon="11.953784"><ele>177.71</ele><time>2022-02-05T14:56:33Z</time></trkpt>
<trkpt lat="45.896682" lon="11.954007"><ele>179.84</ele><time>2022-02-05T14:56:37Z</time></trkpt>
<trkpt lat="45.896421" lon="11.954428"><ele>179.62</ele><time>2022-02-05T14:56:41Z</time></trkpt>
<trkpt lat="45.896198" lon="11.954838"><ele>178.4</ele><time>2022-02-05T14:56:46Z</time></trkpt>
<trkpt lat="45.896068" lon="11.955125"><ele>178.51</ele><time>2022-02-05T14:56:50Z</time></trkpt>
<trkpt lat="45.894517" lon="11.958289"><ele>182.47</ele><time>2022-02-05T14:56:54Z</time></trkpt>
<trkpt lat="45.893126" lon="11.961059"><ele>179.39</ele><time>2022-02-05T14:56:59Z</time></trkpt>
<trkpt lat="45.892857" lon="11.96173"><ele>176.98</ele><time>2022-02-05T14:57:03Z</time></trkpt>
<trkpt lat="45.892564" lon="11.962713"><ele>176.7</ele><time>2022-02-05T14:57:07Z</time></trkpt>
<trkpt lat="45.892312" lon="11.963684"><ele>174.3</ele><time>2022-02-05T14:57:12Z</time></trkpt>
<trkpt lat="45.892154" lon="11.964783"><ele>174.51</ele><time>2022-02-05T14:57:16Z</time></trkpt>
<trkpt lat="45.89214" lon="11.96503"><ele>174.86</ele><time>2022-02-05T14:57:20Z</time></trkpt>
<trkpt lat="45.892153" lon="11.965667"><ele>175.46</ele><time>2022-02-05T14:57:25Z</time></trkpt>
<trkpt lat="45.892248" lon="11.966829"><ele>185.36</ele><time>2022-02-05T14:57:29Z</time></trkpt>
<trkpt lat="45.892234" lon="11.967393"><ele>188.51</ele><time>2022-02-05T14:57:33Z</time></trkpt>
<trkpt lat="45.892189" lon="11.967817"><ele>189.33</ele><time>2022-02-05T14:57:38Z</time></trkpt>
<trkpt lat="45.892086" lon="11.968286"><ele>189.77</ele><time>2022-02-05T14:57:42Z</time></trkpt>
<trkpt lat="45.89198" lon="11.968618"><ele>190.06</ele><time>2022-02-05T14:57:46Z</time></trkpt>
<trkpt lat="45.89161" lon="11.96949"><ele>186.54</ele><time>2022-02-05T14:57:51Z</time></trkpt>
<trkpt lat="45.891373" lon="11.970091"><ele>189.85</ele><time>2022-02-05T14:57:55Z</time></trkpt>
<trkpt lat="45.890811" lon="11.971931"><ele>196.86</ele><time>2022-02-05T14:57:59Z</time></trkpt>
<trkpt lat="45.890307" lon="11.973404"><ele>200.68</ele><time>2022-02-05T14:58:04Z</time></trkpt>
<trkpt lat="45.890185" lon="11.974086"><ele>205.9</ele><time>2022-02-05T14:58:08Z</time></trkpt>
<trkpt lat="45.890128" lon="11.974645"><ele>206.59</ele><time>2022-02-05T14:58:12Z</time></trkpt>
<trkpt lat="45.890132" lon="11.975246"><ele>206.53</ele><time>2022-02-05T14:58:17Z</time></trkpt>
<trkpt lat="45.890158" lon="11.9756"><ele>206.48</ele><time>2022-02-05T14:58:21Z</time></trkpt>
<trkpt lat="45.890604" lon="11.978876"><ele>205.17</ele><time>2022-02-05T14:58:25Z</time></trkpt>
<trkpt lat="45.890666" lon="11.979731"><ele>203.58</ele><time>2022-02-05T14:58:30Z</time></trkpt>
<trkpt lat="45.890667" lon="11.980196"><ele>203.0</ele><time>2022-02-05T14:58:34Z</time></trkpt>
<trkpt lat="45.890641" lon="11.980751"><ele>200.59</ele><time>2022-02-05T14:58:38Z</time></trkpt>
<trkpt lat="45.890604" lon="11.981284"><ele>199.11</ele><time>2022-02-05T14:58:43Z</time></trkpt>
<trkpt lat="45.890541" lon="11.981877"><ele>203.14</ele><time>2022-02-05T14:58:47Z</time></trkpt>
<trkpt lat="45.890635" lon="11.981904"><ele>203.6</ele><time>2022-02-05T14:58:53Z</time></trkpt>
<trkpt lat="45.890763" lon="11.981974"><ele>204.26</ele><time>2022-02-05T14:58:58Z</time></trkpt>
<trkpt lat="45.891084" lon="11.982233"><ele>206.17</ele><time>2022-02-05T14:59:04Z</time></trkpt>
<trkpt lat="45.891699" lon="11.982837"><ele>209.12</ele><time>2022-02-05T14:59:09Z</time></trkpt>
<trkpt lat="45.892327" lon="11.982874"><ele>211.38</ele><time>2022-02-05T14:59:15Z</time></trkpt>
<trkpt lat="45.892551" lon="11.982958"><ele>212.18</ele><time>2022-02-05T14:59:20Z</time></trkpt>
<trkpt lat="45.89303" lon="11.98332"><ele>213.95</ele><time>2022-02-05T14:59:26Z</time></trkpt>
<trkpt lat="45.893701" lon="11.983578"><ele>217.93</ele><time>2022-02-05T14:59:31Z</time></trkpt>
<trkpt lat="45.894228" lon="11.983731"><ele>223.78</ele><time>2022-02-05T14:59:37Z</time></trkpt>
<trkpt lat="45.894706" lon="11.983807"><ele>226.89</ele><time>2022-02-05T14:59:42Z</time></trkpt>
<trkpt lat="45.894855" lon="11.983802"><ele>226.52</ele><time>2022-02-05T14:59:48Z</time></trkpt>
<trkpt lat="45.894975" lon="11.984129"><ele>226.09</ele><time>2022-02-05T14:59:51Z</time></trkpt>
<trkpt lat="45.895039" lon="11.984222"><ele>226.2</ele><time>2022-02-05T14:59:55Z</time></trkpt>
<trkpt lat="45.89517" lon="11.984336"><ele>226.61</ele><time>2022-02-05T14:59:58Z</time></trkpt>
<trkpt lat="45.895324" lon="11.984348"><ele>226.93</ele><time>2022-02-05T15:00:02Z</time></trkpt>
<trkpt lat="45.895621" lon="11.984168"><ele>229.94</ele><time>2022-02-05T15:00:05Z</time></trkpt>
<trkpt lat="45.895858" lon="11.984116"><ele>233.25</ele><time>2022-02-05T15:00:09Z</time></trkpt>
<trkpt lat="45.896094" lon="11.9842"><ele>235.7</ele><time>2022-02-05T15:00:12Z</time></trkpt>
<trkpt lat="45.89638" lon="11.984377"><ele>235.24</ele><time>2022-02-05T15:00:16Z</time></trkpt>
<trkpt lat="45.896572" lon="11.984464"><ele>235.66</ele><time>2022-02-05T15:00:19Z</time></trkpt>
<trkpt lat="45.896826" lon="11.984687"><ele>237.0</ele><time>2022-02-05T15:00:23Z</time></trkpt>
<trkpt lat="45.897301" lon="11.985342"><ele>239.58</ele><time>2022-02-05T15:00:26Z</time></trkpt>
<trkpt lat="45.897124" lon="11.985698"><ele>239.11</ele><time>2022-02-05T15:00:30Z</time></trkpt>
<trkpt lat="45.897078" lon="11.985826"><ele>238.45</ele><time>2022-02-05T15:00:34Z</time></trkpt>
<trkpt lat="45.897045" lon="11.986093"><ele>237.49</ele><time>2022-02-05T15:00:38Z</time></trkpt>
<trkpt lat="45.897093" lon="11.986586"><ele>237.97</ele><time>2022-02-05T15:00:43Z</time></trkpt>
<trkpt lat="45.897123" lon="11.986745"><ele>237.76</ele><time>2022-02-05T15:00:47Z</time></trkpt>
<trkpt lat="45.897191" lon="11.986935"><ele>237.61</ele><time>2022-02-05T15:00:51Z</time></trkpt>
<trkpt lat="45.897765" lon="11.988014"><ele>234.91</ele><time>2022-02-05T15:00:55Z</time></trkpt>
<trkpt lat="45.897847" lon="11.988237"><ele>235.1</ele><time>2022-02-05T15:00:59Z</time></trkpt>
<trkpt lat="45.897857" lon="11.988361"><ele>234.9</ele><time>2022-02-05T15:01:03Z</time></trkpt>
<trkpt lat="45.897845" lon="11.988545"><ele>235.12</ele><time>2022-02-05T15:01:07Z</time></trkpt>
<trkpt lat="45.897803" lon="11.988691"><ele>235.38</ele><time>2022-02-05T15:01:11Z</time></trkpt>
<trkpt lat="45.897693" lon="11.988922"><ele>235.9</ele><time>2022-02-05T15:01:15Z</time></trkpt>
<trkpt lat="45.897437" lon="11.989328"><ele>237.03</ele><time>2022-02-05T15:01:19Z</time></trkpt>
<trkpt lat="45.897384" lon="11.989453"><ele>237.62</ele><time>2022-02-05T15:01:23Z</time></trkpt>
<trkpt lat="45.89738" lon="11.989608"><ele>238.41</ele><time>2022-02-05T15:01:27Z</time></trkpt>
<trkpt lat="45.897457" lon="11.990777"><ele>239.84</ele><time>2022-02-05T15:01:31Z</time></trkpt>
<trkpt lat="45.897515" lon="11.992267"><ele>239.31</ele><time>2022-02-05T15:01:35Z</time></trkpt>
<trkpt lat="45.897546" lon="11.99235"><ele>239.88</ele><time>2022-02-05T15:01:39Z</time></trkpt>
<trkpt lat="45.897762" lon="11.992692"><ele>241.88</ele><time>2022-02-05T15:01:43Z</time></trkpt>
<trkpt lat="45.898028" lon="11.993074"><ele>242.74</ele><time>2022-02-05T15:01:47Z</time></trkpt>
<trkpt lat="45.898365" lon="11.993448"><ele>244.22</ele><time>2022-02-05T15:01:52Z</time></trkpt>
<trkpt lat="45.897713" lon="11.994905"><ele>236.69</ele><time>2022-02-05T15:01:59Z</time></trkpt>
<trkpt lat="45.896406" lon="11.997902"><ele>231.64</ele><time>2022-02-05T15:02:06Z</time></trkpt>
<trkpt lat="45.896373" lon="11.998072"><ele>230.89</ele><time>2022-02-05T15:02:14Z</time></trkpt>
<trkpt lat="45.89635" lon="11.9981"><ele>230.72</ele><time>2022-02-05T15:02:14Z</time></trkpt>
<trkpt lat="45.896336" lon="11.998183"><ele>230.62</ele><time>2022-02-05T15:02:15Z</time></trkpt>
<trkpt lat="45.896361" lon="11.998247"><ele>230.8</ele><time>2022-02-05T15:02:16Z</time></trkpt>
<trkpt lat="45.896422" lon="11.99827"><ele>231.14</ele><time>2022-02-05T15:02:16Z</time></trkpt>
<trkpt lat="45.896477" lon="11.998206"><ele>231.46</ele><time>2022-02-05T15:02:17Z</time></trkpt>
<trkpt lat="45.896541" lon="11.998142"><ele>231.92</ele><time>2022-02-05T15:02:17Z</time></trkpt>
<trkpt lat="45.896875" lon="11.998143"><ele>233.44</ele><time>2022-02-05T15:02:20Z</time></trkpt>
<trkpt lat="45.896986" lon="11.998244"><ele>233.62</ele><time>2022-02-05T15:02:23Z</time></trkpt>
<trkpt lat="45.897023" lon="11.998329"><ele>233.58</ele><time>2022-02-05T15:02:26Z</time></trkpt>
<trkpt lat="45.897041" lon="11.998427"><ele>233.36</ele><time>2022-02-05T15:02:30Z</time></trkpt>
<trkpt lat="45.89705" lon="11.998788"><ele>231.1</ele><time>2022-02-05T15:02:33Z</time></trkpt>
<trkpt lat="45.897071" lon="11.998862"><ele>230.62</ele><time>2022-02-05T15:02:36Z</time></trkpt>
<trkpt lat="45.897374" lon="11.999198"><ele>229.43</ele><time>2022-02-05T15:02:39Z</time></trkpt>
<trkpt lat="45.89778" lon="12.0003"><ele>234.16</ele><time>2022-02-05T15:02:42Z</time></trkpt>
<trkpt lat="45.897807" lon="12.00037"><ele>234.7</ele><time>2022-02-05T15:02:45Z</time></trkpt>
<trkpt lat="45.898407" lon="11.999981"><ele>231.2</ele><time>2022-02-05T15:02:54Z</time></trkpt>
<trkpt lat="45.89908" lon="11.999679"><ele>235.37</ele><time>2022-02-05T15:03:03Z</time></trkpt>
<trkpt lat="45.899236" lon="12.000252"><ele>236.45</ele><time>2022-02-05T15:03:07Z</time></trkpt>
<trkpt lat="45.899279" lon="12.000351"><ele>236.7</ele><time>2022-02-05T15:03:12Z</time></trkpt>
<trkpt lat="45.900135" lon="12.001635"><ele>242.75</ele><time>2022-02-05T15:03:16Z</time></trkpt>
<trkpt lat="45.900525" lon="12.002273"><ele>246.36</ele><time>2022-02-05T15:03:20Z</time></trkpt>
<trkpt lat="45.900923" lon="12.003091"><ele>252.71</ele><time>2022-02-05T15:03:25Z</time></trkpt>
<trkpt lat="45.901176" lon="12.003566"><ele>257.3</ele><time>2022-02-05T15:03:29Z</time></trkpt>
<trkpt lat="45.901451" lon="12.003821"><ele>260.26</ele><time>2022-02-05T15:03:34Z</time></trkpt>
<trkpt lat="45.901511" lon="12.003869"><ele>260.84</ele><time>2022-02-05T15:03:38Z</time></trkpt>
<trkpt lat="45.901534" lon="12.003862"><ele>261.0</ele><time>2022-02-05T15:03:42Z</time></trkpt>
<trkpt lat="45.901969" lon="12.005124"><ele>270.24</ele><time>2022-02-05T15:03:45Z</time></trkpt>
<trkpt lat="45.901989" lon="12.0053"><ele>271.73</ele><time>2022-02-05T15:03:48Z</time></trkpt>
<trkpt lat="45.901932" lon="12.005939"><ele>275.87</ele><time>2022-02-05T15:03:51Z</time></trkpt>
<trkpt lat="45.901931" lon="12.006228"><ele>278.17</ele><time>2022-02-05T15:03:53Z</time></trkpt>
<trkpt lat="45.901991" lon="12.006545"><ele>280.53</ele><time>2022-02-05T15:03:56Z</time></trkpt>
<trkpt lat="45.90219" lon="12.00694"><ele>283.75</ele><time>2022-02-05T15:03:59Z</time></trkpt>
<trkpt lat="45.902248" lon="12.007152"><ele>284.28</ele><time>2022-02-05T15:04:01Z</time></trkpt>
<trkpt lat="45.902301" lon="12.00759"><ele>285.61</ele><time>2022-02-05T15:04:04Z</time></trkpt>
<trkpt lat="45.902383" lon="12.008647"><ele>288.6</ele><time>2022-02-05T15:04:07Z</time></trkpt>
<trkpt lat="45.902395" lon="12.008945"><ele>289.07</ele><time>2022-02-05T15:04:10Z</time></trkpt>
<trkpt lat="45.902372" lon="12.009299"><ele>290.79</ele><time>2022-02-05T15:04:12Z</time></trkpt>
<trkpt lat="45.90215" lon="12.010176"><ele>297.21</ele><time>2022-02-05T15:04:15Z</time></trkpt>
<trkpt lat="45.901707" lon="12.0118"><ele>301.7</ele><time>2022-02-05T15:04:18Z</time></trkpt>
<trkpt lat="45.901274" lon="12.013491"><ele>303.08</ele><time>2022-02-05T15:04:20Z</time></trkpt>
<trkpt lat="45.901016" lon="12.014391"><ele>307.87</ele><time>2022-02-05T15:04:23Z</time></trkpt>
<trkpt lat="45.900925" lon="12.014829"><ele>309.33</ele><time>2022-02-05T15:04:26Z</time></trkpt>
<trkpt lat="45.900748" lon="12.016072"><ele>311.54</ele><time>2022-02-05T15:04:29Z</time></trkpt>
<trkpt lat="45.900618" lon="12.017408"><ele>317.75</ele><time>2022-02-05T15:04:31Z</time></trkpt>
<trkpt lat="45.900611" lon="12.017836"><ele>318.96</ele><time>2022-02-05T15:04:34Z</time></trkpt>
<trkpt lat="45.900712" lon="12.019264"><ele>327.11</ele><time>2022-02-05T15:04:37Z</time></trkpt>
<trkpt lat="45.900748" lon="12.019495"><ele>328.22</ele><time>2022-02-05T15:04:40Z</time></trkpt>
<trkpt lat="45.900799" lon="12.019659"><ele>328.47</ele><time>2022-02-05T15:04:42Z</time></trkpt>
<trkpt lat="45.901587" lon="12.021319"><ele>331.36</ele><time>2022-02-05T15:04:45Z</time></trkpt>
<trkpt lat="45.901782" lon="12.021569"><ele>332.48</ele><time>2022-02-05T15:04:48Z</time></trkpt>
<trkpt lat="45.902376" lon="12.02198"><ele>335.74</ele><time>2022-02-05T15:04:50Z</time></trkpt>
<trkpt lat="45.903025" lon="12.022464"><ele>342.85</ele><time>2022-02-05T15:04:53Z</time></trkpt>
<trkpt lat="45.903117" lon="12.022612"><ele>344.33</ele><time>2022-02-05T15:04:56Z</time></trkpt>
<trkpt lat="45.903213" lon="12.022832"><ele>346.4</ele><time>2022-02-05T15:04:59Z</time></trkpt>
<trkpt lat="45.903698" lon="12.024393"><ele>345.94</ele><time>2022-02-05T15:05:01Z</time></trkpt>
<trkpt lat="45.903775" lon="12.024542"><ele>345.33</ele><time>2022-02-05T15:05:04Z</time></trkpt>
<trkpt lat="45.903904" lon="12.024689"><ele>345.4</ele><time>2022-02-05T15:05:07Z</time></trkpt>
<trkpt lat="45.904438" lon="12.025082"><ele>348.69</ele><time>2022-02-05T15:05:09Z</time></trkpt>
<trkpt lat="45.904533" lon="12.025211"><ele>348.63</ele><time>2022-02-05T15:05:12Z</time></trkpt>
<trkpt lat="45.904576" lon="12.025365"><ele>347.74</ele><time>2022-02-05T15:05:15Z</time></trkpt>
<trkpt lat="45.904579" lon="12.025611"><ele>346.83</ele><time>2022-02-05T15:05:18Z</time></trkpt>
<trkpt lat="45.904548" lon="12.025841"><ele>348.5</ele><time>2022-02-05T15:05:20Z</time></trkpt>
<trkpt lat="45.904503" lon="12.025951"><ele>350.33</ele><time>2022-02-05T15:05:23Z</time></trkpt>
<trkpt lat="45.904409" lon="12.026098"><ele>352.02</ele><time>2022-02-05T15:05:26Z</time></trkpt>
<trkpt lat="45.904197" lon="12.026243"><ele>350.45</ele><time>2022-02-05T15:05:28Z</time></trkpt>
<trkpt lat="45.903708" lon="12.026463"><ele>340.71</ele><time>2022-02-05T15:05:31Z</time></trkpt>
<trkpt lat="45.903571" lon="12.026567"><ele>341.25</ele><time>2022-02-05T15:05:34Z</time></trkpt>
<trkpt lat="45.903426" lon="12.026761"><ele>344.25</ele><time>2022-02-05T15:05:37Z</time></trkpt>
<trkpt lat="45.903295" lon="12.027033"><ele>346.27</ele><time>2022-02-05T15:05:39Z</time></trkpt>
<trkpt lat="45.903223" lon="12.027356"><ele>349.77</ele><time>2022-02-05T15:05:42Z</time></trkpt>
<trkpt lat="45.903219" lon="12.027674"><ele>350.77</ele><time>2022-02-05T15:05:45Z</time></trkpt>
<trkpt lat="45.903324" lon="12.027999"><ele>350.27</ele><time>2022-02-05T15:05:47Z</time></trkpt>
<trkpt lat="45.90351" lon="12.028481"><ele>349.65</ele><time>2022-02-05T15:05:50Z</time></trkpt>
<trkpt lat="45.903508" lon="12.02865"><ele>348.64</ele><time>2022-02-05T15:05:53Z</time></trkpt>
<trkpt lat="45.903479" lon="12.02878"><ele>347.7</ele><time>2022-02-05T15:05:56Z</time></trkpt>
<trkpt lat="45.903391" lon="12.028961"><ele>345.65</ele><time>2022-02-05T15:05:58Z</time></trkpt>
<trkpt lat="45.903076" lon="12.029394"><ele>343.77</ele><time>2022-02-05T15:06:01Z</time></trkpt>
<trkpt lat="45.903037" lon="12.029546"><ele>344.69</ele><time>2022-02-05T15:06:04Z</time></trkpt>
<trkpt lat="45.903027" lon="12.029725"><ele>346.36</ele><time>2022-02-05T15:06:07Z</time></trkpt>
<trkpt lat="45.903055" lon="12.029999"><ele>344.01</ele><time>2022-02-05T15:06:09Z</time></trkpt>
<trkpt lat="45.903113" lon="12.030221"><ele>341.74</ele><time>2022-02-05T15:06:12Z</time></trkpt>
<trkpt lat="45.903248" lon="12.030458"><ele>339.98</ele><time>2022-02-05T15:06:15Z</time></trkpt>
<trkpt lat="45.903417" lon="12.030631"><ele>341.22</ele><time>2022-02-05T15:06:17Z</time></trkpt>
<trkpt lat="45.903955" lon="12.030975"><ele>348.56</ele><time>2022-02-05T15:06:20Z</time></trkpt>
<trkpt lat="45.9041" lon="12.031129"><ele>350.66</ele><time>2022-02-05T15:06:23Z</time></trkpt>
<trkpt lat="45.9042" lon="12.031313"><ele>350.03</ele><time>2022-02-05T15:06:26Z</time></trkpt>
<trkpt lat="45.904297" lon="12.031568"><ele>346.3</ele><time>2022-02-05T15:06:28Z</time></trkpt>
<trkpt lat="45.904567" lon="12.032641"><ele>335.98</ele><time>2022-02-05T15:06:31Z</time></trkpt>
<trkpt lat="45.904664" lon="12.032974"><ele>337.53</ele><time>2022-02-05T15:06:34Z</time></trkpt>
<trkpt lat="45.90482" lon="12.033347"><ele>334.44</ele><time>2022-02-05T15:06:36Z</time></trkpt>
<trkpt lat="45.904946" lon="12.033616"><ele>330.58</ele><time>2022-02-05T15:06:39Z</time></trkpt>
<trkpt lat="45.905231" lon="12.034055"><ele>331.49</ele><time>2022-02-05T15:06:42Z</time></trkpt>
<trkpt lat="45.90561" lon="12.034451"><ele>327.64</ele><time>2022-02-05T15:06:45Z</time></trkpt>
<trkpt lat="45.905711" lon="12.034641"><ele>324.58</ele><time>2022-02-05T15:06:47Z</time></trkpt>
<trkpt lat="45.905808" lon="12.035135"><ele>320.42</ele><time>2022-02-05T15:06:50Z</time></trkpt>
<trkpt lat="45.905873" lon="12.035747"><ele>320.85</ele><time>2022-02-05T15:06:53Z</time></trkpt>
<trkpt lat="45.90588" lon="12.03607"><ele>318.75</ele><time>2022-02-05T15:06:55Z</time></trkpt>
<trkpt lat="45.905867" lon="12.036251"><ele>318.61</ele><time>2022-02-05T15:06:58Z</time></trkpt>
<trkpt lat="45.905839" lon="12.036409"><ele>318.32</ele><time>2022-02-05T15:07:01Z</time></trkpt>
<trkpt lat="45.905719" lon="12.036834"><ele>319.15</ele><time>2022-02-05T15:07:04Z</time></trkpt>
<trkpt lat="45.905239" lon="12.037982"><ele>315.08</ele><time>2022-02-05T15:07:06Z</time></trkpt>
<trkpt lat="45.905088" lon="12.038635"><ele>313.19</ele><time>2022-02-05T15:07:09Z</time></trkpt>
<trkpt lat="45.905028" lon="12.039151"><ele>311.61</ele><time>2022-02-05T15:07:12Z</time></trkpt>
<trkpt lat="45.905061" lon="12.03953"><ele>310.99</ele><time>2022-02-05T15:07:14Z</time></trkpt>
<trkpt lat="45.9051" lon="12.039751"><ele>310.37</ele><time>2022-02-05T15:07:17Z</time></trkpt>
<trkpt lat="45.905376" lon="12.040724"><ele>307.2</ele><time>2022-02-05T15:07:20Z</time></trkpt>
<trkpt lat="45.905422" lon="12.040941"><ele>308.18</ele><time>2022-02-05T15:07:23Z</time></trkpt>
<trkpt lat="45.905413" lon="12.041246"><ele>307.85</ele><time>2022-02-05T15:07:25Z</time></trkpt>
<trkpt lat="45.905353" lon="12.041483"><ele>305.49</ele><time>2022-02-05T15:07:28Z</time></trkpt>
<trkpt lat="45.905251" lon="12.041672"><ele>302.14</ele><time>2022-02-05T15:07:31Z</time></trkpt>
<trkpt lat="45.904959" lon="12.042083"><ele>298.26</ele><time>2022-02-05T15:07:34Z</time></trkpt>
<trkpt lat="45.904886" lon="12.042237"><ele>298.59</ele><time>2022-02-05T15:07:36Z</time></trkpt>
<trkpt lat="45.904845" lon="12.042465"><ele>298.43</ele><time>2022-02-05T15:07:39Z</time></trkpt>
<trkpt lat="45.904847" lon="12.04275"><ele>299.08</ele><time>2022-02-05T15:07:42Z</time></trkpt>
<trkpt lat="45.904932" lon="12.043124"><ele>299.35</ele><time>2022-02-05T15:07:44Z</time></trkpt>
<trkpt lat="45.905205" lon="12.043846"><ele>294.53</ele><time>2022-02-05T15:07:47Z</time></trkpt>
<trkpt lat="45.905297" lon="12.044387"><ele>296.2</ele><time>2022-02-05T15:07:50Z</time></trkpt>
<trkpt lat="45.905685" lon="12.045438"><ele>297.18</ele><time>2022-02-05T15:07:53Z</time></trkpt>
<trkpt lat="45.905754" lon="12.045686"><ele>297.63</ele><time>2022-02-05T15:07:55Z</time></trkpt>
<trkpt lat="45.905796" lon="12.046258"><ele>298.79</ele><time>2022-02-05T15:07:58Z</time></trkpt>
<trkpt lat="45.905853" lon="12.046496"><ele>299.9</ele><time>2022-02-05T15:08:01Z</time></trkpt>
<trkpt lat="45.906044" lon="12.047034"><ele>298.98</ele><time>2022-02-05T15:08:03Z</time></trkpt>
<trkpt lat="45.906112" lon="12.047316"><ele>298.67</ele><time>2022-02-05T15:08:06Z</time></trkpt>
<trkpt lat="45.906233" lon="12.048414"><ele>302.13</ele><time>2022-02-05T15:08:09Z</time></trkpt>
<trkpt lat="45.906264" lon="12.04855"><ele>303.87</ele><time>2022-02-05T15:08:12Z</time></trkpt>
<trkpt lat="45.90634" lon="12.048737"><ele>305.19</ele><time>2022-02-05T15:08:14Z</time></trkpt>
<trkpt lat="45.90645" lon="12.048849"><ele>305.6</ele><time>2022-02-05T15:08:17Z</time></trkpt>
<trkpt lat="45.906698" lon="12.048971"><ele>304.45</ele><time>2022-02-05T15:08:20Z</time></trkpt>
<trkpt lat="45.907628" lon="12.049263"><ele>310.03</ele><time>2022-02-05T15:08:22Z</time></trkpt>
<trkpt lat="45.908211" lon="12.049751"><ele>310.74</ele><time>2022-02-05T15:08:25Z</time></trkpt>
<trkpt lat="45.908424" lon="12.050013"><ele>310.08</ele><time>2022-02-05T15:08:28Z</time></trkpt>
<trkpt lat="45.908739" lon="12.050539"><ele>310.99</ele><time>2022-02-05T15:08:31Z</time></trkpt>
<trkpt lat="45.909076" lon="12.051153"><ele>309.29</ele><time>2022-02-05T15:08:33Z</time></trkpt>
<trkpt lat="45.909549" lon="12.051897"><ele>310.2</ele><time>2022-02-05T15:08:36Z</time></trkpt>
<trkpt lat="45.90986" lon="12.052528"><ele>304.64</ele><time>2022-02-05T15:08:39Z</time></trkpt>
<trkpt lat="45.910121" lon="12.052953"><ele>302.98</ele><time>2022-02-05T15:08:42Z</time></trkpt>
<trkpt lat="45.910452" lon="12.053375"><ele>302.1</ele><time>2022-02-05T15:08:44Z</time></trkpt>
<trkpt lat="45.910621" lon="12.053528"><ele>302.91</ele><time>2022-02-05T15:08:47Z</time></trkpt>
<trkpt lat="45.910736" lon="12.053577"><ele>303.58</ele><time>2022-02-05T15:08:50Z</time></trkpt>
<trkpt lat="45.911515" lon="12.053547"><ele>311.03</ele><time>2022-02-05T15:08:52Z</time></trkpt>
<trkpt lat="45.911704" lon="12.053463"><ele>313.47</ele><time>2022-02-05T15:08:55Z</time></trkpt>
<trkpt lat="45.911907" lon="12.053288"><ele>314.98</ele><time>2022-02-05T15:08:58Z</time></trkpt>
<trkpt lat="45.912057" lon="12.053097"><ele>317.0</ele><time>2022-02-05T15:09:01Z</time></trkpt>
<trkpt lat="45.912177" lon="12.053041"><ele>317.44</ele><time>2022-02-05T15:09:03Z</time></trkpt>
<trkpt lat="45.913815" lon="12.052717"><ele>329.59</ele><time>2022-02-05T15:09:06Z</time></trkpt>
<trkpt lat="45.913926" lon="12.052762"><ele>329.93</ele><time>2022-02-05T15:09:09Z</time></trkpt>
<trkpt lat="45.914036" lon="12.052899"><ele>328.74</ele><time>2022-02-05T15:09:11Z</time></trkpt>
<trkpt lat="45.914481" lon="12.053699"><ele>330.64</ele><time>2022-02-05T15:09:14Z</time></trkpt>
<trkpt lat="45.914648" lon="12.054029"><ele>332.88</ele><time>2022-02-05T15:09:17Z</time></trkpt>
<trkpt lat="45.914936" lon="12.055325"><ele>342.0</ele><time>2022-02-05T15:09:20Z</time></trkpt>
<trkpt lat="45.914945" lon="12.055501"><ele>343.58</ele><time>2022-02-05T15:09:22Z</time></trkpt>
<trkpt lat="45.914932" lon="12.05557"><ele>343.92</ele><time>2022-02-05T15:09:25Z</time></trkpt>
<trkpt lat="45.914859" lon="12.055685"><ele>343.86</ele><time>2022-02-05T15:09:28Z</time></trkpt>
<trkpt lat="45.9148" lon="12.055728"><ele>343.26</ele><time>2022-02-05T15:09:30Z</time></trkpt>
<trkpt lat="45.914731" lon="12.055762"><ele>342.39</ele><time>2022-02-05T15:09:33Z</time></trkpt>
<trkpt lat="45.914465" lon="12.055795"><ele>338.89</ele><time>2022-02-05T15:09:36Z</time></trkpt>
<trkpt lat="45.914396" lon="12.055843"><ele>338.57</ele><time>2022-02-05T15:09:39Z</time></trkpt>
<trkpt lat="45.914335" lon="12.055936"><ele>338.92</ele><time>2022-02-05T15:09:41Z</time></trkpt>
<trkpt lat="45.914313" lon="12.056064"><ele>340.07</ele><time>2022-02-05T15:09:44Z</time></trkpt>
<trkpt lat="45.914342" lon="12.056194"><ele>341.46</ele><time>2022-02-05T15:09:47Z</time></trkpt>
<trkpt lat="45.914409" lon="12.05629"><ele>343.3</ele><time>2022-02-05T15:09:49Z</time></trkpt>
<trkpt lat="45.915014" lon="12.056916"><ele>350.37</ele><time>2022-02-05T15:09:52Z</time></trkpt>
<trkpt lat="45.915066" lon="12.057013"><ele>352.1</ele><time>2022-02-05T15:09:55Z</time></trkpt>
<trkpt lat="45.915094" lon="12.057141"><ele>353.55</ele><time>2022-02-05T15:09:58Z</time></trkpt>
<trkpt lat="45.91508" lon="12.058353"><ele>358.72</ele><time>2022-02-05T15:10:00Z</time></trkpt>
<trkpt lat="45.91505" lon="12.058516"><ele>358.94</ele><time>2022-02-05T15:10:03Z</time></trkpt>
<trkpt lat="45.914996" lon="12.05865"><ele>358.21</ele><time>2022-02-05T15:10:06Z</time></trkpt>
<trkpt lat="45.914818" lon="12.058943"><ele>356.4</ele><time>2022-02-05T15:10:09Z</time></trkpt>
<trkpt lat="45.914793" lon="12.059057"><ele>355.22</ele><time>2022-02-05T15:10:11Z</time></trkpt>
<trkpt lat="45.9148" lon="12.059174"><ele>354.62</ele><time>2022-02-05T15:10:14Z</time></trkpt>
<trkpt lat="45.91487" lon="12.05931"><ele>355.2</ele><time>2022-02-05T15:10:17Z</time></trkpt>
<trkpt lat="45.915057" lon="12.059465"><ele>359.13</ele><time>2022-02-05T15:10:19Z</time></trkpt>
<trkpt lat="45.915232" lon="12.05948"><ele>363.23</ele><time>2022-02-05T15:10:22Z</time></trkpt>
<trkpt lat="45.915461" lon="12.059427"><ele>369.79</ele><time>2022-02-05T15:10:25Z</time></trkpt>
<trkpt lat="45.915559" lon="12.059441"><ele>372.09</ele><time>2022-02-05T15:10:28Z</time></trkpt>
<trkpt lat="45.915676" lon="12.059496"><ele>372.42</ele><time>2022-02-05T15:10:30Z</time></trkpt>
<trkpt lat="45.916691" lon="12.060203"><ele>382.54</ele><time>2022-02-05T15:10:33Z</time></trkpt>
<trkpt lat="45.916778" lon="12.060305"><ele>384.72</ele><time>2022-02-05T15:10:36Z</time></trkpt>
<trkpt lat="45.916817" lon="12.060383"><ele>385.16</ele><time>2022-02-05T15:10:38Z</time></trkpt>
<trkpt lat="45.916847" lon="12.060579"><ele>383.54</ele><time>2022-02-05T15:10:41Z</time></trkpt>
<trkpt lat="45.916796" lon="12.062045"><ele>385.84</ele><time>2022-02-05T15:10:44Z</time></trkpt>
<trkpt lat="45.916828" lon="12.062268"><ele>386.79</ele><time>2022-02-05T15:10:47Z</time></trkpt>
<trkpt lat="45.9169" lon="12.062381"><ele>387.44</ele><time>2022-02-05T15:10:49Z</time></trkpt>
<trkpt lat="45.916964" lon="12.062432"><ele>388.06</ele><time>2022-02-05T15:10:52Z</time></trkpt>
<trkpt lat="45.917395" lon="12.062554"><ele>391.7</ele><time>2022-02-05T15:10:55Z</time></trkpt>
<trkpt lat="45.917499" lon="12.062566"><ele>392.56</ele><time>2022-02-05T15:10:57Z</time></trkpt>
<trkpt lat="45.917654" lon="12.062445"><ele>395.86</ele><time>2022-02-05T15:11:00Z</time></trkpt>
<trkpt lat="45.917857" lon="12.062229"><ele>402.69</ele><time>2022-02-05T15:11:03Z</time></trkpt>
<trkpt lat="45.917967" lon="12.06219"><ele>405.0</ele><time>2022-02-05T15:11:06Z</time></trkpt>
<trkpt lat="45.918032" lon="12.062195"><ele>405.59</ele><time>2022-02-05T15:11:08Z</time></trkpt>
<trkpt lat="45.919506" lon="12.063092"><ele>406.21</ele><time>2022-02-05T15:11:11Z</time></trkpt>
<trkpt lat="45.919618" lon="12.063137"><ele>406.08</ele><time>2022-02-05T15:11:14Z</time></trkpt>
<trkpt lat="45.919732" lon="12.063135"><ele>407.68</ele><time>2022-02-05T15:11:16Z</time></trkpt>
<trkpt lat="45.919806" lon="12.063097"><ele>408.72</ele><time>2022-02-05T15:11:19Z</time></trkpt>
<trkpt lat="45.9199" lon="12.063013"><ele>411.73</ele><time>2022-02-05T15:11:22Z</time></trkpt>
<trkpt lat="45.920403" lon="12.062388"><ele>419.34</ele><time>2022-02-05T15:11:25Z</time></trkpt>
<trkpt lat="45.920476" lon="12.062235"><ele>419.17</ele><time>2022-02-05T15:11:27Z</time></trkpt>
<trkpt lat="45.920632" lon="12.061764"><ele>424.38</ele><time>2022-02-05T15:11:30Z</time></trkpt>
<trkpt lat="45.920696" lon="12.061636"><ele>426.07</ele><time>2022-02-05T15:11:33Z</time></trkpt>
<trkpt lat="45.920792" lon="12.0615"><ele>426.96</ele><time>2022-02-05T15:11:36Z</time></trkpt>
<trkpt lat="45.920958" lon="12.061347"><ele>427.66</ele><time>2022-02-05T15:11:38Z</time></trkpt>
<trkpt lat="45.921046" lon="12.061298"><ele>427.14</ele><time>2022-02-05T15:11:41Z</time></trkpt>
<trkpt lat="45.921129" lon="12.061277"><ele>426.54</ele><time>2022-02-05T15:11:44Z</time></trkpt>
<trkpt lat="45.921208" lon="12.061283"><ele>426.99</ele><time>2022-02-05T15:11:46Z</time></trkpt>
<trkpt lat="45.921272" lon="12.061317"><ele>426.72</ele><time>2022-02-05T15:11:49Z</time></trkpt>
<trkpt lat="45.921406" lon="12.061457"><ele>425.54</ele><time>2022-02-05T15:11:52Z</time></trkpt>
<trkpt lat="45.921461" lon="12.061617"><ele>425.23</ele><time>2022-02-05T15:11:55Z</time></trkpt>
<trkpt lat="45.921505" lon="12.062219"><ele>412.17</ele><time>2022-02-05T15:11:57Z</time></trkpt>
<trkpt lat="45.92176" lon="12.063372"><ele>410.11</ele><time>2022-02-05T15:12:00Z</time></trkpt>
<trkpt lat="45.921847" lon="12.063489"><ele>412.78</ele><time>2022-02-05T15:12:03Z</time></trkpt>
<trkpt lat="45.921929" lon="12.063526"><ele>415.64</ele><time>2022-02-05T15:12:05Z</time></trkpt>
<trkpt lat="45.921973" lon="12.063524"><ele>416.48</ele><time>2022-02-05T15:12:08Z</time></trkpt>
<trkpt lat="45.922026" lon="12.06351"><ele>417.15</ele><time>2022-02-05T15:12:11Z</time></trkpt>
<trkpt lat="45.922384" lon="12.063262"><ele>419.14</ele><time>2022-02-05T15:12:14Z</time></trkpt>
<trkpt lat="45.922445" lon="12.063201"><ele>418.97</ele><time>2022-02-05T15:12:16Z</time></trkpt>
<trkpt lat="45.922508" lon="12.063106"><ele>419.75</ele><time>2022-02-05T15:12:19Z</time></trkpt>
<trkpt lat="45.922572" lon="12.062933"><ele>422.02</ele><time>2022-02-05T15:12:22Z</time></trkpt>
<trkpt lat="45.922662" lon="12.06258"><ele>427.82</ele><time>2022-02-05T15:12:24Z</time></trkpt>
<trkpt lat="45.922703" lon="12.062483"><ele>429.13</ele><time>2022-02-05T15:12:27Z</time></trkpt>
<trkpt lat="45.922823" lon="12.062351"><ele>430.07</ele><time>2022-02-05T15:12:30Z</time></trkpt>
<trkpt lat="45.923079" lon="12.062211"><ele>427.64</ele><time>2022-02-05T15:12:33Z</time></trkpt>
<trkpt lat="45.923274" lon="12.06201"><ele>427.82</ele><time>2022-02-05T15:12:35Z</time></trkpt>
<trkpt lat="45.923901" lon="12.061255"><ele>420.34</ele><time>2022-02-05T15:12:38Z</time></trkpt>
<trkpt lat="45.924058" lon="12.061123"><ele>421.73</ele><time>2022-02-05T15:12:41Z</time></trkpt>
<trkpt lat="45.924133" lon="12.061086"><ele>422.57</ele><time>2022-02-05T15:12:43Z</time></trkpt>
<trkpt lat="45.924191" lon="12.06108"><ele>422.91</ele><time>2022-02-05T15:12:46Z</time></trkpt>
<trkpt lat="45.92434" lon="12.061131"><ele>423.47</ele><time>2022-02-05T15:12:49Z</time></trkpt>
<trkpt lat="45.924377" lon="12.06121"><ele>422.5</ele><time>2022-02-05T15:12:52Z</time></trkpt>
<trkpt lat="45.924398" lon="12.061322"><ele>420.95</ele><time>2022-02-05T15:12:54Z</time></trkpt>
<trkpt lat="45.92431" lon="12.061838"><ele>411.78</ele><time>2022-02-05T15:12:57Z</time></trkpt>
<trkpt lat="45.924301" lon="12.062003"><ele>409.76</ele><time>2022-02-05T15:13:00Z</time></trkpt>
<trkpt lat="45.924307" lon="12.062117"><ele>408.67</ele><time>2022-02-05T15:13:03Z</time></trkpt>
<trkpt lat="45.924364" lon="12.062317"><ele>408.3</ele><time>2022-02-05T15:13:05Z</time></trkpt>
<trkpt lat="45.924405" lon="12.062374"><ele>408.92</ele><time>2022-02-05T15:13:08Z</time></trkpt>
<trkpt lat="45.924453" lon="12.062402"><ele>409.85</ele><time>2022-02-05T15:13:11Z</time></trkpt>
<trkpt lat="45.924895" lon="12.062493"><ele>413.81</ele><time>2022-02-05T15:13:13Z</time></trkpt>
<trkpt lat="45.924971" lon="12.062528"><ele>413.11</ele><time>2022-02-05T15:13:16Z</time></trkpt>
<trkpt lat="45.925101" lon="12.06264"><ele>411.24</ele><time>2022-02-05T15:13:19Z</time></trkpt>
<trkpt lat="45.925445" lon="12.06304"><ele>405.1</ele><time>2022-02-05T15:13:22Z</time></trkpt>
<trkpt lat="45.925563" lon="12.063123"><ele>404.97</ele><time>2022-02-05T15:13:24Z</time></trkpt>
<trkpt lat="45.925669" lon="12.063136"><ele>406.45</ele><time>2022-02-05T15:13:27Z</time></trkpt>
<trkpt lat="45.925958" lon="12.063067"><ele>411.71</ele><time>2022-02-05T15:13:30Z</time></trkpt>
<trkpt lat="45.926019" lon="12.063092"><ele>411.18</ele><time>2022-02-05T15:13:32Z</time></trkpt>
<trkpt lat="45.926074" lon="12.063149"><ele>410.15</ele><time>2022-02-05T15:13:35Z</time></trkpt>
<trkpt lat="45.92612" lon="12.063284"><ele>408.19</ele><time>2022-02-05T15:13:38Z</time></trkpt>
<trkpt lat="45.926309" lon="12.06482"><ele>392.06</ele><time>2022-02-05T15:13:41Z</time></trkpt>
<trkpt lat="45.926345" lon="12.064983"><ele>390.48</ele><time>2022-02-05T15:13:43Z</time></trkpt>
<trkpt lat="45.926451" lon="12.065169"><ele>389.89</ele><time>2022-02-05T15:13:46Z</time></trkpt>
<trkpt lat="45.926519" lon="12.06522"><ele>389.86</ele><time>2022-02-05T15:13:49Z</time></trkpt>
<trkpt lat="45.926838" lon="12.065317"><ele>394.18</ele><time>2022-02-05T15:13:51Z</time></trkpt>
<trkpt lat="45.926896" lon="12.065367"><ele>394.8</ele><time>2022-02-05T15:13:54Z</time></trkpt>
<trkpt lat="45.926969" lon="12.065482"><ele>394.25</ele><time>2022-02-05T15:13:57Z</time></trkpt>
<trkpt lat="45.927036" lon="12.065712"><ele>391.43</ele><time>2022-02-05T15:14:00Z</time></trkpt>
<trkpt lat="45.927109" lon="12.065835"><ele>391.29</ele><time>2022-02-05T15:14:02Z</time></trkpt>
<trkpt lat="45.927366" lon="12.066126"><ele>392.94</ele><time>2022-02-05T15:14:05Z</time></trkpt>
<trkpt lat="45.927451" lon="12.066318"><ele>392.64</ele><time>2022-02-05T15:14:08Z</time></trkpt>
<trkpt lat="45.927472" lon="12.066482"><ele>392.07</ele><time>2022-02-05T15:14:11Z</time></trkpt>
<trkpt lat="45.927455" lon="12.06663"><ele>391.39</ele><time>2022-02-05T15:14:13Z</time></trkpt>
<trkpt lat="45.927384" lon="12.066785"><ele>389.07</ele><time>2022-02-05T15:14:16Z</time></trkpt>
<trkpt lat="45.927048" lon="12.067188"><ele>379.17</ele><time>2022-02-05T15:14:19Z</time></trkpt>
<trkpt lat="45.927" lon="12.067299"><ele>378.52</ele><time>2022-02-05T15:14:21Z</time></trkpt>
<trkpt lat="45.926976" lon="12.067385"><ele>378.65</ele><time>2022-02-05T15:14:24Z</time></trkpt>
<trkpt lat="45.926982" lon="12.067479"><ele>379.75</ele><time>2022-02-05T15:14:27Z</time></trkpt>
<trkpt lat="45.927006" lon="12.067651"><ele>380.31</ele><time>2022-02-05T15:14:30Z</time></trkpt>
<trkpt lat="45.927036" lon="12.067737"><ele>380.74</ele><time>2022-02-05T15:14:32Z</time></trkpt>
<trkpt lat="45.927088" lon="12.067809"><ele>381.08</ele><time>2022-02-05T15:14:35Z</time></trkpt>
<trkpt lat="45.927157" lon="12.067855"><ele>381.66</ele><time>2022-02-05T15:14:38Z</time></trkpt>
<trkpt lat="45.927539" lon="12.068066"><ele>381.35</ele><time>2022-02-05T15:14:40Z</time></trkpt>
<trkpt lat="45.92763" lon="12.06808"><ele>379.98</ele><time>2022-02-05T15:14:43Z</time></trkpt>
<trkpt lat="45.927821" lon="12.068049"><ele>379.17</ele><time>2022-02-05T15:14:46Z</time></trkpt>
<trkpt lat="45.928154" lon="12.067796"><ele>385.68</ele><time>2022-02-05T15:14:49Z</time></trkpt>
<trkpt lat="45.928241" lon="12.067791"><ele>386.7</ele><time>2022-02-05T15:14:51Z</time></trkpt>
<trkpt lat="45.928426" lon="12.067868"><ele>388.16</ele><time>2022-02-05T15:14:54Z</time></trkpt>
<trkpt lat="45.928987" lon="12.068787"><ele>384.27</ele><time>2022-02-05T15:14:57Z</time></trkpt>
<trkpt lat="45.929117" lon="12.069028"><ele>384.87</ele><time>2022-02-05T15:14:59Z</time></trkpt>
<trkpt lat="45.929195" lon="12.069194"><ele>385.1</ele><time>2022-02-05T15:15:02Z</time></trkpt>
<trkpt lat="45.929966" lon="12.07115"><ele>390.03</ele><time>2022-02-05T15:15:05Z</time></trkpt>
<trkpt lat="45.930021" lon="12.071246"><ele>390.9</ele><time>2022-02-05T15:15:08Z</time></trkpt>
<trkpt lat="45.93015" lon="12.071349"><ele>390.79</ele><time>2022-02-05T15:15:10Z</time></trkpt>
<trkpt lat="45.930285" lon="12.071389"><ele>389.87</ele><time>2022-02-05T15:15:13Z</time></trkpt>
<trkpt lat="45.930389" lon="12.071356"><ele>388.04</ele><time>2022-02-05T15:15:16Z</time></trkpt>
<trkpt lat="45.930506" lon="12.071235"><ele>386.34</ele><time>2022-02-05T15:15:18Z</time></trkpt>
<trkpt lat="45.930808" lon="12.070621"><ele>389.76</ele><time>2022-02-05T15:15:21Z</time></trkpt>
<trkpt lat="45.930839" lon="12.070584"><ele>390.39</ele><time>2022-02-05T15:15:24Z</time></trkpt>
<trkpt lat="45.93092" lon="12.070562"><ele>390.87</ele><time>2022-02-05T15:15:27Z</time></trkpt>
<trkpt lat="45.93099" lon="12.070597"><ele>390.27</ele><time>2022-02-05T15:15:29Z</time></trkpt>
<trkpt lat="45.931024" lon="12.070707"><ele>388.47</ele><time>2022-02-05T15:15:32Z</time></trkpt>
<trkpt lat="45.930972" lon="12.071762"><ele>370.64</ele><time>2022-02-05T15:15:35Z</time></trkpt>
<trkpt lat="45.930973" lon="12.071882"><ele>369.56</ele><time>2022-02-05T15:15:38Z</time></trkpt>
<trkpt lat="45.931004" lon="12.072082"><ele>368.62</ele><time>2022-02-05T15:15:40Z</time></trkpt>
<trkpt lat="45.931086" lon="12.072251"><ele>368.54</ele><time>2022-02-05T15:15:43Z</time></trkpt>
<trkpt lat="45.931376" lon="12.07256"><ele>371.32</ele><time>2022-02-05T15:15:46Z</time></trkpt>
<trkpt lat="45.93146" lon="12.072721"><ele>367.45</ele><time>2022-02-05T15:15:48Z</time></trkpt>
<trkpt lat="45.931648" lon="12.073485"><ele>354.3</ele><time>2022-02-05T15:15:51Z</time></trkpt>
<trkpt lat="45.931704" lon="12.07362"><ele>353.07</ele><time>2022-02-05T15:15:54Z</time></trkpt>
<trkpt lat="45.931795" lon="12.073775"><ele>349.85</ele><time>2022-02-05T15:15:57Z</time></trkpt>
<trkpt lat="45.932058" lon="12.074055"><ele>345.48</ele><time>2022-02-05T15:15:59Z</time></trkpt>
<trkpt lat="45.93242" lon="12.07472"><ele>343.58</ele><time>2022-02-05T15:16:02Z</time></trkpt>
<trkpt lat="45.93257" lon="12.074955"><ele>342.33</ele><time>2022-02-05T15:16:05Z</time></trkpt>
<trkpt lat="45.934448" lon="12.07712"><ele>324.05</ele><time>2022-02-05T15:16:07Z</time></trkpt>
<trkpt lat="45.935623" lon="12.078769"><ele>313.28</ele><time>2022-02-05T15:16:10Z</time></trkpt>
<trkpt lat="45.936151" lon="12.07955"><ele>312.26</ele><time>2022-02-05T15:16:13Z</time></trkpt>
<trkpt lat="45.936559" lon="12.080376"><ele>301.03</ele><time>2022-02-05T15:16:16Z</time></trkpt>
<trkpt lat="45.936649" lon="12.08064"><ele>299.05</ele><time>2022-02-05T15:16:18Z</time></trkpt>
<trkpt lat="45.936691" lon="12.080836"><ele>298.17</ele><time>2022-02-05T15:16:21Z</time></trkpt>
<trkpt lat="45.936721" lon="12.08108"><ele>297.68</ele><time>2022-02-05T15:16:24Z</time></trkpt>
<trkpt lat="45.936725" lon="12.081351"><ele>296.77</ele><time>2022-02-05T15:16:26Z</time></trkpt>
<trkpt lat="45.936743" lon="12.08195"><ele>295.04</ele><time>2022-02-05T15:16:29Z</time></trkpt>
<trkpt lat="45.936763" lon="12.082143"><ele>293.49</ele><time>2022-02-05T15:16:32Z</time></trkpt>
<trkpt lat="45.936783" lon="12.082279"><ele>292.6</ele><time>2022-02-05T15:16:35Z</time></trkpt>
<trkpt lat="45.936889" lon="12.082676"><ele>291.56</ele><time>2022-02-05T15:16:37Z</time></trkpt>
<trkpt lat="45.937373" lon="12.083563"><ele>286.53</ele><time>2022-02-05T15:16:40Z</time></trkpt>
<trkpt lat="45.937543" lon="12.083938"><ele>284.9</ele><time>2022-02-05T15:16:43Z</time></trkpt>
<trkpt lat="45.937612" lon="12.083726"><ele>286.7</ele><time>2022-02-05T15:16:49Z</time></trkpt>
<trkpt lat="45.937799" lon="12.082947"><ele>295.47</ele><time>2022-02-05T15:16:54Z</time></trkpt>
<trkpt lat="45.937897" lon="12.082856"><ele>296.15</ele><time>2022-02-05T15:16:56Z</time></trkpt>
<trkpt lat="45.938131" lon="12.083255"><ele>293.5</ele><time>2022-02-05T15:17:02Z</time></trkpt>
<trkpt lat="45.938214" lon="12.083502"><ele>290.29</ele><time>2022-02-05T15:17:07Z</time></trkpt>
<trkpt lat="45.938214" lon="12.083502"><ele>290.29</ele><time>2022-02-05T15:17:07Z</time></trkpt>
<trkpt lat="45.938241" lon="12.08363"><ele>289.1</ele><time>2022-02-05T15:17:12Z</time></trkpt>
<trkpt lat="45.938237" lon="12.084013"><ele>284.8</ele><time>2022-02-05T15:17:17Z</time></trkpt>
<trkpt lat="45.938092" lon="12.084638"><ele>278.52</ele><time>2022-02-05T15:17:22Z</time></trkpt>
<trkpt lat="45.938425" lon="12.084767"><ele>278.96</ele><time>2022-02-05T15:17:30Z</time></trkpt>
<trkpt lat="45.938532" lon="12.084846"><ele>278.51</ele><time>2022-02-05T15:17:38Z</time></trkpt>
<trkpt lat="45.938612" lon="12.08494"><ele>277.65</ele><time>2022-02-05T15:17:45Z</time></trkpt>
<trkpt lat="45.938786" lon="12.085202"><ele>275.44</ele><time>2022-02-05T15:17:53Z</time></trkpt>
<trkpt lat="45.939064" lon="12.08548"><ele>273.54</ele><time>2022-02-05T15:18:01Z</time></trkpt>
<trkpt lat="45.940047" lon="12.086372"><ele>266.83</ele><time>2022-02-05T15:18:09Z</time></trkpt>
<trkpt lat="45.940184" lon="12.086585"><ele>266.8</ele><time>2022-02-05T15:18:16Z</time></trkpt>
<trkpt lat="45.940671" lon="12.087769"><ele>264.0</ele><time>2022-02-05T15:18:24Z</time></trkpt>
<trkpt lat="45.940908" lon="12.088289"><ele>263.43</ele><time>2022-02-05T15:18:32Z</time></trkpt>
<trkpt lat="45.94113" lon="12.088674"><ele>261.89</ele><time>2022-02-05T15:18:40Z</time></trkpt>
<trkpt lat="45.941492" lon="12.089196"><ele>261.14</ele><time>2022-02-05T15:18:48Z</time></trkpt>
<trkpt lat="45.94185" lon="12.08988"><ele>261.62</ele><time>2022-02-05T15:18:55Z</time></trkpt>
<trkpt lat="45.94355" lon="12.092658"><ele>256.21</ele><time>2022-02-05T15:19:03Z</time></trkpt>
<trkpt lat="45.943996" lon="12.093317"><ele>256.36</ele><time>2022-02-05T15:19:11Z</time></trkpt>
<trkpt lat="45.944245" lon="12.093563"><ele>257.33</ele><time>2022-02-05T15:19:19Z</time></trkpt>
<trkpt lat="45.94429" lon="12.093641"><ele>257.44</ele><time>2022-02-05T15:19:27Z</time></trkpt>
<trkpt lat="45.944351" lon="12.093852"><ele>257.66</ele><time>2022-02-05T15:19:34Z</time></trkpt>
<trkpt lat="45.94437" lon="12.094109"><ele>258.52</ele><time>2022-02-05T15:19:42Z</time></trkpt>
<trkpt lat="45.944374" lon="12.094725"><ele>259.23</ele><time>2022-02-05T15:19:50Z</time></trkpt>
<trkpt lat="45.944401" lon="12.094953"><ele>258.83</ele><time>2022-02-05T15:19:58Z</time></trkpt>
<trkpt lat="45.944439" lon="12.095127"><ele>258.97</ele><time>2022-02-05T15:20:06Z</time></trkpt>
<trkpt lat="45.946101" lon="12.100747"><ele>251.28</ele><time>2022-02-05T15:20:13Z</time></trkpt>
<trkpt lat="45.946929" lon="12.103604"><ele>236.97</ele><time>2022-02-05T15:20:21Z</time></trkpt>
<trkpt lat="45.947122" lon="12.104179"><ele>233.62</ele><time>2022-02-05T15:20:29Z</time></trkpt>
<trkpt lat="45.947242" lon="12.104456"><ele>234.03</ele><time>2022-02-05T15:20:37Z</time></trkpt>
<trkpt lat="45.948185" lon="12.106326"><ele>225.41</ele><time>2022-02-05T15:20:44Z</time></trkpt>
<trkpt lat="45.948328" lon="12.106578"><ele>224.02</ele><time>2022-02-05T15:20:52Z</time></trkpt>
<trkpt lat="45.949956" lon="12.108502"><ele>214.67</ele><time>2022-02-05T15:21:00Z</time></trkpt>
<trkpt lat="45.950435" lon="12.10904"><ele>214.0</ele><time>2022-02-05T15:21:08Z</time></trkpt>
<trkpt lat="45.95062" lon="12.10929"><ele>214.13</ele><time>2022-02-05T15:21:16Z</time></trkpt>
<trkpt lat="45.950932" lon="12.109964"><ele>211.68</ele><time>2022-02-05T15:21:23Z</time></trkpt>
<trkpt lat="45.951507" lon="12.111308"><ele>208.74</ele><time>2022-02-05T15:21:31Z</time></trkpt>
<trkpt lat="45.951556" lon="12.111478"><ele>208.49</ele><time>2022-02-05T15:21:39Z</time></trkpt>
<trkpt lat="45.951605" lon="12.111745"><ele>208.49</ele><time>2022-02-05T15:21:47Z</time></trkpt>
<trkpt lat="45.951711" lon="12.113101"><ele>202.15</ele><time>2022-02-05T15:21:55Z</time></trkpt>
<trkpt lat="45.951824" lon="12.114878"><ele>197.89</ele><time>2022-02-05T15:22:02Z</time></trkpt>
<trkpt lat="45.951895" lon="12.115351"><ele>196.12</ele><time>2022-02-05T15:22:10Z</time></trkpt>
<trkpt lat="45.951989" lon="12.115743"><ele>194.05</ele><time>2022-02-05T15:22:18Z</time></trkpt>
<trkpt lat="45.952052" lon="12.115929"><ele>193.92</ele><time>2022-02-05T15:22:26Z</time></trkpt>
<trkpt lat="45.952947" lon="12.11776"><ele>192.96</ele><time>2022-02-05T15:22:34Z</time></trkpt>
<trkpt lat="45.953178" lon="12.118158"><ele>194.65</ele><time>2022-02-05T15:22:41Z</time></trkpt>
<trkpt lat="45.953283" lon="12.118279"><ele>194.96</ele><time>2022-02-05T15:22:49Z</time></trkpt>
<trkpt lat="45.95342" lon="12.118485"><ele>195.7</ele><time>2022-02-05T15:22:57Z</time></trkpt>
<trkpt lat="45.953697" lon="12.119052"><ele>196.29</ele><time>2022-02-05T15:23:05Z</time></trkpt>
<trkpt lat="45.953826" lon="12.119274"><ele>195.95</ele><time>2022-02-05T15:23:12Z</time></trkpt>
<trkpt lat="45.953999" lon="12.119502"><ele>196.02</ele><time>2022-02-05T15:23:20Z</time></trkpt>
<trkpt lat="45.955181" lon="12.120687"><ele>197.65</ele><time>2022-02-05T15:23:28Z</time></trkpt>
<trkpt lat="45.957438" lon="12.122782"><ele>203.57</ele><time>2022-02-05T15:23:36Z</time></trkpt>
<trkpt lat="45.957463" lon="12.122866"><ele>204.05</ele><time>2022-02-05T15:23:44Z</time></trkpt>
<trkpt lat="45.957467" lon="12.123138"><ele>205.06</ele><time>2022-02-05T15:23:51Z</time></trkpt>
<trkpt lat="45.958123" lon="12.123436"><ele>206.7</ele><time>2022-02-05T15:24:00Z</time></trkpt>
<trkpt lat="45.958388" lon="12.12368"><ele>209.5</ele><time>2022-02-05T15:24:09Z</time></trkpt>
<trkpt lat="45.958816" lon="12.12417"><ele>211.27</ele><time>2022-02-05T15:24:17Z</time></trkpt>
<trkpt lat="45.959178" lon="12.124751"><ele>214.0</ele><time>2022-02-05T15:24:26Z</time></trkpt>
<trkpt lat="45.959571" lon="12.125758"><ele>214.45</ele><time>2022-02-05T15:24:34Z</time></trkpt>
<trkpt lat="45.959663" lon="12.126059"><ele>214.61</ele><time>2022-02-05T15:24:43Z</time></trkpt>
<trkpt lat="45.960094" lon="12.127296"><ele>214.68</ele><time>2022-02-05T15:24:51Z</time></trkpt>
<trkpt lat="45.960326" lon="12.127815"><ele>216.24</ele><time>2022-02-05T15:25:00Z</time></trkpt>
<trkpt lat="45.960494" lon="12.128089"><ele>217.19</ele><time>2022-02-05T15:25:09Z</time></trkpt>
<trkpt lat="45.963963" lon="12.132815"><ele>229.13</ele><time>2022-02-05T15:25:17Z</time></trkpt>
<trkpt lat="45.965251" lon="12.134558"><ele>234.47</ele><time>2022-02-05T15:25:26Z</time></trkpt>
<trkpt lat="45.965563" lon="12.135182"><ele>237.33</ele><time>2022-02-05T15:25:34Z</time></trkpt>
<trkpt lat="45.965679" lon="12.135624"><ele>239.66</ele><time>2022-02-05T15:25:43Z</time></trkpt>
<trkpt lat="45.965821" lon="12.13629"><ele>237.64</ele><time>2022-02-05T15:25:51Z</time></trkpt>
<trkpt lat="45.965858" lon="12.136729"><ele>240.54</ele><time>2022-02-05T15:26:00Z</time></trkpt>
<trkpt lat="45.965827" lon="12.137346"><ele>237.06</ele><time>2022-02-05T15:26:09Z</time></trkpt>
<trkpt lat="45.965736" lon="12.137381"><ele>236.16</ele><time>2022-02-05T15:26:17Z</time></trkpt>
<trkpt lat="45.965679" lon="12.137488"><ele>234.97</ele><time>2022-02-05T15:26:25Z</time></trkpt>
<trkpt lat="45.965679" lon="12.13762"><ele>235.08</ele><time>2022-02-05T15:26:33Z</time></trkpt>
<trkpt lat="45.965731" lon="12.137723"><ele>235.77</ele><time>2022-02-05T15:26:41Z</time></trkpt>
<trkpt lat="45.965816" lon="12.137763"><ele>236.76</ele><time>2022-02-05T15:26:49Z</time></trkpt>
<trkpt lat="45.965385" lon="12.141327"><ele>238.54</ele><time>2022-02-05T15:26:58Z</time></trkpt>
<trkpt lat="45.965379" lon="12.141863"><ele>237.65</ele><time>2022-02-05T15:27:06Z</time></trkpt>
<trkpt lat="45.96543" lon="12.143209"><ele>238.35</ele><time>2022-02-05T15:27:14Z</time></trkpt>
<trkpt lat="45.965513" lon="12.144538"><ele>233.12</ele><time>2022-02-05T15:27:22Z</time></trkpt>
<trkpt lat="45.965572" lon="12.145107"><ele>232.62</ele><time>2022-02-05T15:27:30Z</time></trkpt>
<trkpt lat="45.965669" lon="12.145662"><ele>235.61</ele><time>2022-02-05T15:27:38Z</time></trkpt>
<trkpt lat="45.965814" lon="12.146188"><ele>238.86</ele><time>2022-02-05T15:27:47Z</time></trkpt>
<trkpt lat="45.966045" lon="12.14684"><ele>240.47</ele><time>2022-02-05T15:27:55Z</time></trkpt>
<trkpt lat="45.966654" lon="12.148306"><ele>248.62</ele><time>2022-02-05T15:28:03Z</time></trkpt>
<trkpt lat="45.967016" lon="12.149323"><ele>250.74</ele><time>2022-02-05T15:28:11Z</time></trkpt>
<trkpt lat="45.967667" lon="12.15135"><ele>252.62</ele><time>2022-02-05T15:28:19Z</time></trkpt>
<trkpt lat="45.968243" lon="12.153287"><ele>248.16</ele><time>2022-02-05T15:28:28Z</time></trkpt>
<trkpt lat="45.968812" lon="12.154431"><ele>245.65</ele><time>2022-02-05T15:28:36Z</time></trkpt>
<trkpt lat="45.969472" lon="12.155599"><ele>245.83</ele><time>2022-02-05T15:28:44Z</time></trkpt>
<trkpt lat="45.970592" lon="12.157686"><ele>245.2</ele><time>2022-02-05T15:28:52Z</time></trkpt>
<trkpt lat="45.970869" lon="12.158306"><ele>243.55</ele><time>2022-02-05T15:29:00Z</time></trkpt>
<trkpt lat="45.971028" lon="12.158862"><ele>247.99</ele><time>2022-02-05T15:29:08Z</time></trkpt>
<trkpt lat="45.971556" lon="12.160911"><ele>237.34</ele><time>2022-02-05T15:29:17Z</time></trkpt>
<trkpt lat="45.971647" lon="12.161371"><ele>237.63</ele><time>2022-02-05T15:29:25Z</time></trkpt>
<trkpt lat="45.971689" lon="12.161744"><ele>235.52</ele><time>2022-02-05T15:29:33Z</time></trkpt>
<trkpt lat="45.971708" lon="12.162131"><ele>233.21</ele><time>2022-02-05T15:29:41Z</time></trkpt>
<trkpt lat="45.971695" lon="12.162954"><ele>231.55</ele><time>2022-02-05T15:29:49Z</time></trkpt>
<trkpt lat="45.971741" lon="12.165752"><ele>229.7</ele><time>2022-02-05T15:29:57Z</time></trkpt>
<trkpt lat="45.971837" lon="12.16687"><ele>229.88</ele><time>2022-02-05T15:30:06Z</time></trkpt>
<trkpt lat="45.972071" lon="12.168125"><ele>237.95</ele><time>2022-02-05T15:30:14Z</time></trkpt>
<trkpt lat="45.972543" lon="12.17069"><ele>238.08</ele><time>2022-02-05T15:30:22Z</time></trkpt>
<trkpt lat="45.972827" lon="12.171802"><ele>245.08</ele><time>2022-02-05T15:30:30Z</time></trkpt>
<trkpt lat="45.973277" lon="12.173331"><ele>238.39</ele><time>2022-02-05T15:30:38Z</time></trkpt>
<trkpt lat="45.973437" lon="12.173937"><ele>240.71</ele><time>2022-02-05T15:30:46Z</time></trkpt>
<trkpt lat="45.973538" lon="12.174427"><ele>238.05</ele><time>2022-02-05T15:30:55Z</time></trkpt>
<trkpt lat="45.973718" lon="12.175591"><ele>237.41</ele><time>2022-02-05T15:31:03Z</time></trkpt>
<trkpt lat="45.974074" lon="12.175566"><ele>236.94</ele><time>2022-02-05T15:31:05Z</time></trkpt>
<trkpt lat="45.974725" lon="12.175452"><ele>241.38</ele><time>2022-02-05T15:31:06Z</time></trkpt>
<trkpt lat="45.975804" lon="12.175268"><ele>245.02</ele><time>2022-02-05T15:31:08Z</time></trkpt>
<trkpt lat="45.976861" lon="12.174839"><ele>250.93</ele><time>2022-02-05T15:31:10Z</time></trkpt>
<trkpt lat="45.977384" lon="12.174783"><ele>251.81</ele><time>2022-02-05T15:31:12Z</time></trkpt>
<trkpt lat="45.977826" lon="12.174675"><ele>254.34</ele><time>2022-02-05T15:31:14Z</time></trkpt>
<trkpt lat="45.978406" lon="12.174776"><ele>257.36</ele><time>2022-02-05T15:31:15Z</time></trkpt>
<trkpt lat="45.978797" lon="12.174897"><ele>259.5</ele><time>2022-02-05T15:31:17Z</time></trkpt>
<trkpt lat="45.979273" lon="12.174955"><ele>259.77</ele><time>2022-02-05T15:31:19Z</time></trkpt>
<trkpt lat="45.979471" lon="12.174917"><ele>261.19</ele><time>2022-02-05T15:31:21Z</time></trkpt>
<trkpt lat="45.980278" lon="12.174565"><ele>267.57</ele><time>2022-02-05T15:31:23Z</time></trkpt>
<trkpt lat="45.983862" lon="12.173118"><ele>285.68</ele><time>2022-02-05T15:31:24Z</time></trkpt>
<trkpt lat="45.985443" lon="12.172674"><ele>295.78</ele><time>2022-02-05T15:31:26Z</time></trkpt>
<trkpt lat="45.986079" lon="12.172352"><ele>303.19</ele><time>2022-02-05T15:31:28Z</time></trkpt>
<trkpt lat="45.986378" lon="12.172288"><ele>306.65</ele><time>2022-02-05T15:31:30Z</time></trkpt>
<trkpt lat="45.986895" lon="12.172241"><ele>307.22</ele><time>2022-02-05T15:31:32Z</time></trkpt>
<trkpt lat="45.987394" lon="12.172237"><ele>309.64</ele><time>2022-02-05T15:31:33Z</time></trkpt>
<trkpt lat="45.987556" lon="12.172262"><ele>309.74</ele><time>2022-02-05T15:31:35Z</time></trkpt>
<trkpt lat="45.987874" lon="12.172355"><ele>309.05</ele><time>2022-02-05T15:31:37Z</time></trkpt>
<trkpt lat="45.988168" lon="12.172472"><ele>314.82</ele><time>2022-02-05T15:31:39Z</time></trkpt>
<trkpt lat="45.988776" lon="12.172466"><ele>324.55</ele><time>2022-02-05T15:31:41Z</time></trkpt>
<trkpt lat="45.989278" lon="12.172358"><ele>330.84</ele><time>2022-02-05T15:31:42Z</time></trkpt>
<trkpt lat="45.989389" lon="12.172354"><ele>332.72</ele><time>2022-02-05T15:31:44Z</time></trkpt>
<trkpt lat="45.990272" lon="12.172493"><ele>344.1</ele><time>2022-02-05T15:31:46Z</time></trkpt>
<trkpt lat="45.990323" lon="12.172411"><ele>345.49</ele><time>2022-02-05T15:31:48Z</time></trkpt>
<trkpt lat="45.99032" lon="12.172352"><ele>346.82</ele><time>2022-02-05T15:31:50Z</time></trkpt>
<trkpt lat="45.990296" lon="12.172294"><ele>348.3</ele><time>2022-02-05T15:31:51Z</time></trkpt>
<trkpt lat="45.990257" lon="12.172258"><ele>349.19</ele><time>2022-02-05T15:31:53Z</time></trkpt>
<trkpt lat="45.98982" lon="12.172136"><ele>347.37</ele><time>2022-02-05T15:31:55Z</time></trkpt>
<trkpt lat="45.988908" lon="12.171749"><ele>342.65</ele><time>2022-02-05T15:31:57Z</time></trkpt>
<trkpt lat="45.988853" lon="12.171669"><ele>344.8</ele><time>2022-02-05T15:31:59Z</time></trkpt>
<trkpt lat="45.98885" lon="12.171616"><ele>346.98</ele><time>2022-02-05T15:32:00Z</time></trkpt>
<trkpt lat="45.988881" lon="12.171526"><ele>351.02</ele><time>2022-02-05T15:32:02Z</time></trkpt>
<trkpt lat="45.988946" lon="12.171501"><ele>353.79</ele><time>2022-02-05T15:32:04Z</time></trkpt>
<trkpt lat="45.989023" lon="12.171512"><ele>355.38</ele><time>2022-02-05T15:32:06Z</time></trkpt>
<trkpt lat="45.989726" lon="12.171883"><ele>355.33</ele><time>2022-02-05T15:32:08Z</time></trkpt>
<trkpt lat="45.989912" lon="12.171943"><ele>354.09</ele><time>2022-02-05T15:32:09Z</time></trkpt>
<trkpt lat="45.990393" lon="12.171985"><ele>354.72</ele><time>2022-02-05T15:32:11Z</time></trkpt>
<trkpt lat="45.990548" lon="12.172045"><ele>354.32</ele><time>2022-02-05T15:32:13Z</time></trkpt>
<trkpt lat="45.990826" lon="12.172204"><ele>352.5</ele><time>2022-02-05T15:32:15Z</time></trkpt>
<trkpt lat="45.991213" lon="12.172277"><ele>361.87</ele><time>2022-02-05T15:32:17Z</time></trkpt>
<trkpt lat="45.991338" lon="12.172334"><ele>364.19</ele><time>2022-02-05T15:32:18Z</time></trkpt>
<trkpt lat="45.991465" lon="12.172469"><ele>364.62</ele><time>2022-02-05T15:32:20Z</time></trkpt>
<trkpt lat="45.991744" lon="12.172882"><ele>365.08</ele><time>2022-02-05T15:32:22Z</time></trkpt>
<trkpt lat="45.991855" lon="12.172965"><ele>365.92</ele><time>2022-02-05T15:32:24Z</time></trkpt>
<trkpt lat="45.992073" lon="12.173028"><ele>368.06</ele><time>2022-02-05T15:32:26Z</time></trkpt>
<trkpt lat="45.992182" lon="12.173094"><ele>367.86</ele><time>2022-02-05T15:32:27Z</time></trkpt>
<trkpt lat="45.99256" lon="12.17338"><ele>369.31</ele><time>2022-02-05T15:32:29Z</time></trkpt>
<trkpt lat="45.993041" lon="12.173926"><ele>371.58</ele><time>2022-02-05T15:32:31Z</time></trkpt>
<trkpt lat="45.993093" lon="12.173951"><ele>371.96</ele><time>2022-02-05T15:32:33Z</time></trkpt>
<trkpt lat="45.99314" lon="12.173933"><ele>372.59</ele><time>2022-02-05T15:32:35Z</time></trkpt>
<trkpt lat="45.993175" lon="12.173885"><ele>373.34</ele><time>2022-02-05T15:32:36Z</time></trkpt>
<trkpt lat="45.993177" lon="12.173779"><ele>374.62</ele><time>2022-02-05T15:32:38Z</time></trkpt>
<trkpt lat="45.993143" lon="12.173726"><ele>374.67</ele><time>2022-02-05T15:32:40Z</time></trkpt>
<trkpt lat="45.992577" lon="12.173057"><ele>372.38</ele><time>2022-02-05T15:32:42Z</time></trkpt>
<trkpt lat="45.992066" lon="12.17263"><ele>378.49</ele><time>2022-02-05T15:32:44Z</time></trkpt>
<trkpt lat="45.992047" lon="12.172574"><ele>379.52</ele><time>2022-02-05T15:32:45Z</time></trkpt>
<trkpt lat="45.992068" lon="12.172497"><ele>382.5</ele><time>2022-02-05T15:32:47Z</time></trkpt>
<trkpt lat="45.992094" lon="12.172481"><ele>383.66</ele><time>2022-02-05T15:32:49Z</time></trkpt>
<trkpt lat="45.99214" lon="12.172496"><ele>385.1</ele><time>2022-02-05T15:32:51Z</time></trkpt>
<trkpt lat="45.9926" lon="12.172827"><ele>379.98</ele><time>2022-02-05T15:32:53Z</time></trkpt>
<trkpt lat="45.992723" lon="12.172886"><ele>380.88</ele><time>2022-02-05T15:32:54Z</time></trkpt>
<trkpt lat="45.992854" lon="12.172881"><ele>385.14</ele><time>2022-02-05T15:32:56Z</time></trkpt>
<trkpt lat="45.993359" lon="12.172692"><ele>399.45</ele><time>2022-02-05T15:32:58Z</time></trkpt>
<trkpt lat="45.993434" lon="12.17268"><ele>399.4</ele><time>2022-02-05T15:33:00Z</time></trkpt>
<trkpt lat="45.993505" lon="12.172694"><ele>398.89</ele><time>2022-02-05T15:33:02Z</time></trkpt>
<trkpt lat="45.993795" lon="12.172882"><ele>394.76</ele><time>2022-02-05T15:33:03Z</time></trkpt>
<trkpt lat="45.993966" lon="12.172948"><ele>394.81</ele><time>2022-02-05T15:33:05Z</time></trkpt>
<trkpt lat="45.994655" lon="12.173041"><ele>404.57</ele><time>2022-02-05T15:33:07Z</time></trkpt>
<trkpt lat="45.994911" lon="12.173023"><ele>408.15</ele><time>2022-02-05T15:33:09Z</time></trkpt>
<trkpt lat="45.996316" lon="12.172313"><ele>428.41</ele><time>2022-02-05T15:33:11Z</time></trkpt>
<trkpt lat="45.996429" lon="12.172277"><ele>429.41</ele><time>2022-02-05T15:33:12Z</time></trkpt>
<trkpt lat="45.996535" lon="12.172276"><ele>429.42</ele><time>2022-02-05T15:33:14Z</time></trkpt>
<trkpt lat="45.997799" lon="12.172607"><ele>436.19</ele><time>2022-02-05T15:33:16Z</time></trkpt>
<trkpt lat="45.99785" lon="12.172659"><ele>438.83</ele><time>2022-02-05T15:33:18Z</time></trkpt>
<trkpt lat="45.997887" lon="12.17274"><ele>440.51</ele><time>2022-02-05T15:33:20Z</time></trkpt>
<trkpt lat="45.997903" lon="12.172879"><ele>439.78</ele><time>2022-02-05T15:33:21Z</time></trkpt>
<trkpt lat="45.997872" lon="12.172994"><ele>437.22</ele><time>2022-02-05T15:33:23Z</time></trkpt>
<trkpt lat="45.997824" lon="12.173054"><ele>434.66</ele><time>2022-02-05T15:33:25Z</time></trkpt>
<trkpt lat="45.997754" lon="12.173095"><ele>433.61</ele><time>2022-02-05T15:33:27Z</time></trkpt>
<trkpt lat="45.997158" lon="12.173141"><ele>440.26</ele><time>2022-02-05T15:33:29Z</time></trkpt>
<trkpt lat="45.996847" lon="12.173301"><ele>442.79</ele><time>2022-02-05T15:33:30Z</time></trkpt>
<trkpt lat="45.996672" lon="12.173445"><ele>439.75</ele><time>2022-02-05T15:33:32Z</time></trkpt>
<trkpt lat="45.996581" lon="12.173557"><ele>440.11</ele><time>2022-02-05T15:33:34Z</time></trkpt>
<trkpt lat="45.996388" lon="12.173874"><ele>439.88</ele><time>2022-02-05T15:33:36Z</time></trkpt>
<trkpt lat="45.996374" lon="12.173947"><ele>440.09</ele><time>2022-02-05T15:33:38Z</time></trkpt>
<trkpt lat="45.996389" lon="12.173993"><ele>440.75</ele><time>2022-02-05T15:33:39Z</time></trkpt>
<trkpt lat="45.996416" lon="12.174012"><ele>441.27</ele><time>2022-02-05T15:33:41Z</time></trkpt>
<trkpt lat="45.996467" lon="12.173986"><ele>441.82</ele><time>2022-02-05T15:33:43Z</time></trkpt>
<trkpt lat="45.996645" lon="12.173738"><ele>442.61</ele><time>2022-02-05T15:33:45Z</time></trkpt>
<trkpt lat="45.996705" lon="12.173682"><ele>443.31</ele><time>2022-02-05T15:33:47Z</time></trkpt>
<trkpt lat="45.996949" lon="12.173584"><ele>447.83</ele><time>2022-02-05T15:33:48Z</time></trkpt>
<trkpt lat="45.997062" lon="12.173573"><ele>448.34</ele><time>2022-02-05T15:33:50Z</time></trkpt>
<trkpt lat="45.997244" lon="12.173593"><ele>449.82</ele><time>2022-02-05T15:33:52Z</time></trkpt>
<trkpt lat="45.997524" lon="12.173747"><ele>456.9</ele><time>2022-02-05T15:33:54Z</time></trkpt>
<trkpt lat="45.99782" lon="12.17373"><ele>456.71</ele><time>2022-02-05T15:33:56Z</time></trkpt>
<trkpt lat="45.998676" lon="12.173372"><ele>493.15</ele><time>2022-02-05T15:33:57Z</time></trkpt>
<trkpt lat="45.998797" lon="12.173334"><ele>495.76</ele><time>2022-02-05T15:33:59Z</time></trkpt>
<trkpt lat="45.99901" lon="12.173308"><ele>501.36</ele><time>2022-02-05T15:34:01Z</time></trkpt>
<trkpt lat="45.999268" lon="12.17319"><ele>502.0</ele><time>2022-02-05T15:34:03Z</time></trkpt>
<trkpt lat="45.999996" lon="12.172711"><ele>519.63</ele><time>2022-02-05T15:34:05Z</time></trkpt>
<trkpt lat="46.000089" lon="12.172624"><ele>521.64</ele><time>2022-02-05T15:34:06Z</time></trkpt>
<trkpt lat="46.000144" lon="12.172527"><ele>522.84</ele><time>2022-02-05T15:34:08Z</time></trkpt>
<trkpt lat="46.000162" lon="12.172463"><ele>525.6</ele><time>2022-02-05T15:34:10Z</time></trkpt>
<trkpt lat="46.000155" lon="12.172361"><ele>528.17</ele><time>2022-02-05T15:34:12Z</time></trkpt>
<trkpt lat="46.000127" lon="12.172306"><ele>526.76</ele><time>2022-02-05T15:34:14Z</time></trkpt>
<trkpt lat="45.999375" lon="12.171883"><ele>498.38</ele><time>2022-02-05T15:34:16Z</time></trkpt>
<trkpt lat="45.999346" lon="12.171835"><ele>503.73</ele><time>2022-02-05T15:34:17Z</time></trkpt>
<trkpt lat="45.999344" lon="12.171776"><ele>511.3</ele><time>2022-02-05T15:34:19Z</time></trkpt>
<trkpt lat="45.999376" lon="12.171713"><ele>521.76</ele><time>2022-02-05T15:34:21Z</time></trkpt>
<trkpt lat="45.999415" lon="12.171704"><ele>525.95</ele><time>2022-02-05T15:34:23Z</time></trkpt>
<trkpt lat="45.999645" lon="12.171851"><ele>520.38</ele><time>2022-02-05T15:34:25Z</time></trkpt>
<trkpt lat="45.999849" lon="12.171902"><ele>531.63</ele><time>2022-02-05T15:34:26Z</time></trkpt>
<trkpt lat="46.000243" lon="12.171889"><ele>555.95</ele><time>2022-02-05T15:34:28Z</time></trkpt>
<trkpt lat="46.000622" lon="12.171806"><ele>585.92</ele><time>2022-02-05T15:34:30Z</time></trkpt>
<trkpt lat="46.000768" lon="12.171796"><ele>589.28</ele><time>2022-02-05T15:34:32Z</time></trkpt>
<trkpt lat="46.000883" lon="12.171807"><ele>592.68</ele><time>2022-02-05T15:34:34Z</time></trkpt>
<trkpt lat="46.001129" lon="12.17188"><ele>601.38</ele><time>2022-02-05T15:34:35Z</time></trkpt>
<trkpt lat="46.001553" lon="12.172047"><ele>623.97</ele><time>2022-02-05T15:34:37Z</time></trkpt>
<trkpt lat="46.001682" lon="12.172057"><ele>631.09</ele><time>2022-02-05T15:34:39Z</time></trkpt>
<trkpt lat="46.00211" lon="12.171912"><ele>674.56</ele><time>2022-02-05T15:34:41Z</time></trkpt>
<trkpt lat="46.002202" lon="12.171937"><ele>675.63</ele><time>2022-02-05T15:34:43Z</time></trkpt>
<trkpt lat="46.002243" lon="12.171989"><ele>672.06</ele><time>2022-02-05T15:34:44Z</time></trkpt>
<trkpt lat="46.00228" lon="12.172149"><ele>660.74</ele><time>2022-02-05T15:34:46Z</time></trkpt>
<trkpt lat="46.002232" lon="12.172303"><ele>643.12</ele><time>2022-02-05T15:34:48Z</time></trkpt>
<trkpt lat="46.002173" lon="12.172394"><ele>629.29</ele><time>2022-02-05T15:34:50Z</time></trkpt>
<trkpt lat="46.001756" lon="12.172815"><ele>598.74</ele><time>2022-02-05T15:34:52Z</time></trkpt>
<trkpt lat="46.001573" lon="12.172953"><ele>596.03</ele><time>2022-02-05T15:34:53Z</time></trkpt>
<trkpt lat="46.001103" lon="12.173003"><ele>592.6</ele><time>2022-02-05T15:34:55Z</time></trkpt>
<trkpt lat="46.000961" lon="12.17305"><ele>588.54</ele><time>2022-02-05T15:34:57Z</time></trkpt>
<trkpt lat="46.000511" lon="12.173352"><ele>584.55</ele><time>2022-02-05T15:34:59Z</time></trkpt>
<trkpt lat="46.000486" lon="12.173424"><ele>586.57</ele><time>2022-02-05T15:35:01Z</time></trkpt>
<trkpt lat="46.000526" lon="12.173475"><ele>590.75</ele><time>2022-02-05T15:35:02Z</time></trkpt>
<trkpt lat="46.000562" lon="12.173471"><ele>592.17</ele><time>2022-02-05T15:35:04Z</time></trkpt>
<trkpt lat="46.000833" lon="12.173282"><ele>592.16</ele><time>2022-02-05T15:35:06Z</time></trkpt>
<trkpt lat="46.00092" lon="12.173244"><ele>593.05</ele><time>2022-02-05T15:35:08Z</time></trkpt>
<trkpt lat="46.001017" lon="12.173232"><ele>595.29</ele><time>2022-02-05T15:35:10Z</time></trkpt>
<trkpt lat="46.001194" lon="12.173266"><ele>598.85</ele><time>2022-02-05T15:35:11Z</time></trkpt>
<trkpt lat="46.001511" lon="12.173455"><ele>603.87</ele><time>2022-02-05T15:35:13Z</time></trkpt>
<trkpt lat="46.001607" lon="12.1735"><ele>604.35</ele><time>2022-02-05T15:35:15Z</time></trkpt>
<trkpt lat="46.0017" lon="12.173509"><ele>605.22</ele><time>2022-02-05T15:35:17Z</time></trkpt>
<trkpt lat="46.001814" lon="12.173482"><ele>608.15</ele><time>2022-02-05T15:35:19Z</time></trkpt>
<trkpt lat="46.002293" lon="12.173225"><ele>619.69</ele><time>2022-02-05T15:35:20Z</time></trkpt>
<trkpt lat="46.002481" lon="12.17319"><ele>624.71</ele><time>2022-02-05T15:35:22Z</time></trkpt>
<trkpt lat="46.002582" lon="12.173203"><ele>627.58</ele><time>2022-02-05T15:35:24Z</time></trkpt>
<trkpt lat="46.002679" lon="12.173248"><ele>630.76</ele><time>2022-02-05T15:35:26Z</time></trkpt>
<trkpt lat="46.003021" lon="12.173493"><ele>641.51</ele><time>2022-02-05T15:35:28Z</time></trkpt>
<trkpt lat="46.003164" lon="12.173566"><ele>643.09</ele><time>2022-02-05T15:35:29Z</time></trkpt>
<trkpt lat="46.003392" lon="12.173583"><ele>642.48</ele><time>2022-02-05T15:35:31Z</time></trkpt>
<trkpt lat="46.003547" lon="12.173553"><ele>644.9</ele><time>2022-02-05T15:35:33Z</time></trkpt>
<trkpt lat="46.003752" lon="12.173432"><ele>649.77</ele><time>2022-02-05T15:35:35Z</time></trkpt>
<trkpt lat="46.003861" lon="12.173281"><ele>653.68</ele><time>2022-02-05T15:35:37Z</time></trkpt>
<trkpt lat="46.00412" lon="12.172588"><ele>639.14</ele><time>2022-02-05T15:35:38Z</time></trkpt>
<trkpt lat="46.004323" lon="12.171977"><ele>613.13</ele><time>2022-02-05T15:35:40Z</time></trkpt>
<trkpt lat="46.004394" lon="12.171663"><ele>620.79</ele><time>2022-02-05T15:35:42Z</time></trkpt>
<trkpt lat="46.004431" lon="12.171399"><ele>638.16</ele><time>2022-02-05T15:35:44Z</time></trkpt>
<trkpt lat="46.004431" lon="12.171285"><ele>651.0</ele><time>2022-02-05T15:35:46Z</time></trkpt>
<trkpt lat="46.00441" lon="12.171183"><ele>663.25</ele><time>2022-02-05T15:35:47Z</time></trkpt>
<trkpt lat="46.004284" lon="12.170911"><ele>682.62</ele><time>2022-02-05T15:35:49Z</time></trkpt>
<trkpt lat="46.004137" lon="12.170751"><ele>682.68</ele><time>2022-02-05T15:35:51Z</time></trkpt>
<trkpt lat="46.004123" lon="12.170708"><ele>684.16</ele><time>2022-02-05T15:35:53Z</time></trkpt>
<trkpt lat="46.004132" lon="12.170662"><ele>686.26</ele><time>2022-02-05T15:35:55Z</time></trkpt>
<trkpt lat="46.00416" lon="12.170638"><ele>688.55</ele><time>2022-02-05T15:35:56Z</time></trkpt>
<trkpt lat="46.004212" lon="12.170651"><ele>689.89</ele><time>2022-02-05T15:35:58Z</time></trkpt>
<trkpt lat="46.004416" lon="12.170885"><ele>692.95</ele><time>2022-02-05T15:36:00Z</time></trkpt>
<trkpt lat="46.004505" lon="12.17101"><ele>689.3</ele><time>2022-02-05T15:36:02Z</time></trkpt>
<trkpt lat="46.004589" lon="12.171231"><ele>665.96</ele><time>2022-02-05T15:36:04Z</time></trkpt>
<trkpt lat="46.004614" lon="12.171449"><ele>643.39</ele><time>2022-02-05T15:36:05Z</time></trkpt>
<trkpt lat="46.004615" lon="12.171626"><ele>639.58</ele><time>2022-02-05T15:36:07Z</time></trkpt>
<trkpt lat="46.004558" lon="12.172332"><ele>659.18</ele><time>2022-02-05T15:36:09Z</time></trkpt>
<trkpt lat="46.004563" lon="12.17241"><ele>664.84</ele><time>2022-02-05T15:36:11Z</time></trkpt>
<trkpt lat="46.004595" lon="12.172433"><ele>668.77</ele><time>2022-02-05T15:36:13Z</time></trkpt>
<trkpt lat="46.00462" lon="12.172422"><ele>669.84</ele><time>2022-02-05T15:36:14Z</time></trkpt>
<trkpt lat="46.004656" lon="12.17235"><ele>667.43</ele><time>2022-02-05T15:36:16Z</time></trkpt>
<trkpt lat="46.004807" lon="12.171476"><ele>659.17</ele><time>2022-02-05T15:36:18Z</time></trkpt>
<trkpt lat="46.00478" lon="12.171095"><ele>695.33</ele><time>2022-02-05T15:36:20Z</time></trkpt>
<trkpt lat="46.004714" lon="12.170836"><ele>750.83</ele><time>2022-02-05T15:36:22Z</time></trkpt>
<trkpt lat="46.004662" lon="12.170743"><ele>734.07</ele><time>2022-02-05T15:36:23Z</time></trkpt>
<trkpt lat="46.004366" lon="12.170379"><ele>691.24</ele><time>2022-02-05T15:36:25Z</time></trkpt>
<trkpt lat="46.004112" lon="12.169975"><ele>669.34</ele><time>2022-02-05T15:36:27Z</time></trkpt>
<trkpt lat="46.004005" lon="12.169898"><ele>673.05</ele><time>2022-02-05T15:36:29Z</time></trkpt>
<trkpt lat="46.003888" lon="12.169894"><ele>676.32</ele><time>2022-02-05T15:36:31Z</time></trkpt>
<trkpt lat="46.003796" lon="12.169862"><ele>683.6</ele><time>2022-02-05T15:36:32Z</time></trkpt>
<trkpt lat="46.003675" lon="12.169787"><ele>685.79</ele><time>2022-02-05T15:36:34Z</time></trkpt>
<trkpt lat="46.003623" lon="12.169707"><ele>686.48</ele><time>2022-02-05T15:36:36Z</time></trkpt>
<trkpt lat="46.003623" lon="12.169627"><ele>686.91</ele><time>2022-02-05T15:36:38Z</time></trkpt>
<trkpt lat="46.003659" lon="12.169551"><ele>687.3</ele><time>2022-02-05T15:36:40Z</time></trkpt>
<trkpt lat="46.00369" lon="12.169524"><ele>687.49</ele><time>2022-02-05T15:36:41Z</time></trkpt>
<trkpt lat="46.00379" lon="12.169509"><ele>688.03</ele><time>2022-02-05T15:36:43Z</time></trkpt>
<trkpt lat="46.003828" lon="12.169525"><ele>688.31</ele><time>2022-02-05T15:36:45Z</time></trkpt>
<trkpt lat="46.003947" lon="12.169636"><ele>690.57</ele><time>2022-02-05T15:36:47Z</time></trkpt>
<trkpt lat="46.0043" lon="12.170069"><ele>680.02</ele><time>2022-02-05T15:36:49Z</time></trkpt>
<trkpt lat="46.004341" lon="12.17012"><ele>679.45</ele><time>2022-02-05T15:36:50Z</time></trkpt>
<trkpt lat="46.004391" lon="12.17012"><ele>679.21</ele><time>2022-02-05T15:36:52Z</time></trkpt>
<trkpt lat="46.004431" lon="12.170063"><ele>678.96</ele><time>2022-02-05T15:36:54Z</time></trkpt>
<trkpt lat="46.004435" lon="12.169945"><ele>678.39</ele><time>2022-02-05T15:36:56Z</time></trkpt>
<trkpt lat="46.004398" lon="12.169859"><ele>677.74</ele><time>2022-02-05T15:36:58Z</time></trkpt>
<trkpt lat="46.004282" lon="12.169738"><ele>676.09</ele><time>2022-02-05T15:36:59Z</time></trkpt>
<trkpt lat="46.004128" lon="12.169555"><ele>684.85</ele><time>2022-02-05T15:37:01Z</time></trkpt>
<trkpt lat="46.003916" lon="12.169435"><ele>707.6</ele><time>2022-02-05T15:37:03Z</time></trkpt>
<trkpt lat="46.003764" lon="12.169339"><ele>709.2</ele><time>2022-02-05T15:37:05Z</time></trkpt>
<trkpt lat="46.003728" lon="12.16927"><ele>709.48</ele><time>2022-02-05T15:37:07Z</time></trkpt>
<trkpt lat="46.003728" lon="12.169193"><ele>709.69</ele><time>2022-02-05T15:37:08Z</time></trkpt>
<trkpt lat="46.00379" lon="12.169159"><ele>709.9</ele><time>2022-02-05T15:37:10Z</time></trkpt>
<trkpt lat="46.003985" lon="12.169219"><ele>711.45</ele><time>2022-02-05T15:37:12Z</time></trkpt>
<trkpt lat="46.004182" lon="12.169285"><ele>698.97</ele><time>2022-02-05T15:37:14Z</time></trkpt>
<trkpt lat="46.004419" lon="12.169424"><ele>693.52</ele><time>2022-02-05T15:37:16Z</time></trkpt>
<trkpt lat="46.004471" lon="12.169404"><ele>695.11</ele><time>2022-02-05T15:37:17Z</time></trkpt>
<trkpt lat="46.004481" lon="12.169318"><ele>698.04</ele><time>2022-02-05T15:37:19Z</time></trkpt>
<trkpt lat="46.004441" lon="12.169251"><ele>699.27</ele><time>2022-02-05T15:37:21Z</time></trkpt>
<trkpt lat="46.004047" lon="12.169105"><ele>711.98</ele><time>2022-02-05T15:37:23Z</time></trkpt>
<trkpt lat="46.003867" lon="12.16902"><ele>713.56</ele><time>2022-02-05T15:37:25Z</time></trkpt>
<trkpt lat="46.003833" lon="12.168932"><ele>713.68</ele><time>2022-02-05T15:37:26Z</time></trkpt>
<trkpt lat="46.003845" lon="12.168893"><ele>713.73</ele><time>2022-02-05T15:37:28Z</time></trkpt>
<trkpt lat="46.003877" lon="12.168875"><ele>713.78</ele><time>2022-02-05T15:37:30Z</time></trkpt>
<trkpt lat="46.004043" lon="12.168974"><ele>715.01</ele><time>2022-02-05T15:37:32Z</time></trkpt>
<trkpt lat="46.0042" lon="12.169065"><ele>707.19</ele><time>2022-02-05T15:37:34Z</time></trkpt>
<trkpt lat="46.004496" lon="12.169197"><ele>702.03</ele><time>2022-02-05T15:37:35Z</time></trkpt>
<trkpt lat="46.00456" lon="12.169288"><ele>700.89</ele><time>2022-02-05T15:37:37Z</time></trkpt>
<trkpt lat="46.004607" lon="12.169455"><ele>697.84</ele><time>2022-02-05T15:37:39Z</time></trkpt>
<trkpt lat="46.004626" lon="12.169638"><ele>690.79</ele><time>2022-02-05T15:37:41Z</time></trkpt>
<trkpt lat="46.004616" lon="12.169764"><ele>687.07</ele><time>2022-02-05T15:37:43Z</time></trkpt>
<trkpt lat="46.004579" lon="12.169935"><ele>687.13</ele><time>2022-02-05T15:37:44Z</time></trkpt>
<trkpt lat="46.004581" lon="12.169979"><ele>687.14</ele><time>2022-02-05T15:37:46Z</time></trkpt>
<trkpt lat="46.00462" lon="12.17003"><ele>687.14</ele><time>2022-02-05T15:37:48Z</time></trkpt>
<trkpt lat="46.004655" lon="12.170023"><ele>687.14</ele><time>2022-02-05T15:37:50Z</time></trkpt>
<trkpt lat="46.004681" lon="12.16998"><ele>687.15</ele><time>2022-02-05T15:37:52Z</time></trkpt>
<trkpt lat="46.004727" lon="12.169821"><ele>687.2</ele><time>2022-02-05T15:37:53Z</time></trkpt>
<trkpt lat="46.004786" lon="12.169752"><ele>691.24</ele><time>2022-02-05T15:37:55Z</time></trkpt>
<trkpt lat="46.00487" lon="12.169718"><ele>696.17</ele><time>2022-02-05T15:37:57Z</time></trkpt>
<trkpt lat="46.005267" lon="12.169705"><ele>709.74</ele><time>2022-02-05T15:37:59Z</time></trkpt>
<trkpt lat="46.005922" lon="12.169695"><ele>712.97</ele><time>2022-02-05T15:38:01Z</time></trkpt>
<trkpt lat="46.006352" lon="12.169547"><ele>706.75</ele><time>2022-02-05T15:38:02Z</time></trkpt>
<trkpt lat="46.008049" lon="12.169046"><ele>696.16</ele><time>2022-02-05T15:38:04Z</time></trkpt>
<trkpt lat="46.008502" lon="12.168881"><ele>689.68</ele><time>2022-02-05T15:38:06Z</time></trkpt>
<trkpt lat="46.009048" lon="12.16857"><ele>684.48</ele><time>2022-02-05T15:38:08Z</time></trkpt>
<trkpt lat="46.01017" lon="12.168189"><ele>678.22</ele><time>2022-02-05T15:38:10Z</time></trkpt>
<trkpt lat="46.010216" lon="12.168172"><ele>677.04</ele><time>2022-02-05T15:38:12Z</time></trkpt>
<trkpt lat="46.010216" lon="12.168172"><ele>677.04</ele><time>2022-02-05T15:38:12Z</time></trkpt>
<trkpt lat="46.010557" lon="12.168046"><ele>675.86</ele><time>2022-02-05T15:38:15Z</time></trkpt>
<trkpt lat="46.011167" lon="12.167693"><ele>672.59</ele><time>2022-02-05T15:38:19Z</time></trkpt>
<trkpt lat="46.011342" lon="12.167615"><ele>673.98</ele><time>2022-02-05T15:38:23Z</time></trkpt>
<trkpt lat="46.011495" lon="12.167582"><ele>674.18</ele><time>2022-02-05T15:38:27Z</time></trkpt>
<trkpt lat="46.012281" lon="12.167604"><ele>672.48</ele><time>2022-02-05T15:38:31Z</time></trkpt>
<trkpt lat="46.012487" lon="12.167566"><ele>675.36</ele><time>2022-02-05T15:38:35Z</time></trkpt>
<trkpt lat="46.013641" lon="12.167228"><ele>664.5</ele><time>2022-02-05T15:38:39Z</time></trkpt>
<trkpt lat="46.013825" lon="12.167207"><ele>665.07</ele><time>2022-02-05T15:38:42Z</time></trkpt>
<trkpt lat="46.014636" lon="12.167137"><ele>662.95</ele><time>2022-02-05T15:38:46Z</time></trkpt>
<trkpt lat="46.014922" lon="12.167171"><ele>664.11</ele><time>2022-02-05T15:38:50Z</time></trkpt>
<trkpt lat="46.015149" lon="12.167159"><ele>663.91</ele><time>2022-02-05T15:38:54Z</time></trkpt>
<trkpt lat="46.016708" lon="12.166756"><ele>668.33</ele><time>2022-02-05T15:38:58Z</time></trkpt>
<trkpt lat="46.017142" lon="12.166619"><ele>666.22</ele><time>2022-02-05T15:39:02Z</time></trkpt>
<trkpt lat="46.017246" lon="12.166543"><ele>666.47</ele><time>2022-02-05T15:39:05Z</time></trkpt>
<trkpt lat="46.017633" lon="12.166186"><ele>667.16</ele><time>2022-02-05T15:39:09Z</time></trkpt>
<trkpt lat="46.017984" lon="12.166113"><ele>668.25</ele><time>2022-02-05T15:39:13Z</time></trkpt>
<trkpt lat="46.01813" lon="12.166035"><ele>668.66</ele><time>2022-02-05T15:39:17Z</time></trkpt>
<trkpt lat="46.018312" lon="12.165896"><ele>666.88</ele><time>2022-02-05T15:39:21Z</time></trkpt>
<trkpt lat="46.019186" lon="12.165071"><ele>652.8</ele><time>2022-02-05T15:39:25Z</time></trkpt>
<trkpt lat="46.01953" lon="12.164677"><ele>645.35</ele><time>2022-02-05T15:39:29Z</time></trkpt>
<trkpt lat="46.019949" lon="12.164256"><ele>641.58</ele><time>2022-02-05T15:39:32Z</time></trkpt>
<trkpt lat="46.02039" lon="12.163692"><ele>637.68</ele><time>2022-02-05T15:39:36Z</time></trkpt>
<trkpt lat="46.021657" lon="12.163277"><ele>624.62</ele><time>2022-02-05T15:39:40Z</time></trkpt>
<trkpt lat="46.022122" lon="12.163052"><ele>623.99</ele><time>2022-02-05T15:39:44Z</time></trkpt>
<trkpt lat="46.02284" lon="12.162862"><ele>624.12</ele><time>2022-02-05T15:39:48Z</time></trkpt>
<trkpt lat="46.023466" lon="12.162565"><ele>618.03</ele><time>2022-02-05T15:39:52Z</time></trkpt>
<trkpt lat="46.024057" lon="12.162155"><ele>609.89</ele><time>2022-02-05T15:39:56Z</time></trkpt>
<trkpt lat="46.024236" lon="12.16207"><ele>606.64</ele><time>2022-02-05T15:39:59Z</time></trkpt>
<trkpt lat="46.024372" lon="12.162046"><ele>604.87</ele><time>2022-02-05T15:40:03Z</time></trkpt>
<trkpt lat="46.025302" lon="12.162094"><ele>606.02</ele><time>2022-02-05T15:40:07Z</time></trkpt>
<trkpt lat="46.025434" lon="12.162141"><ele>606.05</ele><time>2022-02-05T15:40:11Z</time></trkpt>
<trkpt lat="46.026105" lon="12.162619"><ele>605.3</ele><time>2022-02-05T15:40:15Z</time></trkpt>
<trkpt lat="46.026214" lon="12.16265"><ele>604.26</ele><time>2022-02-05T15:40:19Z</time></trkpt>
<trkpt lat="46.026699" lon="12.162584"><ele>595.48</ele><time>2022-02-05T15:40:23Z</time></trkpt>
<trkpt lat="46.026877" lon="12.162597"><ele>592.13</ele><time>2022-02-05T15:40:26Z</time></trkpt>
<trkpt lat="46.027284" lon="12.162675"><ele>593.04</ele><time>2022-02-05T15:40:30Z</time></trkpt>
<trkpt lat="46.027794" lon="12.162679"><ele>586.51</ele><time>2022-02-05T15:40:34Z</time></trkpt>
<trkpt lat="46.028319" lon="12.162753"><ele>580.54</ele><time>2022-02-05T15:40:38Z</time></trkpt>
<trkpt lat="46.028583" lon="12.162818"><ele>580.85</ele><time>2022-02-05T15:40:42Z</time></trkpt>
<trkpt lat="46.029118" lon="12.163164"><ele>574.3</ele><time>2022-02-05T15:40:46Z</time></trkpt>
<trkpt lat="46.029363" lon="12.163276"><ele>572.23</ele><time>2022-02-05T15:40:50Z</time></trkpt>
<trkpt lat="46.029564" lon="12.163329"><ele>571.96</ele><time>2022-02-05T15:40:53Z</time></trkpt>
<trkpt lat="46.03018" lon="12.163337"><ele>569.39</ele><time>2022-02-05T15:40:57Z</time></trkpt>
<trkpt lat="46.031028" lon="12.163493"><ele>569.08</ele><time>2022-02-05T15:41:01Z</time></trkpt>
<trkpt lat="46.031489" lon="12.163547"><ele>567.62</ele><time>2022-02-05T15:41:05Z</time></trkpt>
<trkpt lat="46.031886" lon="12.163535"><ele>568.29</ele><time>2022-02-05T15:41:09Z</time></trkpt>
<trkpt lat="46.032396" lon="12.163447"><ele>565.57</ele><time>2022-02-05T15:41:13Z</time></trkpt>
<trkpt lat="46.032815" lon="12.163259"><ele>561.16</ele><time>2022-02-05T15:41:17Z</time></trkpt>
<trkpt lat="46.032925" lon="12.163268"><ele>559.53</ele><time>2022-02-05T15:41:20Z</time></trkpt>
<trkpt lat="46.033016" lon="12.163322"><ele>558.5</ele><time>2022-02-05T15:41:24Z</time></trkpt>
<trkpt lat="46.033289" lon="12.16357"><ele>559.47</ele><time>2022-02-05T15:41:28Z</time></trkpt>
<trkpt lat="46.033344" lon="12.163594"><ele>559.73</ele><time>2022-02-05T15:41:32Z</time></trkpt>
<trkpt lat="46.033409" lon="12.163563"><ele>559.41</ele><time>2022-02-05T15:41:36Z</time></trkpt>
<trkpt lat="46.033888" lon="12.162911"><ele>552.33</ele><time>2022-02-05T15:41:40Z</time></trkpt>
<trkpt lat="46.033951" lon="12.162869"><ele>552.2</ele><time>2022-02-05T15:41:44Z</time></trkpt>
<trkpt lat="46.034162" lon="12.162844"><ele>554.61</ele><time>2022-02-05T15:41:47Z</time></trkpt>
<trkpt lat="46.034251" lon="12.162789"><ele>554.16</ele><time>2022-02-05T15:41:51Z</time></trkpt>
<trkpt lat="46.034363" lon="12.162656"><ele>552.35</ele><time>2022-02-05T15:41:55Z</time></trkpt>
<trkpt lat="46.034426" lon="12.162517"><ele>550.1</ele><time>2022-02-05T15:41:59Z</time></trkpt>
<trkpt lat="46.034497" lon="12.162086"><ele>547.79</ele><time>2022-02-05T15:42:03Z</time></trkpt>
<trkpt lat="46.034546" lon="12.161988"><ele>547.52</ele><time>2022-02-05T15:42:07Z</time></trkpt>
<trkpt lat="46.034602" lon="12.161964"><ele>547.93</ele><time>2022-02-05T15:42:10Z</time></trkpt>
<trkpt lat="46.034663" lon="12.16197"><ele>548.68</ele><time>2022-02-05T15:42:14Z</time></trkpt>
<trkpt lat="46.035107" lon="12.162125"><ele>548.39</ele><time>2022-02-05T15:42:18Z</time></trkpt>
<trkpt lat="46.035202" lon="12.162213"><ele>547.5</ele><time>2022-02-05T15:42:22Z</time></trkpt>
<trkpt lat="46.035242" lon="12.162283"><ele>547.39</ele><time>2022-02-05T15:42:26Z</time></trkpt>
<trkpt lat="46.035277" lon="12.162402"><ele>548.26</ele><time>2022-02-05T15:42:30Z</time></trkpt>
<trkpt lat="46.035272" lon="12.16293"><ele>557.77</ele><time>2022-02-05T15:42:34Z</time></trkpt>
<trkpt lat="46.0353" lon="12.163139"><ele>558.3</ele><time>2022-02-05T15:42:37Z</time></trkpt>
<trkpt lat="46.035878" lon="12.164546"><ele>540.94</ele><time>2022-02-05T15:42:41Z</time></trkpt>
<trkpt lat="46.035894" lon="12.164647"><ele>539.61</ele><time>2022-02-05T15:42:45Z</time></trkpt>
<trkpt lat="46.035883" lon="12.164767"><ele>540.36</ele><time>2022-02-05T15:42:49Z</time></trkpt>
<trkpt lat="46.035737" lon="12.165325"><ele>553.75</ele><time>2022-02-05T15:42:53Z</time></trkpt>
<trkpt lat="46.035736" lon="12.165659"><ele>551.83</ele><time>2022-02-05T15:42:57Z</time></trkpt>
<trkpt lat="46.035776" lon="12.16594"><ele>545.43</ele><time>2022-02-05T15:43:01Z</time></trkpt>
<trkpt lat="46.035756" lon="12.166237"><ele>539.79</ele><time>2022-02-05T15:43:04Z</time></trkpt>
<trkpt lat="46.035567" lon="12.166668"><ele>536.51</ele><time>2022-02-05T15:43:08Z</time></trkpt>
<trkpt lat="46.035184" lon="12.167289"><ele>549.58</ele><time>2022-02-05T15:43:12Z</time></trkpt>
<trkpt lat="46.035165" lon="12.167346"><ele>550.53</ele><time>2022-02-05T15:43:16Z</time></trkpt>
<trkpt lat="46.035181" lon="12.167391"><ele>548.69</ele><time>2022-02-05T15:43:20Z</time></trkpt>
<trkpt lat="46.035218" lon="12.167418"><ele>545.19</ele><time>2022-02-05T15:43:24Z</time></trkpt>
<trkpt lat="46.035258" lon="12.167409"><ele>541.93</ele><time>2022-02-05T15:43:28Z</time></trkpt>
<trkpt lat="46.035668" lon="12.166939"><ele>525.5</ele><time>2022-02-05T15:43:31Z</time></trkpt>
<trkpt lat="46.035715" lon="12.166904"><ele>524.83</ele><time>2022-02-05T15:43:35Z</time></trkpt>
<trkpt lat="46.03577" lon="12.166894"><ele>523.22</ele><time>2022-02-05T15:43:39Z</time></trkpt>
<trkpt lat="46.035989" lon="12.167067"><ele>515.73</ele><time>2022-02-05T15:43:43Z</time></trkpt>
<trkpt lat="46.036307" lon="12.167358"><ele>513.83</ele><time>2022-02-05T15:43:47Z</time></trkpt>
<trkpt lat="46.036538" lon="12.167607"><ele>514.31</ele><time>2022-02-05T15:43:51Z</time></trkpt>
<trkpt lat="46.036606" lon="12.167643"><ele>513.95</ele><time>2022-02-05T15:43:55Z</time></trkpt>
<trkpt lat="46.036703" lon="12.167654"><ele>513.5</ele><time>2022-02-05T15:43:58Z</time></trkpt>
<trkpt lat="46.036698" lon="12.167966"><ele>514.75</ele><time>2022-02-05T15:44:01Z</time></trkpt>
<trkpt lat="46.036537" lon="12.16909"><ele>528.62</ele><time>2022-02-05T15:44:03Z</time></trkpt>
<trkpt lat="46.036526" lon="12.169259"><ele>530.14</ele><time>2022-02-05T15:44:06Z</time></trkpt>
<trkpt lat="46.036554" lon="12.169403"><ele>531.49</ele><time>2022-02-05T15:44:08Z</time></trkpt>
<trkpt lat="46.036762" lon="12.170049"><ele>535.95</ele><time>2022-02-05T15:44:11Z</time></trkpt>
<trkpt lat="46.036844" lon="12.170573"><ele>540.23</ele><time>2022-02-05T15:44:14Z</time></trkpt>
<trkpt lat="46.036953" lon="12.171703"><ele>542.63</ele><time>2022-02-05T15:44:16Z</time></trkpt>
<trkpt lat="46.036927" lon="12.171996"><ele>544.71</ele><time>2022-02-05T15:44:19Z</time></trkpt>
<trkpt lat="46.036727" lon="12.172834"><ele>547.23</ele><time>2022-02-05T15:44:21Z</time></trkpt>
<trkpt lat="46.03647" lon="12.174217"><ele>547.82</ele><time>2022-02-05T15:44:24Z</time></trkpt>
<trkpt lat="46.036505" lon="12.174891"><ele>548.51</ele><time>2022-02-05T15:44:26Z</time></trkpt>
<trkpt lat="46.036478" lon="12.175477"><ele>550.59</ele><time>2022-02-05T15:44:29Z</time></trkpt>
<trkpt lat="46.036592" lon="12.176107"><ele>555.88</ele><time>2022-02-05T15:44:31Z</time></trkpt>
<trkpt lat="46.036596" lon="12.176224"><ele>556.69</ele><time>2022-02-05T15:44:34Z</time></trkpt>
<trkpt lat="46.036577" lon="12.176421"><ele>557.61</ele><time>2022-02-05T15:44:36Z</time></trkpt>
<trkpt lat="46.036485" lon="12.176715"><ele>558.15</ele><time>2022-02-05T15:44:39Z</time></trkpt>
<trkpt lat="46.036363" lon="12.176936"><ele>557.57</ele><time>2022-02-05T15:44:41Z</time></trkpt>
<trkpt lat="46.036265" lon="12.177539"><ele>561.86</ele><time>2022-02-05T15:44:44Z</time></trkpt>
<trkpt lat="46.036286" lon="12.177784"><ele>565.58</ele><time>2022-02-05T15:44:46Z</time></trkpt>
<trkpt lat="46.036546" lon="12.178903"><ele>575.18</ele><time>2022-02-05T15:44:49Z</time></trkpt>
<trkpt lat="46.036668" lon="12.179322"><ele>578.13</ele><time>2022-02-05T15:44:51Z</time></trkpt>
<trkpt lat="46.036803" lon="12.179676"><ele>581.38</ele><time>2022-02-05T15:44:54Z</time></trkpt>
<trkpt lat="46.037051" lon="12.17998"><ele>586.78</ele><time>2022-02-05T15:44:56Z</time></trkpt>
<trkpt lat="46.037145" lon="12.180175"><ele>590.04</ele><time>2022-02-05T15:44:59Z</time></trkpt>
<trkpt lat="46.037221" lon="12.180454"><ele>594.52</ele><time>2022-02-05T15:45:01Z</time></trkpt>
<trkpt lat="46.03727" lon="12.180466"><ele>595.86</ele><time>2022-02-05T15:45:04Z</time></trkpt>
<trkpt lat="46.037335" lon="12.180437"><ele>596.96</ele><time>2022-02-05T15:45:06Z</time></trkpt>
<trkpt lat="46.037423" lon="12.180335"><ele>597.32</ele><time>2022-02-05T15:45:09Z</time></trkpt>
<trkpt lat="46.037473" lon="12.180225"><ele>597.04</ele><time>2022-02-05T15:45:11Z</time></trkpt>
<trkpt lat="46.037495" lon="12.180096"><ele>596.6</ele><time>2022-02-05T15:45:14Z</time></trkpt>
<trkpt lat="46.037538" lon="12.179478"><ele>592.84</ele><time>2022-02-05T15:45:16Z</time></trkpt>
<trkpt lat="46.037567" lon="12.17939"><ele>593.16</ele><time>2022-02-05T15:45:19Z</time></trkpt>
<trkpt lat="46.037798" lon="12.178929"><ele>596.39</ele><time>2022-02-05T15:45:21Z</time></trkpt>
<trkpt lat="46.038116" lon="12.178592"><ele>600.87</ele><time>2022-02-05T15:45:24Z</time></trkpt>
<trkpt lat="46.038187" lon="12.178376"><ele>601.89</ele><time>2022-02-05T15:45:26Z</time></trkpt>
<trkpt lat="46.038202" lon="12.17791"><ele>601.58</ele><time>2022-02-05T15:45:29Z</time></trkpt>
<trkpt lat="46.038281" lon="12.177782"><ele>602.26</ele><time>2022-02-05T15:45:31Z</time></trkpt>
<trkpt lat="46.038607" lon="12.177482"><ele>608.05</ele><time>2022-02-05T15:45:34Z</time></trkpt>
<trkpt lat="46.038703" lon="12.177672"><ele>610.57</ele><time>2022-02-05T15:45:37Z</time></trkpt>
<trkpt lat="46.038789" lon="12.178463"><ele>620.29</ele><time>2022-02-05T15:45:39Z</time></trkpt>
<trkpt lat="46.03885" lon="12.178584"><ele>624.05</ele><time>2022-02-05T15:45:42Z</time></trkpt>
<trkpt lat="46.038898" lon="12.178595"><ele>626.2</ele><time>2022-02-05T15:45:44Z</time></trkpt>
<trkpt lat="46.039136" lon="12.178283"><ele>630.85</ele><time>2022-02-05T15:45:47Z</time></trkpt>
<trkpt lat="46.039448" lon="12.177948"><ele>637.57</ele><time>2022-02-05T15:45:49Z</time></trkpt>
<trkpt lat="46.039878" lon="12.177126"><ele>640.73</ele><time>2022-02-05T15:45:52Z</time></trkpt>
<trkpt lat="46.040062" lon="12.17688"><ele>640.97</ele><time>2022-02-05T15:45:54Z</time></trkpt>
<trkpt lat="46.040191" lon="12.176553"><ele>641.41</ele><time>2022-02-05T15:45:57Z</time></trkpt>
<trkpt lat="46.040534" lon="12.176145"><ele>643.83</ele><time>2022-02-05T15:45:59Z</time></trkpt>
<trkpt lat="46.040576" lon="12.176038"><ele>644.44</ele><time>2022-02-05T15:46:02Z</time></trkpt>
<trkpt lat="46.040612" lon="12.175824"><ele>645.2</ele><time>2022-02-05T15:46:04Z</time></trkpt>
<trkpt lat="46.040706" lon="12.175593"><ele>645.54</ele><time>2022-02-05T15:46:07Z</time></trkpt>
<trkpt lat="46.041217" lon="12.17452"><ele>649.01</ele><time>2022-02-05T15:46:09Z</time></trkpt>
<trkpt lat="46.041448" lon="12.174245"><ele>652.2</ele><time>2022-02-05T15:46:12Z</time></trkpt>
<trkpt lat="46.041636" lon="12.174073"><ele>653.92</ele><time>2022-02-05T15:46:14Z</time></trkpt>
<trkpt lat="46.041931" lon="12.17375"><ele>655.85</ele><time>2022-02-05T15:46:17Z</time></trkpt>
<trkpt lat="46.0423" lon="12.173391"><ele>655.26</ele><time>2022-02-05T15:46:19Z</time></trkpt>
<trkpt lat="46.043229" lon="12.172425"><ele>659.53</ele><time>2022-02-05T15:46:22Z</time></trkpt>
<trkpt lat="46.043421" lon="12.172202"><ele>659.24</ele><time>2022-02-05T15:46:24Z</time></trkpt>
<trkpt lat="46.043753" lon="12.171973"><ele>659.15</ele><time>2022-02-05T15:46:27Z</time></trkpt>
<trkpt lat="46.044247" lon="12.171823"><ele>658.71</ele><time>2022-02-05T15:46:29Z</time></trkpt>
<trkpt lat="46.044492" lon="12.171698"><ele>659.38</ele><time>2022-02-05T15:46:32Z</time></trkpt>
<trkpt lat="46.044768" lon="12.171625"><ele>659.59</ele><time>2022-02-05T15:46:34Z</time></trkpt>
<trkpt lat="46.045042" lon="12.171644"><ele>659.01</ele><time>2022-02-05T15:46:37Z</time></trkpt>
<trkpt lat="46.045298" lon="12.171545"><ele>659.63</ele><time>2022-02-05T15:46:39Z</time></trkpt>
<trkpt lat="46.045612" lon="12.17124"><ele>663.04</ele><time>2022-02-05T15:46:42Z</time></trkpt>
<trkpt lat="46.045987" lon="12.170738"><ele>665.45</ele><time>2022-02-05T15:46:44Z</time></trkpt>
<trkpt lat="46.046292" lon="12.170278"><ele>667.0</ele><time>2022-02-05T15:46:47Z</time></trkpt>
<trkpt lat="46.046424" lon="12.170201"><ele>667.08</ele><time>2022-02-05T15:46:49Z</time></trkpt>
<trkpt lat="46.046523" lon="12.170234"><ele>666.52</ele><time>2022-02-05T15:46:52Z</time></trkpt>
<trkpt lat="46.046935" lon="12.170506"><ele>662.87</ele><time>2022-02-05T15:46:54Z</time></trkpt>
<trkpt lat="46.047178" lon="12.170556"><ele>662.16</ele><time>2022-02-05T15:46:57Z</time></trkpt>
<trkpt lat="46.047956" lon="12.170352"><ele>660.47</ele><time>2022-02-05T15:47:00Z</time></trkpt>
<trkpt lat="46.048439" lon="12.170334"><ele>658.19</ele><time>2022-02-05T15:47:02Z</time></trkpt>
<trkpt lat="46.049112" lon="12.170267"><ele>655.99</ele><time>2022-02-05T15:47:05Z</time></trkpt>
<trkpt lat="46.049273" lon="12.17023"><ele>656.32</ele><time>2022-02-05T15:47:07Z</time></trkpt>
<trkpt lat="46.049648" lon="12.170098"><ele>655.88</ele><time>2022-02-05T15:47:10Z</time></trkpt>
<trkpt lat="46.050147" lon="12.169874"><ele>656.68</ele><time>2022-02-05T15:47:12Z</time></trkpt>
<trkpt lat="46.050388" lon="12.1699"><ele>658.39</ele><time>2022-02-05T15:47:15Z</time></trkpt>
<trkpt lat="46.051792" lon="12.170425"><ele>653.36</ele><time>2022-02-05T15:47:17Z</time></trkpt>
<trkpt lat="46.052875" lon="12.170967"><ele>652.3</ele><time>2022-02-05T15:47:20Z</time></trkpt>
<trkpt lat="46.054804" lon="12.171428"><ele>652.77</ele><time>2022-02-05T15:47:22Z</time></trkpt>
<trkpt lat="46.054533" lon="12.170794"><ele>647.58</ele><time>2022-02-05T15:47:24Z</time></trkpt>
<trkpt lat="46.054425" lon="12.170617"><ele>645.79</ele><time>2022-02-05T15:47:26Z</time></trkpt>
<trkpt lat="46.054277" lon="12.17048"><ele>645.22</ele><time>2022-02-05T15:47:28Z</time></trkpt>
<trkpt lat="46.05373" lon="12.170187"><ele>645.63</ele><time>2022-02-05T15:47:29Z</time></trkpt>
<trkpt lat="46.053472" lon="12.169898"><ele>646.95</ele><time>2022-02-05T15:47:31Z</time></trkpt>
<trkpt lat="46.053416" lon="12.169793"><ele>646.83</ele><time>2022-02-05T15:47:33Z</time></trkpt>
<trkpt lat="46.053424" lon="12.169648"><ele>646.53</ele><time>2022-02-05T15:47:35Z</time></trkpt>
<trkpt lat="46.053514" lon="12.169612"><ele>645.83</ele><time>2022-02-05T15:47:37Z</time></trkpt>
<trkpt lat="46.05378" lon="12.169709"><ele>643.2</ele><time>2022-02-05T15:47:38Z</time></trkpt>
<trkpt lat="46.053966" lon="12.169717"><ele>641.74</ele><time>2022-02-05T15:47:40Z</time></trkpt>
<trkpt lat="46.054127" lon="12.169692"><ele>641.35</ele><time>2022-02-05T15:47:42Z</time></trkpt>
<trkpt lat="46.054285" lon="12.169579"><ele>640.96</ele><time>2022-02-05T15:47:44Z</time></trkpt>
<trkpt lat="46.054423" lon="12.169424"><ele>640.46</ele><time>2022-02-05T15:47:46Z</time></trkpt>
<trkpt lat="46.054498" lon="12.169225"><ele>640.76</ele><time>2022-02-05T15:47:47Z</time></trkpt>
<trkpt lat="46.05457" lon="12.16892"><ele>639.83</ele><time>2022-02-05T15:47:49Z</time></trkpt>
<trkpt lat="46.054587" lon="12.168538"><ele>638.02</ele><time>2022-02-05T15:47:51Z</time></trkpt>
<trkpt lat="46.054558" lon="12.168286"><ele>636.92</ele><time>2022-02-05T15:47:53Z</time></trkpt>
<trkpt lat="46.054443" lon="12.167768"><ele>633.93</ele><time>2022-02-05T15:47:54Z</time></trkpt>
<trkpt lat="46.05444" lon="12.167505"><ele>632.05</ele><time>2022-02-05T15:47:56Z</time></trkpt>
<trkpt lat="46.05449" lon="12.16704"><ele>630.96</ele><time>2022-02-05T15:47:58Z</time></trkpt>
<trkpt lat="46.0545" lon="12.166825"><ele>629.31</ele><time>2022-02-05T15:48:00Z</time></trkpt>
<trkpt lat="46.054481" lon="12.166459"><ele>626.14</ele><time>2022-02-05T15:48:02Z</time></trkpt>
<trkpt lat="46.054449" lon="12.166279"><ele>625.18</ele><time>2022-02-05T15:48:03Z</time></trkpt>
<trkpt lat="46.054404" lon="12.166162"><ele>624.63</ele><time>2022-02-05T15:48:05Z</time></trkpt>
<trkpt lat="46.054336" lon="12.166109"><ele>624.78</ele><time>2022-02-05T15:48:07Z</time></trkpt>
<trkpt lat="46.054246" lon="12.166084"><ele>625.43</ele><time>2022-02-05T15:48:09Z</time></trkpt>
<trkpt lat="46.054114" lon="12.166096"><ele>626.57</ele><time>2022-02-05T15:48:11Z</time></trkpt>
<trkpt lat="46.053871" lon="12.166224"><ele>629.6</ele><time>2022-02-05T15:48:12Z</time></trkpt>
<trkpt lat="46.053783" lon="12.166173"><ele>630.37</ele><time>2022-02-05T15:48:14Z</time></trkpt>
<trkpt lat="46.05377" lon="12.166018"><ele>630.14</ele><time>2022-02-05T15:48:16Z</time></trkpt>
<trkpt lat="46.054036" lon="12.165443"><ele>627.26</ele><time>2022-02-05T15:48:18Z</time></trkpt>
<trkpt lat="46.05415" lon="12.165269"><ele>624.27</ele><time>2022-02-05T15:48:20Z</time></trkpt>
<trkpt lat="46.054207" lon="12.165037"><ele>622.82</ele><time>2022-02-05T15:48:21Z</time></trkpt>
<trkpt lat="46.054174" lon="12.164745"><ele>622.97</ele><time>2022-02-05T15:48:23Z</time></trkpt>
<trkpt lat="46.05377" lon="12.163433"><ele>622.65</ele><time>2022-02-05T15:48:25Z</time></trkpt>
<trkpt lat="46.05374" lon="12.163237"><ele>621.19</ele><time>2022-02-05T15:48:27Z</time></trkpt>
<trkpt lat="46.053738" lon="12.163039"><ele>620.58</ele><time>2022-02-05T15:48:29Z</time></trkpt>
<trkpt lat="46.053788" lon="12.162677"><ele>621.09</ele><time>2022-02-05T15:48:30Z</time></trkpt>
<trkpt lat="46.05379" lon="12.162511"><ele>621.67</ele><time>2022-02-05T15:48:32Z</time></trkpt>
<trkpt lat="46.053743" lon="12.162182"><ele>620.91</ele><time>2022-02-05T15:48:34Z</time></trkpt>
<trkpt lat="46.053759" lon="12.161905"><ele>619.79</ele><time>2022-02-05T15:48:36Z</time></trkpt>
<trkpt lat="46.053836" lon="12.161806"><ele>618.88</ele><time>2022-02-05T15:48:38Z</time></trkpt>
<trkpt lat="46.054099" lon="12.16165"><ele>617.98</ele><time>2022-02-05T15:48:39Z</time></trkpt>
<trkpt lat="46.054578" lon="12.161307"><ele>617.7</ele><time>2022-02-05T15:48:41Z</time></trkpt>
<trkpt lat="46.054812" lon="12.161108"><ele>617.31</ele><time>2022-02-05T15:48:43Z</time></trkpt>
<trkpt lat="46.055023" lon="12.160884"><ele>617.1</ele><time>2022-02-05T15:48:45Z</time></trkpt>
<trkpt lat="46.055123" lon="12.160761"><ele>616.3</ele><time>2022-02-05T15:48:46Z</time></trkpt>
<trkpt lat="46.055191" lon="12.160631"><ele>615.58</ele><time>2022-02-05T15:48:48Z</time></trkpt>
<trkpt lat="46.055359" lon="12.160229"><ele>613.59</ele><time>2022-02-05T15:48:50Z</time></trkpt>
<trkpt lat="46.055825" lon="12.159716"><ele>612.03</ele><time>2022-02-05T15:48:52Z</time></trkpt>
<trkpt lat="46.056044" lon="12.159351"><ele>608.31</ele><time>2022-02-05T15:48:54Z</time></trkpt>
<trkpt lat="46.056182" lon="12.159242"><ele>607.13</ele><time>2022-02-05T15:48:55Z</time></trkpt>
<trkpt lat="46.056337" lon="12.15926"><ele>606.79</ele><time>2022-02-05T15:48:57Z</time></trkpt>
<trkpt lat="46.056606" lon="12.15938"><ele>603.89</ele><time>2022-02-05T15:48:59Z</time></trkpt>
<trkpt lat="46.056685" lon="12.159374"><ele>603.02</ele><time>2022-02-05T15:49:01Z</time></trkpt>
<trkpt lat="46.056761" lon="12.15934"><ele>602.1</ele><time>2022-02-05T15:49:03Z</time></trkpt>
<trkpt lat="46.056832" lon="12.159246"><ele>601.09</ele><time>2022-02-05T15:49:04Z</time></trkpt>
<trkpt lat="46.056884" lon="12.158975"><ele>600.23</ele><time>2022-02-05T15:49:06Z</time></trkpt>
<trkpt lat="46.056932" lon="12.158338"><ele>597.42</ele><time>2022-02-05T15:49:08Z</time></trkpt>
<trkpt lat="46.057047" lon="12.157807"><ele>591.32</ele><time>2022-02-05T15:49:10Z</time></trkpt>
<trkpt lat="46.057148" lon="12.157691"><ele>588.86</ele><time>2022-02-05T15:49:12Z</time></trkpt>
<trkpt lat="46.057215" lon="12.157734"><ele>587.96</ele><time>2022-02-05T15:49:13Z</time></trkpt>
<trkpt lat="46.057537" lon="12.158443"><ele>584.5</ele><time>2022-02-05T15:49:15Z</time></trkpt>
<trkpt lat="46.057589" lon="12.158527"><ele>583.32</ele><time>2022-02-05T15:49:17Z</time></trkpt>
<trkpt lat="46.057705" lon="12.158543"><ele>580.22</ele><time>2022-02-05T15:49:19Z</time></trkpt>
<trkpt lat="46.057797" lon="12.158443"><ele>578.12</ele><time>2022-02-05T15:49:21Z</time></trkpt>
<trkpt lat="46.057917" lon="12.158092"><ele>572.82</ele><time>2022-02-05T15:49:22Z</time></trkpt>
<trkpt lat="46.05808" lon="12.157481"><ele>567.41</ele><time>2022-02-05T15:49:24Z</time></trkpt>
<trkpt lat="46.058084" lon="12.157235"><ele>566.63</ele><time>2022-02-05T15:49:26Z</time></trkpt>
<trkpt lat="46.058066" lon="12.157062"><ele>566.85</ele><time>2022-02-05T15:49:28Z</time></trkpt>
<trkpt lat="46.058131" lon="12.156657"><ele>565.93</ele><time>2022-02-05T15:49:30Z</time></trkpt>
<trkpt lat="46.058234" lon="12.156436"><ele>564.19</ele><time>2022-02-05T15:49:31Z</time></trkpt>
<trkpt lat="46.058327" lon="12.156154"><ele>561.37</ele><time>2022-02-05T15:49:33Z</time></trkpt>
<trkpt lat="46.058799" lon="12.154133"><ele>544.44</ele><time>2022-02-05T15:49:35Z</time></trkpt>
<trkpt lat="46.058929" lon="12.15337"><ele>539.58</ele><time>2022-02-05T15:49:37Z</time></trkpt>
<trkpt lat="46.059408" lon="12.151985"><ele>527.18</ele><time>2022-02-05T15:49:38Z</time></trkpt>
<trkpt lat="46.059596" lon="12.151146"><ele>518.81</ele><time>2022-02-05T15:49:40Z</time></trkpt>
<trkpt lat="46.059667" lon="12.151201"><ele>517.8</ele><time>2022-02-05T15:49:42Z</time></trkpt>
<trkpt lat="46.059717" lon="12.151389"><ele>517.08</ele><time>2022-02-05T15:49:44Z</time></trkpt>
<trkpt lat="46.059978" lon="12.15284"><ele>521.67</ele><time>2022-02-05T15:49:46Z</time></trkpt>
<trkpt lat="46.060028" lon="12.153048"><ele>521.28</ele><time>2022-02-05T15:49:49Z</time></trkpt>
<trkpt lat="46.060096" lon="12.153124"><ele>519.18</ele><time>2022-02-05T15:49:51Z</time></trkpt>
<trkpt lat="46.060201" lon="12.153106"><ele>516.7</ele><time>2022-02-05T15:49:53Z</time></trkpt>
<trkpt lat="46.061922" lon="12.151931"><ele>492.18</ele><time>2022-02-05T15:49:55Z</time></trkpt>
<trkpt lat="46.062085" lon="12.151862"><ele>489.14</ele><time>2022-02-05T15:49:57Z</time></trkpt>
<trkpt lat="46.062248" lon="12.15187"><ele>487.06</ele><time>2022-02-05T15:49:59Z</time></trkpt>
<trkpt lat="46.062389" lon="12.151902"><ele>485.87</ele><time>2022-02-05T15:50:01Z</time></trkpt>
<trkpt lat="46.062758" lon="12.15205"><ele>484.37</ele><time>2022-02-05T15:50:03Z</time></trkpt>
<trkpt lat="46.062891" lon="12.151993"><ele>482.97</ele><time>2022-02-05T15:50:05Z</time></trkpt>
<trkpt lat="46.062963" lon="12.151783"><ele>481.17</ele><time>2022-02-05T15:50:07Z</time></trkpt>
<trkpt lat="46.063049" lon="12.150865"><ele>465.66</ele><time>2022-02-05T15:50:09Z</time></trkpt>
<trkpt lat="46.063096" lon="12.150626"><ele>460.38</ele><time>2022-02-05T15:50:11Z</time></trkpt>
<trkpt lat="46.063282" lon="12.150055"><ele>449.79</ele><time>2022-02-05T15:50:13Z</time></trkpt>
<trkpt lat="46.06333" lon="12.149812"><ele>448.35</ele><time>2022-02-05T15:50:15Z</time></trkpt>
<trkpt lat="46.063439" lon="12.148984"><ele>438.71</ele><time>2022-02-05T15:50:17Z</time></trkpt>
<trkpt lat="46.063572" lon="12.148774"><ele>436.86</ele><time>2022-02-05T15:50:19Z</time></trkpt>
<trkpt lat="46.063795" lon="12.148491"><ele>431.91</ele><time>2022-02-05T15:50:21Z</time></trkpt>
<trkpt lat="46.064419" lon="12.148189"><ele>423.57</ele><time>2022-02-05T15:50:23Z</time></trkpt>
<trkpt lat="46.064659" lon="12.147925"><ele>423.0</ele><time>2022-02-05T15:50:26Z</time></trkpt>
<trkpt lat="46.064792" lon="12.147874"><ele>422.49</ele><time>2022-02-05T15:50:28Z</time></trkpt>
<trkpt lat="46.065078" lon="12.147848"><ele>420.16</ele><time>2022-02-05T15:50:30Z</time></trkpt>
<trkpt lat="46.06537" lon="12.147718"><ele>416.5</ele><time>2022-02-05T15:50:32Z</time></trkpt>
<trkpt lat="46.065503" lon="12.147621"><ele>413.97</ele><time>2022-02-05T15:50:34Z</time></trkpt>
<trkpt lat="46.065705" lon="12.1473"><ele>407.33</ele><time>2022-02-05T15:50:36Z</time></trkpt>
<trkpt lat="46.065833" lon="12.147159"><ele>404.0</ele><time>2022-02-05T15:50:38Z</time></trkpt>
<trkpt lat="46.066564" lon="12.146686"><ele>397.51</ele><time>2022-02-05T15:50:40Z</time></trkpt>
<trkpt lat="46.066584" lon="12.146727"><ele>397.73</ele><time>2022-02-05T15:50:41Z</time></trkpt>
<trkpt lat="46.066741" lon="12.14673"><ele>396.99</ele><time>2022-02-05T15:50:43Z</time></trkpt>
<trkpt lat="46.066852" lon="12.146776"><ele>396.71</ele><time>2022-02-05T15:50:44Z</time></trkpt>
<trkpt lat="46.066969" lon="12.146939"><ele>397.85</ele><time>2022-02-05T15:50:45Z</time></trkpt>
<trkpt lat="46.067034" lon="12.14698"><ele>397.89</ele><time>2022-02-05T15:50:47Z</time></trkpt>
<trkpt lat="46.067178" lon="12.146941"><ele>397.13</ele><time>2022-02-05T15:50:48Z</time></trkpt>
<trkpt lat="46.067536" lon="12.147093"><ele>395.15</ele><time>2022-02-05T15:50:49Z</time></trkpt>
<trkpt lat="46.067582" lon="12.147085"><ele>394.62</ele><time>2022-02-05T15:50:50Z</time></trkpt>
<trkpt lat="46.067624" lon="12.147043"><ele>394.02</ele><time>2022-02-05T15:50:52Z</time></trkpt>
<trkpt lat="46.067724" lon="12.147401"><ele>393.19</ele><time>2022-02-05T15:50:55Z</time></trkpt>
<trkpt lat="46.067698" lon="12.147522"><ele>393.33</ele><time>2022-02-05T15:50:58Z</time></trkpt>
<trkpt lat="46.067611" lon="12.147702"><ele>393.83</ele><time>2022-02-05T15:51:02Z</time></trkpt>
<trkpt lat="46.067445" lon="12.148248"><ele>391.37</ele><time>2022-02-05T15:51:05Z</time></trkpt>
<trkpt lat="46.067544" lon="12.148629"><ele>385.11</ele><time>2022-02-05T15:51:08Z</time></trkpt>
<trkpt lat="46.067709" lon="12.148931"><ele>382.76</ele><time>2022-02-05T15:51:11Z</time></trkpt>
<trkpt lat="46.067925" lon="12.148992"><ele>383.13</ele><time>2022-02-05T15:51:14Z</time></trkpt>
<trkpt lat="46.068263" lon="12.148875"><ele>384.77</ele><time>2022-02-05T15:51:18Z</time></trkpt>
<trkpt lat="46.06873" lon="12.148623"><ele>386.39</ele><time>2022-02-05T15:51:21Z</time></trkpt>
<trkpt lat="46.068987" lon="12.148648"><ele>388.26</ele><time>2022-02-05T15:51:24Z</time></trkpt>
<trkpt lat="46.069194" lon="12.148791"><ele>389.1</ele><time>2022-02-05T15:51:27Z</time></trkpt>
<trkpt lat="46.070367" lon="12.150106"><ele>389.19</ele><time>2022-02-05T15:51:31Z</time></trkpt>
<trkpt lat="46.070474" lon="12.150172"><ele>388.73</ele><time>2022-02-05T15:51:34Z</time></trkpt>
<trkpt lat="46.070695" lon="12.150172"><ele>386.34</ele><time>2022-02-05T15:51:37Z</time></trkpt>
<trkpt lat="46.070843" lon="12.150288"><ele>386.04</ele><time>2022-02-05T15:51:40Z</time></trkpt>
<trkpt lat="46.071035" lon="12.150619"><ele>386.56</ele><time>2022-02-05T15:51:44Z</time></trkpt>
<trkpt lat="46.071088" lon="12.15064"><ele>385.94</ele><time>2022-02-05T15:51:47Z</time></trkpt>
<trkpt lat="46.071106" lon="12.150345"><ele>384.29</ele><time>2022-02-05T15:51:51Z</time></trkpt>
<trkpt lat="46.071071" lon="12.149873"><ele>382.22</ele><time>2022-02-05T15:51:55Z</time></trkpt>
<trkpt lat="46.070882" lon="12.149012"><ele>381.19</ele><time>2022-02-05T15:51:59Z</time></trkpt>
<trkpt lat="46.070906" lon="12.148556"><ele>379.59</ele><time>2022-02-05T15:52:03Z</time></trkpt>
<trkpt lat="46.070819" lon="12.148155"><ele>378.95</ele><time>2022-02-05T15:52:07Z</time></trkpt>
<trkpt lat="46.070803" lon="12.147939"><ele>378.89</ele><time>2022-02-05T15:52:11Z</time></trkpt>
<trkpt lat="46.070886" lon="12.147494"><ele>377.79</ele><time>2022-02-05T15:52:15Z</time></trkpt>
<trkpt lat="46.071295" lon="12.146185"><ele>373.17</ele><time>2022-02-05T15:52:19Z</time></trkpt>
<trkpt lat="46.071334" lon="12.145819"><ele>372.76</ele><time>2022-02-05T15:52:23Z</time></trkpt>
<trkpt lat="46.071955" lon="12.145312"><ele>371.16</ele><time>2022-02-05T15:52:26Z</time></trkpt>
<trkpt lat="46.072416" lon="12.144839"><ele>372.87</ele><time>2022-02-05T15:52:30Z</time></trkpt>
<trkpt lat="46.072741" lon="12.144478"><ele>372.12</ele><time>2022-02-05T15:52:33Z</time></trkpt>
<trkpt lat="46.072821" lon="12.14441"><ele>371.84</ele><time>2022-02-05T15:52:37Z</time></trkpt>
<trkpt lat="46.073194" lon="12.143614"><ele>372.5</ele><time>2022-02-05T15:52:40Z</time></trkpt>
<trkpt lat="46.073453" lon="12.143031"><ele>369.62</ele><time>2022-02-05T15:52:44Z</time></trkpt>
<trkpt lat="46.073544" lon="12.142786"><ele>367.76</ele><time>2022-02-05T15:52:47Z</time></trkpt>
<trkpt lat="46.073604" lon="12.142564"><ele>367.05</ele><time>2022-02-05T15:52:51Z</time></trkpt>
<trkpt lat="46.073613" lon="12.142287"><ele>367.76</ele><time>2022-02-05T15:52:54Z</time></trkpt>
<trkpt lat="46.073591" lon="12.142044"><ele>368.0</ele><time>2022-02-05T15:52:58Z</time></trkpt>
<trkpt lat="46.073494" lon="12.141646"><ele>367.51</ele><time>2022-02-05T15:53:01Z</time></trkpt>
<trkpt lat="46.073445" lon="12.141367"><ele>366.32</ele><time>2022-02-05T15:53:05Z</time></trkpt>
<trkpt lat="46.073505" lon="12.141166"><ele>365.82</ele><time>2022-02-05T15:53:09Z</time></trkpt>
<trkpt lat="46.074008" lon="12.140548"><ele>365.86</ele><time>2022-02-05T15:53:12Z</time></trkpt>
<trkpt lat="46.074012" lon="12.140395"><ele>365.89</ele><time>2022-02-05T15:53:16Z</time></trkpt>
<trkpt lat="46.073881" lon="12.139919"><ele>365.25</ele><time>2022-02-05T15:53:19Z</time></trkpt>
<trkpt lat="46.073864" lon="12.139741"><ele>365.76</ele><time>2022-02-05T15:53:23Z</time></trkpt>
<trkpt lat="46.074005" lon="12.139451"><ele>364.76</ele><time>2022-02-05T15:53:26Z</time></trkpt>
<trkpt lat="46.074425" lon="12.138695"><ele>354.88</ele><time>2022-02-05T15:53:30Z</time></trkpt>
<trkpt lat="46.074849" lon="12.138044"><ele>348.87</ele><time>2022-02-05T15:53:33Z</time></trkpt>
<trkpt lat="46.075212" lon="12.137583"><ele>346.13</ele><time>2022-02-05T15:53:37Z</time></trkpt>
<trkpt lat="46.075356" lon="12.137329"><ele>345.55</ele><time>2022-02-05T15:53:40Z</time></trkpt>
<trkpt lat="46.075446" lon="12.137209"><ele>344.71</ele><time>2022-02-05T15:53:44Z</time></trkpt>
<trkpt lat="46.075568" lon="12.137104"><ele>343.04</ele><time>2022-02-05T15:53:47Z</time></trkpt>
<trkpt lat="46.076182" lon="12.137067"><ele>338.52</ele><time>2022-02-05T15:53:51Z</time></trkpt>
<trkpt lat="46.076647" lon="12.136994"><ele>336.85</ele><time>2022-02-05T15:53:54Z</time></trkpt>
<trkpt lat="46.07681" lon="12.136946"><ele>336.48</ele><time>2022-02-05T15:53:58Z</time></trkpt>
<trkpt lat="46.077214" lon="12.136809"><ele>334.55</ele><time>2022-02-05T15:54:02Z</time></trkpt>
<trkpt lat="46.077449" lon="12.136662"><ele>333.17</ele><time>2022-02-05T15:54:05Z</time></trkpt>
<trkpt lat="46.077768" lon="12.13638"><ele>332.0</ele><time>2022-02-05T15:54:09Z</time></trkpt>
<trkpt lat="46.078192" lon="12.136851"><ele>332.0</ele><time>2022-02-05T15:54:14Z</time></trkpt>
<trkpt lat="46.078172" lon="12.136924"><ele>332.0</ele><time>2022-02-05T15:54:20Z</time></trkpt>
<trkpt lat="46.078188" lon="12.136998"><ele>332.0</ele><time>2022-02-05T15:54:26Z</time></trkpt>
<trkpt lat="46.078232" lon="12.137042"><ele>332.0</ele><time>2022-02-05T15:54:32Z</time></trkpt>
<trkpt lat="46.078286" lon="12.137038"><ele>332.0</ele><time>2022-02-05T15:54:39Z</time></trkpt>
<trkpt lat="46.078324" lon="12.136994"><ele>332.0</ele><time>2022-02-05T15:54:45Z</time></trkpt>
<trkpt lat="46.078333" lon="12.13689"><ele>332.0</ele><time>2022-02-05T15:54:51Z</time></trkpt>
<trkpt lat="46.081139" lon="12.135911"><ele>327.75</ele><time>2022-02-05T15:54:57Z</time></trkpt>
<trkpt lat="46.081563" lon="12.135673"><ele>324.92</ele><time>2022-02-05T15:55:03Z</time></trkpt>
<trkpt lat="46.083196" lon="12.134348"><ele>317.49</ele><time>2022-02-05T15:55:09Z</time></trkpt>
<trkpt lat="46.085597" lon="12.132325"><ele>312.64</ele><time>2022-02-05T15:55:15Z</time></trkpt>
<trkpt lat="46.087102" lon="12.131093"><ele>307.43</ele><time>2022-02-05T15:55:21Z</time></trkpt>
<trkpt lat="46.088713" lon="12.129725"><ele>301.74</ele><time>2022-02-05T15:55:27Z</time></trkpt>
<trkpt lat="46.089228" lon="12.129245"><ele>303.78</ele><time>2022-02-05T15:55:34Z</time></trkpt>
<trkpt lat="46.089568" lon="12.128833"><ele>303.24</ele><time>2022-02-05T15:55:40Z</time></trkpt>
<trkpt lat="46.089867" lon="12.128368"><ele>302.61</ele><time>2022-02-05T15:55:46Z</time></trkpt>
<trkpt lat="46.090157" lon="12.127818"><ele>299.21</ele><time>2022-02-05T15:55:52Z</time></trkpt>
<trkpt lat="46.091825" lon="12.124189"><ele>301.98</ele><time>2022-02-05T15:55:58Z</time></trkpt>
<trkpt lat="46.092005" lon="12.123792"><ele>303.01</ele><time>2022-02-05T15:56:04Z</time></trkpt>
<trkpt lat="46.092117" lon="12.123583"><ele>302.84</ele><time>2022-02-05T15:56:10Z</time></trkpt>
<trkpt lat="46.092581" lon="12.122925"><ele>309.1</ele><time>2022-02-05T15:56:16Z</time></trkpt>
<trkpt lat="46.092756" lon="12.122512"><ele>310.61</ele><time>2022-02-05T15:56:22Z</time></trkpt>
<trkpt lat="46.092821" lon="12.122209"><ele>312.22</ele><time>2022-02-05T15:56:29Z</time></trkpt>
<trkpt lat="46.093109" lon="12.12046"><ele>319.89</ele><time>2022-02-05T15:56:35Z</time></trkpt>
<trkpt lat="46.09321" lon="12.120001"><ele>321.89</ele><time>2022-02-05T15:56:41Z</time></trkpt>
<trkpt lat="46.093591" lon="12.118845"><ele>319.93</ele><time>2022-02-05T15:56:47Z</time></trkpt>
<trkpt lat="46.093818" lon="12.118207"><ele>319.4</ele><time>2022-02-05T15:56:53Z</time></trkpt>
<trkpt lat="46.093961" lon="12.117676"><ele>318.72</ele><time>2022-02-05T15:56:59Z</time></trkpt>
<trkpt lat="46.094056" lon="12.117153"><ele>315.55</ele><time>2022-02-05T15:57:05Z</time></trkpt>
<trkpt lat="46.09411" lon="12.116662"><ele>310.96</ele><time>2022-02-05T15:57:11Z</time></trkpt>
<trkpt lat="46.094134" lon="12.116184"><ele>310.33</ele><time>2022-02-05T15:57:18Z</time></trkpt>
<trkpt lat="46.094091" lon="12.114733"><ele>305.64</ele><time>2022-02-05T15:57:24Z</time></trkpt>
<trkpt lat="46.094061" lon="12.11291"><ele>301.51</ele><time>2022-02-05T15:57:30Z</time></trkpt>
<trkpt lat="46.09403" lon="12.112348"><ele>303.43</ele><time>2022-02-05T15:57:36Z</time></trkpt>
<trkpt lat="46.094044" lon="12.111783"><ele>303.56</ele><time>2022-02-05T15:57:42Z</time></trkpt>
<trkpt lat="46.094408" lon="12.108698"><ele>300.68</ele><time>2022-02-05T15:57:48Z</time></trkpt>
<trkpt lat="46.094443" lon="12.108276"><ele>302.01</ele><time>2022-02-05T15:57:54Z</time></trkpt>
<trkpt lat="46.094417" lon="12.107482"><ele>300.98</ele><time>2022-02-05T15:58:00Z</time></trkpt>
<trkpt lat="46.094063" lon="12.104266"><ele>295.63</ele><time>2022-02-05T15:58:06Z</time></trkpt>
<trkpt lat="46.09408" lon="12.103831"><ele>296.14</ele><time>2022-02-05T15:58:13Z</time></trkpt>
<trkpt lat="46.094114" lon="12.103483"><ele>296.52</ele><time>2022-02-05T15:58:19Z</time></trkpt>
<trkpt lat="46.094223" lon="12.10303"><ele>295.2</ele><time>2022-02-05T15:58:25Z</time></trkpt>
<trkpt lat="46.094448" lon="12.102341"><ele>300.82</ele><time>2022-02-05T15:58:31Z</time></trkpt>
<trkpt lat="46.09534" lon="12.099599"><ele>307.01</ele><time>2022-02-05T15:58:37Z</time></trkpt>
<trkpt lat="46.095666" lon="12.098643"><ele>296.79</ele><time>2022-02-05T15:58:43Z</time></trkpt>
<trkpt lat="46.096219" lon="12.097494"><ele>297.38</ele><time>2022-02-05T15:58:49Z</time></trkpt>
<trkpt lat="46.096631" lon="12.096714"><ele>298.7</ele><time>2022-02-05T15:58:55Z</time></trkpt>
<trkpt lat="46.097112" lon="12.095753"><ele>300.31</ele><time>2022-02-05T15:59:01Z</time></trkpt>
<trkpt lat="46.097444" lon="12.09502"><ele>300.06</ele><time>2022-02-05T15:59:08Z</time></trkpt>
<trkpt lat="46.098621" lon="12.092353"><ele>301.55</ele><time>2022-02-05T15:59:14Z</time></trkpt>
<trkpt lat="46.098803" lon="12.092037"><ele>302.46</ele><time>2022-02-05T15:59:20Z</time></trkpt>
<trkpt lat="46.099272" lon="12.09132"><ele>302.86</ele><time>2022-02-05T15:59:26Z</time></trkpt>
<trkpt lat="46.099884" lon="12.090115"><ele>303.41</ele><time>2022-02-05T15:59:32Z</time></trkpt>
<trkpt lat="46.100049" lon="12.090011"><ele>303.04</ele><time>2022-02-05T15:59:38Z</time></trkpt>
<trkpt lat="46.100123" lon="12.089996"><ele>303.0</ele><time>2022-02-05T15:59:44Z</time></trkpt>
<trkpt lat="46.100205" lon="12.089974"><ele>303.0</ele><time>2022-02-05T15:59:52Z</time></trkpt>
<trkpt lat="46.100276" lon="12.08991"><ele>303.0</ele><time>2022-02-05T15:59:59Z</time></trkpt>
<trkpt lat="46.10031" lon="12.089853"><ele>303.11</ele><time>2022-02-05T16:00:06Z</time></trkpt>
<trkpt lat="46.100346" lon="12.089713"><ele>303.24</ele><time>2022-02-05T16:00:13Z</time></trkpt>
<trkpt lat="46.100335" lon="12.089565"><ele>303.09</ele><time>2022-02-05T16:00:21Z</time></trkpt>
<trkpt lat="46.100305" lon="12.089482"><ele>303.01</ele><time>2022-02-05T16:00:28Z</time></trkpt>
<trkpt lat="46.10026" lon="12.089415"><ele>303.06</ele><time>2022-02-05T16:00:35Z</time></trkpt>
<trkpt lat="46.100134" lon="12.089348"><ele>303.52</ele><time>2022-02-05T16:00:43Z</time></trkpt>
<trkpt lat="46.099809" lon="12.089118"><ele>303.14</ele><time>2022-02-05T16:00:50Z</time></trkpt>
<trkpt lat="46.098442" lon="12.08787"><ele>300.35</ele><time>2022-02-05T16:00:57Z</time></trkpt>
<trkpt lat="46.096238" lon="12.085758"><ele>300.46</ele><time>2022-02-05T16:01:04Z</time></trkpt>
<trkpt lat="46.09618" lon="12.085692"><ele>300.25</ele><time>2022-02-05T16:01:12Z</time></trkpt>
<trkpt lat="46.095858" lon="12.085102"><ele>298.7</ele><time>2022-02-05T16:01:19Z</time></trkpt>
<trkpt lat="46.095765" lon="12.084647"><ele>297.82</ele><time>2022-02-05T16:01:26Z</time></trkpt>
<trkpt lat="46.095748" lon="12.084352"><ele>298.23</ele><time>2022-02-05T16:01:34Z</time></trkpt>
<trkpt lat="46.096098" lon="12.081481"><ele>294.94</ele><time>2022-02-05T16:01:41Z</time></trkpt>
<trkpt lat="46.097087" lon="12.074034"><ele>293.74</ele><time>2022-02-05T16:01:48Z</time></trkpt>
<trkpt lat="46.097116" lon="12.073644"><ele>295.42</ele><time>2022-02-05T16:01:55Z</time></trkpt>
<trkpt lat="46.097114" lon="12.073275"><ele>296.13</ele><time>2022-02-05T16:02:03Z</time></trkpt>
<trkpt lat="46.097047" lon="12.072703"><ele>296.4</ele><time>2022-02-05T16:02:10Z</time></trkpt>
<trkpt lat="46.09694" lon="12.072252"><ele>295.85</ele><time>2022-02-05T16:02:17Z</time></trkpt>
<trkpt lat="46.096785" lon="12.071814"><ele>294.81</ele><time>2022-02-05T16:02:24Z</time></trkpt>
<trkpt lat="46.096502" lon="12.071143"><ele>297.36</ele><time>2022-02-05T16:02:32Z</time></trkpt>
<trkpt lat="46.096447" lon="12.070831"><ele>298.01</ele><time>2022-02-05T16:02:39Z</time></trkpt>
<trkpt lat="46.096473" lon="12.070762"><ele>298.26</ele><time>2022-02-05T16:02:45Z</time></trkpt>
<trkpt lat="46.096472" lon="12.070611"><ele>298.8</ele><time>2022-02-05T16:02:52Z</time></trkpt>
<trkpt lat="46.09652" lon="12.070458"><ele>299.0</ele><time>2022-02-05T16:02:58Z</time></trkpt>
<trkpt lat="46.097251" lon="12.069468"><ele>298.91</ele><time>2022-02-05T16:03:05Z</time></trkpt>
<trkpt lat="46.097929" lon="12.068459"><ele>302.91</ele><time>2022-02-05T16:03:11Z</time></trkpt>
<trkpt lat="46.099187" lon="12.066969"><ele>303.07</ele><time>2022-02-05T16:03:17Z</time></trkpt>
<trkpt lat="46.099488" lon="12.066717"><ele>303.41</ele><time>2022-02-05T16:03:24Z</time></trkpt>
<trkpt lat="46.099613" lon="12.06683"><ele>303.73</ele><time>2022-02-05T16:03:29Z</time></trkpt>
<trkpt lat="46.100063" lon="12.067133"><ele>303.7</ele><time>2022-02-05T16:03:35Z</time></trkpt>
<trkpt lat="46.100348" lon="12.067267"><ele>305.46</ele><time>2022-02-05T16:03:40Z</time></trkpt>
<trkpt lat="46.100623" lon="12.067342"><ele>306.32</ele><time>2022-02-05T16:03:46Z</time></trkpt>
<trkpt lat="46.100854" lon="12.067376"><ele>305.45</ele><time>2022-02-05T16:03:52Z</time></trkpt>
<trkpt lat="46.101051" lon="12.067379"><ele>305.44</ele><time>2022-02-05T16:03:57Z</time></trkpt>
<trkpt lat="46.10158" lon="12.067337"><ele>308.83</ele><time>2022-02-05T16:04:03Z</time></trkpt>
<trkpt lat="46.103205" lon="12.067178"><ele>312.0</ele><time>2022-02-05T16:04:08Z</time></trkpt>
<trkpt lat="46.103691" lon="12.06724"><ele>311.95</ele><time>2022-02-05T16:04:14Z</time></trkpt>
<trkpt lat="46.103972" lon="12.06732"><ele>312.19</ele><time>2022-02-05T16:04:20Z</time></trkpt>
<trkpt lat="46.104176" lon="12.067396"><ele>312.37</ele><time>2022-02-05T16:04:25Z</time></trkpt>
<trkpt lat="46.105206" lon="12.068115"><ele>314.0</ele><time>2022-02-05T16:04:31Z</time></trkpt>
<trkpt lat="46.106226" lon="12.068842"><ele>314.07</ele><time>2022-02-05T16:04:36Z</time></trkpt>
<trkpt lat="46.106367" lon="12.069059"><ele>313.44</ele><time>2022-02-05T16:04:42Z</time></trkpt>
<trkpt lat="46.106421" lon="12.069153"><ele>313.04</ele><time>2022-02-05T16:04:52Z</time></trkpt>
<trkpt lat="46.106476" lon="12.069168"><ele>313.0</ele><time>2022-02-05T16:05:03Z</time></trkpt>
<trkpt lat="46.106537" lon="12.069129"><ele>313.06</ele><time>2022-02-05T16:05:13Z</time></trkpt>
<trkpt lat="46.106721" lon="12.06919"><ele>313.2</ele><time>2022-02-05T16:05:23Z</time></trkpt>
<trkpt lat="46.109102" lon="12.070887"><ele>313.0</ele><time>2022-02-05T16:05:34Z</time></trkpt>
<trkpt lat="46.111604" lon="12.072673"><ele>316.27</ele><time>2022-02-05T16:05:44Z</time></trkpt>
<trkpt lat="46.114994" lon="12.07501"><ele>313.94</ele><time>2022-02-05T16:05:54Z</time></trkpt>
<trkpt lat="46.116348" lon="12.075637"><ele>318.81</ele><time>2022-02-05T16:06:05Z</time></trkpt>
<trkpt lat="46.117038" lon="12.07587"><ele>317.32</ele><time>2022-02-05T16:06:15Z</time></trkpt>
<trkpt lat="46.117829" lon="12.075977"><ele>324.26</ele><time>2022-02-05T16:06:25Z</time></trkpt>
<trkpt lat="46.121731" lon="12.075358"><ele>345.23</ele><time>2022-02-05T16:06:36Z</time></trkpt>
<trkpt lat="46.122349" lon="12.075376"><ele>347.1</ele><time>2022-02-05T16:06:46Z</time></trkpt>
<trkpt lat="46.123099" lon="12.07555"><ele>349.35</ele><time>2022-02-05T16:06:56Z</time></trkpt>
<trkpt lat="46.123663" lon="12.075831"><ele>349.39</ele><time>2022-02-05T16:07:07Z</time></trkpt>
<trkpt lat="46.125337" lon="12.076949"><ele>351.96</ele><time>2022-02-05T16:07:17Z</time></trkpt>
<trkpt lat="46.126979" lon="12.078117"><ele>348.46</ele><time>2022-02-05T16:07:27Z</time></trkpt>
<trkpt lat="46.12766" lon="12.078559"><ele>344.04</ele><time>2022-02-05T16:07:38Z</time></trkpt>
<trkpt lat="46.128909" lon="12.07903"><ele>342.31</ele><time>2022-02-05T16:07:48Z</time></trkpt>
<trkpt lat="46.129649" lon="12.079436"><ele>334.81</ele><time>2022-02-05T16:07:58Z</time></trkpt>
<trkpt lat="46.129868" lon="12.079638"><ele>336.01</ele><time>2022-02-05T16:08:09Z</time></trkpt>
<trkpt lat="46.130459" lon="12.080398"><ele>335.06</ele><time>2022-02-05T16:08:19Z</time></trkpt>
<trkpt lat="46.13117" lon="12.081207"><ele>340.32</ele><time>2022-02-05T16:08:29Z</time></trkpt>
<trkpt lat="46.132409" lon="12.082312"><ele>336.07</ele><time>2022-02-05T16:08:40Z</time></trkpt>
<trkpt lat="46.133102" lon="12.082868"><ele>334.26</ele><time>2022-02-05T16:08:50Z</time></trkpt>
<trkpt lat="46.137005" lon="12.086271"><ele>330.33</ele><time>2022-02-05T16:09:00Z</time></trkpt>
<trkpt lat="46.137461" lon="12.086749"><ele>329.25</ele><time>2022-02-05T16:09:10Z</time></trkpt>
<trkpt lat="46.137807" lon="12.087219"><ele>333.19</ele><time>2022-02-05T16:09:21Z</time></trkpt>
<trkpt lat="46.138096" lon="12.087686"><ele>334.33</ele><time>2022-02-05T16:09:31Z</time></trkpt>
<trkpt lat="46.139092" lon="12.089473"><ele>332.9</ele><time>2022-02-05T16:09:41Z</time></trkpt>
<trkpt lat="46.139648" lon="12.090545"><ele>333.47</ele><time>2022-02-05T16:09:52Z</time></trkpt>
<trkpt lat="46.140053" lon="12.091286"><ele>335.44</ele><time>2022-02-05T16:10:02Z</time></trkpt>
<trkpt lat="46.140382" lon="12.091806"><ele>334.56</ele><time>2022-02-05T16:10:12Z</time></trkpt>
<trkpt lat="46.140614" lon="12.092059"><ele>335.53</ele><time>2022-02-05T16:10:23Z</time></trkpt>
<trkpt lat="46.140806" lon="12.092209"><ele>335.99</ele><time>2022-02-05T16:10:33Z</time></trkpt>
<trkpt lat="46.141094" lon="12.092428"><ele>337.88</ele><time>2022-02-05T16:10:43Z</time></trkpt>
<trkpt lat="46.141217" lon="12.092548"><ele>338.27</ele><time>2022-02-05T16:10:54Z</time></trkpt>
<trkpt lat="46.141298" lon="12.092668"><ele>338.47</ele><time>2022-02-05T16:11:04Z</time></trkpt>
<trkpt lat="46.141316" lon="12.092814"><ele>338.47</ele><time>2022-02-05T16:11:06Z</time></trkpt>
<trkpt lat="46.141348" lon="12.092891"><ele>338.7</ele><time>2022-02-05T16:11:07Z</time></trkpt>
<trkpt lat="46.141449" lon="12.092992"><ele>339.0</ele><time>2022-02-05T16:11:09Z</time></trkpt>
<trkpt lat="46.141499" lon="12.093008"><ele>339.0</ele><time>2022-02-05T16:11:10Z</time></trkpt>
<trkpt lat="46.141601" lon="12.092987"><ele>339.0</ele><time>2022-02-05T16:11:12Z</time></trkpt>
<trkpt lat="46.141661" lon="12.092937"><ele>339.0</ele><time>2022-02-05T16:11:14Z</time></trkpt>
<trkpt lat="46.141708" lon="12.092863"><ele>338.9</ele><time>2022-02-05T16:11:15Z</time></trkpt>
<trkpt lat="46.141736" lon="12.092771"><ele>338.75</ele><time>2022-02-05T16:11:17Z</time></trkpt>
<trkpt lat="46.141743" lon="12.092671"><ele>338.72</ele><time>2022-02-05T16:11:18Z</time></trkpt>
<trkpt lat="46.141729" lon="12.092573"><ele>338.77</ele><time>2022-02-05T16:11:20Z</time></trkpt>
<trkpt lat="46.141695" lon="12.092486"><ele>338.85</ele><time>2022-02-05T16:11:22Z</time></trkpt>
<trkpt lat="46.141644" lon="12.092419"><ele>338.73</ele><time>2022-02-05T16:11:23Z</time></trkpt>
<trkpt lat="46.14158" lon="12.092377"><ele>338.69</ele><time>2022-02-05T16:11:25Z</time></trkpt>
<trkpt lat="46.141517" lon="12.092096"><ele>338.54</ele><time>2022-02-05T16:11:26Z</time></trkpt>
<trkpt lat="46.141484" lon="12.091768"><ele>339.29</ele><time>2022-02-05T16:11:28Z</time></trkpt>
<trkpt lat="46.141479" lon="12.09136"><ele>339.64</ele><time>2022-02-05T16:11:30Z</time></trkpt>
<trkpt lat="46.141513" lon="12.090028"><ele>341.9</ele><time>2022-02-05T16:11:31Z</time></trkpt>
<trkpt lat="46.141442" lon="12.089178"><ele>343.18</ele><time>2022-02-05T16:11:33Z</time></trkpt>
<trkpt lat="46.141457" lon="12.088741"><ele>344.24</ele><time>2022-02-05T16:11:34Z</time></trkpt>
<trkpt lat="46.141568" lon="12.088217"><ele>342.17</ele><time>2022-02-05T16:11:36Z</time></trkpt>
<trkpt lat="46.141679" lon="12.087902"><ele>339.94</ele><time>2022-02-05T16:11:38Z</time></trkpt>
<trkpt lat="46.141772" lon="12.087714"><ele>338.92</ele><time>2022-02-05T16:11:39Z</time></trkpt>
<trkpt lat="46.141981" lon="12.087445"><ele>338.0</ele><time>2022-02-05T16:11:41Z</time></trkpt>
<trkpt lat="46.142175" lon="12.087308"><ele>339.11</ele><time>2022-02-05T16:11:42Z</time></trkpt>
<trkpt lat="46.142855" lon="12.087034"><ele>344.31</ele><time>2022-02-05T16:11:44Z</time></trkpt>
<trkpt lat="46.142922" lon="12.086976"><ele>344.48</ele><time>2022-02-05T16:11:46Z</time></trkpt>
<trkpt lat="46.142964" lon="12.086885"><ele>344.04</ele><time>2022-02-05T16:11:47Z</time></trkpt>
<trkpt lat="46.143068" lon="12.086177"><ele>338.38</ele><time>2022-02-05T16:11:49Z</time></trkpt>
<trkpt lat="46.143079" lon="12.085754"><ele>337.91</ele><time>2022-02-05T16:11:50Z</time></trkpt>
<trkpt lat="46.143054" lon="12.085419"><ele>338.0</ele><time>2022-02-05T16:11:52Z</time></trkpt>
<trkpt lat="46.143122" lon="12.085445"><ele>337.86</ele><time>2022-02-05T16:11:54Z</time></trkpt>
<trkpt lat="46.143194" lon="12.085514"><ele>337.58</ele><time>2022-02-05T16:11:57Z</time></trkpt>
<trkpt lat="46.143458" lon="12.085904"><ele>337.2</ele><time>2022-02-05T16:11:59Z</time></trkpt>
<trkpt lat="46.143559" lon="12.085976"><ele>337.3</ele><time>2022-02-05T16:12:01Z</time></trkpt>
<trkpt lat="46.143632" lon="12.08599"><ele>337.51</ele><time>2022-02-05T16:12:04Z</time></trkpt>
<trkpt lat="46.143808" lon="12.085979"><ele>338.19</ele><time>2022-02-05T16:12:06Z</time></trkpt>
<trkpt lat="46.144142" lon="12.085864"><ele>338.99</ele><time>2022-02-05T16:12:08Z</time></trkpt>
<trkpt lat="46.144487" lon="12.085685"><ele>340.22</ele><time>2022-02-05T16:12:11Z</time></trkpt>
<trkpt lat="46.144625" lon="12.085662"><ele>340.9</ele><time>2022-02-05T16:12:13Z</time></trkpt>
<trkpt lat="46.14567" lon="12.085772"><ele>349.46</ele><time>2022-02-05T16:12:15Z</time></trkpt>
<trkpt lat="46.145815" lon="12.085837"><ele>349.05</ele><time>2022-02-05T16:12:18Z</time></trkpt>
<trkpt lat="46.146292" lon="12.086195"><ele>346.8</ele><time>2022-02-05T16:12:20Z</time></trkpt>
<trkpt lat="46.146504" lon="12.086269"><ele>346.43</ele><time>2022-02-05T16:12:22Z</time></trkpt>
<trkpt lat="46.147772" lon="12.086202"><ele>348.99</ele><time>2022-02-05T16:12:25Z</time></trkpt>
<trkpt lat="46.148325" lon="12.086282"><ele>351.97</ele><time>2022-02-05T16:12:27Z</time></trkpt>
<trkpt lat="46.15021" lon="12.086413"><ele>355.69</ele><time>2022-02-05T16:12:29Z</time></trkpt>
<trkpt lat="46.150566" lon="12.086524"><ele>356.51</ele><time>2022-02-05T16:12:32Z</time></trkpt>
<trkpt lat="46.151018" lon="12.086766"><ele>356.0</ele><time>2022-02-05T16:12:34Z</time></trkpt>
<trkpt lat="46.151458" lon="12.086808"><ele>357.88</ele><time>2022-02-05T16:12:36Z</time></trkpt>
<trkpt lat="46.151734" lon="12.086889"><ele>359.24</ele><time>2022-02-05T16:12:39Z</time></trkpt>
<trkpt lat="46.151885" lon="12.086984"><ele>359.67</ele><time>2022-02-05T16:12:41Z</time></trkpt>
<trkpt lat="46.152154" lon="12.08722"><ele>359.76</ele><time>2022-02-05T16:12:43Z</time></trkpt>
<trkpt lat="46.152253" lon="12.087276"><ele>360.0</ele><time>2022-02-05T16:12:46Z</time></trkpt>
<trkpt lat="46.152434" lon="12.087339"><ele>360.0</ele><time>2022-02-05T16:12:48Z</time></trkpt>
<trkpt lat="46.152676" lon="12.087359"><ele>360.31</ele><time>2022-02-05T16:12:50Z</time></trkpt>
<trkpt lat="46.153288" lon="12.087284"><ele>362.06</ele><time>2022-02-05T16:12:53Z</time></trkpt>
<trkpt lat="46.153994" lon="12.087385"><ele>359.61</ele><time>2022-02-05T16:12:55Z</time></trkpt>
<trkpt lat="46.154164" lon="12.087348"><ele>359.64</ele><time>2022-02-05T16:12:58Z</time></trkpt>
<trkpt lat="46.15426" lon="12.087302"><ele>360.14</ele><time>2022-02-05T16:13:00Z</time></trkpt>
<trkpt lat="46.154598" lon="12.087061"><ele>362.45</ele><time>2022-02-05T16:13:02Z</time></trkpt>
<trkpt lat="46.154719" lon="12.087021"><ele>363.43</ele><time>2022-02-05T16:13:05Z</time></trkpt>
<trkpt lat="46.154807" lon="12.087056"><ele>363.62</ele><time>2022-02-05T16:13:07Z</time></trkpt>
<trkpt lat="46.155265" lon="12.087464"><ele>361.38</ele><time>2022-02-05T16:13:09Z</time></trkpt>
<trkpt lat="46.155673" lon="12.087723"><ele>360.7</ele><time>2022-02-05T16:13:12Z</time></trkpt>
<trkpt lat="46.155833" lon="12.087793"><ele>360.84</ele><time>2022-02-05T16:13:14Z</time></trkpt>
<trkpt lat="46.155895" lon="12.087738"><ele>361.57</ele><time>2022-02-05T16:13:14Z</time></trkpt>
<trkpt lat="46.155913" lon="12.087687"><ele>362.13</ele><time>2022-02-05T16:13:15Z</time></trkpt>
<trkpt lat="46.155915" lon="12.08761"><ele>362.86</ele><time>2022-02-05T16:13:16Z</time></trkpt>
<trkpt lat="46.155708" lon="12.087369"><ele>362.83</ele><time>2022-02-05T16:13:18Z</time></trkpt>
<trkpt lat="46.155617" lon="12.087202"><ele>362.79</ele><time>2022-02-05T16:13:21Z</time></trkpt>
<trkpt lat="46.155345" lon="12.08659"><ele>365.44</ele><time>2022-02-05T16:13:24Z</time></trkpt>
<trkpt lat="46.155308" lon="12.086441"><ele>365.37</ele><time>2022-02-05T16:13:26Z</time></trkpt>
<trkpt lat="46.155307" lon="12.086305"><ele>366.09</ele><time>2022-02-05T16:13:29Z</time></trkpt>
<trkpt lat="46.155424" lon="12.085653"><ele>374.63</ele><time>2022-02-05T16:13:32Z</time></trkpt>
<trkpt lat="46.155428" lon="12.085471"><ele>376.85</ele><time>2022-02-05T16:13:34Z</time></trkpt>
<trkpt lat="46.15542" lon="12.085319"><ele>378.57</ele><time>2022-02-05T16:13:37Z</time></trkpt>
<trkpt lat="46.155342" lon="12.084894"><ele>382.24</ele><time>2022-02-05T16:13:40Z</time></trkpt>
<trkpt lat="46.155127" lon="12.08373"><ele>385.82</ele><time>2022-02-05T16:13:42Z</time></trkpt>
<trkpt lat="46.155071" lon="12.083513"><ele>386.35</ele><time>2022-02-05T16:13:45Z</time></trkpt>
<trkpt lat="46.154981" lon="12.083295"><ele>386.21</ele><time>2022-02-05T16:13:48Z</time></trkpt>
<trkpt lat="46.154621" lon="12.082677"><ele>393.08</ele><time>2022-02-05T16:13:50Z</time></trkpt>
<trkpt lat="46.154582" lon="12.082625"><ele>393.78</ele><time>2022-02-05T16:13:53Z</time></trkpt>
<trkpt lat="46.154505" lon="12.082577"><ele>393.98</ele><time>2022-02-05T16:13:56Z</time></trkpt>
<trkpt lat="46.154157" lon="12.082572"><ele>389.27</ele><time>2022-02-05T16:13:58Z</time></trkpt>
<trkpt lat="46.153944" lon="12.082371"><ele>390.07</ele><time>2022-02-05T16:14:01Z</time></trkpt>
<trkpt lat="46.15372" lon="12.082083"><ele>394.17</ele><time>2022-02-05T16:14:04Z</time></trkpt>
<trkpt lat="46.153437" lon="12.081936"><ele>394.29</ele><time>2022-02-05T16:14:07Z</time></trkpt>
<trkpt lat="46.153362" lon="12.081876"><ele>394.57</ele><time>2022-02-05T16:14:09Z</time></trkpt>
<trkpt lat="46.152783" lon="12.081015"><ele>399.39</ele><time>2022-02-05T16:14:12Z</time></trkpt>
<trkpt lat="46.152625" lon="12.080753"><ele>399.74</ele><time>2022-02-05T16:14:15Z</time></trkpt>
<trkpt lat="46.152593" lon="12.080537"><ele>400.56</ele><time>2022-02-05T16:14:17Z</time></trkpt>
<trkpt lat="46.152599" lon="12.08045"><ele>401.64</ele><time>2022-02-05T16:14:20Z</time></trkpt>
<trkpt lat="46.152643" lon="12.080326"><ele>403.42</ele><time>2022-02-05T16:14:23Z</time></trkpt>
<trkpt lat="46.152718" lon="12.080215"><ele>405.47</ele><time>2022-02-05T16:14:25Z</time></trkpt>
<trkpt lat="46.152795" lon="12.080157"><ele>406.84</ele><time>2022-02-05T16:14:28Z</time></trkpt>
<trkpt lat="46.152933" lon="12.080116"><ele>408.12</ele><time>2022-02-05T16:14:31Z</time></trkpt>
<trkpt lat="46.153064" lon="12.080156"><ele>408.37</ele><time>2022-02-05T16:14:33Z</time></trkpt>
<trkpt lat="46.153149" lon="12.080276"><ele>407.35</ele><time>2022-02-05T16:14:36Z</time></trkpt>
<trkpt lat="46.153284" lon="12.08062"><ele>405.55</ele><time>2022-02-05T16:14:39Z</time></trkpt>
<trkpt lat="46.153308" lon="12.080644"><ele>405.56</ele><time>2022-02-05T16:14:41Z</time></trkpt>
<trkpt lat="46.153341" lon="12.080645"><ele>405.8</ele><time>2022-02-05T16:14:44Z</time></trkpt>
<trkpt lat="46.153379" lon="12.080843"><ele>405.58</ele><time>2022-02-05T16:14:48Z</time></trkpt>
<trkpt lat="46.15346" lon="12.08109"><ele>404.97</ele><time>2022-02-05T16:14:53Z</time></trkpt>
<trkpt lat="46.153614" lon="12.081457"><ele>405.05</ele><time>2022-02-05T16:14:57Z</time></trkpt>
<trkpt lat="46.153724" lon="12.081613"><ele>403.83</ele><time>2022-02-05T16:15:01Z</time></trkpt>
<trkpt lat="46.153802" lon="12.081676"><ele>403.19</ele><time>2022-02-05T16:15:05Z</time></trkpt>
<trkpt lat="46.153942" lon="12.081742"><ele>403.44</ele><time>2022-02-05T16:15:10Z</time></trkpt>
<trkpt lat="46.154611" lon="12.08196"><ele>409.76</ele><time>2022-02-05T16:15:14Z</time></trkpt>
<trkpt lat="46.154761" lon="12.082018"><ele>411.97</ele><time>2022-02-05T16:15:18Z</time></trkpt>
<trkpt lat="46.154849" lon="12.082085"><ele>412.97</ele><time>2022-02-05T16:15:23Z</time></trkpt>
<trkpt lat="46.155657" lon="12.082914"><ele>416.64</ele><time>2022-02-05T16:15:27Z</time></trkpt>
<trkpt lat="46.155747" lon="12.083068"><ele>417.0</ele><time>2022-02-05T16:15:31Z</time></trkpt>
<trkpt lat="46.155915" lon="12.083588"><ele>415.31</ele><time>2022-02-05T16:15:35Z</time></trkpt>
<trkpt lat="46.155987" lon="12.083725"><ele>415.23</ele><time>2022-02-05T16:15:40Z</time></trkpt>
<trkpt lat="46.156339" lon="12.084175"><ele>415.8</ele><time>2022-02-05T16:15:44Z</time></trkpt>
<trkpt lat="46.156998" lon="12.084724"><ele>421.37</ele><time>2022-02-05T16:15:48Z</time></trkpt>
<trkpt lat="46.157085" lon="12.084758"><ele>421.75</ele><time>2022-02-05T16:15:53Z</time></trkpt>
<trkpt lat="46.158917" lon="12.084763"><ele>432.32</ele><time>2022-02-05T16:15:57Z</time></trkpt>
<trkpt lat="46.159126" lon="12.084692"><ele>428.98</ele><time>2022-02-05T16:16:01Z</time></trkpt>
<trkpt lat="46.159323" lon="12.084543"><ele>421.05</ele><time>2022-02-05T16:16:05Z</time></trkpt>
<trkpt lat="46.159405" lon="12.084429"><ele>419.66</ele><time>2022-02-05T16:16:10Z</time></trkpt>
<trkpt lat="46.159474" lon="12.084286"><ele>422.06</ele><time>2022-02-05T16:16:14Z</time></trkpt>
<trkpt lat="46.159522" lon="12.084136"><ele>425.02</ele><time>2022-02-05T16:16:18Z</time></trkpt>
<trkpt lat="46.159735" lon="12.083224"><ele>440.23</ele><time>2022-02-05T16:16:23Z</time></trkpt>
<trkpt lat="46.159932" lon="12.082104"><ele>438.38</ele><time>2022-02-05T16:16:27Z</time></trkpt>
<trkpt lat="46.160252" lon="12.080625"><ele>435.92</ele><time>2022-02-05T16:16:31Z</time></trkpt>
<trkpt lat="46.160269" lon="12.08057"><ele>434.58</ele><time>2022-02-05T16:16:35Z</time></trkpt>
<trkpt lat="46.160266" lon="12.079906"><ele>439.84</ele><time>2022-02-05T16:16:40Z</time></trkpt>
<trkpt lat="46.160349" lon="12.079328"><ele>444.7</ele><time>2022-02-05T16:16:44Z</time></trkpt>
<trkpt lat="46.160524" lon="12.078681"><ele>442.33</ele><time>2022-02-05T16:16:48Z</time></trkpt>
<trkpt lat="46.160615" lon="12.078213"><ele>444.49</ele><time>2022-02-05T16:16:53Z</time></trkpt>
<trkpt lat="46.160592" lon="12.077815"><ele>449.52</ele><time>2022-02-05T16:16:57Z</time></trkpt>
<trkpt lat="46.160617" lon="12.077452"><ele>448.57</ele><time>2022-02-05T16:17:01Z</time></trkpt>
<trkpt lat="46.160726" lon="12.077077"><ele>443.23</ele><time>2022-02-05T16:17:05Z</time></trkpt>
<trkpt lat="46.160805" lon="12.07674"><ele>438.54</ele><time>2022-02-05T16:17:10Z</time></trkpt>
<trkpt lat="46.160824" lon="12.076262"><ele>434.6</ele><time>2022-02-05T16:17:14Z</time></trkpt>
<trkpt lat="46.161053" lon="12.074803"><ele>437.64</ele><time>2022-02-05T16:17:18Z</time></trkpt>
<trkpt lat="46.161146" lon="12.07385"><ele>440.1</ele><time>2022-02-05T16:17:23Z</time></trkpt>
<trkpt lat="46.161146" lon="12.07385"><ele>440.1</ele><time>2022-02-05T16:17:23Z</time></trkpt>
<trkpt lat="46.161193" lon="12.073357"><ele>442.55</ele><time>2022-02-05T16:17:28Z</time></trkpt>
<trkpt lat="46.161385" lon="12.072601"><ele>440.14</ele><time>2022-02-05T16:17:33Z</time></trkpt>
<trkpt lat="46.16152" lon="12.072204"><ele>439.08</ele><time>2022-02-05T16:17:38Z</time></trkpt>
<trkpt lat="46.161772" lon="12.071565"><ele>433.96</ele><time>2022-02-05T16:17:43Z</time></trkpt>
<trkpt lat="46.161922" lon="12.071048"><ele>436.66</ele><time>2022-02-05T16:17:48Z</time></trkpt>
<trkpt lat="46.161964" lon="12.070433"><ele>449.2</ele><time>2022-02-05T16:17:53Z</time></trkpt>
<trkpt lat="46.162228" lon="12.069542"><ele>446.21</ele><time>2022-02-05T16:17:59Z</time></trkpt>
<trkpt lat="46.162297" lon="12.068991"><ele>436.31</ele><time>2022-02-05T16:18:04Z</time></trkpt>
<trkpt lat="46.162425" lon="12.067527"><ele>450.4</ele><time>2022-02-05T16:18:09Z</time></trkpt>
<trkpt lat="46.162511" lon="12.067227"><ele>454.53</ele><time>2022-02-05T16:18:14Z</time></trkpt>
<trkpt lat="46.162604" lon="12.066997"><ele>457.82</ele><time>2022-02-05T16:18:19Z</time></trkpt>
<trkpt lat="46.163024" lon="12.066351"><ele>442.44</ele><time>2022-02-05T16:18:24Z</time></trkpt>
<trkpt lat="46.163096" lon="12.066021"><ele>450.89</ele><time>2022-02-05T16:18:29Z</time></trkpt>
<trkpt lat="46.163423" lon="12.063312"><ele>459.41</ele><time>2022-02-05T16:18:35Z</time></trkpt>
<trkpt lat="46.163422" lon="12.063003"><ele>450.88</ele><time>2022-02-05T16:18:40Z</time></trkpt>
<trkpt lat="46.163379" lon="12.062673"><ele>451.45</ele><time>2022-02-05T16:18:45Z</time></trkpt>
<trkpt lat="46.163225" lon="12.061613"><ele>444.27</ele><time>2022-02-05T16:18:50Z</time></trkpt>
<trkpt lat="46.163242" lon="12.061287"><ele>442.2</ele><time>2022-02-05T16:18:55Z</time></trkpt>
<trkpt lat="46.163351" lon="12.06103"><ele>440.4</ele><time>2022-02-05T16:19:00Z</time></trkpt>
<trkpt lat="46.16347" lon="12.060903"><ele>439.23</ele><time>2022-02-05T16:19:06Z</time></trkpt>
<trkpt lat="46.163492" lon="12.060887"><ele>436.66</ele><time>2022-02-05T16:19:11Z</time></trkpt>
<trkpt lat="46.164209" lon="12.060374"><ele>428.08</ele><time>2022-02-05T16:19:16Z</time></trkpt>
<trkpt lat="46.164833" lon="12.059876"><ele>437.79</ele><time>2022-02-05T16:19:21Z</time></trkpt>
<trkpt lat="46.164979" lon="12.059708"><ele>440.05</ele><time>2022-02-05T16:19:26Z</time></trkpt>
<trkpt lat="46.165163" lon="12.059445"><ele>439.23</ele><time>2022-02-05T16:19:31Z</time></trkpt>
<trkpt lat="46.165951" lon="12.058223"><ele>439.54</ele><time>2022-02-05T16:19:36Z</time></trkpt>
<trkpt lat="46.166093" lon="12.058075"><ele>441.7</ele><time>2022-02-05T16:19:42Z</time></trkpt>
<trkpt lat="46.166154" lon="12.058043"><ele>442.15</ele><time>2022-02-05T16:19:47Z</time></trkpt>
<trkpt lat="46.166582" lon="12.058028"><ele>438.42</ele><time>2022-02-05T16:19:52Z</time></trkpt>
<trkpt lat="46.167269" lon="12.057723"><ele>441.47</ele><time>2022-02-05T16:19:57Z</time></trkpt>
<trkpt lat="46.167589" lon="12.057615"><ele>443.48</ele><time>2022-02-05T16:20:02Z</time></trkpt>
<trkpt lat="46.167695" lon="12.057617"><ele>442.97</ele><time>2022-02-05T16:20:07Z</time></trkpt>
<trkpt lat="46.167909" lon="12.057662"><ele>439.3</ele><time>2022-02-05T16:20:12Z</time></trkpt>
<trkpt lat="46.168004" lon="12.057632"><ele>440.26</ele><time>2022-02-05T16:20:18Z</time></trkpt>
<trkpt lat="46.168525" lon="12.057213"><ele>452.84</ele><time>2022-02-05T16:20:23Z</time></trkpt>
<trkpt lat="46.168667" lon="12.057096"><ele>450.1</ele><time>2022-02-05T16:20:28Z</time></trkpt>
<trkpt lat="46.168852" lon="12.057018"><ele>447.15</ele><time>2022-02-05T16:20:33Z</time></trkpt>
<trkpt lat="46.169052" lon="12.056975"><ele>444.09</ele><time>2022-02-05T16:20:38Z</time></trkpt>
<trkpt lat="46.169354" lon="12.056938"><ele>433.52</ele><time>2022-02-05T16:20:43Z</time></trkpt>
<trkpt lat="46.169551" lon="12.056866"><ele>432.77</ele><time>2022-02-05T16:20:49Z</time></trkpt>
<trkpt lat="46.169678" lon="12.056766"><ele>435.78</ele><time>2022-02-05T16:20:54Z</time></trkpt>
<trkpt lat="46.169883" lon="12.056503"><ele>442.33</ele><time>2022-02-05T16:20:59Z</time></trkpt>
<trkpt lat="46.170043" lon="12.056332"><ele>442.49</ele><time>2022-02-05T16:21:04Z</time></trkpt>
<trkpt lat="46.170658" lon="12.055857"><ele>443.02</ele><time>2022-02-05T16:21:09Z</time></trkpt>
<trkpt lat="46.17096" lon="12.055617"><ele>437.55</ele><time>2022-02-05T16:21:14Z</time></trkpt>
<trkpt lat="46.171051" lon="12.05557"><ele>437.36</ele><time>2022-02-05T16:21:19Z</time></trkpt>
<trkpt lat="46.171385" lon="12.055595"><ele>432.07</ele><time>2022-02-05T16:21:25Z</time></trkpt>
<trkpt lat="46.171496" lon="12.055555"><ele>429.17</ele><time>2022-02-05T16:21:30Z</time></trkpt>
<trkpt lat="46.171611" lon="12.055447"><ele>429.6</ele><time>2022-02-05T16:21:35Z</time></trkpt>
<trkpt lat="46.172104" lon="12.054491"><ele>439.73</ele><time>2022-02-05T16:21:40Z</time></trkpt>
<trkpt lat="46.172191" lon="12.054373"><ele>439.43</ele><time>2022-02-05T16:21:45Z</time></trkpt>
<trkpt lat="46.17246" lon="12.054213"><ele>437.4</ele><time>2022-02-05T16:21:50Z</time></trkpt>
<trkpt lat="46.172539" lon="12.054125"><ele>438.61</ele><time>2022-02-05T16:21:55Z</time></trkpt>
<trkpt lat="46.172676" lon="12.053925"><ele>441.81</ele><time>2022-02-05T16:22:01Z</time></trkpt>
<trkpt lat="46.172743" lon="12.053867"><ele>441.86</ele><time>2022-02-05T16:22:06Z</time></trkpt>
<trkpt lat="46.172931" lon="12.053804"><ele>440.45</ele><time>2022-02-05T16:22:11Z</time></trkpt>
<trkpt lat="46.173625" lon="12.053753"><ele>434.86</ele><time>2022-02-05T16:22:16Z</time></trkpt>
<trkpt lat="46.17404" lon="12.053564"><ele>438.22</ele><time>2022-02-05T16:22:21Z</time></trkpt>
<trkpt lat="46.174346" lon="12.053519"><ele>436.03</ele><time>2022-02-05T16:22:26Z</time></trkpt>
<trkpt lat="46.174953" lon="12.053239"><ele>436.71</ele><time>2022-02-05T16:22:32Z</time></trkpt>
<trkpt lat="46.175042" lon="12.053218"><ele>437.0</ele><time>2022-02-05T16:22:37Z</time></trkpt>
<trkpt lat="46.175853" lon="12.05321"><ele>438.71</ele><time>2022-02-05T16:22:42Z</time></trkpt>
<trkpt lat="46.176152" lon="12.053119"><ele>438.85</ele><time>2022-02-05T16:22:47Z</time></trkpt>
<trkpt lat="46.176247" lon="12.053045"><ele>438.47</ele><time>2022-02-05T16:22:52Z</time></trkpt>
<trkpt lat="46.177113" lon="12.051981"><ele>448.58</ele><time>2022-02-05T16:22:57Z</time></trkpt>
<trkpt lat="46.177952" lon="12.051379"><ele>451.17</ele><time>2022-02-05T16:23:02Z</time></trkpt>
<trkpt lat="46.178543" lon="12.051084"><ele>445.46</ele><time>2022-02-05T16:23:08Z</time></trkpt>
<trkpt lat="46.178634" lon="12.050992"><ele>446.86</ele><time>2022-02-05T16:23:13Z</time></trkpt>
<trkpt lat="46.179116" lon="12.050262"><ele>452.25</ele><time>2022-02-05T16:23:18Z</time></trkpt>
<trkpt lat="46.179676" lon="12.04953"><ele>453.72</ele><time>2022-02-05T16:23:23Z</time></trkpt>
<trkpt lat="46.179847" lon="12.049319"><ele>456.94</ele><time>2022-02-05T16:23:28Z</time></trkpt>
<trkpt lat="46.180045" lon="12.049133"><ele>460.15</ele><time>2022-02-05T16:23:33Z</time></trkpt>
<trkpt lat="46.180179" lon="12.049048"><ele>462.03</ele><time>2022-02-05T16:23:38Z</time></trkpt>
<trkpt lat="46.180251" lon="12.049027"><ele>461.44</ele><time>2022-02-05T16:23:44Z</time></trkpt>
<trkpt lat="46.180428" lon="12.049022"><ele>452.22</ele><time>2022-02-05T16:23:49Z</time></trkpt>
<trkpt lat="46.180647" lon="12.048953"><ele>445.53</ele><time>2022-02-05T16:23:54Z</time></trkpt>
<trkpt lat="46.180786" lon="12.04887"><ele>444.88</ele><time>2022-02-05T16:23:59Z</time></trkpt>
<trkpt lat="46.18128" lon="12.048347"><ele>452.38</ele><time>2022-02-05T16:24:04Z</time></trkpt>
<trkpt lat="46.182104" lon="12.047443"><ele>463.54</ele><time>2022-02-05T16:24:09Z</time></trkpt>
<trkpt lat="46.182228" lon="12.047342"><ele>455.12</ele><time>2022-02-05T16:24:15Z</time></trkpt>
<trkpt lat="46.182417" lon="12.04725"><ele>444.8</ele><time>2022-02-05T16:24:20Z</time></trkpt>
<trkpt lat="46.182554" lon="12.047155"><ele>440.86</ele><time>2022-02-05T16:24:25Z</time></trkpt>
<trkpt lat="46.182775" lon="12.046927"><ele>441.77</ele><time>2022-02-05T16:24:30Z</time></trkpt>
<trkpt lat="46.183319" lon="12.046608"><ele>440.97</ele><time>2022-02-05T16:24:35Z</time></trkpt>
<trkpt lat="46.183852" lon="12.046071"><ele>444.1</ele><time>2022-02-05T16:24:40Z</time></trkpt>
<trkpt lat="46.184392" lon="12.045919"><ele>437.68</ele><time>2022-02-05T16:24:45Z</time></trkpt>
<trkpt lat="46.184506" lon="12.045858"><ele>436.97</ele><time>2022-02-05T16:24:51Z</time></trkpt>
<trkpt lat="46.184607" lon="12.045744"><ele>438.19</ele><time>2022-02-05T16:24:56Z</time></trkpt>
<trkpt lat="46.18474" lon="12.045527"><ele>441.14</ele><time>2022-02-05T16:25:01Z</time></trkpt>
<trkpt lat="46.184891" lon="12.045192"><ele>443.58</ele><time>2022-02-05T16:25:06Z</time></trkpt>
<trkpt lat="46.185192" lon="12.044707"><ele>454.03</ele><time>2022-02-05T16:25:11Z</time></trkpt>
<trkpt lat="46.185457" lon="12.044396"><ele>454.16</ele><time>2022-02-05T16:25:16Z</time></trkpt>
<trkpt lat="46.186101" lon="12.043348"><ele>447.27</ele><time>2022-02-05T16:25:21Z</time></trkpt>
<trkpt lat="46.186392" lon="12.042541"><ele>447.74</ele><time>2022-02-05T16:25:27Z</time></trkpt>
<trkpt lat="46.187032" lon="12.041381"><ele>446.67</ele><time>2022-02-05T16:25:32Z</time></trkpt>
<trkpt lat="46.187172" lon="12.041199"><ele>442.14</ele><time>2022-02-05T16:25:37Z</time></trkpt>
<trkpt lat="46.18721" lon="12.041179"><ele>440.58</ele><time>2022-02-05T16:25:42Z</time></trkpt>
<trkpt lat="46.187273" lon="12.041182"><ele>438.75</ele><time>2022-02-05T16:25:47Z</time></trkpt>
<trkpt lat="46.18793" lon="12.041411"><ele>439.22</ele><time>2022-02-05T16:25:52Z</time></trkpt>
<trkpt lat="46.188021" lon="12.041427"><ele>442.64</ele><time>2022-02-05T16:25:58Z</time></trkpt>
<trkpt lat="46.188119" lon="12.041256"><ele>443.99</ele><time>2022-02-05T16:26:01Z</time></trkpt>
<trkpt lat="46.188367" lon="12.040722"><ele>452.95</ele><time>2022-02-05T16:26:05Z</time></trkpt>
<trkpt lat="46.188605" lon="12.040002"><ele>455.78</ele><time>2022-02-05T16:26:08Z</time></trkpt>
<trkpt lat="46.188701" lon="12.039791"><ele>450.46</ele><time>2022-02-05T16:26:12Z</time></trkpt>
<trkpt lat="46.189232" lon="12.038977"><ele>447.0</ele><time>2022-02-05T16:26:15Z</time></trkpt>
<trkpt lat="46.189297" lon="12.038836"><ele>445.59</ele><time>2022-02-05T16:26:19Z</time></trkpt>
<trkpt lat="46.189584" lon="12.038007"><ele>450.59</ele><time>2022-02-05T16:26:23Z</time></trkpt>
<trkpt lat="46.189796" lon="12.037648"><ele>454.19</ele><time>2022-02-05T16:26:26Z</time></trkpt>
<trkpt lat="46.190269" lon="12.036925"><ele>458.51</ele><time>2022-02-05T16:26:30Z</time></trkpt>
<trkpt lat="46.190393" lon="12.036791"><ele>458.37</ele><time>2022-02-05T16:26:33Z</time></trkpt>
<trkpt lat="46.190584" lon="12.036651"><ele>456.52</ele><time>2022-02-05T16:26:37Z</time></trkpt>
<trkpt lat="46.19075" lon="12.036575"><ele>454.45</ele><time>2022-02-05T16:26:40Z</time></trkpt>
<trkpt lat="46.191455" lon="12.0364"><ele>460.5</ele><time>2022-02-05T16:26:44Z</time></trkpt>
<trkpt lat="46.191617" lon="12.036382"><ele>460.65</ele><time>2022-02-05T16:26:47Z</time></trkpt>
<trkpt lat="46.192212" lon="12.036521"><ele>458.89</ele><time>2022-02-05T16:26:51Z</time></trkpt>
<trkpt lat="46.192328" lon="12.036505"><ele>458.71</ele><time>2022-02-05T16:26:55Z</time></trkpt>
<trkpt lat="46.192683" lon="12.0363"><ele>457.37</ele><time>2022-02-05T16:26:58Z</time></trkpt>
<trkpt lat="46.19289" lon="12.036257"><ele>459.76</ele><time>2022-02-05T16:27:02Z</time></trkpt>
<trkpt lat="46.192982" lon="12.036271"><ele>461.09</ele><time>2022-02-05T16:27:05Z</time></trkpt>
<trkpt lat="46.19341" lon="12.036454"><ele>468.56</ele><time>2022-02-05T16:27:09Z</time></trkpt>
<trkpt lat="46.193605" lon="12.036559"><ele>468.91</ele><time>2022-02-05T16:27:12Z</time></trkpt>
<trkpt lat="46.194003" lon="12.036835"><ele>467.04</ele><time>2022-02-05T16:27:16Z</time></trkpt>
<trkpt lat="46.194086" lon="12.03686"><ele>467.88</ele><time>2022-02-05T16:27:20Z</time></trkpt>
<trkpt lat="46.194129" lon="12.036851"><ele>467.84</ele><time>2022-02-05T16:27:23Z</time></trkpt>
<trkpt lat="46.194548" lon="12.036591"><ele>467.81</ele><time>2022-02-05T16:27:27Z</time></trkpt>
<trkpt lat="46.194733" lon="12.036584"><ele>467.75</ele><time>2022-02-05T16:27:30Z</time></trkpt>
<trkpt lat="46.194833" lon="12.036646"><ele>467.55</ele><time>2022-02-05T16:27:34Z</time></trkpt>
<trkpt lat="46.195234" lon="12.037036"><ele>472.05</ele><time>2022-02-05T16:27:37Z</time></trkpt>
<trkpt lat="46.195345" lon="12.037076"><ele>472.01</ele><time>2022-02-05T16:27:41Z</time></trkpt>
<trkpt lat="46.195833" lon="12.037107"><ele>466.28</ele><time>2022-02-05T16:27:45Z</time></trkpt>
<trkpt lat="46.196156" lon="12.036897"><ele>461.4</ele><time>2022-02-05T16:27:48Z</time></trkpt>
<trkpt lat="46.196896" lon="12.036746"><ele>473.47</ele><time>2022-02-05T16:27:52Z</time></trkpt>
<trkpt lat="46.197096" lon="12.036594"><ele>474.65</ele><time>2022-02-05T16:27:55Z</time></trkpt>
<trkpt lat="46.197193" lon="12.036472"><ele>473.26</ele><time>2022-02-05T16:27:59Z</time></trkpt>
<trkpt lat="46.197424" lon="12.03607"><ele>465.21</ele><time>2022-02-05T16:28:02Z</time></trkpt>
<trkpt lat="46.197566" lon="12.035739"><ele>462.84</ele><time>2022-02-05T16:28:06Z</time></trkpt>
<trkpt lat="46.197707" lon="12.035521"><ele>461.68</ele><time>2022-02-05T16:28:09Z</time></trkpt>
<trkpt lat="46.198696" lon="12.034403"><ele>461.6</ele><time>2022-02-05T16:28:13Z</time></trkpt>
<trkpt lat="46.198783" lon="12.03426"><ele>461.79</ele><time>2022-02-05T16:28:17Z</time></trkpt>
<trkpt lat="46.198867" lon="12.034074"><ele>461.29</ele><time>2022-02-05T16:28:20Z</time></trkpt>
<trkpt lat="46.198966" lon="12.033717"><ele>463.62</ele><time>2022-02-05T16:28:24Z</time></trkpt>
<trkpt lat="46.198988" lon="12.033508"><ele>465.12</ele><time>2022-02-05T16:28:27Z</time></trkpt>
<trkpt lat="46.19903" lon="12.032568"><ele>462.52</ele><time>2022-02-05T16:28:31Z</time></trkpt>
<trkpt lat="46.199078" lon="12.032335"><ele>460.92</ele><time>2022-02-05T16:28:34Z</time></trkpt>
<trkpt lat="46.199174" lon="12.032148"><ele>459.84</ele><time>2022-02-05T16:28:38Z</time></trkpt>
<trkpt lat="46.199244" lon="12.032072"><ele>462.78</ele><time>2022-02-05T16:28:42Z</time></trkpt>
<trkpt lat="46.199576" lon="12.031923"><ele>467.05</ele><time>2022-02-05T16:28:45Z</time></trkpt>
<trkpt lat="46.199827" lon="12.031786"><ele>468.47</ele><time>2022-02-05T16:28:49Z</time></trkpt>
<trkpt lat="46.200243" lon="12.031337"><ele>467.24</ele><time>2022-02-05T16:28:52Z</time></trkpt>
<trkpt lat="46.200671" lon="12.030743"><ele>476.14</ele><time>2022-02-05T16:28:56Z</time></trkpt>
<trkpt lat="46.200797" lon="12.030513"><ele>480.34</ele><time>2022-02-05T16:28:59Z</time></trkpt>
<trkpt lat="46.200891" lon="12.030246"><ele>482.22</ele><time>2022-02-05T16:29:03Z</time></trkpt>
<trkpt lat="46.200912" lon="12.030076"><ele>483.11</ele><time>2022-02-05T16:29:06Z</time></trkpt>
<trkpt lat="46.200882" lon="12.029786"><ele>479.21</ele><time>2022-02-05T16:29:10Z</time></trkpt>
<trkpt lat="46.200826" lon="12.029449"><ele>473.93</ele><time>2022-02-05T16:29:14Z</time></trkpt>
<trkpt lat="46.200798" lon="12.029011"><ele>470.88</ele><time>2022-02-05T16:29:17Z</time></trkpt>
<trkpt lat="46.200811" lon="12.028812"><ele>469.53</ele><time>2022-02-05T16:29:21Z</time></trkpt>
<trkpt lat="46.200887" lon="12.028664"><ele>470.75</ele><time>2022-02-05T16:29:24Z</time></trkpt>
<trkpt lat="46.202481" lon="12.026544"><ele>483.95</ele><time>2022-02-05T16:29:28Z</time></trkpt>
<trkpt lat="46.202556" lon="12.02639"><ele>481.65</ele><time>2022-02-05T16:29:31Z</time></trkpt>
<trkpt lat="46.202577" lon="12.026215"><ele>478.3</ele><time>2022-02-05T16:29:35Z</time></trkpt>
<trkpt lat="46.202574" lon="12.026075"><ele>475.63</ele><time>2022-02-05T16:29:39Z</time></trkpt>
<trkpt lat="46.202568" lon="12.025881"><ele>474.27</ele><time>2022-02-05T16:29:42Z</time></trkpt>
<trkpt lat="46.202589" lon="12.025643"><ele>474.32</ele><time>2022-02-05T16:29:46Z</time></trkpt>
<trkpt lat="46.202977" lon="12.02447"><ele>506.35</ele><time>2022-02-05T16:29:49Z</time></trkpt>
<trkpt lat="46.203413" lon="12.023684"><ele>586.73</ele><time>2022-02-05T16:29:53Z</time></trkpt>
<trkpt lat="46.203522" lon="12.023379"><ele>590.08</ele><time>2022-02-05T16:29:56Z</time></trkpt>
<trkpt lat="46.203549" lon="12.0232"><ele>587.02</ele><time>2022-02-05T16:30:00Z</time></trkpt>
<trkpt lat="46.203545" lon="12.022985"><ele>579.78</ele><time>2022-02-05T16:30:03Z</time></trkpt>
<trkpt lat="46.203523" lon="12.022828"><ele>571.43</ele><time>2022-02-05T16:30:07Z</time></trkpt>
<trkpt lat="46.203492" lon="12.022626"><ele>567.41</ele><time>2022-02-05T16:30:11Z</time></trkpt>
<trkpt lat="46.203295" lon="12.021509"><ele>545.64</ele><time>2022-02-05T16:30:14Z</time></trkpt>
<trkpt lat="46.203273" lon="12.021303"><ele>538.43</ele><time>2022-02-05T16:30:18Z</time></trkpt>
<trkpt lat="46.203268" lon="12.020989"><ele>527.57</ele><time>2022-02-05T16:30:21Z</time></trkpt>
<trkpt lat="46.203286" lon="12.020802"><ele>521.06</ele><time>2022-02-05T16:30:25Z</time></trkpt>
<trkpt lat="46.203331" lon="12.020565"><ele>512.73</ele><time>2022-02-05T16:30:28Z</time></trkpt>
<trkpt lat="46.203395" lon="12.020356"><ele>505.14</ele><time>2022-02-05T16:30:32Z</time></trkpt>
<trkpt lat="46.203759" lon="12.019713"><ele>496.94</ele><time>2022-02-05T16:30:36Z</time></trkpt>
<trkpt lat="46.203841" lon="12.01951"><ele>492.73</ele><time>2022-02-05T16:30:39Z</time></trkpt>
<trkpt lat="46.203882" lon="12.019276"><ele>490.35</ele><time>2022-02-05T16:30:43Z</time></trkpt>
<trkpt lat="46.203977" lon="12.018009"><ele>480.78</ele><time>2022-02-05T16:30:46Z</time></trkpt>
<trkpt lat="46.203946" lon="12.017646"><ele>493.06</ele><time>2022-02-05T16:30:50Z</time></trkpt>
<trkpt lat="46.203885" lon="12.017301"><ele>503.51</ele><time>2022-02-05T16:30:53Z</time></trkpt>
<trkpt lat="46.20389" lon="12.017105"><ele>517.8</ele><time>2022-02-05T16:30:57Z</time></trkpt>
<trkpt lat="46.203953" lon="12.016869"><ele>549.84</ele><time>2022-02-05T16:31:01Z</time></trkpt>
<trkpt lat="46.204248" lon="12.016049"><ele>620.82</ele><time>2022-02-05T16:31:04Z</time></trkpt>
<trkpt lat="46.204638" lon="12.01519"><ele>631.83</ele><time>2022-02-05T16:31:08Z</time></trkpt>
<trkpt lat="46.204673" lon="12.014951"><ele>643.71</ele><time>2022-02-05T16:31:11Z</time></trkpt>
<trkpt lat="46.204641" lon="12.014252"><ele>679.53</ele><time>2022-02-05T16:31:15Z</time></trkpt>
<trkpt lat="46.204636" lon="12.013779"><ele>685.98</ele><time>2022-02-05T16:31:18Z</time></trkpt>
<trkpt lat="46.204731" lon="12.0121"><ele>646.42</ele><time>2022-02-05T16:31:22Z</time></trkpt>
<trkpt lat="46.20479" lon="12.011758"><ele>597.14</ele><time>2022-02-05T16:31:25Z</time></trkpt>
<trkpt lat="46.20512" lon="12.010659"><ele>531.84</ele><time>2022-02-05T16:31:29Z</time></trkpt>
<trkpt lat="46.205139" lon="12.01046"><ele>524.72</ele><time>2022-02-05T16:31:33Z</time></trkpt>
<trkpt lat="46.20513" lon="12.010301"><ele>518.86</ele><time>2022-02-05T16:31:36Z</time></trkpt>
<trkpt lat="46.2051" lon="12.010162"><ele>517.14</ele><time>2022-02-05T16:31:40Z</time></trkpt>
<trkpt lat="46.204788" lon="12.00927"><ele>500.36</ele><time>2022-02-05T16:31:43Z</time></trkpt>
<trkpt lat="46.204774" lon="12.00893"><ele>504.22</ele><time>2022-02-05T16:31:47Z</time></trkpt>
<trkpt lat="46.204795" lon="12.008641"><ele>502.68</ele><time>2022-02-05T16:31:50Z</time></trkpt>
<trkpt lat="46.204863" lon="12.008378"><ele>501.56</ele><time>2022-02-05T16:31:54Z</time></trkpt>
<trkpt lat="46.205902" lon="12.005018"><ele>511.9</ele><time>2022-02-05T16:31:58Z</time></trkpt>
<trkpt lat="46.205952" lon="12.004722"><ele>524.97</ele><time>2022-02-05T16:32:01Z</time></trkpt>
<trkpt lat="46.205979" lon="12.004463"><ele>527.34</ele><time>2022-02-05T16:32:05Z</time></trkpt>
<trkpt lat="46.206067" lon="12.002545"><ele>534.04</ele><time>2022-02-05T16:32:08Z</time></trkpt>
<trkpt lat="46.206051" lon="12.002245"><ele>535.9</ele><time>2022-02-05T16:32:12Z</time></trkpt>
<trkpt lat="46.205973" lon="12.001514"><ele>544.18</ele><time>2022-02-05T16:32:15Z</time></trkpt>
<trkpt lat="46.205977" lon="12.001393"><ele>552.13</ele><time>2022-02-05T16:32:19Z</time></trkpt>
<trkpt lat="46.206012" lon="12.00128"><ele>556.71</ele><time>2022-02-05T16:32:22Z</time></trkpt>
<trkpt lat="46.206078" lon="12.001227"><ele>555.57</ele><time>2022-02-05T16:32:26Z</time></trkpt>
<trkpt lat="46.206465" lon="12.001174"><ele>548.0</ele><time>2022-02-05T16:32:30Z</time></trkpt>
<trkpt lat="46.206539" lon="12.001148"><ele>549.62</ele><time>2022-02-05T16:32:33Z</time></trkpt>
<trkpt lat="46.206654" lon="12.001017"><ele>548.27</ele><time>2022-02-05T16:32:37Z</time></trkpt>
<trkpt lat="46.206728" lon="12.000819"><ele>545.25</ele><time>2022-02-05T16:32:40Z</time></trkpt>
<trkpt lat="46.206767" lon="12.000595"><ele>545.57</ele><time>2022-02-05T16:32:44Z</time></trkpt>
<trkpt lat="46.206769" lon="11.99989"><ele>544.47</ele><time>2022-02-05T16:32:47Z</time></trkpt>
<trkpt lat="46.206783" lon="11.999763"><ele>543.42</ele><time>2022-02-05T16:32:51Z</time></trkpt>
<trkpt lat="46.206821" lon="11.999632"><ele>541.83</ele><time>2022-02-05T16:32:55Z</time></trkpt>
<trkpt lat="46.206943" lon="11.999437"><ele>541.77</ele><time>2022-02-05T16:32:58Z</time></trkpt>
<trkpt lat="46.207478" lon="11.998876"><ele>540.73</ele><time>2022-02-05T16:33:02Z</time></trkpt>
<trkpt lat="46.207586" lon="11.9987"><ele>555.36</ele><time>2022-02-05T16:33:05Z</time></trkpt>
<trkpt lat="46.207637" lon="11.998575"><ele>559.5</ele><time>2022-02-05T16:33:09Z</time></trkpt>
<trkpt lat="46.207702" lon="11.998308"><ele>572.64</ele><time>2022-02-05T16:33:12Z</time></trkpt>
<trkpt lat="46.207715" lon="11.998162"><ele>586.65</ele><time>2022-02-05T16:33:16Z</time></trkpt>
<trkpt lat="46.207701" lon="11.997871"><ele>596.91</ele><time>2022-02-05T16:33:20Z</time></trkpt>
<trkpt lat="46.207376" lon="11.996826"><ele>644.06</ele><time>2022-02-05T16:33:23Z</time></trkpt>
<trkpt lat="46.207268" lon="11.996609"><ele>631.1</ele><time>2022-02-05T16:33:27Z</time></trkpt>
<trkpt lat="46.207114" lon="11.996411"><ele>618.87</ele><time>2022-02-05T16:33:30Z</time></trkpt>
<trkpt lat="46.206508" lon="11.995855"><ele>586.43</ele><time>2022-02-05T16:33:34Z</time></trkpt>
<trkpt lat="46.20646" lon="11.995773"><ele>586.18</ele><time>2022-02-05T16:33:37Z</time></trkpt>
<trkpt lat="46.20643" lon="11.995681"><ele>585.84</ele><time>2022-02-05T16:33:41Z</time></trkpt>
<trkpt lat="46.206422" lon="11.995497"><ele>584.67</ele><time>2022-02-05T16:33:44Z</time></trkpt>
<trkpt lat="46.206447" lon="11.995322"><ele>582.13</ele><time>2022-02-05T16:33:48Z</time></trkpt>
<trkpt lat="46.206578" lon="11.994789"><ele>581.7</ele><time>2022-02-05T16:33:52Z</time></trkpt>
<trkpt lat="46.206658" lon="11.994324"><ele>579.64</ele><time>2022-02-05T16:33:55Z</time></trkpt>
<trkpt lat="46.206679" lon="11.99411"><ele>578.11</ele><time>2022-02-05T16:33:59Z</time></trkpt>
<trkpt lat="46.206678" lon="11.993846"><ele>576.96</ele><time>2022-02-05T16:34:02Z</time></trkpt>
<trkpt lat="46.206696" lon="11.993745"><ele>578.65</ele><time>2022-02-05T16:34:06Z</time></trkpt>
<trkpt lat="46.206775" lon="11.993571"><ele>582.44</ele><time>2022-02-05T16:34:09Z</time></trkpt>
<trkpt lat="46.206991" lon="11.993349"><ele>584.31</ele><time>2022-02-05T16:34:13Z</time></trkpt>
<trkpt lat="46.207124" lon="11.993274"><ele>589.03</ele><time>2022-02-05T16:34:17Z</time></trkpt>
<trkpt lat="46.207784" lon="11.993231"><ele>652.61</ele><time>2022-02-05T16:34:20Z</time></trkpt>
<trkpt lat="46.207805" lon="11.993176"><ele>648.36</ele><time>2022-02-05T16:34:24Z</time></trkpt>
<trkpt lat="46.207819" lon="11.993103"><ele>642.65</ele><time>2022-02-05T16:34:27Z</time></trkpt>
<trkpt lat="46.207807" lon="11.993022"><ele>636.46</ele><time>2022-02-05T16:34:31Z</time></trkpt>
<trkpt lat="46.207634" lon="11.99269"><ele>608.1</ele><time>2022-02-05T16:34:34Z</time></trkpt>
<trkpt lat="46.207611" lon="11.99253"><ele>595.44</ele><time>2022-02-05T16:34:38Z</time></trkpt>
<trkpt lat="46.207653" lon="11.992349"><ele>588.25</ele><time>2022-02-05T16:34:41Z</time></trkpt>
<trkpt lat="46.208017" lon="11.991599"><ele>572.24</ele><time>2022-02-05T16:34:45Z</time></trkpt>
<trkpt lat="46.208099" lon="11.991493"><ele>577.17</ele><time>2022-02-05T16:34:49Z</time></trkpt>
<trkpt lat="46.208411" lon="11.991259"><ele>582.01</ele><time>2022-02-05T16:34:52Z</time></trkpt>
<trkpt lat="46.208586" lon="11.991"><ele>580.5</ele><time>2022-02-05T16:34:56Z</time></trkpt>
<trkpt lat="46.208698" lon="11.990811"><ele>581.48</ele><time>2022-02-05T16:34:59Z</time></trkpt>
<trkpt lat="46.208935" lon="11.990519"><ele>583.21</ele><time>2022-02-05T16:35:03Z</time></trkpt>
<trkpt lat="46.209032" lon="11.990427"><ele>586.85</ele><time>2022-02-05T16:35:06Z</time></trkpt>
<trkpt lat="46.209169" lon="11.990368"><ele>589.99</ele><time>2022-02-05T16:35:10Z</time></trkpt>
<trkpt lat="46.210003" lon="11.990164"><ele>599.8</ele><time>2022-02-05T16:35:14Z</time></trkpt>
<trkpt lat="46.210179" lon="11.99007"><ele>600.55</ele><time>2022-02-05T16:35:17Z</time></trkpt>
<trkpt lat="46.210225" lon="11.990026"><ele>599.94</ele><time>2022-02-05T16:35:21Z</time></trkpt>
<trkpt lat="46.210279" lon="11.98993"><ele>598.06</ele><time>2022-02-05T16:35:24Z</time></trkpt>
<trkpt lat="46.210548" lon="11.989376"><ele>596.44</ele><time>2022-02-05T16:35:28Z</time></trkpt>
<trkpt lat="46.210646" lon="11.989233"><ele>600.11</ele><time>2022-02-05T16:35:31Z</time></trkpt>
<trkpt lat="46.210728" lon="11.989179"><ele>602.37</ele><time>2022-02-05T16:35:35Z</time></trkpt>
<trkpt lat="46.210858" lon="11.989146"><ele>605.53</ele><time>2022-02-05T16:35:39Z</time></trkpt>
<trkpt lat="46.211344" lon="11.989126"><ele>606.62</ele><time>2022-02-05T16:35:42Z</time></trkpt>
<trkpt lat="46.211494" lon="11.989097"><ele>605.55</ele><time>2022-02-05T16:35:46Z</time></trkpt>
<trkpt lat="46.211843" lon="11.98892"><ele>599.45</ele><time>2022-02-05T16:35:49Z</time></trkpt>
<trkpt lat="46.211939" lon="11.988899"><ele>598.25</ele><time>2022-02-05T16:35:53Z</time></trkpt>
<trkpt lat="46.212132" lon="11.988913"><ele>601.91</ele><time>2022-02-05T16:35:56Z</time></trkpt>
<trkpt lat="46.212295" lon="11.988955"><ele>604.76</ele><time>2022-02-05T16:36:00Z</time></trkpt>
<trkpt lat="46.212433" lon="11.989017"><ele>606.87</ele><time>2022-02-05T16:36:03Z</time></trkpt>
<trkpt lat="46.212711" lon="11.989232"><ele>613.74</ele><time>2022-02-05T16:36:07Z</time></trkpt>
<trkpt lat="46.213171" lon="11.989839"><ele>620.27</ele><time>2022-02-05T16:36:11Z</time></trkpt>
<trkpt lat="46.213529" lon="11.990238"><ele>622.63</ele><time>2022-02-05T16:36:14Z</time></trkpt>
<trkpt lat="46.214307" lon="11.991353"><ele>631.52</ele><time>2022-02-05T16:36:18Z</time></trkpt>
<trkpt lat="46.214927" lon="11.992292"><ele>636.28</ele><time>2022-02-05T16:36:21Z</time></trkpt>
<trkpt lat="46.215126" lon="11.992563"><ele>640.36</ele><time>2022-02-05T16:36:25Z</time></trkpt>
<trkpt lat="46.215293" lon="11.992743"><ele>645.64</ele><time>2022-02-05T16:36:28Z</time></trkpt>
<trkpt lat="46.216678" lon="11.993532"><ele>661.76</ele><time>2022-02-05T16:36:32Z</time></trkpt>
<trkpt lat="46.216934" lon="11.993724"><ele>661.76</ele><time>2022-02-05T16:36:36Z</time></trkpt>
<trkpt lat="46.217176" lon="11.994029"><ele>666.43</ele><time>2022-02-05T16:36:39Z</time></trkpt>
<trkpt lat="46.217339" lon="11.994168"><ele>668.87</ele><time>2022-02-05T16:36:43Z</time></trkpt>
<trkpt lat="46.217583" lon="11.994271"><ele>672.14</ele><time>2022-02-05T16:36:46Z</time></trkpt>
<trkpt lat="46.21769" lon="11.994264"><ele>673.34</ele><time>2022-02-05T16:36:50Z</time></trkpt>
<trkpt lat="46.217855" lon="11.994205"><ele>674.67</ele><time>2022-02-05T16:36:53Z</time></trkpt>
<trkpt lat="46.217915" lon="11.994145"><ele>674.83</ele><time>2022-02-05T16:36:57Z</time></trkpt>
<trkpt lat="46.218369" lon="11.993387"><ele>675.06</ele><time>2022-02-05T16:37:00Z</time></trkpt>
<trkpt lat="46.218408" lon="11.993376"><ele>674.89</ele><time>2022-02-05T16:37:04Z</time></trkpt>
<trkpt lat="46.21845" lon="11.993395"><ele>674.8</ele><time>2022-02-05T16:37:08Z</time></trkpt>
<trkpt lat="46.218697" lon="11.99448"><ele>684.14</ele><time>2022-02-05T16:37:11Z</time></trkpt>
<trkpt lat="46.218738" lon="11.994608"><ele>685.27</ele><time>2022-02-05T16:37:15Z</time></trkpt>
<trkpt lat="46.219445" lon="11.995677"><ele>692.88</ele><time>2022-02-05T16:37:18Z</time></trkpt>
<trkpt lat="46.219596" lon="11.99581"><ele>693.92</ele><time>2022-02-05T16:37:22Z</time></trkpt>
<trkpt lat="46.219715" lon="11.995826"><ele>694.0</ele><time>2022-02-05T16:37:25Z</time></trkpt>
<trkpt lat="46.2198" lon="11.995792"><ele>694.52</ele><time>2022-02-05T16:37:29Z</time></trkpt>
<trkpt lat="46.21987" lon="11.995716"><ele>694.84</ele><time>2022-02-05T16:37:33Z</time></trkpt>
<trkpt lat="46.219997" lon="11.995474"><ele>695.58</ele><time>2022-02-05T16:37:36Z</time></trkpt>
<trkpt lat="46.220479" lon="11.994407"><ele>707.31</ele><time>2022-02-05T16:37:40Z</time></trkpt>
<trkpt lat="46.220584" lon="11.994284"><ele>709.68</ele><time>2022-02-05T16:37:43Z</time></trkpt>
<trkpt lat="46.220637" lon="11.994261"><ele>710.95</ele><time>2022-02-05T16:37:47Z</time></trkpt>
<trkpt lat="46.220743" lon="11.994271"><ele>713.46</ele><time>2022-02-05T16:37:50Z</time></trkpt>
<trkpt lat="46.2208" lon="11.994302"><ele>714.73</ele><time>2022-02-05T16:37:54Z</time></trkpt>
<trkpt lat="46.22084" lon="11.994349"><ele>715.45</ele><time>2022-02-05T16:37:58Z</time></trkpt>
<trkpt lat="46.220874" lon="11.994464"><ele>715.59</ele><time>2022-02-05T16:38:01Z</time></trkpt>
<trkpt lat="46.220996" lon="11.995171"><ele>720.23</ele><time>2022-02-05T16:38:05Z</time></trkpt>
<trkpt lat="46.221063" lon="11.995321"><ele>721.92</ele><time>2022-02-05T16:38:08Z</time></trkpt>
<trkpt lat="46.221147" lon="11.99538"><ele>722.63</ele><time>2022-02-05T16:38:12Z</time></trkpt>
<trkpt lat="46.221632" lon="11.995538"><ele>722.88</ele><time>2022-02-05T16:38:15Z</time></trkpt>
<trkpt lat="46.221709" lon="11.995601"><ele>723.9</ele><time>2022-02-05T16:38:19Z</time></trkpt>
<trkpt lat="46.221747" lon="11.995672"><ele>725.03</ele><time>2022-02-05T16:38:22Z</time></trkpt>
<trkpt lat="46.221768" lon="11.99581"><ele>726.29</ele><time>2022-02-05T16:38:26Z</time></trkpt>
<trkpt lat="46.221704" lon="11.996818"><ele>732.24</ele><time>2022-02-05T16:38:30Z</time></trkpt>
<trkpt lat="46.221707" lon="11.997078"><ele>736.66</ele><time>2022-02-05T16:38:33Z</time></trkpt>
<trkpt lat="46.221771" lon="11.997304"><ele>740.13</ele><time>2022-02-05T16:38:37Z</time></trkpt>
<trkpt lat="46.222126" lon="11.998282"><ele>744.35</ele><time>2022-02-05T16:38:40Z</time></trkpt>
<trkpt lat="46.222442" lon="11.999014"><ele>753.77</ele><time>2022-02-05T16:38:44Z</time></trkpt>
<trkpt lat="46.222719" lon="11.999529"><ele>765.74</ele><time>2022-02-05T16:38:47Z</time></trkpt>
<trkpt lat="46.222807" lon="11.999918"><ele>767.2</ele><time>2022-02-05T16:38:51Z</time></trkpt>
<trkpt lat="46.222887" lon="12.000494"><ele>767.99</ele><time>2022-02-05T16:38:55Z</time></trkpt>
<trkpt lat="46.222965" lon="12.001324"><ele>771.99</ele><time>2022-02-05T16:38:58Z</time></trkpt>
<trkpt lat="46.222977" lon="12.001372"><ele>772.44</ele><time>2022-02-05T16:39:02Z</time></trkpt>
<trkpt lat="46.223021" lon="12.001423"><ele>773.96</ele><time>2022-02-05T16:39:05Z</time></trkpt>
<trkpt lat="46.223096" lon="12.001419"><ele>776.56</ele><time>2022-02-05T16:39:09Z</time></trkpt>
<trkpt lat="46.223129" lon="12.001382"><ele>777.93</ele><time>2022-02-05T16:39:12Z</time></trkpt>
<trkpt lat="46.223146" lon="12.001307"><ele>778.98</ele><time>2022-02-05T16:39:16Z</time></trkpt>
<trkpt lat="46.223078" lon="12.000899"><ele>777.56</ele><time>2022-02-05T16:39:19Z</time></trkpt>
<trkpt lat="46.223053" lon="12.000604"><ele>776.89</ele><time>2022-02-05T16:39:23Z</time></trkpt>
<trkpt lat="46.223045" lon="12.000184"><ele>776.1</ele><time>2022-02-05T16:39:27Z</time></trkpt>
<trkpt lat="46.223065" lon="11.99978"><ele>779.13</ele><time>2022-02-05T16:39:30Z</time></trkpt>
<trkpt lat="46.223123" lon="11.999215"><ele>781.49</ele><time>2022-02-05T16:39:34Z</time></trkpt>
<trkpt lat="46.223124" lon="11.998153"><ele>789.26</ele><time>2022-02-05T16:39:37Z</time></trkpt>
<trkpt lat="46.223137" lon="11.998038"><ele>790.58</ele><time>2022-02-05T16:39:41Z</time></trkpt>
<trkpt lat="46.223296" lon="11.997336"><ele>797.62</ele><time>2022-02-05T16:39:44Z</time></trkpt>
<trkpt lat="46.223361" lon="11.996508"><ele>804.34</ele><time>2022-02-05T16:39:48Z</time></trkpt>
<trkpt lat="46.223509" lon="11.995645"><ele>802.48</ele><time>2022-02-05T16:39:52Z</time></trkpt>
<trkpt lat="46.223552" lon="11.99549"><ele>801.7</ele><time>2022-02-05T16:39:55Z</time></trkpt>
<trkpt lat="46.223613" lon="11.995387"><ele>801.79</ele><time>2022-02-05T16:39:59Z</time></trkpt>
<trkpt lat="46.224041" lon="11.995189"><ele>807.27</ele><time>2022-02-05T16:40:02Z</time></trkpt>
<trkpt lat="46.224362" lon="11.994892"><ele>808.96</ele><time>2022-02-05T16:40:06Z</time></trkpt>
<trkpt lat="46.224439" lon="11.994842"><ele>810.55</ele><time>2022-02-05T16:40:09Z</time></trkpt>
<trkpt lat="46.224521" lon="11.994832"><ele>813.02</ele><time>2022-02-05T16:40:13Z</time></trkpt>
<trkpt lat="46.22478" lon="11.994868"><ele>821.83</ele><time>2022-02-05T16:40:17Z</time></trkpt>
<trkpt lat="46.224943" lon="11.994847"><ele>826.05</ele><time>2022-02-05T16:40:20Z</time></trkpt>
<trkpt lat="46.224991" lon="11.99488"><ele>828.17</ele><time>2022-02-05T16:40:24Z</time></trkpt>
<trkpt lat="46.225004" lon="11.994963"><ele>830.26</ele><time>2022-02-05T16:40:27Z</time></trkpt>
<trkpt lat="46.22499" lon="11.995018"><ele>831.24</ele><time>2022-02-05T16:40:31Z</time></trkpt>
<trkpt lat="46.224941" lon="11.995054"><ele>831.0</ele><time>2022-02-05T16:40:34Z</time></trkpt>
<trkpt lat="46.224615" lon="11.99499"><ele>818.93</ele><time>2022-02-05T16:40:38Z</time></trkpt>
<trkpt lat="46.224508" lon="11.995006"><ele>815.49</ele><time>2022-02-05T16:40:41Z</time></trkpt>
<trkpt lat="46.224455" lon="11.99504"><ele>814.96</ele><time>2022-02-05T16:40:45Z</time></trkpt>
<trkpt lat="46.224159" lon="11.995491"><ele>821.14</ele><time>2022-02-05T16:40:49Z</time></trkpt>
<trkpt lat="46.224084" lon="11.995717"><ele>824.68</ele><time>2022-02-05T16:40:52Z</time></trkpt>
<trkpt lat="46.224035" lon="11.995983"><ele>827.3</ele><time>2022-02-05T16:40:56Z</time></trkpt>
<trkpt lat="46.22418" lon="11.997242"><ele>833.77</ele><time>2022-02-05T16:40:59Z</time></trkpt>
<trkpt lat="46.224254" lon="11.998277"><ele>838.78</ele><time>2022-02-05T16:41:03Z</time></trkpt>
<trkpt lat="46.224314" lon="11.998778"><ele>843.62</ele><time>2022-02-05T16:41:06Z</time></trkpt>
<trkpt lat="46.224608" lon="12.000016"><ele>846.34</ele><time>2022-02-05T16:41:10Z</time></trkpt>
<trkpt lat="46.224769" lon="12.001093"><ele>854.25</ele><time>2022-02-05T16:41:14Z</time></trkpt>
<trkpt lat="46.224814" lon="12.0013"><ele>857.78</ele><time>2022-02-05T16:41:17Z</time></trkpt>
<trkpt lat="46.224898" lon="12.001467"><ele>860.2</ele><time>2022-02-05T16:41:21Z</time></trkpt>
<trkpt lat="46.225259" lon="12.001935"><ele>862.59</ele><time>2022-02-05T16:41:24Z</time></trkpt>
<trkpt lat="46.225418" lon="12.002299"><ele>861.52</ele><time>2022-02-05T16:41:28Z</time></trkpt>
<trkpt lat="46.225446" lon="12.002333"><ele>861.47</ele><time>2022-02-05T16:41:31Z</time></trkpt>
<trkpt lat="46.225482" lon="12.002336"><ele>862.26</ele><time>2022-02-05T16:41:35Z</time></trkpt>
<trkpt lat="46.225528" lon="12.002303"><ele>863.93</ele><time>2022-02-05T16:41:38Z</time></trkpt>
<trkpt lat="46.225543" lon="12.002249"><ele>865.25</ele><time>2022-02-05T16:41:42Z</time></trkpt>
<trkpt lat="46.22553" lon="12.002175"><ele>866.1</ele><time>2022-02-05T16:41:46Z</time></trkpt>
<trkpt lat="46.22504" lon="12.00124"><ele>866.41</ele><time>2022-02-05T16:41:49Z</time></trkpt>
<trkpt lat="46.225011" lon="12.001119"><ele>866.25</ele><time>2022-02-05T16:41:53Z</time></trkpt>
<trkpt lat="46.225013" lon="12.000995"><ele>865.99</ele><time>2022-02-05T16:41:56Z</time></trkpt>
<trkpt lat="46.225099" lon="12.000182"><ele>869.42</ele><time>2022-02-05T16:42:00Z</time></trkpt>
<trkpt lat="46.225112" lon="11.999874"><ele>867.13</ele><time>2022-02-05T16:42:03Z</time></trkpt>
<trkpt lat="46.225031" lon="11.999405"><ele>863.69</ele><time>2022-02-05T16:42:07Z</time></trkpt>
<trkpt lat="46.225052" lon="11.998965"><ele>871.24</ele><time>2022-02-05T16:42:11Z</time></trkpt>
<trkpt lat="46.225046" lon="11.99877"><ele>872.14</ele><time>2022-02-05T16:42:14Z</time></trkpt>
<trkpt lat="46.224965" lon="11.998082"><ele>872.54</ele><time>2022-02-05T16:42:18Z</time></trkpt>
<trkpt lat="46.224964" lon="11.99798"><ele>873.12</ele><time>2022-02-05T16:42:21Z</time></trkpt>
<trkpt lat="46.225036" lon="11.997592"><ele>879.22</ele><time>2022-02-05T16:42:25Z</time></trkpt>
<trkpt lat="46.22504" lon="11.997495"><ele>880.52</ele><time>2022-02-05T16:42:28Z</time></trkpt>
<trkpt lat="46.225031" lon="11.997326"><ele>882.61</ele><time>2022-02-05T16:42:32Z</time></trkpt>
<trkpt lat="46.224961" lon="11.996988"><ele>881.86</ele><time>2022-02-05T16:42:36Z</time></trkpt>
<trkpt lat="46.224974" lon="11.99678"><ele>881.09</ele><time>2022-02-05T16:42:39Z</time></trkpt>
<trkpt lat="46.225018" lon="11.996676"><ele>881.61</ele><time>2022-02-05T16:42:43Z</time></trkpt>
<trkpt lat="46.225101" lon="11.996629"><ele>883.3</ele><time>2022-02-05T16:42:46Z</time></trkpt>
<trkpt lat="46.22538" lon="11.996628"><ele>889.73</ele><time>2022-02-05T16:42:50Z</time></trkpt>
<trkpt lat="46.225697" lon="11.996498"><ele>892.8</ele><time>2022-02-05T16:42:53Z</time></trkpt>
<trkpt lat="46.22573" lon="11.996497"><ele>893.59</ele><time>2022-02-05T16:42:57Z</time></trkpt>
<trkpt lat="46.225766" lon="11.99655"><ele>895.91</ele><time>2022-02-05T16:43:01Z</time></trkpt>
<trkpt lat="46.225752" lon="11.996643"><ele>898.02</ele><time>2022-02-05T16:43:02Z</time></trkpt>
<trkpt lat="46.225713" lon="11.996679"><ele>897.85</ele><time>2022-02-05T16:43:04Z</time></trkpt>
<trkpt lat="46.225599" lon="11.996733"><ele>895.71</ele><time>2022-02-05T16:43:06Z</time></trkpt>
<trkpt lat="46.225292" lon="11.996783"><ele>890.53</ele><time>2022-02-05T16:43:08Z</time></trkpt>
<trkpt lat="46.225242" lon="11.996832"><ele>889.75</ele><time>2022-02-05T16:43:09Z</time></trkpt>
<trkpt lat="46.225224" lon="11.996957"><ele>890.49</ele><time>2022-02-05T16:43:11Z</time></trkpt>
<trkpt lat="46.225245" lon="11.99706"><ele>891.38</ele><time>2022-02-05T16:43:13Z</time></trkpt>
<trkpt lat="46.225516" lon="11.997321"><ele>899.65</ele><time>2022-02-05T16:43:15Z</time></trkpt>
<trkpt lat="46.225636" lon="11.997458"><ele>904.42</ele><time>2022-02-05T16:43:16Z</time></trkpt>
<trkpt lat="46.225671" lon="11.997531"><ele>905.73</ele><time>2022-02-05T16:43:18Z</time></trkpt>
<trkpt lat="46.22569" lon="11.997627"><ele>905.88</ele><time>2022-02-05T16:43:20Z</time></trkpt>
<trkpt lat="46.225712" lon="11.998093"><ele>902.01</ele><time>2022-02-05T16:43:21Z</time></trkpt>
<trkpt lat="46.225801" lon="11.998419"><ele>906.72</ele><time>2022-02-05T16:43:23Z</time></trkpt>
<trkpt lat="46.225882" lon="11.99884"><ele>910.04</ele><time>2022-02-05T16:43:25Z</time></trkpt>
<trkpt lat="46.226004" lon="11.999344"><ele>909.27</ele><time>2022-02-05T16:43:27Z</time></trkpt>
<trkpt lat="46.22605" lon="11.999492"><ele>910.19</ele><time>2022-02-05T16:43:28Z</time></trkpt>
<trkpt lat="46.226335" lon="11.999986"><ele>918.78</ele><time>2022-02-05T16:43:30Z</time></trkpt>
<trkpt lat="46.226447" lon="12.000343"><ele>918.15</ele><time>2022-02-05T16:43:32Z</time></trkpt>
<trkpt lat="46.226477" lon="12.000503"><ele>917.26</ele><time>2022-02-05T16:43:34Z</time></trkpt>
<trkpt lat="46.226501" lon="12.000924"><ele>918.41</ele><time>2022-02-05T16:43:35Z</time></trkpt>
<trkpt lat="46.226541" lon="12.001204"><ele>922.29</ele><time>2022-02-05T16:43:37Z</time></trkpt>
<trkpt lat="46.226799" lon="12.001719"><ele>929.88</ele><time>2022-02-05T16:43:39Z</time></trkpt>
<trkpt lat="46.226965" lon="12.00223"><ele>931.73</ele><time>2022-02-05T16:43:40Z</time></trkpt>
<trkpt lat="46.227399" lon="12.003342"><ele>931.3</ele><time>2022-02-05T16:43:42Z</time></trkpt>
<trkpt lat="46.227486" lon="12.003584"><ele>932.74</ele><time>2022-02-05T16:43:44Z</time></trkpt>
<trkpt lat="46.227582" lon="12.00395"><ele>933.56</ele><time>2022-02-05T16:43:46Z</time></trkpt>
<trkpt lat="46.227963" lon="12.004249"><ele>939.18</ele><time>2022-02-05T16:43:47Z</time></trkpt>
<trkpt lat="46.228043" lon="12.004354"><ele>940.09</ele><time>2022-02-05T16:43:49Z</time></trkpt>
<trkpt lat="46.228156" lon="12.005429"><ele>942.41</ele><time>2022-02-05T16:43:51Z</time></trkpt>
<trkpt lat="46.228142" lon="12.005947"><ele>942.15</ele><time>2022-02-05T16:43:53Z</time></trkpt>
<trkpt lat="46.228146" lon="12.006015"><ele>941.54</ele><time>2022-02-05T16:43:54Z</time></trkpt>
<trkpt lat="46.228176" lon="12.006114"><ele>941.13</ele><time>2022-02-05T16:43:56Z</time></trkpt>
<trkpt lat="46.228216" lon="12.006168"><ele>941.07</ele><time>2022-02-05T16:43:58Z</time></trkpt>
<trkpt lat="46.228527" lon="12.006299"><ele>945.71</ele><time>2022-02-05T16:43:59Z</time></trkpt>
<trkpt lat="46.228713" lon="12.00644"><ele>950.74</ele><time>2022-02-05T16:44:01Z</time></trkpt>
<trkpt lat="46.229164" lon="12.006844"><ele>963.3</ele><time>2022-02-05T16:44:03Z</time></trkpt>
<trkpt lat="46.229245" lon="12.006966"><ele>964.98</ele><time>2022-02-05T16:44:05Z</time></trkpt>
<trkpt lat="46.229279" lon="12.007129"><ele>966.11</ele><time>2022-02-05T16:44:06Z</time></trkpt>
<trkpt lat="46.229282" lon="12.007289"><ele>967.04</ele><time>2022-02-05T16:44:08Z</time></trkpt>
<trkpt lat="46.229245" lon="12.007709"><ele>969.68</ele><time>2022-02-05T16:44:10Z</time></trkpt>
<trkpt lat="46.229244" lon="12.007857"><ele>970.71</ele><time>2022-02-05T16:44:12Z</time></trkpt>
<trkpt lat="46.229299" lon="12.00828"><ele>974.65</ele><time>2022-02-05T16:44:13Z</time></trkpt>
<trkpt lat="46.229473" lon="12.008802"><ele>981.45</ele><time>2022-02-05T16:44:15Z</time></trkpt>
<trkpt lat="46.229888" lon="12.009759"><ele>982.1</ele><time>2022-02-05T16:44:17Z</time></trkpt>
<trkpt lat="46.229988" lon="12.009867"><ele>983.43</ele><time>2022-02-05T16:44:19Z</time></trkpt>
<trkpt lat="46.230059" lon="12.009901"><ele>984.26</ele><time>2022-02-05T16:44:20Z</time></trkpt>
<trkpt lat="46.230417" lon="12.009986"><ele>992.38</ele><time>2022-02-05T16:44:22Z</time></trkpt>
<trkpt lat="46.23066" lon="12.010126"><ele>996.53</ele><time>2022-02-05T16:44:24Z</time></trkpt>
<trkpt lat="46.230928" lon="12.010197"><ele>1001.42</ele><time>2022-02-05T16:44:25Z</time></trkpt>
<trkpt lat="46.230724" lon="12.009972"><ele>1003.54</ele><time>2022-02-05T16:44:27Z</time></trkpt>
<trkpt lat="46.230508" lon="12.009798"><ele>1000.38</ele><time>2022-02-05T16:44:28Z</time></trkpt>
<trkpt lat="46.230314" lon="12.009561"><ele>997.38</ele><time>2022-02-05T16:44:30Z</time></trkpt>
<trkpt lat="46.23008" lon="12.008914"><ele>998.69</ele><time>2022-02-05T16:44:31Z</time></trkpt>
<trkpt lat="46.229999" lon="12.007987"><ele>1001.99</ele><time>2022-02-05T16:44:33Z</time></trkpt>
<trkpt lat="46.230057" lon="12.007463"><ele>1002.15</ele><time>2022-02-05T16:44:34Z</time></trkpt>
<trkpt lat="46.230157" lon="12.007088"><ele>1005.07</ele><time>2022-02-05T16:44:36Z</time></trkpt>
<trkpt lat="46.230199" lon="12.0067"><ele>1007.15</ele><time>2022-02-05T16:44:37Z</time></trkpt>
<trkpt lat="46.230146" lon="12.006226"><ele>1008.25</ele><time>2022-02-05T16:44:39Z</time></trkpt>
<trkpt lat="46.230032" lon="12.005761"><ele>1004.74</ele><time>2022-02-05T16:44:40Z</time></trkpt>
<trkpt lat="46.229878" lon="12.00535"><ele>1001.95</ele><time>2022-02-05T16:44:42Z</time></trkpt>
<trkpt lat="46.229693" lon="12.005004"><ele>1000.97</ele><time>2022-02-05T16:44:43Z</time></trkpt>
<trkpt lat="46.229465" lon="12.004425"><ele>1001.86</ele><time>2022-02-05T16:44:45Z</time></trkpt>
<trkpt lat="46.229251" lon="12.002834"><ele>1006.21</ele><time>2022-02-05T16:44:46Z</time></trkpt>
<trkpt lat="46.228997" lon="12.002344"><ele>999.79</ele><time>2022-02-05T16:44:48Z</time></trkpt>
<trkpt lat="46.228418" lon="12.000703"><ele>1010.49</ele><time>2022-02-05T16:44:49Z</time></trkpt>
<trkpt lat="46.228339" lon="12.000143"><ele>1008.17</ele><time>2022-02-05T16:44:50Z</time></trkpt>
<trkpt lat="46.228312" lon="11.999817"><ele>1014.31</ele><time>2022-02-05T16:44:52Z</time></trkpt>
<trkpt lat="46.228047" lon="11.999015"><ele>1015.36</ele><time>2022-02-05T16:44:53Z</time></trkpt>
<trkpt lat="46.228032" lon="11.998787"><ele>1016.01</ele><time>2022-02-05T16:44:55Z</time></trkpt>
<trkpt lat="46.22811" lon="11.99824"><ele>1021.76</ele><time>2022-02-05T16:44:56Z</time></trkpt>
<trkpt lat="46.228175" lon="11.997912"><ele>1020.41</ele><time>2022-02-05T16:44:58Z</time></trkpt>
<trkpt lat="46.228364" lon="11.997647"><ele>1020.07</ele><time>2022-02-05T16:44:59Z</time></trkpt>
<trkpt lat="46.228726" lon="11.99739"><ele>1022.85</ele><time>2022-02-05T16:45:01Z</time></trkpt>
<trkpt lat="46.228866" lon="11.997231"><ele>1024.39</ele><time>2022-02-05T16:45:02Z</time></trkpt>
<trkpt lat="46.229093" lon="11.99663"><ele>1028.49</ele><time>2022-02-05T16:45:04Z</time></trkpt>
<trkpt lat="46.22919" lon="11.996287"><ele>1030.79</ele><time>2022-02-05T16:45:05Z</time></trkpt>
<trkpt lat="46.229242" lon="11.99545"><ele>1046.18</ele><time>2022-02-05T16:45:07Z</time></trkpt>
<trkpt lat="46.229139" lon="11.995108"><ele>1042.3</ele><time>2022-02-05T16:45:08Z</time></trkpt>
<trkpt lat="46.229116" lon="11.994892"><ele>1042.01</ele><time>2022-02-05T16:45:10Z</time></trkpt>
<trkpt lat="46.229127" lon="11.994689"><ele>1043.24</ele><time>2022-02-05T16:45:11Z</time></trkpt>
<trkpt lat="46.229164" lon="11.994479"><ele>1042.42</ele><time>2022-02-05T16:45:13Z</time></trkpt>
<trkpt lat="46.229468" lon="11.994115"><ele>1054.9</ele><time>2022-02-05T16:45:14Z</time></trkpt>
<trkpt lat="46.229528" lon="11.993943"><ele>1056.68</ele><time>2022-02-05T16:45:15Z</time></trkpt>
<trkpt lat="46.229602" lon="11.99316"><ele>1058.32</ele><time>2022-02-05T16:45:17Z</time></trkpt>
<trkpt lat="46.229544" lon="11.992811"><ele>1057.69</ele><time>2022-02-05T16:45:18Z</time></trkpt>
<trkpt lat="46.229337" lon="11.992258"><ele>1054.1</ele><time>2022-02-05T16:45:20Z</time></trkpt>
<trkpt lat="46.229253" lon="11.991845"><ele>1056.51</ele><time>2022-02-05T16:45:21Z</time></trkpt>
<trkpt lat="46.229195" lon="11.991107"><ele>1068.7</ele><time>2022-02-05T16:45:23Z</time></trkpt>
<trkpt lat="46.229038" lon="11.990831"><ele>1071.78</ele><time>2022-02-05T16:45:24Z</time></trkpt>
<trkpt lat="46.228843" lon="11.990764"><ele>1068.88</ele><time>2022-02-05T16:45:26Z</time></trkpt>
<trkpt lat="46.228713" lon="11.990673"><ele>1064.92</ele><time>2022-02-05T16:45:27Z</time></trkpt>
<trkpt lat="46.228648" lon="11.990456"><ele>1066.56</ele><time>2022-02-05T16:45:29Z</time></trkpt>
<trkpt lat="46.22868" lon="11.990083"><ele>1074.7</ele><time>2022-02-05T16:45:30Z</time></trkpt>
<trkpt lat="46.228659" lon="11.98967"><ele>1076.8</ele><time>2022-02-05T16:45:32Z</time></trkpt>
<trkpt lat="46.22862" lon="11.989289"><ele>1081.1</ele><time>2022-02-05T16:45:33Z</time></trkpt>
<trkpt lat="46.228692" lon="11.988856"><ele>1086.84</ele><time>2022-02-05T16:45:35Z</time></trkpt>
<trkpt lat="46.228724" lon="11.98854"><ele>1089.51</ele><time>2022-02-05T16:45:36Z</time></trkpt>
<trkpt lat="46.228702" lon="11.988366"><ele>1090.21</ele><time>2022-02-05T16:45:38Z</time></trkpt>
<trkpt lat="46.228552" lon="11.988081"><ele>1082.85</ele><time>2022-02-05T16:45:39Z</time></trkpt>
<trkpt lat="46.228485" lon="11.987846"><ele>1077.99</ele><time>2022-02-05T16:45:41Z</time></trkpt>
<trkpt lat="46.228479" lon="11.987642"><ele>1078.13</ele><time>2022-02-05T16:45:42Z</time></trkpt>
<trkpt lat="46.228583" lon="11.987347"><ele>1083.8</ele><time>2022-02-05T16:45:43Z</time></trkpt>
<trkpt lat="46.228648" lon="11.98709"><ele>1090.01</ele><time>2022-02-05T16:45:45Z</time></trkpt>
<trkpt lat="46.22865" lon="11.986945"><ele>1092.95</ele><time>2022-02-05T16:45:46Z</time></trkpt>
<trkpt lat="46.228596" lon="11.986835"><ele>1093.09</ele><time>2022-02-05T16:45:48Z</time></trkpt>
<trkpt lat="46.22845" lon="11.986736"><ele>1088.84</ele><time>2022-02-05T16:45:49Z</time></trkpt>
<trkpt lat="46.228171" lon="11.98669"><ele>1079.44</ele><time>2022-02-05T16:45:51Z</time></trkpt>
<trkpt lat="46.228034" lon="11.986575"><ele>1076.6</ele><time>2022-02-05T16:45:52Z</time></trkpt>
<trkpt lat="46.227971" lon="11.986395"><ele>1076.82</ele><time>2022-02-05T16:45:54Z</time></trkpt>
<trkpt lat="46.228021" lon="11.985891"><ele>1078.19</ele><time>2022-02-05T16:45:55Z</time></trkpt>
<trkpt lat="46.228119" lon="11.985274"><ele>1090.23</ele><time>2022-02-05T16:45:57Z</time></trkpt>
<trkpt lat="46.228083" lon="11.984988"><ele>1090.87</ele><time>2022-02-05T16:45:58Z</time></trkpt>
<trkpt lat="46.228083" lon="11.984988"><ele>1090.87</ele><time>2022-02-05T16:45:58Z</time></trkpt>
<trkpt lat="46.228064" lon="11.984831"><ele>1091.5</ele><time>2022-02-05T16:46:00Z</time></trkpt>
<trkpt lat="46.227602" lon="11.983807"><ele>1097.09</ele><time>2022-02-05T16:46:02Z</time></trkpt>
<trkpt lat="46.227453" lon="11.983431"><ele>1095.48</ele><time>2022-02-05T16:46:04Z</time></trkpt>
<trkpt lat="46.227448" lon="11.983158"><ele>1097.22</ele><time>2022-02-05T16:46:06Z</time></trkpt>
<trkpt lat="46.227568" lon="11.982946"><ele>1102.99</ele><time>2022-02-05T16:46:08Z</time></trkpt>
<trkpt lat="46.227628" lon="11.982774"><ele>1105.39</ele><time>2022-02-05T16:46:10Z</time></trkpt>
<trkpt lat="46.227598" lon="11.98256"><ele>1106.18</ele><time>2022-02-05T16:46:13Z</time></trkpt>
<trkpt lat="46.227503" lon="11.982409"><ele>1106.38</ele><time>2022-02-05T16:46:15Z</time></trkpt>
<trkpt lat="46.227264" lon="11.982267"><ele>1102.33</ele><time>2022-02-05T16:46:17Z</time></trkpt>
<trkpt lat="46.226807" lon="11.982232"><ele>1101.74</ele><time>2022-02-05T16:46:19Z</time></trkpt>
<trkpt lat="46.226249" lon="11.982144"><ele>1113.3</ele><time>2022-02-05T16:46:21Z</time></trkpt>
<trkpt lat="46.226065" lon="11.982211"><ele>1108.52</ele><time>2022-02-05T16:46:23Z</time></trkpt>
<trkpt lat="46.225978" lon="11.982289"><ele>1105.47</ele><time>2022-02-05T16:46:25Z</time></trkpt>
<trkpt lat="46.22588" lon="11.982294"><ele>1105.55</ele><time>2022-02-05T16:46:27Z</time></trkpt>
<trkpt lat="46.225536" lon="11.982195"><ele>1111.55</ele><time>2022-02-05T16:46:29Z</time></trkpt>
<trkpt lat="46.225199" lon="11.982259"><ele>1112.46</ele><time>2022-02-05T16:46:31Z</time></trkpt>
<trkpt lat="46.22469" lon="11.982077"><ele>1113.22</ele><time>2022-02-05T16:46:33Z</time></trkpt>
<trkpt lat="46.224536" lon="11.981927"><ele>1111.98</ele><time>2022-02-05T16:46:35Z</time></trkpt>
<trkpt lat="46.224272" lon="11.981177"><ele>1116.94</ele><time>2022-02-05T16:46:37Z</time></trkpt>
<trkpt lat="46.224182" lon="11.980834"><ele>1124.6</ele><time>2022-02-05T16:46:39Z</time></trkpt>
<trkpt lat="46.223939" lon="11.980322"><ele>1139.97</ele><time>2022-02-05T16:46:41Z</time></trkpt>
<trkpt lat="46.223829" lon="11.980138"><ele>1144.24</ele><time>2022-02-05T16:46:43Z</time></trkpt>
<trkpt lat="46.223762" lon="11.980132"><ele>1144.6</ele><time>2022-02-05T16:46:45Z</time></trkpt>
<trkpt lat="46.223664" lon="11.980159"><ele>1144.38</ele><time>2022-02-05T16:46:47Z</time></trkpt>
<trkpt lat="46.223393" lon="11.980347"><ele>1138.29</ele><time>2022-02-05T16:46:49Z</time></trkpt>
<trkpt lat="46.223287" lon="11.98036"><ele>1138.13</ele><time>2022-02-05T16:46:51Z</time></trkpt>
<trkpt lat="46.223041" lon="11.980237"><ele>1144.17</ele><time>2022-02-05T16:46:53Z</time></trkpt>
<trkpt lat="46.222866" lon="11.980229"><ele>1145.96</ele><time>2022-02-05T16:46:55Z</time></trkpt>
<trkpt lat="46.22265" lon="11.980402"><ele>1141.37</ele><time>2022-02-05T16:46:57Z</time></trkpt>
<trkpt lat="46.222469" lon="11.980682"><ele>1135.95</ele><time>2022-02-05T16:47:00Z</time></trkpt>
<trkpt lat="46.222283" lon="11.980725"><ele>1134.0</ele><time>2022-02-05T16:47:02Z</time></trkpt>
<trkpt lat="46.222113" lon="11.980666"><ele>1132.21</ele><time>2022-02-05T16:47:04Z</time></trkpt>
<trkpt lat="46.220621" lon="11.978745"><ele>1143.71</ele><time>2022-02-05T16:47:06Z</time></trkpt>
<trkpt lat="46.220407" lon="11.978339"><ele>1140.38</ele><time>2022-02-05T16:47:08Z</time></trkpt>
<trkpt lat="46.220306" lon="11.977963"><ele>1147.96</ele><time>2022-02-05T16:47:10Z</time></trkpt>
<trkpt lat="46.220261" lon="11.977663"><ele>1159.96</ele><time>2022-02-05T16:47:12Z</time></trkpt>
<trkpt lat="46.220141" lon="11.977429"><ele>1164.73</ele><time>2022-02-05T16:47:14Z</time></trkpt>
<trkpt lat="46.219916" lon="11.977358"><ele>1162.15</ele><time>2022-02-05T16:47:16Z</time></trkpt>
<trkpt lat="46.219807" lon="11.977424"><ele>1156.45</ele><time>2022-02-05T16:47:18Z</time></trkpt>
<trkpt lat="46.219528" lon="11.977685"><ele>1153.35</ele><time>2022-02-05T16:47:20Z</time></trkpt>
<trkpt lat="46.218944" lon="11.977893"><ele>1151.06</ele><time>2022-02-05T16:47:22Z</time></trkpt>
<trkpt lat="46.218741" lon="11.977805"><ele>1146.83</ele><time>2022-02-05T16:47:24Z</time></trkpt>
<trkpt lat="46.218593" lon="11.977617"><ele>1147.11</ele><time>2022-02-05T16:47:26Z</time></trkpt>
<trkpt lat="46.218468" lon="11.977261"><ele>1161.17</ele><time>2022-02-05T16:47:28Z</time></trkpt>
<trkpt lat="46.218273" lon="11.97698"><ele>1161.53</ele><time>2022-02-05T16:47:30Z</time></trkpt>
<trkpt lat="46.21807" lon="11.976888"><ele>1154.1</ele><time>2022-02-05T16:47:32Z</time></trkpt>
<trkpt lat="46.217869" lon="11.9769"><ele>1142.28</ele><time>2022-02-05T16:47:34Z</time></trkpt>
<trkpt lat="46.217769" lon="11.976838"><ele>1139.13</ele><time>2022-02-05T16:47:36Z</time></trkpt>
<trkpt lat="46.217696" lon="11.976703"><ele>1140.26</ele><time>2022-02-05T16:47:38Z</time></trkpt>
<trkpt lat="46.217584" lon="11.976284"><ele>1161.09</ele><time>2022-02-05T16:47:40Z</time></trkpt>
<trkpt lat="46.217203" lon="11.975286"><ele>1150.18</ele><time>2022-02-05T16:47:42Z</time></trkpt>
<trkpt lat="46.217219" lon="11.974975"><ele>1146.63</ele><time>2022-02-05T16:47:45Z</time></trkpt>
<trkpt lat="46.217381" lon="11.974625"><ele>1155.68</ele><time>2022-02-05T16:47:47Z</time></trkpt>
<trkpt lat="46.217452" lon="11.974333"><ele>1157.78</ele><time>2022-02-05T16:47:49Z</time></trkpt>
<trkpt lat="46.217426" lon="11.973869"><ele>1148.08</ele><time>2022-02-05T16:47:51Z</time></trkpt>
<trkpt lat="46.217509" lon="11.973415"><ele>1139.85</ele><time>2022-02-05T16:47:53Z</time></trkpt>
<trkpt lat="46.217951" lon="11.972986"><ele>1153.71</ele><time>2022-02-05T16:47:55Z</time></trkpt>
<trkpt lat="46.218187" lon="11.972566"><ele>1151.91</ele><time>2022-02-05T16:47:57Z</time></trkpt>
<trkpt lat="46.21882" lon="11.972091"><ele>1144.14</ele><time>2022-02-05T16:47:59Z</time></trkpt>
<trkpt lat="46.219099" lon="11.972046"><ele>1145.07</ele><time>2022-02-05T16:48:01Z</time></trkpt>
<trkpt lat="46.2198" lon="11.972052"><ele>1151.04</ele><time>2022-02-05T16:48:03Z</time></trkpt>
<trkpt lat="46.220131" lon="11.971973"><ele>1151.75</ele><time>2022-02-05T16:48:05Z</time></trkpt>
<trkpt lat="46.220279" lon="11.971804"><ele>1152.5</ele><time>2022-02-05T16:48:07Z</time></trkpt>
<trkpt lat="46.220385" lon="11.971571"><ele>1151.43</ele><time>2022-02-05T16:48:09Z</time></trkpt>
<trkpt lat="46.220518" lon="11.970973"><ele>1144.56</ele><time>2022-02-05T16:48:11Z</time></trkpt>
<trkpt lat="46.220668" lon="11.970615"><ele>1146.62</ele><time>2022-02-05T16:48:13Z</time></trkpt>
<trkpt lat="46.220858" lon="11.970313"><ele>1153.3</ele><time>2022-02-05T16:48:15Z</time></trkpt>
<trkpt lat="46.221055" lon="11.970046"><ele>1154.95</ele><time>2022-02-05T16:48:17Z</time></trkpt>
<trkpt lat="46.22115" lon="11.969764"><ele>1152.97</ele><time>2022-02-05T16:48:19Z</time></trkpt>
<trkpt lat="46.221141" lon="11.968096"><ele>1147.05</ele><time>2022-02-05T16:48:21Z</time></trkpt>
<trkpt lat="46.221072" lon="11.967571"><ele>1154.38</ele><time>2022-02-05T16:48:23Z</time></trkpt>
<trkpt lat="46.220897" lon="11.967121"><ele>1154.36</ele><time>2022-02-05T16:48:25Z</time></trkpt>
<trkpt lat="46.220401" lon="11.966081"><ele>1142.31</ele><time>2022-02-05T16:48:27Z</time></trkpt>
<trkpt lat="46.220236" lon="11.965561"><ele>1136.38</ele><time>2022-02-05T16:48:30Z</time></trkpt>
<trkpt lat="46.220119" lon="11.964971"><ele>1130.74</ele><time>2022-02-05T16:48:32Z</time></trkpt>
<trkpt lat="46.220119" lon="11.964591"><ele>1130.59</ele><time>2022-02-05T16:48:34Z</time></trkpt>
<trkpt lat="46.2202" lon="11.964277"><ele>1132.78</ele><time>2022-02-05T16:48:36Z</time></trkpt>
<trkpt lat="46.220426" lon="11.963661"><ele>1133.0</ele><time>2022-02-05T16:48:38Z</time></trkpt>
<trkpt lat="46.2205" lon="11.963269"><ele>1131.51</ele><time>2022-02-05T16:48:40Z</time></trkpt>
<trkpt lat="46.220642" lon="11.962903"><ele>1132.5</ele><time>2022-02-05T16:48:42Z</time></trkpt>
<trkpt lat="46.220732" lon="11.962461"><ele>1134.41</ele><time>2022-02-05T16:48:44Z</time></trkpt>
<trkpt lat="46.2207" lon="11.962189"><ele>1133.25</ele><time>2022-02-05T16:48:46Z</time></trkpt>
<trkpt lat="46.220707" lon="11.961946"><ele>1130.38</ele><time>2022-02-05T16:48:48Z</time></trkpt>
<trkpt lat="46.220761" lon="11.961817"><ele>1128.93</ele><time>2022-02-05T16:48:50Z</time></trkpt>
<trkpt lat="46.221022" lon="11.961476"><ele>1126.02</ele><time>2022-02-05T16:48:52Z</time></trkpt>
<trkpt lat="46.221286" lon="11.961232"><ele>1125.38</ele><time>2022-02-05T16:48:54Z</time></trkpt>
<trkpt lat="46.221811" lon="11.961021"><ele>1129.95</ele><time>2022-02-05T16:48:56Z</time></trkpt>
<trkpt lat="46.222492" lon="11.960993"><ele>1131.88</ele><time>2022-02-05T16:48:58Z</time></trkpt>
<trkpt lat="46.222803" lon="11.961068"><ele>1129.7</ele><time>2022-02-05T16:49:00Z</time></trkpt>
<trkpt lat="46.223076" lon="11.961091"><ele>1134.07</ele><time>2022-02-05T16:49:02Z</time></trkpt>
<trkpt lat="46.223164" lon="11.961036"><ele>1135.11</ele><time>2022-02-05T16:49:04Z</time></trkpt>
<trkpt lat="46.223261" lon="11.960856"><ele>1133.67</ele><time>2022-02-05T16:49:06Z</time></trkpt>
<trkpt lat="46.223248" lon="11.96063"><ele>1133.42</ele><time>2022-02-05T16:49:08Z</time></trkpt>
<trkpt lat="46.223183" lon="11.960458"><ele>1132.9</ele><time>2022-02-05T16:49:10Z</time></trkpt>
<trkpt lat="46.222989" lon="11.960155"><ele>1134.39</ele><time>2022-02-05T16:49:12Z</time></trkpt>
<trkpt lat="46.222869" lon="11.960028"><ele>1137.03</ele><time>2022-02-05T16:49:15Z</time></trkpt>
<trkpt lat="46.222566" lon="11.959848"><ele>1139.32</ele><time>2022-02-05T16:49:17Z</time></trkpt>
<trkpt lat="46.222006" lon="11.95977"><ele>1131.98</ele><time>2022-02-05T16:49:19Z</time></trkpt>
<trkpt lat="46.221855" lon="11.959684"><ele>1131.73</ele><time>2022-02-05T16:49:21Z</time></trkpt>
<trkpt lat="46.221757" lon="11.959533"><ele>1132.67</ele><time>2022-02-05T16:49:23Z</time></trkpt>
<trkpt lat="46.221766" lon="11.958274"><ele>1137.22</ele><time>2022-02-05T16:49:25Z</time></trkpt>
<trkpt lat="46.221788" lon="11.957843"><ele>1136.71</ele><time>2022-02-05T16:49:27Z</time></trkpt>
<trkpt lat="46.221772" lon="11.957543"><ele>1137.36</ele><time>2022-02-05T16:49:29Z</time></trkpt>
<trkpt lat="46.221508" lon="11.956272"><ele>1139.95</ele><time>2022-02-05T16:49:31Z</time></trkpt>
<trkpt lat="46.221429" lon="11.955503"><ele>1138.55</ele><time>2022-02-05T16:49:33Z</time></trkpt>
<trkpt lat="46.221384" lon="11.954873"><ele>1140.82</ele><time>2022-02-05T16:49:35Z</time></trkpt>
<trkpt lat="46.221432" lon="11.954691"><ele>1143.74</ele><time>2022-02-05T16:49:37Z</time></trkpt>
<trkpt lat="46.221358" lon="11.954641"><ele>1144.11</ele><time>2022-02-05T16:49:39Z</time></trkpt>
<trkpt lat="46.221297" lon="11.954511"><ele>1145.54</ele><time>2022-02-05T16:49:41Z</time></trkpt>
<trkpt lat="46.221118" lon="11.953924"><ele>1143.22</ele><time>2022-02-05T16:49:42Z</time></trkpt>
<trkpt lat="46.220982" lon="11.95359"><ele>1142.18</ele><time>2022-02-05T16:49:44Z</time></trkpt>
<trkpt lat="46.2209" lon="11.953434"><ele>1142.6</ele><time>2022-02-05T16:49:46Z</time></trkpt>
<trkpt lat="46.22074" lon="11.95325"><ele>1142.83</ele><time>2022-02-05T16:49:48Z</time></trkpt>
<trkpt lat="46.220534" lon="11.953162"><ele>1143.23</ele><time>2022-02-05T16:49:50Z</time></trkpt>
<trkpt lat="46.220453" lon="11.95317"><ele>1144.59</ele><time>2022-02-05T16:49:51Z</time></trkpt>
<trkpt lat="46.220348" lon="11.953229"><ele>1145.03</ele><time>2022-02-05T16:49:53Z</time></trkpt>
<trkpt lat="46.219901" lon="11.953567"><ele>1141.06</ele><time>2022-02-05T16:49:55Z</time></trkpt>
<trkpt lat="46.219814" lon="11.953584"><ele>1141.56</ele><time>2022-02-05T16:49:57Z</time></trkpt>
<trkpt lat="46.219677" lon="11.953569"><ele>1142.59</ele><time>2022-02-05T16:49:59Z</time></trkpt>
<trkpt lat="46.219061" lon="11.953327"><ele>1139.81</ele><time>2022-02-05T16:50:00Z</time></trkpt>
<trkpt lat="46.218601" lon="11.953188"><ele>1137.75</ele><time>2022-02-05T16:50:02Z</time></trkpt>
<trkpt lat="46.218233" lon="11.952898"><ele>1150.2</ele><time>2022-02-05T16:50:04Z</time></trkpt>
<trkpt lat="46.218063" lon="11.952858"><ele>1149.12</ele><time>2022-02-05T16:50:06Z</time></trkpt>
<trkpt lat="46.217611" lon="11.952922"><ele>1150.31</ele><time>2022-02-05T16:50:08Z</time></trkpt>
<trkpt lat="46.217306" lon="11.953059"><ele>1152.59</ele><time>2022-02-05T16:50:09Z</time></trkpt>
<trkpt lat="46.217012" lon="11.953083"><ele>1158.31</ele><time>2022-02-05T16:50:11Z</time></trkpt>
<trkpt lat="46.216835" lon="11.953043"><ele>1160.62</ele><time>2022-02-05T16:50:13Z</time></trkpt>
<trkpt lat="46.216031" lon="11.952628"><ele>1178.39</ele><time>2022-02-05T16:50:15Z</time></trkpt>
<trkpt lat="46.21539" lon="11.952508"><ele>1182.49</ele><time>2022-02-05T16:50:17Z</time></trkpt>
<trkpt lat="46.214937" lon="11.952202"><ele>1191.22</ele><time>2022-02-05T16:50:18Z</time></trkpt>
<trkpt lat="46.214803" lon="11.952144"><ele>1194.23</ele><time>2022-02-05T16:50:20Z</time></trkpt>
<trkpt lat="46.214499" lon="11.952081"><ele>1200.31</ele><time>2022-02-05T16:50:22Z</time></trkpt>
<trkpt lat="46.214091" lon="11.952222"><ele>1204.2</ele><time>2022-02-05T16:50:24Z</time></trkpt>
<trkpt lat="46.214009" lon="11.952274"><ele>1205.38</ele><time>2022-02-05T16:50:26Z</time></trkpt>
<trkpt lat="46.213947" lon="11.952359"><ele>1205.55</ele><time>2022-02-05T16:50:27Z</time></trkpt>
<trkpt lat="46.213716" lon="11.952849"><ele>1198.88</ele><time>2022-02-05T16:50:29Z</time></trkpt>
<trkpt lat="46.213649" lon="11.952926"><ele>1197.58</ele><time>2022-02-05T16:50:31Z</time></trkpt>
<trkpt lat="46.213559" lon="11.952964"><ele>1197.03</ele><time>2022-02-05T16:50:33Z</time></trkpt>
<trkpt lat="46.21316" lon="11.953006"><ele>1199.04</ele><time>2022-02-05T16:50:35Z</time></trkpt>
<trkpt lat="46.212709" lon="11.953264"><ele>1193.99</ele><time>2022-02-05T16:50:36Z</time></trkpt>
<trkpt lat="46.212307" lon="11.953624"><ele>1189.61</ele><time>2022-02-05T16:50:38Z</time></trkpt>
<trkpt lat="46.212044" lon="11.954156"><ele>1186.37</ele><time>2022-02-05T16:50:40Z</time></trkpt>
<trkpt lat="46.211638" lon="11.954293"><ele>1193.37</ele><time>2022-02-05T16:50:42Z</time></trkpt>
<trkpt lat="46.211399" lon="11.954439"><ele>1195.82</ele><time>2022-02-05T16:50:44Z</time></trkpt>
<trkpt lat="46.211038" lon="11.954935"><ele>1197.18</ele><time>2022-02-05T16:50:45Z</time></trkpt>
<trkpt lat="46.210886" lon="11.955036"><ele>1195.37</ele><time>2022-02-05T16:50:47Z</time></trkpt>
<trkpt lat="46.210448" lon="11.955251"><ele>1200.43</ele><time>2022-02-05T16:50:49Z</time></trkpt>
<trkpt lat="46.210215" lon="11.955439"><ele>1206.72</ele><time>2022-02-05T16:50:51Z</time></trkpt>
<trkpt lat="46.209894" lon="11.955736"><ele>1206.84</ele><time>2022-02-05T16:50:53Z</time></trkpt>
<trkpt lat="46.209686" lon="11.955744"><ele>1207.85</ele><time>2022-02-05T16:50:54Z</time></trkpt>
<trkpt lat="46.20906" lon="11.955247"><ele>1213.66</ele><time>2022-02-05T16:50:56Z</time></trkpt>
<trkpt lat="46.2086" lon="11.955117"><ele>1212.88</ele><time>2022-02-05T16:50:58Z</time></trkpt>
<trkpt lat="46.208307" lon="11.955"><ele>1210.72</ele><time>2022-02-05T16:51:00Z</time></trkpt>
<trkpt lat="46.208023" lon="11.954793"><ele>1212.49</ele><time>2022-02-05T16:51:02Z</time></trkpt>
<trkpt lat="46.207857" lon="11.954569"><ele>1209.99</ele><time>2022-02-05T16:51:03Z</time></trkpt>
<trkpt lat="46.207821" lon="11.954268"><ele>1205.66</ele><time>2022-02-05T16:51:05Z</time></trkpt>
<trkpt lat="46.207863" lon="11.95393"><ele>1201.29</ele><time>2022-02-05T16:51:07Z</time></trkpt>
<trkpt lat="46.207987" lon="11.953474"><ele>1206.81</ele><time>2022-02-05T16:51:09Z</time></trkpt>
<trkpt lat="46.207993" lon="11.952963"><ele>1204.22</ele><time>2022-02-05T16:51:11Z</time></trkpt>
<trkpt lat="46.207944" lon="11.952546"><ele>1199.76</ele><time>2022-02-05T16:51:12Z</time></trkpt>
<trkpt lat="46.207934" lon="11.952157"><ele>1198.14</ele><time>2022-02-05T16:51:14Z</time></trkpt>
<trkpt lat="46.207821" lon="11.951487"><ele>1197.19</ele><time>2022-02-05T16:51:16Z</time></trkpt>
<trkpt lat="46.207611" lon="11.950815"><ele>1200.37</ele><time>2022-02-05T16:51:18Z</time></trkpt>
<trkpt lat="46.207463" lon="11.95053"><ele>1201.95</ele><time>2022-02-05T16:51:20Z</time></trkpt>
<trkpt lat="46.207256" lon="11.950308"><ele>1198.73</ele><time>2022-02-05T16:51:21Z</time></trkpt>
<trkpt lat="46.207055" lon="11.949959"><ele>1199.71</ele><time>2022-02-05T16:51:23Z</time></trkpt>
<trkpt lat="46.206756" lon="11.949165"><ele>1195.45</ele><time>2022-02-05T16:51:25Z</time></trkpt>
<trkpt lat="46.206656" lon="11.948732"><ele>1193.57</ele><time>2022-02-05T16:51:27Z</time></trkpt>
<trkpt lat="46.206643" lon="11.948353"><ele>1195.34</ele><time>2022-02-05T16:51:29Z</time></trkpt>
<trkpt lat="46.206739" lon="11.947699"><ele>1191.9</ele><time>2022-02-05T16:51:30Z</time></trkpt>
<trkpt lat="46.206744" lon="11.946971"><ele>1184.4</ele><time>2022-02-05T16:51:32Z</time></trkpt>
<trkpt lat="46.20672" lon="11.946588"><ele>1182.56</ele><time>2022-02-05T16:51:34Z</time></trkpt>
<trkpt lat="46.206684" lon="11.946407"><ele>1183.33</ele><time>2022-02-05T16:51:36Z</time></trkpt>
<trkpt lat="46.206483" lon="11.945724"><ele>1176.09</ele><time>2022-02-05T16:51:38Z</time></trkpt>
<trkpt lat="46.206462" lon="11.945364"><ele>1172.72</ele><time>2022-02-05T16:51:39Z</time></trkpt>
<trkpt lat="46.206468" lon="11.945016"><ele>1172.0</ele><time>2022-02-05T16:51:41Z</time></trkpt>
<trkpt lat="46.206531" lon="11.944541"><ele>1169.38</ele><time>2022-02-05T16:51:43Z</time></trkpt>
<trkpt lat="46.206572" lon="11.944044"><ele>1173.8</ele><time>2022-02-05T16:51:45Z</time></trkpt>
<trkpt lat="46.206544" lon="11.943705"><ele>1174.32</ele><time>2022-02-05T16:51:47Z</time></trkpt>
<trkpt lat="46.206484" lon="11.943357"><ele>1171.23</ele><time>2022-02-05T16:51:48Z</time></trkpt>
<trkpt lat="46.206502" lon="11.943097"><ele>1170.5</ele><time>2022-02-05T16:51:50Z</time></trkpt>
<trkpt lat="46.206546" lon="11.942843"><ele>1173.98</ele><time>2022-02-05T16:51:52Z</time></trkpt>
<trkpt lat="46.206523" lon="11.942618"><ele>1175.27</ele><time>2022-02-05T16:51:54Z</time></trkpt>
<trkpt lat="46.206281" lon="11.942083"><ele>1169.88</ele><time>2022-02-05T16:51:56Z</time></trkpt>
<trkpt lat="46.206251" lon="11.941867"><ele>1170.27</ele><time>2022-02-05T16:51:57Z</time></trkpt>
<trkpt lat="46.206241" lon="11.941541"><ele>1170.82</ele><time>2022-02-05T16:51:59Z</time></trkpt>
<trkpt lat="46.206275" lon="11.941005"><ele>1164.78</ele><time>2022-02-05T16:52:01Z</time></trkpt>
<trkpt lat="46.206401" lon="11.940337"><ele>1162.46</ele><time>2022-02-05T16:52:03Z</time></trkpt>
<trkpt lat="46.206471" lon="11.939431"><ele>1157.17</ele><time>2022-02-05T16:52:05Z</time></trkpt>
<trkpt lat="46.206503" lon="11.939199"><ele>1156.75</ele><time>2022-02-05T16:52:06Z</time></trkpt>
<trkpt lat="46.206564" lon="11.938983"><ele>1158.77</ele><time>2022-02-05T16:52:08Z</time></trkpt>
<trkpt lat="46.206938" lon="11.938073"><ele>1154.08</ele><time>2022-02-05T16:52:10Z</time></trkpt>
<trkpt lat="46.207071" lon="11.937802"><ele>1156.69</ele><time>2022-02-05T16:52:12Z</time></trkpt>
<trkpt lat="46.207667" lon="11.936727"><ele>1161.62</ele><time>2022-02-05T16:52:14Z</time></trkpt>
<trkpt lat="46.207866" lon="11.936322"><ele>1168.93</ele><time>2022-02-05T16:52:15Z</time></trkpt>
<trkpt lat="46.207977" lon="11.935837"><ele>1167.58</ele><time>2022-02-05T16:52:17Z</time></trkpt>
<trkpt lat="46.208445" lon="11.93247"><ele>1139.32</ele><time>2022-02-05T16:52:19Z</time></trkpt>
<trkpt lat="46.20862" lon="11.931376"><ele>1137.28</ele><time>2022-02-05T16:52:21Z</time></trkpt>
<trkpt lat="46.208749" lon="11.930805"><ele>1137.6</ele><time>2022-02-05T16:52:23Z</time></trkpt>
<trkpt lat="46.209243" lon="11.929246"><ele>1125.59</ele><time>2022-02-05T16:52:24Z</time></trkpt>
<trkpt lat="46.209299" lon="11.928964"><ele>1124.7</ele><time>2022-02-05T16:52:26Z</time></trkpt>
<trkpt lat="46.209305" lon="11.928712"><ele>1124.79</ele><time>2022-02-05T16:52:28Z</time></trkpt>
<trkpt lat="46.209277" lon="11.928516"><ele>1123.85</ele><time>2022-02-05T16:52:30Z</time></trkpt>
<trkpt lat="46.20923" lon="11.928333"><ele>1122.06</ele><time>2022-02-05T16:52:32Z</time></trkpt>
<trkpt lat="46.209034" lon="11.927851"><ele>1119.9</ele><time>2022-02-05T16:52:33Z</time></trkpt>
<trkpt lat="46.208938" lon="11.927684"><ele>1122.39</ele><time>2022-02-05T16:52:35Z</time></trkpt>
<trkpt lat="46.208827" lon="11.927581"><ele>1124.28</ele><time>2022-02-05T16:52:37Z</time></trkpt>
<trkpt lat="46.208708" lon="11.927536"><ele>1124.73</ele><time>2022-02-05T16:52:39Z</time></trkpt>
<trkpt lat="46.208233" lon="11.927505"><ele>1123.95</ele><time>2022-02-05T16:52:40Z</time></trkpt>
<trkpt lat="46.208042" lon="11.927587"><ele>1123.95</ele><time>2022-02-05T16:52:42Z</time></trkpt>
<trkpt lat="46.207874" lon="11.927771"><ele>1121.13</ele><time>2022-02-05T16:52:44Z</time></trkpt>
<trkpt lat="46.207717" lon="11.927976"><ele>1118.03</ele><time>2022-02-05T16:52:46Z</time></trkpt>
<trkpt lat="46.207621" lon="11.92807"><ele>1117.03</ele><time>2022-02-05T16:52:48Z</time></trkpt>
<trkpt lat="46.207566" lon="11.928106"><ele>1117.26</ele><time>2022-02-05T16:52:49Z</time></trkpt>
<trkpt lat="46.207539" lon="11.928102"><ele>1117.5</ele><time>2022-02-05T16:52:51Z</time></trkpt>
<trkpt lat="46.207409" lon="11.927851"><ele>1119.97</ele><time>2022-02-05T16:52:53Z</time></trkpt>
<trkpt lat="46.207371" lon="11.927658"><ele>1121.2</ele><time>2022-02-05T16:52:55Z</time></trkpt>
<trkpt lat="46.207311" lon="11.927463"><ele>1122.31</ele><time>2022-02-05T16:52:57Z</time></trkpt>
<trkpt lat="46.207259" lon="11.927353"><ele>1122.92</ele><time>2022-02-05T16:52:58Z</time></trkpt>
<trkpt lat="46.207184" lon="11.927299"><ele>1123.13</ele><time>2022-02-05T16:53:00Z</time></trkpt>
<trkpt lat="46.207087" lon="11.927302"><ele>1123.01</ele><time>2022-02-05T16:53:02Z</time></trkpt>
<trkpt lat="46.206334" lon="11.927523"><ele>1124.07</ele><time>2022-02-05T16:53:04Z</time></trkpt>
<trkpt lat="46.206141" lon="11.927493"><ele>1121.69</ele><time>2022-02-05T16:53:06Z</time></trkpt>
<trkpt lat="46.205832" lon="11.927381"><ele>1119.85</ele><time>2022-02-05T16:53:07Z</time></trkpt>
<trkpt lat="46.205714" lon="11.927302"><ele>1119.26</ele><time>2022-02-05T16:53:09Z</time></trkpt>
<trkpt lat="46.205653" lon="11.927207"><ele>1119.16</ele><time>2022-02-05T16:53:11Z</time></trkpt>
<trkpt lat="46.204878" lon="11.925487"><ele>1115.33</ele><time>2022-02-05T16:53:13Z</time></trkpt>
<trkpt lat="46.204757" lon="11.925162"><ele>1121.18</ele><time>2022-02-05T16:53:15Z</time></trkpt>
<trkpt lat="46.204761" lon="11.92488"><ele>1124.96</ele><time>2022-02-05T16:53:16Z</time></trkpt>
<trkpt lat="46.204904" lon="11.924351"><ele>1126.46</ele><time>2022-02-05T16:53:18Z</time></trkpt>
<trkpt lat="46.205031" lon="11.924237"><ele>1128.68</ele><time>2022-02-05T16:53:20Z</time></trkpt>
<trkpt lat="46.2055" lon="11.924057"><ele>1135.84</ele><time>2022-02-05T16:53:22Z</time></trkpt>
<trkpt lat="46.205539" lon="11.923996"><ele>1136.92</ele><time>2022-02-05T16:53:24Z</time></trkpt>
<trkpt lat="46.205569" lon="11.923878"><ele>1138.57</ele><time>2022-02-05T16:53:25Z</time></trkpt>
<trkpt lat="46.205548" lon="11.923736"><ele>1140.54</ele><time>2022-02-05T16:53:27Z</time></trkpt>
<trkpt lat="46.2055" lon="11.923667"><ele>1140.29</ele><time>2022-02-05T16:53:29Z</time></trkpt>
<trkpt lat="46.205245" lon="11.923541"><ele>1135.58</ele><time>2022-02-05T16:53:31Z</time></trkpt>
<trkpt lat="46.205124" lon="11.923419"><ele>1137.28</ele><time>2022-02-05T16:53:33Z</time></trkpt>
<trkpt lat="46.20506" lon="11.923299"><ele>1140.83</ele><time>2022-02-05T16:53:34Z</time></trkpt>
<trkpt lat="46.204956" lon="11.922863"><ele>1154.89</ele><time>2022-02-05T16:53:36Z</time></trkpt>
<trkpt lat="46.204864" lon="11.92264"><ele>1153.14</ele><time>2022-02-05T16:53:38Z</time></trkpt>
<trkpt lat="46.20456" lon="11.922183"><ele>1153.7</ele><time>2022-02-05T16:53:40Z</time></trkpt>
<trkpt lat="46.204288" lon="11.921848"><ele>1171.2</ele><time>2022-02-05T16:53:42Z</time></trkpt>
<trkpt lat="46.204231" lon="11.921809"><ele>1174.61</ele><time>2022-02-05T16:53:43Z</time></trkpt>
<trkpt lat="46.20411" lon="11.921881"><ele>1176.54</ele><time>2022-02-05T16:53:45Z</time></trkpt>
<trkpt lat="46.20378" lon="11.922601"><ele>1162.28</ele><time>2022-02-05T16:53:47Z</time></trkpt>
<trkpt lat="46.203688" lon="11.922711"><ele>1157.91</ele><time>2022-02-05T16:53:49Z</time></trkpt>
<trkpt lat="46.203577" lon="11.922744"><ele>1155.83</ele><time>2022-02-05T16:53:51Z</time></trkpt>
<trkpt lat="46.203406" lon="11.922744"><ele>1155.72</ele><time>2022-02-05T16:53:52Z</time></trkpt>
<trkpt lat="46.201761" lon="11.922504"><ele>1189.84</ele><time>2022-02-05T16:53:54Z</time></trkpt>
<trkpt lat="46.201725" lon="11.922489"><ele>1191.19</ele><time>2022-02-05T16:53:56Z</time></trkpt>
<trkpt lat="46.201705" lon="11.922457"><ele>1192.93</ele><time>2022-02-05T16:53:58Z</time></trkpt>
<trkpt lat="46.201692" lon="11.922384"><ele>1196.17</ele><time>2022-02-05T16:54:00Z</time></trkpt>
<trkpt lat="46.201718" lon="11.922329"><ele>1198.02</ele><time>2022-02-05T16:54:01Z</time></trkpt>
<trkpt lat="46.202876" lon="11.921686"><ele>1216.69</ele><time>2022-02-05T16:54:03Z</time></trkpt>
<trkpt lat="46.203553" lon="11.921057"><ele>1218.15</ele><time>2022-02-05T16:54:05Z</time></trkpt>
<trkpt lat="46.204155" lon="11.920423"><ele>1239.2</ele><time>2022-02-05T16:54:07Z</time></trkpt>
<trkpt lat="46.204185" lon="11.920296"><ele>1248.06</ele><time>2022-02-05T16:54:09Z</time></trkpt>
<trkpt lat="46.204138" lon="11.920219"><ele>1260.51</ele><time>2022-02-05T16:54:10Z</time></trkpt>
<trkpt lat="46.204103" lon="11.920205"><ele>1265.53</ele><time>2022-02-05T16:54:12Z</time></trkpt>
<trkpt lat="46.20402" lon="11.92026"><ele>1271.0</ele><time>2022-02-05T16:54:14Z</time></trkpt>
<trkpt lat="46.203511" lon="11.920794"><ele>1230.53</ele><time>2022-02-05T16:54:16Z</time></trkpt>
<trkpt lat="46.202894" lon="11.921073"><ele>1236.02</ele><time>2022-02-05T16:54:18Z</time></trkpt>
<trkpt lat="46.202421" lon="11.921247"><ele>1244.97</ele><time>2022-02-05T16:54:19Z</time></trkpt>
<trkpt lat="46.201987" lon="11.921215"><ele>1242.11</ele><time>2022-02-05T16:54:21Z</time></trkpt>
<trkpt lat="46.201377" lon="11.920897"><ele>1254.45</ele><time>2022-02-05T16:54:23Z</time></trkpt>
<trkpt lat="46.201226" lon="11.920846"><ele>1258.72</ele><time>2022-02-05T16:54:25Z</time></trkpt>
<trkpt lat="46.201132" lon="11.920839"><ele>1259.52</ele><time>2022-02-05T16:54:27Z</time></trkpt>
<trkpt lat="46.200799" lon="11.921"><ele>1249.21</ele><time>2022-02-05T16:54:28Z</time></trkpt>
<trkpt lat="46.200599" lon="11.920991"><ele>1250.8</ele><time>2022-02-05T16:54:30Z</time></trkpt>
<trkpt lat="46.199619" lon="11.921244"><ele>1257.42</ele><time>2022-02-05T16:54:32Z</time></trkpt>
<trkpt lat="46.199402" lon="11.921258"><ele>1259.14</ele><time>2022-02-05T16:54:34Z</time></trkpt>
<trkpt lat="46.199187" lon="11.921238"><ele>1263.79</ele><time>2022-02-05T16:54:36Z</time></trkpt>
<trkpt lat="46.199138" lon="11.921208"><ele>1265.28</ele><time>2022-02-05T16:54:37Z</time></trkpt>
<trkpt lat="46.198926" lon="11.920973"><ele>1273.03</ele><time>2022-02-05T16:54:39Z</time></trkpt>
<trkpt lat="46.198796" lon="11.920881"><ele>1273.38</ele><time>2022-02-05T16:54:41Z</time></trkpt>
<trkpt lat="46.198668" lon="11.92082"><ele>1273.52</ele><time>2022-02-05T16:54:43Z</time></trkpt>
<trkpt lat="46.198498" lon="11.92078"><ele>1275.55</ele><time>2022-02-05T16:54:45Z</time></trkpt>
<trkpt lat="46.198267" lon="11.920786"><ele>1278.55</ele><time>2022-02-05T16:54:46Z</time></trkpt>
<trkpt lat="46.19754" lon="11.920938"><ele>1284.57</ele><time>2022-02-05T16:54:48Z</time></trkpt>
<trkpt lat="46.197362" lon="11.920951"><ele>1287.35</ele><time>2022-02-05T16:54:50Z</time></trkpt>
<trkpt lat="46.197244" lon="11.92076"><ele>1290.59</ele><time>2022-02-05T16:54:52Z</time></trkpt>
<trkpt lat="46.197247" lon="11.920531"><ele>1290.74</ele><time>2022-02-05T16:54:54Z</time></trkpt>
<trkpt lat="46.197516" lon="11.920322"><ele>1288.88</ele><time>2022-02-05T16:54:55Z</time></trkpt>
<trkpt lat="46.197631" lon="11.919968"><ele>1292.81</ele><time>2022-02-05T16:54:57Z</time></trkpt>
<trkpt lat="46.19766" lon="11.919756"><ele>1295.48</ele><time>2022-02-05T16:54:59Z</time></trkpt>
<trkpt lat="46.19766" lon="11.919495"><ele>1298.45</ele><time>2022-02-05T16:55:01Z</time></trkpt>
<trkpt lat="46.19762" lon="11.919005"><ele>1302.25</ele><time>2022-02-05T16:55:03Z</time></trkpt>
<trkpt lat="46.197561" lon="11.918705"><ele>1302.25</ele><time>2022-02-05T16:55:04Z</time></trkpt>
<trkpt lat="46.1975" lon="11.918483"><ele>1302.46</ele><time>2022-02-05T16:55:06Z</time></trkpt>
<trkpt lat="46.197407" lon="11.918236"><ele>1303.72</ele><time>2022-02-05T16:55:08Z</time></trkpt>
<trkpt lat="46.197345" lon="11.918117"><ele>1304.99</ele><time>2022-02-05T16:55:10Z</time></trkpt>
<trkpt lat="46.197196" lon="11.917892"><ele>1308.03</ele><time>2022-02-05T16:55:12Z</time></trkpt>
<trkpt lat="46.196677" lon="11.9173"><ele>1305.85</ele><time>2022-02-05T16:55:13Z</time></trkpt>
<trkpt lat="46.196438" lon="11.916975"><ele>1308.03</ele><time>2022-02-05T16:55:15Z</time></trkpt>
<trkpt lat="46.196298" lon="11.916733"><ele>1310.63</ele><time>2022-02-05T16:55:17Z</time></trkpt>
<trkpt lat="46.196055" lon="11.916201"><ele>1315.43</ele><time>2022-02-05T16:55:19Z</time></trkpt>
<trkpt lat="46.195858" lon="11.915817"><ele>1316.6</ele><time>2022-02-05T16:55:21Z</time></trkpt>
<trkpt lat="46.195403" lon="11.915124"><ele>1321.56</ele><time>2022-02-05T16:55:22Z</time></trkpt>
<trkpt lat="46.19532" lon="11.91502"><ele>1322.0</ele><time>2022-02-05T16:55:24Z</time></trkpt>
<trkpt lat="46.19513" lon="11.914851"><ele>1325.23</ele><time>2022-02-05T16:55:26Z</time></trkpt>
<trkpt lat="46.194916" lon="11.914751"><ele>1327.11</ele><time>2022-02-05T16:55:28Z</time></trkpt>
<trkpt lat="46.194402" lon="11.914624"><ele>1327.61</ele><time>2022-02-05T16:55:30Z</time></trkpt>
<trkpt lat="46.194322" lon="11.914568"><ele>1328.04</ele><time>2022-02-05T16:55:31Z</time></trkpt>
<trkpt lat="46.194266" lon="11.914487"><ele>1328.61</ele><time>2022-02-05T16:55:33Z</time></trkpt>
<trkpt lat="46.194235" lon="11.914379"><ele>1329.56</ele><time>2022-02-05T16:55:35Z</time></trkpt>
<trkpt lat="46.194177" lon="11.913463"><ele>1337.34</ele><time>2022-02-05T16:55:37Z</time></trkpt>
<trkpt lat="46.194124" lon="11.913129"><ele>1341.34</ele><time>2022-02-05T16:55:38Z</time></trkpt>
<trkpt lat="46.19359" lon="11.910844"><ele>1356.45</ele><time>2022-02-05T16:55:40Z</time></trkpt>
<trkpt lat="46.193534" lon="11.910517"><ele>1354.35</ele><time>2022-02-05T16:55:42Z</time></trkpt>
<trkpt lat="46.193473" lon="11.909005"><ele>1364.89</ele><time>2022-02-05T16:55:44Z</time></trkpt>
<trkpt lat="46.193386" lon="11.908064"><ele>1362.71</ele><time>2022-02-05T16:55:46Z</time></trkpt>
<trkpt lat="46.193313" lon="11.907008"><ele>1368.12</ele><time>2022-02-05T16:55:47Z</time></trkpt>
<trkpt lat="46.193209" lon="11.906317"><ele>1370.19</ele><time>2022-02-05T16:55:49Z</time></trkpt>
<trkpt lat="46.192847" lon="11.904232"><ele>1371.94</ele><time>2022-02-05T16:55:51Z</time></trkpt>
<trkpt lat="46.192619" lon="11.902388"><ele>1362.32</ele><time>2022-02-05T16:55:53Z</time></trkpt>
<trkpt lat="46.192579" lon="11.901883"><ele>1360.99</ele><time>2022-02-05T16:55:55Z</time></trkpt>
<trkpt lat="46.192475" lon="11.900928"><ele>1353.76</ele><time>2022-02-05T16:55:56Z</time></trkpt>
<trkpt lat="46.192282" lon="11.89987"><ele>1343.12</ele><time>2022-02-05T16:55:58Z</time></trkpt>
<trkpt lat="46.192218" lon="11.899365"><ele>1340.86</ele><time>2022-02-05T16:56:00Z</time></trkpt>
<trkpt lat="46.192097" lon="11.897733"><ele>1330.52</ele><time>2022-02-05T16:56:02Z</time></trkpt>
<trkpt lat="46.192099" lon="11.897342"><ele>1330.84</ele><time>2022-02-05T16:56:04Z</time></trkpt>
<trkpt lat="46.192158" lon="11.896801"><ele>1326.55</ele><time>2022-02-05T16:56:05Z</time></trkpt>
<trkpt lat="46.192153" lon="11.896703"><ele>1325.2</ele><time>2022-02-05T16:56:07Z</time></trkpt>
<trkpt lat="46.192117" lon="11.896653"><ele>1324.01</ele><time>2022-02-05T16:56:09Z</time></trkpt>
<trkpt lat="46.192065" lon="11.896636"><ele>1323.03</ele><time>2022-02-05T16:56:11Z</time></trkpt>
<trkpt lat="46.192015" lon="11.896667"><ele>1322.27</ele><time>2022-02-05T16:56:13Z</time></trkpt>
<trkpt lat="46.191801" lon="11.897106"><ele>1324.29</ele><time>2022-02-05T16:56:14Z</time></trkpt>
<trkpt lat="46.191752" lon="11.897171"><ele>1324.87</ele><time>2022-02-05T16:56:16Z</time></trkpt>
<trkpt lat="46.1917" lon="11.897189"><ele>1324.76</ele><time>2022-02-05T16:56:18Z</time></trkpt>
<trkpt lat="46.191657" lon="11.897153"><ele>1324.35</ele><time>2022-02-05T16:56:20Z</time></trkpt>
<trkpt lat="46.191637" lon="11.897084"><ele>1323.85</ele><time>2022-02-05T16:56:22Z</time></trkpt>
<trkpt lat="46.191761" lon="11.895504"><ele>1305.48</ele><time>2022-02-05T16:56:23Z</time></trkpt>
<trkpt lat="46.191881" lon="11.894298"><ele>1304.66</ele><time>2022-02-05T16:56:25Z</time></trkpt>
<trkpt lat="46.191888" lon="11.893783"><ele>1297.4</ele><time>2022-02-05T16:56:27Z</time></trkpt>
<trkpt lat="46.191876" lon="11.893111"><ele>1298.65</ele><time>2022-02-05T16:56:29Z</time></trkpt>
<trkpt lat="46.191944" lon="11.892159"><ele>1292.86</ele><time>2022-02-05T16:56:31Z</time></trkpt>
<trkpt lat="46.191926" lon="11.891446"><ele>1283.71</ele><time>2022-02-05T16:56:32Z</time></trkpt>
<trkpt lat="46.191868" lon="11.890681"><ele>1278.07</ele><time>2022-02-05T16:56:34Z</time></trkpt>
<trkpt lat="46.191863" lon="11.890151"><ele>1277.66</ele><time>2022-02-05T16:56:36Z</time></trkpt>
<trkpt lat="46.191806" lon="11.89009"><ele>1275.04</ele><time>2022-02-05T16:56:38Z</time></trkpt>
<trkpt lat="46.191783" lon="11.890092"><ele>1273.8</ele><time>2022-02-05T16:56:40Z</time></trkpt>
<trkpt lat="46.191741" lon="11.890155"><ele>1271.33</ele><time>2022-02-05T16:56:41Z</time></trkpt>
<trkpt lat="46.191703" lon="11.890272"><ele>1268.88</ele><time>2022-02-05T16:56:43Z</time></trkpt>
<trkpt lat="46.191527" lon="11.891226"><ele>1269.24</ele><time>2022-02-05T16:56:45Z</time></trkpt>
<trkpt lat="46.191493" lon="11.891326"><ele>1269.51</ele><time>2022-02-05T16:56:47Z</time></trkpt>
<trkpt lat="46.191442" lon="11.891386"><ele>1269.11</ele><time>2022-02-05T16:56:49Z</time></trkpt>
<trkpt lat="46.191391" lon="11.891387"><ele>1268.0</ele><time>2022-02-05T16:56:50Z</time></trkpt>
<trkpt lat="46.191355" lon="11.891336"><ele>1266.79</ele><time>2022-02-05T16:56:52Z</time></trkpt>
<trkpt lat="46.19134" lon="11.891255"><ele>1265.2</ele><time>2022-02-05T16:56:54Z</time></trkpt>
<trkpt lat="46.191305" lon="11.890714"><ele>1255.56</ele><time>2022-02-05T16:56:56Z</time></trkpt>
<trkpt lat="46.191308" lon="11.890378"><ele>1254.05</ele><time>2022-02-05T16:56:58Z</time></trkpt>
<trkpt lat="46.191369" lon="11.890063"><ele>1256.09</ele><time>2022-02-05T16:56:59Z</time></trkpt>
<trkpt lat="46.191356" lon="11.889929"><ele>1256.41</ele><time>2022-02-05T16:57:01Z</time></trkpt>
<trkpt lat="46.191321" lon="11.8899"><ele>1255.21</ele><time>2022-02-05T16:57:03Z</time></trkpt>
<trkpt lat="46.191281" lon="11.889909"><ele>1253.48</ele><time>2022-02-05T16:57:05Z</time></trkpt>
<trkpt lat="46.19125" lon="11.889942"><ele>1252.09</ele><time>2022-02-05T16:57:07Z</time></trkpt>
<trkpt lat="46.191201" lon="11.890022"><ele>1250.33</ele><time>2022-02-05T16:57:08Z</time></trkpt>
<trkpt lat="46.191128" lon="11.890258"><ele>1249.29</ele><time>2022-02-05T16:57:10Z</time></trkpt>
<trkpt lat="46.191074" lon="11.890378"><ele>1248.7</ele><time>2022-02-05T16:57:12Z</time></trkpt>
<trkpt lat="46.191006" lon="11.890476"><ele>1247.81</ele><time>2022-02-05T16:57:14Z</time></trkpt>
<trkpt lat="46.190924" lon="11.890542"><ele>1246.58</ele><time>2022-02-05T16:57:16Z</time></trkpt>
<trkpt lat="46.190836" lon="11.890574"><ele>1245.24</ele><time>2022-02-05T16:57:17Z</time></trkpt>
<trkpt lat="46.190751" lon="11.890565"><ele>1245.41</ele><time>2022-02-05T16:57:19Z</time></trkpt>
<trkpt lat="46.190675" lon="11.890513"><ele>1245.33</ele><time>2022-02-05T16:57:21Z</time></trkpt>
<trkpt lat="46.190618" lon="11.890423"><ele>1244.93</ele><time>2022-02-05T16:57:23Z</time></trkpt>
<trkpt lat="46.190582" lon="11.890315"><ele>1244.26</ele><time>2022-02-05T16:57:25Z</time></trkpt>
<trkpt lat="46.190549" lon="11.889818"><ele>1238.09</ele><time>2022-02-05T16:57:26Z</time></trkpt>
<trkpt lat="46.190511" lon="11.8897"><ele>1237.29</ele><time>2022-02-05T16:57:28Z</time></trkpt>
<trkpt lat="46.190477" lon="11.889657"><ele>1237.43</ele><time>2022-02-05T16:57:30Z</time></trkpt>
<trkpt lat="46.190439" lon="11.889635"><ele>1237.58</ele><time>2022-02-05T16:57:32Z</time></trkpt>
<trkpt lat="46.190344" lon="11.889633"><ele>1238.03</ele><time>2022-02-05T16:57:34Z</time></trkpt>
<trkpt lat="46.189922" lon="11.889791"><ele>1243.97</ele><time>2022-02-05T16:57:35Z</time></trkpt>
<trkpt lat="46.189848" lon="11.889783"><ele>1246.37</ele><time>2022-02-05T16:57:37Z</time></trkpt>
<trkpt lat="46.189783" lon="11.889739"><ele>1247.48</ele><time>2022-02-05T16:57:39Z</time></trkpt>
<trkpt lat="46.189732" lon="11.889656"><ele>1247.52</ele><time>2022-02-05T16:57:41Z</time></trkpt>
<trkpt lat="46.189566" lon="11.889161"><ele>1242.83</ele><time>2022-02-05T16:57:43Z</time></trkpt>
<trkpt lat="46.189423" lon="11.888543"><ele>1226.62</ele><time>2022-02-05T16:57:44Z</time></trkpt>
<trkpt lat="46.189293" lon="11.887705"><ele>1224.52</ele><time>2022-02-05T16:57:46Z</time></trkpt>
<trkpt lat="46.189256" lon="11.88754"><ele>1221.81</ele><time>2022-02-05T16:57:48Z</time></trkpt>
<trkpt lat="46.189144" lon="11.887228"><ele>1214.63</ele><time>2022-02-05T16:57:50Z</time></trkpt>
<trkpt lat="46.18899" lon="11.886954"><ele>1217.22</ele><time>2022-02-05T16:57:52Z</time></trkpt>
<trkpt lat="46.187994" lon="11.885481"><ele>1203.45</ele><time>2022-02-05T16:57:53Z</time></trkpt>
<trkpt lat="46.1874" lon="11.884635"><ele>1187.43</ele><time>2022-02-05T16:57:55Z</time></trkpt>
<trkpt lat="46.187257" lon="11.884287"><ele>1181.24</ele><time>2022-02-05T16:57:57Z</time></trkpt>
<trkpt lat="46.187154" lon="11.883977"><ele>1179.96</ele><time>2022-02-05T16:57:59Z</time></trkpt>
<trkpt lat="46.186827" lon="11.882799"><ele>1177.14</ele><time>2022-02-05T16:58:01Z</time></trkpt>
<trkpt lat="46.185463" lon="11.878924"><ele>1146.75</ele><time>2022-02-05T16:58:02Z</time></trkpt>
<trkpt lat="46.185374" lon="11.878591"><ele>1146.93</ele><time>2022-02-05T16:58:04Z</time></trkpt>
<trkpt lat="46.185288" lon="11.877934"><ele>1140.16</ele><time>2022-02-05T16:58:06Z</time></trkpt>
<trkpt lat="46.185162" lon="11.876604"><ele>1128.05</ele><time>2022-02-05T16:58:08Z</time></trkpt>
<trkpt lat="46.184971" lon="11.875284"><ele>1111.46</ele><time>2022-02-05T16:58:10Z</time></trkpt>
<trkpt lat="46.184966" lon="11.874943"><ele>1110.0</ele><time>2022-02-05T16:58:11Z</time></trkpt>
<trkpt lat="46.185014" lon="11.874631"><ele>1108.33</ele><time>2022-02-05T16:58:13Z</time></trkpt>
<trkpt lat="46.185066" lon="11.874489"><ele>1108.12</ele><time>2022-02-05T16:58:15Z</time></trkpt>
<trkpt lat="46.185205" lon="11.874247"><ele>1105.71</ele><time>2022-02-05T16:58:17Z</time></trkpt>
<trkpt lat="46.185656" lon="11.873615"><ele>1101.34</ele><time>2022-02-05T16:58:19Z</time></trkpt>
<trkpt lat="46.185825" lon="11.873335"><ele>1104.83</ele><time>2022-02-05T16:58:20Z</time></trkpt>
<trkpt lat="46.185922" lon="11.873099"><ele>1107.64</ele><time>2022-02-05T16:58:22Z</time></trkpt>
<trkpt lat="46.185981" lon="11.872779"><ele>1109.13</ele><time>2022-02-05T16:58:24Z</time></trkpt>
<trkpt lat="46.185994" lon="11.872618"><ele>1108.07</ele><time>2022-02-05T16:58:26Z</time></trkpt>
<trkpt lat="46.185986" lon="11.872462"><ele>1106.82</ele><time>2022-02-05T16:58:28Z</time></trkpt>
<trkpt lat="46.185851" lon="11.871595"><ele>1100.81</ele><time>2022-02-05T16:58:29Z</time></trkpt>
<trkpt lat="46.18585" lon="11.871339"><ele>1095.35</ele><time>2022-02-05T16:58:31Z</time></trkpt>
<trkpt lat="46.185893" lon="11.871096"><ele>1091.37</ele><time>2022-02-05T16:58:33Z</time></trkpt>
<trkpt lat="46.186016" lon="11.870738"><ele>1091.35</ele><time>2022-02-05T16:58:35Z</time></trkpt>
<trkpt lat="46.186074" lon="11.870625"><ele>1091.79</ele><time>2022-02-05T16:58:37Z</time></trkpt>
<trkpt lat="46.186263" lon="11.870352"><ele>1095.97</ele><time>2022-02-05T16:58:38Z</time></trkpt>
<trkpt lat="46.186313" lon="11.870255"><ele>1097.63</ele><time>2022-02-05T16:58:40Z</time></trkpt>
<trkpt lat="46.186334" lon="11.870143"><ele>1097.7</ele><time>2022-02-05T16:58:42Z</time></trkpt>
<trkpt lat="46.186318" lon="11.870031"><ele>1095.5</ele><time>2022-02-05T16:58:44Z</time></trkpt>
<trkpt lat="46.18627" lon="11.869943"><ele>1091.09</ele><time>2022-02-05T16:58:45Z</time></trkpt>
<trkpt lat="46.186198" lon="11.869895"><ele>1085.97</ele><time>2022-02-05T16:58:47Z</time></trkpt>
<trkpt lat="46.186114" lon="11.869882"><ele>1080.73</ele><time>2022-02-05T16:58:49Z</time></trkpt>
<trkpt lat="46.185852" lon="11.8699"><ele>1078.1</ele><time>2022-02-05T16:58:51Z</time></trkpt>
<trkpt lat="46.185768" lon="11.869887"><ele>1081.46</ele><time>2022-02-05T16:58:53Z</time></trkpt>
<trkpt lat="46.185699" lon="11.869842"><ele>1084.77</ele><time>2022-02-05T16:58:54Z</time></trkpt>
<trkpt lat="46.185662" lon="11.86976"><ele>1085.73</ele><time>2022-02-05T16:58:56Z</time></trkpt>
<trkpt lat="46.185653" lon="11.86966"><ele>1086.19</ele><time>2022-02-05T16:58:58Z</time></trkpt>
<trkpt lat="46.185672" lon="11.869561"><ele>1085.7</ele><time>2022-02-05T16:59:00Z</time></trkpt>
<trkpt lat="46.185719" lon="11.869485"><ele>1083.2</ele><time>2022-02-05T16:59:02Z</time></trkpt>
<trkpt lat="46.185788" lon="11.869447"><ele>1078.95</ele><time>2022-02-05T16:59:03Z</time></trkpt>
<trkpt lat="46.186099" lon="11.869437"><ele>1079.69</ele><time>2022-02-05T16:59:05Z</time></trkpt>
<trkpt lat="46.186173" lon="11.869402"><ele>1080.88</ele><time>2022-02-05T16:59:07Z</time></trkpt>
<trkpt lat="46.186232" lon="11.86933"><ele>1081.35</ele><time>2022-02-05T16:59:09Z</time></trkpt>
<trkpt lat="46.18627" lon="11.869226"><ele>1080.98</ele><time>2022-02-05T16:59:11Z</time></trkpt>
<trkpt lat="46.186322" lon="11.868677"><ele>1068.57</ele><time>2022-02-05T16:59:12Z</time></trkpt>
<trkpt lat="46.186745" lon="11.867439"><ele>1055.09</ele><time>2022-02-05T16:59:14Z</time></trkpt>
<trkpt lat="46.186902" lon="11.866936"><ele>1050.86</ele><time>2022-02-05T16:59:16Z</time></trkpt>
<trkpt lat="46.186987" lon="11.866608"><ele>1048.54</ele><time>2022-02-05T16:59:18Z</time></trkpt>
<trkpt lat="46.187059" lon="11.866268"><ele>1047.91</ele><time>2022-02-05T16:59:20Z</time></trkpt>
<trkpt lat="46.187122" lon="11.865499"><ele>1040.47</ele><time>2022-02-05T16:59:21Z</time></trkpt>
<trkpt lat="46.187155" lon="11.865315"><ele>1037.75</ele><time>2022-02-05T16:59:23Z</time></trkpt>
<trkpt lat="46.187243" lon="11.865155"><ele>1035.73</ele><time>2022-02-05T16:59:25Z</time></trkpt>
<trkpt lat="46.187506" lon="11.865035"><ele>1037.12</ele><time>2022-02-05T16:59:27Z</time></trkpt>
<trkpt lat="46.187733" lon="11.864802"><ele>1034.0</ele><time>2022-02-05T16:59:29Z</time></trkpt>
<trkpt lat="46.187932" lon="11.864665"><ele>1029.31</ele><time>2022-02-05T16:59:30Z</time></trkpt>
<trkpt lat="46.188035" lon="11.864619"><ele>1027.36</ele><time>2022-02-05T16:59:32Z</time></trkpt>
<trkpt lat="46.188351" lon="11.8646"><ele>1026.29</ele><time>2022-02-05T16:59:34Z</time></trkpt>
<trkpt lat="46.188454" lon="11.864571"><ele>1025.99</ele><time>2022-02-05T16:59:36Z</time></trkpt>
<trkpt lat="46.188982" lon="11.864348"><ele>1027.35</ele><time>2022-02-05T16:59:38Z</time></trkpt>
<trkpt lat="46.189159" lon="11.864206"><ele>1025.76</ele><time>2022-02-05T16:59:39Z</time></trkpt>
<trkpt lat="46.189191" lon="11.864085"><ele>1023.54</ele><time>2022-02-05T16:59:41Z</time></trkpt>
<trkpt lat="46.18918" lon="11.864006"><ele>1021.26</ele><time>2022-02-05T16:59:43Z</time></trkpt>
<trkpt lat="46.189128" lon="11.863952"><ele>1019.29</ele><time>2022-02-05T16:59:45Z</time></trkpt>
<trkpt lat="46.18905" lon="11.863929"><ele>1018.11</ele><time>2022-02-05T16:59:47Z</time></trkpt>
<trkpt lat="46.188679" lon="11.864006"><ele>1019.4</ele><time>2022-02-05T16:59:48Z</time></trkpt>
<trkpt lat="46.188616" lon="11.863953"><ele>1018.9</ele><time>2022-02-05T16:59:50Z</time></trkpt>
<trkpt lat="46.188593" lon="11.863865"><ele>1017.56</ele><time>2022-02-05T16:59:52Z</time></trkpt>
<trkpt lat="46.188601" lon="11.863804"><ele>1016.47</ele><time>2022-02-05T16:59:54Z</time></trkpt>
<trkpt lat="46.188631" lon="11.863753"><ele>1015.43</ele><time>2022-02-05T16:59:56Z</time></trkpt>
<trkpt lat="46.188863" lon="11.863538"><ele>1011.25</ele><time>2022-02-05T16:59:57Z</time></trkpt>
<trkpt lat="46.18894" lon="11.863433"><ele>1010.08</ele><time>2022-02-05T16:59:59Z</time></trkpt>
<trkpt lat="46.188958" lon="11.863366"><ele>1009.35</ele><time>2022-02-05T17:00:01Z</time></trkpt>
<trkpt lat="46.188963" lon="11.862931"><ele>1004.84</ele><time>2022-02-05T17:00:03Z</time></trkpt>
<trkpt lat="46.18892" lon="11.862337"><ele>993.98</ele><time>2022-02-05T17:00:05Z</time></trkpt>
<trkpt lat="46.188941" lon="11.86201"><ele>990.27</ele><time>2022-02-05T17:00:06Z</time></trkpt>
<trkpt lat="46.189044" lon="11.861731"><ele>988.61</ele><time>2022-02-05T17:00:08Z</time></trkpt>
<trkpt lat="46.189115" lon="11.861635"><ele>987.68</ele><time>2022-02-05T17:00:10Z</time></trkpt>
<trkpt lat="46.189182" lon="11.86158"><ele>987.1</ele><time>2022-02-05T17:00:12Z</time></trkpt>
<trkpt lat="46.189358" lon="11.861498"><ele>986.45</ele><time>2022-02-05T17:00:14Z</time></trkpt>
<trkpt lat="46.189444" lon="11.861495"><ele>986.52</ele><time>2022-02-05T17:00:15Z</time></trkpt>
<trkpt lat="46.189766" lon="11.861576"><ele>990.63</ele><time>2022-02-05T17:00:17Z</time></trkpt>
<trkpt lat="46.189823" lon="11.861565"><ele>990.77</ele><time>2022-02-05T17:00:19Z</time></trkpt>
<trkpt lat="46.18986" lon="11.86155"><ele>990.67</ele><time>2022-02-05T17:00:21Z</time></trkpt>
<trkpt lat="46.189891" lon="11.861486"><ele>989.58</ele><time>2022-02-05T17:00:23Z</time></trkpt>
<trkpt lat="46.189895" lon="11.86142"><ele>988.25</ele><time>2022-02-05T17:00:24Z</time></trkpt>
<trkpt lat="46.189875" lon="11.861368"><ele>987.31</ele><time>2022-02-05T17:00:26Z</time></trkpt>
<trkpt lat="46.189807" lon="11.861292"><ele>986.4</ele><time>2022-02-05T17:00:28Z</time></trkpt>
<trkpt lat="46.189531" lon="11.861133"><ele>984.41</ele><time>2022-02-05T17:00:30Z</time></trkpt>
<trkpt lat="46.189148" lon="11.860858"><ele>983.73</ele><time>2022-02-05T17:00:32Z</time></trkpt>
<trkpt lat="46.189019" lon="11.860824"><ele>982.39</ele><time>2022-02-05T17:00:33Z</time></trkpt>
<trkpt lat="46.188709" lon="11.860822"><ele>979.61</ele><time>2022-02-05T17:00:35Z</time></trkpt>
<trkpt lat="46.188645" lon="11.8608"><ele>978.91</ele><time>2022-02-05T17:00:37Z</time></trkpt>
<trkpt lat="46.188514" lon="11.860662"><ele>976.02</ele><time>2022-02-05T17:00:39Z</time></trkpt>
<trkpt lat="46.188225" lon="11.860259"><ele>962.66</ele><time>2022-02-05T17:00:41Z</time></trkpt>
<trkpt lat="46.188158" lon="11.860188"><ele>959.95</ele><time>2022-02-05T17:00:42Z</time></trkpt>
<trkpt lat="46.188076" lon="11.860142"><ele>957.79</ele><time>2022-02-05T17:00:44Z</time></trkpt>
<trkpt lat="46.187973" lon="11.860147"><ele>956.29</ele><time>2022-02-05T17:00:46Z</time></trkpt>
<trkpt lat="46.187606" lon="11.860318"><ele>956.13</ele><time>2022-02-05T17:00:48Z</time></trkpt>
<trkpt lat="46.1875" lon="11.86038"><ele>956.19</ele><time>2022-02-05T17:00:50Z</time></trkpt>
<trkpt lat="46.187187" lon="11.860651"><ele>950.61</ele><time>2022-02-05T17:00:51Z</time></trkpt>
<trkpt lat="46.187024" lon="11.860666"><ele>942.84</ele><time>2022-02-05T17:00:53Z</time></trkpt>
<trkpt lat="46.186846" lon="11.8606"><ele>936.15</ele><time>2022-02-05T17:00:55Z</time></trkpt>
<trkpt lat="46.186757" lon="11.860528"><ele>933.33</ele><time>2022-02-05T17:00:57Z</time></trkpt>
<trkpt lat="46.186603" lon="11.860332"><ele>936.4</ele><time>2022-02-05T17:00:59Z</time></trkpt>
<trkpt lat="46.18655" lon="11.860235"><ele>941.33</ele><time>2022-02-05T17:01:00Z</time></trkpt>
<trkpt lat="46.186511" lon="11.860105"><ele>943.66</ele><time>2022-02-05T17:01:02Z</time></trkpt>
<trkpt lat="46.186502" lon="11.8599"><ele>943.45</ele><time>2022-02-05T17:01:04Z</time></trkpt>
<trkpt lat="46.186531" lon="11.859731"><ele>941.24</ele><time>2022-02-05T17:01:06Z</time></trkpt>
<trkpt lat="46.186696" lon="11.859326"><ele>933.68</ele><time>2022-02-05T17:01:08Z</time></trkpt>
<trkpt lat="46.187142" lon="11.858614"><ele>915.89</ele><time>2022-02-05T17:01:09Z</time></trkpt>
<trkpt lat="46.187297" lon="11.858186"><ele>910.35</ele><time>2022-02-05T17:01:11Z</time></trkpt>
<trkpt lat="46.187336" lon="11.857657"><ele>918.1</ele><time>2022-02-05T17:01:13Z</time></trkpt>
<trkpt lat="46.187365" lon="11.856582"><ele>905.92</ele><time>2022-02-05T17:01:15Z</time></trkpt>
<trkpt lat="46.187356" lon="11.856387"><ele>905.42</ele><time>2022-02-05T17:01:17Z</time></trkpt>
<trkpt lat="46.187299" lon="11.856056"><ele>905.89</ele><time>2022-02-05T17:01:18Z</time></trkpt>
<trkpt lat="46.187189" lon="11.855703"><ele>900.35</ele><time>2022-02-05T17:01:20Z</time></trkpt>
<trkpt lat="46.186934" lon="11.855011"><ele>886.56</ele><time>2022-02-05T17:01:22Z</time></trkpt>
<trkpt lat="46.186822" lon="11.854842"><ele>884.86</ele><time>2022-02-05T17:01:24Z</time></trkpt>
<trkpt lat="46.186576" lon="11.854542"><ele>881.77</ele><time>2022-02-05T17:01:26Z</time></trkpt>
<trkpt lat="46.185803" lon="11.853511"><ele>867.43</ele><time>2022-02-05T17:01:27Z</time></trkpt>
<trkpt lat="46.185315" lon="11.852501"><ele>855.82</ele><time>2022-02-05T17:01:29Z</time></trkpt>
<trkpt lat="46.185308" lon="11.852435"><ele>854.7</ele><time>2022-02-05T17:01:31Z</time></trkpt>
<trkpt lat="46.18534" lon="11.85231"><ele>851.35</ele><time>2022-02-05T17:01:33Z</time></trkpt>
<trkpt lat="46.185391" lon="11.852265"><ele>849.28</ele><time>2022-02-05T17:01:35Z</time></trkpt>
<trkpt lat="46.185422" lon="11.85227"><ele>848.65</ele><time>2022-02-05T17:01:36Z</time></trkpt>
<trkpt lat="46.185981" lon="11.852996"><ele>843.22</ele><time>2022-02-05T17:01:38Z</time></trkpt>
<trkpt lat="46.186006" lon="11.85301"><ele>842.68</ele><time>2022-02-05T17:01:40Z</time></trkpt>
<trkpt lat="46.186056" lon="11.85299"><ele>840.07</ele><time>2022-02-05T17:01:42Z</time></trkpt>
<trkpt lat="46.186091" lon="11.852915"><ele>836.24</ele><time>2022-02-05T17:01:43Z</time></trkpt>
<trkpt lat="46.186065" lon="11.852748"><ele>832.26</ele><time>2022-02-05T17:01:45Z</time></trkpt>
<trkpt lat="46.185877" lon="11.851936"><ele>827.3</ele><time>2022-02-05T17:01:47Z</time></trkpt>
<trkpt lat="46.185668" lon="11.851354"><ele>824.75</ele><time>2022-02-05T17:01:49Z</time></trkpt>
<trkpt lat="46.185525" lon="11.851116"><ele>824.36</ele><time>2022-02-05T17:01:51Z</time></trkpt>
<trkpt lat="46.185507" lon="11.851006"><ele>819.74</ele><time>2022-02-05T17:01:52Z</time></trkpt>
<trkpt lat="46.185524" lon="11.850931"><ele>815.32</ele><time>2022-02-05T17:01:54Z</time></trkpt>
<trkpt lat="46.185565" lon="11.850882"><ele>811.13</ele><time>2022-02-05T17:01:56Z</time></trkpt>
<trkpt lat="46.185603" lon="11.850881"><ele>809.78</ele><time>2022-02-05T17:01:58Z</time></trkpt>
<trkpt lat="46.185713" lon="11.850993"><ele>809.9</ele><time>2022-02-05T17:02:00Z</time></trkpt>
<trkpt lat="46.186183" lon="11.851597"><ele>806.86</ele><time>2022-02-05T17:02:01Z</time></trkpt>
<trkpt lat="46.18629" lon="11.851646"><ele>804.29</ele><time>2022-02-05T17:02:03Z</time></trkpt>
<trkpt lat="46.18634" lon="11.85164"><ele>802.53</ele><time>2022-02-05T17:02:05Z</time></trkpt>
<trkpt lat="46.186485" lon="11.851506"><ele>801.28</ele><time>2022-02-05T17:02:07Z</time></trkpt>
<trkpt lat="46.18657" lon="11.851365"><ele>801.89</ele><time>2022-02-05T17:02:09Z</time></trkpt>
<trkpt lat="46.186608" lon="11.851283"><ele>802.2</ele><time>2022-02-05T17:02:10Z</time></trkpt>
<trkpt lat="46.186631" lon="11.851184"><ele>802.43</ele><time>2022-02-05T17:02:12Z</time></trkpt>
<trkpt lat="46.186644" lon="11.850993"><ele>804.55</ele><time>2022-02-05T17:02:14Z</time></trkpt>
<trkpt lat="46.186621" lon="11.850796"><ele>806.83</ele><time>2022-02-05T17:02:16Z</time></trkpt>
<trkpt lat="46.186556" lon="11.850617"><ele>806.19</ele><time>2022-02-05T17:02:18Z</time></trkpt>
<trkpt lat="46.186098" lon="11.849723"><ele>797.67</ele><time>2022-02-05T17:02:19Z</time></trkpt>
<trkpt lat="46.185903" lon="11.849432"><ele>793.85</ele><time>2022-02-05T17:02:21Z</time></trkpt>
<trkpt lat="46.185681" lon="11.849156"><ele>791.02</ele><time>2022-02-05T17:02:23Z</time></trkpt>
<trkpt lat="46.185569" lon="11.848926"><ele>793.57</ele><time>2022-02-05T17:02:25Z</time></trkpt>
<trkpt lat="46.185147" lon="11.846229"><ele>786.91</ele><time>2022-02-05T17:02:27Z</time></trkpt>
<trkpt lat="46.185055" lon="11.845876"><ele>783.08</ele><time>2022-02-05T17:02:28Z</time></trkpt>
<trkpt lat="46.184956" lon="11.845659"><ele>779.48</ele><time>2022-02-05T17:02:30Z</time></trkpt>
<trkpt lat="46.18381" lon="11.84466"><ele>761.1</ele><time>2022-02-05T17:02:32Z</time></trkpt>
<trkpt lat="46.183271" lon="11.844015"><ele>758.78</ele><time>2022-02-05T17:02:34Z</time></trkpt>
<trkpt lat="46.181274" lon="11.841365"><ele>743.14</ele><time>2022-02-05T17:02:36Z</time></trkpt>
<trkpt lat="46.180993" lon="11.840797"><ele>743.17</ele><time>2022-02-05T17:02:37Z</time></trkpt>
<trkpt lat="46.180892" lon="11.840478"><ele>742.13</ele><time>2022-02-05T17:02:39Z</time></trkpt>
<trkpt lat="46.180282" lon="11.83795"><ele>736.39</ele><time>2022-02-05T17:02:41Z</time></trkpt>
<trkpt lat="46.180018" lon="11.837096"><ele>732.75</ele><time>2022-02-05T17:02:43Z</time></trkpt>
<trkpt lat="46.17964" lon="11.836061"><ele>729.16</ele><time>2022-02-05T17:02:45Z</time></trkpt>
<trkpt lat="46.179245" lon="11.834626"><ele>728.86</ele><time>2022-02-05T17:02:46Z</time></trkpt>
<trkpt lat="46.178827" lon="11.833564"><ele>728.6</ele><time>2022-02-05T17:02:48Z</time></trkpt>
<trkpt lat="46.178778" lon="11.833336"><ele>728.99</ele><time>2022-02-05T17:02:50Z</time></trkpt>
<trkpt lat="46.178794" lon="11.833142"><ele>728.84</ele><time>2022-02-05T17:02:52Z</time></trkpt>
<trkpt lat="46.178845" lon="11.83287"><ele>728.35</ele><time>2022-02-05T17:02:54Z</time></trkpt>
<trkpt lat="46.178948" lon="11.832453"><ele>724.85</ele><time>2022-02-05T17:02:56Z</time></trkpt>
<trkpt lat="46.178159" lon="11.832076"><ele>720.92</ele><time>2022-02-05T17:03:03Z</time></trkpt>
<trkpt lat="46.177966" lon="11.831962"><ele>720.22</ele><time>2022-02-05T17:03:09Z</time></trkpt>
<trkpt lat="46.177966" lon="11.831962"><ele>720.22</ele><time>2022-02-05T17:03:09Z</time></trkpt>
<trkpt lat="46.178159" lon="11.832076"><ele>720.92</ele><time>2022-02-05T17:03:12Z</time></trkpt>
<trkpt lat="46.178948" lon="11.832453"><ele>724.85</ele><time>2022-02-05T17:03:14Z</time></trkpt>
<trkpt lat="46.179156" lon="11.832505"><ele>723.17</ele><time>2022-02-05T17:03:16Z</time></trkpt>
<trkpt lat="46.179533" lon="11.832446"><ele>724.95</ele><time>2022-02-05T17:03:18Z</time></trkpt>
<trkpt lat="46.185818" lon="11.830773"><ele>747.4</ele><time>2022-02-05T17:03:21Z</time></trkpt>
<trkpt lat="46.187409" lon="11.830371"><ele>755.35</ele><time>2022-02-05T17:03:23Z</time></trkpt>
<trkpt lat="46.188573" lon="11.829739"><ele>758.71</ele><time>2022-02-05T17:03:25Z</time></trkpt>
<trkpt lat="46.188965" lon="11.829565"><ele>760.96</ele><time>2022-02-05T17:03:27Z</time></trkpt>
<trkpt lat="46.189082" lon="11.829514"><ele>762.29</ele><time>2022-02-05T17:03:30Z</time></trkpt>
<trkpt lat="46.189773" lon="11.82898"><ele>761.21</ele><time>2022-02-05T17:03:32Z</time></trkpt>
<trkpt lat="46.189927" lon="11.828788"><ele>761.32</ele><time>2022-02-05T17:03:34Z</time></trkpt>
<trkpt lat="46.190012" lon="11.828579"><ele>760.05</ele><time>2022-02-05T17:03:36Z</time></trkpt>
<trkpt lat="46.190285" lon="11.827618"><ele>761.54</ele><time>2022-02-05T17:03:39Z</time></trkpt>
<trkpt lat="46.190311" lon="11.827531"><ele>761.76</ele><time>2022-02-05T17:03:41Z</time></trkpt>
<trkpt lat="46.190348" lon="11.827257"><ele>762.84</ele><time>2022-02-05T17:03:43Z</time></trkpt>
<trkpt lat="46.190341" lon="11.82715"><ele>763.26</ele><time>2022-02-05T17:03:45Z</time></trkpt>
<trkpt lat="46.190157" lon="11.826587"><ele>766.15</ele><time>2022-02-05T17:03:47Z</time></trkpt>
<trkpt lat="46.190144" lon="11.826411"><ele>769.09</ele><time>2022-02-05T17:03:50Z</time></trkpt>
<trkpt lat="46.190194" lon="11.826264"><ele>771.34</ele><time>2022-02-05T17:03:52Z</time></trkpt>
<trkpt lat="46.19032" lon="11.826131"><ele>773.29</ele><time>2022-02-05T17:03:54Z</time></trkpt>
<trkpt lat="46.190488" lon="11.826083"><ele>773.3</ele><time>2022-02-05T17:03:56Z</time></trkpt>
<trkpt lat="46.190767" lon="11.826039"><ele>777.73</ele><time>2022-02-05T17:03:59Z</time></trkpt>
<trkpt lat="46.19085" lon="11.825942"><ele>781.4</ele><time>2022-02-05T17:04:01Z</time></trkpt>
<trkpt lat="46.190863" lon="11.825838"><ele>784.2</ele><time>2022-02-05T17:04:03Z</time></trkpt>
<trkpt lat="46.190839" lon="11.825733"><ele>786.96</ele><time>2022-02-05T17:04:05Z</time></trkpt>
<trkpt lat="46.190706" lon="11.825627"><ele>788.9</ele><time>2022-02-05T17:04:08Z</time></trkpt>
<trkpt lat="46.19033" lon="11.825404"><ele>791.84</ele><time>2022-02-05T17:04:10Z</time></trkpt>
<trkpt lat="46.190018" lon="11.825314"><ele>791.18</ele><time>2022-02-05T17:04:12Z</time></trkpt>
<trkpt lat="46.189638" lon="11.825417"><ele>790.5</ele><time>2022-02-05T17:04:14Z</time></trkpt>
<trkpt lat="46.18946" lon="11.825518"><ele>790.12</ele><time>2022-02-05T17:04:17Z</time></trkpt>
<trkpt lat="46.189337" lon="11.825712"><ele>789.24</ele><time>2022-02-05T17:04:19Z</time></trkpt>
<trkpt lat="46.189252" lon="11.825962"><ele>786.99</ele><time>2022-02-05T17:04:21Z</time></trkpt>
<trkpt lat="46.189135" lon="11.826212"><ele>785.69</ele><time>2022-02-05T17:04:23Z</time></trkpt>
<trkpt lat="46.188857" lon="11.826423"><ele>789.38</ele><time>2022-02-05T17:04:25Z</time></trkpt>
<trkpt lat="46.1885" lon="11.826638"><ele>787.57</ele><time>2022-02-05T17:04:28Z</time></trkpt>
<trkpt lat="46.188446" lon="11.826591"><ele>789.26</ele><time>2022-02-05T17:04:30Z</time></trkpt>
<trkpt lat="46.188426" lon="11.826518"><ele>791.42</ele><time>2022-02-05T17:04:32Z</time></trkpt>
<trkpt lat="46.188475" lon="11.826414"><ele>793.78</ele><time>2022-02-05T17:04:34Z</time></trkpt>
<trkpt lat="46.188852" lon="11.826006"><ele>796.0</ele><time>2022-02-05T17:04:37Z</time></trkpt>
<trkpt lat="46.189185" lon="11.825584"><ele>796.73</ele><time>2022-02-05T17:04:39Z</time></trkpt>
<trkpt lat="46.189218" lon="11.825504"><ele>797.91</ele><time>2022-02-05T17:04:41Z</time></trkpt>
<trkpt lat="46.189228" lon="11.825394"><ele>800.95</ele><time>2022-02-05T17:04:43Z</time></trkpt>
<trkpt lat="46.189207" lon="11.82497"><ele>808.78</ele><time>2022-02-05T17:04:46Z</time></trkpt>
<trkpt lat="46.18924" lon="11.824758"><ele>809.95</ele><time>2022-02-05T17:04:48Z</time></trkpt>
<trkpt lat="46.189357" lon="11.824477"><ele>813.03</ele><time>2022-02-05T17:04:50Z</time></trkpt>
<trkpt lat="46.189465" lon="11.824352"><ele>815.22</ele><time>2022-02-05T17:04:52Z</time></trkpt>
<trkpt lat="46.18956" lon="11.824314"><ele>817.32</ele><time>2022-02-05T17:04:54Z</time></trkpt>
<trkpt lat="46.189744" lon="11.82434"><ele>818.68</ele><time>2022-02-05T17:04:57Z</time></trkpt>
<trkpt lat="46.190788" lon="11.824881"><ele>814.38</ele><time>2022-02-05T17:04:59Z</time></trkpt>
<trkpt lat="46.191336" lon="11.824969"><ele>818.09</ele><time>2022-02-05T17:05:01Z</time></trkpt>
<trkpt lat="46.191832" lon="11.824957"><ele>820.18</ele><time>2022-02-05T17:05:03Z</time></trkpt>
<trkpt lat="46.19247" lon="11.824769"><ele>826.34</ele><time>2022-02-05T17:05:06Z</time></trkpt>
<trkpt lat="46.192934" lon="11.824478"><ele>828.52</ele><time>2022-02-05T17:05:08Z</time></trkpt>
<trkpt lat="46.193385" lon="11.824019"><ele>829.3</ele><time>2022-02-05T17:05:10Z</time></trkpt>
<trkpt lat="46.193447" lon="11.823837"><ele>831.2</ele><time>2022-02-05T17:05:12Z</time></trkpt>
<trkpt lat="46.193397" lon="11.823369"><ele>839.27</ele><time>2022-02-05T17:05:15Z</time></trkpt>
<trkpt lat="46.193437" lon="11.822791"><ele>849.09</ele><time>2022-02-05T17:05:17Z</time></trkpt>
<trkpt lat="46.193503" lon="11.822619"><ele>850.82</ele><time>2022-02-05T17:05:19Z</time></trkpt>
<trkpt lat="46.193618" lon="11.822467"><ele>850.52</ele><time>2022-02-05T17:05:21Z</time></trkpt>
<trkpt lat="46.193706" lon="11.82242"><ele>852.03</ele><time>2022-02-05T17:05:24Z</time></trkpt>
<trkpt lat="46.19386" lon="11.822442"><ele>853.01</ele><time>2022-02-05T17:05:26Z</time></trkpt>
<trkpt lat="46.193967" lon="11.82254"><ele>851.92</ele><time>2022-02-05T17:05:28Z</time></trkpt>
<trkpt lat="46.194106" lon="11.822799"><ele>850.07</ele><time>2022-02-05T17:05:30Z</time></trkpt>
<trkpt lat="46.194423" lon="11.823504"><ele>846.55</ele><time>2022-02-05T17:05:32Z</time></trkpt>
<trkpt lat="46.194586" lon="11.823549"><ele>844.95</ele><time>2022-02-05T17:05:35Z</time></trkpt>
<trkpt lat="46.19481" lon="11.823476"><ele>848.01</ele><time>2022-02-05T17:05:37Z</time></trkpt>
<trkpt lat="46.195319" lon="11.823153"><ele>854.09</ele><time>2022-02-05T17:05:39Z</time></trkpt>
<trkpt lat="46.195912" lon="11.822838"><ele>859.66</ele><time>2022-02-05T17:05:41Z</time></trkpt>
<trkpt lat="46.196387" lon="11.822321"><ele>870.2</ele><time>2022-02-05T17:05:44Z</time></trkpt>
<trkpt lat="46.196637" lon="11.821847"><ele>873.94</ele><time>2022-02-05T17:05:46Z</time></trkpt>
<trkpt lat="46.196682" lon="11.821698"><ele>875.27</ele><time>2022-02-05T17:05:48Z</time></trkpt>
<trkpt lat="46.19671" lon="11.821317"><ele>880.46</ele><time>2022-02-05T17:05:50Z</time></trkpt>
<trkpt lat="46.196746" lon="11.821124"><ele>882.29</ele><time>2022-02-05T17:05:53Z</time></trkpt>
<trkpt lat="46.196815" lon="11.820999"><ele>883.34</ele><time>2022-02-05T17:05:55Z</time></trkpt>
<trkpt lat="46.19691" lon="11.82093"><ele>883.28</ele><time>2022-02-05T17:05:57Z</time></trkpt>
<trkpt lat="46.197021" lon="11.820903"><ele>883.73</ele><time>2022-02-05T17:05:59Z</time></trkpt>
<trkpt lat="46.197173" lon="11.820932"><ele>884.28</ele><time>2022-02-05T17:06:02Z</time></trkpt>
<trkpt lat="46.198046" lon="11.821224"><ele>883.7</ele><time>2022-02-05T17:06:04Z</time></trkpt>
<trkpt lat="46.198382" lon="11.821268"><ele>884.15</ele><time>2022-02-05T17:06:06Z</time></trkpt>
<trkpt lat="46.198906" lon="11.820983"><ele>884.24</ele><time>2022-02-05T17:06:08Z</time></trkpt>
<trkpt lat="46.199667" lon="11.820722"><ele>901.0</ele><time>2022-02-05T17:06:10Z</time></trkpt>
<trkpt lat="46.200455" lon="11.82038"><ele>915.23</ele><time>2022-02-05T17:06:13Z</time></trkpt>
<trkpt lat="46.201014" lon="11.820279"><ele>909.55</ele><time>2022-02-05T17:06:15Z</time></trkpt>
<trkpt lat="46.2015" lon="11.820525"><ele>908.34</ele><time>2022-02-05T17:06:17Z</time></trkpt>
<trkpt lat="46.201727" lon="11.820513"><ele>908.81</ele><time>2022-02-05T17:06:19Z</time></trkpt>
<trkpt lat="46.201931" lon="11.820414"><ele>910.67</ele><time>2022-02-05T17:06:22Z</time></trkpt>
<trkpt lat="46.202287" lon="11.82014"><ele>916.98</ele><time>2022-02-05T17:06:24Z</time></trkpt>
<trkpt lat="46.203078" lon="11.820002"><ele>923.93</ele><time>2022-02-05T17:06:26Z</time></trkpt>
<trkpt lat="46.203804" lon="11.819765"><ele>927.06</ele><time>2022-02-05T17:06:28Z</time></trkpt>
<trkpt lat="46.203924" lon="11.819623"><ele>927.57</ele><time>2022-02-05T17:06:31Z</time></trkpt>
<trkpt lat="46.204271" lon="11.818694"><ele>949.01</ele><time>2022-02-05T17:06:33Z</time></trkpt>
<trkpt lat="46.204339" lon="11.818612"><ele>952.11</ele><time>2022-02-05T17:06:35Z</time></trkpt>
<trkpt lat="46.204391" lon="11.818587"><ele>952.77</ele><time>2022-02-05T17:06:37Z</time></trkpt>
<trkpt lat="46.20444" lon="11.818595"><ele>951.87</ele><time>2022-02-05T17:06:39Z</time></trkpt>
<trkpt lat="46.204497" lon="11.81864"><ele>950.46</ele><time>2022-02-05T17:06:42Z</time></trkpt>
<trkpt lat="46.204815" lon="11.819034"><ele>939.71</ele><time>2022-02-05T17:06:44Z</time></trkpt>
<trkpt lat="46.204872" lon="11.819064"><ele>938.43</ele><time>2022-02-05T17:06:46Z</time></trkpt>
<trkpt lat="46.204956" lon="11.819022"><ele>940.26</ele><time>2022-02-05T17:06:48Z</time></trkpt>
<trkpt lat="46.205194" lon="11.818609"><ele>953.21</ele><time>2022-02-05T17:06:51Z</time></trkpt>
<trkpt lat="46.205344" lon="11.818497"><ele>955.14</ele><time>2022-02-05T17:06:53Z</time></trkpt>
<trkpt lat="46.205937" lon="11.81832"><ele>954.24</ele><time>2022-02-05T17:06:55Z</time></trkpt>
<trkpt lat="46.206072" lon="11.818226"><ele>953.81</ele><time>2022-02-05T17:06:57Z</time></trkpt>
<trkpt lat="46.20629" lon="11.817581"><ele>972.31</ele><time>2022-02-05T17:07:00Z</time></trkpt>
<trkpt lat="46.206306" lon="11.817048"><ele>984.63</ele><time>2022-02-05T17:07:02Z</time></trkpt>
<trkpt lat="46.206396" lon="11.816875"><ele>990.4</ele><time>2022-02-05T17:07:04Z</time></trkpt>
<trkpt lat="46.206537" lon="11.816801"><ele>992.41</ele><time>2022-02-05T17:07:06Z</time></trkpt>
<trkpt lat="46.206648" lon="11.816828"><ele>989.41</ele><time>2022-02-05T17:07:09Z</time></trkpt>
<trkpt lat="46.206734" lon="11.816954"><ele>981.07</ele><time>2022-02-05T17:07:11Z</time></trkpt>
<trkpt lat="46.20679" lon="11.817214"><ele>968.15</ele><time>2022-02-05T17:07:13Z</time></trkpt>
<trkpt lat="46.206875" lon="11.817391"><ele>963.21</ele><time>2022-02-05T17:07:15Z</time></trkpt>
<trkpt lat="46.207087" lon="11.817457"><ele>965.04</ele><time>2022-02-05T17:07:17Z</time></trkpt>
<trkpt lat="46.20776" lon="11.817246"><ele>982.69</ele><time>2022-02-05T17:07:20Z</time></trkpt>
<trkpt lat="46.208324" lon="11.81726"><ele>973.59</ele><time>2022-02-05T17:07:22Z</time></trkpt>
<trkpt lat="46.20859" lon="11.817332"><ele>976.28</ele><time>2022-02-05T17:07:24Z</time></trkpt>
<trkpt lat="46.20876" lon="11.817447"><ele>972.14</ele><time>2022-02-05T17:07:26Z</time></trkpt>
<trkpt lat="46.208951" lon="11.817476"><ele>974.98</ele><time>2022-02-05T17:07:29Z</time></trkpt>
<trkpt lat="46.209251" lon="11.817482"><ele>982.48</ele><time>2022-02-05T17:07:31Z</time></trkpt>
<trkpt lat="46.209446" lon="11.817432"><ele>981.93</ele><time>2022-02-05T17:07:33Z</time></trkpt>
<trkpt lat="46.209762" lon="11.817172"><ele>984.27</ele><time>2022-02-05T17:07:35Z</time></trkpt>
<trkpt lat="46.209916" lon="11.817182"><ele>982.71</ele><time>2022-02-05T17:07:38Z</time></trkpt>
<trkpt lat="46.210345" lon="11.817472"><ele>973.67</ele><time>2022-02-05T17:07:40Z</time></trkpt>
<trkpt lat="46.210628" lon="11.817444"><ele>974.7</ele><time>2022-02-05T17:07:42Z</time></trkpt>
<trkpt lat="46.210749" lon="11.81731"><ele>976.24</ele><time>2022-02-05T17:07:44Z</time></trkpt>
<trkpt lat="46.211118" lon="11.816832"><ele>980.37</ele><time>2022-02-05T17:07:47Z</time></trkpt>
<trkpt lat="46.211524" lon="11.816469"><ele>993.32</ele><time>2022-02-05T17:07:49Z</time></trkpt>
<trkpt lat="46.212632" lon="11.815886"><ele>1006.15</ele><time>2022-02-05T17:07:51Z</time></trkpt>
<trkpt lat="46.213234" lon="11.815609"><ele>1007.61</ele><time>2022-02-05T17:07:53Z</time></trkpt>
<trkpt lat="46.213589" lon="11.815309"><ele>1026.89</ele><time>2022-02-05T17:07:55Z</time></trkpt>
<trkpt lat="46.214127" lon="11.815184"><ele>1016.07</ele><time>2022-02-05T17:07:58Z</time></trkpt>
<trkpt lat="46.214638" lon="11.814814"><ele>1032.29</ele><time>2022-02-05T17:08:00Z</time></trkpt>
<trkpt lat="46.215139" lon="11.814767"><ele>1032.27</ele><time>2022-02-05T17:08:02Z</time></trkpt>
<trkpt lat="46.215654" lon="11.814661"><ele>1029.34</ele><time>2022-02-05T17:08:04Z</time></trkpt>
<trkpt lat="46.215808" lon="11.81456"><ele>1031.61</ele><time>2022-02-05T17:08:07Z</time></trkpt>
<trkpt lat="46.215941" lon="11.8144"><ele>1034.11</ele><time>2022-02-05T17:08:09Z</time></trkpt>
<trkpt lat="46.216295" lon="11.814247"><ele>1033.88</ele><time>2022-02-05T17:08:11Z</time></trkpt>
<trkpt lat="46.217979" lon="11.812812"><ele>1061.39</ele><time>2022-02-05T17:08:13Z</time></trkpt>
<trkpt lat="46.218559" lon="11.812473"><ele>1055.94</ele><time>2022-02-05T17:08:16Z</time></trkpt>
<trkpt lat="46.219054" lon="11.812047"><ele>1078.39</ele><time>2022-02-05T17:08:18Z</time></trkpt>
<trkpt lat="46.219291" lon="11.812016"><ele>1074.77</ele><time>2022-02-05T17:08:20Z</time></trkpt>
<trkpt lat="46.2196" lon="11.812075"><ele>1063.51</ele><time>2022-02-05T17:08:22Z</time></trkpt>
<trkpt lat="46.219781" lon="11.812004"><ele>1065.67</ele><time>2022-02-05T17:08:24Z</time></trkpt>
<trkpt lat="46.220304" lon="11.811274"><ele>1091.14</ele><time>2022-02-05T17:08:27Z</time></trkpt>
<trkpt lat="46.220471" lon="11.811151"><ele>1096.13</ele><time>2022-02-05T17:08:29Z</time></trkpt>
<trkpt lat="46.220593" lon="11.811171"><ele>1095.08</ele><time>2022-02-05T17:08:31Z</time></trkpt>
<trkpt lat="46.220919" lon="11.811378"><ele>1076.25</ele><time>2022-02-05T17:08:33Z</time></trkpt>
<trkpt lat="46.221112" lon="11.811349"><ele>1072.57</ele><time>2022-02-05T17:08:36Z</time></trkpt>
<trkpt lat="46.221919" lon="11.810765"><ele>1080.09</ele><time>2022-02-05T17:08:38Z</time></trkpt>
<trkpt lat="46.222663" lon="11.809886"><ele>1094.49</ele><time>2022-02-05T17:08:40Z</time></trkpt>
<trkpt lat="46.222706" lon="11.809699"><ele>1096.55</ele><time>2022-02-05T17:08:42Z</time></trkpt>
<trkpt lat="46.22273" lon="11.809471"><ele>1099.25</ele><time>2022-02-05T17:08:45Z</time></trkpt>
<trkpt lat="46.222792" lon="11.808489"><ele>1104.66</ele><time>2022-02-05T17:08:47Z</time></trkpt>
<trkpt lat="46.222881" lon="11.807766"><ele>1117.78</ele><time>2022-02-05T17:08:49Z</time></trkpt>
<trkpt lat="46.223009" lon="11.807172"><ele>1116.06</ele><time>2022-02-05T17:08:51Z</time></trkpt>
<trkpt lat="46.223068" lon="11.807103"><ele>1116.68</ele><time>2022-02-05T17:08:54Z</time></trkpt>
<trkpt lat="46.22318" lon="11.807049"><ele>1117.43</ele><time>2022-02-05T17:08:56Z</time></trkpt>
<trkpt lat="46.223592" lon="11.806975"><ele>1113.22</ele><time>2022-02-05T17:08:58Z</time></trkpt>
<trkpt lat="46.223735" lon="11.806917"><ele>1114.69</ele><time>2022-02-05T17:09:00Z</time></trkpt>
<trkpt lat="46.223827" lon="11.806859"><ele>1115.23</ele><time>2022-02-05T17:09:02Z</time></trkpt>
<trkpt lat="46.224002" lon="11.80667"><ele>1121.24</ele><time>2022-02-05T17:09:05Z</time></trkpt>
<trkpt lat="46.224077" lon="11.806638"><ele>1125.61</ele><time>2022-02-05T17:09:07Z</time></trkpt>
<trkpt lat="46.22422" lon="11.806609"><ele>1129.66</ele><time>2022-02-05T17:09:09Z</time></trkpt>
<trkpt lat="46.224348" lon="11.806649"><ele>1129.68</ele><time>2022-02-05T17:09:11Z</time></trkpt>
<trkpt lat="46.224422" lon="11.806784"><ele>1130.46</ele><time>2022-02-05T17:09:14Z</time></trkpt>
<trkpt lat="46.224439" lon="11.806859"><ele>1131.25</ele><time>2022-02-05T17:09:16Z</time></trkpt>
<trkpt lat="46.224439" lon="11.806994"><ele>1130.73</ele><time>2022-02-05T17:09:18Z</time></trkpt>
<trkpt lat="46.224339" lon="11.807544"><ele>1109.78</ele><time>2022-02-05T17:09:20Z</time></trkpt>
<trkpt lat="46.224355" lon="11.807645"><ele>1107.65</ele><time>2022-02-05T17:09:23Z</time></trkpt>
<trkpt lat="46.224394" lon="11.807724"><ele>1107.54</ele><time>2022-02-05T17:09:25Z</time></trkpt>
<trkpt lat="46.224497" lon="11.807869"><ele>1112.94</ele><time>2022-02-05T17:09:27Z</time></trkpt>
<trkpt lat="46.224548" lon="11.807887"><ele>1115.04</ele><time>2022-02-05T17:09:29Z</time></trkpt>
<trkpt lat="46.224669" lon="11.807832"><ele>1119.44</ele><time>2022-02-05T17:09:32Z</time></trkpt>
<trkpt lat="46.224839" lon="11.807506"><ele>1128.17</ele><time>2022-02-05T17:09:34Z</time></trkpt>
<trkpt lat="46.225337" lon="11.806835"><ele>1117.38</ele><time>2022-02-05T17:09:36Z</time></trkpt>
<trkpt lat="46.225475" lon="11.806721"><ele>1119.78</ele><time>2022-02-05T17:09:38Z</time></trkpt>
<trkpt lat="46.22564" lon="11.806741"><ele>1124.34</ele><time>2022-02-05T17:09:40Z</time></trkpt>
<trkpt lat="46.225763" lon="11.806869"><ele>1129.21</ele><time>2022-02-05T17:09:43Z</time></trkpt>
<trkpt lat="46.225825" lon="11.807025"><ele>1129.69</ele><time>2022-02-05T17:09:45Z</time></trkpt>
<trkpt lat="46.226204" lon="11.808802"><ele>1112.21</ele><time>2022-02-05T17:09:47Z</time></trkpt>
<trkpt lat="46.22638" lon="11.809"><ele>1113.52</ele><time>2022-02-05T17:09:49Z</time></trkpt>
<trkpt lat="46.226593" lon="11.809082"><ele>1114.6</ele><time>2022-02-05T17:09:52Z</time></trkpt>
<trkpt lat="46.226942" lon="11.809076"><ele>1117.63</ele><time>2022-02-05T17:09:54Z</time></trkpt>
<trkpt lat="46.22705" lon="11.809011"><ele>1118.5</ele><time>2022-02-05T17:09:56Z</time></trkpt>
<trkpt lat="46.22759" lon="11.808507"><ele>1135.33</ele><time>2022-02-05T17:09:58Z</time></trkpt>
<trkpt lat="46.227736" lon="11.808439"><ele>1139.72</ele><time>2022-02-05T17:10:01Z</time></trkpt>
<trkpt lat="46.227836" lon="11.808464"><ele>1141.08</ele><time>2022-02-05T17:10:03Z</time></trkpt>
<trkpt lat="46.228077" lon="11.808713"><ele>1139.97</ele><time>2022-02-05T17:10:05Z</time></trkpt>
<trkpt lat="46.228276" lon="11.808844"><ele>1140.46</ele><time>2022-02-05T17:10:07Z</time></trkpt>
<trkpt lat="46.228466" lon="11.808878"><ele>1145.18</ele><time>2022-02-05T17:10:09Z</time></trkpt>
<trkpt lat="46.22872" lon="11.808871"><ele>1154.25</ele><time>2022-02-05T17:10:12Z</time></trkpt>
<trkpt lat="46.228952" lon="11.808828"><ele>1161.9</ele><time>2022-02-05T17:10:14Z</time></trkpt>
<trkpt lat="46.229181" lon="11.80874"><ele>1167.21</ele><time>2022-02-05T17:10:16Z</time></trkpt>
<trkpt lat="46.229385" lon="11.808695"><ele>1165.66</ele><time>2022-02-05T17:10:18Z</time></trkpt>
<trkpt lat="46.230508" lon="11.808791"><ele>1161.63</ele><time>2022-02-05T17:10:21Z</time></trkpt>
<trkpt lat="46.230777" lon="11.80878"><ele>1156.99</ele><time>2022-02-05T17:10:23Z</time></trkpt>
<trkpt lat="46.231025" lon="11.808647"><ele>1158.7</ele><time>2022-02-05T17:10:25Z</time></trkpt>
<trkpt lat="46.231146" lon="11.808542"><ele>1161.37</ele><time>2022-02-05T17:10:27Z</time></trkpt>
<trkpt lat="46.231226" lon="11.808406"><ele>1164.97</ele><time>2022-02-05T17:10:30Z</time></trkpt>
<trkpt lat="46.231633" lon="11.807517"><ele>1189.18</ele><time>2022-02-05T17:10:32Z</time></trkpt>
<trkpt lat="46.23169" lon="11.807483"><ele>1190.55</ele><time>2022-02-05T17:10:34Z</time></trkpt>
<trkpt lat="46.231759" lon="11.807479"><ele>1190.07</ele><time>2022-02-05T17:10:36Z</time></trkpt>
<trkpt lat="46.231862" lon="11.807528"><ele>1186.16</ele><time>2022-02-05T17:10:39Z</time></trkpt>
<trkpt lat="46.232107" lon="11.807748"><ele>1170.35</ele><time>2022-02-05T17:10:41Z</time></trkpt>
<trkpt lat="46.232278" lon="11.807832"><ele>1167.57</ele><time>2022-02-05T17:10:43Z</time></trkpt>
<trkpt lat="46.23245" lon="11.807869"><ele>1171.22</ele><time>2022-02-05T17:10:45Z</time></trkpt>
<trkpt lat="46.232713" lon="11.807828"><ele>1173.72</ele><time>2022-02-05T17:10:47Z</time></trkpt>
<trkpt lat="46.233307" lon="11.807616"><ele>1192.06</ele><time>2022-02-05T17:10:50Z</time></trkpt>
<trkpt lat="46.234408" lon="11.807766"><ele>1188.92</ele><time>2022-02-05T17:10:52Z</time></trkpt>
<trkpt lat="46.235183" lon="11.807588"><ele>1202.06</ele><time>2022-02-05T17:10:54Z</time></trkpt>
<trkpt lat="46.235404" lon="11.807605"><ele>1198.18</ele><time>2022-02-05T17:10:56Z</time></trkpt>
<trkpt lat="46.235625" lon="11.807721"><ele>1190.55</ele><time>2022-02-05T17:10:59Z</time></trkpt>
<trkpt lat="46.235686" lon="11.80773"><ele>1192.28</ele><time>2022-02-05T17:11:01Z</time></trkpt>
<trkpt lat="46.235735" lon="11.80771"><ele>1195.44</ele><time>2022-02-05T17:11:03Z</time></trkpt>
<trkpt lat="46.235752" lon="11.807674"><ele>1198.35</ele><time>2022-02-05T17:11:05Z</time></trkpt>
<trkpt lat="46.235742" lon="11.807578"><ele>1204.11</ele><time>2022-02-05T17:11:08Z</time></trkpt>
<trkpt lat="46.235669" lon="11.807507"><ele>1206.23</ele><time>2022-02-05T17:11:10Z</time></trkpt>
<trkpt lat="46.234949" lon="11.807315"><ele>1215.61</ele><time>2022-02-05T17:11:12Z</time></trkpt>
<trkpt lat="46.234775" lon="11.807318"><ele>1214.25</ele><time>2022-02-05T17:11:14Z</time></trkpt>
<trkpt lat="46.234445" lon="11.80737"><ele>1207.22</ele><time>2022-02-05T17:11:16Z</time></trkpt>
<trkpt lat="46.234396" lon="11.80734"><ele>1207.8</ele><time>2022-02-05T17:11:19Z</time></trkpt>
<trkpt lat="46.234378" lon="11.807244"><ele>1210.99</ele><time>2022-02-05T17:11:21Z</time></trkpt>
<trkpt lat="46.234401" lon="11.807176"><ele>1213.22</ele><time>2022-02-05T17:11:23Z</time></trkpt>
<trkpt lat="46.234526" lon="11.807106"><ele>1217.21</ele><time>2022-02-05T17:11:25Z</time></trkpt>
<trkpt lat="46.235736" lon="11.807159"><ele>1230.73</ele><time>2022-02-05T17:11:28Z</time></trkpt>
<trkpt lat="46.236038" lon="11.80723"><ele>1227.62</ele><time>2022-02-05T17:11:30Z</time></trkpt>
<trkpt lat="46.23634" lon="11.807265"><ele>1221.4</ele><time>2022-02-05T17:11:32Z</time></trkpt>
<trkpt lat="46.236501" lon="11.807242"><ele>1217.41</ele><time>2022-02-05T17:11:34Z</time></trkpt>
<trkpt lat="46.236635" lon="11.807188"><ele>1215.44</ele><time>2022-02-05T17:11:37Z</time></trkpt>
<trkpt lat="46.237044" lon="11.806678"><ele>1245.53</ele><time>2022-02-05T17:11:39Z</time></trkpt>
<trkpt lat="46.237114" lon="11.806621"><ele>1247.76</ele><time>2022-02-05T17:11:41Z</time></trkpt>
<trkpt lat="46.237273" lon="11.806576"><ele>1250.48</ele><time>2022-02-05T17:11:43Z</time></trkpt>
<trkpt lat="46.237833" lon="11.806788"><ele>1249.27</ele><time>2022-02-05T17:11:46Z</time></trkpt>
<trkpt lat="46.238041" lon="11.806712"><ele>1252.57</ele><time>2022-02-05T17:11:48Z</time></trkpt>
<trkpt lat="46.238568" lon="11.806267"><ele>1261.86</ele><time>2022-02-05T17:11:50Z</time></trkpt>
<trkpt lat="46.238924" lon="11.806316"><ele>1256.42</ele><time>2022-02-05T17:11:52Z</time></trkpt>
<trkpt lat="46.23931" lon="11.806251"><ele>1259.5</ele><time>2022-02-05T17:11:54Z</time></trkpt>
<trkpt lat="46.239614" lon="11.806289"><ele>1262.18</ele><time>2022-02-05T17:11:57Z</time></trkpt>
<trkpt lat="46.240456" lon="11.806595"><ele>1260.76</ele><time>2022-02-05T17:11:59Z</time></trkpt>
<trkpt lat="46.240635" lon="11.806598"><ele>1261.95</ele><time>2022-02-05T17:12:01Z</time></trkpt>
<trkpt lat="46.241172" lon="11.806302"><ele>1265.6</ele><time>2022-02-05T17:12:03Z</time></trkpt>
<trkpt lat="46.241434" lon="11.806269"><ele>1268.78</ele><time>2022-02-05T17:12:06Z</time></trkpt>
<trkpt lat="46.242013" lon="11.805967"><ele>1284.81</ele><time>2022-02-05T17:12:08Z</time></trkpt>
<trkpt lat="46.242202" lon="11.805907"><ele>1286.16</ele><time>2022-02-05T17:12:10Z</time></trkpt>
<trkpt lat="46.242289" lon="11.80582"><ele>1290.08</ele><time>2022-02-05T17:12:12Z</time></trkpt>
<trkpt lat="46.242261" lon="11.805679"><ele>1293.77</ele><time>2022-02-05T17:12:15Z</time></trkpt>
<trkpt lat="46.242111" lon="11.805681"><ele>1293.56</ele><time>2022-02-05T17:12:17Z</time></trkpt>
<trkpt lat="46.241235" lon="11.805872"><ele>1293.43</ele><time>2022-02-05T17:12:19Z</time></trkpt>
<trkpt lat="46.240749" lon="11.806198"><ele>1270.39</ele><time>2022-02-05T17:12:21Z</time></trkpt>
<trkpt lat="46.240223" lon="11.806138"><ele>1268.88</ele><time>2022-02-05T17:12:24Z</time></trkpt>
<trkpt lat="46.24016" lon="11.806086"><ele>1270.73</ele><time>2022-02-05T17:12:26Z</time></trkpt>
<trkpt lat="46.240137" lon="11.806028"><ele>1273.38</ele><time>2022-02-05T17:12:28Z</time></trkpt>
<trkpt lat="46.240146" lon="11.805946"><ele>1277.19</ele><time>2022-02-05T17:12:30Z</time></trkpt>
<trkpt lat="46.240174" lon="11.805886"><ele>1279.73</ele><time>2022-02-05T17:12:32Z</time></trkpt>
<trkpt lat="46.240223" lon="11.805872"><ele>1279.94</ele><time>2022-02-05T17:12:35Z</time></trkpt>
<trkpt lat="46.240602" lon="11.805954"><ele>1278.76</ele><time>2022-02-05T17:12:37Z</time></trkpt>
<trkpt lat="46.24076" lon="11.805932"><ele>1281.72</ele><time>2022-02-05T17:12:39Z</time></trkpt>
<trkpt lat="46.241225" lon="11.805536"><ele>1311.89</ele><time>2022-02-05T17:12:41Z</time></trkpt>
<trkpt lat="46.241404" lon="11.80546"><ele>1313.77</ele><time>2022-02-05T17:12:44Z</time></trkpt>
<trkpt lat="46.24174" lon="11.805384"><ele>1308.04</ele><time>2022-02-05T17:12:46Z</time></trkpt>
<trkpt lat="46.241815" lon="11.805338"><ele>1308.31</ele><time>2022-02-05T17:12:48Z</time></trkpt>
<trkpt lat="46.242029" lon="11.805144"><ele>1319.35</ele><time>2022-02-05T17:12:50Z</time></trkpt>
<trkpt lat="46.242136" lon="11.805143"><ele>1322.81</ele><time>2022-02-05T17:12:53Z</time></trkpt>
<trkpt lat="46.242618" lon="11.80536"><ele>1313.09</ele><time>2022-02-05T17:12:55Z</time></trkpt>
<trkpt lat="46.242768" lon="11.805388"><ele>1315.22</ele><time>2022-02-05T17:12:57Z</time></trkpt>
<trkpt lat="46.242829" lon="11.805366"><ele>1318.45</ele><time>2022-02-05T17:12:59Z</time></trkpt>
<trkpt lat="46.243072" lon="11.805116"><ele>1341.13</ele><time>2022-02-05T17:13:01Z</time></trkpt>
<trkpt lat="46.243166" lon="11.805047"><ele>1342.87</ele><time>2022-02-05T17:13:04Z</time></trkpt>
<trkpt lat="46.243306" lon="11.805015"><ele>1340.06</ele><time>2022-02-05T17:13:06Z</time></trkpt>
<trkpt lat="46.243487" lon="11.805058"><ele>1326.41</ele><time>2022-02-05T17:13:08Z</time></trkpt>
<trkpt lat="46.243736" lon="11.805046"><ele>1312.0</ele><time>2022-02-05T17:13:10Z</time></trkpt>
<trkpt lat="46.244924" lon="11.804446"><ele>1317.16</ele><time>2022-02-05T17:13:13Z</time></trkpt>
<trkpt lat="46.245568" lon="11.804085"><ele>1330.09</ele><time>2022-02-05T17:13:15Z</time></trkpt>
<trkpt lat="46.246662" lon="11.803271"><ele>1359.77</ele><time>2022-02-05T17:13:17Z</time></trkpt>
<trkpt lat="46.246824" lon="11.803272"><ele>1358.36</ele><time>2022-02-05T17:13:19Z</time></trkpt>
<trkpt lat="46.2471" lon="11.803418"><ele>1344.59</ele><time>2022-02-05T17:13:22Z</time></trkpt>
<trkpt lat="46.24728" lon="11.803399"><ele>1342.77</ele><time>2022-02-05T17:13:24Z</time></trkpt>
<trkpt lat="46.247459" lon="11.803259"><ele>1353.16</ele><time>2022-02-05T17:13:26Z</time></trkpt>
<trkpt lat="46.24761" lon="11.803186"><ele>1358.69</ele><time>2022-02-05T17:13:28Z</time></trkpt>
<trkpt lat="46.24815" lon="11.803136"><ele>1354.9</ele><time>2022-02-05T17:13:31Z</time></trkpt>
<trkpt lat="46.248336" lon="11.80305"><ele>1356.24</ele><time>2022-02-05T17:13:33Z</time></trkpt>
<trkpt lat="46.248584" lon="11.802809"><ele>1364.13</ele><time>2022-02-05T17:13:35Z</time></trkpt>
<trkpt lat="46.249394" lon="11.802293"><ele>1372.56</ele><time>2022-02-05T17:13:37Z</time></trkpt>
<trkpt lat="46.249675" lon="11.802158"><ele>1375.68</ele><time>2022-02-05T17:13:39Z</time></trkpt>
<trkpt lat="46.250131" lon="11.802172"><ele>1376.09</ele><time>2022-02-05T17:13:42Z</time></trkpt>
<trkpt lat="46.250865" lon="11.802286"><ele>1373.86</ele><time>2022-02-05T17:13:44Z</time></trkpt>
<trkpt lat="46.25133" lon="11.802289"><ele>1383.96</ele><time>2022-02-05T17:13:46Z</time></trkpt>
<trkpt lat="46.25396" lon="11.802648"><ele>1390.9</ele><time>2022-02-05T17:13:48Z</time></trkpt>
<trkpt lat="46.254114" lon="11.802622"><ele>1390.66</ele><time>2022-02-05T17:13:51Z</time></trkpt>
<trkpt lat="46.254206" lon="11.802516"><ele>1392.21</ele><time>2022-02-05T17:13:53Z</time></trkpt>
<trkpt lat="46.254347" lon="11.801872"><ele>1394.31</ele><time>2022-02-05T17:13:55Z</time></trkpt>
<trkpt lat="46.25462" lon="11.801316"><ele>1397.19</ele><time>2022-02-05T17:13:57Z</time></trkpt>
<trkpt lat="46.254682" lon="11.800571"><ele>1396.62</ele><time>2022-02-05T17:14:00Z</time></trkpt>
<trkpt lat="46.254719" lon="11.799915"><ele>1391.48</ele><time>2022-02-05T17:14:02Z</time></trkpt>
<trkpt lat="46.254749" lon="11.799751"><ele>1390.67</ele><time>2022-02-05T17:14:04Z</time></trkpt>
<trkpt lat="46.254851" lon="11.799591"><ele>1394.27</ele><time>2022-02-05T17:14:06Z</time></trkpt>
<trkpt lat="46.254909" lon="11.799554"><ele>1395.36</ele><time>2022-02-05T17:14:09Z</time></trkpt>
<trkpt lat="46.255114" lon="11.799557"><ele>1404.15</ele><time>2022-02-05T17:14:11Z</time></trkpt>
<trkpt lat="46.255344" lon="11.79975"><ele>1417.15</ele><time>2022-02-05T17:14:13Z</time></trkpt>
<trkpt lat="46.255523" lon="11.800163"><ele>1429.53</ele><time>2022-02-05T17:14:15Z</time></trkpt>
<trkpt lat="46.255573" lon="11.800345"><ele>1432.33</ele><time>2022-02-05T17:14:17Z</time></trkpt>
<trkpt lat="46.255654" lon="11.801192"><ele>1424.34</ele><time>2022-02-05T17:14:20Z</time></trkpt>
<trkpt lat="46.255908" lon="11.802103"><ele>1422.97</ele><time>2022-02-05T17:14:22Z</time></trkpt>
<trkpt lat="46.256226" lon="11.802805"><ele>1422.8</ele><time>2022-02-05T17:14:24Z</time></trkpt>
<trkpt lat="46.25649" lon="11.80306"><ele>1426.4</ele><time>2022-02-05T17:14:26Z</time></trkpt>
<trkpt lat="46.256769" lon="11.803212"><ele>1427.17</ele><time>2022-02-05T17:14:29Z</time></trkpt>
<trkpt lat="46.256887" lon="11.803211"><ele>1428.32</ele><time>2022-02-05T17:14:31Z</time></trkpt>
<trkpt lat="46.256954" lon="11.80306"><ele>1429.96</ele><time>2022-02-05T17:14:33Z</time></trkpt>
<trkpt lat="46.256926" lon="11.802832"><ele>1433.2</ele><time>2022-02-05T17:14:35Z</time></trkpt>
<trkpt lat="46.256808" lon="11.802532"><ele>1436.69</ele><time>2022-02-05T17:14:38Z</time></trkpt>
<trkpt lat="46.256788" lon="11.802276"><ele>1438.36</ele><time>2022-02-05T17:14:40Z</time></trkpt>
<trkpt lat="46.256949" lon="11.802153"><ele>1441.2</ele><time>2022-02-05T17:14:42Z</time></trkpt>
<trkpt lat="46.257141" lon="11.802183"><ele>1439.01</ele><time>2022-02-05T17:14:44Z</time></trkpt>
<trkpt lat="46.257327" lon="11.802314"><ele>1437.55</ele><time>2022-02-05T17:14:46Z</time></trkpt>
<trkpt lat="46.257528" lon="11.802494"><ele>1436.15</ele><time>2022-02-05T17:14:49Z</time></trkpt>
<trkpt lat="46.258058" lon="11.802569"><ele>1439.77</ele><time>2022-02-05T17:14:51Z</time></trkpt>
<trkpt lat="46.259029" lon="11.802438"><ele>1444.39</ele><time>2022-02-05T17:14:53Z</time></trkpt>
<trkpt lat="46.259439" lon="11.802278"><ele>1445.61</ele><time>2022-02-05T17:14:55Z</time></trkpt>
<trkpt lat="46.259664" lon="11.802145"><ele>1446.67</ele><time>2022-02-05T17:14:58Z</time></trkpt>
<trkpt lat="46.259892" lon="11.801974"><ele>1448.15</ele><time>2022-02-05T17:15:00Z</time></trkpt>
<trkpt lat="46.260061" lon="11.801785"><ele>1451.04</ele><time>2022-02-05T17:15:02Z</time></trkpt>
<trkpt lat="46.26011" lon="11.801695"><ele>1452.13</ele><time>2022-02-05T17:15:04Z</time></trkpt>
<trkpt lat="46.260294" lon="11.80119"><ele>1456.43</ele><time>2022-02-05T17:15:07Z</time></trkpt>
<trkpt lat="46.260474" lon="11.801003"><ele>1457.67</ele><time>2022-02-05T17:15:09Z</time></trkpt>
<trkpt lat="46.260823" lon="11.800721"><ele>1460.19</ele><time>2022-02-05T17:15:11Z</time></trkpt>
<trkpt lat="46.2612" lon="11.800576"><ele>1463.98</ele><time>2022-02-05T17:15:13Z</time></trkpt>
<trkpt lat="46.261597" lon="11.800504"><ele>1466.35</ele><time>2022-02-05T17:15:16Z</time></trkpt>
<trkpt lat="46.261784" lon="11.800557"><ele>1465.56</ele><time>2022-02-05T17:15:18Z</time></trkpt>
<trkpt lat="46.261821" lon="11.800651"><ele>1464.45</ele><time>2022-02-05T17:15:21Z</time></trkpt>
<trkpt lat="46.261809" lon="11.801042"><ele>1463.28</ele><time>2022-02-05T17:15:25Z</time></trkpt>
<trkpt lat="46.261831" lon="11.80146"><ele>1467.09</ele><time>2022-02-05T17:15:28Z</time></trkpt>
<trkpt lat="46.261961" lon="11.801866"><ele>1474.03</ele><time>2022-02-05T17:15:32Z</time></trkpt>
<trkpt lat="46.262229" lon="11.802395"><ele>1473.37</ele><time>2022-02-05T17:15:35Z</time></trkpt>
<trkpt lat="46.262636" lon="11.803037"><ele>1475.94</ele><time>2022-02-05T17:15:39Z</time></trkpt>
<trkpt lat="46.262811" lon="11.803542"><ele>1479.51</ele><time>2022-02-05T17:15:43Z</time></trkpt>
<trkpt lat="46.262971" lon="11.803633"><ele>1483.17</ele><time>2022-02-05T17:15:46Z</time></trkpt>
<trkpt lat="46.263162" lon="11.80369"><ele>1485.6</ele><time>2022-02-05T17:15:50Z</time></trkpt>
<trkpt lat="46.263292" lon="11.80367"><ele>1486.21</ele><time>2022-02-05T17:15:53Z</time></trkpt>
<trkpt lat="46.263821" lon="11.803306"><ele>1486.24</ele><time>2022-02-05T17:15:57Z</time></trkpt>
<trkpt lat="46.264608" lon="11.803193"><ele>1498.65</ele><time>2022-02-05T17:16:00Z</time></trkpt>
<trkpt lat="46.264801" lon="11.803122"><ele>1501.44</ele><time>2022-02-05T17:16:04Z</time></trkpt>
<trkpt lat="46.26497" lon="11.803325"><ele>1505.41</ele><time>2022-02-05T17:16:05Z</time></trkpt>
<trkpt lat="46.265009" lon="11.803417"><ele>1506.77</ele><time>2022-02-05T17:16:07Z</time></trkpt>
<trkpt lat="46.265009" lon="11.803525"><ele>1507.63</ele><time>2022-02-05T17:16:08Z</time></trkpt>
<trkpt lat="46.264587" lon="11.80438"><ele>1505.55</ele><time>2022-02-05T17:16:10Z</time></trkpt>
<trkpt lat="46.264554" lon="11.804474"><ele>1505.27</ele><time>2022-02-05T17:16:11Z</time></trkpt>
<trkpt lat="46.264569" lon="11.804542"><ele>1505.66</ele><time>2022-02-05T17:16:13Z</time></trkpt>
<trkpt lat="46.264616" lon="11.80457"><ele>1506.41</ele><time>2022-02-05T17:16:15Z</time></trkpt>
<trkpt lat="46.26467" lon="11.804572"><ele>1507.18</ele><time>2022-02-05T17:16:16Z</time></trkpt>
<trkpt lat="46.264777" lon="11.804528"><ele>1509.92</ele><time>2022-02-05T17:16:18Z</time></trkpt>
<trkpt lat="46.264874" lon="11.804425"><ele>1513.49</ele><time>2022-02-05T17:16:19Z</time></trkpt>
<trkpt lat="46.26495" lon="11.804279"><ele>1515.96</ele><time>2022-02-05T17:16:21Z</time></trkpt>
<trkpt lat="46.265071" lon="11.803855"><ele>1515.39</ele><time>2022-02-05T17:16:22Z</time></trkpt>
<trkpt lat="46.265228" lon="11.803557"><ele>1514.68</ele><time>2022-02-05T17:16:24Z</time></trkpt>
<trkpt lat="46.26535" lon="11.803373"><ele>1512.47</ele><time>2022-02-05T17:16:25Z</time></trkpt>
<trkpt lat="46.26547" lon="11.803295"><ele>1513.88</ele><time>2022-02-05T17:16:27Z</time></trkpt>
<trkpt lat="46.265676" lon="11.803238"><ele>1518.11</ele><time>2022-02-05T17:16:28Z</time></trkpt>
<trkpt lat="46.266149" lon="11.8032"><ele>1532.04</ele><time>2022-02-05T17:16:30Z</time></trkpt>
<trkpt lat="46.266286" lon="11.803112"><ele>1533.43</ele><time>2022-02-05T17:16:31Z</time></trkpt>
<trkpt lat="46.266363" lon="11.802938"><ele>1530.83</ele><time>2022-02-05T17:16:33Z</time></trkpt>
<trkpt lat="46.266385" lon="11.802732"><ele>1526.44</ele><time>2022-02-05T17:16:34Z</time></trkpt>
<trkpt lat="46.266379" lon="11.802432"><ele>1523.63</ele><time>2022-02-05T17:16:36Z</time></trkpt>
<trkpt lat="46.26642" lon="11.802348"><ele>1524.23</ele><time>2022-02-05T17:16:37Z</time></trkpt>
<trkpt lat="46.266509" lon="11.802335"><ele>1526.34</ele><time>2022-02-05T17:16:39Z</time></trkpt>
<trkpt lat="46.266539" lon="11.802413"><ele>1527.67</ele><time>2022-02-05T17:16:41Z</time></trkpt>
<trkpt lat="46.266588" lon="11.802989"><ele>1541.35</ele><time>2022-02-05T17:16:42Z</time></trkpt>
<trkpt lat="46.26659" lon="11.803095"><ele>1545.3</ele><time>2022-02-05T17:16:44Z</time></trkpt>
<trkpt lat="46.266531" lon="11.803273"><ele>1549.78</ele><time>2022-02-05T17:16:45Z</time></trkpt>
<trkpt lat="46.266419" lon="11.803368"><ele>1547.77</ele><time>2022-02-05T17:16:47Z</time></trkpt>
<trkpt lat="46.265754" lon="11.803702"><ele>1538.88</ele><time>2022-02-05T17:16:48Z</time></trkpt>
<trkpt lat="46.265676" lon="11.803798"><ele>1539.11</ele><time>2022-02-05T17:16:50Z</time></trkpt>
<trkpt lat="46.265626" lon="11.803951"><ele>1540.83</ele><time>2022-02-05T17:16:51Z</time></trkpt>
<trkpt lat="46.265631" lon="11.804101"><ele>1542.38</ele><time>2022-02-05T17:16:53Z</time></trkpt>
<trkpt lat="46.265702" lon="11.804376"><ele>1546.55</ele><time>2022-02-05T17:16:54Z</time></trkpt>
<trkpt lat="46.265939" lon="11.805011"><ele>1555.92</ele><time>2022-02-05T17:16:56Z</time></trkpt>
<trkpt lat="46.265967" lon="11.805216"><ele>1556.86</ele><time>2022-02-05T17:16:57Z</time></trkpt>
<trkpt lat="46.265944" lon="11.805818"><ele>1553.05</ele><time>2022-02-05T17:16:59Z</time></trkpt>
<trkpt lat="46.265959" lon="11.805992"><ele>1552.68</ele><time>2022-02-05T17:17:00Z</time></trkpt>
<trkpt lat="46.266117" lon="11.806602"><ele>1558.0</ele><time>2022-02-05T17:17:02Z</time></trkpt>
<trkpt lat="46.266163" lon="11.806651"><ele>1559.83</ele><time>2022-02-05T17:17:03Z</time></trkpt>
<trkpt lat="46.266222" lon="11.806655"><ele>1562.01</ele><time>2022-02-05T17:17:05Z</time></trkpt>
<trkpt lat="46.266243" lon="11.806548"><ele>1562.94</ele><time>2022-02-05T17:17:06Z</time></trkpt>
<trkpt lat="46.266093" lon="11.806065"><ele>1556.73</ele><time>2022-02-05T17:17:08Z</time></trkpt>
<trkpt lat="46.266092" lon="11.805765"><ele>1558.98</ele><time>2022-02-05T17:17:10Z</time></trkpt>
<trkpt lat="46.266112" lon="11.805683"><ele>1560.66</ele><time>2022-02-05T17:17:11Z</time></trkpt>
<trkpt lat="46.266229" lon="11.805441"><ele>1568.59</ele><time>2022-02-05T17:17:13Z</time></trkpt>
<trkpt lat="46.266251" lon="11.805333"><ele>1570.26</ele><time>2022-02-05T17:17:14Z</time></trkpt>
<trkpt lat="46.266217" lon="11.805014"><ele>1568.95</ele><time>2022-02-05T17:17:16Z</time></trkpt>
<trkpt lat="46.266234" lon="11.8046"><ele>1568.45</ele><time>2022-02-05T17:17:17Z</time></trkpt>
<trkpt lat="46.266261" lon="11.804502"><ele>1568.91</ele><time>2022-02-05T17:17:19Z</time></trkpt>
<trkpt lat="46.266357" lon="11.804445"><ele>1572.6</ele><time>2022-02-05T17:17:20Z</time></trkpt>
<trkpt lat="46.267112" lon="11.804523"><ele>1593.61</ele><time>2022-02-05T17:17:22Z</time></trkpt>
<trkpt lat="46.267441" lon="11.804444"><ele>1594.78</ele><time>2022-02-05T17:17:23Z</time></trkpt>
<trkpt lat="46.268195" lon="11.804312"><ele>1592.79</ele><time>2022-02-05T17:17:25Z</time></trkpt>
<trkpt lat="46.268709" lon="11.804392"><ele>1596.43</ele><time>2022-02-05T17:17:26Z</time></trkpt>
<trkpt lat="46.268886" lon="11.804392"><ele>1596.43</ele><time>2022-02-05T17:17:28Z</time></trkpt>
<trkpt lat="46.269081" lon="11.804284"><ele>1595.84</ele><time>2022-02-05T17:17:29Z</time></trkpt>
<trkpt lat="46.270586" lon="11.802598"><ele>1611.39</ele><time>2022-02-05T17:17:31Z</time></trkpt>
<trkpt lat="46.271458" lon="11.801915"><ele>1613.39</ele><time>2022-02-05T17:17:32Z</time></trkpt>
<trkpt lat="46.271804" lon="11.80128"><ele>1615.47</ele><time>2022-02-05T17:17:34Z</time></trkpt>
<trkpt lat="46.271959" lon="11.801156"><ele>1619.09</ele><time>2022-02-05T17:17:35Z</time></trkpt>
<trkpt lat="46.272209" lon="11.801045"><ele>1623.52</ele><time>2022-02-05T17:17:37Z</time></trkpt>
<trkpt lat="46.272301" lon="11.800872"><ele>1624.31</ele><time>2022-02-05T17:17:39Z</time></trkpt>
<trkpt lat="46.272329" lon="11.8007"><ele>1623.27</ele><time>2022-02-05T17:17:40Z</time></trkpt>
<trkpt lat="46.272353" lon="11.80032"><ele>1619.77</ele><time>2022-02-05T17:17:42Z</time></trkpt>
<trkpt lat="46.272495" lon="11.799297"><ele>1621.49</ele><time>2022-02-05T17:17:43Z</time></trkpt>
<trkpt lat="46.27262" lon="11.798937"><ele>1625.48</ele><time>2022-02-05T17:17:45Z</time></trkpt>
<trkpt lat="46.272725" lon="11.798754"><ele>1627.63</ele><time>2022-02-05T17:17:46Z</time></trkpt>
<trkpt lat="46.272978" lon="11.79847"><ele>1630.15</ele><time>2022-02-05T17:17:48Z</time></trkpt>
<trkpt lat="46.273059" lon="11.798513"><ele>1631.01</ele><time>2022-02-05T17:17:49Z</time></trkpt>
<trkpt lat="46.273021" lon="11.798879"><ele>1630.63</ele><time>2022-02-05T17:17:51Z</time></trkpt>
<trkpt lat="46.273082" lon="11.799237"><ele>1630.17</ele><time>2022-02-05T17:17:52Z</time></trkpt>
<trkpt lat="46.273267" lon="11.799879"><ele>1632.51</ele><time>2022-02-05T17:17:54Z</time></trkpt>
<trkpt lat="46.273332" lon="11.799932"><ele>1633.49</ele><time>2022-02-05T17:17:55Z</time></trkpt>
<trkpt lat="46.273389" lon="11.799908"><ele>1634.28</ele><time>2022-02-05T17:17:57Z</time></trkpt>
<trkpt lat="46.273481" lon="11.799776"><ele>1634.62</ele><time>2022-02-05T17:17:58Z</time></trkpt>
<trkpt lat="46.273922" lon="11.798838"><ele>1641.82</ele><time>2022-02-05T17:18:00Z</time></trkpt>
<trkpt lat="46.274916" lon="11.797651"><ele>1655.82</ele><time>2022-02-05T17:18:01Z</time></trkpt>
<trkpt lat="46.275016" lon="11.797579"><ele>1658.34</ele><time>2022-02-05T17:18:03Z</time></trkpt>
<trkpt lat="46.275075" lon="11.797582"><ele>1659.18</ele><time>2022-02-05T17:18:04Z</time></trkpt>
<trkpt lat="46.275113" lon="11.79764"><ele>1660.44</ele><time>2022-02-05T17:18:06Z</time></trkpt>
<trkpt lat="46.275134" lon="11.797771"><ele>1662.36</ele><time>2022-02-05T17:18:08Z</time></trkpt>
<trkpt lat="46.275089" lon="11.798536"><ele>1662.64</ele><time>2022-02-05T17:18:09Z</time></trkpt>
<trkpt lat="46.275147" lon="11.800135"><ele>1665.11</ele><time>2022-02-05T17:18:11Z</time></trkpt>
<trkpt lat="46.275087" lon="11.800899"><ele>1658.8</ele><time>2022-02-05T17:18:12Z</time></trkpt>
<trkpt lat="46.275101" lon="11.80099"><ele>1658.58</ele><time>2022-02-05T17:18:14Z</time></trkpt>
<trkpt lat="46.275149" lon="11.80103"><ele>1659.28</ele><time>2022-02-05T17:18:15Z</time></trkpt>
<trkpt lat="46.275205" lon="11.801014"><ele>1660.55</ele><time>2022-02-05T17:18:17Z</time></trkpt>
<trkpt lat="46.275463" lon="11.800594"><ele>1670.76</ele><time>2022-02-05T17:18:18Z</time></trkpt>
<trkpt lat="46.276013" lon="11.799902"><ele>1676.7</ele><time>2022-02-05T17:18:20Z</time></trkpt>
<trkpt lat="46.276208" lon="11.799719"><ele>1680.72</ele><time>2022-02-05T17:18:21Z</time></trkpt>
<trkpt lat="46.276556" lon="11.79952"><ele>1682.85</ele><time>2022-02-05T17:18:23Z</time></trkpt>
<trkpt lat="46.276665" lon="11.79938"><ele>1682.28</ele><time>2022-02-05T17:18:24Z</time></trkpt>
<trkpt lat="46.276896" lon="11.798972"><ele>1684.38</ele><time>2022-02-05T17:18:26Z</time></trkpt>
<trkpt lat="46.277743" lon="11.798438"><ele>1694.96</ele><time>2022-02-05T17:18:27Z</time></trkpt>
<trkpt lat="46.277831" lon="11.798471"><ele>1695.39</ele><time>2022-02-05T17:18:29Z</time></trkpt>
<trkpt lat="46.277871" lon="11.798557"><ele>1696.35</ele><time>2022-02-05T17:18:30Z</time></trkpt>
<trkpt lat="46.277867" lon="11.798638"><ele>1697.29</ele><time>2022-02-05T17:18:32Z</time></trkpt>
<trkpt lat="46.277698" lon="11.799019"><ele>1699.3</ele><time>2022-02-05T17:18:34Z</time></trkpt>
<trkpt lat="46.277572" lon="11.799349"><ele>1699.92</ele><time>2022-02-05T17:18:35Z</time></trkpt>
<trkpt lat="46.277389" lon="11.800007"><ele>1698.4</ele><time>2022-02-05T17:18:37Z</time></trkpt>
<trkpt lat="46.27736" lon="11.800256"><ele>1698.49</ele><time>2022-02-05T17:18:38Z</time></trkpt>
<trkpt lat="46.277353" lon="11.800506"><ele>1700.5</ele><time>2022-02-05T17:18:40Z</time></trkpt>
<trkpt lat="46.277392" lon="11.800751"><ele>1703.06</ele><time>2022-02-05T17:18:41Z</time></trkpt>
<trkpt lat="46.277524" lon="11.801205"><ele>1707.91</ele><time>2022-02-05T17:18:43Z</time></trkpt>
<trkpt lat="46.277549" lon="11.801445"><ele>1709.15</ele><time>2022-02-05T17:18:44Z</time></trkpt>
<trkpt lat="46.277572" lon="11.80235"><ele>1706.95</ele><time>2022-02-05T17:18:46Z</time></trkpt>
<trkpt lat="46.277631" lon="11.802452"><ele>1708.68</ele><time>2022-02-05T17:18:47Z</time></trkpt>
<trkpt lat="46.27773" lon="11.802422"><ele>1711.4</ele><time>2022-02-05T17:18:49Z</time></trkpt>
<trkpt lat="46.277782" lon="11.802297"><ele>1712.37</ele><time>2022-02-05T17:18:50Z</time></trkpt>
<trkpt lat="46.277896" lon="11.801735"><ele>1712.45</ele><time>2022-02-05T17:18:52Z</time></trkpt>
<trkpt lat="46.278044" lon="11.801353"><ele>1713.74</ele><time>2022-02-05T17:18:53Z</time></trkpt>
<trkpt lat="46.278277" lon="11.800866"><ele>1716.56</ele><time>2022-02-05T17:18:55Z</time></trkpt>
<trkpt lat="46.27854" lon="11.800538"><ele>1720.29</ele><time>2022-02-05T17:18:56Z</time></trkpt>
<trkpt lat="46.279009" lon="11.800083"><ele>1728.0</ele><time>2022-02-05T17:18:58Z</time></trkpt>
<trkpt lat="46.279202" lon="11.799947"><ele>1731.46</ele><time>2022-02-05T17:18:59Z</time></trkpt>
<trkpt lat="46.280114" lon="11.799494"><ele>1738.07</ele><time>2022-02-05T17:19:01Z</time></trkpt>
<trkpt lat="46.280783" lon="11.799225"><ele>1740.18</ele><time>2022-02-05T17:19:03Z</time></trkpt>
<trkpt lat="46.280922" lon="11.799224"><ele>1738.84</ele><time>2022-02-05T17:19:04Z</time></trkpt>
<trkpt lat="46.280983" lon="11.799272"><ele>1739.34</ele><time>2022-02-05T17:19:06Z</time></trkpt>
<trkpt lat="46.281008" lon="11.799358"><ele>1741.27</ele><time>2022-02-05T17:19:07Z</time></trkpt>
<trkpt lat="46.280972" lon="11.799462"><ele>1744.88</ele><time>2022-02-05T17:19:09Z</time></trkpt>
<trkpt lat="46.280602" lon="11.799741"><ele>1752.43</ele><time>2022-02-05T17:19:10Z</time></trkpt>
<trkpt lat="46.280102" lon="11.800409"><ele>1750.02</ele><time>2022-02-05T17:19:12Z</time></trkpt>
<trkpt lat="46.279964" lon="11.800801"><ele>1750.15</ele><time>2022-02-05T17:19:13Z</time></trkpt>
<trkpt lat="46.279616" lon="11.801502"><ele>1754.55</ele><time>2022-02-05T17:19:15Z</time></trkpt>
<trkpt lat="46.27947" lon="11.802167"><ele>1755.18</ele><time>2022-02-05T17:19:16Z</time></trkpt>
<trkpt lat="46.27939" lon="11.802781"><ele>1758.05</ele><time>2022-02-05T17:19:18Z</time></trkpt>
<trkpt lat="46.279384" lon="11.802957"><ele>1759.86</ele><time>2022-02-05T17:19:19Z</time></trkpt>
<trkpt lat="46.279455" lon="11.803031"><ele>1762.04</ele><time>2022-02-05T17:19:21Z</time></trkpt>
<trkpt lat="46.279539" lon="11.803035"><ele>1764.46</ele><time>2022-02-05T17:19:22Z</time></trkpt>
<trkpt lat="46.279592" lon="11.802896"><ele>1764.21</ele><time>2022-02-05T17:19:24Z</time></trkpt>
<trkpt lat="46.279656" lon="11.802479"><ele>1761.42</ele><time>2022-02-05T17:19:25Z</time></trkpt>
<trkpt lat="46.279714" lon="11.802228"><ele>1760.86</ele><time>2022-02-05T17:19:27Z</time></trkpt>
<trkpt lat="46.279807" lon="11.802056"><ele>1762.66</ele><time>2022-02-05T17:19:28Z</time></trkpt>
<trkpt lat="46.279929" lon="11.801973"><ele>1765.39</ele><time>2022-02-05T17:19:30Z</time></trkpt>
<trkpt lat="46.280173" lon="11.801903"><ele>1772.8</ele><time>2022-02-05T17:19:32Z</time></trkpt>
<trkpt lat="46.280312" lon="11.801766"><ele>1774.99</ele><time>2022-02-05T17:19:33Z</time></trkpt>
<trkpt lat="46.280516" lon="11.801475"><ele>1774.53</ele><time>2022-02-05T17:19:35Z</time></trkpt>
<trkpt lat="46.280619" lon="11.801407"><ele>1775.18</ele><time>2022-02-05T17:19:36Z</time></trkpt>
<trkpt lat="46.280785" lon="11.801353"><ele>1776.91</ele><time>2022-02-05T17:19:38Z</time></trkpt>
<trkpt lat="46.281035" lon="11.801312"><ele>1778.42</ele><time>2022-02-05T17:19:39Z</time></trkpt>
<trkpt lat="46.281798" lon="11.801344"><ele>1789.39</ele><time>2022-02-05T17:19:41Z</time></trkpt>
<trkpt lat="46.282626" lon="11.801145"><ele>1792.3</ele><time>2022-02-05T17:19:42Z</time></trkpt>
<trkpt lat="46.28268" lon="11.80116"><ele>1793.29</ele><time>2022-02-05T17:19:44Z</time></trkpt>
<trkpt lat="46.28272" lon="11.801209"><ele>1794.58</ele><time>2022-02-05T17:19:45Z</time></trkpt>
<trkpt lat="46.28271" lon="11.801317"><ele>1795.99</ele><time>2022-02-05T17:19:47Z</time></trkpt>
<trkpt lat="46.282604" lon="11.8014"><ele>1795.79</ele><time>2022-02-05T17:19:48Z</time></trkpt>
<trkpt lat="46.281972" lon="11.801718"><ele>1799.92</ele><time>2022-02-05T17:19:50Z</time></trkpt>
<trkpt lat="46.281897" lon="11.801791"><ele>1799.81</ele><time>2022-02-05T17:19:51Z</time></trkpt>
<trkpt lat="46.281908" lon="11.801874"><ele>1801.36</ele><time>2022-02-05T17:19:53Z</time></trkpt>
<trkpt lat="46.281969" lon="11.801926"><ele>1803.14</ele><time>2022-02-05T17:19:54Z</time></trkpt>
<trkpt lat="46.282424" lon="11.80188"><ele>1807.03</ele><time>2022-02-05T17:19:56Z</time></trkpt>
<trkpt lat="46.283377" lon="11.801716"><ele>1809.7</ele><time>2022-02-05T17:19:57Z</time></trkpt>
<trkpt lat="46.283929" lon="11.801777"><ele>1807.76</ele><time>2022-02-05T17:19:59Z</time></trkpt>
<trkpt lat="46.284913" lon="11.801589"><ele>1816.81</ele><time>2022-02-05T17:20:01Z</time></trkpt>
<trkpt lat="46.284913" lon="11.801589"><ele>1816.81</ele><time>2022-02-05T17:20:01Z</time></trkpt>
<trkpt lat="46.284997" lon="11.801561"><ele>1817.58</ele><time>2022-02-05T17:20:02Z</time></trkpt>
<trkpt lat="46.2851" lon="11.801423"><ele>1818.38</ele><time>2022-02-05T17:20:04Z</time></trkpt>
<trkpt lat="46.285116" lon="11.801351"><ele>1819.09</ele><time>2022-02-05T17:20:05Z</time></trkpt>
<trkpt lat="46.285096" lon="11.801202"><ele>1820.52</ele><time>2022-02-05T17:20:07Z</time></trkpt>
<trkpt lat="46.285071" lon="11.801145"><ele>1820.85</ele><time>2022-02-05T17:20:08Z</time></trkpt>
<trkpt lat="46.284721" lon="11.800957"><ele>1816.94</ele><time>2022-02-05T17:20:10Z</time></trkpt>
<trkpt lat="46.284627" lon="11.800775"><ele>1817.7</ele><time>2022-02-05T17:20:12Z</time></trkpt>
<trkpt lat="46.284606" lon="11.800564"><ele>1820.96</ele><time>2022-02-05T17:20:13Z</time></trkpt>
<trkpt lat="46.284645" lon="11.800354"><ele>1824.05</ele><time>2022-02-05T17:20:15Z</time></trkpt>
<trkpt lat="46.284794" lon="11.79977"><ele>1829.29</ele><time>2022-02-05T17:20:16Z</time></trkpt>
<trkpt lat="46.284813" lon="11.799596"><ele>1830.07</ele><time>2022-02-05T17:20:18Z</time></trkpt>
<trkpt lat="46.284854" lon="11.799482"><ele>1831.72</ele><time>2022-02-05T17:20:19Z</time></trkpt>
<trkpt lat="46.284941" lon="11.799491"><ele>1834.35</ele><time>2022-02-05T17:20:21Z</time></trkpt>
<trkpt lat="46.284948" lon="11.799591"><ele>1834.72</ele><time>2022-02-05T17:20:23Z</time></trkpt>
<trkpt lat="46.284897" lon="11.800194"><ele>1834.83</ele><time>2022-02-05T17:20:24Z</time></trkpt>
<trkpt lat="46.284841" lon="11.800574"><ele>1831.29</ele><time>2022-02-05T17:20:26Z</time></trkpt>
<trkpt lat="46.284915" lon="11.800637"><ele>1832.88</ele><time>2022-02-05T17:20:27Z</time></trkpt>
<trkpt lat="46.284973" lon="11.80057"><ele>1836.63</ele><time>2022-02-05T17:20:29Z</time></trkpt>
<trkpt lat="46.284976" lon="11.800364"><ele>1837.73</ele><time>2022-02-05T17:20:30Z</time></trkpt>
<trkpt lat="46.285012" lon="11.800115"><ele>1838.74</ele><time>2022-02-05T17:20:32Z</time></trkpt>
<trkpt lat="46.285077" lon="11.799946"><ele>1840.02</ele><time>2022-02-05T17:20:34Z</time></trkpt>
<trkpt lat="46.285293" lon="11.799501"><ele>1844.49</ele><time>2022-02-05T17:20:35Z</time></trkpt>
<trkpt lat="46.285384" lon="11.799078"><ele>1844.96</ele><time>2022-02-05T17:20:37Z</time></trkpt>
<trkpt lat="46.285415" lon="11.799014"><ele>1845.72</ele><time>2022-02-05T17:20:38Z</time></trkpt>
<trkpt lat="46.285457" lon="11.799005"><ele>1846.76</ele><time>2022-02-05T17:20:40Z</time></trkpt>
<trkpt lat="46.285519" lon="11.799048"><ele>1848.03</ele><time>2022-02-05T17:20:41Z</time></trkpt>
<trkpt lat="46.285532" lon="11.799148"><ele>1847.69</ele><time>2022-02-05T17:20:43Z</time></trkpt>
<trkpt lat="46.2855" lon="11.799272"><ele>1847.37</ele><time>2022-02-05T17:20:45Z</time></trkpt>
<trkpt lat="46.285361" lon="11.799629"><ele>1846.35</ele><time>2022-02-05T17:20:46Z</time></trkpt>
<trkpt lat="46.285182" lon="11.800253"><ele>1844.16</ele><time>2022-02-05T17:20:48Z</time></trkpt>
<trkpt lat="46.285173" lon="11.800342"><ele>1843.62</ele><time>2022-02-05T17:20:49Z</time></trkpt>
<trkpt lat="46.285192" lon="11.800408"><ele>1843.73</ele><time>2022-02-05T17:20:51Z</time></trkpt>
<trkpt lat="46.285233" lon="11.800426"><ele>1844.72</ele><time>2022-02-05T17:20:52Z</time></trkpt>
<trkpt lat="46.285266" lon="11.800417"><ele>1845.68</ele><time>2022-02-05T17:20:54Z</time></trkpt>
<trkpt lat="46.285286" lon="11.800369"><ele>1846.49</ele><time>2022-02-05T17:20:56Z</time></trkpt>
<trkpt lat="46.285332" lon="11.800041"><ele>1847.67</ele><time>2022-02-05T17:20:57Z</time></trkpt>
<trkpt lat="46.285377" lon="11.799879"><ele>1848.11</ele><time>2022-02-05T17:20:59Z</time></trkpt>
<trkpt lat="46.285445" lon="11.799724"><ele>1848.62</ele><time>2022-02-05T17:21:00Z</time></trkpt>
<trkpt lat="46.286152" lon="11.798654"><ele>1857.26</ele><time>2022-02-05T17:21:02Z</time></trkpt>
<trkpt lat="46.286187" lon="11.798542"><ele>1859.07</ele><time>2022-02-05T17:21:03Z</time></trkpt>
<trkpt lat="46.286183" lon="11.798447"><ele>1860.52</ele><time>2022-02-05T17:21:05Z</time></trkpt>
<trkpt lat="46.286122" lon="11.798337"><ele>1861.98</ele><time>2022-02-05T17:21:07Z</time></trkpt>
<trkpt lat="46.286037" lon="11.798298"><ele>1864.1</ele><time>2022-02-05T17:21:08Z</time></trkpt>
<trkpt lat="46.285902" lon="11.798284"><ele>1866.51</ele><time>2022-02-05T17:21:10Z</time></trkpt>
<trkpt lat="46.285703" lon="11.798312"><ele>1867.2</ele><time>2022-02-05T17:21:11Z</time></trkpt>
<trkpt lat="46.285259" lon="11.798259"><ele>1866.25</ele><time>2022-02-05T17:21:13Z</time></trkpt>
<trkpt lat="46.285106" lon="11.79816"><ele>1867.0</ele><time>2022-02-05T17:21:14Z</time></trkpt>
<trkpt lat="46.284945" lon="11.798025"><ele>1868.64</ele><time>2022-02-05T17:21:16Z</time></trkpt>
<trkpt lat="46.284601" lon="11.797837"><ele>1867.51</ele><time>2022-02-05T17:21:18Z</time></trkpt>
<trkpt lat="46.284546" lon="11.797785"><ele>1868.86</ele><time>2022-02-05T17:21:19Z</time></trkpt>
<trkpt lat="46.284514" lon="11.797705"><ele>1871.78</ele><time>2022-02-05T17:21:21Z</time></trkpt>
<trkpt lat="46.284494" lon="11.797577"><ele>1876.73</ele><time>2022-02-05T17:21:22Z</time></trkpt>
<trkpt lat="46.284505" lon="11.797445"><ele>1880.6</ele><time>2022-02-05T17:21:24Z</time></trkpt>
<trkpt lat="46.284541" lon="11.797326"><ele>1882.18</ele><time>2022-02-05T17:21:25Z</time></trkpt>
<trkpt lat="46.284593" lon="11.797246"><ele>1883.44</ele><time>2022-02-05T17:21:27Z</time></trkpt>
<trkpt lat="46.28499" lon="11.79697"><ele>1887.23</ele><time>2022-02-05T17:21:29Z</time></trkpt>
<trkpt lat="46.285213" lon="11.796685"><ele>1886.55</ele><time>2022-02-05T17:21:30Z</time></trkpt>
<trkpt lat="46.285841" lon="11.796177"><ele>1895.84</ele><time>2022-02-05T17:21:32Z</time></trkpt>
<trkpt lat="46.286175" lon="11.79584"><ele>1898.69</ele><time>2022-02-05T17:21:33Z</time></trkpt>
<trkpt lat="46.286466" lon="11.795504"><ele>1895.89</ele><time>2022-02-05T17:21:35Z</time></trkpt>
<trkpt lat="46.286572" lon="11.79544"><ele>1894.96</ele><time>2022-02-05T17:21:36Z</time></trkpt>
<trkpt lat="46.286907" lon="11.795336"><ele>1895.79</ele><time>2022-02-05T17:21:38Z</time></trkpt>
<trkpt lat="46.287012" lon="11.795341"><ele>1896.35</ele><time>2022-02-05T17:21:39Z</time></trkpt>
<trkpt lat="46.287081" lon="11.795378"><ele>1897.17</ele><time>2022-02-05T17:21:41Z</time></trkpt>
<trkpt lat="46.287499" lon="11.795832"><ele>1900.99</ele><time>2022-02-05T17:21:43Z</time></trkpt>
<trkpt lat="46.287775" lon="11.796456"><ele>1910.19</ele><time>2022-02-05T17:21:44Z</time></trkpt>
<trkpt lat="46.287877" lon="11.79651"><ele>1911.74</ele><time>2022-02-05T17:21:46Z</time></trkpt>
<trkpt lat="46.288028" lon="11.796532"><ele>1912.91</ele><time>2022-02-05T17:21:47Z</time></trkpt>
<trkpt lat="46.288128" lon="11.796495"><ele>1913.05</ele><time>2022-02-05T17:21:49Z</time></trkpt>
<trkpt lat="46.288202" lon="11.796413"><ele>1912.41</ele><time>2022-02-05T17:21:50Z</time></trkpt>
<trkpt lat="46.288335" lon="11.796096"><ele>1911.95</ele><time>2022-02-05T17:21:52Z</time></trkpt>
<trkpt lat="46.288418" lon="11.795966"><ele>1911.78</ele><time>2022-02-05T17:21:54Z</time></trkpt>
<trkpt lat="46.288475" lon="11.795921"><ele>1911.82</ele><time>2022-02-05T17:21:55Z</time></trkpt>
<trkpt lat="46.288551" lon="11.795928"><ele>1912.12</ele><time>2022-02-05T17:21:57Z</time></trkpt>
<trkpt lat="46.288602" lon="11.795963"><ele>1912.43</ele><time>2022-02-05T17:21:58Z</time></trkpt>
<trkpt lat="46.288668" lon="11.796119"><ele>1912.21</ele><time>2022-02-05T17:22:00Z</time></trkpt>
<trkpt lat="46.288674" lon="11.796292"><ele>1912.75</ele><time>2022-02-05T17:22:01Z</time></trkpt>
<trkpt lat="46.288653" lon="11.796508"><ele>1914.88</ele><time>2022-02-05T17:22:03Z</time></trkpt>
<trkpt lat="46.288595" lon="11.796694"><ele>1917.59</ele><time>2022-02-05T17:22:05Z</time></trkpt>
<trkpt lat="46.288409" lon="11.797161"><ele>1924.33</ele><time>2022-02-05T17:22:06Z</time></trkpt>
<trkpt lat="46.288413" lon="11.797349"><ele>1924.85</ele><time>2022-02-05T17:22:08Z</time></trkpt>
<trkpt lat="46.288578" lon="11.798099"><ele>1921.61</ele><time>2022-02-05T17:22:09Z</time></trkpt>
<trkpt lat="46.288663" lon="11.798257"><ele>1923.58</ele><time>2022-02-05T17:22:11Z</time></trkpt>
<trkpt lat="46.288777" lon="11.798389"><ele>1926.64</ele><time>2022-02-05T17:22:12Z</time></trkpt>
<trkpt lat="46.289123" lon="11.798719"><ele>1933.1</ele><time>2022-02-05T17:22:14Z</time></trkpt>
<trkpt lat="46.289243" lon="11.798741"><ele>1934.22</ele><time>2022-02-05T17:22:16Z</time></trkpt>
<trkpt lat="46.289347" lon="11.798684"><ele>1934.74</ele><time>2022-02-05T17:22:17Z</time></trkpt>
<trkpt lat="46.289454" lon="11.798617"><ele>1935.3</ele><time>2022-02-05T17:22:19Z</time></trkpt>
<trkpt lat="46.289542" lon="11.798491"><ele>1935.72</ele><time>2022-02-05T17:22:20Z</time></trkpt>
<trkpt lat="46.289694" lon="11.798161"><ele>1934.88</ele><time>2022-02-05T17:22:22Z</time></trkpt>
<trkpt lat="46.289805" lon="11.797796"><ele>1934.23</ele><time>2022-02-05T17:22:23Z</time></trkpt>
<trkpt lat="46.289928" lon="11.797518"><ele>1933.94</ele><time>2022-02-05T17:22:25Z</time></trkpt>
<trkpt lat="46.290998" lon="11.796064"><ele>1937.7</ele><time>2022-02-05T17:22:27Z</time></trkpt>
<trkpt lat="46.29114" lon="11.795772"><ele>1935.61</ele><time>2022-02-05T17:22:28Z</time></trkpt>
<trkpt lat="46.291557" lon="11.794696"><ele>1931.96</ele><time>2022-02-05T17:22:30Z</time></trkpt>
<trkpt lat="46.291641" lon="11.794583"><ele>1933.08</ele><time>2022-02-05T17:22:31Z</time></trkpt>
<trkpt lat="46.29173" lon="11.794517"><ele>1934.93</ele><time>2022-02-05T17:22:33Z</time></trkpt>
<trkpt lat="46.292649" lon="11.79402"><ele>1938.09</ele><time>2022-02-05T17:22:34Z</time></trkpt>
<trkpt lat="46.292834" lon="11.794009"><ele>1937.22</ele><time>2022-02-05T17:22:36Z</time></trkpt>
<trkpt lat="46.293075" lon="11.794062"><ele>1940.22</ele><time>2022-02-05T17:22:38Z</time></trkpt>
<trkpt lat="46.293204" lon="11.794015"><ele>1942.13</ele><time>2022-02-05T17:22:39Z</time></trkpt>
<trkpt lat="46.294197" lon="11.793337"><ele>1945.8</ele><time>2022-02-05T17:22:41Z</time></trkpt>
<trkpt lat="46.294568" lon="11.793031"><ele>1938.64</ele><time>2022-02-05T17:22:42Z</time></trkpt>
<trkpt lat="46.294728" lon="11.792947"><ele>1939.76</ele><time>2022-02-05T17:22:44Z</time></trkpt>
<trkpt lat="46.295165" lon="11.792885"><ele>1940.86</ele><time>2022-02-05T17:22:45Z</time></trkpt>
<trkpt lat="46.295479" lon="11.792787"><ele>1940.37</ele><time>2022-02-05T17:22:47Z</time></trkpt>
<trkpt lat="46.295773" lon="11.792495"><ele>1944.18</ele><time>2022-02-05T17:22:49Z</time></trkpt>
<trkpt lat="46.295977" lon="11.792238"><ele>1944.93</ele><time>2022-02-05T17:22:50Z</time></trkpt>
<trkpt lat="46.296095" lon="11.792006"><ele>1944.54</ele><time>2022-02-05T17:22:52Z</time></trkpt>
<trkpt lat="46.296724" lon="11.790594"><ele>1948.39</ele><time>2022-02-05T17:22:53Z</time></trkpt>
<trkpt lat="46.297686" lon="11.789572"><ele>1957.27</ele><time>2022-02-05T17:22:55Z</time></trkpt>
<trkpt lat="46.297892" lon="11.789205"><ele>1955.24</ele><time>2022-02-05T17:22:56Z</time></trkpt>
<trkpt lat="46.297927" lon="11.789083"><ele>1956.56</ele><time>2022-02-05T17:22:58Z</time></trkpt>
<trkpt lat="46.297922" lon="11.788991"><ele>1957.47</ele><time>2022-02-05T17:23:00Z</time></trkpt>
<trkpt lat="46.297878" lon="11.788862"><ele>1958.53</ele><time>2022-02-05T17:23:01Z</time></trkpt>
<trkpt lat="46.297791" lon="11.788778"><ele>1959.46</ele><time>2022-02-05T17:23:03Z</time></trkpt>
<trkpt lat="46.297647" lon="11.788783"><ele>1959.54</ele><time>2022-02-05T17:23:04Z</time></trkpt>
<trkpt lat="46.296721" lon="11.788924"><ele>1964.19</ele><time>2022-02-05T17:23:06Z</time></trkpt>
<trkpt lat="46.296638" lon="11.788914"><ele>1964.28</ele><time>2022-02-05T17:23:07Z</time></trkpt>
<trkpt lat="46.296546" lon="11.788869"><ele>1964.85</ele><time>2022-02-05T17:23:09Z</time></trkpt>
<trkpt lat="46.296356" lon="11.788711"><ele>1966.8</ele><time>2022-02-05T17:23:11Z</time></trkpt>
<trkpt lat="46.296263" lon="11.788582"><ele>1969.17</ele><time>2022-02-05T17:23:12Z</time></trkpt>
<trkpt lat="46.296225" lon="11.788392"><ele>1971.08</ele><time>2022-02-05T17:23:14Z</time></trkpt>
<trkpt lat="46.296269" lon="11.787427"><ele>1975.15</ele><time>2022-02-05T17:23:15Z</time></trkpt>
<trkpt lat="46.296269" lon="11.786725"><ele>1976.12</ele><time>2022-02-05T17:23:17Z</time></trkpt>
<trkpt lat="46.296404" lon="11.785128"><ele>1970.61</ele><time>2022-02-05T17:23:18Z</time></trkpt>
<trkpt lat="46.296417" lon="11.784204"><ele>1966.66</ele><time>2022-02-05T17:23:20Z</time></trkpt>
<trkpt lat="46.296451" lon="11.783603"><ele>1962.85</ele><time>2022-02-05T17:23:22Z</time></trkpt>
<trkpt lat="46.29643" lon="11.783393"><ele>1961.13</ele><time>2022-02-05T17:23:23Z</time></trkpt>
<trkpt lat="46.296302" lon="11.782623"><ele>1958.33</ele><time>2022-02-05T17:23:25Z</time></trkpt>
<trkpt lat="46.296146" lon="11.781871"><ele>1951.84</ele><time>2022-02-05T17:23:26Z</time></trkpt>
<trkpt lat="46.296109" lon="11.781477"><ele>1948.6</ele><time>2022-02-05T17:23:28Z</time></trkpt>
<trkpt lat="46.29613" lon="11.781183"><ele>1946.77</ele><time>2022-02-05T17:23:29Z</time></trkpt>
<trkpt lat="46.296185" lon="11.7809"><ele>1944.79</ele><time>2022-02-05T17:23:31Z</time></trkpt>
<trkpt lat="46.296259" lon="11.780679"><ele>1942.88</ele><time>2022-02-05T17:23:33Z</time></trkpt>
<trkpt lat="46.296438" lon="11.780349"><ele>1940.16</ele><time>2022-02-05T17:23:34Z</time></trkpt>
<trkpt lat="46.296523" lon="11.780241"><ele>1939.38</ele><time>2022-02-05T17:23:36Z</time></trkpt>
<trkpt lat="46.296693" lon="11.780135"><ele>1938.33</ele><time>2022-02-05T17:23:37Z</time></trkpt>
<trkpt lat="46.297191" lon="11.779981"><ele>1934.74</ele><time>2022-02-05T17:23:39Z</time></trkpt>
<trkpt lat="46.297292" lon="11.779923"><ele>1934.46</ele><time>2022-02-05T17:23:40Z</time></trkpt>
<trkpt lat="46.297369" lon="11.779803"><ele>1933.59</ele><time>2022-02-05T17:23:42Z</time></trkpt>
<trkpt lat="46.297365" lon="11.779733"><ele>1932.67</ele><time>2022-02-05T17:23:44Z</time></trkpt>
<trkpt lat="46.297286" lon="11.779649"><ele>1931.04</ele><time>2022-02-05T17:23:45Z</time></trkpt>
<trkpt lat="46.297155" lon="11.779626"><ele>1930.38</ele><time>2022-02-05T17:23:47Z</time></trkpt>
<trkpt lat="46.296568" lon="11.77944"><ele>1924.86</ele><time>2022-02-05T17:23:48Z</time></trkpt>
<trkpt lat="46.296407" lon="11.779453"><ele>1923.35</ele><time>2022-02-05T17:23:50Z</time></trkpt>
<trkpt lat="46.296238" lon="11.779511"><ele>1921.62</ele><time>2022-02-05T17:23:51Z</time></trkpt>
<trkpt lat="46.295523" lon="11.779904"><ele>1921.64</ele><time>2022-02-05T17:23:53Z</time></trkpt>
<trkpt lat="46.295412" lon="11.779878"><ele>1919.16</ele><time>2022-02-05T17:23:55Z</time></trkpt>
<trkpt lat="46.295389" lon="11.779758"><ele>1917.09</ele><time>2022-02-05T17:23:56Z</time></trkpt>
<trkpt lat="46.295432" lon="11.779631"><ele>1916.38</ele><time>2022-02-05T17:23:58Z</time></trkpt>
<trkpt lat="46.295668" lon="11.779258"><ele>1914.12</ele><time>2022-02-05T17:23:59Z</time></trkpt>
<trkpt lat="46.295735" lon="11.779032"><ele>1911.22</ele><time>2022-02-05T17:24:01Z</time></trkpt>
<trkpt lat="46.295848" lon="11.778293"><ele>1905.94</ele><time>2022-02-05T17:24:02Z</time></trkpt>
<trkpt lat="46.295857" lon="11.777903"><ele>1904.78</ele><time>2022-02-05T17:24:04Z</time></trkpt>
<trkpt lat="46.295773" lon="11.774714"><ele>1888.21</ele><time>2022-02-05T17:24:06Z</time></trkpt>
<trkpt lat="46.295677" lon="11.773531"><ele>1880.31</ele><time>2022-02-05T17:24:07Z</time></trkpt>
<trkpt lat="46.295679" lon="11.772959"><ele>1879.18</ele><time>2022-02-05T17:24:09Z</time></trkpt>
<trkpt lat="46.295789" lon="11.772479"><ele>1879.58</ele><time>2022-02-05T17:24:10Z</time></trkpt>
<trkpt lat="46.295937" lon="11.772055"><ele>1877.35</ele><time>2022-02-05T17:24:12Z</time></trkpt>
<trkpt lat="46.296062" lon="11.771823"><ele>1875.9</ele><time>2022-02-05T17:24:13Z</time></trkpt>
<trkpt lat="46.296219" lon="11.771711"><ele>1874.52</ele><time>2022-02-05T17:24:15Z</time></trkpt>
<trkpt lat="46.296483" lon="11.771692"><ele>1873.56</ele><time>2022-02-05T17:24:16Z</time></trkpt>
<trkpt lat="46.296769" lon="11.771533"><ele>1870.49</ele><time>2022-02-05T17:24:18Z</time></trkpt>
<trkpt lat="46.296943" lon="11.771359"><ele>1867.68</ele><time>2022-02-05T17:24:20Z</time></trkpt>
<trkpt lat="46.297429" lon="11.770667"><ele>1861.34</ele><time>2022-02-05T17:24:21Z</time></trkpt>
<trkpt lat="46.297556" lon="11.770525"><ele>1861.37</ele><time>2022-02-05T17:24:23Z</time></trkpt>
<trkpt lat="46.297608" lon="11.770363"><ele>1860.57</ele><time>2022-02-05T17:24:24Z</time></trkpt>
<trkpt lat="46.297556" lon="11.770245"><ele>1861.07</ele><time>2022-02-05T17:24:26Z</time></trkpt>
<trkpt lat="46.297431" lon="11.770234"><ele>1861.56</ele><time>2022-02-05T17:24:27Z</time></trkpt>
<trkpt lat="46.296722" lon="11.770477"><ele>1860.33</ele><time>2022-02-05T17:24:29Z</time></trkpt>
<trkpt lat="46.296294" lon="11.770682"><ele>1857.37</ele><time>2022-02-05T17:24:31Z</time></trkpt>
<trkpt lat="46.295456" lon="11.771243"><ele>1854.43</ele><time>2022-02-05T17:24:32Z</time></trkpt>
<trkpt lat="46.294585" lon="11.772179"><ele>1843.0</ele><time>2022-02-05T17:24:34Z</time></trkpt>
<trkpt lat="46.294428" lon="11.772524"><ele>1841.57</ele><time>2022-02-05T17:24:35Z</time></trkpt>
<trkpt lat="46.294346" lon="11.772408"><ele>1837.95</ele><time>2022-02-05T17:24:37Z</time></trkpt>
<trkpt lat="46.294377" lon="11.772236"><ele>1837.2</ele><time>2022-02-05T17:24:38Z</time></trkpt>
<trkpt lat="46.294621" lon="11.771447"><ele>1833.28</ele><time>2022-02-05T17:24:40Z</time></trkpt>
<trkpt lat="46.29493" lon="11.77057"><ele>1826.5</ele><time>2022-02-05T17:24:42Z</time></trkpt>
<trkpt lat="46.295052" lon="11.770355"><ele>1826.29</ele><time>2022-02-05T17:24:43Z</time></trkpt>
<trkpt lat="46.295471" lon="11.769785"><ele>1823.76</ele><time>2022-02-05T17:24:45Z</time></trkpt>
<trkpt lat="46.295791" lon="11.76872"><ele>1814.23</ele><time>2022-02-05T17:24:46Z</time></trkpt>
<trkpt lat="46.295969" lon="11.767899"><ele>1813.42</ele><time>2022-02-05T17:24:48Z</time></trkpt>
<trkpt lat="46.296098" lon="11.767068"><ele>1808.47</ele><time>2022-02-05T17:24:49Z</time></trkpt>
<trkpt lat="46.296503" lon="11.765951"><ele>1804.52</ele><time>2022-02-05T17:24:51Z</time></trkpt>
<trkpt lat="46.296681" lon="11.765598"><ele>1800.99</ele><time>2022-02-05T17:24:53Z</time></trkpt>
<trkpt lat="46.296843" lon="11.765424"><ele>1799.58</ele><time>2022-02-05T17:24:54Z</time></trkpt>
<trkpt lat="46.297935" lon="11.764593"><ele>1789.83</ele><time>2022-02-05T17:24:56Z</time></trkpt>
<trkpt lat="46.298635" lon="11.764138"><ele>1782.5</ele><time>2022-02-05T17:24:57Z</time></trkpt>
<trkpt lat="46.298848" lon="11.764127"><ele>1782.53</ele><time>2022-02-05T17:24:59Z</time></trkpt>
<trkpt lat="46.299116" lon="11.764206"><ele>1784.58</ele><time>2022-02-05T17:25:00Z</time></trkpt>
<trkpt lat="46.299204" lon="11.764163"><ele>1784.33</ele><time>2022-02-05T17:25:02Z</time></trkpt>
<trkpt lat="46.29963" lon="11.763744"><ele>1775.36</ele><time>2022-02-05T17:25:04Z</time></trkpt>
<trkpt lat="46.300036" lon="11.763638"><ele>1773.76</ele><time>2022-02-05T17:25:05Z</time></trkpt>
<trkpt lat="46.300089" lon="11.763517"><ele>1771.1</ele><time>2022-02-05T17:25:07Z</time></trkpt>
<trkpt lat="46.300064" lon="11.763361"><ele>1766.26</ele><time>2022-02-05T17:25:08Z</time></trkpt>
<trkpt lat="46.299977" lon="11.763275"><ele>1763.82</ele><time>2022-02-05T17:25:10Z</time></trkpt>
<trkpt lat="46.299814" lon="11.763285"><ele>1766.01</ele><time>2022-02-05T17:25:11Z</time></trkpt>
<trkpt lat="46.299218" lon="11.763197"><ele>1764.16</ele><time>2022-02-05T17:25:13Z</time></trkpt>
<trkpt lat="46.298898" lon="11.763186"><ele>1763.74</ele><time>2022-02-05T17:25:15Z</time></trkpt>
<trkpt lat="46.298328" lon="11.763355"><ele>1764.31</ele><time>2022-02-05T17:25:16Z</time></trkpt>
<trkpt lat="46.297835" lon="11.763341"><ele>1756.98</ele><time>2022-02-05T17:25:18Z</time></trkpt>
<trkpt lat="46.297119" lon="11.763426"><ele>1752.61</ele><time>2022-02-05T17:25:19Z</time></trkpt>
<trkpt lat="46.296803" lon="11.763419"><ele>1747.44</ele><time>2022-02-05T17:25:21Z</time></trkpt>
<trkpt lat="46.296551" lon="11.763463"><ele>1745.29</ele><time>2022-02-05T17:25:22Z</time></trkpt>
<trkpt lat="46.296263" lon="11.763555"><ele>1743.96</ele><time>2022-02-05T17:25:24Z</time></trkpt>
<trkpt lat="46.296016" lon="11.763672"><ele>1742.94</ele><time>2022-02-05T17:25:26Z</time></trkpt>
<trkpt lat="46.295905" lon="11.763663"><ele>1741.16</ele><time>2022-02-05T17:25:27Z</time></trkpt>
<trkpt lat="46.295872" lon="11.763545"><ele>1739.89</ele><time>2022-02-05T17:25:29Z</time></trkpt>
<trkpt lat="46.295872" lon="11.763545"><ele>1739.89</ele><time>2022-02-05T17:25:29Z</time></trkpt>
<trkpt lat="46.295921" lon="11.763422"><ele>1737.79</ele><time>2022-02-05T17:25:31Z</time></trkpt>
<trkpt lat="46.296018" lon="11.763322"><ele>1737.19</ele><time>2022-02-05T17:25:32Z</time></trkpt>
<trkpt lat="46.296219" lon="11.763186"><ele>1736.86</ele><time>2022-02-05T17:25:34Z</time></trkpt>
<trkpt lat="46.297528" lon="11.762461"><ele>1733.16</ele><time>2022-02-05T17:25:36Z</time></trkpt>
<trkpt lat="46.298062" lon="11.762234"><ele>1731.33</ele><time>2022-02-05T17:25:38Z</time></trkpt>
<trkpt lat="46.298605" lon="11.761914"><ele>1725.56</ele><time>2022-02-05T17:25:39Z</time></trkpt>
<trkpt lat="46.298799" lon="11.761824"><ele>1723.69</ele><time>2022-02-05T17:25:41Z</time></trkpt>
<trkpt lat="46.298974" lon="11.761775"><ele>1722.4</ele><time>2022-02-05T17:25:43Z</time></trkpt>
<trkpt lat="46.299507" lon="11.761747"><ele>1721.6</ele><time>2022-02-05T17:25:45Z</time></trkpt>
<trkpt lat="46.300161" lon="11.761587"><ele>1715.3</ele><time>2022-02-05T17:25:46Z</time></trkpt>
<trkpt lat="46.300563" lon="11.761548"><ele>1714.48</ele><time>2022-02-05T17:25:48Z</time></trkpt>
<trkpt lat="46.300945" lon="11.761666"><ele>1715.16</ele><time>2022-02-05T17:25:50Z</time></trkpt>
<trkpt lat="46.30135" lon="11.761668"><ele>1712.31</ele><time>2022-02-05T17:25:52Z</time></trkpt>
<trkpt lat="46.301541" lon="11.761616"><ele>1709.43</ele><time>2022-02-05T17:25:53Z</time></trkpt>
<trkpt lat="46.301735" lon="11.761516"><ele>1706.13</ele><time>2022-02-05T17:25:55Z</time></trkpt>
<trkpt lat="46.302178" lon="11.76112"><ele>1704.11</ele><time>2022-02-05T17:25:57Z</time></trkpt>
<trkpt lat="46.302335" lon="11.760937"><ele>1701.42</ele><time>2022-02-05T17:25:59Z</time></trkpt>
<trkpt lat="46.302592" lon="11.760734"><ele>1697.65</ele><time>2022-02-05T17:26:00Z</time></trkpt>
<trkpt lat="46.303963" lon="11.760228"><ele>1679.12</ele><time>2022-02-05T17:26:02Z</time></trkpt>
<trkpt lat="46.304141" lon="11.760191"><ele>1679.93</ele><time>2022-02-05T17:26:04Z</time></trkpt>
<trkpt lat="46.30481" lon="11.760281"><ele>1680.46</ele><time>2022-02-05T17:26:06Z</time></trkpt>
<trkpt lat="46.304926" lon="11.760183"><ele>1677.59</ele><time>2022-02-05T17:26:07Z</time></trkpt>
<trkpt lat="46.304899" lon="11.75999"><ele>1671.65</ele><time>2022-02-05T17:26:09Z</time></trkpt>
<trkpt lat="46.304787" lon="11.759844"><ele>1670.98</ele><time>2022-02-05T17:26:11Z</time></trkpt>
<trkpt lat="46.304683" lon="11.759772"><ele>1670.84</ele><time>2022-02-05T17:26:13Z</time></trkpt>
<trkpt lat="46.303648" lon="11.75928"><ele>1664.12</ele><time>2022-02-05T17:26:14Z</time></trkpt>
<trkpt lat="46.303185" lon="11.758969"><ele>1663.08</ele><time>2022-02-05T17:26:16Z</time></trkpt>
<trkpt lat="46.302753" lon="11.758414"><ele>1660.27</ele><time>2022-02-05T17:26:18Z</time></trkpt>
<trkpt lat="46.302593" lon="11.758351"><ele>1659.96</ele><time>2022-02-05T17:26:20Z</time></trkpt>
<trkpt lat="46.302109" lon="11.758092"><ele>1653.19</ele><time>2022-02-05T17:26:22Z</time></trkpt>
<trkpt lat="46.301888" lon="11.757912"><ele>1649.62</ele><time>2022-02-05T17:26:23Z</time></trkpt>
<trkpt lat="46.301834" lon="11.75781"><ele>1648.29</ele><time>2022-02-05T17:26:25Z</time></trkpt>
<trkpt lat="46.301846" lon="11.75767"><ele>1647.07</ele><time>2022-02-05T17:26:27Z</time></trkpt>
<trkpt lat="46.30191" lon="11.757578"><ele>1645.9</ele><time>2022-02-05T17:26:29Z</time></trkpt>
<trkpt lat="46.301968" lon="11.757576"><ele>1645.45</ele><time>2022-02-05T17:26:30Z</time></trkpt>
<trkpt lat="46.30222" lon="11.757741"><ele>1647.33</ele><time>2022-02-05T17:26:32Z</time></trkpt>
<trkpt lat="46.302395" lon="11.757793"><ele>1647.72</ele><time>2022-02-05T17:26:34Z</time></trkpt>
<trkpt lat="46.30252" lon="11.757803"><ele>1647.63</ele><time>2022-02-05T17:26:36Z</time></trkpt>
<trkpt lat="46.302925" lon="11.757732"><ele>1645.64</ele><time>2022-02-05T17:26:37Z</time></trkpt>
<trkpt lat="46.303211" lon="11.757714"><ele>1643.04</ele><time>2022-02-05T17:26:39Z</time></trkpt>
<trkpt lat="46.303464" lon="11.75762"><ele>1640.81</ele><time>2022-02-05T17:26:41Z</time></trkpt>
<trkpt lat="46.30373" lon="11.757611"><ele>1641.31</ele><time>2022-02-05T17:26:43Z</time></trkpt>
<trkpt lat="46.304694" lon="11.757296"><ele>1629.84</ele><time>2022-02-05T17:26:44Z</time></trkpt>
<trkpt lat="46.304803" lon="11.757366"><ele>1628.95</ele><time>2022-02-05T17:26:46Z</time></trkpt>
<trkpt lat="46.30489" lon="11.757509"><ele>1628.48</ele><time>2022-02-05T17:26:48Z</time></trkpt>
<trkpt lat="46.304996" lon="11.757856"><ele>1631.47</ele><time>2022-02-05T17:26:50Z</time></trkpt>
<trkpt lat="46.30514" lon="11.758106"><ele>1633.11</ele><time>2022-02-05T17:26:51Z</time></trkpt>
<trkpt lat="46.305277" lon="11.758213"><ele>1633.69</ele><time>2022-02-05T17:26:53Z</time></trkpt>
<trkpt lat="46.305693" lon="11.75817"><ele>1624.73</ele><time>2022-02-05T17:26:55Z</time></trkpt>
<trkpt lat="46.306985" lon="11.758124"><ele>1604.2</ele><time>2022-02-05T17:26:57Z</time></trkpt>
<trkpt lat="46.307268" lon="11.758024"><ele>1598.7</ele><time>2022-02-05T17:26:58Z</time></trkpt>
<trkpt lat="46.307352" lon="11.758014"><ele>1598.32</ele><time>2022-02-05T17:27:00Z</time></trkpt>
<trkpt lat="46.307746" lon="11.758225"><ele>1597.38</ele><time>2022-02-05T17:27:02Z</time></trkpt>
<trkpt lat="46.307847" lon="11.758249"><ele>1596.57</ele><time>2022-02-05T17:27:04Z</time></trkpt>
<trkpt lat="46.308064" lon="11.758216"><ele>1593.6</ele><time>2022-02-05T17:27:05Z</time></trkpt>
<trkpt lat="46.308269" lon="11.758149"><ele>1589.43</ele><time>2022-02-05T17:27:07Z</time></trkpt>
<trkpt lat="46.308403" lon="11.758083"><ele>1587.19</ele><time>2022-02-05T17:27:09Z</time></trkpt>
<trkpt lat="46.308524" lon="11.75797"><ele>1585.6</ele><time>2022-02-05T17:27:11Z</time></trkpt>
<trkpt lat="46.308746" lon="11.757603"><ele>1583.05</ele><time>2022-02-05T17:27:12Z</time></trkpt>
<trkpt lat="46.308898" lon="11.75752"><ele>1582.99</ele><time>2022-02-05T17:27:14Z</time></trkpt>
<trkpt lat="46.309287" lon="11.757524"><ele>1579.21</ele><time>2022-02-05T17:27:16Z</time></trkpt>
<trkpt lat="46.309377" lon="11.757486"><ele>1577.47</ele><time>2022-02-05T17:27:18Z</time></trkpt>
<trkpt lat="46.309471" lon="11.757387"><ele>1574.54</ele><time>2022-02-05T17:27:20Z</time></trkpt>
<trkpt lat="46.309514" lon="11.757274"><ele>1571.74</ele><time>2022-02-05T17:27:21Z</time></trkpt>
<trkpt lat="46.309643" lon="11.756214"><ele>1566.88</ele><time>2022-02-05T17:27:23Z</time></trkpt>
<trkpt lat="46.309756" lon="11.75517"><ele>1568.89</ele><time>2022-02-05T17:27:25Z</time></trkpt>
<trkpt lat="46.309619" lon="11.754578"><ele>1564.83</ele><time>2022-02-05T17:27:27Z</time></trkpt>
<trkpt lat="46.3096" lon="11.754216"><ele>1566.26</ele><time>2022-02-05T17:27:28Z</time></trkpt>
<trkpt lat="46.309519" lon="11.753931"><ele>1566.62</ele><time>2022-02-05T17:27:30Z</time></trkpt>
<trkpt lat="46.309464" lon="11.753824"><ele>1566.21</ele><time>2022-02-05T17:27:32Z</time></trkpt>
<trkpt lat="46.309072" lon="11.75322"><ele>1566.68</ele><time>2022-02-05T17:27:34Z</time></trkpt>
<trkpt lat="46.309001" lon="11.753058"><ele>1568.57</ele><time>2022-02-05T17:27:35Z</time></trkpt>
<trkpt lat="46.308923" lon="11.752829"><ele>1569.02</ele><time>2022-02-05T17:27:37Z</time></trkpt>
<trkpt lat="46.308804" lon="11.752338"><ele>1569.49</ele><time>2022-02-05T17:27:39Z</time></trkpt>
<trkpt lat="46.308871" lon="11.752315"><ele>1570.43</ele><time>2022-02-05T17:27:39Z</time></trkpt>
<trkpt lat="46.30891" lon="11.752337"><ele>1570.79</ele><time>2022-02-05T17:27:39Z</time></trkpt>
<trkpt lat="46.308979" lon="11.752501"><ele>1570.65</ele><time>2022-02-05T17:27:41Z</time></trkpt>
<trkpt lat="46.309289" lon="11.753039"><ele>1573.72</ele><time>2022-02-05T17:27:42Z</time></trkpt>
<trkpt lat="46.309907" lon="11.753977"><ele>1580.3</ele><time>2022-02-05T17:27:44Z</time></trkpt>
<trkpt lat="46.310275" lon="11.754483"><ele>1582.93</ele><time>2022-02-05T17:27:45Z</time></trkpt>
<trkpt lat="46.310997" lon="11.755003"><ele>1586.15</ele><time>2022-02-05T17:27:46Z</time></trkpt>
<trkpt lat="46.311304" lon="11.755122"><ele>1587.49</ele><time>2022-02-05T17:27:48Z</time></trkpt>
<trkpt lat="46.311945" lon="11.75526"><ele>1597.35</ele><time>2022-02-05T17:27:49Z</time></trkpt>
<trkpt lat="46.31209" lon="11.755352"><ele>1603.6</ele><time>2022-02-05T17:27:51Z</time></trkpt>
<trkpt lat="46.312144" lon="11.755439"><ele>1606.91</ele><time>2022-02-05T17:27:52Z</time></trkpt>
<trkpt lat="46.312135" lon="11.755945"><ele>1614.16</ele><time>2022-02-05T17:27:53Z</time></trkpt>
<trkpt lat="46.312161" lon="11.756654"><ele>1614.84</ele><time>2022-02-05T17:27:55Z</time></trkpt>
<trkpt lat="46.312224" lon="11.756808"><ele>1614.52</ele><time>2022-02-05T17:27:56Z</time></trkpt>
<trkpt lat="46.312284" lon="11.756876"><ele>1614.96</ele><time>2022-02-05T17:27:58Z</time></trkpt>
<trkpt lat="46.312465" lon="11.756958"><ele>1616.16</ele><time>2022-02-05T17:27:59Z</time></trkpt>
<trkpt lat="46.312748" lon="11.75705"><ele>1616.69</ele><time>2022-02-05T17:28:00Z</time></trkpt>
<trkpt lat="46.313013" lon="11.757193"><ele>1616.8</ele><time>2022-02-05T17:28:02Z</time></trkpt>
<trkpt lat="46.313191" lon="11.757255"><ele>1617.09</ele><time>2022-02-05T17:28:03Z</time></trkpt>
<trkpt lat="46.313625" lon="11.757343"><ele>1621.94</ele><time>2022-02-05T17:28:04Z</time></trkpt>
<trkpt lat="46.314072" lon="11.757533"><ele>1626.01</ele><time>2022-02-05T17:28:06Z</time></trkpt>
<trkpt lat="46.314169" lon="11.75762"><ele>1626.59</ele><time>2022-02-05T17:28:07Z</time></trkpt>
<trkpt lat="46.314359" lon="11.757989"><ele>1622.44</ele><time>2022-02-05T17:28:09Z</time></trkpt>
<trkpt lat="46.314479" lon="11.758261"><ele>1622.35</ele><time>2022-02-05T17:28:10Z</time></trkpt>
<trkpt lat="46.314672" lon="11.75842"><ele>1626.85</ele><time>2022-02-05T17:28:11Z</time></trkpt>
<trkpt lat="46.315095" lon="11.758688"><ele>1631.1</ele><time>2022-02-05T17:28:13Z</time></trkpt>
<trkpt lat="46.315256" lon="11.758685"><ele>1635.35</ele><time>2022-02-05T17:28:14Z</time></trkpt>
<trkpt lat="46.315464" lon="11.758613"><ele>1638.97</ele><time>2022-02-05T17:28:16Z</time></trkpt>
<trkpt lat="46.315585" lon="11.758658"><ele>1639.59</ele><time>2022-02-05T17:28:17Z</time></trkpt>
<trkpt lat="46.315655" lon="11.758707"><ele>1639.83</ele><time>2022-02-05T17:28:18Z</time></trkpt>
<trkpt lat="46.315745" lon="11.758811"><ele>1639.63</ele><time>2022-02-05T17:28:20Z</time></trkpt>
<trkpt lat="46.315796" lon="11.758913"><ele>1637.6</ele><time>2022-02-05T17:28:21Z</time></trkpt>
<trkpt lat="46.315796" lon="11.758913"><ele>1637.6</ele><time>2022-02-05T17:28:21Z</time></trkpt>
<trkpt lat="46.316341" lon="11.760013"><ele>1635.58</ele><time>2022-02-05T17:28:23Z</time></trkpt>
<trkpt lat="46.316652" lon="11.760492"><ele>1637.21</ele><time>2022-02-05T17:28:24Z</time></trkpt>
<trkpt lat="46.316861" lon="11.760995"><ele>1636.79</ele><time>2022-02-05T17:28:26Z</time></trkpt>
<trkpt lat="46.31736" lon="11.761593"><ele>1641.15</ele><time>2022-02-05T17:28:27Z</time></trkpt>
<trkpt lat="46.317652" lon="11.761747"><ele>1642.04</ele><time>2022-02-05T17:28:29Z</time></trkpt>
<trkpt lat="46.317904" lon="11.76195"><ele>1641.66</ele><time>2022-02-05T17:28:31Z</time></trkpt>
<trkpt lat="46.318244" lon="11.762318"><ele>1646.79</ele><time>2022-02-05T17:28:32Z</time></trkpt>
<trkpt lat="46.318346" lon="11.762675"><ele>1650.34</ele><time>2022-02-05T17:28:34Z</time></trkpt>
<trkpt lat="46.318503" lon="11.763561"><ele>1644.73</ele><time>2022-02-05T17:28:35Z</time></trkpt>
<trkpt lat="46.318596" lon="11.763864"><ele>1644.21</ele><time>2022-02-05T17:28:37Z</time></trkpt>
<trkpt lat="46.31875" lon="11.764091"><ele>1647.13</ele><time>2022-02-05T17:28:38Z</time></trkpt>
<trkpt lat="46.318838" lon="11.764342"><ele>1649.76</ele><time>2022-02-05T17:28:40Z</time></trkpt>
<trkpt lat="46.318919" lon="11.764969"><ele>1655.67</ele><time>2022-02-05T17:28:42Z</time></trkpt>
<trkpt lat="46.319057" lon="11.765692"><ele>1660.05</ele><time>2022-02-05T17:28:43Z</time></trkpt>
<trkpt lat="46.319082" lon="11.765927"><ele>1658.0</ele><time>2022-02-05T17:28:45Z</time></trkpt>
<trkpt lat="46.31922" lon="11.766241"><ele>1655.85</ele><time>2022-02-05T17:28:46Z</time></trkpt>
<trkpt lat="46.319302" lon="11.766382"><ele>1656.96</ele><time>2022-02-05T17:28:48Z</time></trkpt>
<trkpt lat="46.319348" lon="11.766539"><ele>1656.92</ele><time>2022-02-05T17:28:49Z</time></trkpt>
<trkpt lat="46.319369" lon="11.766689"><ele>1655.94</ele><time>2022-02-05T17:28:51Z</time></trkpt>
<trkpt lat="46.319365" lon="11.766861"><ele>1654.6</ele><time>2022-02-05T17:28:52Z</time></trkpt>
<trkpt lat="46.31924" lon="11.767615"><ele>1654.83</ele><time>2022-02-05T17:28:54Z</time></trkpt>
<trkpt lat="46.319174" lon="11.767824"><ele>1655.49</ele><time>2022-02-05T17:28:56Z</time></trkpt>
<trkpt lat="46.319188" lon="11.767988"><ele>1656.98</ele><time>2022-02-05T17:28:57Z</time></trkpt>
<trkpt lat="46.319508" lon="11.768632"><ele>1659.35</ele><time>2022-02-05T17:28:59Z</time></trkpt>
<trkpt lat="46.319589" lon="11.769002"><ele>1658.83</ele><time>2022-02-05T17:29:00Z</time></trkpt>
<trkpt lat="46.319621" lon="11.769498"><ele>1660.21</ele><time>2022-02-05T17:29:02Z</time></trkpt>
<trkpt lat="46.319674" lon="11.770002"><ele>1661.11</ele><time>2022-02-05T17:29:03Z</time></trkpt>
<trkpt lat="46.319635" lon="11.770628"><ele>1659.58</ele><time>2022-02-05T17:29:05Z</time></trkpt>
<trkpt lat="46.319316" lon="11.77194"><ele>1658.85</ele><time>2022-02-05T17:29:07Z</time></trkpt>
<trkpt lat="46.319206" lon="11.772509"><ele>1658.52</ele><time>2022-02-05T17:29:08Z</time></trkpt>
<trkpt lat="46.319215" lon="11.772728"><ele>1661.44</ele><time>2022-02-05T17:29:10Z</time></trkpt>
<trkpt lat="46.319576" lon="11.774181"><ele>1671.22</ele><time>2022-02-05T17:29:11Z</time></trkpt>
<trkpt lat="46.319807" lon="11.774713"><ele>1671.83</ele><time>2022-02-05T17:29:13Z</time></trkpt>
<trkpt lat="46.320027" lon="11.775168"><ele>1672.96</ele><time>2022-02-05T17:29:14Z</time></trkpt>
<trkpt lat="46.320526" lon="11.776562"><ele>1671.84</ele><time>2022-02-05T17:29:16Z</time></trkpt>
<trkpt lat="46.320637" lon="11.776808"><ele>1673.7</ele><time>2022-02-05T17:29:18Z</time></trkpt>
<trkpt lat="46.321191" lon="11.777764"><ele>1683.08</ele><time>2022-02-05T17:29:19Z</time></trkpt>
<trkpt lat="46.32136" lon="11.77794"><ele>1686.17</ele><time>2022-02-05T17:29:21Z</time></trkpt>
<trkpt lat="46.321909" lon="11.778316"><ele>1685.0</ele><time>2022-02-05T17:29:22Z</time></trkpt>
<trkpt lat="46.322681" lon="11.778558"><ele>1685.9</ele><time>2022-02-05T17:29:24Z</time></trkpt>
<trkpt lat="46.322884" lon="11.77867"><ele>1688.24</ele><time>2022-02-05T17:29:25Z</time></trkpt>
<trkpt lat="46.32299" lon="11.778661"><ele>1690.99</ele><time>2022-02-05T17:29:27Z</time></trkpt>
<trkpt lat="46.323065" lon="11.778588"><ele>1693.41</ele><time>2022-02-05T17:29:28Z</time></trkpt>
<trkpt lat="46.323088" lon="11.778483"><ele>1694.86</ele><time>2022-02-05T17:29:30Z</time></trkpt>
<trkpt lat="46.32305" lon="11.778347"><ele>1695.76</ele><time>2022-02-05T17:29:32Z</time></trkpt>
<trkpt lat="46.322639" lon="11.777653"><ele>1699.69</ele><time>2022-02-05T17:29:33Z</time></trkpt>
<trkpt lat="46.322609" lon="11.777544"><ele>1701.6</ele><time>2022-02-05T17:29:35Z</time></trkpt>
<trkpt lat="46.322663" lon="11.777474"><ele>1703.85</ele><time>2022-02-05T17:29:36Z</time></trkpt>
<trkpt lat="46.322759" lon="11.777546"><ele>1703.88</ele><time>2022-02-05T17:29:38Z</time></trkpt>
<trkpt lat="46.322938" lon="11.777832"><ele>1702.07</ele><time>2022-02-05T17:29:39Z</time></trkpt>
<trkpt lat="46.323276" lon="11.778144"><ele>1701.1</ele><time>2022-02-05T17:29:41Z</time></trkpt>
<trkpt lat="46.323561" lon="11.778526"><ele>1707.52</ele><time>2022-02-05T17:29:43Z</time></trkpt>
<trkpt lat="46.323788" lon="11.778908"><ele>1713.46</ele><time>2022-02-05T17:29:44Z</time></trkpt>
<trkpt lat="46.32436" lon="11.77964"><ele>1729.11</ele><time>2022-02-05T17:29:46Z</time></trkpt>
<trkpt lat="46.32454" lon="11.780192"><ele>1728.25</ele><time>2022-02-05T17:29:47Z</time></trkpt>
<trkpt lat="46.324883" lon="11.780691"><ele>1735.66</ele><time>2022-02-05T17:29:49Z</time></trkpt>
<trkpt lat="46.325375" lon="11.781191"><ele>1740.13</ele><time>2022-02-05T17:29:50Z</time></trkpt>
<trkpt lat="46.325735" lon="11.781722"><ele>1745.36</ele><time>2022-02-05T17:29:52Z</time></trkpt>
<trkpt lat="46.32609" lon="11.782043"><ele>1750.48</ele><time>2022-02-05T17:29:53Z</time></trkpt>
<trkpt lat="46.32618" lon="11.78225"><ele>1746.31</ele><time>2022-02-05T17:29:55Z</time></trkpt>
<trkpt lat="46.32634" lon="11.782412"><ele>1750.94</ele><time>2022-02-05T17:29:57Z</time></trkpt>
<trkpt lat="46.326622" lon="11.782568"><ele>1760.12</ele><time>2022-02-05T17:29:58Z</time></trkpt>
<trkpt lat="46.326987" lon="11.783144"><ele>1761.26</ele><time>2022-02-05T17:30:00Z</time></trkpt>
<trkpt lat="46.327269" lon="11.783454"><ele>1764.78</ele><time>2022-02-05T17:30:01Z</time></trkpt>
<trkpt lat="46.327413" lon="11.783662"><ele>1766.07</ele><time>2022-02-05T17:30:03Z</time></trkpt>
<trkpt lat="46.327583" lon="11.784005"><ele>1767.08</ele><time>2022-02-05T17:30:04Z</time></trkpt>
<trkpt lat="46.32811" lon="11.784915"><ele>1778.67</ele><time>2022-02-05T17:30:06Z</time></trkpt>
<trkpt lat="46.328269" lon="11.785279"><ele>1777.37</ele><time>2022-02-05T17:30:08Z</time></trkpt>
<trkpt lat="46.328509" lon="11.785673"><ele>1781.38</ele><time>2022-02-05T17:30:09Z</time></trkpt>
<trkpt lat="46.32956" lon="11.787131"><ele>1803.17</ele><time>2022-02-05T17:30:11Z</time></trkpt>
<trkpt lat="46.33023" lon="11.787775"><ele>1811.68</ele><time>2022-02-05T17:30:12Z</time></trkpt>
<trkpt lat="46.330503" lon="11.787967"><ele>1815.05</ele><time>2022-02-05T17:30:14Z</time></trkpt>
<trkpt lat="46.330719" lon="11.788027"><ele>1815.64</ele><time>2022-02-05T17:30:15Z</time></trkpt>
<trkpt lat="46.330917" lon="11.788135"><ele>1814.48</ele><time>2022-02-05T17:30:17Z</time></trkpt>
<trkpt lat="46.331116" lon="11.788357"><ele>1811.14</ele><time>2022-02-05T17:30:18Z</time></trkpt>
<trkpt lat="46.331279" lon="11.788467"><ele>1815.28</ele><time>2022-02-05T17:30:20Z</time></trkpt>
<trkpt lat="46.332033" lon="11.788832"><ele>1837.79</ele><time>2022-02-05T17:30:22Z</time></trkpt>
<trkpt lat="46.332293" lon="11.788902"><ele>1835.07</ele><time>2022-02-05T17:30:23Z</time></trkpt>
<trkpt lat="46.332479" lon="11.788985"><ele>1832.18</ele><time>2022-02-05T17:30:25Z</time></trkpt>
<trkpt lat="46.333269" lon="11.789372"><ele>1849.81</ele><time>2022-02-05T17:30:26Z</time></trkpt>
<trkpt lat="46.334304" lon="11.789708"><ele>1859.39</ele><time>2022-02-05T17:30:28Z</time></trkpt>
<trkpt lat="46.334868" lon="11.790024"><ele>1861.84</ele><time>2022-02-05T17:30:29Z</time></trkpt>
<trkpt lat="46.335788" lon="11.790343"><ele>1875.41</ele><time>2022-02-05T17:30:31Z</time></trkpt>
<trkpt lat="46.336354" lon="11.790584"><ele>1880.42</ele><time>2022-02-05T17:30:33Z</time></trkpt>
<trkpt lat="46.336889" lon="11.79066"><ele>1886.53</ele><time>2022-02-05T17:30:34Z</time></trkpt>
<trkpt lat="46.337559" lon="11.790969"><ele>1892.2</ele><time>2022-02-05T17:30:36Z</time></trkpt>
<trkpt lat="46.337982" lon="11.791056"><ele>1901.88</ele><time>2022-02-05T17:30:37Z</time></trkpt>
<trkpt lat="46.338278" lon="11.791198"><ele>1905.14</ele><time>2022-02-05T17:30:39Z</time></trkpt>
<trkpt lat="46.338476" lon="11.791708"><ele>1902.43</ele><time>2022-02-05T17:30:40Z</time></trkpt>
<trkpt lat="46.338548" lon="11.791837"><ele>1901.71</ele><time>2022-02-05T17:30:42Z</time></trkpt>
<trkpt lat="46.33898" lon="11.792008"><ele>1905.09</ele><time>2022-02-05T17:30:43Z</time></trkpt>
<trkpt lat="46.339106" lon="11.79212"><ele>1905.33</ele><time>2022-02-05T17:30:45Z</time></trkpt>
<trkpt lat="46.339161" lon="11.792197"><ele>1905.24</ele><time>2022-02-05T17:30:47Z</time></trkpt>
<trkpt lat="46.339337" lon="11.792666"><ele>1907.53</ele><time>2022-02-05T17:30:48Z</time></trkpt>
<trkpt lat="46.33941" lon="11.792729"><ele>1909.3</ele><time>2022-02-05T17:30:50Z</time></trkpt>
<trkpt lat="46.339644" lon="11.792722"><ele>1915.67</ele><time>2022-02-05T17:30:51Z</time></trkpt>
<trkpt lat="46.339753" lon="11.792668"><ele>1918.68</ele><time>2022-02-05T17:30:53Z</time></trkpt>
<trkpt lat="46.339862" lon="11.79256"><ele>1921.86</ele><time>2022-02-05T17:30:54Z</time></trkpt>
<trkpt lat="46.340534" lon="11.791646"><ele>1930.03</ele><time>2022-02-05T17:30:56Z</time></trkpt>
<trkpt lat="46.340628" lon="11.791483"><ele>1930.1</ele><time>2022-02-05T17:30:58Z</time></trkpt>
<trkpt lat="46.340776" lon="11.791107"><ele>1930.76</ele><time>2022-02-05T17:30:59Z</time></trkpt>
<trkpt lat="46.340839" lon="11.790674"><ele>1933.26</ele><time>2022-02-05T17:31:01Z</time></trkpt>
<trkpt lat="46.340857" lon="11.790594"><ele>1934.1</ele><time>2022-02-05T17:31:02Z</time></trkpt>
<trkpt lat="46.340888" lon="11.790535"><ele>1934.86</ele><time>2022-02-05T17:31:04Z</time></trkpt>
<trkpt lat="46.340993" lon="11.790451"><ele>1936.67</ele><time>2022-02-05T17:31:05Z</time></trkpt>
<trkpt lat="46.341148" lon="11.790445"><ele>1938.82</ele><time>2022-02-05T17:31:07Z</time></trkpt>
<trkpt lat="46.34124" lon="11.790577"><ele>1939.97</ele><time>2022-02-05T17:31:08Z</time></trkpt>
<trkpt lat="46.341273" lon="11.790656"><ele>1940.91</ele><time>2022-02-05T17:31:10Z</time></trkpt>
<trkpt lat="46.341337" lon="11.791016"><ele>1944.27</ele><time>2022-02-05T17:31:12Z</time></trkpt>
<trkpt lat="46.341339" lon="11.791301"><ele>1945.61</ele><time>2022-02-05T17:31:13Z</time></trkpt>
<trkpt lat="46.341281" lon="11.791806"><ele>1947.36</ele><time>2022-02-05T17:31:15Z</time></trkpt>
<trkpt lat="46.341293" lon="11.792377"><ele>1949.46</ele><time>2022-02-05T17:31:16Z</time></trkpt>
<trkpt lat="46.341354" lon="11.792573"><ele>1950.49</ele><time>2022-02-05T17:31:18Z</time></trkpt>
<trkpt lat="46.341535" lon="11.792859"><ele>1954.06</ele><time>2022-02-05T17:31:19Z</time></trkpt>
<trkpt lat="46.341558" lon="11.792913"><ele>1954.43</ele><time>2022-02-05T17:31:21Z</time></trkpt>
<trkpt lat="46.341566" lon="11.793021"><ele>1955.1</ele><time>2022-02-05T17:31:23Z</time></trkpt>
<trkpt lat="46.34153" lon="11.793129"><ele>1955.83</ele><time>2022-02-05T17:31:24Z</time></trkpt>
<trkpt lat="46.341408" lon="11.793305"><ele>1955.2</ele><time>2022-02-05T17:31:26Z</time></trkpt>
<trkpt lat="46.341349" lon="11.793496"><ele>1955.67</ele><time>2022-02-05T17:31:27Z</time></trkpt>
<trkpt lat="46.341329" lon="11.793659"><ele>1956.47</ele><time>2022-02-05T17:31:29Z</time></trkpt>
<trkpt lat="46.341344" lon="11.793796"><ele>1957.46</ele><time>2022-02-05T17:31:30Z</time></trkpt>
<trkpt lat="46.341567" lon="11.79473"><ele>1967.65</ele><time>2022-02-05T17:31:32Z</time></trkpt>
<trkpt lat="46.341577" lon="11.794852"><ele>1969.11</ele><time>2022-02-05T17:31:33Z</time></trkpt>
<trkpt lat="46.341565" lon="11.795059"><ele>1971.04</ele><time>2022-02-05T17:31:35Z</time></trkpt>
<trkpt lat="46.341539" lon="11.795155"><ele>1971.53</ele><time>2022-02-05T17:31:37Z</time></trkpt>
<trkpt lat="46.341464" lon="11.795279"><ele>1971.82</ele><time>2022-02-05T17:31:38Z</time></trkpt>
<trkpt lat="46.341253" lon="11.795416"><ele>1971.51</ele><time>2022-02-05T17:31:40Z</time></trkpt>
<trkpt lat="46.341165" lon="11.795514"><ele>1971.93</ele><time>2022-02-05T17:31:41Z</time></trkpt>
<trkpt lat="46.341134" lon="11.79558"><ele>1972.26</ele><time>2022-02-05T17:31:43Z</time></trkpt>
<trkpt lat="46.341073" lon="11.795834"><ele>1972.32</ele><time>2022-02-05T17:31:44Z</time></trkpt>
<trkpt lat="46.341091" lon="11.796021"><ele>1972.73</ele><time>2022-02-05T17:31:46Z</time></trkpt>
<trkpt lat="46.341147" lon="11.79619"><ele>1974.3</ele><time>2022-02-05T17:31:48Z</time></trkpt>
<trkpt lat="46.341203" lon="11.796283"><ele>1975.77</ele><time>2022-02-05T17:31:49Z</time></trkpt>
<trkpt lat="46.341403" lon="11.796523"><ele>1979.59</ele><time>2022-02-05T17:31:51Z</time></trkpt>
<trkpt lat="46.341546" lon="11.79676"><ele>1983.14</ele><time>2022-02-05T17:31:52Z</time></trkpt>
<trkpt lat="46.341581" lon="11.796871"><ele>1984.58</ele><time>2022-02-05T17:31:54Z</time></trkpt>
<trkpt lat="46.341584" lon="11.796933"><ele>1985.28</ele><time>2022-02-05T17:31:55Z</time></trkpt>
<trkpt lat="46.341558" lon="11.797102"><ele>1987.48</ele><time>2022-02-05T17:31:57Z</time></trkpt>
<trkpt lat="46.341492" lon="11.797202"><ele>1988.45</ele><time>2022-02-05T17:31:58Z</time></trkpt>
<trkpt lat="46.341228" lon="11.797394"><ele>1992.32</ele><time>2022-02-05T17:32:00Z</time></trkpt>
<trkpt lat="46.340501" lon="11.798016"><ele>2004.5</ele><time>2022-02-05T17:32:02Z</time></trkpt>
<trkpt lat="46.340457" lon="11.798113"><ele>2005.76</ele><time>2022-02-05T17:32:03Z</time></trkpt>
<trkpt lat="46.340409" lon="11.798441"><ele>2010.54</ele><time>2022-02-05T17:32:05Z</time></trkpt>
<trkpt lat="46.34039" lon="11.798489"><ele>2011.24</ele><time>2022-02-05T17:32:06Z</time></trkpt>
<trkpt lat="46.340329" lon="11.798547"><ele>2011.54</ele><time>2022-02-05T17:32:08Z</time></trkpt>
<trkpt lat="46.340251" lon="11.798553"><ele>2010.86</ele><time>2022-02-05T17:32:09Z</time></trkpt>
<trkpt lat="46.340036" lon="11.798438"><ele>2008.01</ele><time>2022-02-05T17:32:11Z</time></trkpt>
<trkpt lat="46.339905" lon="11.798436"><ele>2008.19</ele><time>2022-02-05T17:32:13Z</time></trkpt>
<trkpt lat="46.339823" lon="11.798458"><ele>2008.88</ele><time>2022-02-05T17:32:14Z</time></trkpt>
<trkpt lat="46.339478" lon="11.798629"><ele>2014.19</ele><time>2022-02-05T17:32:16Z</time></trkpt>
<trkpt lat="46.33898" lon="11.79873"><ele>2021.24</ele><time>2022-02-05T17:32:17Z</time></trkpt>
<trkpt lat="46.338889" lon="11.798778"><ele>2022.61</ele><time>2022-02-05T17:32:19Z</time></trkpt>
<trkpt lat="46.338813" lon="11.798893"><ele>2023.96</ele><time>2022-02-05T17:32:20Z</time></trkpt>
<trkpt lat="46.338624" lon="11.799528"><ele>2032.95</ele><time>2022-02-05T17:32:22Z</time></trkpt>
<trkpt lat="46.338606" lon="11.799713"><ele>2034.88</ele><time>2022-02-05T17:32:23Z</time></trkpt>
<trkpt lat="46.338615" lon="11.800465"><ele>2037.04</ele><time>2022-02-05T17:32:25Z</time></trkpt>
<trkpt lat="46.338624" lon="11.80116"><ele>2033.91</ele><time>2022-02-05T17:32:27Z</time></trkpt>
<trkpt lat="46.338605" lon="11.801741"><ele>2031.53</ele><time>2022-02-05T17:32:28Z</time></trkpt>
<trkpt lat="46.338427" lon="11.803057"><ele>2019.66</ele><time>2022-02-05T17:32:30Z</time></trkpt>
<trkpt lat="46.338458" lon="11.803305"><ele>2017.29</ele><time>2022-02-05T17:32:31Z</time></trkpt>
<trkpt lat="46.338489" lon="11.803381"><ele>2015.67</ele><time>2022-02-05T17:32:33Z</time></trkpt>
<trkpt lat="46.338531" lon="11.803448"><ele>2013.65</ele><time>2022-02-05T17:32:34Z</time></trkpt>
<trkpt lat="46.338589" lon="11.803499"><ele>2011.77</ele><time>2022-02-05T17:32:36Z</time></trkpt>
<trkpt lat="46.338735" lon="11.803569"><ele>2008.47</ele><time>2022-02-05T17:32:38Z</time></trkpt>
<trkpt lat="46.339832" lon="11.803636"><ele>2008.23</ele><time>2022-02-05T17:32:39Z</time></trkpt>
<trkpt lat="46.339938" lon="11.80367"><ele>2006.38</ele><time>2022-02-05T17:32:41Z</time></trkpt>
<trkpt lat="46.340057" lon="11.80375"><ele>2003.71</ele><time>2022-02-05T17:32:42Z</time></trkpt>
<trkpt lat="46.340216" lon="11.803949"><ele>2000.23</ele><time>2022-02-05T17:32:44Z</time></trkpt>
<trkpt lat="46.340254" lon="11.804035"><ele>1999.41</ele><time>2022-02-05T17:32:45Z</time></trkpt>
<trkpt lat="46.340312" lon="11.804248"><ele>1997.54</ele><time>2022-02-05T17:32:47Z</time></trkpt>
<trkpt lat="46.340324" lon="11.80435"><ele>1996.3</ele><time>2022-02-05T17:32:49Z</time></trkpt>
<trkpt lat="46.340256" lon="11.806034"><ele>1977.08</ele><time>2022-02-05T17:32:50Z</time></trkpt>
<trkpt lat="46.340262" lon="11.806188"><ele>1976.31</ele><time>2022-02-05T17:32:52Z</time></trkpt>
<trkpt lat="46.340314" lon="11.80642"><ele>1975.85</ele><time>2022-02-05T17:32:53Z</time></trkpt>
<trkpt lat="46.340373" lon="11.806545"><ele>1975.75</ele><time>2022-02-05T17:32:55Z</time></trkpt>
<trkpt lat="46.340556" lon="11.806796"><ele>1978.13</ele><time>2022-02-05T17:32:56Z</time></trkpt>
<trkpt lat="46.34062" lon="11.806919"><ele>1979.8</ele><time>2022-02-05T17:32:58Z</time></trkpt>
<trkpt lat="46.34066" lon="11.807059"><ele>1980.23</ele><time>2022-02-05T17:32:59Z</time></trkpt>
<trkpt lat="46.340774" lon="11.808016"><ele>1967.23</ele><time>2022-02-05T17:33:01Z</time></trkpt>
<trkpt lat="46.340874" lon="11.808591"><ele>1964.44</ele><time>2022-02-05T17:33:03Z</time></trkpt>
<trkpt lat="46.340959" lon="11.809373"><ele>1956.44</ele><time>2022-02-05T17:33:04Z</time></trkpt>
<trkpt lat="46.340934" lon="11.810329"><ele>1943.95</ele><time>2022-02-05T17:33:06Z</time></trkpt>
<trkpt lat="46.340963" lon="11.810493"><ele>1943.74</ele><time>2022-02-05T17:33:07Z</time></trkpt>
<trkpt lat="46.341133" lon="11.811056"><ele>1948.4</ele><time>2022-02-05T17:33:09Z</time></trkpt>
<trkpt lat="46.341149" lon="11.811216"><ele>1948.03</ele><time>2022-02-05T17:33:10Z</time></trkpt>
<trkpt lat="46.341121" lon="11.811672"><ele>1940.44</ele><time>2022-02-05T17:33:12Z</time></trkpt>
<trkpt lat="46.340994" lon="11.812671"><ele>1937.21</ele><time>2022-02-05T17:33:14Z</time></trkpt>
<trkpt lat="46.34094" lon="11.812977"><ele>1932.15</ele><time>2022-02-05T17:33:15Z</time></trkpt>
<trkpt lat="46.340804" lon="11.813541"><ele>1923.47</ele><time>2022-02-05T17:33:17Z</time></trkpt>
<trkpt lat="46.340764" lon="11.813839"><ele>1920.69</ele><time>2022-02-05T17:33:18Z</time></trkpt>
<trkpt lat="46.340773" lon="11.814067"><ele>1919.83</ele><time>2022-02-05T17:33:20Z</time></trkpt>
<trkpt lat="46.34082" lon="11.814345"><ele>1918.36</ele><time>2022-02-05T17:33:21Z</time></trkpt>
<trkpt lat="46.340859" lon="11.814481"><ele>1917.54</ele><time>2022-02-05T17:33:23Z</time></trkpt>
<trkpt lat="46.341182" lon="11.815105"><ele>1919.39</ele><time>2022-02-05T17:33:24Z</time></trkpt>
<trkpt lat="46.341216" lon="11.815231"><ele>1919.15</ele><time>2022-02-05T17:33:26Z</time></trkpt>
<trkpt lat="46.34129" lon="11.815845"><ele>1913.91</ele><time>2022-02-05T17:33:28Z</time></trkpt>
<trkpt lat="46.341384" lon="11.816244"><ele>1913.42</ele><time>2022-02-05T17:33:29Z</time></trkpt>
<trkpt lat="46.341457" lon="11.81646"><ele>1912.24</ele><time>2022-02-05T17:33:31Z</time></trkpt>
<trkpt lat="46.341587" lon="11.816727"><ele>1912.92</ele><time>2022-02-05T17:33:32Z</time></trkpt>
<trkpt lat="46.341692" lon="11.816875"><ele>1916.13</ele><time>2022-02-05T17:33:34Z</time></trkpt>
<trkpt lat="46.341752" lon="11.817033"><ele>1917.55</ele><time>2022-02-05T17:33:35Z</time></trkpt>
<trkpt lat="46.341795" lon="11.817635"><ele>1914.37</ele><time>2022-02-05T17:33:37Z</time></trkpt>
<trkpt lat="46.341858" lon="11.818032"><ele>1913.77</ele><time>2022-02-05T17:33:39Z</time></trkpt>
<trkpt lat="46.341978" lon="11.818586"><ele>1907.62</ele><time>2022-02-05T17:33:40Z</time></trkpt>
<trkpt lat="46.342276" lon="11.819327"><ele>1905.66</ele><time>2022-02-05T17:33:42Z</time></trkpt>
<trkpt lat="46.342644" lon="11.819938"><ele>1901.03</ele><time>2022-02-05T17:33:43Z</time></trkpt>
<trkpt lat="46.342764" lon="11.820224"><ele>1897.5</ele><time>2022-02-05T17:33:45Z</time></trkpt>
<trkpt lat="46.342793" lon="11.820402"><ele>1896.26</ele><time>2022-02-05T17:33:46Z</time></trkpt>
<trkpt lat="46.342791" lon="11.821475"><ele>1892.09</ele><time>2022-02-05T17:33:48Z</time></trkpt>
<trkpt lat="46.342929" lon="11.822678"><ele>1885.98</ele><time>2022-02-05T17:33:49Z</time></trkpt>
<trkpt lat="46.342922" lon="11.823052"><ele>1883.69</ele><time>2022-02-05T17:33:51Z</time></trkpt>
<trkpt lat="46.342864" lon="11.823548"><ele>1881.56</ele><time>2022-02-05T17:33:53Z</time></trkpt>
<trkpt lat="46.342858" lon="11.823718"><ele>1881.61</ele><time>2022-02-05T17:33:54Z</time></trkpt>
<trkpt lat="46.342859" lon="11.823873"><ele>1881.47</ele><time>2022-02-05T17:33:56Z</time></trkpt>
<trkpt lat="46.342891" lon="11.824092"><ele>1878.83</ele><time>2022-02-05T17:33:57Z</time></trkpt>
<trkpt lat="46.34294" lon="11.824265"><ele>1877.27</ele><time>2022-02-05T17:33:59Z</time></trkpt>
<trkpt lat="46.343334" lon="11.825065"><ele>1869.07</ele><time>2022-02-05T17:34:00Z</time></trkpt>
<trkpt lat="46.34347" lon="11.825437"><ele>1864.33</ele><time>2022-02-05T17:34:02Z</time></trkpt>
<trkpt lat="46.3437" lon="11.826298"><ele>1863.2</ele><time>2022-02-05T17:34:04Z</time></trkpt>
<trkpt lat="46.343954" lon="11.827335"><ele>1858.17</ele><time>2022-02-05T17:34:05Z</time></trkpt>
<trkpt lat="46.343981" lon="11.827514"><ele>1856.88</ele><time>2022-02-05T17:34:07Z</time></trkpt>
<trkpt lat="46.344002" lon="11.827968"><ele>1854.06</ele><time>2022-02-05T17:34:08Z</time></trkpt>
<trkpt lat="46.343946" lon="11.830037"><ele>1837.51</ele><time>2022-02-05T17:34:10Z</time></trkpt>
<trkpt lat="46.343958" lon="11.830322"><ele>1845.37</ele><time>2022-02-05T17:34:11Z</time></trkpt>
<trkpt lat="46.343989" lon="11.830634"><ele>1842.38</ele><time>2022-02-05T17:34:13Z</time></trkpt>
<trkpt lat="46.344306" lon="11.831857"><ele>1830.58</ele><time>2022-02-05T17:34:14Z</time></trkpt>
<trkpt lat="46.34439" lon="11.83224"><ele>1832.88</ele><time>2022-02-05T17:34:16Z</time></trkpt>
<trkpt lat="46.344418" lon="11.83251"><ele>1828.41</ele><time>2022-02-05T17:34:18Z</time></trkpt>
<trkpt lat="46.344414" lon="11.832777"><ele>1823.25</ele><time>2022-02-05T17:34:19Z</time></trkpt>
<trkpt lat="46.344475" lon="11.833174"><ele>1816.78</ele><time>2022-02-05T17:34:21Z</time></trkpt>
<trkpt lat="46.344501" lon="11.833251"><ele>1816.16</ele><time>2022-02-05T17:34:22Z</time></trkpt>
<trkpt lat="46.344613" lon="11.833454"><ele>1814.77</ele><time>2022-02-05T17:34:24Z</time></trkpt>
<trkpt lat="46.344617" lon="11.833511"><ele>1813.08</ele><time>2022-02-05T17:34:25Z</time></trkpt>
<trkpt lat="46.344607" lon="11.833566"><ele>1810.93</ele><time>2022-02-05T17:34:27Z</time></trkpt>
<trkpt lat="46.344568" lon="11.833616"><ele>1807.82</ele><time>2022-02-05T17:34:29Z</time></trkpt>
<trkpt lat="46.344518" lon="11.833638"><ele>1805.41</ele><time>2022-02-05T17:34:30Z</time></trkpt>
<trkpt lat="46.344472" lon="11.833624"><ele>1803.83</ele><time>2022-02-05T17:34:32Z</time></trkpt>
<trkpt lat="46.344441" lon="11.833583"><ele>1803.72</ele><time>2022-02-05T17:34:33Z</time></trkpt>
<trkpt lat="46.344361" lon="11.833218"><ele>1810.81</ele><time>2022-02-05T17:34:35Z</time></trkpt>
<trkpt lat="46.343624" lon="11.831453"><ele>1796.69</ele><time>2022-02-05T17:34:36Z</time></trkpt>
<trkpt lat="46.342167" lon="11.82853"><ele>1765.26</ele><time>2022-02-05T17:34:38Z</time></trkpt>
<trkpt lat="46.342097" lon="11.828419"><ele>1764.95</ele><time>2022-02-05T17:34:39Z</time></trkpt>
<trkpt lat="46.342011" lon="11.82833"><ele>1763.42</ele><time>2022-02-05T17:34:41Z</time></trkpt>
<trkpt lat="46.341703" lon="11.828132"><ele>1757.81</ele><time>2022-02-05T17:34:43Z</time></trkpt>
<trkpt lat="46.341468" lon="11.827886"><ele>1757.38</ele><time>2022-02-05T17:34:44Z</time></trkpt>
<trkpt lat="46.341409" lon="11.827871"><ele>1756.2</ele><time>2022-02-05T17:34:46Z</time></trkpt>
<trkpt lat="46.341386" lon="11.827885"><ele>1755.18</ele><time>2022-02-05T17:34:47Z</time></trkpt>
<trkpt lat="46.341357" lon="11.827984"><ele>1751.43</ele><time>2022-02-05T17:34:49Z</time></trkpt>
<trkpt lat="46.341366" lon="11.828036"><ele>1750.54</ele><time>2022-02-05T17:34:50Z</time></trkpt>
<trkpt lat="46.34162" lon="11.828407"><ele>1747.7</ele><time>2022-02-05T17:34:52Z</time></trkpt>
<trkpt lat="46.341694" lon="11.828584"><ele>1746.02</ele><time>2022-02-05T17:34:54Z</time></trkpt>
<trkpt lat="46.341739" lon="11.828746"><ele>1745.81</ele><time>2022-02-05T17:34:55Z</time></trkpt>
<trkpt lat="46.34199" lon="11.830323"><ele>1735.44</ele><time>2022-02-05T17:34:57Z</time></trkpt>
<trkpt lat="46.342129" lon="11.831054"><ele>1731.6</ele><time>2022-02-05T17:34:58Z</time></trkpt>
<trkpt lat="46.342217" lon="11.831912"><ele>1728.2</ele><time>2022-02-05T17:35:00Z</time></trkpt>
<trkpt lat="46.342508" lon="11.833253"><ele>1713.47</ele><time>2022-02-05T17:35:01Z</time></trkpt>
<trkpt lat="46.342577" lon="11.833431"><ele>1713.66</ele><time>2022-02-05T17:35:03Z</time></trkpt>
<trkpt lat="46.343175" lon="11.834626"><ele>1706.84</ele><time>2022-02-05T17:35:04Z</time></trkpt>
<trkpt lat="46.343574" lon="11.835802"><ele>1696.44</ele><time>2022-02-05T17:35:06Z</time></trkpt>
<trkpt lat="46.344073" lon="11.837009"><ele>1684.84</ele><time>2022-02-05T17:35:08Z</time></trkpt>
<trkpt lat="46.344959" lon="11.838671"><ele>1677.38</ele><time>2022-02-05T17:35:09Z</time></trkpt>
<trkpt lat="46.345444" lon="11.840095"><ele>1669.85</ele><time>2022-02-05T17:35:11Z</time></trkpt>
<trkpt lat="46.345547" lon="11.84034"><ele>1668.17</ele><time>2022-02-05T17:35:12Z</time></trkpt>
<trkpt lat="46.345756" lon="11.840747"><ele>1655.96</ele><time>2022-02-05T17:35:14Z</time></trkpt>
<trkpt lat="46.346605" lon="11.842168"><ele>1644.92</ele><time>2022-02-05T17:35:15Z</time></trkpt>
<trkpt lat="46.346986" lon="11.842739"><ele>1642.8</ele><time>2022-02-05T17:35:17Z</time></trkpt>
<trkpt lat="46.347193" lon="11.842946"><ele>1642.03</ele><time>2022-02-05T17:35:19Z</time></trkpt>
<trkpt lat="46.347343" lon="11.843035"><ele>1640.95</ele><time>2022-02-05T17:35:20Z</time></trkpt>
<trkpt lat="46.347673" lon="11.843141"><ele>1639.44</ele><time>2022-02-05T17:35:22Z</time></trkpt>
<trkpt lat="46.347861" lon="11.843245"><ele>1637.47</ele><time>2022-02-05T17:35:23Z</time></trkpt>
<trkpt lat="46.348066" lon="11.843477"><ele>1631.4</ele><time>2022-02-05T17:35:25Z</time></trkpt>
<trkpt lat="46.348802" lon="11.844412"><ele>1618.43</ele><time>2022-02-05T17:35:26Z</time></trkpt>
<trkpt lat="46.348952" lon="11.844596"><ele>1616.38</ele><time>2022-02-05T17:35:28Z</time></trkpt>
<trkpt lat="46.350023" lon="11.84584"><ele>1603.24</ele><time>2022-02-05T17:35:29Z</time></trkpt>
<trkpt lat="46.35053" lon="11.846363"><ele>1595.98</ele><time>2022-02-05T17:35:31Z</time></trkpt>
<trkpt lat="46.350978" lon="11.846676"><ele>1592.0</ele><time>2022-02-05T17:35:33Z</time></trkpt>
<trkpt lat="46.351135" lon="11.846725"><ele>1594.29</ele><time>2022-02-05T17:35:34Z</time></trkpt>
<trkpt lat="46.3513" lon="11.846725"><ele>1595.12</ele><time>2022-02-05T17:35:36Z</time></trkpt>
<trkpt lat="46.351647" lon="11.846682"><ele>1593.62</ele><time>2022-02-05T17:35:37Z</time></trkpt>
<trkpt lat="46.351703" lon="11.846739"><ele>1591.26</ele><time>2022-02-05T17:35:39Z</time></trkpt>
<trkpt lat="46.351709" lon="11.84681"><ele>1588.68</ele><time>2022-02-05T17:35:40Z</time></trkpt>
<trkpt lat="46.351697" lon="11.846866"><ele>1586.72</ele><time>2022-02-05T17:35:42Z</time></trkpt>
<trkpt lat="46.351664" lon="11.846902"><ele>1585.62</ele><time>2022-02-05T17:35:44Z</time></trkpt>
<trkpt lat="46.351305" lon="11.846892"><ele>1593.59</ele><time>2022-02-05T17:35:45Z</time></trkpt>
<trkpt lat="46.351166" lon="11.846915"><ele>1591.98</ele><time>2022-02-05T17:35:47Z</time></trkpt>
<trkpt lat="46.35046" lon="11.84714"><ele>1580.13</ele><time>2022-02-05T17:35:48Z</time></trkpt>
<trkpt lat="46.349465" lon="11.847631"><ele>1572.85</ele><time>2022-02-05T17:35:50Z</time></trkpt>
<trkpt lat="46.349411" lon="11.847675"><ele>1571.09</ele><time>2022-02-05T17:35:51Z</time></trkpt>
<trkpt lat="46.349374" lon="11.847733"><ele>1569.13</ele><time>2022-02-05T17:35:53Z</time></trkpt>
<trkpt lat="46.349363" lon="11.847874"><ele>1563.97</ele><time>2022-02-05T17:35:55Z</time></trkpt>
<trkpt lat="46.349382" lon="11.847955"><ele>1560.86</ele><time>2022-02-05T17:35:56Z</time></trkpt>
<trkpt lat="46.349687" lon="11.848349"><ele>1549.32</ele><time>2022-02-05T17:35:58Z</time></trkpt>
<trkpt lat="46.350092" lon="11.848784"><ele>1545.01</ele><time>2022-02-05T17:35:59Z</time></trkpt>
<trkpt lat="46.351281" lon="11.849189"><ele>1539.95</ele><time>2022-02-05T17:36:01Z</time></trkpt>
<trkpt lat="46.351481" lon="11.849187"><ele>1537.45</ele><time>2022-02-05T17:36:02Z</time></trkpt>
<trkpt lat="46.351551" lon="11.849151"><ele>1536.67</ele><time>2022-02-05T17:36:04Z</time></trkpt>
<trkpt lat="46.351852" lon="11.848902"><ele>1531.92</ele><time>2022-02-05T17:36:05Z</time></trkpt>
<trkpt lat="46.351969" lon="11.848772"><ele>1531.6</ele><time>2022-02-05T17:36:07Z</time></trkpt>
<trkpt lat="46.352212" lon="11.848445"><ele>1535.95</ele><time>2022-02-05T17:36:09Z</time></trkpt>
<trkpt lat="46.352293" lon="11.848406"><ele>1535.4</ele><time>2022-02-05T17:36:10Z</time></trkpt>
<trkpt lat="46.35243" lon="11.848389"><ele>1532.9</ele><time>2022-02-05T17:36:12Z</time></trkpt>
<trkpt lat="46.352529" lon="11.848423"><ele>1529.96</ele><time>2022-02-05T17:36:13Z</time></trkpt>
<trkpt lat="46.352614" lon="11.848486"><ele>1527.02</ele><time>2022-02-05T17:36:15Z</time></trkpt>
<trkpt lat="46.352745" lon="11.848626"><ele>1521.92</ele><time>2022-02-05T17:36:16Z</time></trkpt>
<trkpt lat="46.35282" lon="11.848674"><ele>1519.49</ele><time>2022-02-05T17:36:18Z</time></trkpt>
<trkpt lat="46.352909" lon="11.848688"><ele>1517.51</ele><time>2022-02-05T17:36:20Z</time></trkpt>
<trkpt lat="46.352994" lon="11.848668"><ele>1516.78</ele><time>2022-02-05T17:36:21Z</time></trkpt>
<trkpt lat="46.353364" lon="11.8485"><ele>1509.99</ele><time>2022-02-05T17:36:23Z</time></trkpt>
<trkpt lat="46.353409" lon="11.848455"><ele>1508.53</ele><time>2022-02-05T17:36:24Z</time></trkpt>
<trkpt lat="46.353603" lon="11.848085"><ele>1521.89</ele><time>2022-02-05T17:36:26Z</time></trkpt>
<trkpt lat="46.353692" lon="11.848016"><ele>1525.28</ele><time>2022-02-05T17:36:27Z</time></trkpt>
<trkpt lat="46.353733" lon="11.84802"><ele>1524.74</ele><time>2022-02-05T17:36:29Z</time></trkpt>
<trkpt lat="46.354177" lon="11.84838"><ele>1503.31</ele><time>2022-02-05T17:36:30Z</time></trkpt>
<trkpt lat="46.354246" lon="11.848472"><ele>1501.42</ele><time>2022-02-05T17:36:32Z</time></trkpt>
<trkpt lat="46.354292" lon="11.84859"><ele>1497.55</ele><time>2022-02-05T17:36:34Z</time></trkpt>
<trkpt lat="46.354427" lon="11.848806"><ele>1494.89</ele><time>2022-02-05T17:36:35Z</time></trkpt>
<trkpt lat="46.354853" lon="11.849205"><ele>1491.61</ele><time>2022-02-05T17:36:37Z</time></trkpt>
<trkpt lat="46.354977" lon="11.849274"><ele>1489.75</ele><time>2022-02-05T17:36:38Z</time></trkpt>
<trkpt lat="46.355073" lon="11.849284"><ele>1487.57</ele><time>2022-02-05T17:36:40Z</time></trkpt>
<trkpt lat="46.355195" lon="11.849245"><ele>1486.21</ele><time>2022-02-05T17:36:41Z</time></trkpt>
<trkpt lat="46.355405" lon="11.849136"><ele>1485.04</ele><time>2022-02-05T17:36:43Z</time></trkpt>
<trkpt lat="46.356091" lon="11.848588"><ele>1472.91</ele><time>2022-02-05T17:36:45Z</time></trkpt>
<trkpt lat="46.356637" lon="11.847876"><ele>1465.55</ele><time>2022-02-05T17:36:46Z</time></trkpt>
<trkpt lat="46.356794" lon="11.847718"><ele>1464.26</ele><time>2022-02-05T17:36:48Z</time></trkpt>
<trkpt lat="46.357067" lon="11.847517"><ele>1458.32</ele><time>2022-02-05T17:36:49Z</time></trkpt>
<trkpt lat="46.357166" lon="11.847415"><ele>1456.15</ele><time>2022-02-05T17:36:51Z</time></trkpt>
<trkpt lat="46.357577" lon="11.846739"><ele>1452.76</ele><time>2022-02-05T17:36:52Z</time></trkpt>
<trkpt lat="46.357945" lon="11.846316"><ele>1451.54</ele><time>2022-02-05T17:36:54Z</time></trkpt>
<trkpt lat="46.358004" lon="11.846268"><ele>1450.93</ele><time>2022-02-05T17:36:55Z</time></trkpt>
<trkpt lat="46.358126" lon="11.846256"><ele>1449.02</ele><time>2022-02-05T17:36:57Z</time></trkpt>
<trkpt lat="46.358305" lon="11.846377"><ele>1444.63</ele><time>2022-02-05T17:36:59Z</time></trkpt>
<trkpt lat="46.358418" lon="11.846397"><ele>1443.47</ele><time>2022-02-05T17:37:00Z</time></trkpt>
<trkpt lat="46.35863" lon="11.846222"><ele>1446.14</ele><time>2022-02-05T17:37:02Z</time></trkpt>
<trkpt lat="46.35895" lon="11.846137"><ele>1438.59</ele><time>2022-02-05T17:37:03Z</time></trkpt>
<trkpt lat="46.359002" lon="11.846081"><ele>1436.7</ele><time>2022-02-05T17:37:05Z</time></trkpt>
<trkpt lat="46.359063" lon="11.845958"><ele>1435.16</ele><time>2022-02-05T17:37:06Z</time></trkpt>
<trkpt lat="46.359154" lon="11.845652"><ele>1436.74</ele><time>2022-02-05T17:37:08Z</time></trkpt>
<trkpt lat="46.359259" lon="11.845477"><ele>1438.74</ele><time>2022-02-05T17:37:10Z</time></trkpt>
<trkpt lat="46.359521" lon="11.845324"><ele>1433.02</ele><time>2022-02-05T17:37:11Z</time></trkpt>
<trkpt lat="46.359663" lon="11.84521"><ele>1428.13</ele><time>2022-02-05T17:37:13Z</time></trkpt>
<trkpt lat="46.360217" lon="11.844628"><ele>1407.69</ele><time>2022-02-05T17:37:14Z</time></trkpt>
<trkpt lat="46.360292" lon="11.8446"><ele>1405.7</ele><time>2022-02-05T17:37:15Z</time></trkpt>
<trkpt lat="46.360453" lon="11.844371"><ele>1407.11</ele><time>2022-02-05T17:37:16Z</time></trkpt>
<trkpt lat="46.360844" lon="11.843664"><ele>1414.4</ele><time>2022-02-05T17:37:17Z</time></trkpt>
<trkpt lat="46.3609" lon="11.843626"><ele>1413.94</ele><time>2022-02-05T17:37:18Z</time></trkpt>
<trkpt lat="46.360946" lon="11.843622"><ele>1412.88</ele><time>2022-02-05T17:37:19Z</time></trkpt>
<trkpt lat="46.361019" lon="11.843677"><ele>1409.68</ele><time>2022-02-05T17:37:19Z</time></trkpt>
<trkpt lat="46.36103" lon="11.843704"><ele>1408.38</ele><time>2022-02-05T17:37:20Z</time></trkpt>
<trkpt lat="46.36103" lon="11.843704"><ele>1408.38</ele><time>2022-02-05T17:37:20Z</time></trkpt>
<trkpt lat="46.361019" lon="11.843677"><ele>1409.68</ele><time>2022-02-05T17:37:21Z</time></trkpt>
<trkpt lat="46.360946" lon="11.843622"><ele>1412.88</ele><time>2022-02-05T17:37:22Z</time></trkpt>
<trkpt lat="46.3609" lon="11.843626"><ele>1413.94</ele><time>2022-02-05T17:37:23Z</time></trkpt>
<trkpt lat="46.360844" lon="11.843664"><ele>1414.4</ele><time>2022-02-05T17:37:24Z</time></trkpt>
<trkpt lat="46.360453" lon="11.844371"><ele>1407.11</ele><time>2022-02-05T17:37:24Z</time></trkpt>
<trkpt lat="46.360292" lon="11.8446"><ele>1405.7</ele><time>2022-02-05T17:37:25Z</time></trkpt>
<trkpt lat="46.360217" lon="11.844628"><ele>1407.69</ele><time>2022-02-05T17:37:26Z</time></trkpt>
<trkpt lat="46.360174" lon="11.844539"><ele>1411.5</ele><time>2022-02-05T17:37:28Z</time></trkpt>
<trkpt lat="46.360191" lon="11.844416"><ele>1414.03</ele><time>2022-02-05T17:37:30Z</time></trkpt>
<trkpt lat="46.360435" lon="11.844044"><ele>1417.82</ele><time>2022-02-05T17:37:32Z</time></trkpt>
<trkpt lat="46.360547" lon="11.843796"><ele>1420.79</ele><time>2022-02-05T17:37:34Z</time></trkpt>
<trkpt lat="46.360643" lon="11.843415"><ele>1432.2</ele><time>2022-02-05T17:37:36Z</time></trkpt>
<trkpt lat="46.360706" lon="11.843225"><ele>1436.67</ele><time>2022-02-05T17:37:37Z</time></trkpt>
<trkpt lat="46.360842" lon="11.843061"><ele>1439.56</ele><time>2022-02-05T17:37:39Z</time></trkpt>
<trkpt lat="46.360976" lon="11.842986"><ele>1439.16</ele><time>2022-02-05T17:37:41Z</time></trkpt>
<trkpt lat="46.361066" lon="11.842908"><ele>1439.4</ele><time>2022-02-05T17:37:43Z</time></trkpt>
<trkpt lat="46.361204" lon="11.842674"><ele>1442.31</ele><time>2022-02-05T17:37:45Z</time></trkpt>
<trkpt lat="46.361971" lon="11.840955"><ele>1453.09</ele><time>2022-02-05T17:37:47Z</time></trkpt>
<trkpt lat="46.361978" lon="11.840891"><ele>1453.95</ele><time>2022-02-05T17:37:49Z</time></trkpt>
<trkpt lat="46.361955" lon="11.840782"><ele>1455.83</ele><time>2022-02-05T17:37:51Z</time></trkpt>
<trkpt lat="46.361893" lon="11.840736"><ele>1457.61</ele><time>2022-02-05T17:37:53Z</time></trkpt>
<trkpt lat="46.361851" lon="11.840748"><ele>1458.1</ele><time>2022-02-05T17:37:54Z</time></trkpt>
<trkpt lat="46.361581" lon="11.841167"><ele>1456.93</ele><time>2022-02-05T17:37:56Z</time></trkpt>
<trkpt lat="46.361532" lon="11.841205"><ele>1457.83</ele><time>2022-02-05T17:37:58Z</time></trkpt>
<trkpt lat="46.361497" lon="11.841208"><ele>1458.88</ele><time>2022-02-05T17:38:00Z</time></trkpt>
<trkpt lat="46.36147" lon="11.84118"><ele>1460.2</ele><time>2022-02-05T17:38:02Z</time></trkpt>
<trkpt lat="46.361452" lon="11.841087"><ele>1462.37</ele><time>2022-02-05T17:38:04Z</time></trkpt>
<trkpt lat="46.361472" lon="11.841028"><ele>1462.72</ele><time>2022-02-05T17:38:06Z</time></trkpt>
<trkpt lat="46.36156" lon="11.84092"><ele>1461.46</ele><time>2022-02-05T17:38:08Z</time></trkpt>
<trkpt lat="46.361654" lon="11.840706"><ele>1462.6</ele><time>2022-02-05T17:38:09Z</time></trkpt>
<trkpt lat="46.36168" lon="11.840596"><ele>1464.69</ele><time>2022-02-05T17:38:11Z</time></trkpt>
<trkpt lat="46.361685" lon="11.840495"><ele>1466.91</ele><time>2022-02-05T17:38:13Z</time></trkpt>
<trkpt lat="46.361668" lon="11.840392"><ele>1469.51</ele><time>2022-02-05T17:38:15Z</time></trkpt>
<trkpt lat="46.361594" lon="11.840108"><ele>1477.94</ele><time>2022-02-05T17:38:17Z</time></trkpt>
<trkpt lat="46.361625" lon="11.83998"><ele>1479.76</ele><time>2022-02-05T17:38:19Z</time></trkpt>
<trkpt lat="46.361658" lon="11.839956"><ele>1479.23</ele><time>2022-02-05T17:38:21Z</time></trkpt>
<trkpt lat="46.361828" lon="11.839965"><ele>1475.34</ele><time>2022-02-05T17:38:23Z</time></trkpt>
<trkpt lat="46.361873" lon="11.839942"><ele>1474.94</ele><time>2022-02-05T17:38:25Z</time></trkpt>
<trkpt lat="46.361911" lon="11.839889"><ele>1475.48</ele><time>2022-02-05T17:38:26Z</time></trkpt>
<trkpt lat="46.362004" lon="11.83967"><ele>1479.76</ele><time>2022-02-05T17:38:28Z</time></trkpt>
<trkpt lat="46.362252" lon="11.83935"><ele>1483.54</ele><time>2022-02-05T17:38:30Z</time></trkpt>
<trkpt lat="46.362406" lon="11.839038"><ele>1486.13</ele><time>2022-02-05T17:38:32Z</time></trkpt>
<trkpt lat="46.36258" lon="11.838589"><ele>1489.75</ele><time>2022-02-05T17:38:34Z</time></trkpt>
<trkpt lat="46.362619" lon="11.83852"><ele>1490.98</ele><time>2022-02-05T17:38:36Z</time></trkpt>
<trkpt lat="46.362673" lon="11.838463"><ele>1491.3</ele><time>2022-02-05T17:38:38Z</time></trkpt>
<trkpt lat="46.362731" lon="11.838432"><ele>1490.54</ele><time>2022-02-05T17:38:40Z</time></trkpt>
<trkpt lat="46.362938" lon="11.838428"><ele>1489.29</ele><time>2022-02-05T17:38:41Z</time></trkpt>
<trkpt lat="46.363106" lon="11.83837"><ele>1490.68</ele><time>2022-02-05T17:38:43Z</time></trkpt>
<trkpt lat="46.363273" lon="11.838207"><ele>1495.75</ele><time>2022-02-05T17:38:45Z</time></trkpt>
<trkpt lat="46.363361" lon="11.838073"><ele>1499.36</ele><time>2022-02-05T17:38:47Z</time></trkpt>
<trkpt lat="46.363372" lon="11.837993"><ele>1501.52</ele><time>2022-02-05T17:38:49Z</time></trkpt>
<trkpt lat="46.36333" lon="11.837907"><ele>1504.26</ele><time>2022-02-05T17:38:51Z</time></trkpt>
<trkpt lat="46.363075" lon="11.837861"><ele>1503.09</ele><time>2022-02-05T17:38:53Z</time></trkpt>
<trkpt lat="46.36299" lon="11.837796"><ele>1506.14</ele><time>2022-02-05T17:38:55Z</time></trkpt>
<trkpt lat="46.362962" lon="11.837704"><ele>1509.48</ele><time>2022-02-05T17:38:57Z</time></trkpt>
<trkpt lat="46.362981" lon="11.837592"><ele>1512.35</ele><time>2022-02-05T17:38:58Z</time></trkpt>
<trkpt lat="46.363012" lon="11.837559"><ele>1512.83</ele><time>2022-02-05T17:39:00Z</time></trkpt>
<trkpt lat="46.363222" lon="11.837498"><ele>1514.66</ele><time>2022-02-05T17:39:02Z</time></trkpt>
<trkpt lat="46.36379" lon="11.837131"><ele>1514.96</ele><time>2022-02-05T17:39:04Z</time></trkpt>
<trkpt lat="46.363857" lon="11.837051"><ele>1515.83</ele><time>2022-02-05T17:39:06Z</time></trkpt>
<trkpt lat="46.363864" lon="11.836971"><ele>1517.7</ele><time>2022-02-05T17:39:08Z</time></trkpt>
<trkpt lat="46.363829" lon="11.836914"><ele>1519.8</ele><time>2022-02-05T17:39:10Z</time></trkpt>
<trkpt lat="46.363611" lon="11.836856"><ele>1524.23</ele><time>2022-02-05T17:39:12Z</time></trkpt>
<trkpt lat="46.363501" lon="11.836789"><ele>1527.06</ele><time>2022-02-05T17:39:14Z</time></trkpt>
<trkpt lat="46.363266" lon="11.836533"><ele>1535.24</ele><time>2022-02-05T17:39:15Z</time></trkpt>
<trkpt lat="46.363191" lon="11.836421"><ele>1539.47</ele><time>2022-02-05T17:39:17Z</time></trkpt>
<trkpt lat="46.363165" lon="11.836339"><ele>1541.93</ele><time>2022-02-05T17:39:19Z</time></trkpt>
<trkpt lat="46.363163" lon="11.836248"><ele>1543.94</ele><time>2022-02-05T17:39:21Z</time></trkpt>
<trkpt lat="46.363184" lon="11.836149"><ele>1545.48</ele><time>2022-02-05T17:39:23Z</time></trkpt>
<trkpt lat="46.363234" lon="11.836074"><ele>1545.73</ele><time>2022-02-05T17:39:25Z</time></trkpt>
<trkpt lat="46.363299" lon="11.836032"><ele>1544.94</ele><time>2022-02-05T17:39:27Z</time></trkpt>
<trkpt lat="46.363519" lon="11.835983"><ele>1543.94</ele><time>2022-02-05T17:39:29Z</time></trkpt>
<trkpt lat="46.363586" lon="11.835943"><ele>1544.23</ele><time>2022-02-05T17:39:30Z</time></trkpt>
<trkpt lat="46.363716" lon="11.835736"><ele>1546.83</ele><time>2022-02-05T17:39:32Z</time></trkpt>
<trkpt lat="46.363897" lon="11.835256"><ele>1553.26</ele><time>2022-02-05T17:39:34Z</time></trkpt>
<trkpt lat="46.364011" lon="11.835119"><ele>1554.66</ele><time>2022-02-05T17:39:36Z</time></trkpt>
<trkpt lat="46.364411" lon="11.834925"><ele>1558.56</ele><time>2022-02-05T17:39:38Z</time></trkpt>
<trkpt lat="46.364651" lon="11.834697"><ele>1561.87</ele><time>2022-02-05T17:39:40Z</time></trkpt>
<trkpt lat="46.365287" lon="11.833851"><ele>1570.64</ele><time>2022-02-05T17:39:42Z</time></trkpt>
<trkpt lat="46.365304" lon="11.833787"><ele>1571.71</ele><time>2022-02-05T17:39:44Z</time></trkpt>
<trkpt lat="46.3653" lon="11.833726"><ele>1573.4</ele><time>2022-02-05T17:39:46Z</time></trkpt>
<trkpt lat="46.365276" lon="11.83368"><ele>1575.28</ele><time>2022-02-05T17:39:47Z</time></trkpt>
<trkpt lat="46.365234" lon="11.833663"><ele>1576.48</ele><time>2022-02-05T17:39:49Z</time></trkpt>
<trkpt lat="46.365195" lon="11.833677"><ele>1576.83</ele><time>2022-02-05T17:39:51Z</time></trkpt>
<trkpt lat="46.364873" lon="11.833941"><ele>1574.88</ele><time>2022-02-05T17:39:53Z</time></trkpt>
<trkpt lat="46.36478" lon="11.833955"><ele>1575.46</ele><time>2022-02-05T17:39:55Z</time></trkpt>
<trkpt lat="46.364755" lon="11.833925"><ele>1576.6</ele><time>2022-02-05T17:39:57Z</time></trkpt>
<trkpt lat="46.364744" lon="11.833875"><ele>1578.07</ele><time>2022-02-05T17:39:59Z</time></trkpt>
<trkpt lat="46.364754" lon="11.833825"><ele>1579.07</ele><time>2022-02-05T17:40:01Z</time></trkpt>
<trkpt lat="46.364871" lon="11.833702"><ele>1580.79</ele><time>2022-02-05T17:40:02Z</time></trkpt>
<trkpt lat="46.365124" lon="11.833353"><ele>1584.32</ele><time>2022-02-05T17:40:04Z</time></trkpt>
<trkpt lat="46.365207" lon="11.833212"><ele>1586.17</ele><time>2022-02-05T17:40:06Z</time></trkpt>
<trkpt lat="46.365665" lon="11.832159"><ele>1596.58</ele><time>2022-02-05T17:40:08Z</time></trkpt>
<trkpt lat="46.365903" lon="11.831776"><ele>1595.11</ele><time>2022-02-05T17:40:10Z</time></trkpt>
<trkpt lat="46.366201" lon="11.831357"><ele>1596.67</ele><time>2022-02-05T17:40:12Z</time></trkpt>
<trkpt lat="46.366488" lon="11.8308"><ele>1604.09</ele><time>2022-02-05T17:40:14Z</time></trkpt>
<trkpt lat="46.366691" lon="11.830459"><ele>1613.28</ele><time>2022-02-05T17:40:16Z</time></trkpt>
<trkpt lat="46.367286" lon="11.829766"><ele>1625.66</ele><time>2022-02-05T17:40:18Z</time></trkpt>
<trkpt lat="46.36742" lon="11.829722"><ele>1628.85</ele><time>2022-02-05T17:40:19Z</time></trkpt>
<trkpt lat="46.367625" lon="11.8297"><ele>1630.28</ele><time>2022-02-05T17:40:21Z</time></trkpt>
<trkpt lat="46.367669" lon="11.829672"><ele>1630.99</ele><time>2022-02-05T17:40:23Z</time></trkpt>
<trkpt lat="46.367696" lon="11.829626"><ele>1632.27</ele><time>2022-02-05T17:40:25Z</time></trkpt>
<trkpt lat="46.367707" lon="11.829515"><ele>1635.62</ele><time>2022-02-05T17:40:27Z</time></trkpt>
<trkpt lat="46.367689" lon="11.829464"><ele>1637.34</ele><time>2022-02-05T17:40:29Z</time></trkpt>
<trkpt lat="46.367661" lon="11.829441"><ele>1638.33</ele><time>2022-02-05T17:40:31Z</time></trkpt>
<trkpt lat="46.367328" lon="11.829307"><ele>1642.63</ele><time>2022-02-05T17:40:33Z</time></trkpt>
<trkpt lat="46.367123" lon="11.82928"><ele>1642.98</ele><time>2022-02-05T17:40:34Z</time></trkpt>
<trkpt lat="46.367064" lon="11.82921"><ele>1645.12</ele><time>2022-02-05T17:40:36Z</time></trkpt>
<trkpt lat="46.367072" lon="11.82912"><ele>1648.58</ele><time>2022-02-05T17:40:38Z</time></trkpt>
<trkpt lat="46.3671" lon="11.829085"><ele>1650.35</ele><time>2022-02-05T17:40:40Z</time></trkpt>
<trkpt lat="46.367503" lon="11.828974"><ele>1651.51</ele><time>2022-02-05T17:40:42Z</time></trkpt>
<trkpt lat="46.367648" lon="11.828907"><ele>1651.37</ele><time>2022-02-05T17:40:44Z</time></trkpt>
<trkpt lat="46.367771" lon="11.828829"><ele>1652.05</ele><time>2022-02-05T17:40:46Z</time></trkpt>
<trkpt lat="46.368186" lon="11.82842"><ele>1657.78</ele><time>2022-02-05T17:40:48Z</time></trkpt>
<trkpt lat="46.368981" lon="11.82737"><ele>1670.32</ele><time>2022-02-05T17:40:50Z</time></trkpt>
<trkpt lat="46.36961" lon="11.826657"><ele>1680.78</ele><time>2022-02-05T17:40:51Z</time></trkpt>
<trkpt lat="46.369774" lon="11.826503"><ele>1684.75</ele><time>2022-02-05T17:40:53Z</time></trkpt>
<trkpt lat="46.370144" lon="11.826234"><ele>1682.1</ele><time>2022-02-05T17:40:55Z</time></trkpt>
<trkpt lat="46.370951" lon="11.824815"><ele>1702.83</ele><time>2022-02-05T17:40:57Z</time></trkpt>
<trkpt lat="46.371044" lon="11.824708"><ele>1703.69</ele><time>2022-02-05T17:40:59Z</time></trkpt>
<trkpt lat="46.371646" lon="11.824406"><ele>1702.79</ele><time>2022-02-05T17:41:01Z</time></trkpt>
<trkpt lat="46.371783" lon="11.824302"><ele>1705.08</ele><time>2022-02-05T17:41:03Z</time></trkpt>
<trkpt lat="46.371992" lon="11.824063"><ele>1709.57</ele><time>2022-02-05T17:41:05Z</time></trkpt>
<trkpt lat="46.372561" lon="11.823334"><ele>1720.1</ele><time>2022-02-05T17:41:06Z</time></trkpt>
<trkpt lat="46.372967" lon="11.823014"><ele>1722.64</ele><time>2022-02-05T17:41:08Z</time></trkpt>
<trkpt lat="46.373393" lon="11.82256"><ele>1729.85</ele><time>2022-02-05T17:41:10Z</time></trkpt>
<trkpt lat="46.373571" lon="11.82243"><ele>1729.38</ele><time>2022-02-05T17:41:12Z</time></trkpt>
<trkpt lat="46.374279" lon="11.822073"><ele>1728.83</ele><time>2022-02-05T17:41:14Z</time></trkpt>
<trkpt lat="46.374655" lon="11.821748"><ele>1734.54</ele><time>2022-02-05T17:41:16Z</time></trkpt>
<trkpt lat="46.375016" lon="11.821553"><ele>1736.92</ele><time>2022-02-05T17:41:18Z</time></trkpt>
<trkpt lat="46.375355" lon="11.821332"><ele>1741.13</ele><time>2022-02-05T17:41:20Z</time></trkpt>
<trkpt lat="46.375761" lon="11.820916"><ele>1747.35</ele><time>2022-02-05T17:41:22Z</time></trkpt>
<trkpt lat="46.376404" lon="11.820427"><ele>1752.3</ele><time>2022-02-05T17:41:23Z</time></trkpt>
<trkpt lat="46.376593" lon="11.820343"><ele>1750.56</ele><time>2022-02-05T17:41:25Z</time></trkpt>
<trkpt lat="46.377592" lon="11.820029"><ele>1751.5</ele><time>2022-02-05T17:41:27Z</time></trkpt>
<trkpt lat="46.37773" lon="11.819944"><ele>1752.94</ele><time>2022-02-05T17:41:29Z</time></trkpt>
<trkpt lat="46.377895" lon="11.819799"><ele>1753.82</ele><time>2022-02-05T17:41:31Z</time></trkpt>
<trkpt lat="46.378062" lon="11.819622"><ele>1753.99</ele><time>2022-02-05T17:41:33Z</time></trkpt>
<trkpt lat="46.378176" lon="11.819449"><ele>1753.35</ele><time>2022-02-05T17:41:35Z</time></trkpt>
<trkpt lat="46.378399" lon="11.819001"><ele>1756.09</ele><time>2022-02-05T17:41:37Z</time></trkpt>
<trkpt lat="46.378557" lon="11.818637"><ele>1764.73</ele><time>2022-02-05T17:41:38Z</time></trkpt>
<trkpt lat="46.37864" lon="11.818336"><ele>1770.7</ele><time>2022-02-05T17:41:40Z</time></trkpt>
<trkpt lat="46.378807" lon="11.817426"><ele>1773.42</ele><time>2022-02-05T17:41:42Z</time></trkpt>
<trkpt lat="46.378873" lon="11.816707"><ele>1773.4</ele><time>2022-02-05T17:41:44Z</time></trkpt>
<trkpt lat="46.378894" lon="11.815412"><ele>1784.24</ele><time>2022-02-05T17:41:46Z</time></trkpt>
<trkpt lat="46.378832" lon="11.812442"><ele>1808.91</ele><time>2022-02-05T17:41:48Z</time></trkpt>
<trkpt lat="46.378913" lon="11.811046"><ele>1825.74</ele><time>2022-02-05T17:41:50Z</time></trkpt>
<trkpt lat="46.378921" lon="11.810387"><ele>1825.64</ele><time>2022-02-05T17:41:52Z</time></trkpt>
<trkpt lat="46.378935" lon="11.81021"><ele>1826.11</ele><time>2022-02-05T17:41:54Z</time></trkpt>
<trkpt lat="46.379312" lon="11.807969"><ele>1848.16</ele><time>2022-02-05T17:41:55Z</time></trkpt>
<trkpt lat="46.37928" lon="11.805489"><ele>1859.81</ele><time>2022-02-05T17:41:57Z</time></trkpt>
<trkpt lat="46.379104" lon="11.803712"><ele>1865.38</ele><time>2022-02-05T17:41:59Z</time></trkpt>
<trkpt lat="46.379097" lon="11.803392"><ele>1868.75</ele><time>2022-02-05T17:42:01Z</time></trkpt>
<trkpt lat="46.379171" lon="11.802194"><ele>1878.4</ele><time>2022-02-05T17:42:03Z</time></trkpt>
<trkpt lat="46.379174" lon="11.801959"><ele>1881.05</ele><time>2022-02-05T17:42:05Z</time></trkpt>
<trkpt lat="46.379133" lon="11.80162"><ele>1883.92</ele><time>2022-02-05T17:42:07Z</time></trkpt>
<trkpt lat="46.378428" lon="11.798815"><ele>1895.33</ele><time>2022-02-05T17:42:09Z</time></trkpt>
<trkpt lat="46.378367" lon="11.798505"><ele>1898.98</ele><time>2022-02-05T17:42:11Z</time></trkpt>
<trkpt lat="46.378344" lon="11.798237"><ele>1901.9</ele><time>2022-02-05T17:42:12Z</time></trkpt>
<trkpt lat="46.378348" lon="11.797897"><ele>1904.42</ele><time>2022-02-05T17:42:14Z</time></trkpt>
<trkpt lat="46.37846" lon="11.796859"><ele>1908.35</ele><time>2022-02-05T17:42:16Z</time></trkpt>
<trkpt lat="46.378473" lon="11.79663"><ele>1909.57</ele><time>2022-02-05T17:42:18Z</time></trkpt>
<trkpt lat="46.378431" lon="11.794961"><ele>1909.54</ele><time>2022-02-05T17:42:20Z</time></trkpt>
<trkpt lat="46.378409" lon="11.794535"><ele>1911.04</ele><time>2022-02-05T17:42:22Z</time></trkpt>
<trkpt lat="46.378296" lon="11.793792"><ele>1911.64</ele><time>2022-02-05T17:42:24Z</time></trkpt>
<trkpt lat="46.378264" lon="11.793427"><ele>1912.32</ele><time>2022-02-05T17:42:26Z</time></trkpt>
<trkpt lat="46.378279" lon="11.792945"><ele>1914.28</ele><time>2022-02-05T17:42:27Z</time></trkpt>
<trkpt lat="46.378358" lon="11.79172"><ele>1920.98</ele><time>2022-02-05T17:42:29Z</time></trkpt>
<trkpt lat="46.378361" lon="11.791383"><ele>1921.3</ele><time>2022-02-05T17:42:31Z</time></trkpt>
<trkpt lat="46.378318" lon="11.790699"><ele>1921.08</ele><time>2022-02-05T17:42:33Z</time></trkpt>
<trkpt lat="46.378041" lon="11.788797"><ele>1914.16</ele><time>2022-02-05T17:42:35Z</time></trkpt>
<trkpt lat="46.378035" lon="11.788592"><ele>1912.56</ele><time>2022-02-05T17:42:37Z</time></trkpt>
<trkpt lat="46.378059" lon="11.788368"><ele>1911.28</ele><time>2022-02-05T17:42:39Z</time></trkpt>
<trkpt lat="46.378135" lon="11.787965"><ele>1909.21</ele><time>2022-02-05T17:42:41Z</time></trkpt>
<trkpt lat="46.378324" lon="11.787191"><ele>1906.61</ele><time>2022-02-05T17:42:43Z</time></trkpt>
<trkpt lat="46.378467" lon="11.786841"><ele>1906.56</ele><time>2022-02-05T17:42:44Z</time></trkpt>
<trkpt lat="46.37888" lon="11.785984"><ele>1908.36</ele><time>2022-02-05T17:42:46Z</time></trkpt>
<trkpt lat="46.378915" lon="11.785798"><ele>1907.93</ele><time>2022-02-05T17:42:48Z</time></trkpt>
<trkpt lat="46.37892" lon="11.785572"><ele>1906.34</ele><time>2022-02-05T17:42:50Z</time></trkpt>
<trkpt lat="46.378461" lon="11.781471"><ele>1888.08</ele><time>2022-02-05T17:42:52Z</time></trkpt>
<trkpt lat="46.37841" lon="11.781116"><ele>1888.81</ele><time>2022-02-05T17:42:54Z</time></trkpt>
<trkpt lat="46.378349" lon="11.780871"><ele>1887.31</ele><time>2022-02-05T17:42:56Z</time></trkpt>
<trkpt lat="46.377868" lon="11.779363"><ele>1878.82</ele><time>2022-02-05T17:42:58Z</time></trkpt>
<trkpt lat="46.377767" lon="11.778857"><ele>1876.31</ele><time>2022-02-05T17:42:59Z</time></trkpt>
<trkpt lat="46.37774" lon="11.778621"><ele>1872.59</ele><time>2022-02-05T17:43:01Z</time></trkpt>
<trkpt lat="46.377718" lon="11.778176"><ele>1867.56</ele><time>2022-02-05T17:43:03Z</time></trkpt>
<trkpt lat="46.377764" lon="11.777064"><ele>1862.99</ele><time>2022-02-05T17:43:05Z</time></trkpt>
<trkpt lat="46.378081" lon="11.771461"><ele>1836.14</ele><time>2022-02-05T17:43:07Z</time></trkpt>
<trkpt lat="46.378091" lon="11.770041"><ele>1827.06</ele><time>2022-02-05T17:43:09Z</time></trkpt>
<trkpt lat="46.377342" lon="11.770079"><ele>1808.89</ele><time>2022-02-05T17:44:36Z</time></trkpt>
<trkpt lat="46.377177" lon="11.769167"><ele>1811.02</ele><time>2022-02-05T17:46:04Z</time></trkpt>
<trkpt lat="46.37723" lon="11.767445"><ele>1808.82</ele><time>2022-02-05T17:47:31Z</time></trkpt>
<trkpt lat="46.377481" lon="11.765413"><ele>1804.24</ele><time>2022-02-05T17:48:58Z</time></trkpt>
<trkpt lat="46.377214" lon="11.76446"><ele>1800.46</ele><time>2022-02-05T17:50:26Z</time></trkpt>
<trkpt lat="46.377214" lon="11.76446"><ele>1800.46</ele><time>2022-02-05T17:50:26Z</time></trkpt>
<trkpt lat="46.377481" lon="11.765413"><ele>1804.24</ele><time>2022-02-05T17:51:53Z</time></trkpt>
<trkpt lat="46.37723" lon="11.767445"><ele>1808.82</ele><time>2022-02-05T17:53:20Z</time></trkpt>
<trkpt lat="46.377177" lon="11.769167"><ele>1811.02</ele><time>2022-02-05T17:54:48Z</time></trkpt>
<trkpt lat="46.377342" lon="11.770079"><ele>1808.89</ele><time>2022-02-05T17:56:15Z</time></trkpt>
<trkpt lat="46.378091" lon="11.770041"><ele>1827.06</ele><time>2022-02-05T17:57:42Z</time></trkpt>
<trkpt lat="46.378032" lon="11.767463"><ele>1817.98</ele><time>2022-02-05T17:57:46Z</time></trkpt>
<trkpt lat="46.378085" lon="11.76658"><ele>1818.19</ele><time>2022-02-05T17:57:49Z</time></trkpt>
<trkpt lat="46.37807" lon="11.766106"><ele>1820.23</ele><time>2022-02-05T17:57:53Z</time></trkpt>
<trkpt lat="46.378027" lon="11.765684"><ele>1819.84</ele><time>2022-02-05T17:57:56Z</time></trkpt>
<trkpt lat="46.377521" lon="11.762572"><ele>1812.58</ele><time>2022-02-05T17:57:59Z</time></trkpt>
<trkpt lat="46.377367" lon="11.76193"><ele>1803.66</ele><time>2022-02-05T17:58:03Z</time></trkpt>
<trkpt lat="46.377018" lon="11.760687"><ele>1801.11</ele><time>2022-02-05T17:58:06Z</time></trkpt>
<trkpt lat="46.376979" lon="11.760458"><ele>1801.32</ele><time>2022-02-05T17:58:10Z</time></trkpt>
<trkpt lat="46.376745" lon="11.758582"><ele>1805.16</ele><time>2022-02-05T17:58:13Z</time></trkpt>
<trkpt lat="46.376627" lon="11.758244"><ele>1803.01</ele><time>2022-02-05T17:58:17Z</time></trkpt>
<trkpt lat="46.376464" lon="11.757975"><ele>1799.72</ele><time>2022-02-05T17:58:20Z</time></trkpt>
<trkpt lat="46.375966" lon="11.757444"><ele>1794.21</ele><time>2022-02-05T17:58:24Z</time></trkpt>
<trkpt lat="46.375757" lon="11.756971"><ele>1793.85</ele><time>2022-02-05T17:58:27Z</time></trkpt>
<trkpt lat="46.375313" lon="11.755407"><ele>1790.84</ele><time>2022-02-05T17:58:30Z</time></trkpt>
<trkpt lat="46.375068" lon="11.753968"><ele>1782.96</ele><time>2022-02-05T17:58:34Z</time></trkpt>
<trkpt lat="46.374754" lon="11.751986"><ele>1766.0</ele><time>2022-02-05T17:58:37Z</time></trkpt>
<trkpt lat="46.374557" lon="11.750518"><ele>1760.41</ele><time>2022-02-05T17:58:41Z</time></trkpt>
<trkpt lat="46.374323" lon="11.748943"><ele>1745.83</ele><time>2022-02-05T17:58:44Z</time></trkpt>
<trkpt lat="46.374306" lon="11.747327"><ele>1733.75</ele><time>2022-02-05T17:58:48Z</time></trkpt>
<trkpt lat="46.374286" lon="11.746955"><ele>1730.65</ele><time>2022-02-05T17:58:51Z</time></trkpt>
<trkpt lat="46.374243" lon="11.746671"><ele>1728.66</ele><time>2022-02-05T17:58:55Z</time></trkpt>
<trkpt lat="46.374162" lon="11.746332"><ele>1728.33</ele><time>2022-02-05T17:58:58Z</time></trkpt>
<trkpt lat="46.374057" lon="11.746011"><ele>1728.0</ele><time>2022-02-05T17:59:01Z</time></trkpt>
<trkpt lat="46.373078" lon="11.743526"><ele>1711.57</ele><time>2022-02-05T17:59:05Z</time></trkpt>
<trkpt lat="46.37291" lon="11.742965"><ele>1707.56</ele><time>2022-02-05T17:59:08Z</time></trkpt>
<trkpt lat="46.372778" lon="11.742322"><ele>1703.64</ele><time>2022-02-05T17:59:12Z</time></trkpt>
<trkpt lat="46.372544" lon="11.740601"><ele>1688.19</ele><time>2022-02-05T17:59:15Z</time></trkpt>
<trkpt lat="46.372351" lon="11.73995"><ele>1692.87</ele><time>2022-02-05T17:59:19Z</time></trkpt>
<trkpt lat="46.372116" lon="11.739535"><ele>1694.07</ele><time>2022-02-05T17:59:22Z</time></trkpt>
<trkpt lat="46.370996" lon="11.737938"><ele>1691.18</ele><time>2022-02-05T17:59:26Z</time></trkpt>
<trkpt lat="46.370587" lon="11.737064"><ele>1682.39</ele><time>2022-02-05T17:59:29Z</time></trkpt>
<trkpt lat="46.370398" lon="11.736515"><ele>1678.05</ele><time>2022-02-05T17:59:32Z</time></trkpt>
<trkpt lat="46.370298" lon="11.736181"><ele>1675.55</ele><time>2022-02-05T17:59:36Z</time></trkpt>
<trkpt lat="46.369624" lon="11.733355"><ele>1663.08</ele><time>2022-02-05T17:59:39Z</time></trkpt>
<trkpt lat="46.369476" lon="11.731592"><ele>1647.74</ele><time>2022-02-05T17:59:43Z</time></trkpt>
<trkpt lat="46.369422" lon="11.729837"><ele>1640.71</ele><time>2022-02-05T17:59:46Z</time></trkpt>
<trkpt lat="46.369383" lon="11.72958"><ele>1639.89</ele><time>2022-02-05T17:59:50Z</time></trkpt>
<trkpt lat="46.36929" lon="11.729259"><ele>1641.19</ele><time>2022-02-05T17:59:53Z</time></trkpt>
<trkpt lat="46.369105" lon="11.728898"><ele>1641.51</ele><time>2022-02-05T17:59:57Z</time></trkpt>
<trkpt lat="46.3689" lon="11.728628"><ele>1642.82</ele><time>2022-02-05T18:00:00Z</time></trkpt>
<trkpt lat="46.368213" lon="11.727839"><ele>1642.48</ele><time>2022-02-05T18:00:04Z</time></trkpt>
<trkpt lat="46.367948" lon="11.727469"><ele>1638.57</ele><time>2022-02-05T18:00:07Z</time></trkpt>
<trkpt lat="46.367649" lon="11.726963"><ele>1637.01</ele><time>2022-02-05T18:00:10Z</time></trkpt>
<trkpt lat="46.367518" lon="11.726665"><ele>1637.26</ele><time>2022-02-05T18:00:14Z</time></trkpt>
<trkpt lat="46.367063" lon="11.725041"><ele>1634.18</ele><time>2022-02-05T18:00:17Z</time></trkpt>
<trkpt lat="46.367001" lon="11.724492"><ele>1632.34</ele><time>2022-02-05T18:00:21Z</time></trkpt>
<trkpt lat="46.367009" lon="11.724145"><ele>1629.71</ele><time>2022-02-05T18:00:24Z</time></trkpt>
<trkpt lat="46.367057" lon="11.723732"><ele>1626.89</ele><time>2022-02-05T18:00:28Z</time></trkpt>
<trkpt lat="46.367022" lon="11.723447"><ele>1624.81</ele><time>2022-02-05T18:00:31Z</time></trkpt>
<trkpt lat="46.366705" lon="11.722328"><ele>1610.68</ele><time>2022-02-05T18:00:35Z</time></trkpt>
<trkpt lat="46.36663" lon="11.7219"><ele>1607.15</ele><time>2022-02-05T18:00:38Z</time></trkpt>
<trkpt lat="46.366613" lon="11.720687"><ele>1590.47</ele><time>2022-02-05T18:00:41Z</time></trkpt>
<trkpt lat="46.366639" lon="11.720496"><ele>1589.98</ele><time>2022-02-05T18:00:45Z</time></trkpt>
<trkpt lat="46.366697" lon="11.720313"><ele>1590.76</ele><time>2022-02-05T18:00:48Z</time></trkpt>
<trkpt lat="46.366864" lon="11.719926"><ele>1594.73</ele><time>2022-02-05T18:00:52Z</time></trkpt>
<trkpt lat="46.366918" lon="11.719696"><ele>1596.43</ele><time>2022-02-05T18:00:55Z</time></trkpt>
<trkpt lat="46.366921" lon="11.719485"><ele>1596.43</ele><time>2022-02-05T18:00:59Z</time></trkpt>
<trkpt lat="46.366779" lon="11.718486"><ele>1589.59</ele><time>2022-02-05T18:01:02Z</time></trkpt>
<trkpt lat="46.366619" lon="11.717975"><ele>1582.29</ele><time>2022-02-05T18:01:06Z</time></trkpt>
<trkpt lat="46.3666" lon="11.717819"><ele>1581.58</ele><time>2022-02-05T18:01:09Z</time></trkpt>
<trkpt lat="46.366599" lon="11.716646"><ele>1580.74</ele><time>2022-02-05T18:01:12Z</time></trkpt>
<trkpt lat="46.366544" lon="11.716177"><ele>1576.6</ele><time>2022-02-05T18:01:16Z</time></trkpt>
<trkpt lat="46.366536" lon="11.714449"><ele>1566.18</ele><time>2022-02-05T18:01:19Z</time></trkpt>
<trkpt lat="46.366629" lon="11.713815"><ele>1564.09</ele><time>2022-02-05T18:01:23Z</time></trkpt>
<trkpt lat="46.366632" lon="11.713577"><ele>1561.72</ele><time>2022-02-05T18:01:26Z</time></trkpt>
<trkpt lat="46.366554" lon="11.712402"><ele>1550.89</ele><time>2022-02-05T18:01:30Z</time></trkpt>
<trkpt lat="46.366496" lon="11.712159"><ele>1549.8</ele><time>2022-02-05T18:01:33Z</time></trkpt>
<trkpt lat="46.366331" lon="11.711787"><ele>1547.73</ele><time>2022-02-05T18:01:37Z</time></trkpt>
<trkpt lat="46.366013" lon="11.711244"><ele>1545.65</ele><time>2022-02-05T18:01:40Z</time></trkpt>
<trkpt lat="46.365888" lon="11.710939"><ele>1544.62</ele><time>2022-02-05T18:01:43Z</time></trkpt>
<trkpt lat="46.365516" lon="11.709396"><ele>1532.74</ele><time>2022-02-05T18:01:47Z</time></trkpt>
<trkpt lat="46.365498" lon="11.708956"><ele>1528.37</ele><time>2022-02-05T18:01:50Z</time></trkpt>
<trkpt lat="46.365521" lon="11.708622"><ele>1525.11</ele><time>2022-02-05T18:01:54Z</time></trkpt>
<trkpt lat="46.365702" lon="11.707627"><ele>1514.33</ele><time>2022-02-05T18:01:57Z</time></trkpt>
<trkpt lat="46.365996" lon="11.706862"><ele>1507.33</ele><time>2022-02-05T18:02:01Z</time></trkpt>
<trkpt lat="46.366074" lon="11.706519"><ele>1506.33</ele><time>2022-02-05T18:02:04Z</time></trkpt>
<trkpt lat="46.366043" lon="11.705922"><ele>1502.18</ele><time>2022-02-05T18:02:08Z</time></trkpt>
<trkpt lat="46.366156" lon="11.705106"><ele>1500.63</ele><time>2022-02-05T18:02:11Z</time></trkpt>
<trkpt lat="46.366371" lon="11.702889"><ele>1482.43</ele><time>2022-02-05T18:02:15Z</time></trkpt>
<trkpt lat="46.3663" lon="11.702278"><ele>1475.61</ele><time>2022-02-05T18:02:18Z</time></trkpt>
<trkpt lat="46.366175" lon="11.701566"><ele>1465.39</ele><time>2022-02-05T18:02:21Z</time></trkpt>
<trkpt lat="46.366146" lon="11.701163"><ele>1461.56</ele><time>2022-02-05T18:02:25Z</time></trkpt>
<trkpt lat="46.366169" lon="11.700742"><ele>1464.15</ele><time>2022-02-05T18:02:28Z</time></trkpt>
<trkpt lat="46.366382" lon="11.700081"><ele>1462.13</ele><time>2022-02-05T18:02:32Z</time></trkpt>
<trkpt lat="46.366449" lon="11.699756"><ele>1457.31</ele><time>2022-02-05T18:02:35Z</time></trkpt>
<trkpt lat="46.366425" lon="11.699258"><ele>1450.1</ele><time>2022-02-05T18:02:39Z</time></trkpt>
<trkpt lat="46.366133" lon="11.697608"><ele>1444.41</ele><time>2022-02-05T18:02:42Z</time></trkpt>
<trkpt lat="46.366036" lon="11.696252"><ele>1439.19</ele><time>2022-02-05T18:02:46Z</time></trkpt>
<trkpt lat="46.366022" lon="11.695268"><ele>1424.58</ele><time>2022-02-05T18:02:49Z</time></trkpt>
<trkpt lat="46.365977" lon="11.695115"><ele>1422.01</ele><time>2022-02-05T18:02:52Z</time></trkpt>
<trkpt lat="46.365927" lon="11.695018"><ele>1420.23</ele><time>2022-02-05T18:02:56Z</time></trkpt>
<trkpt lat="46.365858" lon="11.694949"><ele>1419.08</ele><time>2022-02-05T18:02:59Z</time></trkpt>
<trkpt lat="46.365612" lon="11.694902"><ele>1421.79</ele><time>2022-02-05T18:03:03Z</time></trkpt>
<trkpt lat="46.365476" lon="11.694844"><ele>1426.19</ele><time>2022-02-05T18:03:06Z</time></trkpt>
<trkpt lat="46.365425" lon="11.694732"><ele>1427.65</ele><time>2022-02-05T18:03:10Z</time></trkpt>
<trkpt lat="46.365389" lon="11.694579"><ele>1429.47</ele><time>2022-02-05T18:03:13Z</time></trkpt>
<trkpt lat="46.365428" lon="11.694187"><ele>1427.53</ele><time>2022-02-05T18:03:17Z</time></trkpt>
<trkpt lat="46.365413" lon="11.693772"><ele>1429.83</ele><time>2022-02-05T18:03:20Z</time></trkpt>
<trkpt lat="46.365512" lon="11.692905"><ele>1422.83</ele><time>2022-02-05T18:03:23Z</time></trkpt>
<trkpt lat="46.365548" lon="11.692084"><ele>1426.45</ele><time>2022-02-05T18:03:27Z</time></trkpt>
<trkpt lat="46.365631" lon="11.691749"><ele>1425.79</ele><time>2022-02-05T18:03:30Z</time></trkpt>
<trkpt lat="46.365708" lon="11.691526"><ele>1425.28</ele><time>2022-02-05T18:03:34Z</time></trkpt>
<trkpt lat="46.36599" lon="11.69127"><ele>1416.18</ele><time>2022-02-05T18:03:37Z</time></trkpt>
<trkpt lat="46.366441" lon="11.690942"><ele>1404.36</ele><time>2022-02-05T18:03:41Z</time></trkpt>
<trkpt lat="46.366781" lon="11.690652"><ele>1400.25</ele><time>2022-02-05T18:03:44Z</time></trkpt>
<trkpt lat="46.366852" lon="11.690518"><ele>1400.21</ele><time>2022-02-05T18:03:48Z</time></trkpt>
<trkpt lat="46.366912" lon="11.690345"><ele>1401.62</ele><time>2022-02-05T18:03:51Z</time></trkpt>
<trkpt lat="46.36696" lon="11.690021"><ele>1401.61</ele><time>2022-02-05T18:03:54Z</time></trkpt>
<trkpt lat="46.366965" lon="11.689031"><ele>1395.59</ele><time>2022-02-05T18:03:58Z</time></trkpt>
<trkpt lat="46.36699" lon="11.687967"><ele>1383.65</ele><time>2022-02-05T18:04:01Z</time></trkpt>
<trkpt lat="46.367053" lon="11.687572"><ele>1379.47</ele><time>2022-02-05T18:04:05Z</time></trkpt>
<trkpt lat="46.36725" lon="11.687093"><ele>1371.39</ele><time>2022-02-05T18:04:08Z</time></trkpt>
<trkpt lat="46.367669" lon="11.68635"><ele>1367.04</ele><time>2022-02-05T18:04:12Z</time></trkpt>
<trkpt lat="46.368538" lon="11.68499"><ele>1352.94</ele><time>2022-02-05T18:04:15Z</time></trkpt>
<trkpt lat="46.368666" lon="11.684605"><ele>1349.64</ele><time>2022-02-05T18:04:19Z</time></trkpt>
<trkpt lat="46.368663" lon="11.683987"><ele>1349.3</ele><time>2022-02-05T18:04:22Z</time></trkpt>
<trkpt lat="46.368718" lon="11.683323"><ele>1353.78</ele><time>2022-02-05T18:04:25Z</time></trkpt>
<trkpt lat="46.36926" lon="11.68168"><ele>1338.56</ele><time>2022-02-05T18:04:29Z</time></trkpt>
<trkpt lat="46.369672" lon="11.68035"><ele>1332.45</ele><time>2022-02-05T18:04:32Z</time></trkpt>
<trkpt lat="46.37023" lon="11.679359"><ele>1326.46</ele><time>2022-02-05T18:04:36Z</time></trkpt>
<trkpt lat="46.371629" lon="11.677934"><ele>1316.26</ele><time>2022-02-05T18:04:39Z</time></trkpt>
<trkpt lat="46.371739" lon="11.677654"><ele>1315.41</ele><time>2022-02-05T18:04:43Z</time></trkpt>
<trkpt lat="46.371848" lon="11.67723"><ele>1316.04</ele><time>2022-02-05T18:04:46Z</time></trkpt>
<trkpt lat="46.372215" lon="11.6764"><ele>1304.18</ele><time>2022-02-05T18:04:50Z</time></trkpt>
<trkpt lat="46.372369" lon="11.675887"><ele>1305.09</ele><time>2022-02-05T18:04:53Z</time></trkpt>
<trkpt lat="46.372843" lon="11.673473"><ele>1315.24</ele><time>2022-02-05T18:04:57Z</time></trkpt>
<trkpt lat="46.373019" lon="11.672828"><ele>1310.19</ele><time>2022-02-05T18:05:00Z</time></trkpt>
<trkpt lat="46.373038" lon="11.672161"><ele>1308.43</ele><time>2022-02-05T18:05:03Z</time></trkpt>
<trkpt lat="46.373148" lon="11.671388"><ele>1304.35</ele><time>2022-02-05T18:05:07Z</time></trkpt>
<trkpt lat="46.373399" lon="11.670801"><ele>1299.43</ele><time>2022-02-05T18:05:10Z</time></trkpt>
<trkpt lat="46.37357" lon="11.670104"><ele>1290.47</ele><time>2022-02-05T18:05:14Z</time></trkpt>
<trkpt lat="46.373882" lon="11.668714"><ele>1283.08</ele><time>2022-02-05T18:05:17Z</time></trkpt>
<trkpt lat="46.373885" lon="11.66836"><ele>1280.4</ele><time>2022-02-05T18:05:21Z</time></trkpt>
<trkpt lat="46.373753" lon="11.667685"><ele>1278.85</ele><time>2022-02-05T18:05:24Z</time></trkpt>
<trkpt lat="46.37374" lon="11.667428"><ele>1276.47</ele><time>2022-02-05T18:05:28Z</time></trkpt>
<trkpt lat="46.373797" lon="11.66673"><ele>1265.85</ele><time>2022-02-05T18:05:31Z</time></trkpt>
<trkpt lat="46.373787" lon="11.66556"><ele>1263.41</ele><time>2022-02-05T18:05:34Z</time></trkpt>
<trkpt lat="46.373766" lon="11.665387"><ele>1263.63</ele><time>2022-02-05T18:05:38Z</time></trkpt>
<trkpt lat="46.373596" lon="11.66497"><ele>1264.0</ele><time>2022-02-05T18:05:41Z</time></trkpt>
<trkpt lat="46.373572" lon="11.664864"><ele>1262.89</ele><time>2022-02-05T18:05:45Z</time></trkpt>
<trkpt lat="46.373576" lon="11.664788"><ele>1261.12</ele><time>2022-02-05T18:05:48Z</time></trkpt>
<trkpt lat="46.3736" lon="11.664739"><ele>1258.92</ele><time>2022-02-05T18:05:52Z</time></trkpt>
<trkpt lat="46.373661" lon="11.664709"><ele>1256.19</ele><time>2022-02-05T18:05:55Z</time></trkpt>
<trkpt lat="46.373756" lon="11.664764"><ele>1254.06</ele><time>2022-02-05T18:05:59Z</time></trkpt>
<trkpt lat="46.374199" lon="11.665223"><ele>1247.05</ele><time>2022-02-05T18:06:02Z</time></trkpt>
<trkpt lat="46.374281" lon="11.66525"><ele>1245.79</ele><time>2022-02-05T18:06:05Z</time></trkpt>
<trkpt lat="46.374411" lon="11.665225"><ele>1243.38</ele><time>2022-02-05T18:06:09Z</time></trkpt>
<trkpt lat="46.374502" lon="11.665257"><ele>1242.27</ele><time>2022-02-05T18:06:12Z</time></trkpt>
<trkpt lat="46.374599" lon="11.665372"><ele>1241.82</ele><time>2022-02-05T18:06:16Z</time></trkpt>
<trkpt lat="46.374622" lon="11.665499"><ele>1242.17</ele><time>2022-02-05T18:06:19Z</time></trkpt>
<trkpt lat="46.374622" lon="11.665662"><ele>1243.07</ele><time>2022-02-05T18:06:23Z</time></trkpt>
<trkpt lat="46.374597" lon="11.665927"><ele>1244.96</ele><time>2022-02-05T18:06:26Z</time></trkpt>
<trkpt lat="46.374561" lon="11.666089"><ele>1246.89</ele><time>2022-02-05T18:06:30Z</time></trkpt>
<trkpt lat="46.374444" lon="11.666247"><ele>1251.95</ele><time>2022-02-05T18:06:33Z</time></trkpt>
<trkpt lat="46.374397" lon="11.666286"><ele>1252.92</ele><time>2022-02-05T18:06:37Z</time></trkpt>
<trkpt lat="46.374367" lon="11.66628"><ele>1253.1</ele><time>2022-02-05T18:06:39Z</time></trkpt>
<trkpt lat="46.374259" lon="11.666323"><ele>1254.54</ele><time>2022-02-05T18:06:42Z</time></trkpt>
<trkpt lat="46.374205" lon="11.6664"><ele>1255.78</ele><time>2022-02-05T18:06:44Z</time></trkpt>
<trkpt lat="46.374175" lon="11.666529"><ele>1256.86</ele><time>2022-02-05T18:06:47Z</time></trkpt>
<trkpt lat="46.374193" lon="11.666662"><ele>1257.3</ele><time>2022-02-05T18:06:50Z</time></trkpt>
<trkpt lat="46.374255" lon="11.666765"><ele>1255.56</ele><time>2022-02-05T18:06:52Z</time></trkpt>
<trkpt lat="46.374297" lon="11.666796"><ele>1254.28</ele><time>2022-02-05T18:06:55Z</time></trkpt>
<trkpt lat="46.374407" lon="11.667011"><ele>1249.6</ele><time>2022-02-05T18:06:58Z</time></trkpt>
<trkpt lat="46.374425" lon="11.667112"><ele>1247.99</ele><time>2022-02-05T18:07:00Z</time></trkpt>
<trkpt lat="46.374417" lon="11.667484"><ele>1249.19</ele><time>2022-02-05T18:07:03Z</time></trkpt>
<trkpt lat="46.374338" lon="11.668642"><ele>1268.23</ele><time>2022-02-05T18:07:05Z</time></trkpt>
<trkpt lat="46.37434" lon="11.668977"><ele>1271.09</ele><time>2022-02-05T18:07:08Z</time></trkpt>
<trkpt lat="46.374403" lon="11.669464"><ele>1266.91</ele><time>2022-02-05T18:07:11Z</time></trkpt>
<trkpt lat="46.374515" lon="11.669908"><ele>1261.48</ele><time>2022-02-05T18:07:13Z</time></trkpt>
<trkpt lat="46.374663" lon="11.670256"><ele>1257.04</ele><time>2022-02-05T18:07:16Z</time></trkpt>
<trkpt lat="46.37479" lon="11.670484"><ele>1253.99</ele><time>2022-02-05T18:07:19Z</time></trkpt>
<trkpt lat="46.374952" lon="11.670709"><ele>1250.73</ele><time>2022-02-05T18:07:21Z</time></trkpt>
<trkpt lat="46.375124" lon="11.670902"><ele>1247.66</ele><time>2022-02-05T18:07:24Z</time></trkpt>
<trkpt lat="46.375262" lon="11.671014"><ele>1256.86</ele><time>2022-02-05T18:07:26Z</time></trkpt>
<trkpt lat="46.37589" lon="11.671381"><ele>1255.07</ele><time>2022-02-05T18:07:29Z</time></trkpt>
<trkpt lat="46.376283" lon="11.671558"><ele>1254.04</ele><time>2022-02-05T18:07:32Z</time></trkpt>
<trkpt lat="46.376644" lon="11.671667"><ele>1253.16</ele><time>2022-02-05T18:07:34Z</time></trkpt>
<trkpt lat="46.377023" lon="11.671684"><ele>1252.3</ele><time>2022-02-05T18:07:37Z</time></trkpt>
<trkpt lat="46.377365" lon="11.671639"><ele>1251.54</ele><time>2022-02-05T18:07:40Z</time></trkpt>
<trkpt lat="46.378455" lon="11.671339"><ele>1248.99</ele><time>2022-02-05T18:07:42Z</time></trkpt>
<trkpt lat="46.38494" lon="11.668732"><ele>1231.85</ele><time>2022-02-05T18:07:45Z</time></trkpt>
<trkpt lat="46.385079" lon="11.668729"><ele>1229.77</ele><time>2022-02-05T18:07:47Z</time></trkpt>
<trkpt lat="46.385356" lon="11.668889"><ele>1234.14</ele><time>2022-02-05T18:07:50Z</time></trkpt>
<trkpt lat="46.385405" lon="11.668946"><ele>1237.62</ele><time>2022-02-05T18:07:53Z</time></trkpt>
<trkpt lat="46.385464" lon="11.668977"><ele>1239.9</ele><time>2022-02-05T18:07:55Z</time></trkpt>
<trkpt lat="46.385526" lon="11.668978"><ele>1240.76</ele><time>2022-02-05T18:07:58Z</time></trkpt>
<trkpt lat="46.385586" lon="11.668948"><ele>1239.33</ele><time>2022-02-05T18:08:00Z</time></trkpt>
<trkpt lat="46.385635" lon="11.668893"><ele>1236.03</ele><time>2022-02-05T18:08:03Z</time></trkpt>
<trkpt lat="46.385669" lon="11.668817"><ele>1231.78</ele><time>2022-02-05T18:08:05Z</time></trkpt>
<trkpt lat="46.385684" lon="11.668728"><ele>1227.29</ele><time>2022-02-05T18:08:07Z</time></trkpt>
<trkpt lat="46.38577" lon="11.668566"><ele>1219.49</ele><time>2022-02-05T18:08:10Z</time></trkpt>
<trkpt lat="46.385869" lon="11.668436"><ele>1214.2</ele><time>2022-02-05T18:08:12Z</time></trkpt>
<trkpt lat="46.38616" lon="11.668277"><ele>1212.08</ele><time>2022-02-05T18:08:15Z</time></trkpt>
<trkpt lat="46.386391" lon="11.668055"><ele>1213.0</ele><time>2022-02-05T18:08:17Z</time></trkpt>
<trkpt lat="46.387051" lon="11.667329"><ele>1207.31</ele><time>2022-02-05T18:08:20Z</time></trkpt>
<trkpt lat="46.387231" lon="11.667155"><ele>1206.36</ele><time>2022-02-05T18:08:22Z</time></trkpt>
<trkpt lat="46.387382" lon="11.667082"><ele>1206.92</ele><time>2022-02-05T18:08:25Z</time></trkpt>
<trkpt lat="46.387648" lon="11.667053"><ele>1209.8</ele><time>2022-02-05T18:08:27Z</time></trkpt>
<trkpt lat="46.387891" lon="11.667136"><ele>1214.5</ele><time>2022-02-05T18:08:30Z</time></trkpt>
<trkpt lat="46.388218" lon="11.667368"><ele>1219.66</ele><time>2022-02-05T18:08:32Z</time></trkpt>
<trkpt lat="46.389314" lon="11.667686"><ele>1224.79</ele><time>2022-02-05T18:08:35Z</time></trkpt>
<trkpt lat="46.389471" lon="11.6677"><ele>1221.24</ele><time>2022-02-05T18:08:37Z</time></trkpt>
<trkpt lat="46.389641" lon="11.667659"><ele>1215.55</ele><time>2022-02-05T18:08:40Z</time></trkpt>
<trkpt lat="46.390646" lon="11.666994"><ele>1211.7</ele><time>2022-02-05T18:08:42Z</time></trkpt>
<trkpt lat="46.39102" lon="11.66684"><ele>1206.32</ele><time>2022-02-05T18:08:45Z</time></trkpt>
<trkpt lat="46.391363" lon="11.666768"><ele>1208.54</ele><time>2022-02-05T18:08:47Z</time></trkpt>
<trkpt lat="46.391564" lon="11.666748"><ele>1207.35</ele><time>2022-02-05T18:08:50Z</time></trkpt>
<trkpt lat="46.392932" lon="11.666705"><ele>1207.38</ele><time>2022-02-05T18:08:52Z</time></trkpt>
<trkpt lat="46.39304" lon="11.666676"><ele>1206.24</ele><time>2022-02-05T18:08:55Z</time></trkpt>
<trkpt lat="46.393177" lon="11.666601"><ele>1205.06</ele><time>2022-02-05T18:08:57Z</time></trkpt>
<trkpt lat="46.393446" lon="11.666411"><ele>1204.86</ele><time>2022-02-05T18:09:00Z</time></trkpt>
<trkpt lat="46.393647" lon="11.666327"><ele>1206.23</ele><time>2022-02-05T18:09:02Z</time></trkpt>
<trkpt lat="46.393776" lon="11.666313"><ele>1207.02</ele><time>2022-02-05T18:09:05Z</time></trkpt>
<trkpt lat="46.393924" lon="11.666342"><ele>1207.85</ele><time>2022-02-05T18:09:07Z</time></trkpt>
<trkpt lat="46.394088" lon="11.666433"><ele>1208.27</ele><time>2022-02-05T18:09:10Z</time></trkpt>
<trkpt lat="46.394889" lon="11.667077"><ele>1209.86</ele><time>2022-02-05T18:09:12Z</time></trkpt>
<trkpt lat="46.395508" lon="11.667594"><ele>1210.83</ele><time>2022-02-05T18:09:15Z</time></trkpt>
<trkpt lat="46.395593" lon="11.667708"><ele>1211.23</ele><time>2022-02-05T18:09:17Z</time></trkpt>
<trkpt lat="46.395676" lon="11.667866"><ele>1212.14</ele><time>2022-02-05T18:09:20Z</time></trkpt>
<trkpt lat="46.395743" lon="11.668057"><ele>1213.71</ele><time>2022-02-05T18:09:22Z</time></trkpt>
<trkpt lat="46.395828" lon="11.668456"><ele>1215.51</ele><time>2022-02-05T18:09:25Z</time></trkpt>
<trkpt lat="46.395922" lon="11.668642"><ele>1214.78</ele><time>2022-02-05T18:09:27Z</time></trkpt>
<trkpt lat="46.396367" lon="11.669211"><ele>1212.92</ele><time>2022-02-05T18:09:30Z</time></trkpt>
<trkpt lat="46.396549" lon="11.669349"><ele>1214.35</ele><time>2022-02-05T18:09:32Z</time></trkpt>
<trkpt lat="46.396724" lon="11.669431"><ele>1215.26</ele><time>2022-02-05T18:09:34Z</time></trkpt>
<trkpt lat="46.39698" lon="11.669431"><ele>1216.09</ele><time>2022-02-05T18:09:37Z</time></trkpt>
<trkpt lat="46.397318" lon="11.669287"><ele>1217.28</ele><time>2022-02-05T18:09:39Z</time></trkpt>
<trkpt lat="46.397614" lon="11.66913"><ele>1218.8</ele><time>2022-02-05T18:09:42Z</time></trkpt>
<trkpt lat="46.397852" lon="11.669052"><ele>1220.98</ele><time>2022-02-05T18:09:44Z</time></trkpt>
<trkpt lat="46.398668" lon="11.66905"><ele>1222.94</ele><time>2022-02-05T18:09:47Z</time></trkpt>
<trkpt lat="46.398929" lon="11.669074"><ele>1221.34</ele><time>2022-02-05T18:09:49Z</time></trkpt>
<trkpt lat="46.399167" lon="11.669158"><ele>1220.12</ele><time>2022-02-05T18:09:52Z</time></trkpt>
<trkpt lat="46.399339" lon="11.669275"><ele>1219.61</ele><time>2022-02-05T18:09:54Z</time></trkpt>
<trkpt lat="46.399498" lon="11.669423"><ele>1219.27</ele><time>2022-02-05T18:09:57Z</time></trkpt>
<trkpt lat="46.401417" lon="11.671449"><ele>1221.63</ele><time>2022-02-05T18:09:59Z</time></trkpt>
<trkpt lat="46.402009" lon="11.67212"><ele>1229.17</ele><time>2022-02-05T18:10:02Z</time></trkpt>
<trkpt lat="46.40205" lon="11.672214"><ele>1229.9</ele><time>2022-02-05T18:10:04Z</time></trkpt>
<trkpt lat="46.402445" lon="11.672801"><ele>1235.32</ele><time>2022-02-05T18:10:07Z</time></trkpt>
<trkpt lat="46.402525" lon="11.673058"><ele>1234.88</ele><time>2022-02-05T18:10:09Z</time></trkpt>
<trkpt lat="46.402514" lon="11.673182"><ele>1233.14</ele><time>2022-02-05T18:10:12Z</time></trkpt>
<trkpt lat="46.402535" lon="11.673266"><ele>1231.84</ele><time>2022-02-05T18:10:15Z</time></trkpt>
<trkpt lat="46.402583" lon="11.673339"><ele>1230.65</ele><time>2022-02-05T18:10:18Z</time></trkpt>
<trkpt lat="46.402656" lon="11.673378"><ele>1230.02</ele><time>2022-02-05T18:10:21Z</time></trkpt>
<trkpt lat="46.402712" lon="11.673373"><ele>1229.84</ele><time>2022-02-05T18:10:24Z</time></trkpt>
<trkpt lat="46.402755" lon="11.673413"><ele>1229.25</ele><time>2022-02-05T18:10:27Z</time></trkpt>
<trkpt lat="46.40286" lon="11.673458"><ele>1228.52</ele><time>2022-02-05T18:10:30Z</time></trkpt>
<trkpt lat="46.402957" lon="11.673544"><ele>1227.23</ele><time>2022-02-05T18:10:33Z</time></trkpt>
<trkpt lat="46.403309" lon="11.674036"><ele>1229.35</ele><time>2022-02-05T18:10:36Z</time></trkpt>
<trkpt lat="46.403348" lon="11.674061"><ele>1229.5</ele><time>2022-02-05T18:10:39Z</time></trkpt>
<trkpt lat="46.404096" lon="11.675295"><ele>1232.19</ele><time>2022-02-05T18:10:42Z</time></trkpt>
<trkpt lat="46.40446" lon="11.675621"><ele>1236.08</ele><time>2022-02-05T18:10:45Z</time></trkpt>
<trkpt lat="46.404624" lon="11.675717"><ele>1237.4</ele><time>2022-02-05T18:10:48Z</time></trkpt>
<trkpt lat="46.40569" lon="11.67591"><ele>1249.18</ele><time>2022-02-05T18:10:51Z</time></trkpt>
<trkpt lat="46.405873" lon="11.676017"><ele>1250.83</ele><time>2022-02-05T18:10:54Z</time></trkpt>
<trkpt lat="46.406378" lon="11.676475"><ele>1248.64</ele><time>2022-02-05T18:10:57Z</time></trkpt>
<trkpt lat="46.406495" lon="11.676551"><ele>1250.02</ele><time>2022-02-05T18:11:00Z</time></trkpt>
<trkpt lat="46.406656" lon="11.676581"><ele>1254.21</ele><time>2022-02-05T18:11:03Z</time></trkpt>
<trkpt lat="46.407088" lon="11.676614"><ele>1256.4</ele><time>2022-02-05T18:11:06Z</time></trkpt>
<trkpt lat="46.407283" lon="11.676654"><ele>1254.72</ele><time>2022-02-05T18:11:09Z</time></trkpt>
<trkpt lat="46.407486" lon="11.676757"><ele>1252.97</ele><time>2022-02-05T18:11:12Z</time></trkpt>
<trkpt lat="46.407655" lon="11.676816"><ele>1255.68</ele><time>2022-02-05T18:11:15Z</time></trkpt>
<trkpt lat="46.40797" lon="11.676778"><ele>1261.95</ele><time>2022-02-05T18:11:18Z</time></trkpt>
<trkpt lat="46.408689" lon="11.67661"><ele>1256.23</ele><time>2022-02-05T18:11:21Z</time></trkpt>
<trkpt lat="46.409027" lon="11.676574"><ele>1255.66</ele><time>2022-02-05T18:11:24Z</time></trkpt>
<trkpt lat="46.40938" lon="11.676599"><ele>1254.83</ele><time>2022-02-05T18:11:27Z</time></trkpt>
<trkpt lat="46.414386" lon="11.678172"><ele>1287.24</ele><time>2022-02-05T18:11:30Z</time></trkpt>
<trkpt lat="46.414602" lon="11.678254"><ele>1289.16</ele><time>2022-02-05T18:11:33Z</time></trkpt>
<trkpt lat="46.414721" lon="11.678329"><ele>1289.07</ele><time>2022-02-05T18:11:36Z</time></trkpt>
<trkpt lat="46.414798" lon="11.678415"><ele>1289.59</ele><time>2022-02-05T18:11:39Z</time></trkpt>
<trkpt lat="46.415048" lon="11.678905"><ele>1291.75</ele><time>2022-02-05T18:11:42Z</time></trkpt>
<trkpt lat="46.415178" lon="11.679013"><ele>1293.6</ele><time>2022-02-05T18:11:45Z</time></trkpt>
<trkpt lat="46.415539" lon="11.679207"><ele>1295.48</ele><time>2022-02-05T18:11:48Z</time></trkpt>
<trkpt lat="46.417307" lon="11.680013"><ele>1305.41</ele><time>2022-02-05T18:11:51Z</time></trkpt>
<trkpt lat="46.419169" lon="11.680614"><ele>1320.61</ele><time>2022-02-05T18:11:54Z</time></trkpt>
<trkpt lat="46.419213" lon="11.680664"><ele>1320.78</ele><time>2022-02-05T18:11:54Z</time></trkpt>
<trkpt lat="46.419295" lon="11.680655"><ele>1321.83</ele><time>2022-02-05T18:11:55Z</time></trkpt>
<trkpt lat="46.419334" lon="11.680592"><ele>1322.63</ele><time>2022-02-05T18:11:55Z</time></trkpt>
<trkpt lat="46.419341" lon="11.680507"><ele>1323.29</ele><time>2022-02-05T18:11:56Z</time></trkpt>
<trkpt lat="46.419311" lon="11.680433"><ele>1323.66</ele><time>2022-02-05T18:11:57Z</time></trkpt>
<trkpt lat="46.419281" lon="11.680414"><ele>1323.57</ele><time>2022-02-05T18:11:57Z</time></trkpt>
<trkpt lat="46.419281" lon="11.680414"><ele>1323.57</ele><time>2022-02-05T18:11:57Z</time></trkpt>
<trkpt lat="46.419258" lon="11.680398"><ele>1323.49</ele><time>2022-02-05T18:12:10Z</time></trkpt>
<trkpt lat="46.41877" lon="11.678856"><ele>1329.58</ele><time>2022-02-05T18:12:23Z</time></trkpt>
<trkpt lat="46.417911" lon="11.675647"><ele>1346.28</ele><time>2022-02-05T18:12:36Z</time></trkpt>
<trkpt lat="46.417825" lon="11.675171"><ele>1349.6</ele><time>2022-02-05T18:12:49Z</time></trkpt>
<trkpt lat="46.417872" lon="11.674907"><ele>1352.23</ele><time>2022-02-05T18:13:03Z</time></trkpt>
<trkpt lat="46.417971" lon="11.674731"><ele>1353.65</ele><time>2022-02-05T18:13:16Z</time></trkpt>
<trkpt lat="46.418017" lon="11.674712"><ele>1353.96</ele><time>2022-02-05T18:13:17Z</time></trkpt>
<trkpt lat="46.418054" lon="11.674668"><ele>1354.58</ele><time>2022-02-05T18:13:19Z</time></trkpt>
<trkpt lat="46.418078" lon="11.674596"><ele>1355.48</ele><time>2022-02-05T18:13:20Z</time></trkpt>
<trkpt lat="46.418077" lon="11.674517"><ele>1356.31</ele><time>2022-02-05T18:13:22Z</time></trkpt>
<trkpt lat="46.418057" lon="11.674456"><ele>1356.88</ele><time>2022-02-05T18:13:23Z</time></trkpt>
<trkpt lat="46.418022" lon="11.674411"><ele>1356.76</ele><time>2022-02-05T18:13:25Z</time></trkpt>
<trkpt lat="46.418013" lon="11.674211"><ele>1356.7</ele><time>2022-02-05T18:13:26Z</time></trkpt>
<trkpt lat="46.418137" lon="11.673855"><ele>1362.07</ele><time>2022-02-05T18:13:28Z</time></trkpt>
<trkpt lat="46.418172" lon="11.673621"><ele>1366.9</ele><time>2022-02-05T18:13:29Z</time></trkpt>
<trkpt lat="46.418167" lon="11.673502"><ele>1368.03</ele><time>2022-02-05T18:13:31Z</time></trkpt>
<trkpt lat="46.418145" lon="11.673391"><ele>1368.73</ele><time>2022-02-05T18:13:32Z</time></trkpt>
<trkpt lat="46.418037" lon="11.673127"><ele>1368.44</ele><time>2022-02-05T18:13:34Z</time></trkpt>
<trkpt lat="46.417772" lon="11.672608"><ele>1365.24</ele><time>2022-02-05T18:13:36Z</time></trkpt>
<trkpt lat="46.417732" lon="11.672653"><ele>1365.06</ele><time>2022-02-05T18:13:37Z</time></trkpt>
<trkpt lat="46.41767" lon="11.672656"><ele>1365.27</ele><time>2022-02-05T18:13:39Z</time></trkpt>
<trkpt lat="46.417608" lon="11.67262"><ele>1365.75</ele><time>2022-02-05T18:13:41Z</time></trkpt>
<trkpt lat="46.417515" lon="11.672493"><ele>1367.01</ele><time>2022-02-05T18:13:42Z</time></trkpt>
<trkpt lat="46.417309" lon="11.672075"><ele>1373.16</ele><time>2022-02-05T18:13:44Z</time></trkpt>
<trkpt lat="46.417271" lon="11.671917"><ele>1375.79</ele><time>2022-02-05T18:13:46Z</time></trkpt>
<trkpt lat="46.417218" lon="11.671811"><ele>1378.44</ele><time>2022-02-05T18:13:47Z</time></trkpt>
<trkpt lat="46.417041" lon="11.67176"><ele>1381.28</ele><time>2022-02-05T18:13:49Z</time></trkpt>
<trkpt lat="46.416962" lon="11.671633"><ele>1384.19</ele><time>2022-02-05T18:13:51Z</time></trkpt>
<trkpt lat="46.416969" lon="11.671465"><ele>1386.05</ele><time>2022-02-05T18:13:53Z</time></trkpt>
<trkpt lat="46.417045" lon="11.671382"><ele>1386.71</ele><time>2022-02-05T18:13:55Z</time></trkpt>
<trkpt lat="46.417147" lon="11.671112"><ele>1389.26</ele><time>2022-02-05T18:13:57Z</time></trkpt>
<trkpt lat="46.417215" lon="11.67088"><ele>1390.75</ele><time>2022-02-05T18:13:59Z</time></trkpt>
<trkpt lat="46.417287" lon="11.670578"><ele>1391.94</ele><time>2022-02-05T18:14:01Z</time></trkpt>
<trkpt lat="46.4173" lon="11.670328"><ele>1394.67</ele><time>2022-02-05T18:14:03Z</time></trkpt>
<trkpt lat="46.417324" lon="11.670173"><ele>1396.96</ele><time>2022-02-05T18:14:06Z</time></trkpt>
<trkpt lat="46.41714" lon="11.670124"><ele>1401.09</ele><time>2022-02-05T18:14:09Z</time></trkpt>
<trkpt lat="46.416502" lon="11.669871"><ele>1411.56</ele><time>2022-02-05T18:14:12Z</time></trkpt>
<trkpt lat="46.416291" lon="11.669728"><ele>1412.6</ele><time>2022-02-05T18:14:15Z</time></trkpt>
<trkpt lat="46.416204" lon="11.669648"><ele>1412.78</ele><time>2022-02-05T18:14:19Z</time></trkpt>
<trkpt lat="46.416104" lon="11.669538"><ele>1412.67</ele><time>2022-02-05T18:14:22Z</time></trkpt>
<trkpt lat="46.415989" lon="11.669369"><ele>1414.14</ele><time>2022-02-05T18:14:25Z</time></trkpt>
<trkpt lat="46.415005" lon="11.668563"><ele>1428.56</ele><time>2022-02-05T18:14:28Z</time></trkpt>
<trkpt lat="46.412976" lon="11.666495"><ele>1454.88</ele><time>2022-02-05T18:14:31Z</time></trkpt>
<trkpt lat="46.412759" lon="11.666182"><ele>1458.98</ele><time>2022-02-05T18:14:34Z</time></trkpt>
<trkpt lat="46.412028" lon="11.664818"><ele>1460.94</ele><time>2022-02-05T18:14:37Z</time></trkpt>
<trkpt lat="46.411945" lon="11.664579"><ele>1461.05</ele><time>2022-02-05T18:14:40Z</time></trkpt>
<trkpt lat="46.411935" lon="11.664332"><ele>1461.68</ele><time>2022-02-05T18:14:43Z</time></trkpt>
<trkpt lat="46.411984" lon="11.664167"><ele>1463.27</ele><time>2022-02-05T18:14:46Z</time></trkpt>
<trkpt lat="46.412547" lon="11.663211"><ele>1475.24</ele><time>2022-02-05T18:14:49Z</time></trkpt>
<trkpt lat="46.41265" lon="11.662954"><ele>1479.32</ele><time>2022-02-05T18:14:52Z</time></trkpt>
<trkpt lat="46.412697" lon="11.662695"><ele>1481.99</ele><time>2022-02-05T18:14:55Z</time></trkpt>
<trkpt lat="46.412713" lon="11.662386"><ele>1483.31</ele><time>2022-02-05T18:14:59Z</time></trkpt>
<trkpt lat="46.412472" lon="11.661086"><ele>1488.98</ele><time>2022-02-05T18:15:02Z</time></trkpt>
<trkpt lat="46.412394" lon="11.660871"><ele>1491.58</ele><time>2022-02-05T18:15:05Z</time></trkpt>
<trkpt lat="46.412275" lon="11.660679"><ele>1493.7</ele><time>2022-02-05T18:15:08Z</time></trkpt>
<trkpt lat="46.411515" lon="11.659828"><ele>1490.92</ele><time>2022-02-05T18:15:11Z</time></trkpt>
<trkpt lat="46.411474" lon="11.659681"><ele>1491.39</ele><time>2022-02-05T18:15:14Z</time></trkpt>
<trkpt lat="46.411454" lon="11.65953"><ele>1493.03</ele><time>2022-02-05T18:15:17Z</time></trkpt>
<trkpt lat="46.41147" lon="11.659404"><ele>1494.95</ele><time>2022-02-05T18:15:20Z</time></trkpt>
<trkpt lat="46.411552" lon="11.659254"><ele>1498.4</ele><time>2022-02-05T18:15:23Z</time></trkpt>
<trkpt lat="46.411776" lon="11.658966"><ele>1506.02</ele><time>2022-02-05T18:15:26Z</time></trkpt>
<trkpt lat="46.411812" lon="11.658807"><ele>1507.13</ele><time>2022-02-05T18:15:29Z</time></trkpt>
<trkpt lat="46.411796" lon="11.658696"><ele>1506.8</ele><time>2022-02-05T18:15:32Z</time></trkpt>
<trkpt lat="46.411566" lon="11.658267"><ele>1501.57</ele><time>2022-02-05T18:15:35Z</time></trkpt>
<trkpt lat="46.411554" lon="11.658088"><ele>1500.63</ele><time>2022-02-05T18:15:38Z</time></trkpt>
<trkpt lat="46.411609" lon="11.657945"><ele>1502.62</ele><time>2022-02-05T18:15:41Z</time></trkpt>
<trkpt lat="46.412003" lon="11.657446"><ele>1517.73</ele><time>2022-02-05T18:15:44Z</time></trkpt>
<trkpt lat="46.412124" lon="11.657247"><ele>1523.41</ele><time>2022-02-05T18:15:47Z</time></trkpt>
<trkpt lat="46.412206" lon="11.656984"><ele>1525.54</ele><time>2022-02-05T18:15:50Z</time></trkpt>
<trkpt lat="46.412294" lon="11.656275"><ele>1526.76</ele><time>2022-02-05T18:15:53Z</time></trkpt>
<trkpt lat="46.412342" lon="11.656101"><ele>1528.37</ele><time>2022-02-05T18:15:56Z</time></trkpt>
<trkpt lat="46.412416" lon="11.655926"><ele>1529.86</ele><time>2022-02-05T18:15:59Z</time></trkpt>
<trkpt lat="46.412638" lon="11.655622"><ele>1536.31</ele><time>2022-02-05T18:16:02Z</time></trkpt>
<trkpt lat="46.412685" lon="11.655485"><ele>1538.43</ele><time>2022-02-05T18:16:05Z</time></trkpt>
<trkpt lat="46.412707" lon="11.655355"><ele>1540.44</ele><time>2022-02-05T18:16:08Z</time></trkpt>
<trkpt lat="46.412695" lon="11.65509"><ele>1546.08</ele><time>2022-02-05T18:16:11Z</time></trkpt>
<trkpt lat="46.412465" lon="11.654481"><ele>1548.27</ele><time>2022-02-05T18:16:14Z</time></trkpt>
<trkpt lat="46.412472" lon="11.654343"><ele>1549.58</ele><time>2022-02-05T18:16:17Z</time></trkpt>
<trkpt lat="46.412516" lon="11.654244"><ele>1551.3</ele><time>2022-02-05T18:16:20Z</time></trkpt>
<trkpt lat="46.412797" lon="11.653942"><ele>1555.08</ele><time>2022-02-05T18:16:24Z</time></trkpt>
<trkpt lat="46.412833" lon="11.653871"><ele>1554.94</ele><time>2022-02-05T18:16:27Z</time></trkpt>
<trkpt lat="46.412846" lon="11.653783"><ele>1554.27</ele><time>2022-02-05T18:16:30Z</time></trkpt>
<trkpt lat="46.412845" lon="11.653671"><ele>1552.74</ele><time>2022-02-05T18:16:33Z</time></trkpt>
<trkpt lat="46.412811" lon="11.653574"><ele>1551.5</ele><time>2022-02-05T18:16:36Z</time></trkpt>
<trkpt lat="46.412743" lon="11.653504"><ele>1552.28</ele><time>2022-02-05T18:16:39Z</time></trkpt>
<trkpt lat="46.412051" lon="11.653204"><ele>1562.0</ele><time>2022-02-05T18:16:42Z</time></trkpt>
<trkpt lat="46.41195" lon="11.653095"><ele>1560.94</ele><time>2022-02-05T18:16:45Z</time></trkpt>
<trkpt lat="46.411909" lon="11.653003"><ele>1560.25</ele><time>2022-02-05T18:16:48Z</time></trkpt>
<trkpt lat="46.411911" lon="11.652829"><ele>1559.88</ele><time>2022-02-05T18:16:51Z</time></trkpt>
<trkpt lat="46.412017" lon="11.652303"><ele>1568.59</ele><time>2022-02-05T18:16:54Z</time></trkpt>
<trkpt lat="46.412041" lon="11.65211"><ele>1574.95</ele><time>2022-02-05T18:16:57Z</time></trkpt>
<trkpt lat="46.412031" lon="11.651962"><ele>1580.89</ele><time>2022-02-05T18:17:00Z</time></trkpt>
<trkpt lat="46.411942" lon="11.651739"><ele>1588.46</ele><time>2022-02-05T18:17:03Z</time></trkpt>
<trkpt lat="46.41185" lon="11.65168"><ele>1593.8</ele><time>2022-02-05T18:17:06Z</time></trkpt>
<trkpt lat="46.411756" lon="11.651699"><ele>1596.16</ele><time>2022-02-05T18:17:09Z</time></trkpt>
<trkpt lat="46.411647" lon="11.651798"><ele>1594.05</ele><time>2022-02-05T18:17:12Z</time></trkpt>
<trkpt lat="46.411117" lon="11.652629"><ele>1574.73</ele><time>2022-02-05T18:17:15Z</time></trkpt>
<trkpt lat="46.410244" lon="11.653533"><ele>1585.12</ele><time>2022-02-05T18:17:18Z</time></trkpt>
<trkpt lat="46.410134" lon="11.653594"><ele>1585.99</ele><time>2022-02-05T18:17:21Z</time></trkpt>
<trkpt lat="46.410028" lon="11.653611"><ele>1587.49</ele><time>2022-02-05T18:17:24Z</time></trkpt>
<trkpt lat="46.409886" lon="11.65359"><ele>1588.69</ele><time>2022-02-05T18:17:27Z</time></trkpt>
<trkpt lat="46.409258" lon="11.65322"><ele>1597.56</ele><time>2022-02-05T18:17:30Z</time></trkpt>
<trkpt lat="46.409105" lon="11.65308"><ele>1597.76</ele><time>2022-02-05T18:17:33Z</time></trkpt>
<trkpt lat="46.408934" lon="11.652868"><ele>1597.0</ele><time>2022-02-05T18:17:36Z</time></trkpt>
<trkpt lat="46.408189" lon="11.651479"><ele>1607.71</ele><time>2022-02-05T18:17:39Z</time></trkpt>
<trkpt lat="46.408102" lon="11.651284"><ele>1607.66</ele><time>2022-02-05T18:17:42Z</time></trkpt>
<trkpt lat="46.40809" lon="11.651167"><ele>1608.69</ele><time>2022-02-05T18:17:45Z</time></trkpt>
<trkpt lat="46.4081" lon="11.651008"><ele>1611.51</ele><time>2022-02-05T18:17:49Z</time></trkpt>
<trkpt lat="46.408161" lon="11.650831"><ele>1616.44</ele><time>2022-02-05T18:17:52Z</time></trkpt>
<trkpt lat="46.408298" lon="11.650239"><ele>1628.93</ele><time>2022-02-05T18:17:55Z</time></trkpt>
<trkpt lat="46.408262" lon="11.650138"><ele>1628.8</ele><time>2022-02-05T18:17:58Z</time></trkpt>
<trkpt lat="46.408142" lon="11.650028"><ele>1626.28</ele><time>2022-02-05T18:18:01Z</time></trkpt>
<trkpt lat="46.407421" lon="11.649622"><ele>1637.29</ele><time>2022-02-05T18:18:04Z</time></trkpt>
<trkpt lat="46.407347" lon="11.649654"><ele>1638.11</ele><time>2022-02-05T18:18:07Z</time></trkpt>
<trkpt lat="46.407272" lon="11.649723"><ele>1638.36</ele><time>2022-02-05T18:18:10Z</time></trkpt>
<trkpt lat="46.407122" lon="11.649928"><ele>1636.86</ele><time>2022-02-05T18:18:13Z</time></trkpt>
<trkpt lat="46.406855" lon="11.650352"><ele>1635.41</ele><time>2022-02-05T18:18:16Z</time></trkpt>
<trkpt lat="46.406773" lon="11.650419"><ele>1635.63</ele><time>2022-02-05T18:18:19Z</time></trkpt>
<trkpt lat="46.406649" lon="11.650462"><ele>1636.37</ele><time>2022-02-05T18:18:22Z</time></trkpt>
<trkpt lat="46.406547" lon="11.65044"><ele>1636.74</ele><time>2022-02-05T18:18:25Z</time></trkpt>
<trkpt lat="46.405984" lon="11.649986"><ele>1637.31</ele><time>2022-02-05T18:18:28Z</time></trkpt>
<trkpt lat="46.40594" lon="11.649898"><ele>1638.23</ele><time>2022-02-05T18:18:31Z</time></trkpt>
<trkpt lat="46.40594" lon="11.649898"><ele>1638.23</ele><time>2022-02-05T18:18:31Z</time></trkpt>
<trkpt lat="46.405853" lon="11.649671"><ele>1640.76</ele><time>2022-02-05T18:18:34Z</time></trkpt>
<trkpt lat="46.40569" lon="11.648244"><ele>1647.22</ele><time>2022-02-05T18:18:36Z</time></trkpt>
<trkpt lat="46.405671" lon="11.647888"><ele>1645.26</ele><time>2022-02-05T18:18:39Z</time></trkpt>
<trkpt lat="46.405709" lon="11.64766"><ele>1645.45</ele><time>2022-02-05T18:18:42Z</time></trkpt>
<trkpt lat="46.405853" lon="11.647337"><ele>1649.99</ele><time>2022-02-05T18:18:44Z</time></trkpt>
<trkpt lat="46.406088" lon="11.64704"><ele>1657.38</ele><time>2022-02-05T18:18:47Z</time></trkpt>
<trkpt lat="46.406132" lon="11.646885"><ele>1660.54</ele><time>2022-02-05T18:18:50Z</time></trkpt>
<trkpt lat="46.406132" lon="11.646403"><ele>1660.7</ele><time>2022-02-05T18:18:53Z</time></trkpt>
<trkpt lat="46.406203" lon="11.644914"><ele>1663.9</ele><time>2022-02-05T18:18:55Z</time></trkpt>
<trkpt lat="46.406293" lon="11.644646"><ele>1669.89</ele><time>2022-02-05T18:18:58Z</time></trkpt>
<trkpt lat="46.406392" lon="11.644426"><ele>1674.11</ele><time>2022-02-05T18:19:01Z</time></trkpt>
<trkpt lat="46.406441" lon="11.644251"><ele>1676.73</ele><time>2022-02-05T18:19:03Z</time></trkpt>
<trkpt lat="46.406429" lon="11.644133"><ele>1675.64</ele><time>2022-02-05T18:19:06Z</time></trkpt>
<trkpt lat="46.406285" lon="11.643821"><ele>1670.85</ele><time>2022-02-05T18:19:09Z</time></trkpt>
<trkpt lat="46.406306" lon="11.643612"><ele>1673.62</ele><time>2022-02-05T18:19:11Z</time></trkpt>
<trkpt lat="46.406504" lon="11.643066"><ele>1687.35</ele><time>2022-02-05T18:19:14Z</time></trkpt>
<trkpt lat="46.40651" lon="11.642889"><ele>1690.12</ele><time>2022-02-05T18:19:17Z</time></trkpt>
<trkpt lat="46.406377" lon="11.642551"><ele>1696.04</ele><time>2022-02-05T18:19:19Z</time></trkpt>
<trkpt lat="46.406214" lon="11.642448"><ele>1703.91</ele><time>2022-02-05T18:19:22Z</time></trkpt>
<trkpt lat="46.40599" lon="11.642514"><ele>1708.58</ele><time>2022-02-05T18:19:25Z</time></trkpt>
<trkpt lat="46.405821" lon="11.642635"><ele>1713.31</ele><time>2022-02-05T18:19:27Z</time></trkpt>
<trkpt lat="46.405206" lon="11.643502"><ele>1700.12</ele><time>2022-02-05T18:19:30Z</time></trkpt>
<trkpt lat="46.40515" lon="11.643537"><ele>1699.84</ele><time>2022-02-05T18:19:33Z</time></trkpt>
<trkpt lat="46.40507" lon="11.643555"><ele>1700.63</ele><time>2022-02-05T18:19:35Z</time></trkpt>
<trkpt lat="46.404408" lon="11.643402"><ele>1706.17</ele><time>2022-02-05T18:19:38Z</time></trkpt>
<trkpt lat="46.404053" lon="11.64322"><ele>1712.36</ele><time>2022-02-05T18:19:41Z</time></trkpt>
<trkpt lat="46.403708" lon="11.642845"><ele>1714.21</ele><time>2022-02-05T18:19:43Z</time></trkpt>
<trkpt lat="46.403655" lon="11.642641"><ele>1714.81</ele><time>2022-02-05T18:19:46Z</time></trkpt>
<trkpt lat="46.403675" lon="11.642434"><ele>1715.7</ele><time>2022-02-05T18:19:49Z</time></trkpt>
<trkpt lat="46.403778" lon="11.641992"><ele>1717.7</ele><time>2022-02-05T18:19:51Z</time></trkpt>
<trkpt lat="46.403963" lon="11.641595"><ele>1717.12</ele><time>2022-02-05T18:19:54Z</time></trkpt>
<trkpt lat="46.404246" lon="11.641233"><ele>1713.79</ele><time>2022-02-05T18:19:57Z</time></trkpt>
<trkpt lat="46.404485" lon="11.64099"><ele>1712.18</ele><time>2022-02-05T18:19:59Z</time></trkpt>
<trkpt lat="46.404902" lon="11.64083"><ele>1718.74</ele><time>2022-02-05T18:20:02Z</time></trkpt>
<trkpt lat="46.40511" lon="11.640813"><ele>1721.81</ele><time>2022-02-05T18:20:05Z</time></trkpt>
<trkpt lat="46.405235" lon="11.640876"><ele>1724.07</ele><time>2022-02-05T18:20:07Z</time></trkpt>
<trkpt lat="46.405448" lon="11.641122"><ele>1726.88</ele><time>2022-02-05T18:20:10Z</time></trkpt>
<trkpt lat="46.405686" lon="11.64119"><ele>1723.58</ele><time>2022-02-05T18:20:13Z</time></trkpt>
<trkpt lat="46.405987" lon="11.64117"><ele>1721.06</ele><time>2022-02-05T18:20:15Z</time></trkpt>
<trkpt lat="46.406135" lon="11.641183"><ele>1720.43</ele><time>2022-02-05T18:20:18Z</time></trkpt>
<trkpt lat="46.407027" lon="11.641579"><ele>1725.96</ele><time>2022-02-05T18:20:21Z</time></trkpt>
<trkpt lat="46.40715" lon="11.641597"><ele>1729.86</ele><time>2022-02-05T18:20:23Z</time></trkpt>
<trkpt lat="46.407288" lon="11.641493"><ele>1735.07</ele><time>2022-02-05T18:20:26Z</time></trkpt>
<trkpt lat="46.407343" lon="11.641326"><ele>1737.53</ele><time>2022-02-05T18:20:29Z</time></trkpt>
<trkpt lat="46.407331" lon="11.641096"><ele>1737.56</ele><time>2022-02-05T18:20:32Z</time></trkpt>
<trkpt lat="46.407173" lon="11.640095"><ele>1730.0</ele><time>2022-02-05T18:20:34Z</time></trkpt>
<trkpt lat="46.407212" lon="11.639832"><ele>1727.85</ele><time>2022-02-05T18:20:37Z</time></trkpt>
<trkpt lat="46.407832" lon="11.638581"><ele>1740.69</ele><time>2022-02-05T18:20:40Z</time></trkpt>
<trkpt lat="46.407839" lon="11.638262"><ele>1741.14</ele><time>2022-02-05T18:20:42Z</time></trkpt>
<trkpt lat="46.407781" lon="11.637865"><ele>1744.94</ele><time>2022-02-05T18:20:45Z</time></trkpt>
<trkpt lat="46.407669" lon="11.637679"><ele>1748.21</ele><time>2022-02-05T18:20:48Z</time></trkpt>
<trkpt lat="46.40717" lon="11.63758"><ele>1743.43</ele><time>2022-02-05T18:20:50Z</time></trkpt>
<trkpt lat="46.406818" lon="11.637537"><ele>1735.96</ele><time>2022-02-05T18:20:53Z</time></trkpt>
<trkpt lat="46.406689" lon="11.637442"><ele>1733.85</ele><time>2022-02-05T18:20:56Z</time></trkpt>
<trkpt lat="46.406628" lon="11.63733"><ele>1734.08</ele><time>2022-02-05T18:20:58Z</time></trkpt>
<trkpt lat="46.406588" lon="11.637161"><ele>1735.74</ele><time>2022-02-05T18:21:01Z</time></trkpt>
<trkpt lat="46.406625" lon="11.636982"><ele>1738.68</ele><time>2022-02-05T18:21:04Z</time></trkpt>
<trkpt lat="46.40683" lon="11.636408"><ele>1753.33</ele><time>2022-02-05T18:21:06Z</time></trkpt>
<trkpt lat="46.406814" lon="11.636182"><ele>1756.58</ele><time>2022-02-05T18:21:09Z</time></trkpt>
<trkpt lat="46.406761" lon="11.636063"><ele>1756.66</ele><time>2022-02-05T18:21:12Z</time></trkpt>
<trkpt lat="46.406592" lon="11.635957"><ele>1754.05</ele><time>2022-02-05T18:21:14Z</time></trkpt>
<trkpt lat="46.405802" lon="11.635861"><ele>1756.27</ele><time>2022-02-05T18:21:17Z</time></trkpt>
<trkpt lat="46.405131" lon="11.636197"><ele>1739.76</ele><time>2022-02-05T18:21:20Z</time></trkpt>
<trkpt lat="46.404954" lon="11.63624"><ele>1736.82</ele><time>2022-02-05T18:21:22Z</time></trkpt>
<trkpt lat="46.403972" lon="11.635741"><ele>1736.34</ele><time>2022-02-05T18:21:25Z</time></trkpt>
<trkpt lat="46.40363" lon="11.635531"><ele>1734.1</ele><time>2022-02-05T18:21:28Z</time></trkpt>
<trkpt lat="46.403476" lon="11.635321"><ele>1735.9</ele><time>2022-02-05T18:21:30Z</time></trkpt>
<trkpt lat="46.403358" lon="11.634917"><ele>1733.77</ele><time>2022-02-05T18:21:33Z</time></trkpt>
<trkpt lat="46.403343" lon="11.634561"><ele>1734.44</ele><time>2022-02-05T18:21:36Z</time></trkpt>
<trkpt lat="46.403463" lon="11.633726"><ele>1744.47</ele><time>2022-02-05T18:21:38Z</time></trkpt>
<trkpt lat="46.403482" lon="11.633465"><ele>1749.21</ele><time>2022-02-05T18:21:41Z</time></trkpt>
<trkpt lat="46.403424" lon="11.633128"><ele>1751.75</ele><time>2022-02-05T18:21:44Z</time></trkpt>
<trkpt lat="46.403345" lon="11.632936"><ele>1750.31</ele><time>2022-02-05T18:21:46Z</time></trkpt>
<trkpt lat="46.402204" lon="11.631238"><ele>1743.23</ele><time>2022-02-05T18:21:49Z</time></trkpt>
<trkpt lat="46.402116" lon="11.630977"><ele>1744.09</ele><time>2022-02-05T18:21:52Z</time></trkpt>
<trkpt lat="46.402041" lon="11.630441"><ele>1745.89</ele><time>2022-02-05T18:21:54Z</time></trkpt>
<trkpt lat="46.402036" lon="11.630175"><ele>1745.99</ele><time>2022-02-05T18:21:57Z</time></trkpt>
<trkpt lat="46.402516" lon="11.628947"><ele>1738.5</ele><time>2022-02-05T18:22:00Z</time></trkpt>
<trkpt lat="46.402649" lon="11.62868"><ele>1742.9</ele><time>2022-02-05T18:22:03Z</time></trkpt>
<trkpt lat="46.402937" lon="11.628343"><ele>1750.02</ele><time>2022-02-05T18:22:05Z</time></trkpt>
<trkpt lat="46.403" lon="11.628217"><ele>1749.65</ele><time>2022-02-05T18:22:08Z</time></trkpt>
<trkpt lat="46.403044" lon="11.628009"><ele>1748.91</ele><time>2022-02-05T18:22:11Z</time></trkpt>
<trkpt lat="46.403088" lon="11.626856"><ele>1752.21</ele><time>2022-02-05T18:22:13Z</time></trkpt>
<trkpt lat="46.40304" lon="11.626723"><ele>1751.44</ele><time>2022-02-05T18:22:16Z</time></trkpt>
<trkpt lat="46.40293" lon="11.626603"><ele>1750.53</ele><time>2022-02-05T18:22:19Z</time></trkpt>
<trkpt lat="46.402757" lon="11.626591"><ele>1747.57</ele><time>2022-02-05T18:22:21Z</time></trkpt>
<trkpt lat="46.402313" lon="11.626658"><ele>1740.12</ele><time>2022-02-05T18:22:24Z</time></trkpt>
<trkpt lat="46.402155" lon="11.626601"><ele>1739.23</ele><time>2022-02-05T18:22:27Z</time></trkpt>
<trkpt lat="46.402004" lon="11.626425"><ele>1738.18</ele><time>2022-02-05T18:22:29Z</time></trkpt>
<trkpt lat="46.401959" lon="11.626325"><ele>1736.87</ele><time>2022-02-05T18:22:32Z</time></trkpt>
<trkpt lat="46.401947" lon="11.626061"><ele>1735.42</ele><time>2022-02-05T18:22:35Z</time></trkpt>
<trkpt lat="46.402291" lon="11.623941"><ele>1742.26</ele><time>2022-02-05T18:22:37Z</time></trkpt>
<trkpt lat="46.402355" lon="11.62378"><ele>1740.82</ele><time>2022-02-05T18:22:40Z</time></trkpt>
<trkpt lat="46.402475" lon="11.623666"><ele>1741.34</ele><time>2022-02-05T18:22:43Z</time></trkpt>
<trkpt lat="46.402677" lon="11.623554"><ele>1744.67</ele><time>2022-02-05T18:22:45Z</time></trkpt>
<trkpt lat="46.402772" lon="11.62347"><ele>1744.81</ele><time>2022-02-05T18:22:48Z</time></trkpt>
<trkpt lat="46.402871" lon="11.623353"><ele>1744.56</ele><time>2022-02-05T18:22:51Z</time></trkpt>
<trkpt lat="46.403018" lon="11.623112"><ele>1743.3</ele><time>2022-02-05T18:22:53Z</time></trkpt>
<trkpt lat="46.403117" lon="11.622993"><ele>1743.82</ele><time>2022-02-05T18:22:56Z</time></trkpt>
<trkpt lat="46.403713" lon="11.622632"><ele>1756.1</ele><time>2022-02-05T18:22:59Z</time></trkpt>
<trkpt lat="46.403864" lon="11.622504"><ele>1759.75</ele><time>2022-02-05T18:23:01Z</time></trkpt>
<trkpt lat="46.403947" lon="11.622348"><ele>1760.85</ele><time>2022-02-05T18:23:04Z</time></trkpt>
<trkpt lat="46.403995" lon="11.622191"><ele>1760.29</ele><time>2022-02-05T18:23:07Z</time></trkpt>
<trkpt lat="46.403996" lon="11.62185"><ele>1757.87</ele><time>2022-02-05T18:23:09Z</time></trkpt>
<trkpt lat="46.403971" lon="11.621608"><ele>1756.11</ele><time>2022-02-05T18:23:12Z</time></trkpt>
<trkpt lat="46.403904" lon="11.621277"><ele>1753.14</ele><time>2022-02-05T18:23:15Z</time></trkpt>
<trkpt lat="46.403836" lon="11.621084"><ele>1753.78</ele><time>2022-02-05T18:23:17Z</time></trkpt>
<trkpt lat="46.403627" lon="11.620767"><ele>1753.02</ele><time>2022-02-05T18:23:20Z</time></trkpt>
<trkpt lat="46.403455" lon="11.620625"><ele>1755.44</ele><time>2022-02-05T18:23:23Z</time></trkpt>
<trkpt lat="46.403323" lon="11.620549"><ele>1756.08</ele><time>2022-02-05T18:23:25Z</time></trkpt>
<trkpt lat="46.402771" lon="11.620535"><ele>1753.18</ele><time>2022-02-05T18:23:28Z</time></trkpt>
<trkpt lat="46.402677" lon="11.620499"><ele>1751.27</ele><time>2022-02-05T18:23:31Z</time></trkpt>
<trkpt lat="46.402589" lon="11.620394"><ele>1749.98</ele><time>2022-02-05T18:23:33Z</time></trkpt>
<trkpt lat="46.402531" lon="11.620232"><ele>1749.1</ele><time>2022-02-05T18:23:36Z</time></trkpt>
<trkpt lat="46.402524" lon="11.62"><ele>1748.85</ele><time>2022-02-05T18:23:39Z</time></trkpt>
<trkpt lat="46.402729" lon="11.617075"><ele>1753.24</ele><time>2022-02-05T18:23:42Z</time></trkpt>
<trkpt lat="46.402791" lon="11.616853"><ele>1753.03</ele><time>2022-02-05T18:23:44Z</time></trkpt>
<trkpt lat="46.402905" lon="11.616716"><ele>1753.9</ele><time>2022-02-05T18:23:47Z</time></trkpt>
<trkpt lat="46.404207" lon="11.615657"><ele>1753.27</ele><time>2022-02-05T18:23:50Z</time></trkpt>
<trkpt lat="46.404393" lon="11.615448"><ele>1757.39</ele><time>2022-02-05T18:23:52Z</time></trkpt>
<trkpt lat="46.404525" lon="11.615223"><ele>1762.45</ele><time>2022-02-05T18:23:55Z</time></trkpt>
<trkpt lat="46.40462" lon="11.614931"><ele>1765.75</ele><time>2022-02-05T18:23:58Z</time></trkpt>
<trkpt lat="46.404627" lon="11.614659"><ele>1763.79</ele><time>2022-02-05T18:24:00Z</time></trkpt>
<trkpt lat="46.404592" lon="11.614392"><ele>1758.79</ele><time>2022-02-05T18:24:03Z</time></trkpt>
<trkpt lat="46.404069" lon="11.612678"><ele>1747.93</ele><time>2022-02-05T18:24:06Z</time></trkpt>
<trkpt lat="46.404013" lon="11.612432"><ele>1747.02</ele><time>2022-02-05T18:24:08Z</time></trkpt>
<trkpt lat="46.404007" lon="11.612274"><ele>1746.62</ele><time>2022-02-05T18:24:11Z</time></trkpt>
<trkpt lat="46.404142" lon="11.610469"><ele>1751.92</ele><time>2022-02-05T18:24:14Z</time></trkpt>
<trkpt lat="46.404254" lon="11.609134"><ele>1751.88</ele><time>2022-02-05T18:24:16Z</time></trkpt>
<trkpt lat="46.40428" lon="11.60899"><ele>1751.36</ele><time>2022-02-05T18:24:19Z</time></trkpt>
<trkpt lat="46.404367" lon="11.608739"><ele>1751.0</ele><time>2022-02-05T18:24:22Z</time></trkpt>
<trkpt lat="46.404568" lon="11.608281"><ele>1751.1</ele><time>2022-02-05T18:24:24Z</time></trkpt>
<trkpt lat="46.404669" lon="11.608073"><ele>1751.18</ele><time>2022-02-05T18:24:27Z</time></trkpt>
<trkpt lat="46.404987" lon="11.607516"><ele>1749.14</ele><time>2022-02-05T18:24:30Z</time></trkpt>
<trkpt lat="46.405154" lon="11.607327"><ele>1749.07</ele><time>2022-02-05T18:24:32Z</time></trkpt>
<trkpt lat="46.40563" lon="11.606976"><ele>1745.87</ele><time>2022-02-05T18:24:35Z</time></trkpt>
<trkpt lat="46.405748" lon="11.606787"><ele>1744.68</ele><time>2022-02-05T18:24:38Z</time></trkpt>
<trkpt lat="46.405979" lon="11.606261"><ele>1740.36</ele><time>2022-02-05T18:24:40Z</time></trkpt>
<trkpt lat="46.406015" lon="11.606174"><ele>1739.6</ele><time>2022-02-05T18:24:43Z</time></trkpt>
<trkpt lat="46.406144" lon="11.605988"><ele>1737.89</ele><time>2022-02-05T18:24:46Z</time></trkpt>
<trkpt lat="46.406744" lon="11.6056"><ele>1733.25</ele><time>2022-02-05T18:24:48Z</time></trkpt>
<trkpt lat="46.406865" lon="11.605501"><ele>1733.61</ele><time>2022-02-05T18:24:51Z</time></trkpt>
<trkpt lat="46.406955" lon="11.605244"><ele>1731.6</ele><time>2022-02-05T18:24:54Z</time></trkpt>
<trkpt lat="46.406962" lon="11.605101"><ele>1729.58</ele><time>2022-02-05T18:24:56Z</time></trkpt>
<trkpt lat="46.406911" lon="11.604927"><ele>1727.24</ele><time>2022-02-05T18:24:59Z</time></trkpt>
<trkpt lat="46.406826" lon="11.604829"><ele>1726.41</ele><time>2022-02-05T18:25:02Z</time></trkpt>
<trkpt lat="46.406403" lon="11.604473"><ele>1724.2</ele><time>2022-02-05T18:25:04Z</time></trkpt>
<trkpt lat="46.40632" lon="11.604351"><ele>1724.41</ele><time>2022-02-05T18:25:07Z</time></trkpt>
<trkpt lat="46.406271" lon="11.604184"><ele>1724.33</ele><time>2022-02-05T18:25:10Z</time></trkpt>
<trkpt lat="46.406275" lon="11.604039"><ele>1724.15</ele><time>2022-02-05T18:25:13Z</time></trkpt>
<trkpt lat="46.406321" lon="11.603897"><ele>1723.23</ele><time>2022-02-05T18:25:15Z</time></trkpt>
<trkpt lat="46.406423" lon="11.603794"><ele>1721.37</ele><time>2022-02-05T18:25:18Z</time></trkpt>
<trkpt lat="46.407379" lon="11.603091"><ele>1706.19</ele><time>2022-02-05T18:25:21Z</time></trkpt>
<trkpt lat="46.407442" lon="11.603001"><ele>1705.61</ele><time>2022-02-05T18:25:23Z</time></trkpt>
<trkpt lat="46.407514" lon="11.602771"><ele>1704.07</ele><time>2022-02-05T18:25:26Z</time></trkpt>
<trkpt lat="46.40752" lon="11.602642"><ele>1703.69</ele><time>2022-02-05T18:25:29Z</time></trkpt>
<trkpt lat="46.407384" lon="11.599864"><ele>1689.6</ele><time>2022-02-05T18:25:31Z</time></trkpt>
<trkpt lat="46.407394" lon="11.599599"><ele>1687.73</ele><time>2022-02-05T18:25:34Z</time></trkpt>
<trkpt lat="46.407584" lon="11.598302"><ele>1682.76</ele><time>2022-02-05T18:25:37Z</time></trkpt>
<trkpt lat="46.407708" lon="11.597324"><ele>1672.16</ele><time>2022-02-05T18:25:39Z</time></trkpt>
<trkpt lat="46.407697" lon="11.597044"><ele>1670.17</ele><time>2022-02-05T18:25:42Z</time></trkpt>
<trkpt lat="46.407141" lon="11.593221"><ele>1650.48</ele><time>2022-02-05T18:25:45Z</time></trkpt>
<trkpt lat="46.407112" lon="11.592714"><ele>1646.27</ele><time>2022-02-05T18:25:47Z</time></trkpt>
<trkpt lat="46.407159" lon="11.591604"><ele>1635.6</ele><time>2022-02-05T18:25:50Z</time></trkpt>
<trkpt lat="46.407169" lon="11.59109"><ele>1633.25</ele><time>2022-02-05T18:25:53Z</time></trkpt>
<trkpt lat="46.407155" lon="11.590784"><ele>1631.55</ele><time>2022-02-05T18:25:55Z</time></trkpt>
<trkpt lat="46.407078" lon="11.590232"><ele>1629.39</ele><time>2022-02-05T18:25:58Z</time></trkpt>
<trkpt lat="46.406889" lon="11.589239"><ele>1628.38</ele><time>2022-02-05T18:26:01Z</time></trkpt>
<trkpt lat="46.406738" lon="11.588165"><ele>1625.55</ele><time>2022-02-05T18:26:03Z</time></trkpt>
<trkpt lat="46.406687" lon="11.587962"><ele>1625.39</ele><time>2022-02-05T18:26:06Z</time></trkpt>
<trkpt lat="46.406581" lon="11.587725"><ele>1625.88</ele><time>2022-02-05T18:26:09Z</time></trkpt>
<trkpt lat="46.406211" lon="11.587011"><ele>1623.01</ele><time>2022-02-05T18:26:11Z</time></trkpt>
<trkpt lat="46.406134" lon="11.5868"><ele>1623.18</ele><time>2022-02-05T18:26:14Z</time></trkpt>
<trkpt lat="46.406102" lon="11.586573"><ele>1622.49</ele><time>2022-02-05T18:26:17Z</time></trkpt>
<trkpt lat="46.406179" lon="11.585323"><ele>1619.23</ele><time>2022-02-05T18:26:19Z</time></trkpt>
<trkpt lat="46.406179" lon="11.585323"><ele>1619.23</ele><time>2022-02-05T18:26:19Z</time></trkpt>
<trkpt lat="46.406207" lon="11.584887"><ele>1619.02</ele><time>2022-02-05T18:26:22Z</time></trkpt>
<trkpt lat="46.406285" lon="11.584634"><ele>1620.75</ele><time>2022-02-05T18:26:24Z</time></trkpt>
<trkpt lat="46.406741" lon="11.583552"><ele>1623.72</ele><time>2022-02-05T18:26:27Z</time></trkpt>
<trkpt lat="46.406876" lon="11.583331"><ele>1625.27</ele><time>2022-02-05T18:26:29Z</time></trkpt>
<trkpt lat="46.407835" lon="11.582678"><ele>1613.96</ele><time>2022-02-05T18:26:32Z</time></trkpt>
<trkpt lat="46.408124" lon="11.582398"><ele>1613.08</ele><time>2022-02-05T18:26:34Z</time></trkpt>
<trkpt lat="46.40829" lon="11.582156"><ele>1618.07</ele><time>2022-02-05T18:26:36Z</time></trkpt>
<trkpt lat="46.408644" lon="11.581828"><ele>1621.62</ele><time>2022-02-05T18:26:39Z</time></trkpt>
<trkpt lat="46.409793" lon="11.581114"><ele>1616.95</ele><time>2022-02-05T18:26:41Z</time></trkpt>
<trkpt lat="46.410028" lon="11.580891"><ele>1612.03</ele><time>2022-02-05T18:26:44Z</time></trkpt>
<trkpt lat="46.41129" lon="11.578657"><ele>1600.71</ele><time>2022-02-05T18:26:46Z</time></trkpt>
<trkpt lat="46.411428" lon="11.578376"><ele>1597.53</ele><time>2022-02-05T18:26:48Z</time></trkpt>
<trkpt lat="46.41145" lon="11.578281"><ele>1596.04</ele><time>2022-02-05T18:26:51Z</time></trkpt>
<trkpt lat="46.411451" lon="11.578174"><ele>1594.69</ele><time>2022-02-05T18:26:53Z</time></trkpt>
<trkpt lat="46.411408" lon="11.578056"><ele>1594.46</ele><time>2022-02-05T18:26:56Z</time></trkpt>
<trkpt lat="46.411362" lon="11.578007"><ele>1595.05</ele><time>2022-02-05T18:26:58Z</time></trkpt>
<trkpt lat="46.411289" lon="11.57798"><ele>1595.99</ele><time>2022-02-05T18:27:00Z</time></trkpt>
<trkpt lat="46.411212" lon="11.577989"><ele>1597.22</ele><time>2022-02-05T18:27:03Z</time></trkpt>
<trkpt lat="46.410805" lon="11.578203"><ele>1596.24</ele><time>2022-02-05T18:27:05Z</time></trkpt>
<trkpt lat="46.410081" lon="11.578323"><ele>1591.69</ele><time>2022-02-05T18:27:08Z</time></trkpt>
<trkpt lat="46.409881" lon="11.578393"><ele>1591.52</ele><time>2022-02-05T18:27:10Z</time></trkpt>
<trkpt lat="46.409629" lon="11.578539"><ele>1593.65</ele><time>2022-02-05T18:27:12Z</time></trkpt>
<trkpt lat="46.409583" lon="11.578526"><ele>1592.73</ele><time>2022-02-05T18:27:15Z</time></trkpt>
<trkpt lat="46.409547" lon="11.578483"><ele>1590.96</ele><time>2022-02-05T18:27:17Z</time></trkpt>
<trkpt lat="46.40953" lon="11.578434"><ele>1589.18</ele><time>2022-02-05T18:27:20Z</time></trkpt>
<trkpt lat="46.409535" lon="11.578362"><ele>1586.9</ele><time>2022-02-05T18:27:22Z</time></trkpt>
<trkpt lat="46.409559" lon="11.578296"><ele>1585.07</ele><time>2022-02-05T18:27:24Z</time></trkpt>
<trkpt lat="46.40964" lon="11.578247"><ele>1584.54</ele><time>2022-02-05T18:27:27Z</time></trkpt>
<trkpt lat="46.409822" lon="11.578197"><ele>1585.68</ele><time>2022-02-05T18:27:29Z</time></trkpt>
<trkpt lat="46.409925" lon="11.578142"><ele>1586.18</ele><time>2022-02-05T18:27:32Z</time></trkpt>
<trkpt lat="46.410028" lon="11.578017"><ele>1585.6</ele><time>2022-02-05T18:27:34Z</time></trkpt>
<trkpt lat="46.41018" lon="11.57762"><ele>1579.34</ele><time>2022-02-05T18:27:37Z</time></trkpt>
<trkpt lat="46.410432" lon="11.577063"><ele>1574.1</ele><time>2022-02-05T18:27:39Z</time></trkpt>
<trkpt lat="46.410473" lon="11.576863"><ele>1572.18</ele><time>2022-02-05T18:27:41Z</time></trkpt>
<trkpt lat="46.410492" lon="11.57581"><ele>1559.47</ele><time>2022-02-05T18:27:44Z</time></trkpt>
<trkpt lat="46.410464" lon="11.575577"><ele>1558.39</ele><time>2022-02-05T18:27:46Z</time></trkpt>
<trkpt lat="46.410411" lon="11.575412"><ele>1556.8</ele><time>2022-02-05T18:27:49Z</time></trkpt>
<trkpt lat="46.410156" lon="11.57479"><ele>1554.36</ele><time>2022-02-05T18:27:51Z</time></trkpt>
<trkpt lat="46.410061" lon="11.574596"><ele>1555.47</ele><time>2022-02-05T18:27:53Z</time></trkpt>
<trkpt lat="46.40965" lon="11.573978"><ele>1557.71</ele><time>2022-02-05T18:27:56Z</time></trkpt>
<trkpt lat="46.409313" lon="11.573619"><ele>1547.76</ele><time>2022-02-05T18:27:58Z</time></trkpt>
<trkpt lat="46.409233" lon="11.573459"><ele>1547.24</ele><time>2022-02-05T18:28:01Z</time></trkpt>
<trkpt lat="46.409179" lon="11.57326"><ele>1549.03</ele><time>2022-02-05T18:28:03Z</time></trkpt>
<trkpt lat="46.409175" lon="11.572992"><ele>1551.99</ele><time>2022-02-05T18:28:05Z</time></trkpt>
<trkpt lat="46.409237" lon="11.572718"><ele>1555.54</ele><time>2022-02-05T18:28:08Z</time></trkpt>
<trkpt lat="46.409964" lon="11.571763"><ele>1549.47</ele><time>2022-02-05T18:28:10Z</time></trkpt>
<trkpt lat="46.410741" lon="11.570631"><ele>1541.25</ele><time>2022-02-05T18:28:13Z</time></trkpt>
<trkpt lat="46.41095" lon="11.570254"><ele>1538.32</ele><time>2022-02-05T18:28:15Z</time></trkpt>
<trkpt lat="46.411405" lon="11.569685"><ele>1530.94</ele><time>2022-02-05T18:28:17Z</time></trkpt>
<trkpt lat="46.411715" lon="11.569329"><ele>1523.24</ele><time>2022-02-05T18:28:20Z</time></trkpt>
<trkpt lat="46.41192" lon="11.569047"><ele>1519.66</ele><time>2022-02-05T18:28:22Z</time></trkpt>
<trkpt lat="46.411967" lon="11.568919"><ele>1518.61</ele><time>2022-02-05T18:28:25Z</time></trkpt>
<trkpt lat="46.411991" lon="11.568765"><ele>1517.28</ele><time>2022-02-05T18:28:27Z</time></trkpt>
<trkpt lat="46.411992" lon="11.568592"><ele>1516.08</ele><time>2022-02-05T18:28:30Z</time></trkpt>
<trkpt lat="46.411931" lon="11.568102"><ele>1514.73</ele><time>2022-02-05T18:28:32Z</time></trkpt>
<trkpt lat="46.41195" lon="11.567761"><ele>1511.94</ele><time>2022-02-05T18:28:34Z</time></trkpt>
<trkpt lat="46.411974" lon="11.567605"><ele>1511.61</ele><time>2022-02-05T18:28:37Z</time></trkpt>
<trkpt lat="46.412229" lon="11.566917"><ele>1507.47</ele><time>2022-02-05T18:28:39Z</time></trkpt>
<trkpt lat="46.412232" lon="11.566766"><ele>1504.78</ele><time>2022-02-05T18:28:42Z</time></trkpt>
<trkpt lat="46.412191" lon="11.566641"><ele>1502.4</ele><time>2022-02-05T18:28:44Z</time></trkpt>
<trkpt lat="46.412126" lon="11.566586"><ele>1501.05</ele><time>2022-02-05T18:28:46Z</time></trkpt>
<trkpt lat="46.412043" lon="11.566579"><ele>1500.24</ele><time>2022-02-05T18:28:49Z</time></trkpt>
<trkpt lat="46.411425" lon="11.566683"><ele>1494.12</ele><time>2022-02-05T18:28:51Z</time></trkpt>
<trkpt lat="46.411328" lon="11.566746"><ele>1494.7</ele><time>2022-02-05T18:28:54Z</time></trkpt>
<trkpt lat="46.411081" lon="11.567048"><ele>1502.21</ele><time>2022-02-05T18:28:56Z</time></trkpt>
<trkpt lat="46.411007" lon="11.567062"><ele>1502.29</ele><time>2022-02-05T18:28:58Z</time></trkpt>
<trkpt lat="46.410956" lon="11.56699"><ele>1499.82</ele><time>2022-02-05T18:29:01Z</time></trkpt>
<trkpt lat="46.410951" lon="11.56688"><ele>1496.34</ele><time>2022-02-05T18:29:03Z</time></trkpt>
<trkpt lat="46.411046" lon="11.566764"><ele>1492.91</ele><time>2022-02-05T18:29:06Z</time></trkpt>
<trkpt lat="46.411506" lon="11.56642"><ele>1488.9</ele><time>2022-02-05T18:29:08Z</time></trkpt>
<trkpt lat="46.411743" lon="11.56608"><ele>1485.39</ele><time>2022-02-05T18:29:10Z</time></trkpt>
<trkpt lat="46.411866" lon="11.565935"><ele>1483.61</ele><time>2022-02-05T18:29:13Z</time></trkpt>
<trkpt lat="46.412183" lon="11.565783"><ele>1484.14</ele><time>2022-02-05T18:29:15Z</time></trkpt>
<trkpt lat="46.412365" lon="11.565647"><ele>1483.55</ele><time>2022-02-05T18:29:18Z</time></trkpt>
<trkpt lat="46.413782" lon="11.564031"><ele>1464.99</ele><time>2022-02-05T18:29:20Z</time></trkpt>
<trkpt lat="46.413923" lon="11.56392"><ele>1463.08</ele><time>2022-02-05T18:29:22Z</time></trkpt>
<trkpt lat="46.414094" lon="11.563917"><ele>1460.62</ele><time>2022-02-05T18:29:25Z</time></trkpt>
<trkpt lat="46.4142" lon="11.563998"><ele>1460.42</ele><time>2022-02-05T18:29:27Z</time></trkpt>
<trkpt lat="46.414578" lon="11.564579"><ele>1454.47</ele><time>2022-02-05T18:29:30Z</time></trkpt>
<trkpt lat="46.41463" lon="11.564766"><ele>1452.25</ele><time>2022-02-05T18:29:32Z</time></trkpt>
<trkpt lat="46.414619" lon="11.565005"><ele>1450.45</ele><time>2022-02-05T18:29:35Z</time></trkpt>
<trkpt lat="46.414545" lon="11.565354"><ele>1452.96</ele><time>2022-02-05T18:29:37Z</time></trkpt>
<trkpt lat="46.414538" lon="11.565552"><ele>1453.31</ele><time>2022-02-05T18:29:39Z</time></trkpt>
<trkpt lat="46.414583" lon="11.565798"><ele>1451.07</ele><time>2022-02-05T18:29:42Z</time></trkpt>
<trkpt lat="46.414741" lon="11.566248"><ele>1443.84</ele><time>2022-02-05T18:29:44Z</time></trkpt>
<trkpt lat="46.414816" lon="11.567244"><ele>1443.65</ele><time>2022-02-05T18:29:47Z</time></trkpt>
<trkpt lat="46.414859" lon="11.567326"><ele>1443.45</ele><time>2022-02-05T18:29:49Z</time></trkpt>
<trkpt lat="46.41494" lon="11.567372"><ele>1441.67</ele><time>2022-02-05T18:29:51Z</time></trkpt>
<trkpt lat="46.41504" lon="11.567372"><ele>1439.47</ele><time>2022-02-05T18:29:54Z</time></trkpt>
<trkpt lat="46.415093" lon="11.567326"><ele>1437.94</ele><time>2022-02-05T18:29:56Z</time></trkpt>
<trkpt lat="46.415124" lon="11.567269"><ele>1436.29</ele><time>2022-02-05T18:29:59Z</time></trkpt>
<trkpt lat="46.415186" lon="11.567072"><ele>1430.86</ele><time>2022-02-05T18:30:01Z</time></trkpt>
<trkpt lat="46.415271" lon="11.566936"><ele>1425.91</ele><time>2022-02-05T18:30:03Z</time></trkpt>
<trkpt lat="46.415382" lon="11.566835"><ele>1422.94</ele><time>2022-02-05T18:30:06Z</time></trkpt>
<trkpt lat="46.415912" lon="11.566588"><ele>1415.71</ele><time>2022-02-05T18:30:08Z</time></trkpt>
<trkpt lat="46.416033" lon="11.566503"><ele>1414.2</ele><time>2022-02-05T18:30:11Z</time></trkpt>
<trkpt lat="46.416211" lon="11.566238"><ele>1406.33</ele><time>2022-02-05T18:30:13Z</time></trkpt>
<trkpt lat="46.416319" lon="11.566162"><ele>1404.73</ele><time>2022-02-05T18:30:15Z</time></trkpt>
<trkpt lat="46.416412" lon="11.56616"><ele>1405.06</ele><time>2022-02-05T18:30:18Z</time></trkpt>
<trkpt lat="46.416493" lon="11.566213"><ele>1405.89</ele><time>2022-02-05T18:30:20Z</time></trkpt>
<trkpt lat="46.416559" lon="11.566331"><ele>1406.93</ele><time>2022-02-05T18:30:23Z</time></trkpt>
<trkpt lat="46.416572" lon="11.566529"><ele>1409.89</ele><time>2022-02-05T18:30:25Z</time></trkpt>
<trkpt lat="46.416526" lon="11.566829"><ele>1415.0</ele><time>2022-02-05T18:30:28Z</time></trkpt>
<trkpt lat="46.416091" lon="11.568858"><ele>1408.89</ele><time>2022-02-05T18:30:30Z</time></trkpt>
<trkpt lat="46.416075" lon="11.569071"><ele>1407.53</ele><time>2022-02-05T18:30:32Z</time></trkpt>
<trkpt lat="46.416102" lon="11.569262"><ele>1406.09</ele><time>2022-02-05T18:30:35Z</time></trkpt>
<trkpt lat="46.416137" lon="11.569344"><ele>1405.34</ele><time>2022-02-05T18:30:37Z</time></trkpt>
<trkpt lat="46.416204" lon="11.569437"><ele>1402.9</ele><time>2022-02-05T18:30:40Z</time></trkpt>
<trkpt lat="46.41633" lon="11.569509"><ele>1399.81</ele><time>2022-02-05T18:30:42Z</time></trkpt>
<trkpt lat="46.416496" lon="11.569499"><ele>1397.4</ele><time>2022-02-05T18:30:44Z</time></trkpt>
<trkpt lat="46.41659" lon="11.569418"><ele>1396.02</ele><time>2022-02-05T18:30:47Z</time></trkpt>
<trkpt lat="46.416644" lon="11.569329"><ele>1394.86</ele><time>2022-02-05T18:30:49Z</time></trkpt>
<trkpt lat="46.416961" lon="11.568414"><ele>1391.28</ele><time>2022-02-05T18:30:52Z</time></trkpt>
<trkpt lat="46.417213" lon="11.567988"><ele>1395.79</ele><time>2022-02-05T18:30:54Z</time></trkpt>
<trkpt lat="46.417523" lon="11.566982"><ele>1379.35</ele><time>2022-02-05T18:30:56Z</time></trkpt>
<trkpt lat="46.41798" lon="11.56611"><ele>1364.77</ele><time>2022-02-05T18:30:59Z</time></trkpt>
<trkpt lat="46.418573" lon="11.565402"><ele>1357.88</ele><time>2022-02-05T18:31:01Z</time></trkpt>
<trkpt lat="46.418951" lon="11.564702"><ele>1355.0</ele><time>2022-02-05T18:31:04Z</time></trkpt>
<trkpt lat="46.419326" lon="11.564417"><ele>1362.59</ele><time>2022-02-05T18:31:06Z</time></trkpt>
<trkpt lat="46.419416" lon="11.564275"><ele>1362.14</ele><time>2022-02-05T18:31:08Z</time></trkpt>
<trkpt lat="46.419597" lon="11.563408"><ele>1352.21</ele><time>2022-02-05T18:31:11Z</time></trkpt>
<trkpt lat="46.42008" lon="11.562601"><ele>1352.28</ele><time>2022-02-05T18:31:13Z</time></trkpt>
<trkpt lat="46.420288" lon="11.561722"><ele>1326.38</ele><time>2022-02-05T18:31:16Z</time></trkpt>
<trkpt lat="46.420919" lon="11.560645"><ele>1323.16</ele><time>2022-02-05T18:31:18Z</time></trkpt>
<trkpt lat="46.420984" lon="11.560452"><ele>1319.63</ele><time>2022-02-05T18:31:20Z</time></trkpt>
<trkpt lat="46.420991" lon="11.560295"><ele>1317.64</ele><time>2022-02-05T18:31:23Z</time></trkpt>
<trkpt lat="46.420962" lon="11.560176"><ele>1316.8</ele><time>2022-02-05T18:31:25Z</time></trkpt>
<trkpt lat="46.420329" lon="11.558348"><ele>1286.99</ele><time>2022-02-05T18:31:28Z</time></trkpt>
<trkpt lat="46.420318" lon="11.558231"><ele>1286.82</ele><time>2022-02-05T18:31:30Z</time></trkpt>
<trkpt lat="46.42036" lon="11.55807"><ele>1288.04</ele><time>2022-02-05T18:31:33Z</time></trkpt>
<trkpt lat="46.420475" lon="11.557928"><ele>1291.69</ele><time>2022-02-05T18:31:35Z</time></trkpt>
<trkpt lat="46.420607" lon="11.557921"><ele>1294.74</ele><time>2022-02-05T18:31:37Z</time></trkpt>
<trkpt lat="46.42069" lon="11.557972"><ele>1294.73</ele><time>2022-02-05T18:31:40Z</time></trkpt>
<trkpt lat="46.420776" lon="11.558072"><ele>1294.47</ele><time>2022-02-05T18:31:42Z</time></trkpt>
<trkpt lat="46.421079" lon="11.558492"><ele>1290.34</ele><time>2022-02-05T18:31:45Z</time></trkpt>
<trkpt lat="46.421239" lon="11.558599"><ele>1289.02</ele><time>2022-02-05T18:31:47Z</time></trkpt>
<trkpt lat="46.421343" lon="11.558599"><ele>1288.22</ele><time>2022-02-05T18:31:49Z</time></trkpt>
<trkpt lat="46.42147" lon="11.558552"><ele>1287.59</ele><time>2022-02-05T18:31:52Z</time></trkpt>
<trkpt lat="46.42155" lon="11.558452"><ele>1286.52</ele><time>2022-02-05T18:31:54Z</time></trkpt>
<trkpt lat="46.421631" lon="11.558239"><ele>1284.07</ele><time>2022-02-05T18:31:57Z</time></trkpt>
<trkpt lat="46.422034" lon="11.556512"><ele>1269.18</ele><time>2022-02-05T18:31:59Z</time></trkpt>
<trkpt lat="46.422116" lon="11.556312"><ele>1268.92</ele><time>2022-02-05T18:32:01Z</time></trkpt>
<trkpt lat="46.422237" lon="11.556138"><ele>1269.24</ele><time>2022-02-05T18:32:04Z</time></trkpt>
<trkpt lat="46.422364" lon="11.556002"><ele>1268.54</ele><time>2022-02-05T18:32:06Z</time></trkpt>
<trkpt lat="46.42363" lon="11.554949"><ele>1249.9</ele><time>2022-02-05T18:32:09Z</time></trkpt>
<trkpt lat="46.42376" lon="11.554749"><ele>1250.34</ele><time>2022-02-05T18:32:11Z</time></trkpt>
<trkpt lat="46.424653" lon="11.552426"><ele>1229.39</ele><time>2022-02-05T18:32:13Z</time></trkpt>
<trkpt lat="46.424711" lon="11.552322"><ele>1227.7</ele><time>2022-02-05T18:32:16Z</time></trkpt>
<trkpt lat="46.424939" lon="11.552023"><ele>1229.92</ele><time>2022-02-05T18:32:18Z</time></trkpt>
<trkpt lat="46.425076" lon="11.551736"><ele>1229.48</ele><time>2022-02-05T18:32:21Z</time></trkpt>
<trkpt lat="46.425449" lon="11.550651"><ele>1221.78</ele><time>2022-02-05T18:32:23Z</time></trkpt>
<trkpt lat="46.425742" lon="11.550092"><ele>1215.55</ele><time>2022-02-05T18:32:25Z</time></trkpt>
<trkpt lat="46.426278" lon="11.549173"><ele>1213.26</ele><time>2022-02-05T18:32:28Z</time></trkpt>
<trkpt lat="46.426376" lon="11.548959"><ele>1212.38</ele><time>2022-02-05T18:32:30Z</time></trkpt>
<trkpt lat="46.426507" lon="11.54858"><ele>1212.43</ele><time>2022-02-05T18:32:33Z</time></trkpt>
<trkpt lat="46.427065" lon="11.547676"><ele>1209.87</ele><time>2022-02-05T18:32:35Z</time></trkpt>
<trkpt lat="46.427547" lon="11.546748"><ele>1203.6</ele><time>2022-02-05T18:32:38Z</time></trkpt>
<trkpt lat="46.427773" lon="11.54609"><ele>1197.69</ele><time>2022-02-05T18:32:40Z</time></trkpt>
<trkpt lat="46.428352" lon="11.544998"><ele>1189.66</ele><time>2022-02-05T18:32:42Z</time></trkpt>
<trkpt lat="46.428509" lon="11.544576"><ele>1187.03</ele><time>2022-02-05T18:32:45Z</time></trkpt>
<trkpt lat="46.429392" lon="11.542787"><ele>1179.94</ele><time>2022-02-05T18:32:47Z</time></trkpt>
<trkpt lat="46.42948" lon="11.542663"><ele>1177.69</ele><time>2022-02-05T18:32:50Z</time></trkpt>
<trkpt lat="46.429544" lon="11.542618"><ele>1176.35</ele><time>2022-02-05T18:32:52Z</time></trkpt>
<trkpt lat="46.429717" lon="11.542619"><ele>1175.05</ele><time>2022-02-05T18:32:54Z</time></trkpt>
<trkpt lat="46.429812" lon="11.542685"><ele>1174.72</ele><time>2022-02-05T18:32:57Z</time></trkpt>
<trkpt lat="46.430582" lon="11.543548"><ele>1175.31</ele><time>2022-02-05T18:32:59Z</time></trkpt>
<trkpt lat="46.430769" lon="11.543714"><ele>1173.37</ele><time>2022-02-05T18:33:02Z</time></trkpt>
<trkpt lat="46.430811" lon="11.543716"><ele>1171.2</ele><time>2022-02-05T18:33:04Z</time></trkpt>
<trkpt lat="46.430917" lon="11.543661"><ele>1166.6</ele><time>2022-02-05T18:33:06Z</time></trkpt>
<trkpt lat="46.430991" lon="11.543579"><ele>1163.85</ele><time>2022-02-05T18:33:09Z</time></trkpt>
<trkpt lat="46.431044" lon="11.543449"><ele>1162.06</ele><time>2022-02-05T18:33:11Z</time></trkpt>
<trkpt lat="46.431075" lon="11.543318"><ele>1161.06</ele><time>2022-02-05T18:33:14Z</time></trkpt>
<trkpt lat="46.431072" lon="11.543181"><ele>1160.37</ele><time>2022-02-05T18:33:16Z</time></trkpt>
<trkpt lat="46.431072" lon="11.543181"><ele>1160.37</ele><time>2022-02-05T18:33:16Z</time></trkpt>
<trkpt lat="46.431067" lon="11.542841"><ele>1159.56</ele><time>2022-02-05T18:33:21Z</time></trkpt>
<trkpt lat="46.431049" lon="11.542736"><ele>1159.45</ele><time>2022-02-05T18:33:26Z</time></trkpt>
<trkpt lat="46.430905" lon="11.542278"><ele>1159.28</ele><time>2022-02-05T18:33:30Z</time></trkpt>
<trkpt lat="46.430822" lon="11.542076"><ele>1156.82</ele><time>2022-02-05T18:33:35Z</time></trkpt>
<trkpt lat="46.430731" lon="11.541684"><ele>1160.21</ele><time>2022-02-05T18:33:37Z</time></trkpt>
<trkpt lat="46.430693" lon="11.541613"><ele>1160.46</ele><time>2022-02-05T18:33:40Z</time></trkpt>
<trkpt lat="46.43054" lon="11.541467"><ele>1160.06</ele><time>2022-02-05T18:33:42Z</time></trkpt>
<trkpt lat="46.430449" lon="11.541335"><ele>1160.5</ele><time>2022-02-05T18:33:45Z</time></trkpt>
<trkpt lat="46.430032" lon="11.540235"><ele>1162.26</ele><time>2022-02-05T18:33:47Z</time></trkpt>
<trkpt lat="46.42993" lon="11.540071"><ele>1160.59</ele><time>2022-02-05T18:33:50Z</time></trkpt>
<trkpt lat="46.429862" lon="11.539923"><ele>1161.06</ele><time>2022-02-05T18:33:52Z</time></trkpt>
<trkpt lat="46.429842" lon="11.539733"><ele>1164.23</ele><time>2022-02-05T18:33:55Z</time></trkpt>
<trkpt lat="46.429862" lon="11.539531"><ele>1168.8</ele><time>2022-02-05T18:33:57Z</time></trkpt>
<trkpt lat="46.42996" lon="11.539258"><ele>1176.93</ele><time>2022-02-05T18:34:00Z</time></trkpt>
<trkpt lat="46.430057" lon="11.538814"><ele>1178.21</ele><time>2022-02-05T18:34:02Z</time></trkpt>
<trkpt lat="46.43013" lon="11.538633"><ele>1178.46</ele><time>2022-02-05T18:34:05Z</time></trkpt>
<trkpt lat="46.430395" lon="11.538226"><ele>1180.2</ele><time>2022-02-05T18:34:07Z</time></trkpt>
<trkpt lat="46.430429" lon="11.53814"><ele>1180.23</ele><time>2022-02-05T18:34:10Z</time></trkpt>
<trkpt lat="46.430449" lon="11.538018"><ele>1180.32</ele><time>2022-02-05T18:34:12Z</time></trkpt>
<trkpt lat="46.430429" lon="11.536756"><ele>1180.8</ele><time>2022-02-05T18:34:15Z</time></trkpt>
<trkpt lat="46.430444" lon="11.536545"><ele>1182.63</ele><time>2022-02-05T18:34:17Z</time></trkpt>
<trkpt lat="46.430408" lon="11.536417"><ele>1183.09</ele><time>2022-02-05T18:34:20Z</time></trkpt>
<trkpt lat="46.430122" lon="11.535772"><ele>1180.29</ele><time>2022-02-05T18:34:22Z</time></trkpt>
<trkpt lat="46.430074" lon="11.535625"><ele>1179.54</ele><time>2022-02-05T18:34:25Z</time></trkpt>
<trkpt lat="46.429923" lon="11.534719"><ele>1173.69</ele><time>2022-02-05T18:34:27Z</time></trkpt>
<trkpt lat="46.429919" lon="11.534239"><ele>1172.58</ele><time>2022-02-05T18:34:30Z</time></trkpt>
<trkpt lat="46.429898" lon="11.533967"><ele>1174.3</ele><time>2022-02-05T18:34:32Z</time></trkpt>
<trkpt lat="46.429484" lon="11.532452"><ele>1179.26</ele><time>2022-02-05T18:34:35Z</time></trkpt>
<trkpt lat="46.429202" lon="11.531873"><ele>1169.86</ele><time>2022-02-05T18:34:37Z</time></trkpt>
<trkpt lat="46.428873" lon="11.53126"><ele>1153.84</ele><time>2022-02-05T18:34:40Z</time></trkpt>
<trkpt lat="46.428812" lon="11.531066"><ele>1151.59</ele><time>2022-02-05T18:34:42Z</time></trkpt>
<trkpt lat="46.428789" lon="11.530828"><ele>1149.14</ele><time>2022-02-05T18:34:45Z</time></trkpt>
<trkpt lat="46.428941" lon="11.529888"><ele>1161.67</ele><time>2022-02-05T18:34:47Z</time></trkpt>
<trkpt lat="46.42902" lon="11.529089"><ele>1153.51</ele><time>2022-02-05T18:34:50Z</time></trkpt>
<trkpt lat="46.429145" lon="11.528213"><ele>1150.55</ele><time>2022-02-05T18:34:52Z</time></trkpt>
<trkpt lat="46.42921" lon="11.527987"><ele>1152.81</ele><time>2022-02-05T18:34:55Z</time></trkpt>
<trkpt lat="46.429335" lon="11.527751"><ele>1157.27</ele><time>2022-02-05T18:34:57Z</time></trkpt>
<trkpt lat="46.429423" lon="11.527523"><ele>1160.06</ele><time>2022-02-05T18:35:00Z</time></trkpt>
<trkpt lat="46.429604" lon="11.526808"><ele>1160.03</ele><time>2022-02-05T18:35:02Z</time></trkpt>
<trkpt lat="46.42979" lon="11.526203"><ele>1159.81</ele><time>2022-02-05T18:35:05Z</time></trkpt>
<trkpt lat="46.429825" lon="11.525754"><ele>1160.14</ele><time>2022-02-05T18:35:07Z</time></trkpt>
<trkpt lat="46.429829" lon="11.525479"><ele>1161.02</ele><time>2022-02-05T18:35:10Z</time></trkpt>
<trkpt lat="46.42989" lon="11.525274"><ele>1162.63</ele><time>2022-02-05T18:35:12Z</time></trkpt>
<trkpt lat="46.430178" lon="11.524753"><ele>1167.63</ele><time>2022-02-05T18:35:15Z</time></trkpt>
<trkpt lat="46.43023" lon="11.524576"><ele>1168.44</ele><time>2022-02-05T18:35:17Z</time></trkpt>
<trkpt lat="46.430365" lon="11.523837"><ele>1167.84</ele><time>2022-02-05T18:35:20Z</time></trkpt>
<trkpt lat="46.430395" lon="11.523152"><ele>1167.63</ele><time>2022-02-05T18:35:22Z</time></trkpt>
<trkpt lat="46.430521" lon="11.522408"><ele>1173.72</ele><time>2022-02-05T18:35:25Z</time></trkpt>
<trkpt lat="46.430688" lon="11.521042"><ele>1176.37</ele><time>2022-02-05T18:35:27Z</time></trkpt>
<trkpt lat="46.430766" lon="11.520841"><ele>1178.3</ele><time>2022-02-05T18:35:29Z</time></trkpt>
<trkpt lat="46.430822" lon="11.520638"><ele>1179.08</ele><time>2022-02-05T18:35:32Z</time></trkpt>
<trkpt lat="46.430841" lon="11.520487"><ele>1179.18</ele><time>2022-02-05T18:35:34Z</time></trkpt>
<trkpt lat="46.430842" lon="11.520357"><ele>1179.17</ele><time>2022-02-05T18:35:37Z</time></trkpt>
<trkpt lat="46.4308" lon="11.519989"><ele>1178.32</ele><time>2022-02-05T18:35:39Z</time></trkpt>
<trkpt lat="46.430798" lon="11.519864"><ele>1177.38</ele><time>2022-02-05T18:35:42Z</time></trkpt>
<trkpt lat="46.430826" lon="11.519725"><ele>1176.89</ele><time>2022-02-05T18:35:44Z</time></trkpt>
<trkpt lat="46.430938" lon="11.519453"><ele>1177.55</ele><time>2022-02-05T18:35:47Z</time></trkpt>
<trkpt lat="46.431008" lon="11.519357"><ele>1177.49</ele><time>2022-02-05T18:35:49Z</time></trkpt>
<trkpt lat="46.431146" lon="11.519275"><ele>1178.39</ele><time>2022-02-05T18:35:52Z</time></trkpt>
<trkpt lat="46.431374" lon="11.519243"><ele>1183.47</ele><time>2022-02-05T18:35:54Z</time></trkpt>
<trkpt lat="46.431484" lon="11.51913"><ele>1184.44</ele><time>2022-02-05T18:35:57Z</time></trkpt>
<trkpt lat="46.431525" lon="11.519037"><ele>1183.82</ele><time>2022-02-05T18:35:59Z</time></trkpt>
<trkpt lat="46.431539" lon="11.518836"><ele>1181.41</ele><time>2022-02-05T18:36:02Z</time></trkpt>
<trkpt lat="46.431515" lon="11.518738"><ele>1180.08</ele><time>2022-02-05T18:36:04Z</time></trkpt>
<trkpt lat="46.431465" lon="11.518627"><ele>1178.03</ele><time>2022-02-05T18:36:07Z</time></trkpt>
<trkpt lat="46.430826" lon="11.517429"><ele>1185.56</ele><time>2022-02-05T18:36:09Z</time></trkpt>
<trkpt lat="46.430366" lon="11.516953"><ele>1174.73</ele><time>2022-02-05T18:36:12Z</time></trkpt>
<trkpt lat="46.429997" lon="11.516078"><ele>1167.98</ele><time>2022-02-05T18:36:14Z</time></trkpt>
<trkpt lat="46.429914" lon="11.515702"><ele>1166.71</ele><time>2022-02-05T18:36:17Z</time></trkpt>
<trkpt lat="46.429764" lon="11.513961"><ele>1161.72</ele><time>2022-02-05T18:36:19Z</time></trkpt>
<trkpt lat="46.429804" lon="11.513578"><ele>1157.52</ele><time>2022-02-05T18:36:22Z</time></trkpt>
<trkpt lat="46.430031" lon="11.513166"><ele>1164.29</ele><time>2022-02-05T18:36:24Z</time></trkpt>
<trkpt lat="46.430085" lon="11.512993"><ele>1165.77</ele><time>2022-02-05T18:36:27Z</time></trkpt>
<trkpt lat="46.430105" lon="11.512848"><ele>1166.47</ele><time>2022-02-05T18:36:29Z</time></trkpt>
<trkpt lat="46.430049" lon="11.512664"><ele>1164.22</ele><time>2022-02-05T18:36:32Z</time></trkpt>
<trkpt lat="46.429698" lon="11.512373"><ele>1154.85</ele><time>2022-02-05T18:36:34Z</time></trkpt>
<trkpt lat="46.42954" lon="11.512139"><ele>1153.58</ele><time>2022-02-05T18:36:37Z</time></trkpt>
<trkpt lat="46.429482" lon="11.511639"><ele>1157.57</ele><time>2022-02-05T18:36:39Z</time></trkpt>
<trkpt lat="46.429105" lon="11.510877"><ele>1146.81</ele><time>2022-02-05T18:36:42Z</time></trkpt>
<trkpt lat="46.428947" lon="11.508783"><ele>1133.93</ele><time>2022-02-05T18:36:44Z</time></trkpt>
<trkpt lat="46.429086" lon="11.505867"><ele>1116.79</ele><time>2022-02-05T18:36:47Z</time></trkpt>
<trkpt lat="46.429066" lon="11.503976"><ele>1106.29</ele><time>2022-02-05T18:36:49Z</time></trkpt>
<trkpt lat="46.429111" lon="11.50339"><ele>1108.22</ele><time>2022-02-05T18:36:52Z</time></trkpt>
<trkpt lat="46.429108" lon="11.503252"><ele>1106.92</ele><time>2022-02-05T18:36:54Z</time></trkpt>
<trkpt lat="46.428922" lon="11.502303"><ele>1101.95</ele><time>2022-02-05T18:36:57Z</time></trkpt>
<trkpt lat="46.428938" lon="11.501833"><ele>1100.07</ele><time>2022-02-05T18:36:59Z</time></trkpt>
<trkpt lat="46.428959" lon="11.50163"><ele>1098.57</ele><time>2022-02-05T18:37:02Z</time></trkpt>
<trkpt lat="46.429182" lon="11.500227"><ele>1100.52</ele><time>2022-02-05T18:37:04Z</time></trkpt>
<trkpt lat="46.4292" lon="11.500029"><ele>1100.67</ele><time>2022-02-05T18:37:07Z</time></trkpt>
<trkpt lat="46.429125" lon="11.499265"><ele>1094.19</ele><time>2022-02-05T18:37:09Z</time></trkpt>
<trkpt lat="46.429147" lon="11.498868"><ele>1096.1</ele><time>2022-02-05T18:37:12Z</time></trkpt>
<trkpt lat="46.429272" lon="11.497964"><ele>1096.99</ele><time>2022-02-05T18:37:14Z</time></trkpt>
<trkpt lat="46.429354" lon="11.497135"><ele>1097.66</ele><time>2022-02-05T18:37:17Z</time></trkpt>
<trkpt lat="46.429492" lon="11.4966"><ele>1106.98</ele><time>2022-02-05T18:37:19Z</time></trkpt>
<trkpt lat="46.429505" lon="11.496435"><ele>1108.97</ele><time>2022-02-05T18:37:22Z</time></trkpt>
<trkpt lat="46.42947" lon="11.496213"><ele>1111.19</ele><time>2022-02-05T18:37:24Z</time></trkpt>
<trkpt lat="46.42919" lon="11.495368"><ele>1098.83</ele><time>2022-02-05T18:37:27Z</time></trkpt>
<trkpt lat="46.429187" lon="11.495172"><ele>1100.81</ele><time>2022-02-05T18:37:29Z</time></trkpt>
<trkpt lat="46.429209" lon="11.49493"><ele>1105.86</ele><time>2022-02-05T18:37:32Z</time></trkpt>
<trkpt lat="46.429345" lon="11.494572"><ele>1115.15</ele><time>2022-02-05T18:37:34Z</time></trkpt>
<trkpt lat="46.429389" lon="11.494409"><ele>1116.88</ele><time>2022-02-05T18:37:36Z</time></trkpt>
<trkpt lat="46.429352" lon="11.494092"><ele>1111.93</ele><time>2022-02-05T18:37:39Z</time></trkpt>
<trkpt lat="46.429246" lon="11.493752"><ele>1108.13</ele><time>2022-02-05T18:37:41Z</time></trkpt>
<trkpt lat="46.429176" lon="11.493359"><ele>1118.48</ele><time>2022-02-05T18:37:44Z</time></trkpt>
<trkpt lat="46.429163" lon="11.491996"><ele>1119.6</ele><time>2022-02-05T18:37:46Z</time></trkpt>
<trkpt lat="46.429192" lon="11.491617"><ele>1115.49</ele><time>2022-02-05T18:37:49Z</time></trkpt>
<trkpt lat="46.429235" lon="11.491491"><ele>1114.99</ele><time>2022-02-05T18:37:51Z</time></trkpt>
<trkpt lat="46.429356" lon="11.49137"><ele>1117.2</ele><time>2022-02-05T18:37:54Z</time></trkpt>
<trkpt lat="46.429548" lon="11.491285"><ele>1125.98</ele><time>2022-02-05T18:37:56Z</time></trkpt>
<trkpt lat="46.429649" lon="11.49119"><ele>1131.17</ele><time>2022-02-05T18:37:59Z</time></trkpt>
<trkpt lat="46.429713" lon="11.491075"><ele>1134.28</ele><time>2022-02-05T18:38:01Z</time></trkpt>
<trkpt lat="46.429738" lon="11.490899"><ele>1135.64</ele><time>2022-02-05T18:38:04Z</time></trkpt>
<trkpt lat="46.429727" lon="11.490747"><ele>1134.7</ele><time>2022-02-05T18:38:06Z</time></trkpt>
<trkpt lat="46.429634" lon="11.490187"><ele>1134.33</ele><time>2022-02-05T18:38:09Z</time></trkpt>
<trkpt lat="46.42965" lon="11.490036"><ele>1136.95</ele><time>2022-02-05T18:38:11Z</time></trkpt>
<trkpt lat="46.429692" lon="11.489847"><ele>1139.0</ele><time>2022-02-05T18:38:14Z</time></trkpt>
<trkpt lat="46.42977" lon="11.489676"><ele>1141.93</ele><time>2022-02-05T18:38:16Z</time></trkpt>
<trkpt lat="46.429902" lon="11.489498"><ele>1146.67</ele><time>2022-02-05T18:38:19Z</time></trkpt>
<trkpt lat="46.429961" lon="11.48933"><ele>1147.01</ele><time>2022-02-05T18:38:21Z</time></trkpt>
<trkpt lat="46.430001" lon="11.488875"><ele>1143.12</ele><time>2022-02-05T18:38:24Z</time></trkpt>
<trkpt lat="46.430129" lon="11.488539"><ele>1153.41</ele><time>2022-02-05T18:38:26Z</time></trkpt>
<trkpt lat="46.430168" lon="11.488393"><ele>1156.39</ele><time>2022-02-05T18:38:29Z</time></trkpt>
<trkpt lat="46.430285" lon="11.486735"><ele>1168.57</ele><time>2022-02-05T18:38:31Z</time></trkpt>
<trkpt lat="46.430387" lon="11.486165"><ele>1170.01</ele><time>2022-02-05T18:38:34Z</time></trkpt>
<trkpt lat="46.430497" lon="11.485665"><ele>1166.33</ele><time>2022-02-05T18:38:36Z</time></trkpt>
<trkpt lat="46.430603" lon="11.485406"><ele>1167.81</ele><time>2022-02-05T18:38:39Z</time></trkpt>
<trkpt lat="46.431115" lon="11.483973"><ele>1162.27</ele><time>2022-02-05T18:38:41Z</time></trkpt>
<trkpt lat="46.431218" lon="11.483858"><ele>1161.65</ele><time>2022-02-05T18:38:44Z</time></trkpt>
<trkpt lat="46.431378" lon="11.483788"><ele>1161.41</ele><time>2022-02-05T18:38:46Z</time></trkpt>
<trkpt lat="46.431478" lon="11.4838"><ele>1162.55</ele><time>2022-02-05T18:38:49Z</time></trkpt>
<trkpt lat="46.431722" lon="11.483998"><ele>1175.19</ele><time>2022-02-05T18:38:51Z</time></trkpt>
<trkpt lat="46.431839" lon="11.484037"><ele>1180.06</ele><time>2022-02-05T18:38:54Z</time></trkpt>
<trkpt lat="46.431936" lon="11.484037"><ele>1182.7</ele><time>2022-02-05T18:38:56Z</time></trkpt>
<trkpt lat="46.432291" lon="11.483876"><ele>1179.77</ele><time>2022-02-05T18:38:59Z</time></trkpt>
<trkpt lat="46.43245" lon="11.48387"><ele>1182.76</ele><time>2022-02-05T18:39:01Z</time></trkpt>
<trkpt lat="46.432902" lon="11.484003"><ele>1198.04</ele><time>2022-02-05T18:39:04Z</time></trkpt>
<trkpt lat="46.433065" lon="11.484018"><ele>1201.46</ele><time>2022-02-05T18:39:06Z</time></trkpt>
<trkpt lat="46.433387" lon="11.483989"><ele>1188.96</ele><time>2022-02-05T18:39:09Z</time></trkpt>
<trkpt lat="46.43355" lon="11.484039"><ele>1189.61</ele><time>2022-02-05T18:39:11Z</time></trkpt>
<trkpt lat="46.433755" lon="11.484147"><ele>1196.87</ele><time>2022-02-05T18:39:14Z</time></trkpt>
<trkpt lat="46.433954" lon="11.484326"><ele>1209.03</ele><time>2022-02-05T18:39:16Z</time></trkpt>
<trkpt lat="46.433921" lon="11.484344"><ele>1209.97</ele><time>2022-02-05T18:39:19Z</time></trkpt>
<trkpt lat="46.433851" lon="11.484329"><ele>1209.41</ele><time>2022-02-05T18:39:21Z</time></trkpt>
<trkpt lat="46.433851" lon="11.484329"><ele>1209.41</ele><time>2022-02-05T18:39:21Z</time></trkpt>
<trkpt lat="46.433921" lon="11.484344"><ele>1209.97</ele><time>2022-02-05T18:39:24Z</time></trkpt>
<trkpt lat="46.433954" lon="11.484326"><ele>1209.03</ele><time>2022-02-05T18:39:26Z</time></trkpt>
<trkpt lat="46.434103" lon="11.484373"><ele>1212.2</ele><time>2022-02-05T18:39:28Z</time></trkpt>
<trkpt lat="46.434213" lon="11.484372"><ele>1214.32</ele><time>2022-02-05T18:39:29Z</time></trkpt>
<trkpt lat="46.4343" lon="11.484331"><ele>1216.44</ele><time>2022-02-05T18:39:30Z</time></trkpt>
<trkpt lat="46.434365" lon="11.484251"><ele>1216.88</ele><time>2022-02-05T18:39:32Z</time></trkpt>
<trkpt lat="46.434394" lon="11.484174"><ele>1216.11</ele><time>2022-02-05T18:39:33Z</time></trkpt>
<trkpt lat="46.434409" lon="11.483681"><ele>1195.54</ele><time>2022-02-05T18:39:35Z</time></trkpt>
<trkpt lat="46.434427" lon="11.483565"><ele>1192.14</ele><time>2022-02-05T18:39:36Z</time></trkpt>
<trkpt lat="46.434548" lon="11.483291"><ele>1190.18</ele><time>2022-02-05T18:39:38Z</time></trkpt>
<trkpt lat="46.434648" lon="11.483135"><ele>1190.92</ele><time>2022-02-05T18:39:39Z</time></trkpt>
<trkpt lat="46.434877" lon="11.482953"><ele>1192.58</ele><time>2022-02-05T18:39:41Z</time></trkpt>
<trkpt lat="46.435083" lon="11.482881"><ele>1194.66</ele><time>2022-02-05T18:39:42Z</time></trkpt>
<trkpt lat="46.435361" lon="11.482851"><ele>1198.81</ele><time>2022-02-05T18:39:44Z</time></trkpt>
<trkpt lat="46.435737" lon="11.482882"><ele>1213.61</ele><time>2022-02-05T18:39:45Z</time></trkpt>
<trkpt lat="46.435834" lon="11.482865"><ele>1217.49</ele><time>2022-02-05T18:39:47Z</time></trkpt>
<trkpt lat="46.43602" lon="11.482765"><ele>1218.95</ele><time>2022-02-05T18:39:48Z</time></trkpt>
<trkpt lat="46.436208" lon="11.482535"><ele>1214.11</ele><time>2022-02-05T18:39:49Z</time></trkpt>
<trkpt lat="46.436576" lon="11.482145"><ele>1209.39</ele><time>2022-02-05T18:39:51Z</time></trkpt>
<trkpt lat="46.436964" lon="11.482048"><ele>1219.51</ele><time>2022-02-05T18:39:52Z</time></trkpt>
<trkpt lat="46.437054" lon="11.481968"><ele>1221.29</ele><time>2022-02-05T18:39:54Z</time></trkpt>
<trkpt lat="46.437175" lon="11.481708"><ele>1215.76</ele><time>2022-02-05T18:39:55Z</time></trkpt>
<trkpt lat="46.437653" lon="11.481113"><ele>1211.23</ele><time>2022-02-05T18:39:57Z</time></trkpt>
<trkpt lat="46.437866" lon="11.480918"><ele>1213.64</ele><time>2022-02-05T18:39:58Z</time></trkpt>
<trkpt lat="46.43836" lon="11.480213"><ele>1205.65</ele><time>2022-02-05T18:40:00Z</time></trkpt>
<trkpt lat="46.438697" lon="11.479793"><ele>1191.51</ele><time>2022-02-05T18:40:01Z</time></trkpt>
<trkpt lat="46.438896" lon="11.479625"><ele>1187.23</ele><time>2022-02-05T18:40:03Z</time></trkpt>
<trkpt lat="46.439158" lon="11.479532"><ele>1186.82</ele><time>2022-02-05T18:40:04Z</time></trkpt>
<trkpt lat="46.439287" lon="11.479527"><ele>1188.2</ele><time>2022-02-05T18:40:05Z</time></trkpt>
<trkpt lat="46.439417" lon="11.47961"><ele>1191.81</ele><time>2022-02-05T18:40:07Z</time></trkpt>
<trkpt lat="46.439501" lon="11.479752"><ele>1196.49</ele><time>2022-02-05T18:40:08Z</time></trkpt>
<trkpt lat="46.439629" lon="11.479886"><ele>1202.23</ele><time>2022-02-05T18:40:10Z</time></trkpt>
<trkpt lat="46.439646" lon="11.479624"><ele>1193.98</ele><time>2022-02-05T18:40:12Z</time></trkpt>
<trkpt lat="46.439606" lon="11.479402"><ele>1188.24</ele><time>2022-02-05T18:40:14Z</time></trkpt>
<trkpt lat="46.439504" lon="11.4792"><ele>1183.15</ele><time>2022-02-05T18:40:16Z</time></trkpt>
<trkpt lat="46.439243" lon="11.478961"><ele>1175.05</ele><time>2022-02-05T18:40:18Z</time></trkpt>
<trkpt lat="46.439022" lon="11.478846"><ele>1170.91</ele><time>2022-02-05T18:40:20Z</time></trkpt>
<trkpt lat="46.438786" lon="11.47894"><ele>1171.7</ele><time>2022-02-05T18:40:22Z</time></trkpt>
<trkpt lat="46.438625" lon="11.479084"><ele>1172.63</ele><time>2022-02-05T18:40:25Z</time></trkpt>
<trkpt lat="46.4384" lon="11.479384"><ele>1171.0</ele><time>2022-02-05T18:40:27Z</time></trkpt>
<trkpt lat="46.438137" lon="11.479681"><ele>1172.91</ele><time>2022-02-05T18:40:29Z</time></trkpt>
<trkpt lat="46.437998" lon="11.480014"><ele>1182.41</ele><time>2022-02-05T18:40:31Z</time></trkpt>
<trkpt lat="46.437953" lon="11.480033"><ele>1180.83</ele><time>2022-02-05T18:40:33Z</time></trkpt>
<trkpt lat="46.437891" lon="11.480016"><ele>1176.36</ele><time>2022-02-05T18:40:35Z</time></trkpt>
<trkpt lat="46.437857" lon="11.479951"><ele>1171.14</ele><time>2022-02-05T18:40:37Z</time></trkpt>
<trkpt lat="46.437856" lon="11.479863"><ele>1166.81</ele><time>2022-02-05T18:40:39Z</time></trkpt>
<trkpt lat="46.438242" lon="11.479274"><ele>1160.72</ele><time>2022-02-05T18:40:41Z</time></trkpt>
<trkpt lat="46.438411" lon="11.478853"><ele>1160.02</ele><time>2022-02-05T18:40:43Z</time></trkpt>
<trkpt lat="46.43852" lon="11.478258"><ele>1145.73</ele><time>2022-02-05T18:40:46Z</time></trkpt>
<trkpt lat="46.438681" lon="11.477791"><ele>1136.66</ele><time>2022-02-05T18:40:48Z</time></trkpt>
<trkpt lat="46.438784" lon="11.477435"><ele>1136.05</ele><time>2022-02-05T18:40:50Z</time></trkpt>
<trkpt lat="46.438826" lon="11.477352"><ele>1138.23</ele><time>2022-02-05T18:40:52Z</time></trkpt>
<trkpt lat="46.438938" lon="11.477331"><ele>1142.29</ele><time>2022-02-05T18:40:54Z</time></trkpt>
<trkpt lat="46.439048" lon="11.477372"><ele>1142.27</ele><time>2022-02-05T18:40:56Z</time></trkpt>
<trkpt lat="46.439275" lon="11.477549"><ele>1139.72</ele><time>2022-02-05T18:40:58Z</time></trkpt>
<trkpt lat="46.439349" lon="11.477547"><ele>1137.06</ele><time>2022-02-05T18:41:00Z</time></trkpt>
<trkpt lat="46.439389" lon="11.477503"><ele>1134.28</ele><time>2022-02-05T18:41:02Z</time></trkpt>
<trkpt lat="46.439406" lon="11.47744"><ele>1132.13</ele><time>2022-02-05T18:41:04Z</time></trkpt>
<trkpt lat="46.439392" lon="11.477356"><ele>1130.93</ele><time>2022-02-05T18:41:07Z</time></trkpt>
<trkpt lat="46.439359" lon="11.477295"><ele>1131.33</ele><time>2022-02-05T18:41:09Z</time></trkpt>
<trkpt lat="46.43915" lon="11.477143"><ele>1139.34</ele><time>2022-02-05T18:41:11Z</time></trkpt>
<trkpt lat="46.439035" lon="11.476974"><ele>1136.11</ele><time>2022-02-05T18:41:13Z</time></trkpt>
<trkpt lat="46.438884" lon="11.476536"><ele>1125.03</ele><time>2022-02-05T18:41:15Z</time></trkpt>
<trkpt lat="46.438748" lon="11.476247"><ele>1119.98</ele><time>2022-02-05T18:41:17Z</time></trkpt>
<trkpt lat="46.438674" lon="11.476247"><ele>1118.39</ele><time>2022-02-05T18:41:18Z</time></trkpt>
<trkpt lat="46.438373" lon="11.476793"><ele>1107.32</ele><time>2022-02-05T18:41:20Z</time></trkpt>
<trkpt lat="46.438293" lon="11.477057"><ele>1106.86</ele><time>2022-02-05T18:41:21Z</time></trkpt>
<trkpt lat="46.438206" lon="11.477491"><ele>1109.66</ele><time>2022-02-05T18:41:23Z</time></trkpt>
<trkpt lat="46.438035" lon="11.477805"><ele>1108.61</ele><time>2022-02-05T18:41:24Z</time></trkpt>
<trkpt lat="46.437661" lon="11.478368"><ele>1104.98</ele><time>2022-02-05T18:41:26Z</time></trkpt>
<trkpt lat="46.437376" lon="11.478696"><ele>1101.52</ele><time>2022-02-05T18:41:27Z</time></trkpt>
<trkpt lat="46.437264" lon="11.478986"><ele>1102.72</ele><time>2022-02-05T18:41:29Z</time></trkpt>
<trkpt lat="46.437221" lon="11.479029"><ele>1101.47</ele><time>2022-02-05T18:41:30Z</time></trkpt>
<trkpt lat="46.437158" lon="11.479005"><ele>1095.89</ele><time>2022-02-05T18:41:31Z</time></trkpt>
<trkpt lat="46.437116" lon="11.478957"><ele>1091.16</ele><time>2022-02-05T18:41:33Z</time></trkpt>
<trkpt lat="46.437097" lon="11.478885"><ele>1087.54</ele><time>2022-02-05T18:41:34Z</time></trkpt>
<trkpt lat="46.437116" lon="11.478791"><ele>1087.48</ele><time>2022-02-05T18:41:36Z</time></trkpt>
<trkpt lat="46.437311" lon="11.478495"><ele>1094.63</ele><time>2022-02-05T18:41:37Z</time></trkpt>
<trkpt lat="46.437455" lon="11.478131"><ele>1092.87</ele><time>2022-02-05T18:41:39Z</time></trkpt>
<trkpt lat="46.437645" lon="11.477475"><ele>1086.48</ele><time>2022-02-05T18:41:40Z</time></trkpt>
<trkpt lat="46.43779" lon="11.47684"><ele>1088.34</ele><time>2022-02-05T18:41:41Z</time></trkpt>
<trkpt lat="46.437851" lon="11.476082"><ele>1083.63</ele><time>2022-02-05T18:41:43Z</time></trkpt>
<trkpt lat="46.437737" lon="11.475159"><ele>1083.1</ele><time>2022-02-05T18:41:44Z</time></trkpt>
<trkpt lat="46.437717" lon="11.475119"><ele>1081.67</ele><time>2022-02-05T18:41:46Z</time></trkpt>
<trkpt lat="46.437621" lon="11.475091"><ele>1074.07</ele><time>2022-02-05T18:41:47Z</time></trkpt>
<trkpt lat="46.437577" lon="11.475122"><ele>1070.32</ele><time>2022-02-05T18:41:49Z</time></trkpt>
<trkpt lat="46.437557" lon="11.475189"><ele>1068.31</ele><time>2022-02-05T18:41:50Z</time></trkpt>
<trkpt lat="46.437564" lon="11.475272"><ele>1068.31</ele><time>2022-02-05T18:41:51Z</time></trkpt>
<trkpt lat="46.437607" lon="11.47536"><ele>1071.18</ele><time>2022-02-05T18:41:53Z</time></trkpt>
<trkpt lat="46.437653" lon="11.475602"><ele>1072.99</ele><time>2022-02-05T18:41:54Z</time></trkpt>
<trkpt lat="46.437652" lon="11.475818"><ele>1072.83</ele><time>2022-02-05T18:41:56Z</time></trkpt>
<trkpt lat="46.437627" lon="11.475952"><ele>1071.72</ele><time>2022-02-05T18:41:57Z</time></trkpt>
<trkpt lat="46.437493" lon="11.476442"><ele>1067.41</ele><time>2022-02-05T18:41:59Z</time></trkpt>
<trkpt lat="46.437384" lon="11.476653"><ele>1060.77</ele><time>2022-02-05T18:42:00Z</time></trkpt>
<trkpt lat="46.437036" lon="11.476992"><ele>1048.22</ele><time>2022-02-05T18:42:02Z</time></trkpt>
<trkpt lat="46.436783" lon="11.477318"><ele>1045.62</ele><time>2022-02-05T18:42:03Z</time></trkpt>
<trkpt lat="46.436646" lon="11.477666"><ele>1046.93</ele><time>2022-02-05T18:42:04Z</time></trkpt>
<trkpt lat="46.436577" lon="11.477706"><ele>1044.33</ele><time>2022-02-05T18:42:06Z</time></trkpt>
<trkpt lat="46.436516" lon="11.477672"><ele>1040.61</ele><time>2022-02-05T18:42:07Z</time></trkpt>
<trkpt lat="46.436494" lon="11.477569"><ele>1037.21</ele><time>2022-02-05T18:42:09Z</time></trkpt>
<trkpt lat="46.436538" lon="11.477433"><ele>1036.71</ele><time>2022-02-05T18:42:10Z</time></trkpt>
<trkpt lat="46.436638" lon="11.477314"><ele>1040.01</ele><time>2022-02-05T18:42:12Z</time></trkpt>
<trkpt lat="46.436721" lon="11.477161"><ele>1041.11</ele><time>2022-02-05T18:42:13Z</time></trkpt>
<trkpt lat="46.436992" lon="11.476413"><ele>1043.85</ele><time>2022-02-05T18:42:14Z</time></trkpt>
<trkpt lat="46.437036" lon="11.476245"><ele>1044.23</ele><time>2022-02-05T18:42:16Z</time></trkpt>
<trkpt lat="46.43701" lon="11.47548"><ele>1039.32</ele><time>2022-02-05T18:42:17Z</time></trkpt>
<trkpt lat="46.436934" lon="11.475017"><ele>1033.43</ele><time>2022-02-05T18:42:19Z</time></trkpt>
<trkpt lat="46.436925" lon="11.474813"><ele>1031.93</ele><time>2022-02-05T18:42:20Z</time></trkpt>
<trkpt lat="46.43698" lon="11.474508"><ele>1032.83</ele><time>2022-02-05T18:42:22Z</time></trkpt>
<trkpt lat="46.437027" lon="11.474395"><ele>1034.61</ele><time>2022-02-05T18:42:23Z</time></trkpt>
<trkpt lat="46.437034" lon="11.474271"><ele>1033.99</ele><time>2022-02-05T18:42:24Z</time></trkpt>
<trkpt lat="46.437016" lon="11.474208"><ele>1032.24</ele><time>2022-02-05T18:42:26Z</time></trkpt>
<trkpt lat="46.43698" lon="11.474153"><ele>1029.22</ele><time>2022-02-05T18:42:27Z</time></trkpt>
<trkpt lat="46.436934" lon="11.474124"><ele>1025.51</ele><time>2022-02-05T18:42:29Z</time></trkpt>
<trkpt lat="46.436854" lon="11.474155"><ele>1020.28</ele><time>2022-02-05T18:42:30Z</time></trkpt>
<trkpt lat="46.436821" lon="11.474205"><ele>1018.43</ele><time>2022-02-05T18:42:32Z</time></trkpt>
<trkpt lat="46.436807" lon="11.474323"><ele>1018.52</ele><time>2022-02-05T18:42:33Z</time></trkpt>
<trkpt lat="46.436813" lon="11.474697"><ele>1022.79</ele><time>2022-02-05T18:42:34Z</time></trkpt>
<trkpt lat="46.436639" lon="11.475598"><ele>1015.89</ele><time>2022-02-05T18:42:36Z</time></trkpt>
<trkpt lat="46.436583" lon="11.475717"><ele>1014.09</ele><time>2022-02-05T18:42:37Z</time></trkpt>
<trkpt lat="46.436155" lon="11.476271"><ele>1007.02</ele><time>2022-02-05T18:42:39Z</time></trkpt>
<trkpt lat="46.43577" lon="11.476661"><ele>994.44</ele><time>2022-02-05T18:42:40Z</time></trkpt>
<trkpt lat="46.435693" lon="11.476805"><ele>993.21</ele><time>2022-02-05T18:42:42Z</time></trkpt>
<trkpt lat="46.435621" lon="11.477057"><ele>992.76</ele><time>2022-02-05T18:42:43Z</time></trkpt>
<trkpt lat="46.435577" lon="11.477104"><ele>991.33</ele><time>2022-02-05T18:42:45Z</time></trkpt>
<trkpt lat="46.435525" lon="11.477112"><ele>989.15</ele><time>2022-02-05T18:42:46Z</time></trkpt>
<trkpt lat="46.435474" lon="11.47709"><ele>986.68</ele><time>2022-02-05T18:42:47Z</time></trkpt>
<trkpt lat="46.435427" lon="11.476966"><ele>984.45</ele><time>2022-02-05T18:42:49Z</time></trkpt>
<trkpt lat="46.435434" lon="11.476869"><ele>984.12</ele><time>2022-02-05T18:42:50Z</time></trkpt>
<trkpt lat="46.435798" lon="11.476209"><ele>989.92</ele><time>2022-02-05T18:42:52Z</time></trkpt>
<trkpt lat="46.435871" lon="11.475993"><ele>989.1</ele><time>2022-02-05T18:42:53Z</time></trkpt>
<trkpt lat="46.435929" lon="11.475732"><ele>986.31</ele><time>2022-02-05T18:42:55Z</time></trkpt>
<trkpt lat="46.435973" lon="11.474938"><ele>978.56</ele><time>2022-02-05T18:42:56Z</time></trkpt>
<trkpt lat="46.436043" lon="11.474578"><ele>976.12</ele><time>2022-02-05T18:42:57Z</time></trkpt>
<trkpt lat="46.436231" lon="11.474264"><ele>978.79</ele><time>2022-02-05T18:42:59Z</time></trkpt>
<trkpt lat="46.43624" lon="11.474112"><ele>974.94</ele><time>2022-02-05T18:43:00Z</time></trkpt>
<trkpt lat="46.436226" lon="11.474068"><ele>972.38</ele><time>2022-02-05T18:43:02Z</time></trkpt>
<trkpt lat="46.436184" lon="11.474017"><ele>967.23</ele><time>2022-02-05T18:43:03Z</time></trkpt>
<trkpt lat="46.436143" lon="11.474003"><ele>963.47</ele><time>2022-02-05T18:43:05Z</time></trkpt>
<trkpt lat="46.436079" lon="11.474019"><ele>959.57</ele><time>2022-02-05T18:43:06Z</time></trkpt>
<trkpt lat="46.43604" lon="11.474079"><ele>959.29</ele><time>2022-02-05T18:43:07Z</time></trkpt>
<trkpt lat="46.435943" lon="11.474464"><ele>965.85</ele><time>2022-02-05T18:43:09Z</time></trkpt>
<trkpt lat="46.435507" lon="11.475324"><ele>956.64</ele><time>2022-02-05T18:43:10Z</time></trkpt>
<trkpt lat="46.43544" lon="11.475435"><ele>955.72</ele><time>2022-02-05T18:43:12Z</time></trkpt>
<trkpt lat="46.435302" lon="11.475579"><ele>953.57</ele><time>2022-02-05T18:43:13Z</time></trkpt>
<trkpt lat="46.435013" lon="11.475792"><ele>950.24</ele><time>2022-02-05T18:43:15Z</time></trkpt>
<trkpt lat="46.434926" lon="11.476007"><ele>951.22</ele><time>2022-02-05T18:43:16Z</time></trkpt>
<trkpt lat="46.434899" lon="11.476197"><ele>953.4</ele><time>2022-02-05T18:43:18Z</time></trkpt>
<trkpt lat="46.434804" lon="11.476325"><ele>948.95</ele><time>2022-02-05T18:43:19Z</time></trkpt>
<trkpt lat="46.434731" lon="11.476315"><ele>944.02</ele><time>2022-02-05T18:43:20Z</time></trkpt>
<trkpt lat="46.434674" lon="11.476233"><ele>939.86</ele><time>2022-02-05T18:43:22Z</time></trkpt>
<trkpt lat="46.434675" lon="11.476103"><ele>938.75</ele><time>2022-02-05T18:43:23Z</time></trkpt>
<trkpt lat="46.435148" lon="11.475123"><ele>939.1</ele><time>2022-02-05T18:43:25Z</time></trkpt>
<trkpt lat="46.435178" lon="11.474928"><ele>936.96</ele><time>2022-02-05T18:43:26Z</time></trkpt>
<trkpt lat="46.435179" lon="11.474557"><ele>928.07</ele><time>2022-02-05T18:43:28Z</time></trkpt>
<trkpt lat="46.435444" lon="11.473502"><ele>916.82</ele><time>2022-02-05T18:43:29Z</time></trkpt>
<trkpt lat="46.435598" lon="11.473086"><ele>921.91</ele><time>2022-02-05T18:43:30Z</time></trkpt>
<trkpt lat="46.435783" lon="11.472815"><ele>921.0</ele><time>2022-02-05T18:43:32Z</time></trkpt>
<trkpt lat="46.436405" lon="11.472068"><ele>914.59</ele><time>2022-02-05T18:43:33Z</time></trkpt>
<trkpt lat="46.436466" lon="11.471966"><ele>915.11</ele><time>2022-02-05T18:43:35Z</time></trkpt>
<trkpt lat="46.436505" lon="11.471813"><ele>912.94</ele><time>2022-02-05T18:43:36Z</time></trkpt>
<trkpt lat="46.436517" lon="11.471635"><ele>908.3</ele><time>2022-02-05T18:43:38Z</time></trkpt>
<trkpt lat="46.436558" lon="11.471478"><ele>905.27</ele><time>2022-02-05T18:43:39Z</time></trkpt>
<trkpt lat="46.436853" lon="11.470957"><ele>912.39</ele><time>2022-02-05T18:43:40Z</time></trkpt>
<trkpt lat="46.437094" lon="11.470408"><ele>910.02</ele><time>2022-02-05T18:43:42Z</time></trkpt>
<trkpt lat="46.437221" lon="11.469939"><ele>904.09</ele><time>2022-02-05T18:43:43Z</time></trkpt>
<trkpt lat="46.437335" lon="11.469754"><ele>905.88</ele><time>2022-02-05T18:43:45Z</time></trkpt>
<trkpt lat="46.437849" lon="11.469187"><ele>895.54</ele><time>2022-02-05T18:43:46Z</time></trkpt>
<trkpt lat="46.438387" lon="11.468661"><ele>879.97</ele><time>2022-02-05T18:43:48Z</time></trkpt>
<trkpt lat="46.438507" lon="11.468591"><ele>878.0</ele><time>2022-02-05T18:43:49Z</time></trkpt>
<trkpt lat="46.438788" lon="11.468601"><ele>880.26</ele><time>2022-02-05T18:43:50Z</time></trkpt>
<trkpt lat="46.439234" lon="11.46872"><ele>873.81</ele><time>2022-02-05T18:43:52Z</time></trkpt>
<trkpt lat="46.43996" lon="11.469071"><ele>889.97</ele><time>2022-02-05T18:43:53Z</time></trkpt>
<trkpt lat="46.440054" lon="11.469165"><ele>888.44</ele><time>2022-02-05T18:43:55Z</time></trkpt>
<trkpt lat="46.440139" lon="11.469125"><ele>882.3</ele><time>2022-02-05T18:43:56Z</time></trkpt>
<trkpt lat="46.440196" lon="11.469016"><ele>877.23</ele><time>2022-02-05T18:43:58Z</time></trkpt>
<trkpt lat="46.440207" lon="11.468929"><ele>875.34</ele><time>2022-02-05T18:43:59Z</time></trkpt>
<trkpt lat="46.440156" lon="11.468842"><ele>876.16</ele><time>2022-02-05T18:44:01Z</time></trkpt>
<trkpt lat="46.439866" lon="11.468747"><ele>876.42</ele><time>2022-02-05T18:44:02Z</time></trkpt>
<trkpt lat="46.439531" lon="11.468427"><ele>854.91</ele><time>2022-02-05T18:44:03Z</time></trkpt>
<trkpt lat="46.439124" lon="11.46811"><ele>854.03</ele><time>2022-02-05T18:44:05Z</time></trkpt>
<trkpt lat="46.438738" lon="11.46791"><ele>852.11</ele><time>2022-02-05T18:44:06Z</time></trkpt>
<trkpt lat="46.438545" lon="11.46787"><ele>847.87</ele><time>2022-02-05T18:44:08Z</time></trkpt>
<trkpt lat="46.438406" lon="11.467866"><ele>844.73</ele><time>2022-02-05T18:44:09Z</time></trkpt>
<trkpt lat="46.438245" lon="11.467936"><ele>841.94</ele><time>2022-02-05T18:44:11Z</time></trkpt>
<trkpt lat="46.437686" lon="11.468388"><ele>839.17</ele><time>2022-02-05T18:44:12Z</time></trkpt>
<trkpt lat="46.437571" lon="11.46843"><ele>838.61</ele><time>2022-02-05T18:44:13Z</time></trkpt>
<trkpt lat="46.437198" lon="11.468501"><ele>829.76</ele><time>2022-02-05T18:44:15Z</time></trkpt>
<trkpt lat="46.437012" lon="11.468573"><ele>825.58</ele><time>2022-02-05T18:44:16Z</time></trkpt>
<trkpt lat="46.43679" lon="11.468714"><ele>824.57</ele><time>2022-02-05T18:44:18Z</time></trkpt>
<trkpt lat="46.436565" lon="11.46894"><ele>827.29</ele><time>2022-02-05T18:44:19Z</time></trkpt>
<trkpt lat="46.436365" lon="11.469215"><ele>828.54</ele><time>2022-02-05T18:44:21Z</time></trkpt>
<trkpt lat="46.436256" lon="11.469397"><ele>828.35</ele><time>2022-02-05T18:44:22Z</time></trkpt>
<trkpt lat="46.436158" lon="11.46939"><ele>823.6</ele><time>2022-02-05T18:44:23Z</time></trkpt>
<trkpt lat="46.436117" lon="11.469314"><ele>820.83</ele><time>2022-02-05T18:44:25Z</time></trkpt>
<trkpt lat="46.436115" lon="11.469162"><ele>819.05</ele><time>2022-02-05T18:44:26Z</time></trkpt>
<trkpt lat="46.436202" lon="11.469055"><ele>819.68</ele><time>2022-02-05T18:44:28Z</time></trkpt>
<trkpt lat="46.436356" lon="11.468949"><ele>821.63</ele><time>2022-02-05T18:44:29Z</time></trkpt>
<trkpt lat="46.436785" lon="11.468408"><ele>811.34</ele><time>2022-02-05T18:44:31Z</time></trkpt>
<trkpt lat="46.437171" lon="11.46777"><ele>807.37</ele><time>2022-02-05T18:44:32Z</time></trkpt>
<trkpt lat="46.437216" lon="11.467804"><ele>808.48</ele><time>2022-02-05T18:44:34Z</time></trkpt>
<trkpt lat="46.437267" lon="11.467799"><ele>808.81</ele><time>2022-02-05T18:44:36Z</time></trkpt>
<trkpt lat="46.43731" lon="11.467758"><ele>808.28</ele><time>2022-02-05T18:44:38Z</time></trkpt>
<trkpt lat="46.437332" lon="11.467692"><ele>807.19</ele><time>2022-02-05T18:44:39Z</time></trkpt>
<trkpt lat="46.437323" lon="11.467596"><ele>805.4</ele><time>2022-02-05T18:44:41Z</time></trkpt>
<trkpt lat="46.437302" lon="11.467557"><ele>804.72</ele><time>2022-02-05T18:44:43Z</time></trkpt>
<trkpt lat="46.437222" lon="11.467522"><ele>804.32</ele><time>2022-02-05T18:44:45Z</time></trkpt>
<trkpt lat="46.437171" lon="11.467556"><ele>805.43</ele><time>2022-02-05T18:44:46Z</time></trkpt>
<trkpt lat="46.437141" lon="11.467626"><ele>806.22</ele><time>2022-02-05T18:44:48Z</time></trkpt>
<trkpt lat="46.436747" lon="11.467454"><ele>809.37</ele><time>2022-02-05T18:44:50Z</time></trkpt>
<trkpt lat="46.436329" lon="11.467316"><ele>820.61</ele><time>2022-02-05T18:44:52Z</time></trkpt>
<trkpt lat="46.43618" lon="11.467344"><ele>831.04</ele><time>2022-02-05T18:44:54Z</time></trkpt>
<trkpt lat="46.436104" lon="11.467392"><ele>834.64</ele><time>2022-02-05T18:44:55Z</time></trkpt>
<trkpt lat="46.436026" lon="11.467473"><ele>837.6</ele><time>2022-02-05T18:44:57Z</time></trkpt>
<trkpt lat="46.435644" lon="11.468051"><ele>829.34</ele><time>2022-02-05T18:44:59Z</time></trkpt>
<trkpt lat="46.43553" lon="11.468191"><ele>827.27</ele><time>2022-02-05T18:45:01Z</time></trkpt>
<trkpt lat="46.435453" lon="11.468264"><ele>824.97</ele><time>2022-02-05T18:45:03Z</time></trkpt>
<trkpt lat="46.435263" lon="11.468386"><ele>822.19</ele><time>2022-02-05T18:45:04Z</time></trkpt>
<trkpt lat="46.43514" lon="11.468502"><ele>822.93</ele><time>2022-02-05T18:45:06Z</time></trkpt>
<trkpt lat="46.435029" lon="11.468632"><ele>823.86</ele><time>2022-02-05T18:45:08Z</time></trkpt>
<trkpt lat="46.434809" lon="11.468969"><ele>824.65</ele><time>2022-02-05T18:45:10Z</time></trkpt>
<trkpt lat="46.434461" lon="11.469614"><ele>829.89</ele><time>2022-02-05T18:45:12Z</time></trkpt>
<trkpt lat="46.434086" lon="11.470535"><ele>830.26</ele><time>2022-02-05T18:45:13Z</time></trkpt>
<trkpt lat="46.433745" lon="11.471103"><ele>831.44</ele><time>2022-02-05T18:45:15Z</time></trkpt>
<trkpt lat="46.433125" lon="11.471968"><ele>837.55</ele><time>2022-02-05T18:45:17Z</time></trkpt>
<trkpt lat="46.43305" lon="11.472105"><ele>836.04</ele><time>2022-02-05T18:45:19Z</time></trkpt>
<trkpt lat="46.432981" lon="11.472274"><ele>841.66</ele><time>2022-02-05T18:45:21Z</time></trkpt>
<trkpt lat="46.432892" lon="11.472565"><ele>849.32</ele><time>2022-02-05T18:45:22Z</time></trkpt>
<trkpt lat="46.432739" lon="11.473324"><ele>849.67</ele><time>2022-02-05T18:45:24Z</time></trkpt>
<trkpt lat="46.432493" lon="11.47479"><ele>839.53</ele><time>2022-02-05T18:45:26Z</time></trkpt>
<trkpt lat="46.432408" lon="11.475171"><ele>839.42</ele><time>2022-02-05T18:45:28Z</time></trkpt>
<trkpt lat="46.432348" lon="11.475345"><ele>838.91</ele><time>2022-02-05T18:45:30Z</time></trkpt>
<trkpt lat="46.432269" lon="11.475475"><ele>839.57</ele><time>2022-02-05T18:45:31Z</time></trkpt>
<trkpt lat="46.431709" lon="11.47616"><ele>854.69</ele><time>2022-02-05T18:45:33Z</time></trkpt>
<trkpt lat="46.431424" lon="11.476508"><ele>852.97</ele><time>2022-02-05T18:45:35Z</time></trkpt>
<trkpt lat="46.431249" lon="11.476679"><ele>854.84</ele><time>2022-02-05T18:45:37Z</time></trkpt>
<trkpt lat="46.431048" lon="11.476836"><ele>862.41</ele><time>2022-02-05T18:45:38Z</time></trkpt>
<trkpt lat="46.430402" lon="11.477281"><ele>867.43</ele><time>2022-02-05T18:45:40Z</time></trkpt>
<trkpt lat="46.430281" lon="11.477328"><ele>864.75</ele><time>2022-02-05T18:45:42Z</time></trkpt>
<trkpt lat="46.429688" lon="11.477439"><ele>866.82</ele><time>2022-02-05T18:45:44Z</time></trkpt>
<trkpt lat="46.429364" lon="11.477543"><ele>870.99</ele><time>2022-02-05T18:45:46Z</time></trkpt>
<trkpt lat="46.429107" lon="11.477652"><ele>876.32</ele><time>2022-02-05T18:45:47Z</time></trkpt>
<trkpt lat="46.428008" lon="11.478212"><ele>879.26</ele><time>2022-02-05T18:45:49Z</time></trkpt>
<trkpt lat="46.427895" lon="11.478296"><ele>877.67</ele><time>2022-02-05T18:45:51Z</time></trkpt>
<trkpt lat="46.426341" lon="11.479678"><ele>868.36</ele><time>2022-02-05T18:45:53Z</time></trkpt>
<trkpt lat="46.425102" lon="11.480825"><ele>876.63</ele><time>2022-02-05T18:45:55Z</time></trkpt>
<trkpt lat="46.425031" lon="11.480908"><ele>876.45</ele><time>2022-02-05T18:45:56Z</time></trkpt>
<trkpt lat="46.424983" lon="11.481004"><ele>874.88</ele><time>2022-02-05T18:45:58Z</time></trkpt>
<trkpt lat="46.424915" lon="11.481261"><ele>870.38</ele><time>2022-02-05T18:46:00Z</time></trkpt>
<trkpt lat="46.424817" lon="11.481699"><ele>869.37</ele><time>2022-02-05T18:46:02Z</time></trkpt>
<trkpt lat="46.42458" lon="11.482074"><ele>873.72</ele><time>2022-02-05T18:46:04Z</time></trkpt>
<trkpt lat="46.42453" lon="11.482206"><ele>874.61</ele><time>2022-02-05T18:46:06Z</time></trkpt>
<trkpt lat="46.423932" lon="11.483829"><ele>884.39</ele><time>2022-02-05T18:46:08Z</time></trkpt>
<trkpt lat="46.423832" lon="11.4841"><ele>892.18</ele><time>2022-02-05T18:46:10Z</time></trkpt>
<trkpt lat="46.42375" lon="11.484248"><ele>895.45</ele><time>2022-02-05T18:46:12Z</time></trkpt>
<trkpt lat="46.423674" lon="11.484364"><ele>898.08</ele><time>2022-02-05T18:46:14Z</time></trkpt>
<trkpt lat="46.423558" lon="11.484482"><ele>900.19</ele><time>2022-02-05T18:46:16Z</time></trkpt>
<trkpt lat="46.423434" lon="11.484575"><ele>900.29</ele><time>2022-02-05T18:46:18Z</time></trkpt>
<trkpt lat="46.423022" lon="11.484761"><ele>894.91</ele><time>2022-02-05T18:46:20Z</time></trkpt>
<trkpt lat="46.42281" lon="11.484913"><ele>895.58</ele><time>2022-02-05T18:46:22Z</time></trkpt>
<trkpt lat="46.422194" lon="11.485493"><ele>901.57</ele><time>2022-02-05T18:46:24Z</time></trkpt>
<trkpt lat="46.422035" lon="11.485622"><ele>902.59</ele><time>2022-02-05T18:46:26Z</time></trkpt>
<trkpt lat="46.421902" lon="11.485711"><ele>906.61</ele><time>2022-02-05T18:46:28Z</time></trkpt>
<trkpt lat="46.420678" lon="11.486241"><ele>912.24</ele><time>2022-02-05T18:46:30Z</time></trkpt>
<trkpt lat="46.420552" lon="11.486332"><ele>910.98</ele><time>2022-02-05T18:46:32Z</time></trkpt>
<trkpt lat="46.420458" lon="11.486433"><ele>910.76</ele><time>2022-02-05T18:46:34Z</time></trkpt>
<trkpt lat="46.420361" lon="11.486579"><ele>909.78</ele><time>2022-02-05T18:46:36Z</time></trkpt>
<trkpt lat="46.419669" lon="11.487977"><ele>929.63</ele><time>2022-02-05T18:46:38Z</time></trkpt>
<trkpt lat="46.419443" lon="11.48824"><ele>923.64</ele><time>2022-02-05T18:46:40Z</time></trkpt>
<trkpt lat="46.41812" lon="11.489354"><ele>933.42</ele><time>2022-02-05T18:46:42Z</time></trkpt>
<trkpt lat="46.417974" lon="11.489435"><ele>933.18</ele><time>2022-02-05T18:46:44Z</time></trkpt>
<trkpt lat="46.417112" lon="11.489628"><ele>931.97</ele><time>2022-02-05T18:46:46Z</time></trkpt>
<trkpt lat="46.416918" lon="11.489641"><ele>932.67</ele><time>2022-02-05T18:46:48Z</time></trkpt>
<trkpt lat="46.416626" lon="11.48955"><ele>936.96</ele><time>2022-02-05T18:46:50Z</time></trkpt>
<trkpt lat="46.415456" lon="11.491001"><ele>965.64</ele><time>2022-02-05T18:46:52Z</time></trkpt>
<trkpt lat="46.414574" lon="11.491831"><ele>975.47</ele><time>2022-02-05T18:46:55Z</time></trkpt>
<trkpt lat="46.414195" lon="11.492324"><ele>982.99</ele><time>2022-02-05T18:46:57Z</time></trkpt>
<trkpt lat="46.414013" lon="11.492678"><ele>984.1</ele><time>2022-02-05T18:47:00Z</time></trkpt>
<trkpt lat="46.413844" lon="11.493093"><ele>987.64</ele><time>2022-02-05T18:47:02Z</time></trkpt>
<trkpt lat="46.413701" lon="11.493531"><ele>991.84</ele><time>2022-02-05T18:47:05Z</time></trkpt>
<trkpt lat="46.413565" lon="11.493692"><ele>992.16</ele><time>2022-02-05T18:47:07Z</time></trkpt>
<trkpt lat="46.413375" lon="11.493807"><ele>991.09</ele><time>2022-02-05T18:47:10Z</time></trkpt>
<trkpt lat="46.413025" lon="11.493917"><ele>994.46</ele><time>2022-02-05T18:47:12Z</time></trkpt>
<trkpt lat="46.412925" lon="11.494018"><ele>996.1</ele><time>2022-02-05T18:47:15Z</time></trkpt>
<trkpt lat="46.412824" lon="11.494223"><ele>998.79</ele><time>2022-02-05T18:47:17Z</time></trkpt>
<trkpt lat="46.412724" lon="11.494518"><ele>1004.34</ele><time>2022-02-05T18:47:20Z</time></trkpt>
<trkpt lat="46.412642" lon="11.494695"><ele>1009.8</ele><time>2022-02-05T18:47:22Z</time></trkpt>
<trkpt lat="46.412557" lon="11.494803"><ele>1011.86</ele><time>2022-02-05T18:47:25Z</time></trkpt>
<trkpt lat="46.412419" lon="11.494934"><ele>1013.71</ele><time>2022-02-05T18:47:27Z</time></trkpt>
<trkpt lat="46.412198" lon="11.495042"><ele>1015.05</ele><time>2022-02-05T18:47:30Z</time></trkpt>
<trkpt lat="46.411853" lon="11.495572"><ele>1009.2</ele><time>2022-02-05T18:47:32Z</time></trkpt>
<trkpt lat="46.411454" lon="11.496114"><ele>1024.08</ele><time>2022-02-05T18:47:35Z</time></trkpt>
<trkpt lat="46.411213" lon="11.496535"><ele>1028.78</ele><time>2022-02-05T18:47:37Z</time></trkpt>
<trkpt lat="46.411097" lon="11.496792"><ele>1028.68</ele><time>2022-02-05T18:47:39Z</time></trkpt>
<trkpt lat="46.411007" lon="11.497256"><ele>1031.35</ele><time>2022-02-05T18:47:42Z</time></trkpt>
<trkpt lat="46.410937" lon="11.497434"><ele>1033.05</ele><time>2022-02-05T18:47:44Z</time></trkpt>
<trkpt lat="46.41075" lon="11.497646"><ele>1033.94</ele><time>2022-02-05T18:47:47Z</time></trkpt>
<trkpt lat="46.410484" lon="11.498002"><ele>1038.3</ele><time>2022-02-05T18:47:49Z</time></trkpt>
<trkpt lat="46.410299" lon="11.498512"><ele>1047.65</ele><time>2022-02-05T18:47:52Z</time></trkpt>
<trkpt lat="46.409952" lon="11.49912"><ele>1048.85</ele><time>2022-02-05T18:47:54Z</time></trkpt>
<trkpt lat="46.409854" lon="11.499383"><ele>1049.53</ele><time>2022-02-05T18:47:57Z</time></trkpt>
<trkpt lat="46.409651" lon="11.500053"><ele>1058.04</ele><time>2022-02-05T18:47:59Z</time></trkpt>
<trkpt lat="46.409378" lon="11.500422"><ele>1063.22</ele><time>2022-02-05T18:48:02Z</time></trkpt>
<trkpt lat="46.409309" lon="11.50054"><ele>1065.69</ele><time>2022-02-05T18:48:04Z</time></trkpt>
<trkpt lat="46.409237" lon="11.50072"><ele>1067.78</ele><time>2022-02-05T18:48:07Z</time></trkpt>
<trkpt lat="46.409101" lon="11.501223"><ele>1071.11</ele><time>2022-02-05T18:48:09Z</time></trkpt>
<trkpt lat="46.408967" lon="11.501449"><ele>1073.12</ele><time>2022-02-05T18:48:12Z</time></trkpt>
<trkpt lat="46.408821" lon="11.501583"><ele>1074.28</ele><time>2022-02-05T18:48:14Z</time></trkpt>
<trkpt lat="46.408586" lon="11.501908"><ele>1075.24</ele><time>2022-02-05T18:48:17Z</time></trkpt>
<trkpt lat="46.408131" lon="11.502468"><ele>1085.77</ele><time>2022-02-05T18:48:19Z</time></trkpt>
<trkpt lat="46.407125" lon="11.503572"><ele>1092.34</ele><time>2022-02-05T18:48:22Z</time></trkpt>
<trkpt lat="46.406104" lon="11.504859"><ele>1095.45</ele><time>2022-02-05T18:48:24Z</time></trkpt>
<trkpt lat="46.405146" lon="11.505833"><ele>1112.43</ele><time>2022-02-05T18:48:27Z</time></trkpt>
<trkpt lat="46.404528" lon="11.506546"><ele>1116.13</ele><time>2022-02-05T18:48:29Z</time></trkpt>
<trkpt lat="46.403936" lon="11.507135"><ele>1130.54</ele><time>2022-02-05T18:48:32Z</time></trkpt>
<trkpt lat="46.403699" lon="11.507412"><ele>1133.05</ele><time>2022-02-05T18:48:34Z</time></trkpt>
<trkpt lat="46.403531" lon="11.50773"><ele>1138.23</ele><time>2022-02-05T18:48:36Z</time></trkpt>
<trkpt lat="46.403397" lon="11.508207"><ele>1138.69</ele><time>2022-02-05T18:48:39Z</time></trkpt>
<trkpt lat="46.40326" lon="11.508618"><ele>1138.27</ele><time>2022-02-05T18:48:41Z</time></trkpt>
<trkpt lat="46.403149" lon="11.508823"><ele>1139.17</ele><time>2022-02-05T18:48:44Z</time></trkpt>
<trkpt lat="46.402799" lon="11.509306"><ele>1148.23</ele><time>2022-02-05T18:48:46Z</time></trkpt>
<trkpt lat="46.402755" lon="11.509456"><ele>1149.49</ele><time>2022-02-05T18:48:49Z</time></trkpt>
<trkpt lat="46.40264" lon="11.510071"><ele>1154.87</ele><time>2022-02-05T18:48:51Z</time></trkpt>
<trkpt lat="46.402287" lon="11.511261"><ele>1166.04</ele><time>2022-02-05T18:48:54Z</time></trkpt>
<trkpt lat="46.402241" lon="11.511775"><ele>1177.92</ele><time>2022-02-05T18:48:56Z</time></trkpt>
<trkpt lat="46.402327" lon="11.5126"><ele>1185.71</ele><time>2022-02-05T18:48:59Z</time></trkpt>
<trkpt lat="46.402294" lon="11.512918"><ele>1186.64</ele><time>2022-02-05T18:49:01Z</time></trkpt>
<trkpt lat="46.402107" lon="11.513626"><ele>1189.91</ele><time>2022-02-05T18:49:04Z</time></trkpt>
<trkpt lat="46.402088" lon="11.513965"><ele>1197.01</ele><time>2022-02-05T18:49:06Z</time></trkpt>
<trkpt lat="46.401964" lon="11.514457"><ele>1207.51</ele><time>2022-02-05T18:49:09Z</time></trkpt>
<trkpt lat="46.401666" lon="11.515002"><ele>1229.08</ele><time>2022-02-05T18:49:11Z</time></trkpt>
<trkpt lat="46.401376" lon="11.516"><ele>1238.44</ele><time>2022-02-05T18:49:14Z</time></trkpt>
<trkpt lat="46.401338" lon="11.516497"><ele>1242.42</ele><time>2022-02-05T18:49:16Z</time></trkpt>
<trkpt lat="46.401236" lon="11.516844"><ele>1246.39</ele><time>2022-02-05T18:49:19Z</time></trkpt>
<trkpt lat="46.400686" lon="11.51776"><ele>1257.59</ele><time>2022-02-05T18:49:21Z</time></trkpt>
<trkpt lat="46.399776" lon="11.518882"><ele>1282.47</ele><time>2022-02-05T18:49:24Z</time></trkpt>
<trkpt lat="46.39949" lon="11.519098"><ele>1284.74</ele><time>2022-02-05T18:49:26Z</time></trkpt>
<trkpt lat="46.39873" lon="11.519368"><ele>1296.8</ele><time>2022-02-05T18:49:28Z</time></trkpt>
<trkpt lat="46.398225" lon="11.519712"><ele>1303.64</ele><time>2022-02-05T18:49:31Z</time></trkpt>
<trkpt lat="46.397985" lon="11.519919"><ele>1310.84</ele><time>2022-02-05T18:49:33Z</time></trkpt>
<trkpt lat="46.397812" lon="11.520123"><ele>1312.19</ele><time>2022-02-05T18:49:36Z</time></trkpt>
<trkpt lat="46.397627" lon="11.520389"><ele>1314.8</ele><time>2022-02-05T18:49:38Z</time></trkpt>
<trkpt lat="46.396996" lon="11.521638"><ele>1327.88</ele><time>2022-02-05T18:49:41Z</time></trkpt>
<trkpt lat="46.396645" lon="11.52213"><ele>1333.78</ele><time>2022-02-05T18:49:43Z</time></trkpt>
<trkpt lat="46.396136" lon="11.522923"><ele>1340.61</ele><time>2022-02-05T18:49:46Z</time></trkpt>
<trkpt lat="46.396058" lon="11.523101"><ele>1343.32</ele><time>2022-02-05T18:49:48Z</time></trkpt>
<trkpt lat="46.396043" lon="11.523251"><ele>1345.28</ele><time>2022-02-05T18:49:51Z</time></trkpt>
<trkpt lat="46.396045" lon="11.523429"><ele>1346.32</ele><time>2022-02-05T18:49:53Z</time></trkpt>
<trkpt lat="46.39616" lon="11.524149"><ele>1350.1</ele><time>2022-02-05T18:49:56Z</time></trkpt>
<trkpt lat="46.396217" lon="11.524767"><ele>1364.46</ele><time>2022-02-05T18:49:58Z</time></trkpt>
<trkpt lat="46.396356" lon="11.525477"><ele>1375.35</ele><time>2022-02-05T18:50:01Z</time></trkpt>
<trkpt lat="46.39636" lon="11.525645"><ele>1376.27</ele><time>2022-02-05T18:50:03Z</time></trkpt>
<trkpt lat="46.396346" lon="11.525788"><ele>1376.57</ele><time>2022-02-05T18:50:06Z</time></trkpt>
<trkpt lat="46.396289" lon="11.525966"><ele>1377.31</ele><time>2022-02-05T18:50:08Z</time></trkpt>
<trkpt lat="46.396147" lon="11.526244"><ele>1381.36</ele><time>2022-02-05T18:50:11Z</time></trkpt>
<trkpt lat="46.396097" lon="11.526428"><ele>1383.91</ele><time>2022-02-05T18:50:13Z</time></trkpt>
<trkpt lat="46.39598" lon="11.52721"><ele>1396.29</ele><time>2022-02-05T18:50:16Z</time></trkpt>
<trkpt lat="46.395911" lon="11.528058"><ele>1404.79</ele><time>2022-02-05T18:50:18Z</time></trkpt>
<trkpt lat="46.395921" lon="11.529482"><ele>1419.73</ele><time>2022-02-05T18:50:20Z</time></trkpt>
<trkpt lat="46.396059" lon="11.530828"><ele>1442.1</ele><time>2022-02-05T18:50:23Z</time></trkpt>
<trkpt lat="46.396071" lon="11.531182"><ele>1446.91</ele><time>2022-02-05T18:50:25Z</time></trkpt>
<trkpt lat="46.396003" lon="11.532561"><ele>1462.82</ele><time>2022-02-05T18:50:28Z</time></trkpt>
<trkpt lat="46.395948" lon="11.532663"><ele>1464.63</ele><time>2022-02-05T18:50:30Z</time></trkpt>
<trkpt lat="46.395903" lon="11.532689"><ele>1465.35</ele><time>2022-02-05T18:50:33Z</time></trkpt>
<trkpt lat="46.395821" lon="11.532681"><ele>1466.64</ele><time>2022-02-05T18:50:35Z</time></trkpt>
<trkpt lat="46.395771" lon="11.532622"><ele>1468.55</ele><time>2022-02-05T18:50:38Z</time></trkpt>
<trkpt lat="46.395663" lon="11.532319"><ele>1469.6</ele><time>2022-02-05T18:50:40Z</time></trkpt>
<trkpt lat="46.395495" lon="11.532026"><ele>1473.36</ele><time>2022-02-05T18:50:43Z</time></trkpt>
<trkpt lat="46.395319" lon="11.531764"><ele>1473.51</ele><time>2022-02-05T18:50:45Z</time></trkpt>
<trkpt lat="46.395319" lon="11.531764"><ele>1473.51</ele><time>2022-02-05T18:50:45Z</time></trkpt>
<trkpt lat="46.395097" lon="11.531431"><ele>1473.66</ele><time>2022-02-05T18:50:46Z</time></trkpt>
<trkpt lat="46.394944" lon="11.531282"><ele>1475.31</ele><time>2022-02-05T18:50:48Z</time></trkpt>
<trkpt lat="46.394267" lon="11.531201"><ele>1492.94</ele><time>2022-02-05T18:50:49Z</time></trkpt>
<trkpt lat="46.393595" lon="11.530778"><ele>1497.32</ele><time>2022-02-05T18:50:50Z</time></trkpt>
<trkpt lat="46.393366" lon="11.530559"><ele>1500.04</ele><time>2022-02-05T18:50:51Z</time></trkpt>
<trkpt lat="46.392739" lon="11.529897"><ele>1502.24</ele><time>2022-02-05T18:50:52Z</time></trkpt>
<trkpt lat="46.392585" lon="11.529826"><ele>1501.14</ele><time>2022-02-05T18:50:53Z</time></trkpt>
<trkpt lat="46.392496" lon="11.529808"><ele>1500.47</ele><time>2022-02-05T18:50:54Z</time></trkpt>
<trkpt lat="46.392386" lon="11.529815"><ele>1499.02</ele><time>2022-02-05T18:50:56Z</time></trkpt>
<trkpt lat="46.39201" lon="11.52996"><ele>1497.35</ele><time>2022-02-05T18:50:57Z</time></trkpt>
<trkpt lat="46.391844" lon="11.529974"><ele>1498.34</ele><time>2022-02-05T18:50:58Z</time></trkpt>
<trkpt lat="46.391608" lon="11.529912"><ele>1502.82</ele><time>2022-02-05T18:50:59Z</time></trkpt>
<trkpt lat="46.391441" lon="11.529831"><ele>1508.37</ele><time>2022-02-05T18:51:00Z</time></trkpt>
<trkpt lat="46.391362" lon="11.529745"><ele>1510.95</ele><time>2022-02-05T18:51:01Z</time></trkpt>
<trkpt lat="46.391117" lon="11.529299"><ele>1515.6</ele><time>2022-02-05T18:51:02Z</time></trkpt>
<trkpt lat="46.390813" lon="11.528944"><ele>1519.83</ele><time>2022-02-05T18:51:03Z</time></trkpt>
<trkpt lat="46.390457" lon="11.52867"><ele>1524.67</ele><time>2022-02-05T18:51:05Z</time></trkpt>
<trkpt lat="46.390165" lon="11.528548"><ele>1532.52</ele><time>2022-02-05T18:51:06Z</time></trkpt>
<trkpt lat="46.389812" lon="11.528242"><ele>1536.99</ele><time>2022-02-05T18:51:07Z</time></trkpt>
<trkpt lat="46.389725" lon="11.528113"><ele>1536.97</ele><time>2022-02-05T18:51:08Z</time></trkpt>
<trkpt lat="46.389627" lon="11.527746"><ele>1533.35</ele><time>2022-02-05T18:51:09Z</time></trkpt>
<trkpt lat="46.389583" lon="11.527612"><ele>1532.32</ele><time>2022-02-05T18:51:10Z</time></trkpt>
<trkpt lat="46.389522" lon="11.527495"><ele>1530.64</ele><time>2022-02-05T18:51:11Z</time></trkpt>
<trkpt lat="46.389341" lon="11.527292"><ele>1528.75</ele><time>2022-02-05T18:51:13Z</time></trkpt>
<trkpt lat="46.389116" lon="11.527122"><ele>1528.93</ele><time>2022-02-05T18:51:14Z</time></trkpt>
<trkpt lat="46.389001" lon="11.52708"><ele>1531.2</ele><time>2022-02-05T18:51:15Z</time></trkpt>
<trkpt lat="46.388837" lon="11.52711"><ele>1534.85</ele><time>2022-02-05T18:51:16Z</time></trkpt>
<trkpt lat="46.388593" lon="11.527294"><ele>1536.9</ele><time>2022-02-05T18:51:17Z</time></trkpt>
<trkpt lat="46.388199" lon="11.527631"><ele>1544.03</ele><time>2022-02-05T18:51:18Z</time></trkpt>
<trkpt lat="46.38812" lon="11.527665"><ele>1545.64</ele><time>2022-02-05T18:51:19Z</time></trkpt>
<trkpt lat="46.388043" lon="11.52767"><ele>1546.68</ele><time>2022-02-05T18:51:20Z</time></trkpt>
<trkpt lat="46.38796" lon="11.527646"><ele>1547.97</ele><time>2022-02-05T18:51:22Z</time></trkpt>
<trkpt lat="46.387899" lon="11.527582"><ele>1548.63</ele><time>2022-02-05T18:51:23Z</time></trkpt>
<trkpt lat="46.387736" lon="11.527217"><ele>1550.4</ele><time>2022-02-05T18:51:24Z</time></trkpt>
<trkpt lat="46.387675" lon="11.527167"><ele>1550.44</ele><time>2022-02-05T18:51:25Z</time></trkpt>
<trkpt lat="46.387378" lon="11.527088"><ele>1552.37</ele><time>2022-02-05T18:51:26Z</time></trkpt>
<trkpt lat="46.387166" lon="11.527077"><ele>1555.18</ele><time>2022-02-05T18:51:27Z</time></trkpt>
<trkpt lat="46.386996" lon="11.527015"><ele>1558.4</ele><time>2022-02-05T18:51:28Z</time></trkpt>
<trkpt lat="46.386927" lon="11.526945"><ele>1559.58</ele><time>2022-02-05T18:51:30Z</time></trkpt>
<trkpt lat="46.386716" lon="11.526632"><ele>1562.7</ele><time>2022-02-05T18:51:31Z</time></trkpt>
<trkpt lat="46.386656" lon="11.526472"><ele>1562.87</ele><time>2022-02-05T18:51:32Z</time></trkpt>
<trkpt lat="46.386629" lon="11.526326"><ele>1563.18</ele><time>2022-02-05T18:51:33Z</time></trkpt>
<trkpt lat="46.386625" lon="11.526113"><ele>1564.05</ele><time>2022-02-05T18:51:34Z</time></trkpt>
<trkpt lat="46.386679" lon="11.525631"><ele>1563.96</ele><time>2022-02-05T18:51:35Z</time></trkpt>
<trkpt lat="46.386665" lon="11.525188"><ele>1564.4</ele><time>2022-02-05T18:51:36Z</time></trkpt>
<trkpt lat="46.386579" lon="11.524693"><ele>1562.99</ele><time>2022-02-05T18:51:38Z</time></trkpt>
<trkpt lat="46.386516" lon="11.524502"><ele>1561.72</ele><time>2022-02-05T18:51:39Z</time></trkpt>
<trkpt lat="46.386437" lon="11.524356"><ele>1561.5</ele><time>2022-02-05T18:51:40Z</time></trkpt>
<trkpt lat="46.386273" lon="11.524185"><ele>1560.73</ele><time>2022-02-05T18:51:41Z</time></trkpt>
<trkpt lat="46.386239" lon="11.524227"><ele>1561.03</ele><time>2022-02-05T18:51:41Z</time></trkpt>
<trkpt lat="46.386175" lon="11.524214"><ele>1560.8</ele><time>2022-02-05T18:51:42Z</time></trkpt>
<trkpt lat="46.386147" lon="11.524124"><ele>1560.13</ele><time>2022-02-05T18:51:43Z</time></trkpt>
<trkpt lat="46.386059" lon="11.524124"><ele>1559.46</ele><time>2022-02-05T18:51:45Z</time></trkpt>
<trkpt lat="46.385944" lon="11.524161"><ele>1558.2</ele><time>2022-02-05T18:51:47Z</time></trkpt>
<trkpt lat="46.38551" lon="11.524538"><ele>1557.96</ele><time>2022-02-05T18:51:50Z</time></trkpt>
<trkpt lat="46.384808" lon="11.524819"><ele>1554.22</ele><time>2022-02-05T18:51:52Z</time></trkpt>
<trkpt lat="46.384693" lon="11.524916"><ele>1553.95</ele><time>2022-02-05T18:51:54Z</time></trkpt>
<trkpt lat="46.384562" lon="11.525111"><ele>1553.89</ele><time>2022-02-05T18:51:57Z</time></trkpt>
<trkpt lat="46.384416" lon="11.525397"><ele>1554.52</ele><time>2022-02-05T18:51:59Z</time></trkpt>
<trkpt lat="46.384254" lon="11.525856"><ele>1555.8</ele><time>2022-02-05T18:52:01Z</time></trkpt>
<trkpt lat="46.384172" lon="11.526008"><ele>1552.89</ele><time>2022-02-05T18:52:03Z</time></trkpt>
<trkpt lat="46.38407" lon="11.526131"><ele>1549.61</ele><time>2022-02-05T18:52:06Z</time></trkpt>
<trkpt lat="46.383966" lon="11.526184"><ele>1547.32</ele><time>2022-02-05T18:52:08Z</time></trkpt>
<trkpt lat="46.383796" lon="11.526238"><ele>1543.88</ele><time>2022-02-05T18:52:10Z</time></trkpt>
<trkpt lat="46.38368" lon="11.526242"><ele>1541.4</ele><time>2022-02-05T18:52:13Z</time></trkpt>
<trkpt lat="46.383467" lon="11.526193"><ele>1540.43</ele><time>2022-02-05T18:52:15Z</time></trkpt>
<trkpt lat="46.38329" lon="11.526057"><ele>1541.04</ele><time>2022-02-05T18:52:17Z</time></trkpt>
<trkpt lat="46.383212" lon="11.525966"><ele>1541.32</ele><time>2022-02-05T18:52:20Z</time></trkpt>
<trkpt lat="46.383158" lon="11.525858"><ele>1541.09</ele><time>2022-02-05T18:52:22Z</time></trkpt>
<trkpt lat="46.383115" lon="11.525711"><ele>1540.3</ele><time>2022-02-05T18:52:24Z</time></trkpt>
<trkpt lat="46.383091" lon="11.525562"><ele>1539.18</ele><time>2022-02-05T18:52:27Z</time></trkpt>
<trkpt lat="46.38309" lon="11.525294"><ele>1538.07</ele><time>2022-02-05T18:52:29Z</time></trkpt>
<trkpt lat="46.383184" lon="11.524895"><ele>1532.44</ele><time>2022-02-05T18:52:31Z</time></trkpt>
<trkpt lat="46.383373" lon="11.52435"><ele>1526.04</ele><time>2022-02-05T18:52:33Z</time></trkpt>
<trkpt lat="46.383915" lon="11.521763"><ele>1504.26</ele><time>2022-02-05T18:52:36Z</time></trkpt>
<trkpt lat="46.383978" lon="11.521405"><ele>1501.8</ele><time>2022-02-05T18:52:38Z</time></trkpt>
<trkpt lat="46.384062" lon="11.520347"><ele>1494.91</ele><time>2022-02-05T18:52:40Z</time></trkpt>
<trkpt lat="46.384098" lon="11.520134"><ele>1494.1</ele><time>2022-02-05T18:52:43Z</time></trkpt>
<trkpt lat="46.384324" lon="11.519298"><ele>1485.2</ele><time>2022-02-05T18:52:45Z</time></trkpt>
<trkpt lat="46.384585" lon="11.518479"><ele>1478.29</ele><time>2022-02-05T18:52:47Z</time></trkpt>
<trkpt lat="46.384626" lon="11.518209"><ele>1475.2</ele><time>2022-02-05T18:52:50Z</time></trkpt>
<trkpt lat="46.384648" lon="11.517935"><ele>1473.3</ele><time>2022-02-05T18:52:52Z</time></trkpt>
<trkpt lat="46.384626" lon="11.51614"><ele>1458.9</ele><time>2022-02-05T18:52:54Z</time></trkpt>
<trkpt lat="46.384723" lon="11.515551"><ele>1446.97</ele><time>2022-02-05T18:52:56Z</time></trkpt>
<trkpt lat="46.385056" lon="11.514498"><ele>1446.55</ele><time>2022-02-05T18:52:59Z</time></trkpt>
<trkpt lat="46.38517" lon="11.513712"><ele>1444.01</ele><time>2022-02-05T18:53:01Z</time></trkpt>
<trkpt lat="46.38536" lon="11.513194"><ele>1437.43</ele><time>2022-02-05T18:53:03Z</time></trkpt>
<trkpt lat="46.385392" lon="11.513042"><ele>1435.05</ele><time>2022-02-05T18:53:06Z</time></trkpt>
<trkpt lat="46.385474" lon="11.512412"><ele>1420.92</ele><time>2022-02-05T18:53:08Z</time></trkpt>
<trkpt lat="46.385547" lon="11.51222"><ele>1413.09</ele><time>2022-02-05T18:53:10Z</time></trkpt>
<trkpt lat="46.38567" lon="11.512063"><ele>1411.71</ele><time>2022-02-05T18:53:13Z</time></trkpt>
<trkpt lat="46.386503" lon="11.511295"><ele>1405.67</ele><time>2022-02-05T18:53:15Z</time></trkpt>
<trkpt lat="46.386728" lon="11.510986"><ele>1403.35</ele><time>2022-02-05T18:53:17Z</time></trkpt>
<trkpt lat="46.386885" lon="11.510463"><ele>1404.48</ele><time>2022-02-05T18:53:20Z</time></trkpt>
<trkpt lat="46.386946" lon="11.510182"><ele>1404.4</ele><time>2022-02-05T18:53:22Z</time></trkpt>
<trkpt lat="46.386988" lon="11.509887"><ele>1403.83</ele><time>2022-02-05T18:53:24Z</time></trkpt>
<trkpt lat="46.386989" lon="11.509502"><ele>1395.81</ele><time>2022-02-05T18:53:26Z</time></trkpt>
<trkpt lat="46.386961" lon="11.509305"><ele>1390.56</ele><time>2022-02-05T18:53:29Z</time></trkpt>
<trkpt lat="46.386913" lon="11.509111"><ele>1385.91</ele><time>2022-02-05T18:53:31Z</time></trkpt>
<trkpt lat="46.386679" lon="11.508596"><ele>1382.66</ele><time>2022-02-05T18:53:33Z</time></trkpt>
<trkpt lat="46.386193" lon="11.507363"><ele>1366.92</ele><time>2022-02-05T18:53:36Z</time></trkpt>
<trkpt lat="46.385967" lon="11.506447"><ele>1368.54</ele><time>2022-02-05T18:53:38Z</time></trkpt>
<trkpt lat="46.385532" lon="11.505782"><ele>1359.71</ele><time>2022-02-05T18:53:40Z</time></trkpt>
<trkpt lat="46.385458" lon="11.505553"><ele>1358.21</ele><time>2022-02-05T18:53:43Z</time></trkpt>
<trkpt lat="46.385442" lon="11.505285"><ele>1354.67</ele><time>2022-02-05T18:53:45Z</time></trkpt>
<trkpt lat="46.385666" lon="11.504023"><ele>1334.94</ele><time>2022-02-05T18:53:47Z</time></trkpt>
<trkpt lat="46.38571" lon="11.503391"><ele>1333.23</ele><time>2022-02-05T18:53:49Z</time></trkpt>
<trkpt lat="46.385724" lon="11.502726"><ele>1326.38</ele><time>2022-02-05T18:53:52Z</time></trkpt>
<trkpt lat="46.385785" lon="11.501872"><ele>1324.81</ele><time>2022-02-05T18:53:54Z</time></trkpt>
<trkpt lat="46.385886" lon="11.501268"><ele>1323.61</ele><time>2022-02-05T18:53:56Z</time></trkpt>
<trkpt lat="46.386293" lon="11.499957"><ele>1313.61</ele><time>2022-02-05T18:53:59Z</time></trkpt>
<trkpt lat="46.386363" lon="11.4995"><ele>1312.84</ele><time>2022-02-05T18:54:01Z</time></trkpt>
<trkpt lat="46.386386" lon="11.499188"><ele>1312.18</ele><time>2022-02-05T18:54:03Z</time></trkpt>
<trkpt lat="46.386354" lon="11.498487"><ele>1318.16</ele><time>2022-02-05T18:54:06Z</time></trkpt>
<trkpt lat="46.386398" lon="11.498243"><ele>1315.57</ele><time>2022-02-05T18:54:08Z</time></trkpt>
<trkpt lat="46.386475" lon="11.49799"><ele>1312.35</ele><time>2022-02-05T18:54:10Z</time></trkpt>
<trkpt lat="46.386563" lon="11.497811"><ele>1308.26</ele><time>2022-02-05T18:54:13Z</time></trkpt>
<trkpt lat="46.386653" lon="11.497688"><ele>1303.04</ele><time>2022-02-05T18:54:15Z</time></trkpt>
<trkpt lat="46.386918" lon="11.497516"><ele>1295.69</ele><time>2022-02-05T18:54:17Z</time></trkpt>
<trkpt lat="46.386989" lon="11.497425"><ele>1292.72</ele><time>2022-02-05T18:54:19Z</time></trkpt>
<trkpt lat="46.387046" lon="11.49731"><ele>1289.2</ele><time>2022-02-05T18:54:22Z</time></trkpt>
<trkpt lat="46.387071" lon="11.497214"><ele>1286.77</ele><time>2022-02-05T18:54:24Z</time></trkpt>
<trkpt lat="46.387054" lon="11.496984"><ele>1283.51</ele><time>2022-02-05T18:54:26Z</time></trkpt>
<trkpt lat="46.387012" lon="11.496892"><ele>1283.48</ele><time>2022-02-05T18:54:29Z</time></trkpt>
<trkpt lat="46.386943" lon="11.496799"><ele>1283.96</ele><time>2022-02-05T18:54:31Z</time></trkpt>
<trkpt lat="46.386773" lon="11.496642"><ele>1287.92</ele><time>2022-02-05T18:54:33Z</time></trkpt>
<trkpt lat="46.386728" lon="11.49654"><ele>1288.27</ele><time>2022-02-05T18:54:36Z</time></trkpt>
<trkpt lat="46.386699" lon="11.496414"><ele>1287.51</ele><time>2022-02-05T18:54:38Z</time></trkpt>
<trkpt lat="46.386289" lon="11.496459"><ele>1293.19</ele><time>2022-02-05T18:54:39Z</time></trkpt>
<trkpt lat="46.385908" lon="11.496724"><ele>1298.99</ele><time>2022-02-05T18:54:41Z</time></trkpt>
<trkpt lat="46.385782" lon="11.49676"><ele>1301.23</ele><time>2022-02-05T18:54:43Z</time></trkpt>
<trkpt lat="46.385407" lon="11.496784"><ele>1309.03</ele><time>2022-02-05T18:54:44Z</time></trkpt>
<trkpt lat="46.384979" lon="11.496864"><ele>1322.3</ele><time>2022-02-05T18:54:46Z</time></trkpt>
<trkpt lat="46.384552" lon="11.497015"><ele>1326.33</ele><time>2022-02-05T18:54:47Z</time></trkpt>
<trkpt lat="46.383932" lon="11.497189"><ele>1339.0</ele><time>2022-02-05T18:54:49Z</time></trkpt>
<trkpt lat="46.383389" lon="11.49741"><ele>1344.55</ele><time>2022-02-05T18:54:50Z</time></trkpt>
<trkpt lat="46.383124" lon="11.497592"><ele>1348.49</ele><time>2022-02-05T18:54:52Z</time></trkpt>
<trkpt lat="46.382252" lon="11.49819"><ele>1364.58</ele><time>2022-02-05T18:54:53Z</time></trkpt>
<trkpt lat="46.38177" lon="11.498629"><ele>1355.04</ele><time>2022-02-05T18:54:55Z</time></trkpt>
<trkpt lat="46.381492" lon="11.498908"><ele>1360.67</ele><time>2022-02-05T18:54:57Z</time></trkpt>
<trkpt lat="46.381196" lon="11.499146"><ele>1366.56</ele><time>2022-02-05T18:54:58Z</time></trkpt>
<trkpt lat="46.380916" lon="11.499328"><ele>1375.8</ele><time>2022-02-05T18:55:00Z</time></trkpt>
<trkpt lat="46.38059" lon="11.499498"><ele>1381.72</ele><time>2022-02-05T18:55:01Z</time></trkpt>
<trkpt lat="46.379732" lon="11.500019"><ele>1375.51</ele><time>2022-02-05T18:55:03Z</time></trkpt>
<trkpt lat="46.378792" lon="11.500454"><ele>1399.61</ele><time>2022-02-05T18:55:04Z</time></trkpt>
<trkpt lat="46.378116" lon="11.500807"><ele>1408.6</ele><time>2022-02-05T18:55:06Z</time></trkpt>
<trkpt lat="46.377364" lon="11.501238"><ele>1416.61</ele><time>2022-02-05T18:55:07Z</time></trkpt>
<trkpt lat="46.376776" lon="11.501652"><ele>1427.22</ele><time>2022-02-05T18:55:09Z</time></trkpt>
<trkpt lat="46.37592" lon="11.502057"><ele>1438.45</ele><time>2022-02-05T18:55:11Z</time></trkpt>
<trkpt lat="46.375651" lon="11.502246"><ele>1440.91</ele><time>2022-02-05T18:55:12Z</time></trkpt>
<trkpt lat="46.375042" lon="11.502988"><ele>1446.51</ele><time>2022-02-05T18:55:14Z</time></trkpt>
<trkpt lat="46.374069" lon="11.503909"><ele>1458.92</ele><time>2022-02-05T18:55:15Z</time></trkpt>
<trkpt lat="46.373425" lon="11.505066"><ele>1463.04</ele><time>2022-02-05T18:55:17Z</time></trkpt>
<trkpt lat="46.372936" lon="11.5058"><ele>1472.96</ele><time>2022-02-05T18:55:18Z</time></trkpt>
<trkpt lat="46.372519" lon="11.506553"><ele>1485.33</ele><time>2022-02-05T18:55:20Z</time></trkpt>
<trkpt lat="46.371952" lon="11.507281"><ele>1500.74</ele><time>2022-02-05T18:55:21Z</time></trkpt>
<trkpt lat="46.37136" lon="11.507773"><ele>1493.76</ele><time>2022-02-05T18:55:23Z</time></trkpt>
<trkpt lat="46.371039" lon="11.508077"><ele>1493.88</ele><time>2022-02-05T18:55:25Z</time></trkpt>
<trkpt lat="46.370795" lon="11.508487"><ele>1503.44</ele><time>2022-02-05T18:55:26Z</time></trkpt>
<trkpt lat="46.370562" lon="11.508965"><ele>1515.75</ele><time>2022-02-05T18:55:28Z</time></trkpt>
<trkpt lat="46.370339" lon="11.509379"><ele>1521.61</ele><time>2022-02-05T18:55:29Z</time></trkpt>
<trkpt lat="46.369708" lon="11.509995"><ele>1536.19</ele><time>2022-02-05T18:55:31Z</time></trkpt>
<trkpt lat="46.369554" lon="11.510229"><ele>1537.75</ele><time>2022-02-05T18:55:32Z</time></trkpt>
<trkpt lat="46.368275" lon="11.511855"><ele>1555.91</ele><time>2022-02-05T18:55:34Z</time></trkpt>
<trkpt lat="46.367762" lon="11.512669"><ele>1563.66</ele><time>2022-02-05T18:55:35Z</time></trkpt>
<trkpt lat="46.367487" lon="11.513247"><ele>1568.46</ele><time>2022-02-05T18:55:37Z</time></trkpt>
<trkpt lat="46.367375" lon="11.513668"><ele>1574.35</ele><time>2022-02-05T18:55:39Z</time></trkpt>
<trkpt lat="46.367311" lon="11.513988"><ele>1576.06</ele><time>2022-02-05T18:55:40Z</time></trkpt>
<trkpt lat="46.367298" lon="11.514546"><ele>1578.64</ele><time>2022-02-05T18:55:42Z</time></trkpt>
<trkpt lat="46.36728" lon="11.514677"><ele>1578.24</ele><time>2022-02-05T18:55:43Z</time></trkpt>
<trkpt lat="46.367251" lon="11.514761"><ele>1577.91</ele><time>2022-02-05T18:55:45Z</time></trkpt>
<trkpt lat="46.367178" lon="11.514872"><ele>1577.69</ele><time>2022-02-05T18:55:46Z</time></trkpt>
<trkpt lat="46.367118" lon="11.514926"><ele>1577.39</ele><time>2022-02-05T18:55:48Z</time></trkpt>
<trkpt lat="46.367022" lon="11.514966"><ele>1577.02</ele><time>2022-02-05T18:55:49Z</time></trkpt>
<trkpt lat="46.366901" lon="11.514951"><ele>1577.6</ele><time>2022-02-05T18:55:51Z</time></trkpt>
<trkpt lat="46.366816" lon="11.514894"><ele>1579.26</ele><time>2022-02-05T18:55:53Z</time></trkpt>
<trkpt lat="46.366753" lon="11.514778"><ele>1579.98</ele><time>2022-02-05T18:55:54Z</time></trkpt>
<trkpt lat="46.366706" lon="11.514603"><ele>1580.44</ele><time>2022-02-05T18:55:56Z</time></trkpt>
<trkpt lat="46.366637" lon="11.514071"><ele>1580.56</ele><time>2022-02-05T18:55:57Z</time></trkpt>
<trkpt lat="46.366553" lon="11.513559"><ele>1585.56</ele><time>2022-02-05T18:55:59Z</time></trkpt>
<trkpt lat="46.366513" lon="11.513404"><ele>1588.71</ele><time>2022-02-05T18:56:00Z</time></trkpt>
<trkpt lat="46.366414" lon="11.513192"><ele>1593.45</ele><time>2022-02-05T18:56:02Z</time></trkpt>
<trkpt lat="46.366349" lon="11.512937"><ele>1595.22</ele><time>2022-02-05T18:56:04Z</time></trkpt>
<trkpt lat="46.366259" lon="11.512261"><ele>1590.76</ele><time>2022-02-05T18:56:05Z</time></trkpt>
<trkpt lat="46.366273" lon="11.511885"><ele>1590.5</ele><time>2022-02-05T18:56:07Z</time></trkpt>
<trkpt lat="46.366376" lon="11.511212"><ele>1594.28</ele><time>2022-02-05T18:56:08Z</time></trkpt>
<trkpt lat="46.366373" lon="11.511092"><ele>1595.85</ele><time>2022-02-05T18:56:10Z</time></trkpt>
<trkpt lat="46.366303" lon="11.510684"><ele>1604.46</ele><time>2022-02-05T18:56:11Z</time></trkpt>
<trkpt lat="46.366297" lon="11.510531"><ele>1606.69</ele><time>2022-02-05T18:56:13Z</time></trkpt>
<trkpt lat="46.36631" lon="11.510373"><ele>1608.8</ele><time>2022-02-05T18:56:14Z</time></trkpt>
<trkpt lat="46.366562" lon="11.509579"><ele>1617.79</ele><time>2022-02-05T18:56:16Z</time></trkpt>
<trkpt lat="46.36664" lon="11.509378"><ele>1620.3</ele><time>2022-02-05T18:56:18Z</time></trkpt>
<trkpt lat="46.366743" lon="11.509195"><ele>1621.15</ele><time>2022-02-05T18:56:19Z</time></trkpt>
<trkpt lat="46.366845" lon="11.509075"><ele>1621.09</ele><time>2022-02-05T18:56:21Z</time></trkpt>
<trkpt lat="46.367114" lon="11.508836"><ele>1618.89</ele><time>2022-02-05T18:56:22Z</time></trkpt>
<trkpt lat="46.367217" lon="11.508716"><ele>1617.64</ele><time>2022-02-05T18:56:24Z</time></trkpt>
<trkpt lat="46.367262" lon="11.508643"><ele>1616.98</ele><time>2022-02-05T18:56:25Z</time></trkpt>
<trkpt lat="46.367297" lon="11.508539"><ele>1616.87</ele><time>2022-02-05T18:56:27Z</time></trkpt>
<trkpt lat="46.367319" lon="11.508375"><ele>1617.68</ele><time>2022-02-05T18:56:28Z</time></trkpt>
<trkpt lat="46.367325" lon="11.50822"><ele>1617.98</ele><time>2022-02-05T18:56:30Z</time></trkpt>
<trkpt lat="46.367297" lon="11.507835"><ele>1619.3</ele><time>2022-02-05T18:56:32Z</time></trkpt>
<trkpt lat="46.367101" lon="11.506395"><ele>1627.72</ele><time>2022-02-05T18:56:33Z</time></trkpt>
<trkpt lat="46.366912" lon="11.50564"><ele>1631.69</ele><time>2022-02-05T18:56:35Z</time></trkpt>
<trkpt lat="46.366787" lon="11.50543"><ele>1635.33</ele><time>2022-02-05T18:56:36Z</time></trkpt>
<trkpt lat="46.366693" lon="11.505325"><ele>1637.01</ele><time>2022-02-05T18:56:38Z</time></trkpt>
<trkpt lat="46.36664" lon="11.505159"><ele>1636.83</ele><time>2022-02-05T18:56:39Z</time></trkpt>
<trkpt lat="46.366638" lon="11.505059"><ele>1635.8</ele><time>2022-02-05T18:56:41Z</time></trkpt>
<trkpt lat="46.366656" lon="11.504957"><ele>1635.3</ele><time>2022-02-05T18:56:42Z</time></trkpt>
<trkpt lat="46.366725" lon="11.504834"><ele>1636.58</ele><time>2022-02-05T18:56:44Z</time></trkpt>
<trkpt lat="46.367091" lon="11.504488"><ele>1648.76</ele><time>2022-02-05T18:56:46Z</time></trkpt>
<trkpt lat="46.367223" lon="11.504468"><ele>1648.96</ele><time>2022-02-05T18:56:47Z</time></trkpt>
<trkpt lat="46.367975" lon="11.504506"><ele>1639.46</ele><time>2022-02-05T18:56:49Z</time></trkpt>
<trkpt lat="46.368089" lon="11.504438"><ele>1641.6</ele><time>2022-02-05T18:56:50Z</time></trkpt>
<trkpt lat="46.36824" lon="11.504203"><ele>1649.66</ele><time>2022-02-05T18:56:52Z</time></trkpt>
<trkpt lat="46.368596" lon="11.503402"><ele>1651.68</ele><time>2022-02-05T18:56:53Z</time></trkpt>
<trkpt lat="46.368838" lon="11.502954"><ele>1658.07</ele><time>2022-02-05T18:56:55Z</time></trkpt>
<trkpt lat="46.36899" lon="11.502553"><ele>1661.32</ele><time>2022-02-05T18:56:56Z</time></trkpt>
<trkpt lat="46.369033" lon="11.502325"><ele>1662.69</ele><time>2022-02-05T18:56:58Z</time></trkpt>
<trkpt lat="46.369033" lon="11.502083"><ele>1663.2</ele><time>2022-02-05T18:57:00Z</time></trkpt>
<trkpt lat="46.368991" lon="11.501862"><ele>1663.26</ele><time>2022-02-05T18:57:01Z</time></trkpt>
<trkpt lat="46.368934" lon="11.501682"><ele>1663.68</ele><time>2022-02-05T18:57:03Z</time></trkpt>
<trkpt lat="46.368874" lon="11.501558"><ele>1664.25</ele><time>2022-02-05T18:57:04Z</time></trkpt>
<trkpt lat="46.368626" lon="11.501318"><ele>1667.78</ele><time>2022-02-05T18:57:06Z</time></trkpt>
<trkpt lat="46.368534" lon="11.501191"><ele>1669.31</ele><time>2022-02-05T18:57:07Z</time></trkpt>
<trkpt lat="46.368407" lon="11.500911"><ele>1673.44</ele><time>2022-02-05T18:57:09Z</time></trkpt>
<trkpt lat="46.368389" lon="11.500789"><ele>1674.84</ele><time>2022-02-05T18:57:10Z</time></trkpt>
<trkpt lat="46.368411" lon="11.500242"><ele>1673.69</ele><time>2022-02-05T18:57:12Z</time></trkpt>
<trkpt lat="46.368383" lon="11.499627"><ele>1670.1</ele><time>2022-02-05T18:57:14Z</time></trkpt>
<trkpt lat="46.368347" lon="11.499348"><ele>1670.45</ele><time>2022-02-05T18:57:15Z</time></trkpt>
<trkpt lat="46.3683" lon="11.499211"><ele>1670.84</ele><time>2022-02-05T18:57:17Z</time></trkpt>
<trkpt lat="46.368184" lon="11.499086"><ele>1672.07</ele><time>2022-02-05T18:57:18Z</time></trkpt>
<trkpt lat="46.368043" lon="11.498992"><ele>1672.76</ele><time>2022-02-05T18:57:20Z</time></trkpt>
<trkpt lat="46.36786" lon="11.498924"><ele>1675.8</ele><time>2022-02-05T18:57:21Z</time></trkpt>
<trkpt lat="46.367698" lon="11.498899"><ele>1676.93</ele><time>2022-02-05T18:57:23Z</time></trkpt>
<trkpt lat="46.367391" lon="11.499004"><ele>1679.33</ele><time>2022-02-05T18:57:24Z</time></trkpt>
<trkpt lat="46.366828" lon="11.499262"><ele>1686.11</ele><time>2022-02-05T18:57:26Z</time></trkpt>
<trkpt lat="46.366665" lon="11.499284"><ele>1685.37</ele><time>2022-02-05T18:57:28Z</time></trkpt>
<trkpt lat="46.366326" lon="11.499274"><ele>1685.63</ele><time>2022-02-05T18:57:29Z</time></trkpt>
<trkpt lat="46.3662" lon="11.499292"><ele>1686.43</ele><time>2022-02-05T18:57:31Z</time></trkpt>
<trkpt lat="46.366007" lon="11.499404"><ele>1689.83</ele><time>2022-02-05T18:57:32Z</time></trkpt>
<trkpt lat="46.365857" lon="11.49953"><ele>1692.59</ele><time>2022-02-05T18:57:34Z</time></trkpt>
<trkpt lat="46.365702" lon="11.499698"><ele>1692.74</ele><time>2022-02-05T18:57:35Z</time></trkpt>
<trkpt lat="46.365444" lon="11.50005"><ele>1695.4</ele><time>2022-02-05T18:57:37Z</time></trkpt>
<trkpt lat="46.364939" lon="11.500662"><ele>1701.39</ele><time>2022-02-05T18:57:38Z</time></trkpt>
<trkpt lat="46.364703" lon="11.500757"><ele>1702.82</ele><time>2022-02-05T18:57:40Z</time></trkpt>
<trkpt lat="46.364342" lon="11.50087"><ele>1706.62</ele><time>2022-02-05T18:57:42Z</time></trkpt>
<trkpt lat="46.364276" lon="11.501007"><ele>1707.79</ele><time>2022-02-05T18:57:43Z</time></trkpt>
<trkpt lat="46.364303" lon="11.501446"><ele>1710.63</ele><time>2022-02-05T18:57:45Z</time></trkpt>
<trkpt lat="46.36429" lon="11.501661"><ele>1713.16</ele><time>2022-02-05T18:57:46Z</time></trkpt>
<trkpt lat="46.364159" lon="11.502213"><ele>1722.28</ele><time>2022-02-05T18:57:48Z</time></trkpt>
<trkpt lat="46.364129" lon="11.50246"><ele>1724.39</ele><time>2022-02-05T18:57:49Z</time></trkpt>
<trkpt lat="46.364142" lon="11.502635"><ele>1723.93</ele><time>2022-02-05T18:57:51Z</time></trkpt>
<trkpt lat="46.364192" lon="11.502887"><ele>1722.88</ele><time>2022-02-05T18:57:52Z</time></trkpt>
<trkpt lat="46.36434" lon="11.503394"><ele>1721.55</ele><time>2022-02-05T18:57:54Z</time></trkpt>
<trkpt lat="46.364359" lon="11.503619"><ele>1722.14</ele><time>2022-02-05T18:57:56Z</time></trkpt>
<trkpt lat="46.364344" lon="11.503737"><ele>1722.25</ele><time>2022-02-05T18:57:57Z</time></trkpt>
<trkpt lat="46.3643" lon="11.503865"><ele>1723.21</ele><time>2022-02-05T18:57:59Z</time></trkpt>
<trkpt lat="46.364153" lon="11.504043"><ele>1726.79</ele><time>2022-02-05T18:58:00Z</time></trkpt>
<trkpt lat="46.364062" lon="11.504255"><ele>1728.39</ele><time>2022-02-05T18:58:02Z</time></trkpt>
<trkpt lat="46.363989" lon="11.505254"><ele>1731.55</ele><time>2022-02-05T18:58:03Z</time></trkpt>
<trkpt lat="46.363948" lon="11.505354"><ele>1734.05</ele><time>2022-02-05T18:58:05Z</time></trkpt>
<trkpt lat="46.363892" lon="11.505381"><ele>1735.79</ele><time>2022-02-05T18:58:07Z</time></trkpt>
<trkpt lat="46.36384" lon="11.505354"><ele>1737.05</ele><time>2022-02-05T18:58:08Z</time></trkpt>
<trkpt lat="46.363783" lon="11.505285"><ele>1737.57</ele><time>2022-02-05T18:58:10Z</time></trkpt>
<trkpt lat="46.363583" lon="11.504531"><ele>1742.39</ele><time>2022-02-05T18:58:11Z</time></trkpt>
<trkpt lat="46.363466" lon="11.504257"><ele>1746.18</ele><time>2022-02-05T18:58:13Z</time></trkpt>
<trkpt lat="46.363421" lon="11.504186"><ele>1748.07</ele><time>2022-02-05T18:58:14Z</time></trkpt>
<trkpt lat="46.363421" lon="11.504186"><ele>1748.07</ele><time>2022-02-05T18:58:14Z</time></trkpt>
<trkpt lat="46.363081" lon="11.503658"><ele>1750.11</ele><time>2022-02-05T18:58:18Z</time></trkpt>
<trkpt lat="46.362657" lon="11.503109"><ele>1752.66</ele><time>2022-02-05T18:58:21Z</time></trkpt>
<trkpt lat="46.362602" lon="11.502997"><ele>1754.27</ele><time>2022-02-05T18:58:24Z</time></trkpt>
<trkpt lat="46.362589" lon="11.502879"><ele>1755.07</ele><time>2022-02-05T18:58:28Z</time></trkpt>
<trkpt lat="46.362598" lon="11.502678"><ele>1756.02</ele><time>2022-02-05T18:58:31Z</time></trkpt>
<trkpt lat="46.362652" lon="11.50227"><ele>1757.08</ele><time>2022-02-05T18:58:34Z</time></trkpt>
<trkpt lat="46.362665" lon="11.501975"><ele>1755.78</ele><time>2022-02-05T18:58:38Z</time></trkpt>
<trkpt lat="46.362647" lon="11.501776"><ele>1754.99</ele><time>2022-02-05T18:58:41Z</time></trkpt>
<trkpt lat="46.362612" lon="11.501696"><ele>1754.96</ele><time>2022-02-05T18:58:44Z</time></trkpt>
<trkpt lat="46.36256" lon="11.501629"><ele>1755.06</ele><time>2022-02-05T18:58:47Z</time></trkpt>
<trkpt lat="46.362494" lon="11.501585"><ele>1755.53</ele><time>2022-02-05T18:58:51Z</time></trkpt>
<trkpt lat="46.362143" lon="11.501464"><ele>1762.09</ele><time>2022-02-05T18:58:54Z</time></trkpt>
<trkpt lat="46.36173" lon="11.501374"><ele>1774.45</ele><time>2022-02-05T18:58:57Z</time></trkpt>
<trkpt lat="46.361624" lon="11.501315"><ele>1777.24</ele><time>2022-02-05T18:59:01Z</time></trkpt>
<trkpt lat="46.361252" lon="11.501009"><ele>1783.25</ele><time>2022-02-05T18:59:04Z</time></trkpt>
<trkpt lat="46.361112" lon="11.500866"><ele>1786.45</ele><time>2022-02-05T18:59:07Z</time></trkpt>
<trkpt lat="46.361011" lon="11.500639"><ele>1789.69</ele><time>2022-02-05T18:59:11Z</time></trkpt>
<trkpt lat="46.360994" lon="11.499418"><ele>1794.6</ele><time>2022-02-05T18:59:14Z</time></trkpt>
<trkpt lat="46.360976" lon="11.499199"><ele>1792.77</ele><time>2022-02-05T18:59:17Z</time></trkpt>
<trkpt lat="46.360921" lon="11.498985"><ele>1793.1</ele><time>2022-02-05T18:59:21Z</time></trkpt>
<trkpt lat="46.360834" lon="11.498761"><ele>1793.46</ele><time>2022-02-05T18:59:24Z</time></trkpt>
<trkpt lat="46.360073" lon="11.497132"><ele>1806.11</ele><time>2022-02-05T18:59:27Z</time></trkpt>
<trkpt lat="46.359997" lon="11.497039"><ele>1806.69</ele><time>2022-02-05T18:59:31Z</time></trkpt>
<trkpt lat="46.35985" lon="11.496973"><ele>1806.26</ele><time>2022-02-05T18:59:34Z</time></trkpt>
<trkpt lat="46.359749" lon="11.496952"><ele>1806.08</ele><time>2022-02-05T18:59:37Z</time></trkpt>
<trkpt lat="46.359292" lon="11.497053"><ele>1802.83</ele><time>2022-02-05T18:59:41Z</time></trkpt>
<trkpt lat="46.359147" lon="11.497107"><ele>1801.6</ele><time>2022-02-05T18:59:44Z</time></trkpt>
<trkpt lat="46.359082" lon="11.497156"><ele>1801.92</ele><time>2022-02-05T18:59:47Z</time></trkpt>
<trkpt lat="46.358909" lon="11.497348"><ele>1805.22</ele><time>2022-02-05T18:59:50Z</time></trkpt>
<trkpt lat="46.358674" lon="11.497675"><ele>1809.75</ele><time>2022-02-05T18:59:54Z</time></trkpt>
<trkpt lat="46.358589" lon="11.497748"><ele>1810.67</ele><time>2022-02-05T18:59:57Z</time></trkpt>
<trkpt lat="46.35851" lon="11.497786"><ele>1811.43</ele><time>2022-02-05T19:00:00Z</time></trkpt>
<trkpt lat="46.358398" lon="11.497798"><ele>1811.88</ele><time>2022-02-05T19:00:04Z</time></trkpt>
<trkpt lat="46.358316" lon="11.497769"><ele>1812.04</ele><time>2022-02-05T19:00:07Z</time></trkpt>
<trkpt lat="46.357901" lon="11.497284"><ele>1812.78</ele><time>2022-02-05T19:00:10Z</time></trkpt>
<trkpt lat="46.357779" lon="11.497094"><ele>1811.61</ele><time>2022-02-05T19:00:14Z</time></trkpt>
<trkpt lat="46.357617" lon="11.496711"><ele>1807.13</ele><time>2022-02-05T19:00:17Z</time></trkpt>
<trkpt lat="46.357484" lon="11.49629"><ele>1807.43</ele><time>2022-02-05T19:00:20Z</time></trkpt>
<trkpt lat="46.357373" lon="11.496077"><ele>1809.1</ele><time>2022-02-05T19:00:24Z</time></trkpt>
<trkpt lat="46.357033" lon="11.495585"><ele>1814.93</ele><time>2022-02-05T19:00:27Z</time></trkpt>
<trkpt lat="46.356805" lon="11.495345"><ele>1815.36</ele><time>2022-02-05T19:00:30Z</time></trkpt>
<trkpt lat="46.356584" lon="11.495013"><ele>1814.34</ele><time>2022-02-05T19:00:34Z</time></trkpt>
<trkpt lat="46.356322" lon="11.494511"><ele>1815.54</ele><time>2022-02-05T19:00:37Z</time></trkpt>
<trkpt lat="46.356204" lon="11.494349"><ele>1815.53</ele><time>2022-02-05T19:00:40Z</time></trkpt>
<trkpt lat="46.356152" lon="11.4943"><ele>1815.3</ele><time>2022-02-05T19:00:43Z</time></trkpt>
<trkpt lat="46.355999" lon="11.494256"><ele>1813.48</ele><time>2022-02-05T19:00:47Z</time></trkpt>
<trkpt lat="46.355044" lon="11.494331"><ele>1809.82</ele><time>2022-02-05T19:00:50Z</time></trkpt>
<trkpt lat="46.354952" lon="11.494291"><ele>1811.12</ele><time>2022-02-05T19:00:53Z</time></trkpt>
<trkpt lat="46.354868" lon="11.494196"><ele>1811.63</ele><time>2022-02-05T19:00:57Z</time></trkpt>
<trkpt lat="46.354815" lon="11.494076"><ele>1811.67</ele><time>2022-02-05T19:01:00Z</time></trkpt>
<trkpt lat="46.354787" lon="11.493955"><ele>1811.53</ele><time>2022-02-05T19:01:03Z</time></trkpt>
<trkpt lat="46.354829" lon="11.493096"><ele>1805.13</ele><time>2022-02-05T19:01:07Z</time></trkpt>
<trkpt lat="46.354799" lon="11.49296"><ele>1804.72</ele><time>2022-02-05T19:01:10Z</time></trkpt>
<trkpt lat="46.354752" lon="11.492845"><ele>1804.84</ele><time>2022-02-05T19:01:13Z</time></trkpt>
<trkpt lat="46.354669" lon="11.492736"><ele>1805.07</ele><time>2022-02-05T19:01:17Z</time></trkpt>
<trkpt lat="46.354556" lon="11.492681"><ele>1805.46</ele><time>2022-02-05T19:01:20Z</time></trkpt>
<trkpt lat="46.354452" lon="11.492682"><ele>1805.96</ele><time>2022-02-05T19:01:23Z</time></trkpt>
<trkpt lat="46.354164" lon="11.492891"><ele>1801.74</ele><time>2022-02-05T19:01:27Z</time></trkpt>
<trkpt lat="46.354055" lon="11.492871"><ele>1797.91</ele><time>2022-02-05T19:01:30Z</time></trkpt>
<trkpt lat="46.354003" lon="11.49282"><ele>1795.6</ele><time>2022-02-05T19:01:33Z</time></trkpt>
<trkpt lat="46.353965" lon="11.492722"><ele>1794.09</ele><time>2022-02-05T19:01:36Z</time></trkpt>
<trkpt lat="46.353902" lon="11.492306"><ele>1796.86</ele><time>2022-02-05T19:01:40Z</time></trkpt>
<trkpt lat="46.353882" lon="11.492029"><ele>1801.04</ele><time>2022-02-05T19:01:43Z</time></trkpt>
<trkpt lat="46.353858" lon="11.491917"><ele>1801.32</ele><time>2022-02-05T19:01:46Z</time></trkpt>
<trkpt lat="46.353786" lon="11.491754"><ele>1799.66</ele><time>2022-02-05T19:01:50Z</time></trkpt>
<trkpt lat="46.353519" lon="11.491397"><ele>1806.78</ele><time>2022-02-05T19:01:53Z</time></trkpt>
<trkpt lat="46.3534" lon="11.491284"><ele>1811.17</ele><time>2022-02-05T19:01:56Z</time></trkpt>
<trkpt lat="46.353096" lon="11.491112"><ele>1820.93</ele><time>2022-02-05T19:02:00Z</time></trkpt>
<trkpt lat="46.352719" lon="11.49099"><ele>1828.51</ele><time>2022-02-05T19:02:03Z</time></trkpt>
<trkpt lat="46.352594" lon="11.490985"><ele>1827.82</ele><time>2022-02-05T19:02:06Z</time></trkpt>
<trkpt lat="46.351281" lon="11.491349"><ele>1792.19</ele><time>2022-02-05T19:02:10Z</time></trkpt>
<trkpt lat="46.350965" lon="11.491492"><ele>1774.8</ele><time>2022-02-05T19:02:13Z</time></trkpt>
<trkpt lat="46.350436" lon="11.491497"><ele>1760.35</ele><time>2022-02-05T19:02:16Z</time></trkpt>
<trkpt lat="46.350045" lon="11.491568"><ele>1748.73</ele><time>2022-02-05T19:02:20Z</time></trkpt>
<trkpt lat="46.349876" lon="11.491535"><ele>1751.51</ele><time>2022-02-05T19:02:23Z</time></trkpt>
<trkpt lat="46.349721" lon="11.491462"><ele>1755.0</ele><time>2022-02-05T19:02:26Z</time></trkpt>
<trkpt lat="46.349537" lon="11.491308"><ele>1751.24</ele><time>2022-02-05T19:02:29Z</time></trkpt>
<trkpt lat="46.348858" lon="11.491014"><ele>1728.07</ele><time>2022-02-05T19:02:33Z</time></trkpt>
<trkpt lat="46.348077" lon="11.49054"><ele>1715.82</ele><time>2022-02-05T19:02:36Z</time></trkpt>
<trkpt lat="46.347499" lon="11.490271"><ele>1708.23</ele><time>2022-02-05T19:02:39Z</time></trkpt>
<trkpt lat="46.347382" lon="11.490091"><ele>1711.56</ele><time>2022-02-05T19:02:43Z</time></trkpt>
<trkpt lat="46.347301" lon="11.489899"><ele>1713.74</ele><time>2022-02-05T19:02:46Z</time></trkpt>
<trkpt lat="46.347179" lon="11.489454"><ele>1711.22</ele><time>2022-02-05T19:02:49Z</time></trkpt>
<trkpt lat="46.347174" lon="11.489364"><ele>1710.43</ele><time>2022-02-05T19:02:53Z</time></trkpt>
<trkpt lat="46.347263" lon="11.488893"><ele>1710.68</ele><time>2022-02-05T19:02:56Z</time></trkpt>
<trkpt lat="46.347276" lon="11.488641"><ele>1708.26</ele><time>2022-02-05T19:02:59Z</time></trkpt>
<trkpt lat="46.347255" lon="11.48853"><ele>1706.56</ele><time>2022-02-05T19:03:03Z</time></trkpt>
<trkpt lat="46.347214" lon="11.488456"><ele>1704.7</ele><time>2022-02-05T19:03:06Z</time></trkpt>
<trkpt lat="46.34708" lon="11.488293"><ele>1702.83</ele><time>2022-02-05T19:03:09Z</time></trkpt>
<trkpt lat="46.346914" lon="11.488152"><ele>1704.07</ele><time>2022-02-05T19:03:13Z</time></trkpt>
<trkpt lat="46.346365" lon="11.487902"><ele>1686.07</ele><time>2022-02-05T19:03:16Z</time></trkpt>
<trkpt lat="46.345914" lon="11.487728"><ele>1687.02</ele><time>2022-02-05T19:03:19Z</time></trkpt>
<trkpt lat="46.345709" lon="11.487699"><ele>1686.03</ele><time>2022-02-05T19:03:22Z</time></trkpt>
<trkpt lat="46.345355" lon="11.487742"><ele>1676.99</ele><time>2022-02-05T19:03:26Z</time></trkpt>
<trkpt lat="46.344946" lon="11.487767"><ele>1661.4</ele><time>2022-02-05T19:03:29Z</time></trkpt>
<trkpt lat="46.344743" lon="11.487759"><ele>1656.78</ele><time>2022-02-05T19:03:32Z</time></trkpt>
<trkpt lat="46.34465" lon="11.48772"><ele>1657.12</ele><time>2022-02-05T19:03:36Z</time></trkpt>
<trkpt lat="46.344133" lon="11.487395"><ele>1660.13</ele><time>2022-02-05T19:03:39Z</time></trkpt>
<trkpt lat="46.343428" lon="11.487149"><ele>1654.13</ele><time>2022-02-05T19:03:42Z</time></trkpt>
<trkpt lat="46.343171" lon="11.487029"><ele>1650.32</ele><time>2022-02-05T19:03:46Z</time></trkpt>
<trkpt lat="46.342354" lon="11.486494"><ele>1642.54</ele><time>2022-02-05T19:03:49Z</time></trkpt>
<trkpt lat="46.34192" lon="11.486343"><ele>1637.09</ele><time>2022-02-05T19:03:52Z</time></trkpt>
<trkpt lat="46.341646" lon="11.486071"><ele>1637.92</ele><time>2022-02-05T19:03:56Z</time></trkpt>
<trkpt lat="46.34155" lon="11.485999"><ele>1634.81</ele><time>2022-02-05T19:03:59Z</time></trkpt>
<trkpt lat="46.341441" lon="11.485973"><ele>1629.76</ele><time>2022-02-05T19:04:02Z</time></trkpt>
<trkpt lat="46.341372" lon="11.48593"><ele>1627.58</ele><time>2022-02-05T19:04:06Z</time></trkpt>
<trkpt lat="46.340788" lon="11.485236"><ele>1622.97</ele><time>2022-02-05T19:04:09Z</time></trkpt>
<trkpt lat="46.34066" lon="11.485114"><ele>1622.39</ele><time>2022-02-05T19:04:12Z</time></trkpt>
<trkpt lat="46.340395" lon="11.484948"><ele>1616.25</ele><time>2022-02-05T19:04:15Z</time></trkpt>
<trkpt lat="46.33949" lon="11.484496"><ele>1598.06</ele><time>2022-02-05T19:04:19Z</time></trkpt>
<trkpt lat="46.33925" lon="11.484517"><ele>1595.59</ele><time>2022-02-05T19:04:22Z</time></trkpt>
<trkpt lat="46.338005" lon="11.485231"><ele>1574.53</ele><time>2022-02-05T19:04:25Z</time></trkpt>
<trkpt lat="46.337613" lon="11.485396"><ele>1569.73</ele><time>2022-02-05T19:04:29Z</time></trkpt>
<trkpt lat="46.337495" lon="11.485388"><ele>1569.0</ele><time>2022-02-05T19:04:32Z</time></trkpt>
<trkpt lat="46.337352" lon="11.485315"><ele>1570.25</ele><time>2022-02-05T19:04:35Z</time></trkpt>
<trkpt lat="46.336091" lon="11.484312"><ele>1545.94</ele><time>2022-02-05T19:04:39Z</time></trkpt>
<trkpt lat="46.335396" lon="11.483789"><ele>1538.88</ele><time>2022-02-05T19:04:42Z</time></trkpt>
<trkpt lat="46.335041" lon="11.483636"><ele>1533.61</ele><time>2022-02-05T19:04:45Z</time></trkpt>
<trkpt lat="46.334608" lon="11.483503"><ele>1531.01</ele><time>2022-02-05T19:04:49Z</time></trkpt>
<trkpt lat="46.33443" lon="11.483494"><ele>1530.94</ele><time>2022-02-05T19:04:52Z</time></trkpt>
<trkpt lat="46.333106" lon="11.483927"><ele>1514.1</ele><time>2022-02-05T19:04:55Z</time></trkpt>
<trkpt lat="46.332904" lon="11.483981"><ele>1512.27</ele><time>2022-02-05T19:04:59Z</time></trkpt>
<trkpt lat="46.332523" lon="11.484026"><ele>1508.78</ele><time>2022-02-05T19:05:02Z</time></trkpt>
<trkpt lat="46.33235" lon="11.484022"><ele>1507.66</ele><time>2022-02-05T19:05:05Z</time></trkpt>
<trkpt lat="46.3315" lon="11.483912"><ele>1502.63</ele><time>2022-02-05T19:05:08Z</time></trkpt>
<trkpt lat="46.33113" lon="11.483762"><ele>1497.22</ele><time>2022-02-05T19:05:12Z</time></trkpt>
<trkpt lat="46.330748" lon="11.483558"><ele>1493.31</ele><time>2022-02-05T19:05:15Z</time></trkpt>
<trkpt lat="46.330534" lon="11.483595"><ele>1493.25</ele><time>2022-02-05T19:05:18Z</time></trkpt>
<trkpt lat="46.330293" lon="11.483711"><ele>1493.64</ele><time>2022-02-05T19:05:22Z</time></trkpt>
<trkpt lat="46.330183" lon="11.483731"><ele>1492.74</ele><time>2022-02-05T19:05:25Z</time></trkpt>
<trkpt lat="46.330033" lon="11.483726"><ele>1491.46</ele><time>2022-02-05T19:05:28Z</time></trkpt>
<trkpt lat="46.329735" lon="11.483638"><ele>1489.9</ele><time>2022-02-05T19:05:32Z</time></trkpt>
<trkpt lat="46.329446" lon="11.483627"><ele>1488.77</ele><time>2022-02-05T19:05:35Z</time></trkpt>
<trkpt lat="46.328822" lon="11.483789"><ele>1479.29</ele><time>2022-02-05T19:05:38Z</time></trkpt>
<trkpt lat="46.328456" lon="11.483823"><ele>1475.28</ele><time>2022-02-05T19:05:42Z</time></trkpt>
<trkpt lat="46.328057" lon="11.483648"><ele>1474.35</ele><time>2022-02-05T19:05:45Z</time></trkpt>
<trkpt lat="46.327343" lon="11.483769"><ele>1463.99</ele><time>2022-02-05T19:05:48Z</time></trkpt>
<trkpt lat="46.326374" lon="11.483832"><ele>1450.26</ele><time>2022-02-05T19:05:52Z</time></trkpt>
<trkpt lat="46.326268" lon="11.483842"><ele>1451.8</ele><time>2022-02-05T19:05:55Z</time></trkpt>
<trkpt lat="46.325488" lon="11.484241"><ele>1454.72</ele><time>2022-02-05T19:05:58Z</time></trkpt>
<trkpt lat="46.324151" lon="11.484257"><ele>1447.69</ele><time>2022-02-05T19:06:01Z</time></trkpt>
<trkpt lat="46.323735" lon="11.484408"><ele>1435.78</ele><time>2022-02-05T19:06:05Z</time></trkpt>
<trkpt lat="46.322802" lon="11.484238"><ele>1438.39</ele><time>2022-02-05T19:06:08Z</time></trkpt>
<trkpt lat="46.322582" lon="11.484262"><ele>1434.82</ele><time>2022-02-05T19:06:11Z</time></trkpt>
<trkpt lat="46.322362" lon="11.48435"><ele>1432.84</ele><time>2022-02-05T19:06:15Z</time></trkpt>
<trkpt lat="46.322188" lon="11.484331"><ele>1432.36</ele><time>2022-02-05T19:06:18Z</time></trkpt>
<trkpt lat="46.320973" lon="11.483772"><ele>1420.87</ele><time>2022-02-05T19:06:21Z</time></trkpt>
<trkpt lat="46.320312" lon="11.483143"><ele>1411.21</ele><time>2022-02-05T19:06:25Z</time></trkpt>
<trkpt lat="46.319684" lon="11.482231"><ele>1412.51</ele><time>2022-02-05T19:06:28Z</time></trkpt>
<trkpt lat="46.318989" lon="11.481097"><ele>1405.55</ele><time>2022-02-05T19:06:31Z</time></trkpt>
<trkpt lat="46.318332" lon="11.480214"><ele>1405.21</ele><time>2022-02-05T19:06:35Z</time></trkpt>
<trkpt lat="46.317644" lon="11.479548"><ele>1403.25</ele><time>2022-02-05T19:06:38Z</time></trkpt>
<trkpt lat="46.317198" lon="11.479019"><ele>1397.6</ele><time>2022-02-05T19:06:41Z</time></trkpt>
<trkpt lat="46.316365" lon="11.477236"><ele>1383.3</ele><time>2022-02-05T19:06:45Z</time></trkpt>
<trkpt lat="46.31515" lon="11.474673"><ele>1377.41</ele><time>2022-02-05T19:06:48Z</time></trkpt>
<trkpt lat="46.314946" lon="11.473842"><ele>1381.4</ele><time>2022-02-05T19:06:51Z</time></trkpt>
<trkpt lat="46.314719" lon="11.472542"><ele>1376.44</ele><time>2022-02-05T19:06:55Z</time></trkpt>
<trkpt lat="46.314689" lon="11.472278"><ele>1374.28</ele><time>2022-02-05T19:06:58Z</time></trkpt>
<trkpt lat="46.314619" lon="11.471929"><ele>1374.0</ele><time>2022-02-05T19:07:01Z</time></trkpt>
<trkpt lat="46.314553" lon="11.471748"><ele>1374.0</ele><time>2022-02-05T19:07:04Z</time></trkpt>
<trkpt lat="46.314457" lon="11.471653"><ele>1374.0</ele><time>2022-02-05T19:07:08Z</time></trkpt>
<trkpt lat="46.313454" lon="11.47098"><ele>1371.84</ele><time>2022-02-05T19:07:11Z</time></trkpt>
<trkpt lat="46.313284" lon="11.470994"><ele>1370.56</ele><time>2022-02-05T19:07:14Z</time></trkpt>
<trkpt lat="46.312901" lon="11.471234"><ele>1362.81</ele><time>2022-02-05T19:07:18Z</time></trkpt>
<trkpt lat="46.312802" lon="11.471231"><ele>1361.23</ele><time>2022-02-05T19:07:21Z</time></trkpt>
<trkpt lat="46.312725" lon="11.47116"><ele>1361.5</ele><time>2022-02-05T19:07:24Z</time></trkpt>
<trkpt lat="46.312688" lon="11.471023"><ele>1362.03</ele><time>2022-02-05T19:07:28Z</time></trkpt>
<trkpt lat="46.312667" lon="11.470825"><ele>1362.16</ele><time>2022-02-05T19:07:31Z</time></trkpt>
<trkpt lat="46.312636" lon="11.470713"><ele>1360.78</ele><time>2022-02-05T19:07:34Z</time></trkpt>
<trkpt lat="46.312526" lon="11.470492"><ele>1356.3</ele><time>2022-02-05T19:07:38Z</time></trkpt>
<trkpt lat="46.312484" lon="11.470366"><ele>1354.26</ele><time>2022-02-05T19:07:41Z</time></trkpt>
<trkpt lat="46.3125" lon="11.469825"><ele>1351.75</ele><time>2022-02-05T19:07:44Z</time></trkpt>
<trkpt lat="46.312453" lon="11.469675"><ele>1349.6</ele><time>2022-02-05T19:07:48Z</time></trkpt>
<trkpt lat="46.312285" lon="11.46945"><ele>1343.64</ele><time>2022-02-05T19:07:51Z</time></trkpt>
<trkpt lat="46.31226" lon="11.468841"><ele>1337.98</ele><time>2022-02-05T19:07:54Z</time></trkpt>
<trkpt lat="46.312163" lon="11.468362"><ele>1335.26</ele><time>2022-02-05T19:07:57Z</time></trkpt>
<trkpt lat="46.312296" lon="11.467303"><ele>1337.07</ele><time>2022-02-05T19:08:01Z</time></trkpt>
<trkpt lat="46.31225" lon="11.467113"><ele>1335.79</ele><time>2022-02-05T19:08:04Z</time></trkpt>
<trkpt lat="46.31196" lon="11.466882"><ele>1330.81</ele><time>2022-02-05T19:08:07Z</time></trkpt>
<trkpt lat="46.311856" lon="11.466705"><ele>1328.64</ele><time>2022-02-05T19:08:11Z</time></trkpt>
<trkpt lat="46.311817" lon="11.466466"><ele>1327.4</ele><time>2022-02-05T19:08:14Z</time></trkpt>
<trkpt lat="46.311917" lon="11.465161"><ele>1318.03</ele><time>2022-02-05T19:08:17Z</time></trkpt>
<trkpt lat="46.311837" lon="11.464257"><ele>1305.48</ele><time>2022-02-05T19:08:21Z</time></trkpt>
<trkpt lat="46.311907" lon="11.464075"><ele>1306.19</ele><time>2022-02-05T19:08:24Z</time></trkpt>
<trkpt lat="46.312251" lon="11.463516"><ele>1304.77</ele><time>2022-02-05T19:08:27Z</time></trkpt>
<trkpt lat="46.312336" lon="11.46329"><ele>1305.01</ele><time>2022-02-05T19:08:31Z</time></trkpt>
<trkpt lat="46.312334" lon="11.463097"><ele>1304.85</ele><time>2022-02-05T19:08:34Z</time></trkpt>
<trkpt lat="46.312272" lon="11.462944"><ele>1304.07</ele><time>2022-02-05T19:08:37Z</time></trkpt>
<trkpt lat="46.312081" lon="11.462723"><ele>1300.74</ele><time>2022-02-05T19:08:41Z</time></trkpt>
<trkpt lat="46.311955" lon="11.462611"><ele>1297.9</ele><time>2022-02-05T19:08:44Z</time></trkpt>
<trkpt lat="46.311442" lon="11.462438"><ele>1290.63</ele><time>2022-02-05T19:08:47Z</time></trkpt>
<trkpt lat="46.31122" lon="11.462403"><ele>1286.61</ele><time>2022-02-05T19:08:50Z</time></trkpt>
<trkpt lat="46.310887" lon="11.462479"><ele>1281.57</ele><time>2022-02-05T19:08:54Z</time></trkpt>
<trkpt lat="46.310783" lon="11.462479"><ele>1280.76</ele><time>2022-02-05T19:08:57Z</time></trkpt>
<trkpt lat="46.310685" lon="11.462404"><ele>1280.26</ele><time>2022-02-05T19:09:00Z</time></trkpt>
<trkpt lat="46.31053" lon="11.462226"><ele>1278.45</ele><time>2022-02-05T19:09:04Z</time></trkpt>
<trkpt lat="46.310276" lon="11.46177"><ele>1268.09</ele><time>2022-02-05T19:09:07Z</time></trkpt>
<trkpt lat="46.309506" lon="11.461713"><ele>1257.84</ele><time>2022-02-05T19:09:10Z</time></trkpt>
<trkpt lat="46.309299" lon="11.461759"><ele>1254.49</ele><time>2022-02-05T19:09:14Z</time></trkpt>
<trkpt lat="46.309084" lon="11.461691"><ele>1248.83</ele><time>2022-02-05T19:09:17Z</time></trkpt>
<trkpt lat="46.308861" lon="11.461453"><ele>1243.97</ele><time>2022-02-05T19:09:20Z</time></trkpt>
<trkpt lat="46.308666" lon="11.461414"><ele>1241.82</ele><time>2022-02-05T19:09:24Z</time></trkpt>
<trkpt lat="46.308408" lon="11.461641"><ele>1240.87</ele><time>2022-02-05T19:09:27Z</time></trkpt>
<trkpt lat="46.307939" lon="11.460996"><ele>1233.13</ele><time>2022-02-05T19:09:30Z</time></trkpt>
<trkpt lat="46.307818" lon="11.46079"><ele>1231.1</ele><time>2022-02-05T19:09:34Z</time></trkpt>
<trkpt lat="46.307793" lon="11.460711"><ele>1230.76</ele><time>2022-02-05T19:09:37Z</time></trkpt>
<trkpt lat="46.307695" lon="11.460124"><ele>1227.81</ele><time>2022-02-05T19:09:40Z</time></trkpt>
<trkpt lat="46.307577" lon="11.459898"><ele>1226.47</ele><time>2022-02-05T19:09:43Z</time></trkpt>
<trkpt lat="46.307265" lon="11.459522"><ele>1221.15</ele><time>2022-02-05T19:09:47Z</time></trkpt>
<trkpt lat="46.307148" lon="11.459318"><ele>1217.15</ele><time>2022-02-05T19:09:50Z</time></trkpt>
<trkpt lat="46.306498" lon="11.458608"><ele>1206.54</ele><time>2022-02-05T19:09:53Z</time></trkpt>
<trkpt lat="46.306233" lon="11.458446"><ele>1203.58</ele><time>2022-02-05T19:09:57Z</time></trkpt>
<trkpt lat="46.305979" lon="11.4584"><ele>1201.13</ele><time>2022-02-05T19:10:00Z</time></trkpt>
<trkpt lat="46.305979" lon="11.4584"><ele>1201.13</ele><time>2022-02-05T19:10:00Z</time></trkpt>
<trkpt lat="46.305828" lon="11.45837"><ele>1198.8</ele><time>2022-02-05T19:10:06Z</time></trkpt>
<trkpt lat="46.305544" lon="11.458205"><ele>1194.92</ele><time>2022-02-05T19:10:12Z</time></trkpt>
<trkpt lat="46.305321" lon="11.45796"><ele>1193.31</ele><time>2022-02-05T19:10:19Z</time></trkpt>
<trkpt lat="46.305242" lon="11.457722"><ele>1192.45</ele><time>2022-02-05T19:10:25Z</time></trkpt>
<trkpt lat="46.305109" lon="11.456904"><ele>1193.03</ele><time>2022-02-05T19:10:31Z</time></trkpt>
<trkpt lat="46.305055" lon="11.456783"><ele>1192.55</ele><time>2022-02-05T19:10:37Z</time></trkpt>
<trkpt lat="46.304981" lon="11.456717"><ele>1191.21</ele><time>2022-02-05T19:10:43Z</time></trkpt>
<trkpt lat="46.304865" lon="11.456656"><ele>1189.17</ele><time>2022-02-05T19:10:49Z</time></trkpt>
<trkpt lat="46.304724" lon="11.456652"><ele>1186.21</ele><time>2022-02-05T19:10:55Z</time></trkpt>
<trkpt lat="46.304486" lon="11.456605"><ele>1183.08</ele><time>2022-02-05T19:11:01Z</time></trkpt>
<trkpt lat="46.304078" lon="11.456439"><ele>1177.1</ele><time>2022-02-05T19:11:07Z</time></trkpt>
<trkpt lat="46.303631" lon="11.456233"><ele>1176.61</ele><time>2022-02-05T19:11:14Z</time></trkpt>
<trkpt lat="46.303254" lon="11.455932"><ele>1172.38</ele><time>2022-02-05T19:11:20Z</time></trkpt>
<trkpt lat="46.303095" lon="11.455862"><ele>1169.01</ele><time>2022-02-05T19:11:26Z</time></trkpt>
<trkpt lat="46.302726" lon="11.45581"><ele>1163.39</ele><time>2022-02-05T19:11:32Z</time></trkpt>
<trkpt lat="46.302664" lon="11.455722"><ele>1162.14</ele><time>2022-02-05T19:11:36Z</time></trkpt>
<trkpt lat="46.302669" lon="11.455577"><ele>1160.81</ele><time>2022-02-05T19:11:40Z</time></trkpt>
<trkpt lat="46.302716" lon="11.455497"><ele>1160.2</ele><time>2022-02-05T19:11:45Z</time></trkpt>
<trkpt lat="46.30302" lon="11.455296"><ele>1161.63</ele><time>2022-02-05T19:11:49Z</time></trkpt>
<trkpt lat="46.303123" lon="11.455138"><ele>1163.07</ele><time>2022-02-05T19:11:53Z</time></trkpt>
<trkpt lat="46.303189" lon="11.454958"><ele>1163.72</ele><time>2022-02-05T19:11:57Z</time></trkpt>
<trkpt lat="46.303205" lon="11.454757"><ele>1163.42</ele><time>2022-02-05T19:12:01Z</time></trkpt>
<trkpt lat="46.303164" lon="11.454493"><ele>1161.61</ele><time>2022-02-05T19:12:06Z</time></trkpt>
<trkpt lat="46.303129" lon="11.454403"><ele>1161.19</ele><time>2022-02-05T19:12:10Z</time></trkpt>
<trkpt lat="46.302597" lon="11.453712"><ele>1166.33</ele><time>2022-02-05T19:12:14Z</time></trkpt>
<trkpt lat="46.302225" lon="11.453279"><ele>1169.44</ele><time>2022-02-05T19:12:18Z</time></trkpt>
<trkpt lat="46.302042" lon="11.453188"><ele>1171.93</ele><time>2022-02-05T19:12:23Z</time></trkpt>
<trkpt lat="46.301592" lon="11.453148"><ele>1167.47</ele><time>2022-02-05T19:12:27Z</time></trkpt>
<trkpt lat="46.301472" lon="11.453039"><ele>1168.06</ele><time>2022-02-05T19:12:31Z</time></trkpt>
<trkpt lat="46.301368" lon="11.452862"><ele>1168.05</ele><time>2022-02-05T19:12:35Z</time></trkpt>
<trkpt lat="46.301308" lon="11.45242"><ele>1170.45</ele><time>2022-02-05T19:12:39Z</time></trkpt>
<trkpt lat="46.301017" lon="11.449105"><ele>1180.97</ele><time>2022-02-05T19:12:43Z</time></trkpt>
<trkpt lat="46.300956" lon="11.448661"><ele>1184.2</ele><time>2022-02-05T19:12:47Z</time></trkpt>
<trkpt lat="46.300904" lon="11.44782"><ele>1189.21</ele><time>2022-02-05T19:12:51Z</time></trkpt>
<trkpt lat="46.300819" lon="11.447008"><ele>1193.06</ele><time>2022-02-05T19:12:55Z</time></trkpt>
<trkpt lat="46.30074" lon="11.446444"><ele>1195.12</ele><time>2022-02-05T19:12:59Z</time></trkpt>
<trkpt lat="46.300598" lon="11.446072"><ele>1193.91</ele><time>2022-02-05T19:13:01Z</time></trkpt>
<trkpt lat="46.300418" lon="11.445912"><ele>1189.91</ele><time>2022-02-05T19:13:04Z</time></trkpt>
<trkpt lat="46.300331" lon="11.44559"><ele>1185.61</ele><time>2022-02-05T19:13:06Z</time></trkpt>
<trkpt lat="46.300265" lon="11.445183"><ele>1183.57</ele><time>2022-02-05T19:13:08Z</time></trkpt>
<trkpt lat="46.3002" lon="11.445092"><ele>1183.59</ele><time>2022-02-05T19:13:10Z</time></trkpt>
<trkpt lat="46.300097" lon="11.445056"><ele>1182.78</ele><time>2022-02-05T19:13:13Z</time></trkpt>
<trkpt lat="46.2996" lon="11.4453"><ele>1176.97</ele><time>2022-02-05T19:13:15Z</time></trkpt>
<trkpt lat="46.299451" lon="11.445303"><ele>1175.78</ele><time>2022-02-05T19:13:17Z</time></trkpt>
<trkpt lat="46.299272" lon="11.445201"><ele>1175.07</ele><time>2022-02-05T19:13:19Z</time></trkpt>
<trkpt lat="46.298839" lon="11.444603"><ele>1172.3</ele><time>2022-02-05T19:13:21Z</time></trkpt>
<trkpt lat="46.298635" lon="11.444418"><ele>1172.36</ele><time>2022-02-05T19:13:23Z</time></trkpt>
<trkpt lat="46.297854" lon="11.444043"><ele>1161.65</ele><time>2022-02-05T19:13:26Z</time></trkpt>
<trkpt lat="46.297654" lon="11.443904"><ele>1160.14</ele><time>2022-02-05T19:13:28Z</time></trkpt>
<trkpt lat="46.297477" lon="11.443668"><ele>1158.46</ele><time>2022-02-05T19:13:30Z</time></trkpt>
<trkpt lat="46.29698" lon="11.4426"><ele>1156.56</ele><time>2022-02-05T19:13:32Z</time></trkpt>
<trkpt lat="46.296585" lon="11.442195"><ele>1149.92</ele><time>2022-02-05T19:13:34Z</time></trkpt>
<trkpt lat="46.296291" lon="11.441995"><ele>1147.67</ele><time>2022-02-05T19:13:37Z</time></trkpt>
<trkpt lat="46.296044" lon="11.44196"><ele>1143.45</ele><time>2022-02-05T19:13:39Z</time></trkpt>
<trkpt lat="46.295621" lon="11.442044"><ele>1134.34</ele><time>2022-02-05T19:13:41Z</time></trkpt>
<trkpt lat="46.295436" lon="11.441991"><ele>1134.73</ele><time>2022-02-05T19:13:43Z</time></trkpt>
<trkpt lat="46.295291" lon="11.441866"><ele>1135.64</ele><time>2022-02-05T19:13:45Z</time></trkpt>
<trkpt lat="46.294571" lon="11.44037"><ele>1125.19</ele><time>2022-02-05T19:13:47Z</time></trkpt>
<trkpt lat="46.294325" lon="11.439062"><ele>1121.87</ele><time>2022-02-05T19:13:50Z</time></trkpt>
<trkpt lat="46.294188" lon="11.438892"><ele>1119.6</ele><time>2022-02-05T19:13:52Z</time></trkpt>
<trkpt lat="46.294158" lon="11.438878"><ele>1118.84</ele><time>2022-02-05T19:13:54Z</time></trkpt>
<trkpt lat="46.293576" lon="11.438486"><ele>1112.76</ele><time>2022-02-05T19:13:56Z</time></trkpt>
<trkpt lat="46.293402" lon="11.438211"><ele>1112.48</ele><time>2022-02-05T19:13:58Z</time></trkpt>
<trkpt lat="46.293266" lon="11.43778"><ele>1112.05</ele><time>2022-02-05T19:14:00Z</time></trkpt>
<trkpt lat="46.29317" lon="11.437616"><ele>1110.81</ele><time>2022-02-05T19:14:03Z</time></trkpt>
<trkpt lat="46.292857" lon="11.437358"><ele>1106.6</ele><time>2022-02-05T19:14:05Z</time></trkpt>
<trkpt lat="46.292468" lon="11.437212"><ele>1104.35</ele><time>2022-02-05T19:14:07Z</time></trkpt>
<trkpt lat="46.292355" lon="11.437262"><ele>1104.47</ele><time>2022-02-05T19:14:09Z</time></trkpt>
<trkpt lat="46.292288" lon="11.43746"><ele>1101.66</ele><time>2022-02-05T19:14:11Z</time></trkpt>
<trkpt lat="46.292313" lon="11.437936"><ele>1100.19</ele><time>2022-02-05T19:14:13Z</time></trkpt>
<trkpt lat="46.292098" lon="11.438437"><ele>1098.23</ele><time>2022-02-05T19:14:16Z</time></trkpt>
<trkpt lat="46.291964" lon="11.438596"><ele>1096.16</ele><time>2022-02-05T19:14:18Z</time></trkpt>
<trkpt lat="46.291848" lon="11.438578"><ele>1096.36</ele><time>2022-02-05T19:14:20Z</time></trkpt>
<trkpt lat="46.291398" lon="11.438859"><ele>1091.42</ele><time>2022-02-05T19:14:22Z</time></trkpt>
<trkpt lat="46.291036" lon="11.438947"><ele>1087.29</ele><time>2022-02-05T19:14:24Z</time></trkpt>
<trkpt lat="46.290936" lon="11.438864"><ele>1086.71</ele><time>2022-02-05T19:14:26Z</time></trkpt>
<trkpt lat="46.29021" lon="11.438605"><ele>1077.14</ele><time>2022-02-05T19:14:29Z</time></trkpt>
<trkpt lat="46.288859" lon="11.438246"><ele>1069.33</ele><time>2022-02-05T19:14:31Z</time></trkpt>
<trkpt lat="46.288575" lon="11.438124"><ele>1072.04</ele><time>2022-02-05T19:14:33Z</time></trkpt>
<trkpt lat="46.288359" lon="11.437874"><ele>1072.45</ele><time>2022-02-05T19:14:35Z</time></trkpt>
<trkpt lat="46.288209" lon="11.43764"><ele>1069.8</ele><time>2022-02-05T19:14:37Z</time></trkpt>
<trkpt lat="46.287905" lon="11.437069"><ele>1065.98</ele><time>2022-02-05T19:14:39Z</time></trkpt>
<trkpt lat="46.287749" lon="11.436557"><ele>1065.43</ele><time>2022-02-05T19:14:42Z</time></trkpt>
<trkpt lat="46.287665" lon="11.43619"><ele>1066.3</ele><time>2022-02-05T19:14:44Z</time></trkpt>
<trkpt lat="46.287616" lon="11.436086"><ele>1066.24</ele><time>2022-02-05T19:14:46Z</time></trkpt>
<trkpt lat="46.287237" lon="11.435546"><ele>1066.39</ele><time>2022-02-05T19:14:48Z</time></trkpt>
<trkpt lat="46.287089" lon="11.435303"><ele>1063.11</ele><time>2022-02-05T19:14:50Z</time></trkpt>
<trkpt lat="46.287086" lon="11.435059"><ele>1063.46</ele><time>2022-02-05T19:14:53Z</time></trkpt>
<trkpt lat="46.287121" lon="11.434874"><ele>1064.28</ele><time>2022-02-05T19:14:55Z</time></trkpt>
<trkpt lat="46.287126" lon="11.434462"><ele>1065.76</ele><time>2022-02-05T19:14:57Z</time></trkpt>
<trkpt lat="46.287018" lon="11.434159"><ele>1069.03</ele><time>2022-02-05T19:14:59Z</time></trkpt>
<trkpt lat="46.286821" lon="11.433933"><ele>1068.5</ele><time>2022-02-05T19:15:01Z</time></trkpt>
<trkpt lat="46.2866" lon="11.433744"><ele>1065.63</ele><time>2022-02-05T19:15:03Z</time></trkpt>
<trkpt lat="46.28649" lon="11.433513"><ele>1065.25</ele><time>2022-02-05T19:15:06Z</time></trkpt>
<trkpt lat="46.286454" lon="11.433002"><ele>1066.03</ele><time>2022-02-05T19:15:08Z</time></trkpt>
<trkpt lat="46.286407" lon="11.432816"><ele>1066.18</ele><time>2022-02-05T19:15:10Z</time></trkpt>
<trkpt lat="46.286316" lon="11.432689"><ele>1064.95</ele><time>2022-02-05T19:15:12Z</time></trkpt>
<trkpt lat="46.285994" lon="11.432526"><ele>1059.56</ele><time>2022-02-05T19:15:14Z</time></trkpt>
<trkpt lat="46.285862" lon="11.432356"><ele>1059.11</ele><time>2022-02-05T19:15:16Z</time></trkpt>
<trkpt lat="46.285506" lon="11.431592"><ele>1057.48</ele><time>2022-02-05T19:15:19Z</time></trkpt>
<trkpt lat="46.285371" lon="11.431167"><ele>1053.3</ele><time>2022-02-05T19:15:21Z</time></trkpt>
<trkpt lat="46.28525" lon="11.429355"><ele>1058.88</ele><time>2022-02-05T19:15:23Z</time></trkpt>
<trkpt lat="46.285156" lon="11.428688"><ele>1060.01</ele><time>2022-02-05T19:15:25Z</time></trkpt>
<trkpt lat="46.285041" lon="11.427987"><ele>1052.98</ele><time>2022-02-05T19:15:27Z</time></trkpt>
<trkpt lat="46.284971" lon="11.427688"><ele>1051.15</ele><time>2022-02-05T19:15:29Z</time></trkpt>
<trkpt lat="46.284935" lon="11.427392"><ele>1050.09</ele><time>2022-02-05T19:15:32Z</time></trkpt>
<trkpt lat="46.284797" lon="11.427022"><ele>1042.27</ele><time>2022-02-05T19:15:34Z</time></trkpt>
<trkpt lat="46.284784" lon="11.426881"><ele>1040.95</ele><time>2022-02-05T19:15:36Z</time></trkpt>
<trkpt lat="46.284814" lon="11.42663"><ele>1041.21</ele><time>2022-02-05T19:15:38Z</time></trkpt>
<trkpt lat="46.284857" lon="11.426503"><ele>1041.28</ele><time>2022-02-05T19:15:40Z</time></trkpt>
<trkpt lat="46.285004" lon="11.42624"><ele>1042.4</ele><time>2022-02-05T19:15:42Z</time></trkpt>
<trkpt lat="46.285222" lon="11.425947"><ele>1042.53</ele><time>2022-02-05T19:15:45Z</time></trkpt>
<trkpt lat="46.285418" lon="11.425443"><ele>1034.08</ele><time>2022-02-05T19:15:47Z</time></trkpt>
<trkpt lat="46.285504" lon="11.425269"><ele>1029.47</ele><time>2022-02-05T19:15:49Z</time></trkpt>
<trkpt lat="46.285866" lon="11.424753"><ele>1031.62</ele><time>2022-02-05T19:15:51Z</time></trkpt>
<trkpt lat="46.286212" lon="11.424544"><ele>1037.21</ele><time>2022-02-05T19:15:53Z</time></trkpt>
<trkpt lat="46.286571" lon="11.424374"><ele>1040.11</ele><time>2022-02-05T19:15:56Z</time></trkpt>
<trkpt lat="46.286756" lon="11.424203"><ele>1039.8</ele><time>2022-02-05T19:15:58Z</time></trkpt>
<trkpt lat="46.287463" lon="11.423064"><ele>1029.5</ele><time>2022-02-05T19:16:00Z</time></trkpt>
<trkpt lat="46.28753" lon="11.42291"><ele>1029.07</ele><time>2022-02-05T19:16:02Z</time></trkpt>
<trkpt lat="46.287552" lon="11.422728"><ele>1027.59</ele><time>2022-02-05T19:16:04Z</time></trkpt>
<trkpt lat="46.287536" lon="11.422147"><ele>1021.77</ele><time>2022-02-05T19:16:06Z</time></trkpt>
<trkpt lat="46.287547" lon="11.422034"><ele>1020.54</ele><time>2022-02-05T19:16:09Z</time></trkpt>
<trkpt lat="46.287598" lon="11.421879"><ele>1019.65</ele><time>2022-02-05T19:16:11Z</time></trkpt>
<trkpt lat="46.287759" lon="11.421566"><ele>1018.06</ele><time>2022-02-05T19:16:13Z</time></trkpt>
<trkpt lat="46.287815" lon="11.421395"><ele>1015.22</ele><time>2022-02-05T19:16:15Z</time></trkpt>
<trkpt lat="46.287852" lon="11.421216"><ele>1014.57</ele><time>2022-02-05T19:16:17Z</time></trkpt>
<trkpt lat="46.287866" lon="11.420823"><ele>1013.26</ele><time>2022-02-05T19:16:19Z</time></trkpt>
<trkpt lat="46.287891" lon="11.420685"><ele>1013.41</ele><time>2022-02-05T19:16:22Z</time></trkpt>
<trkpt lat="46.28794" lon="11.420512"><ele>1013.35</ele><time>2022-02-05T19:16:24Z</time></trkpt>
<trkpt lat="46.287992" lon="11.420422"><ele>1012.98</ele><time>2022-02-05T19:16:26Z</time></trkpt>
<trkpt lat="46.288124" lon="11.420282"><ele>1012.05</ele><time>2022-02-05T19:16:28Z</time></trkpt>
<trkpt lat="46.288283" lon="11.420177"><ele>1010.54</ele><time>2022-02-05T19:16:30Z</time></trkpt>
<trkpt lat="46.288441" lon="11.420101"><ele>1009.74</ele><time>2022-02-05T19:16:32Z</time></trkpt>
<trkpt lat="46.288887" lon="11.419957"><ele>1011.51</ele><time>2022-02-05T19:16:35Z</time></trkpt>
<trkpt lat="46.289163" lon="11.419916"><ele>1012.76</ele><time>2022-02-05T19:16:37Z</time></trkpt>
<trkpt lat="46.289382" lon="11.419842"><ele>1010.17</ele><time>2022-02-05T19:16:39Z</time></trkpt>
<trkpt lat="46.289442" lon="11.419781"><ele>1008.87</ele><time>2022-02-05T19:16:41Z</time></trkpt>
<trkpt lat="46.289801" lon="11.419236"><ele>1003.78</ele><time>2022-02-05T19:16:43Z</time></trkpt>
<trkpt lat="46.289906" lon="11.419048"><ele>1002.03</ele><time>2022-02-05T19:16:45Z</time></trkpt>
<trkpt lat="46.290477" lon="11.41896"><ele>1005.06</ele><time>2022-02-05T19:16:49Z</time></trkpt>
<trkpt lat="46.291391" lon="11.418761"><ele>998.37</ele><time>2022-02-05T19:16:52Z</time></trkpt>
<trkpt lat="46.292449" lon="11.418562"><ele>1002.66</ele><time>2022-02-05T19:16:55Z</time></trkpt>
<trkpt lat="46.292891" lon="11.418445"><ele>1002.39</ele><time>2022-02-05T19:16:58Z</time></trkpt>
<trkpt lat="46.293153" lon="11.418256"><ele>1000.07</ele><time>2022-02-05T19:17:01Z</time></trkpt>
<trkpt lat="46.293464" lon="11.417971"><ele>1001.94</ele><time>2022-02-05T19:17:05Z</time></trkpt>
<trkpt lat="46.293693" lon="11.417621"><ele>1003.67</ele><time>2022-02-05T19:17:08Z</time></trkpt>
<trkpt lat="46.293861" lon="11.417219"><ele>1010.59</ele><time>2022-02-05T19:17:11Z</time></trkpt>
<trkpt lat="46.293908" lon="11.416975"><ele>1012.15</ele><time>2022-02-05T19:17:14Z</time></trkpt>
<trkpt lat="46.293994" lon="11.416122"><ele>1009.34</ele><time>2022-02-05T19:17:17Z</time></trkpt>
<trkpt lat="46.294092" lon="11.415727"><ele>1007.29</ele><time>2022-02-05T19:17:20Z</time></trkpt>
<trkpt lat="46.294269" lon="11.41516"><ele>1011.58</ele><time>2022-02-05T19:17:24Z</time></trkpt>
<trkpt lat="46.294572" lon="11.414031"><ele>1009.41</ele><time>2022-02-05T19:17:27Z</time></trkpt>
<trkpt lat="46.295378" lon="11.412035"><ele>1015.36</ele><time>2022-02-05T19:17:30Z</time></trkpt>
<trkpt lat="46.295777" lon="11.411372"><ele>1017.53</ele><time>2022-02-05T19:17:33Z</time></trkpt>
<trkpt lat="46.296174" lon="11.410884"><ele>1014.41</ele><time>2022-02-05T19:17:36Z</time></trkpt>
<trkpt lat="46.29663" lon="11.41047"><ele>1020.69</ele><time>2022-02-05T19:17:40Z</time></trkpt>
<trkpt lat="46.29706" lon="11.410111"><ele>1022.97</ele><time>2022-02-05T19:17:43Z</time></trkpt>
<trkpt lat="46.297449" lon="11.409844"><ele>1029.78</ele><time>2022-02-05T19:17:46Z</time></trkpt>
<trkpt lat="46.29777" lon="11.409682"><ele>1034.43</ele><time>2022-02-05T19:17:49Z</time></trkpt>
<trkpt lat="46.302668" lon="11.407379"><ele>1082.07</ele><time>2022-02-05T19:17:52Z</time></trkpt>
<trkpt lat="46.30287" lon="11.407285"><ele>1068.85</ele><time>2022-02-05T19:17:55Z</time></trkpt>
<trkpt lat="46.302958" lon="11.407271"><ele>1063.34</ele><time>2022-02-05T19:17:59Z</time></trkpt>
<trkpt lat="46.303459" lon="11.407251"><ele>1048.98</ele><time>2022-02-05T19:18:02Z</time></trkpt>
<trkpt lat="46.303776" lon="11.407244"><ele>1043.24</ele><time>2022-02-05T19:18:05Z</time></trkpt>
<trkpt lat="46.303995" lon="11.407261"><ele>1043.92</ele><time>2022-02-05T19:18:08Z</time></trkpt>
<trkpt lat="46.304465" lon="11.407368"><ele>1054.42</ele><time>2022-02-05T19:18:11Z</time></trkpt>
<trkpt lat="46.30466" lon="11.407347"><ele>1055.83</ele><time>2022-02-05T19:18:15Z</time></trkpt>
<trkpt lat="46.305356" lon="11.407165"><ele>1069.48</ele><time>2022-02-05T19:18:18Z</time></trkpt>
<trkpt lat="46.305563" lon="11.407032"><ele>1071.52</ele><time>2022-02-05T19:18:21Z</time></trkpt>
<trkpt lat="46.306334" lon="11.406374"><ele>1074.65</ele><time>2022-02-05T19:18:24Z</time></trkpt>
<trkpt lat="46.30651" lon="11.406197"><ele>1074.65</ele><time>2022-02-05T19:18:27Z</time></trkpt>
<trkpt lat="46.306671" lon="11.405949"><ele>1071.72</ele><time>2022-02-05T19:18:30Z</time></trkpt>
<trkpt lat="46.307297" lon="11.404852"><ele>1073.23</ele><time>2022-02-05T19:18:34Z</time></trkpt>
<trkpt lat="46.307482" lon="11.404663"><ele>1069.51</ele><time>2022-02-05T19:18:37Z</time></trkpt>
<trkpt lat="46.307625" lon="11.404571"><ele>1069.92</ele><time>2022-02-05T19:18:40Z</time></trkpt>
<trkpt lat="46.307836" lon="11.404502"><ele>1071.87</ele><time>2022-02-05T19:18:43Z</time></trkpt>
<trkpt lat="46.308003" lon="11.404502"><ele>1074.89</ele><time>2022-02-05T19:18:46Z</time></trkpt>
<trkpt lat="46.308587" lon="11.40464"><ele>1081.79</ele><time>2022-02-05T19:18:49Z</time></trkpt>
<trkpt lat="46.308949" lon="11.404691"><ele>1079.46</ele><time>2022-02-05T19:18:53Z</time></trkpt>
<trkpt lat="46.309104" lon="11.404665"><ele>1076.3</ele><time>2022-02-05T19:18:56Z</time></trkpt>
<trkpt lat="46.309272" lon="11.404576"><ele>1075.21</ele><time>2022-02-05T19:18:59Z</time></trkpt>
<trkpt lat="46.309452" lon="11.4044"><ele>1074.73</ele><time>2022-02-05T19:19:02Z</time></trkpt>
<trkpt lat="46.310747" lon="11.402824"><ele>1100.47</ele><time>2022-02-05T19:19:05Z</time></trkpt>
<trkpt lat="46.310847" lon="11.402682"><ele>1100.92</ele><time>2022-02-05T19:19:09Z</time></trkpt>
<trkpt lat="46.310927" lon="11.402532"><ele>1102.1</ele><time>2022-02-05T19:19:12Z</time></trkpt>
<trkpt lat="46.311023" lon="11.402263"><ele>1104.95</ele><time>2022-02-05T19:19:15Z</time></trkpt>
<trkpt lat="46.311044" lon="11.402117"><ele>1106.3</ele><time>2022-02-05T19:19:18Z</time></trkpt>
<trkpt lat="46.311027" lon="11.401824"><ele>1108.05</ele><time>2022-02-05T19:19:21Z</time></trkpt>
<trkpt lat="46.310936" lon="11.401552"><ele>1107.74</ele><time>2022-02-05T19:19:24Z</time></trkpt>
<trkpt lat="46.31088" lon="11.40144"><ele>1107.36</ele><time>2022-02-05T19:19:28Z</time></trkpt>
<trkpt lat="46.310448" lon="11.400988"><ele>1104.67</ele><time>2022-02-05T19:19:31Z</time></trkpt>
<trkpt lat="46.31035" lon="11.400836"><ele>1104.51</ele><time>2022-02-05T19:19:34Z</time></trkpt>
<trkpt lat="46.31027" lon="11.400642"><ele>1103.94</ele><time>2022-02-05T19:19:37Z</time></trkpt>
<trkpt lat="46.310217" lon="11.400341"><ele>1103.4</ele><time>2022-02-05T19:19:40Z</time></trkpt>
<trkpt lat="46.310145" lon="11.399383"><ele>1102.37</ele><time>2022-02-05T19:19:44Z</time></trkpt>
<trkpt lat="46.31014" lon="11.399201"><ele>1102.9</ele><time>2022-02-05T19:19:47Z</time></trkpt>
<trkpt lat="46.310181" lon="11.398643"><ele>1102.41</ele><time>2022-02-05T19:19:50Z</time></trkpt>
<trkpt lat="46.310519" lon="11.396636"><ele>1096.54</ele><time>2022-02-05T19:19:53Z</time></trkpt>
<trkpt lat="46.310702" lon="11.395406"><ele>1101.33</ele><time>2022-02-05T19:19:56Z</time></trkpt>
<trkpt lat="46.310815" lon="11.395077"><ele>1108.22</ele><time>2022-02-05T19:19:59Z</time></trkpt>
<trkpt lat="46.311216" lon="11.394526"><ele>1096.89</ele><time>2022-02-05T19:20:03Z</time></trkpt>
<trkpt lat="46.313408" lon="11.39155"><ele>1094.69</ele><time>2022-02-05T19:20:06Z</time></trkpt>
<trkpt lat="46.313645" lon="11.391287"><ele>1093.13</ele><time>2022-02-05T19:20:09Z</time></trkpt>
<trkpt lat="46.313923" lon="11.391024"><ele>1098.52</ele><time>2022-02-05T19:20:12Z</time></trkpt>
<trkpt lat="46.315456" lon="11.389899"><ele>1084.57</ele><time>2022-02-05T19:20:15Z</time></trkpt>
<trkpt lat="46.31556" lon="11.389845"><ele>1085.02</ele><time>2022-02-05T19:20:18Z</time></trkpt>
<trkpt lat="46.31592" lon="11.389799"><ele>1085.83</ele><time>2022-02-05T19:20:22Z</time></trkpt>
<trkpt lat="46.31783" lon="11.390031"><ele>1071.39</ele><time>2022-02-05T19:20:25Z</time></trkpt>
<trkpt lat="46.318022" lon="11.390002"><ele>1071.89</ele><time>2022-02-05T19:20:28Z</time></trkpt>
<trkpt lat="46.318233" lon="11.389908"><ele>1070.7</ele><time>2022-02-05T19:20:31Z</time></trkpt>
<trkpt lat="46.318444" lon="11.38969"><ele>1069.19</ele><time>2022-02-05T19:20:34Z</time></trkpt>
<trkpt lat="46.31952" lon="11.388216"><ele>1058.0</ele><time>2022-02-05T19:20:38Z</time></trkpt>
<trkpt lat="46.319954" lon="11.387626"><ele>1047.69</ele><time>2022-02-05T19:20:41Z</time></trkpt>
<trkpt lat="46.320215" lon="11.387333"><ele>1049.28</ele><time>2022-02-05T19:20:44Z</time></trkpt>
<trkpt lat="46.320352" lon="11.387233"><ele>1050.47</ele><time>2022-02-05T19:20:47Z</time></trkpt>
<trkpt lat="46.321171" lon="11.386779"><ele>1043.7</ele><time>2022-02-05T19:20:50Z</time></trkpt>
<trkpt lat="46.321497" lon="11.386574"><ele>1044.2</ele><time>2022-02-05T19:20:53Z</time></trkpt>
<trkpt lat="46.32167" lon="11.3864"><ele>1046.29</ele><time>2022-02-05T19:20:57Z</time></trkpt>
<trkpt lat="46.32179" lon="11.386203"><ele>1047.69</ele><time>2022-02-05T19:21:00Z</time></trkpt>
<trkpt lat="46.322469" lon="11.384684"><ele>1044.93</ele><time>2022-02-05T19:21:03Z</time></trkpt>
<trkpt lat="46.322696" lon="11.384243"><ele>1036.73</ele><time>2022-02-05T19:21:06Z</time></trkpt>
<trkpt lat="46.322824" lon="11.384027"><ele>1033.15</ele><time>2022-02-05T19:21:09Z</time></trkpt>
<trkpt lat="46.323589" lon="11.382964"><ele>1028.53</ele><time>2022-02-05T19:21:13Z</time></trkpt>
<trkpt lat="46.324667" lon="11.381407"><ele>1024.04</ele><time>2022-02-05T19:21:16Z</time></trkpt>
<trkpt lat="46.325715" lon="11.38001"><ele>1018.16</ele><time>2022-02-05T19:21:19Z</time></trkpt>
<trkpt lat="46.325903" lon="11.379791"><ele>1020.63</ele><time>2022-02-05T19:21:22Z</time></trkpt>
<trkpt lat="46.326755" lon="11.379034"><ele>1030.08</ele><time>2022-02-05T19:21:25Z</time></trkpt>
<trkpt lat="46.327703" lon="11.378185"><ele>1027.5</ele><time>2022-02-05T19:21:28Z</time></trkpt>
<trkpt lat="46.327925" lon="11.377949"><ele>1023.82</ele><time>2022-02-05T19:21:32Z</time></trkpt>
<trkpt lat="46.33032" lon="11.374304"><ele>989.12</ele><time>2022-02-05T19:21:35Z</time></trkpt>
<trkpt lat="46.330718" lon="11.373823"><ele>986.65</ele><time>2022-02-05T19:21:38Z</time></trkpt>
<trkpt lat="46.330943" lon="11.373396"><ele>983.28</ele><time>2022-02-05T19:21:41Z</time></trkpt>
<trkpt lat="46.331047" lon="11.37314"><ele>983.78</ele><time>2022-02-05T19:21:44Z</time></trkpt>
<trkpt lat="46.331323" lon="11.372041"><ele>985.2</ele><time>2022-02-05T19:21:48Z</time></trkpt>
<trkpt lat="46.331433" lon="11.3718"><ele>984.81</ele><time>2022-02-05T19:21:51Z</time></trkpt>
<trkpt lat="46.331633" lon="11.371547"><ele>981.77</ele><time>2022-02-05T19:21:54Z</time></trkpt>
<trkpt lat="46.3318" lon="11.37134"><ele>979.38</ele><time>2022-02-05T19:21:57Z</time></trkpt>
<trkpt lat="46.331877" lon="11.371212"><ele>978.57</ele><time>2022-02-05T19:22:00Z</time></trkpt>
<trkpt lat="46.331984" lon="11.370967"><ele>977.72</ele><time>2022-02-05T19:22:03Z</time></trkpt>
<trkpt lat="46.332015" lon="11.370846"><ele>977.49</ele><time>2022-02-05T19:22:07Z</time></trkpt>
<trkpt lat="46.33204" lon="11.370558"><ele>976.32</ele><time>2022-02-05T19:22:10Z</time></trkpt>
<trkpt lat="46.332047" lon="11.369614"><ele>975.75</ele><time>2022-02-05T19:22:13Z</time></trkpt>
<trkpt lat="46.332076" lon="11.369409"><ele>975.95</ele><time>2022-02-05T19:22:16Z</time></trkpt>
<trkpt lat="46.33213" lon="11.369167"><ele>974.64</ele><time>2022-02-05T19:22:19Z</time></trkpt>
<trkpt lat="46.332238" lon="11.368827"><ele>974.82</ele><time>2022-02-05T19:22:22Z</time></trkpt>
<trkpt lat="46.332383" lon="11.368444"><ele>973.67</ele><time>2022-02-05T19:22:26Z</time></trkpt>
<trkpt lat="46.332853" lon="11.367376"><ele>960.35</ele><time>2022-02-05T19:22:29Z</time></trkpt>
<trkpt lat="46.3331" lon="11.366853"><ele>954.52</ele><time>2022-02-05T19:22:32Z</time></trkpt>
<trkpt lat="46.333266" lon="11.366604"><ele>950.69</ele><time>2022-02-05T19:22:35Z</time></trkpt>
<trkpt lat="46.333801" lon="11.366044"><ele>953.12</ele><time>2022-02-05T19:22:38Z</time></trkpt>
<trkpt lat="46.334078" lon="11.365618"><ele>951.86</ele><time>2022-02-05T19:22:42Z</time></trkpt>
<trkpt lat="46.334468" lon="11.364937"><ele>946.8</ele><time>2022-02-05T19:22:45Z</time></trkpt>
<trkpt lat="46.334559" lon="11.364675"><ele>942.76</ele><time>2022-02-05T19:22:48Z</time></trkpt>
<trkpt lat="46.334614" lon="11.364337"><ele>939.4</ele><time>2022-02-05T19:22:51Z</time></trkpt>
<trkpt lat="46.334615" lon="11.363986"><ele>937.47</ele><time>2022-02-05T19:22:54Z</time></trkpt>
<trkpt lat="46.334469" lon="11.363299"><ele>939.13</ele><time>2022-02-05T19:22:57Z</time></trkpt>
<trkpt lat="46.334463" lon="11.363197"><ele>939.71</ele><time>2022-02-05T19:23:01Z</time></trkpt>
<trkpt lat="46.334489" lon="11.363014"><ele>939.64</ele><time>2022-02-05T19:23:04Z</time></trkpt>
<trkpt lat="46.334567" lon="11.362758"><ele>939.7</ele><time>2022-02-05T19:23:07Z</time></trkpt>
<trkpt lat="46.334712" lon="11.362538"><ele>936.05</ele><time>2022-02-05T19:23:10Z</time></trkpt>
<trkpt lat="46.334789" lon="11.362455"><ele>936.29</ele><time>2022-02-05T19:23:13Z</time></trkpt>
<trkpt lat="46.335138" lon="11.362169"><ele>934.32</ele><time>2022-02-05T19:23:17Z</time></trkpt>
<trkpt lat="46.335479" lon="11.361838"><ele>925.27</ele><time>2022-02-05T19:23:20Z</time></trkpt>
<trkpt lat="46.338383" lon="11.358941"><ele>910.42</ele><time>2022-02-05T19:23:23Z</time></trkpt>
<trkpt lat="46.338489" lon="11.358856"><ele>909.95</ele><time>2022-02-05T19:23:26Z</time></trkpt>
<trkpt lat="46.338713" lon="11.35876"><ele>909.64</ele><time>2022-02-05T19:23:29Z</time></trkpt>
<trkpt lat="46.338828" lon="11.35875"><ele>909.89</ele><time>2022-02-05T19:23:32Z</time></trkpt>
<trkpt lat="46.338966" lon="11.358763"><ele>911.25</ele><time>2022-02-05T19:23:36Z</time></trkpt>
<trkpt lat="46.339247" lon="11.358845"><ele>912.91</ele><time>2022-02-05T19:23:39Z</time></trkpt>
<trkpt lat="46.339388" lon="11.358854"><ele>912.66</ele><time>2022-02-05T19:23:42Z</time></trkpt>
<trkpt lat="46.339582" lon="11.358823"><ele>909.48</ele><time>2022-02-05T19:23:45Z</time></trkpt>
<trkpt lat="46.339665" lon="11.358782"><ele>908.19</ele><time>2022-02-05T19:23:48Z</time></trkpt>
<trkpt lat="46.340045" lon="11.358486"><ele>909.3</ele><time>2022-02-05T19:23:51Z</time></trkpt>
<trkpt lat="46.340109" lon="11.358404"><ele>909.76</ele><time>2022-02-05T19:23:55Z</time></trkpt>
<trkpt lat="46.340491" lon="11.357729"><ele>915.22</ele><time>2022-02-05T19:23:58Z</time></trkpt>
<trkpt lat="46.340592" lon="11.357624"><ele>914.89</ele><time>2022-02-05T19:24:01Z</time></trkpt>
<trkpt lat="46.34069" lon="11.357553"><ele>913.89</ele><time>2022-02-05T19:24:04Z</time></trkpt>
<trkpt lat="46.340798" lon="11.35751"><ele>911.79</ele><time>2022-02-05T19:24:07Z</time></trkpt>
<trkpt lat="46.340979" lon="11.357494"><ele>909.57</ele><time>2022-02-05T19:24:11Z</time></trkpt>
<trkpt lat="46.341455" lon="11.357569"><ele>901.31</ele><time>2022-02-05T19:24:14Z</time></trkpt>
<trkpt lat="46.341577" lon="11.35753"><ele>900.53</ele><time>2022-02-05T19:24:17Z</time></trkpt>
<trkpt lat="46.34171" lon="11.357432"><ele>901.39</ele><time>2022-02-05T19:24:20Z</time></trkpt>
<trkpt lat="46.341806" lon="11.357322"><ele>902.65</ele><time>2022-02-05T19:24:23Z</time></trkpt>
<trkpt lat="46.342508" lon="11.356148"><ele>895.23</ele><time>2022-02-05T19:24:26Z</time></trkpt>
<trkpt lat="46.34332" lon="11.355087"><ele>894.99</ele><time>2022-02-05T19:24:30Z</time></trkpt>
<trkpt lat="46.343503" lon="11.354648"><ele>883.78</ele><time>2022-02-05T19:24:33Z</time></trkpt>
<trkpt lat="46.343548" lon="11.354426"><ele>880.51</ele><time>2022-02-05T19:24:36Z</time></trkpt>
<trkpt lat="46.343544" lon="11.354304"><ele>879.73</ele><time>2022-02-05T19:24:39Z</time></trkpt>
<trkpt lat="46.343508" lon="11.354149"><ele>880.43</ele><time>2022-02-05T19:24:42Z</time></trkpt>
<trkpt lat="46.343294" lon="11.353608"><ele>886.5</ele><time>2022-02-05T19:24:46Z</time></trkpt>
<trkpt lat="46.343172" lon="11.353234"><ele>886.09</ele><time>2022-02-05T19:24:49Z</time></trkpt>
<trkpt lat="46.343025" lon="11.352548"><ele>879.2</ele><time>2022-02-05T19:24:52Z</time></trkpt>
<trkpt lat="46.34283" lon="11.351883"><ele>873.7</ele><time>2022-02-05T19:24:55Z</time></trkpt>
<trkpt lat="46.342725" lon="11.351631"><ele>874.56</ele><time>2022-02-05T19:24:58Z</time></trkpt>
<trkpt lat="46.341891" lon="11.35008"><ele>867.54</ele><time>2022-02-05T19:25:01Z</time></trkpt>
<trkpt lat="46.341845" lon="11.349965"><ele>868.39</ele><time>2022-02-05T19:25:05Z</time></trkpt>
<trkpt lat="46.341798" lon="11.349769"><ele>869.19</ele><time>2022-02-05T19:25:08Z</time></trkpt>
<trkpt lat="46.341783" lon="11.349604"><ele>869.88</ele><time>2022-02-05T19:25:11Z</time></trkpt>
<trkpt lat="46.341798" lon="11.349353"><ele>869.4</ele><time>2022-02-05T19:25:14Z</time></trkpt>
<trkpt lat="46.341992" lon="11.348578"><ele>862.29</ele><time>2022-02-05T19:25:17Z</time></trkpt>
<trkpt lat="46.34207" lon="11.348092"><ele>859.24</ele><time>2022-02-05T19:25:20Z</time></trkpt>
<trkpt lat="46.342086" lon="11.347689"><ele>858.83</ele><time>2022-02-05T19:25:24Z</time></trkpt>
<trkpt lat="46.34211" lon="11.347523"><ele>857.65</ele><time>2022-02-05T19:25:27Z</time></trkpt>
<trkpt lat="46.342172" lon="11.347338"><ele>855.61</ele><time>2022-02-05T19:25:30Z</time></trkpt>
<trkpt lat="46.342359" lon="11.347046"><ele>849.73</ele><time>2022-02-05T19:25:33Z</time></trkpt>
<trkpt lat="46.342541" lon="11.346811"><ele>842.93</ele><time>2022-02-05T19:25:36Z</time></trkpt>
<trkpt lat="46.34258" lon="11.346707"><ele>841.43</ele><time>2022-02-05T19:25:40Z</time></trkpt>
<trkpt lat="46.342599" lon="11.346575"><ele>840.11</ele><time>2022-02-05T19:25:43Z</time></trkpt>
<trkpt lat="46.342576" lon="11.346448"><ele>839.42</ele><time>2022-02-05T19:25:46Z</time></trkpt>
<trkpt lat="46.342544" lon="11.346359"><ele>838.64</ele><time>2022-02-05T19:25:49Z</time></trkpt>
<trkpt lat="46.342495" lon="11.34629"><ele>837.54</ele><time>2022-02-05T19:25:52Z</time></trkpt>
<trkpt lat="46.342428" lon="11.346238"><ele>836.67</ele><time>2022-02-05T19:25:55Z</time></trkpt>
<trkpt lat="46.341043" lon="11.34589"><ele>838.64</ele><time>2022-02-05T19:25:59Z</time></trkpt>
<trkpt lat="46.340947" lon="11.345851"><ele>843.52</ele><time>2022-02-05T19:26:02Z</time></trkpt>
<trkpt lat="46.340864" lon="11.34579"><ele>847.13</ele><time>2022-02-05T19:26:05Z</time></trkpt>
<trkpt lat="46.340797" lon="11.345702"><ele>847.74</ele><time>2022-02-05T19:26:08Z</time></trkpt>
<trkpt lat="46.340741" lon="11.345575"><ele>846.05</ele><time>2022-02-05T19:26:11Z</time></trkpt>
<trkpt lat="46.34065" lon="11.345333"><ele>840.86</ele><time>2022-02-05T19:26:15Z</time></trkpt>
<trkpt lat="46.340539" lon="11.344969"><ele>834.82</ele><time>2022-02-05T19:26:18Z</time></trkpt>
<trkpt lat="46.340496" lon="11.344728"><ele>832.03</ele><time>2022-02-05T19:26:21Z</time></trkpt>
<trkpt lat="46.34047" lon="11.344465"><ele>831.84</ele><time>2022-02-05T19:26:24Z</time></trkpt>
<trkpt lat="46.340515" lon="11.344271"><ele>830.51</ele><time>2022-02-05T19:26:27Z</time></trkpt>
<trkpt lat="46.340584" lon="11.344093"><ele>829.57</ele><time>2022-02-05T19:26:30Z</time></trkpt>
<trkpt lat="46.340979" lon="11.343598"><ele>824.5</ele><time>2022-02-05T19:26:34Z</time></trkpt>
<trkpt lat="46.341389" lon="11.343033"><ele>818.81</ele><time>2022-02-05T19:26:37Z</time></trkpt>
<trkpt lat="46.341502" lon="11.342946"><ele>819.36</ele><time>2022-02-05T19:26:40Z</time></trkpt>
<trkpt lat="46.341611" lon="11.342897"><ele>818.46</ele><time>2022-02-05T19:26:43Z</time></trkpt>
<trkpt lat="46.341993" lon="11.342945"><ele>811.7</ele><time>2022-02-05T19:26:46Z</time></trkpt>
<trkpt lat="46.342132" lon="11.342912"><ele>811.08</ele><time>2022-02-05T19:26:50Z</time></trkpt>
<trkpt lat="46.342333" lon="11.342781"><ele>808.52</ele><time>2022-02-05T19:26:53Z</time></trkpt>
<trkpt lat="46.342504" lon="11.342622"><ele>806.39</ele><time>2022-02-05T19:26:56Z</time></trkpt>
<trkpt lat="46.342656" lon="11.34242"><ele>807.01</ele><time>2022-02-05T19:26:59Z</time></trkpt>
<trkpt lat="46.343327" lon="11.341226"><ele>787.07</ele><time>2022-02-05T19:27:02Z</time></trkpt>
<trkpt lat="46.343389" lon="11.34108"><ele>786.36</ele><time>2022-02-05T19:27:05Z</time></trkpt>
<trkpt lat="46.343429" lon="11.340833"><ele>785.87</ele><time>2022-02-05T19:27:09Z</time></trkpt>
<trkpt lat="46.343407" lon="11.340295"><ele>785.63</ele><time>2022-02-05T19:27:12Z</time></trkpt>
<trkpt lat="46.3432" lon="11.337689"><ele>770.71</ele><time>2022-02-05T19:27:15Z</time></trkpt>
<trkpt lat="46.343109" lon="11.336619"><ele>757.74</ele><time>2022-02-05T19:27:18Z</time></trkpt>
<trkpt lat="46.343082" lon="11.336435"><ele>757.74</ele><time>2022-02-05T19:27:21Z</time></trkpt>
<trkpt lat="46.342975" lon="11.336157"><ele>757.83</ele><time>2022-02-05T19:27:24Z</time></trkpt>
<trkpt lat="46.342835" lon="11.335949"><ele>757.76</ele><time>2022-02-05T19:27:28Z</time></trkpt>
<trkpt lat="46.342395" lon="11.335682"><ele>765.9</ele><time>2022-02-05T19:27:31Z</time></trkpt>
<trkpt lat="46.342268" lon="11.335567"><ele>769.27</ele><time>2022-02-05T19:27:34Z</time></trkpt>
<trkpt lat="46.342186" lon="11.335341"><ele>769.15</ele><time>2022-02-05T19:27:37Z</time></trkpt>
<trkpt lat="46.34217" lon="11.335197"><ele>768.88</ele><time>2022-02-05T19:27:40Z</time></trkpt>
<trkpt lat="46.342191" lon="11.335006"><ele>768.14</ele><time>2022-02-05T19:27:44Z</time></trkpt>
<trkpt lat="46.342234" lon="11.334877"><ele>765.49</ele><time>2022-02-05T19:27:47Z</time></trkpt>
<trkpt lat="46.342296" lon="11.334767"><ele>761.15</ele><time>2022-02-05T19:27:50Z</time></trkpt>
<trkpt lat="46.342521" lon="11.334518"><ele>747.33</ele><time>2022-02-05T19:27:53Z</time></trkpt>
<trkpt lat="46.343135" lon="11.333919"><ele>732.06</ele><time>2022-02-05T19:27:56Z</time></trkpt>
<trkpt lat="46.3433" lon="11.333679"><ele>730.99</ele><time>2022-02-05T19:27:59Z</time></trkpt>
<trkpt lat="46.343366" lon="11.333476"><ele>730.53</ele><time>2022-02-05T19:28:03Z</time></trkpt>
<trkpt lat="46.3434" lon="11.33319"><ele>728.88</ele><time>2022-02-05T19:28:06Z</time></trkpt>
<trkpt lat="46.343389" lon="11.332915"><ele>726.78</ele><time>2022-02-05T19:28:09Z</time></trkpt>
<trkpt lat="46.34329" lon="11.332452"><ele>725.8</ele><time>2022-02-05T19:28:12Z</time></trkpt>
<trkpt lat="46.343111" lon="11.331277"><ele>718.71</ele><time>2022-02-05T19:28:15Z</time></trkpt>
<trkpt lat="46.342925" lon="11.330711"><ele>713.59</ele><time>2022-02-05T19:28:19Z</time></trkpt>
<trkpt lat="46.342697" lon="11.330243"><ele>711.92</ele><time>2022-02-05T19:28:22Z</time></trkpt>
<trkpt lat="46.342622" lon="11.32995"><ele>710.7</ele><time>2022-02-05T19:28:25Z</time></trkpt>
<trkpt lat="46.3426" lon="11.329642"><ele>707.98</ele><time>2022-02-05T19:28:28Z</time></trkpt>
<trkpt lat="46.342666" lon="11.327289"><ele>702.45</ele><time>2022-02-05T19:28:31Z</time></trkpt>
<trkpt lat="46.342657" lon="11.327081"><ele>701.58</ele><time>2022-02-05T19:28:34Z</time></trkpt>
<trkpt lat="46.342557" lon="11.326596"><ele>699.38</ele><time>2022-02-05T19:28:38Z</time></trkpt>
<trkpt lat="46.341764" lon="11.324533"><ele>683.37</ele><time>2022-02-05T19:28:41Z</time></trkpt>
<trkpt lat="46.34166" lon="11.324106"><ele>681.27</ele><time>2022-02-05T19:28:44Z</time></trkpt>
<trkpt lat="46.341488" lon="11.322412"><ele>679.86</ele><time>2022-02-05T19:28:47Z</time></trkpt>
<trkpt lat="46.341312" lon="11.32166"><ele>671.36</ele><time>2022-02-05T19:28:50Z</time></trkpt>
<trkpt lat="46.340461" lon="11.319627"><ele>673.23</ele><time>2022-02-05T19:28:53Z</time></trkpt>
<trkpt lat="46.340343" lon="11.3193"><ele>668.21</ele><time>2022-02-05T19:28:57Z</time></trkpt>
<trkpt lat="46.340262" lon="11.319004"><ele>661.93</ele><time>2022-02-05T19:29:00Z</time></trkpt>
<trkpt lat="46.340189" lon="11.318649"><ele>658.64</ele><time>2022-02-05T19:29:03Z</time></trkpt>
<trkpt lat="46.340154" lon="11.318355"><ele>657.63</ele><time>2022-02-05T19:29:06Z</time></trkpt>
</trkseg>
</trk>
</gpx>